<?xml version="1.0" encoding="UTF-8" standalone="no" ?>
 
<gpx xmlns="http://www.topografix.com/GPX/1/1" creator="bikehike.co.uk" version="1.1" 
    xmlns:xsi="http://www.w3.org/2001/XMLSchema-instance" 
    xsi:schemaLocation="http://www.topografix.com/GPX/1/1 http://www.topografix.com/GPX/1/1/gpx.xsd">


  <trk>
    <name>Oasts and Coasts 2026v2</name>
    <trkseg>
      <trkpt lat="51.381146" lon="0.360024">
        <ele>95.2</ele>
        <time>2026-04-24T15:59:25.000Z</time>
      </trkpt>
      <trkpt lat="51.381338" lon="0.359733">
        <ele>93.4</ele>
        <time>2026-04-24T15:59:32.000Z</time>
      </trkpt>
      <trkpt lat="51.3814" lon="0.35958">
        <ele>93.2</ele>
        <time>2026-04-24T15:59:35.000Z</time>
      </trkpt>
      <trkpt lat="51.381461" lon="0.359154">
        <ele>92.8</ele>
        <time>2026-04-24T15:59:42.000Z</time>
      </trkpt>
      <trkpt lat="51.381547" lon="0.358773">
        <ele>93</ele>
        <time>2026-04-24T15:59:49.000Z</time>
      </trkpt>
      <trkpt lat="51.381567" lon="0.358421">
        <ele>93.6</ele>
        <time>2026-04-24T15:59:55.000Z</time>
      </trkpt>
      <trkpt lat="51.381495" lon="0.357652">
        <ele>94.2</ele>
        <time>2026-04-24T16:00:07.000Z</time>
      </trkpt>
      <trkpt lat="51.381514" lon="0.356991">
        <ele>94.2</ele>
        <time>2026-04-24T16:00:18.000Z</time>
      </trkpt>
      <trkpt lat="51.38148" lon="0.356566">
        <ele>94.4</ele>
        <time>2026-04-24T16:00:26.000Z</time>
      </trkpt>
      <trkpt lat="51.381428" lon="0.356287">
        <ele>94.8</ele>
        <time>2026-04-24T16:00:30.000Z</time>
      </trkpt>
      <trkpt lat="51.381317" lon="0.355885">
        <ele>96.2</ele>
        <time>2026-04-24T16:00:38.000Z</time>
      </trkpt>
      <trkpt lat="51.381245" lon="0.355755">
        <ele>96.6</ele>
        <time>2026-04-24T16:00:41.000Z</time>
      </trkpt>
      <trkpt lat="51.381118" lon="0.3554">
        <ele>98.4</ele>
        <time>2026-04-24T16:00:48.000Z</time>
      </trkpt>
      <trkpt lat="51.381049" lon="0.35526">
        <ele>99</ele>
        <time>2026-04-24T16:00:50.000Z</time>
      </trkpt>
      <trkpt lat="51.380999" lon="0.355067">
        <ele>99.6</ele>
        <time>2026-04-24T16:00:54.000Z</time>
      </trkpt>
      <trkpt lat="51.380976" lon="0.355016">
        <ele>100</ele>
        <time>2026-04-24T16:00:55.000Z</time>
      </trkpt>
      <trkpt lat="51.380932" lon="0.354978">
        <ele>100.2</ele>
        <time>2026-04-24T16:00:56.000Z</time>
      </trkpt>
      <trkpt lat="51.380915" lon="0.354931">
        <ele>100.4</ele>
        <time>2026-04-24T16:00:57.000Z</time>
      </trkpt>
      <trkpt lat="51.380838" lon="0.35426">
        <ele>102.2</ele>
        <time>2026-04-24T16:01:09.000Z</time>
      </trkpt>
      <trkpt lat="51.380785" lon="0.354017">
        <ele>102.6</ele>
        <time>2026-04-24T16:01:13.000Z</time>
      </trkpt>
      <trkpt lat="51.380752" lon="0.353716">
        <ele>103</ele>
        <time>2026-04-24T16:01:18.000Z</time>
      </trkpt>
      <trkpt lat="51.380665" lon="0.35341">
        <ele>103.2</ele>
        <time>2026-04-24T16:01:24.000Z</time>
      </trkpt>
      <trkpt lat="51.380521" lon="0.353048">
        <ele>103.4</ele>
        <time>2026-04-24T16:01:31.000Z</time>
      </trkpt>
      <trkpt lat="51.380321" lon="0.352442">
        <ele>103</ele>
        <time>2026-04-24T16:01:42.000Z</time>
      </trkpt>
      <trkpt lat="51.380266" lon="0.351962">
        <ele>101.6</ele>
        <time>2026-04-24T16:01:50.000Z</time>
      </trkpt>
      <trkpt lat="51.38028" lon="0.351713">
        <ele>101.2</ele>
        <time>2026-04-24T16:01:54.000Z</time>
      </trkpt>
      <trkpt lat="51.380328" lon="0.351615">
        <ele>100.8</ele>
        <time>2026-04-24T16:01:57.000Z</time>
      </trkpt>
      <trkpt lat="51.38057" lon="0.351303">
        <ele>99.8</ele>
        <time>2026-04-24T16:02:05.000Z</time>
      </trkpt>
      <trkpt lat="51.380699" lon="0.351094">
        <ele>99.2</ele>
        <time>2026-04-24T16:02:10.000Z</time>
      </trkpt>
      <trkpt lat="51.380921" lon="0.350551">
        <ele>98.2</ele>
        <time>2026-04-24T16:02:21.000Z</time>
      </trkpt>
      <trkpt lat="51.381123" lon="0.34989">
        <ele>96.4</ele>
        <time>2026-04-24T16:02:33.000Z</time>
      </trkpt>
      <trkpt lat="51.381347" lon="0.34931">
        <ele>94.4</ele>
        <time>2026-04-24T16:02:44.000Z</time>
      </trkpt>
      <trkpt lat="51.38353" lon="0.344967">
        <ele>77.8</ele>
        <time>2026-04-24T16:04:17.000Z</time>
      </trkpt>
      <trkpt lat="51.384111" lon="0.34363">
        <ele>80.8</ele>
        <time>2026-04-24T16:04:44.000Z</time>
      </trkpt>
      <trkpt lat="51.38433" lon="0.343045">
        <ele>82</ele>
        <time>2026-04-24T16:04:56.000Z</time>
      </trkpt>
      <trkpt lat="51.384885" lon="0.340959">
        <ele>86</ele>
        <time>2026-04-24T16:05:33.000Z</time>
      </trkpt>
      <trkpt lat="51.38542" lon="0.339548">
        <ele>93</ele>
        <time>2026-04-24T16:06:01.000Z</time>
      </trkpt>
      <trkpt lat="51.385704" lon="0.338964">
        <ele>95.4</ele>
        <time>2026-04-24T16:06:13.000Z</time>
      </trkpt>
      <trkpt lat="51.385859" lon="0.338577">
        <ele>96.4</ele>
        <time>2026-04-24T16:06:21.000Z</time>
      </trkpt>
      <trkpt lat="51.385999" lon="0.338132">
        <ele>97.6</ele>
        <time>2026-04-24T16:06:29.000Z</time>
      </trkpt>
      <trkpt lat="51.386267" lon="0.337128">
        <ele>100.8</ele>
        <time>2026-04-24T16:06:47.000Z</time>
      </trkpt>
      <trkpt lat="51.386408" lon="0.336759">
        <ele>101.4</ele>
        <time>2026-04-24T16:06:55.000Z</time>
      </trkpt>
      <trkpt lat="51.386497" lon="0.336618">
        <ele>101.6</ele>
        <time>2026-04-24T16:06:58.000Z</time>
      </trkpt>
      <trkpt lat="51.386786" lon="0.336427">
        <ele>102</ele>
        <time>2026-04-24T16:07:06.000Z</time>
      </trkpt>
      <trkpt lat="51.386856" lon="0.336334">
        <ele>101.8</ele>
        <time>2026-04-24T16:07:09.000Z</time>
      </trkpt>
      <trkpt lat="51.387061" lon="0.335738">
        <ele>101.4</ele>
        <time>2026-04-24T16:07:20.000Z</time>
      </trkpt>
      <trkpt lat="51.387372" lon="0.335111">
        <ele>101.6</ele>
        <time>2026-04-24T16:07:33.000Z</time>
      </trkpt>
      <trkpt lat="51.387621" lon="0.334541">
        <ele>101.6</ele>
        <time>2026-04-24T16:07:45.000Z</time>
      </trkpt>
      <trkpt lat="51.387863" lon="0.333767">
        <ele>101.8</ele>
        <time>2026-04-24T16:07:59.000Z</time>
      </trkpt>
      <trkpt lat="51.387959" lon="0.333594">
        <ele>101.8</ele>
        <time>2026-04-24T16:08:03.000Z</time>
      </trkpt>
      <trkpt lat="51.38832" lon="0.333165">
        <ele>101.6</ele>
        <time>2026-04-24T16:08:15.000Z</time>
      </trkpt>
      <trkpt lat="51.388435" lon="0.332991">
        <ele>101.4</ele>
        <time>2026-04-24T16:08:19.000Z</time>
      </trkpt>
      <trkpt lat="51.388588" lon="0.33265">
        <ele>101.4</ele>
        <time>2026-04-24T16:08:26.000Z</time>
      </trkpt>
      <trkpt lat="51.389043" lon="0.331514">
        <ele>101.4</ele>
        <time>2026-04-24T16:08:49.000Z</time>
      </trkpt>
      <trkpt lat="51.389325" lon="0.330996">
        <ele>101</ele>
        <time>2026-04-24T16:09:00.000Z</time>
      </trkpt>
      <trkpt lat="51.390173" lon="0.329127">
        <ele>96</ele>
        <time>2026-04-24T16:09:39.000Z</time>
      </trkpt>
      <trkpt lat="51.390295" lon="0.328917">
        <ele>95.2</ele>
        <time>2026-04-24T16:09:44.000Z</time>
      </trkpt>
      <trkpt lat="51.390426" lon="0.328732">
        <ele>94</ele>
        <time>2026-04-24T16:09:48.000Z</time>
      </trkpt>
      <trkpt lat="51.391218" lon="0.32774">
        <ele>90</ele>
        <time>2026-04-24T16:10:15.000Z</time>
      </trkpt>
      <trkpt lat="51.39146" lon="0.32738">
        <ele>88.6</ele>
        <time>2026-04-24T16:10:24.000Z</time>
      </trkpt>
      <trkpt lat="51.392101" lon="0.326214">
        <ele>86</ele>
        <time>2026-04-24T16:10:50.000Z</time>
      </trkpt>
      <trkpt lat="51.392796" lon="0.324726">
        <ele>82.8</ele>
        <time>2026-04-24T16:11:21.000Z</time>
      </trkpt>
      <trkpt lat="51.39288" lon="0.324461">
        <ele>82.2</ele>
        <time>2026-04-24T16:11:26.000Z</time>
      </trkpt>
      <trkpt lat="51.392936" lon="0.324166">
        <ele>81.2</ele>
        <time>2026-04-24T16:11:31.000Z</time>
      </trkpt>
      <trkpt lat="51.392944" lon="0.324004">
        <ele>80.6</ele>
        <time>2026-04-24T16:11:34.000Z</time>
      </trkpt>
      <trkpt lat="51.39292" lon="0.323335">
        <ele>78.2</ele>
        <time>2026-04-24T16:11:45.000Z</time>
      </trkpt>
      <trkpt lat="51.392983" lon="0.32302">
        <ele>76.4</ele>
        <time>2026-04-24T16:11:50.000Z</time>
      </trkpt>
      <trkpt lat="51.393198" lon="0.322493">
        <ele>74</ele>
        <time>2026-04-24T16:12:01.000Z</time>
      </trkpt>
      <trkpt lat="51.393284" lon="0.32224">
        <ele>72.8</ele>
        <time>2026-04-24T16:12:06.000Z</time>
      </trkpt>
      <trkpt lat="51.39332" lon="0.322112">
        <ele>72.4</ele>
        <time>2026-04-24T16:12:08.000Z</time>
      </trkpt>
      <trkpt lat="51.393359" lon="0.321829">
        <ele>71.2</ele>
        <time>2026-04-24T16:12:13.000Z</time>
      </trkpt>
      <trkpt lat="51.393358" lon="0.321677">
        <ele>70.6</ele>
        <time>2026-04-24T16:12:15.000Z</time>
      </trkpt>
      <trkpt lat="51.393288" lon="0.320948">
        <ele>67.4</ele>
        <time>2026-04-24T16:12:28.000Z</time>
      </trkpt>
      <trkpt lat="51.393302" lon="0.320627">
        <ele>66.4</ele>
        <time>2026-04-24T16:12:33.000Z</time>
      </trkpt>
      <trkpt lat="51.393326" lon="0.320489">
        <ele>66.4</ele>
        <time>2026-04-24T16:12:35.000Z</time>
      </trkpt>
      <trkpt lat="51.393393" lon="0.320258">
        <ele>65.8</ele>
        <time>2026-04-24T16:12:40.000Z</time>
      </trkpt>
      <trkpt lat="51.393486" lon="0.320031">
        <ele>64.6</ele>
        <time>2026-04-24T16:12:44.000Z</time>
      </trkpt>
      <trkpt lat="51.393848" lon="0.319444">
        <ele>63</ele>
        <time>2026-04-24T16:12:58.000Z</time>
      </trkpt>
      <trkpt lat="51.393936" lon="0.319273">
        <ele>62.8</ele>
        <time>2026-04-24T16:13:02.000Z</time>
      </trkpt>
      <trkpt lat="51.394235" lon="0.318569">
        <ele>61.6</ele>
        <time>2026-04-24T16:13:16.000Z</time>
      </trkpt>
      <trkpt lat="51.394427" lon="0.318058">
        <ele>61</ele>
        <time>2026-04-24T16:13:26.000Z</time>
      </trkpt>
      <trkpt lat="51.394557" lon="0.317605">
        <ele>60.6</ele>
        <time>2026-04-24T16:13:34.000Z</time>
      </trkpt>
      <trkpt lat="51.39482" lon="0.316406">
        <ele>59.4</ele>
        <time>2026-04-24T16:13:55.000Z</time>
      </trkpt>
      <trkpt lat="51.395196" lon="0.31506">
        <ele>58</ele>
        <time>2026-04-24T16:14:20.000Z</time>
      </trkpt>
      <trkpt lat="51.395332" lon="0.314405">
        <ele>57.6</ele>
        <time>2026-04-24T16:14:31.000Z</time>
      </trkpt>
      <trkpt lat="51.395387" lon="0.31399">
        <ele>57.4</ele>
        <time>2026-04-24T16:14:38.000Z</time>
      </trkpt>
      <trkpt lat="51.395394" lon="0.313637">
        <ele>57.4</ele>
        <time>2026-04-24T16:14:44.000Z</time>
      </trkpt>
      <trkpt lat="51.395355" lon="0.312639">
        <ele>57.2</ele>
        <time>2026-04-24T16:15:01.000Z</time>
      </trkpt>
      <trkpt lat="51.395375" lon="0.312336">
        <ele>57.2</ele>
        <time>2026-04-24T16:15:06.000Z</time>
      </trkpt>
      <trkpt lat="51.395458" lon="0.31191">
        <ele>57</ele>
        <time>2026-04-24T16:15:13.000Z</time>
      </trkpt>
      <trkpt lat="51.3957" lon="0.31088">
        <ele>56.6</ele>
        <time>2026-04-24T16:15:32.000Z</time>
      </trkpt>
      <trkpt lat="51.395891" lon="0.310151">
        <ele>56.6</ele>
        <time>2026-04-24T16:15:45.000Z</time>
      </trkpt>
      <trkpt lat="51.396023" lon="0.309784">
        <ele>56.4</ele>
        <time>2026-04-24T16:15:52.000Z</time>
      </trkpt>
      <trkpt lat="51.396522" lon="0.308586">
        <ele>55.4</ele>
        <time>2026-04-24T16:16:16.000Z</time>
      </trkpt>
      <trkpt lat="51.396745" lon="0.307853">
        <ele>54.8</ele>
        <time>2026-04-24T16:16:29.000Z</time>
      </trkpt>
      <trkpt lat="51.396855" lon="0.30739">
        <ele>54.2</ele>
        <time>2026-04-24T16:16:38.000Z</time>
      </trkpt>
      <trkpt lat="51.397049" lon="0.306872">
        <ele>54</ele>
        <time>2026-04-24T16:16:48.000Z</time>
      </trkpt>
      <trkpt lat="51.397696" lon="0.304746">
        <ele>51.8</ele>
        <time>2026-04-24T16:17:27.000Z</time>
      </trkpt>
      <trkpt lat="51.398" lon="0.303826">
        <ele>51.4</ele>
        <time>2026-04-24T16:17:44.000Z</time>
      </trkpt>
      <trkpt lat="51.398391" lon="0.302359">
        <ele>50.2</ele>
        <time>2026-04-24T16:18:11.000Z</time>
      </trkpt>
      <trkpt lat="51.398415" lon="0.302052">
        <ele>49.6</ele>
        <time>2026-04-24T16:18:16.000Z</time>
      </trkpt>
      <trkpt lat="51.398533" lon="0.301733">
        <ele>49.4</ele>
        <time>2026-04-24T16:18:22.000Z</time>
      </trkpt>
      <trkpt lat="51.398695" lon="0.300983">
        <ele>49</ele>
        <time>2026-04-24T16:18:36.000Z</time>
      </trkpt>
      <trkpt lat="51.399312" lon="0.298756">
        <ele>48.4</ele>
        <time>2026-04-24T16:19:16.000Z</time>
      </trkpt>
      <trkpt lat="51.399454" lon="0.298302">
        <ele>48</ele>
        <time>2026-04-24T16:19:25.000Z</time>
      </trkpt>
      <trkpt lat="51.399982" lon="0.296764">
        <ele>47.2</ele>
        <time>2026-04-24T16:19:54.000Z</time>
      </trkpt>
      <trkpt lat="51.400127" lon="0.296463">
        <ele>47</ele>
        <time>2026-04-24T16:20:00.000Z</time>
      </trkpt>
      <trkpt lat="51.400798" lon="0.295555">
        <ele>46.2</ele>
        <time>2026-04-24T16:20:24.000Z</time>
      </trkpt>
      <trkpt lat="51.401468" lon="0.29474">
        <ele>45.2</ele>
        <time>2026-04-24T16:20:46.000Z</time>
      </trkpt>
      <trkpt lat="51.4016" lon="0.294538">
        <ele>45.2</ele>
        <time>2026-04-24T16:20:51.000Z</time>
      </trkpt>
      <trkpt lat="51.401759" lon="0.294202">
        <ele>45</ele>
        <time>2026-04-24T16:20:58.000Z</time>
      </trkpt>
      <trkpt lat="51.401915" lon="0.29376">
        <ele>44.6</ele>
        <time>2026-04-24T16:21:06.000Z</time>
      </trkpt>
      <trkpt lat="51.401995" lon="0.293469">
        <ele>44.4</ele>
        <time>2026-04-24T16:21:12.000Z</time>
      </trkpt>
      <trkpt lat="51.402206" lon="0.292457">
        <ele>43.6</ele>
        <time>2026-04-24T16:21:29.000Z</time>
      </trkpt>
      <trkpt lat="51.402452" lon="0.291139">
        <ele>42.4</ele>
        <time>2026-04-24T16:21:52.000Z</time>
      </trkpt>
      <trkpt lat="51.402638" lon="0.290279">
        <ele>42</ele>
        <time>2026-04-24T16:22:08.000Z</time>
      </trkpt>
      <trkpt lat="51.402866" lon="0.288859">
        <ele>41</ele>
        <time>2026-04-24T16:22:32.000Z</time>
      </trkpt>
      <trkpt lat="51.403178" lon="0.287236">
        <ele>40.8</ele>
        <time>2026-04-24T16:23:00.000Z</time>
      </trkpt>
      <trkpt lat="51.403168" lon="0.28709">
        <ele>40.8</ele>
        <time>2026-04-24T16:23:03.000Z</time>
      </trkpt>
      <trkpt lat="51.403099" lon="0.286999">
        <ele>40.6</ele>
        <time>2026-04-24T16:23:05.000Z</time>
      </trkpt>
      <trkpt lat="51.402571" lon="0.286717">
        <ele>40.2</ele>
        <time>2026-04-24T16:23:20.000Z</time>
      </trkpt>
      <trkpt lat="51.402427" lon="0.286577">
        <ele>40.2</ele>
        <time>2026-04-24T16:23:24.000Z</time>
      </trkpt>
      <trkpt lat="51.402266" lon="0.286344">
        <ele>40.4</ele>
        <time>2026-04-24T16:23:30.000Z</time>
      </trkpt>
      <trkpt lat="51.402129" lon="0.286199">
        <ele>40.6</ele>
        <time>2026-04-24T16:23:35.000Z</time>
      </trkpt>
      <trkpt lat="51.401713" lon="0.285878">
        <ele>41.2</ele>
        <time>2026-04-24T16:23:47.000Z</time>
      </trkpt>
      <trkpt lat="51.401031" lon="0.285412">
        <ele>43</ele>
        <time>2026-04-24T16:24:07.000Z</time>
      </trkpt>
      <trkpt lat="51.400791" lon="0.28521">
        <ele>43.4</ele>
        <time>2026-04-24T16:24:14.000Z</time>
      </trkpt>
      <trkpt lat="51.400645" lon="0.285057">
        <ele>43.6</ele>
        <time>2026-04-24T16:24:19.000Z</time>
      </trkpt>
      <trkpt lat="51.400537" lon="0.284869">
        <ele>44.2</ele>
        <time>2026-04-24T16:24:23.000Z</time>
      </trkpt>
      <trkpt lat="51.400273" lon="0.284192">
        <ele>45.4</ele>
        <time>2026-04-24T16:24:36.000Z</time>
      </trkpt>
      <trkpt lat="51.400007" lon="0.283604">
        <ele>46.4</ele>
        <time>2026-04-24T16:24:48.000Z</time>
      </trkpt>
      <trkpt lat="51.39985" lon="0.283416">
        <ele>47</ele>
        <time>2026-04-24T16:24:53.000Z</time>
      </trkpt>
      <trkpt lat="51.399692" lon="0.283058">
        <ele>48.2</ele>
        <time>2026-04-24T16:25:01.000Z</time>
      </trkpt>
      <trkpt lat="51.399606" lon="0.282903">
        <ele>48.2</ele>
        <time>2026-04-24T16:25:04.000Z</time>
      </trkpt>
      <trkpt lat="51.399102" lon="0.282215">
        <ele>50.4</ele>
        <time>2026-04-24T16:25:22.000Z</time>
      </trkpt>
      <trkpt lat="51.398996" lon="0.282017">
        <ele>51.2</ele>
        <time>2026-04-24T16:25:26.000Z</time>
      </trkpt>
      <trkpt lat="51.398945" lon="0.28189">
        <ele>51.8</ele>
        <time>2026-04-24T16:25:29.000Z</time>
      </trkpt>
      <trkpt lat="51.398863" lon="0.281595">
        <ele>53.2</ele>
        <time>2026-04-24T16:25:34.000Z</time>
      </trkpt>
      <trkpt lat="51.398673" lon="0.281142">
        <ele>55.4</ele>
        <time>2026-04-24T16:25:43.000Z</time>
      </trkpt>
      <trkpt lat="51.398454" lon="0.280812">
        <ele>57.8</ele>
        <time>2026-04-24T16:25:51.000Z</time>
      </trkpt>
      <trkpt lat="51.398308" lon="0.280649">
        <ele>59</ele>
        <time>2026-04-24T16:25:56.000Z</time>
      </trkpt>
      <trkpt lat="51.398118" lon="0.280395">
        <ele>60.8</ele>
        <time>2026-04-24T16:26:03.000Z</time>
      </trkpt>
      <trkpt lat="51.397818" lon="0.279911">
        <ele>62.8</ele>
        <time>2026-04-24T16:26:14.000Z</time>
      </trkpt>
      <trkpt lat="51.397683" lon="0.279742">
        <ele>63.8</ele>
        <time>2026-04-24T16:26:19.000Z</time>
      </trkpt>
      <trkpt lat="51.397442" lon="0.279515">
        <ele>65.4</ele>
        <time>2026-04-24T16:26:26.000Z</time>
      </trkpt>
      <trkpt lat="51.397049" lon="0.279267">
        <ele>66.8</ele>
        <time>2026-04-24T16:26:37.000Z</time>
      </trkpt>
      <trkpt lat="51.396815" lon="0.279051">
        <ele>67.4</ele>
        <time>2026-04-24T16:26:45.000Z</time>
      </trkpt>
      <trkpt lat="51.396702" lon="0.278895">
        <ele>67.8</ele>
        <time>2026-04-24T16:26:48.000Z</time>
      </trkpt>
      <trkpt lat="51.396663" lon="0.278792">
        <ele>68</ele>
        <time>2026-04-24T16:26:51.000Z</time>
      </trkpt>
      <trkpt lat="51.396647" lon="0.278693">
        <ele>68.2</ele>
        <time>2026-04-24T16:26:52.000Z</time>
      </trkpt>
      <trkpt lat="51.396649" lon="0.278592">
        <ele>68.4</ele>
        <time>2026-04-24T16:26:54.000Z</time>
      </trkpt>
      <trkpt lat="51.396724" lon="0.278175">
        <ele>69.8</ele>
        <time>2026-04-24T16:27:01.000Z</time>
      </trkpt>
      <trkpt lat="51.396884" lon="0.276893">
        <ele>74.6</ele>
        <time>2026-04-24T16:27:23.000Z</time>
      </trkpt>
      <trkpt lat="51.397077" lon="0.274842">
        <ele>77.8</ele>
        <time>2026-04-24T16:27:57.000Z</time>
      </trkpt>
      <trkpt lat="51.397125" lon="0.274663">
        <ele>78.2</ele>
        <time>2026-04-24T16:28:01.000Z</time>
      </trkpt>
      <trkpt lat="51.397393" lon="0.27394">
        <ele>79.6</ele>
        <time>2026-04-24T16:28:15.000Z</time>
      </trkpt>
      <trkpt lat="51.397511" lon="0.273382">
        <ele>80.2</ele>
        <time>2026-04-24T16:28:25.000Z</time>
      </trkpt>
      <trkpt lat="51.397575" lon="0.272986">
        <ele>81</ele>
        <time>2026-04-24T16:28:31.000Z</time>
      </trkpt>
      <trkpt lat="51.39774" lon="0.272437">
        <ele>82.6</ele>
        <time>2026-04-24T16:28:41.000Z</time>
      </trkpt>
      <trkpt lat="51.397892" lon="0.271656">
        <ele>83.6</ele>
        <time>2026-04-24T16:28:55.000Z</time>
      </trkpt>
      <trkpt lat="51.398171" lon="0.270625">
        <ele>81.2</ele>
        <time>2026-04-24T16:29:14.000Z</time>
      </trkpt>
      <trkpt lat="51.398371" lon="0.269609">
        <ele>78.4</ele>
        <time>2026-04-24T16:29:32.000Z</time>
      </trkpt>
      <trkpt lat="51.398553" lon="0.268826">
        <ele>77.4</ele>
        <time>2026-04-24T16:29:45.000Z</time>
      </trkpt>
      <trkpt lat="51.398668" lon="0.267801">
        <ele>76</ele>
        <time>2026-04-24T16:30:03.000Z</time>
      </trkpt>
      <trkpt lat="51.398779" lon="0.267215">
        <ele>75.2</ele>
        <time>2026-04-24T16:30:13.000Z</time>
      </trkpt>
      <trkpt lat="51.398888" lon="0.266844">
        <ele>74.6</ele>
        <time>2026-04-24T16:30:20.000Z</time>
      </trkpt>
      <trkpt lat="51.399138" lon="0.266226">
        <ele>73.8</ele>
        <time>2026-04-24T16:30:32.000Z</time>
      </trkpt>
      <trkpt lat="51.399234" lon="0.265931">
        <ele>73.6</ele>
        <time>2026-04-24T16:30:38.000Z</time>
      </trkpt>
      <trkpt lat="51.399544" lon="0.26469">
        <ele>71.2</ele>
        <time>2026-04-24T16:31:00.000Z</time>
      </trkpt>
      <trkpt lat="51.39992" lon="0.263408">
        <ele>69.2</ele>
        <time>2026-04-24T16:31:24.000Z</time>
      </trkpt>
      <trkpt lat="51.400348" lon="0.261514">
        <ele>68.6</ele>
        <time>2026-04-24T16:31:57.000Z</time>
      </trkpt>
      <trkpt lat="51.400386" lon="0.261161">
        <ele>68.6</ele>
        <time>2026-04-24T16:32:03.000Z</time>
      </trkpt>
      <trkpt lat="51.400338" lon="0.260306">
        <ele>68.4</ele>
        <time>2026-04-24T16:32:17.000Z</time>
      </trkpt>
      <trkpt lat="51.400344" lon="0.26011">
        <ele>68.2</ele>
        <time>2026-04-24T16:32:21.000Z</time>
      </trkpt>
      <trkpt lat="51.400372" lon="0.259913">
        <ele>68</ele>
        <time>2026-04-24T16:32:24.000Z</time>
      </trkpt>
      <trkpt lat="51.400572" lon="0.25924">
        <ele>67.4</ele>
        <time>2026-04-24T16:32:36.000Z</time>
      </trkpt>
      <trkpt lat="51.400681" lon="0.258736">
        <ele>66.8</ele>
        <time>2026-04-24T16:32:45.000Z</time>
      </trkpt>
      <trkpt lat="51.40074" lon="0.258311">
        <ele>65.8</ele>
        <time>2026-04-24T16:32:52.000Z</time>
      </trkpt>
      <trkpt lat="51.400808" lon="0.257434">
        <ele>64</ele>
        <time>2026-04-24T16:33:07.000Z</time>
      </trkpt>
      <trkpt lat="51.400891" lon="0.256888">
        <ele>63.2</ele>
        <time>2026-04-24T16:33:17.000Z</time>
      </trkpt>
      <trkpt lat="51.401026" lon="0.256368">
        <ele>61.8</ele>
        <time>2026-04-24T16:33:26.000Z</time>
      </trkpt>
      <trkpt lat="51.401395" lon="0.255185">
        <ele>58.6</ele>
        <time>2026-04-24T16:33:48.000Z</time>
      </trkpt>
      <trkpt lat="51.401479" lon="0.254839">
        <ele>58</ele>
        <time>2026-04-24T16:33:54.000Z</time>
      </trkpt>
      <trkpt lat="51.401562" lon="0.254359">
        <ele>56.8</ele>
        <time>2026-04-24T16:34:02.000Z</time>
      </trkpt>
      <trkpt lat="51.401583" lon="0.254003">
        <ele>56.2</ele>
        <time>2026-04-24T16:34:08.000Z</time>
      </trkpt>
      <trkpt lat="51.401576" lon="0.253549">
        <ele>55.2</ele>
        <time>2026-04-24T16:34:16.000Z</time>
      </trkpt>
      <trkpt lat="51.401534" lon="0.253232">
        <ele>55</ele>
        <time>2026-04-24T16:34:21.000Z</time>
      </trkpt>
      <trkpt lat="51.40148" lon="0.253058">
        <ele>54.6</ele>
        <time>2026-04-24T16:34:25.000Z</time>
      </trkpt>
      <trkpt lat="51.401437" lon="0.252988">
        <ele>54.2</ele>
        <time>2026-04-24T16:34:26.000Z</time>
      </trkpt>
      <trkpt lat="51.401327" lon="0.252892">
        <ele>53.8</ele>
        <time>2026-04-24T16:34:30.000Z</time>
      </trkpt>
      <trkpt lat="51.400824" lon="0.252746">
        <ele>51.8</ele>
        <time>2026-04-24T16:34:43.000Z</time>
      </trkpt>
      <trkpt lat="51.400668" lon="0.252679">
        <ele>51</ele>
        <time>2026-04-24T16:34:48.000Z</time>
      </trkpt>
      <trkpt lat="51.400505" lon="0.252583">
        <ele>50.2</ele>
        <time>2026-04-24T16:34:52.000Z</time>
      </trkpt>
      <trkpt lat="51.399714" lon="0.252079">
        <ele>45.6</ele>
        <time>2026-04-24T16:35:15.000Z</time>
      </trkpt>
      <trkpt lat="51.398734" lon="0.251399">
        <ele>39</ele>
        <time>2026-04-24T16:35:43.000Z</time>
      </trkpt>
      <trkpt lat="51.398417" lon="0.251216">
        <ele>40.6</ele>
        <time>2026-04-24T16:35:52.000Z</time>
      </trkpt>
      <trkpt lat="51.397943" lon="0.250863">
        <ele>44.4</ele>
        <time>2026-04-24T16:36:06.000Z</time>
      </trkpt>
      <trkpt lat="51.397021" lon="0.250238">
        <ele>48</ele>
        <time>2026-04-24T16:36:33.000Z</time>
      </trkpt>
      <trkpt lat="51.396366" lon="0.249549">
        <ele>48.4</ele>
        <time>2026-04-24T16:36:54.000Z</time>
      </trkpt>
      <trkpt lat="51.396083" lon="0.249204">
        <ele>46.8</ele>
        <time>2026-04-24T16:37:03.000Z</time>
      </trkpt>
      <trkpt lat="51.395172" lon="0.248197">
        <ele>43.8</ele>
        <time>2026-04-24T16:37:33.000Z</time>
      </trkpt>
      <trkpt lat="51.394862" lon="0.247824">
        <ele>41.6</ele>
        <time>2026-04-24T16:37:43.000Z</time>
      </trkpt>
      <trkpt lat="51.394286" lon="0.246985">
        <ele>39.2</ele>
        <time>2026-04-24T16:38:04.000Z</time>
      </trkpt>
      <trkpt lat="51.39393" lon="0.246358">
        <ele>37.4</ele>
        <time>2026-04-24T16:38:18.000Z</time>
      </trkpt>
      <trkpt lat="51.393784" lon="0.246181">
        <ele>37.2</ele>
        <time>2026-04-24T16:38:23.000Z</time>
      </trkpt>
      <trkpt lat="51.393681" lon="0.246086">
        <ele>37</ele>
        <time>2026-04-24T16:38:26.000Z</time>
      </trkpt>
      <trkpt lat="51.393519" lon="0.245973">
        <ele>37.2</ele>
        <time>2026-04-24T16:38:31.000Z</time>
      </trkpt>
      <trkpt lat="51.392915" lon="0.245676">
        <ele>37.4</ele>
        <time>2026-04-24T16:38:48.000Z</time>
      </trkpt>
      <trkpt lat="51.392759" lon="0.24557">
        <ele>37.6</ele>
        <time>2026-04-24T16:38:52.000Z</time>
      </trkpt>
      <trkpt lat="51.392509" lon="0.245365">
        <ele>38</ele>
        <time>2026-04-24T16:39:00.000Z</time>
      </trkpt>
      <trkpt lat="51.392207" lon="0.245102">
        <ele>38</ele>
        <time>2026-04-24T16:39:09.000Z</time>
      </trkpt>
      <trkpt lat="51.391518" lon="0.244285">
        <ele>38.2</ele>
        <time>2026-04-24T16:39:32.000Z</time>
      </trkpt>
      <trkpt lat="51.391325" lon="0.24411">
        <ele>38.2</ele>
        <time>2026-04-24T16:39:38.000Z</time>
      </trkpt>
      <trkpt lat="51.391156" lon="0.244024">
        <ele>38</ele>
        <time>2026-04-24T16:39:43.000Z</time>
      </trkpt>
      <trkpt lat="51.391022" lon="0.243996">
        <ele>37.8</ele>
        <time>2026-04-24T16:39:46.000Z</time>
      </trkpt>
      <trkpt lat="51.390884" lon="0.243994">
        <ele>37.6</ele>
        <time>2026-04-24T16:39:50.000Z</time>
      </trkpt>
      <trkpt lat="51.390602" lon="0.244057">
        <ele>36.8</ele>
        <time>2026-04-24T16:39:58.000Z</time>
      </trkpt>
      <trkpt lat="51.389999" lon="0.244286">
        <ele>35.2</ele>
        <time>2026-04-24T16:40:14.000Z</time>
      </trkpt>
      <trkpt lat="51.389756" lon="0.244344">
        <ele>34.6</ele>
        <time>2026-04-24T16:40:21.000Z</time>
      </trkpt>
      <trkpt lat="51.38946" lon="0.244332">
        <ele>34.4</ele>
        <time>2026-04-24T16:40:29.000Z</time>
      </trkpt>
      <trkpt lat="51.389235" lon="0.244257">
        <ele>34.4</ele>
        <time>2026-04-24T16:40:35.000Z</time>
      </trkpt>
      <trkpt lat="51.389083" lon="0.244158">
        <ele>34.6</ele>
        <time>2026-04-24T16:40:39.000Z</time>
      </trkpt>
      <trkpt lat="51.388909" lon="0.244011">
        <ele>35</ele>
        <time>2026-04-24T16:40:44.000Z</time>
      </trkpt>
      <trkpt lat="51.388686" lon="0.243732">
        <ele>36.8</ele>
        <time>2026-04-24T16:40:52.000Z</time>
      </trkpt>
      <trkpt lat="51.38848" lon="0.243409">
        <ele>39</ele>
        <time>2026-04-24T16:41:00.000Z</time>
      </trkpt>
      <trkpt lat="51.388213" lon="0.243259">
        <ele>39.4</ele>
        <time>2026-04-24T16:41:07.000Z</time>
      </trkpt>
      <trkpt lat="51.387966" lon="0.243073">
        <ele>40.2</ele>
        <time>2026-04-24T16:41:14.000Z</time>
      </trkpt>
      <trkpt lat="51.387337" lon="0.242436">
        <ele>41.8</ele>
        <time>2026-04-24T16:41:34.000Z</time>
      </trkpt>
      <trkpt lat="51.387004" lon="0.242171">
        <ele>42.2</ele>
        <time>2026-04-24T16:41:44.000Z</time>
      </trkpt>
      <trkpt lat="51.386318" lon="0.241532">
        <ele>42.4</ele>
        <time>2026-04-24T16:42:05.000Z</time>
      </trkpt>
      <trkpt lat="51.386018" lon="0.241341">
        <ele>42.4</ele>
        <time>2026-04-24T16:42:14.000Z</time>
      </trkpt>
      <trkpt lat="51.385882" lon="0.24129">
        <ele>42.4</ele>
        <time>2026-04-24T16:42:18.000Z</time>
      </trkpt>
      <trkpt lat="51.385624" lon="0.241278">
        <ele>43.4</ele>
        <time>2026-04-24T16:42:25.000Z</time>
      </trkpt>
      <trkpt lat="51.385487" lon="0.24125">
        <ele>44</ele>
        <time>2026-04-24T16:42:28.000Z</time>
      </trkpt>
      <trkpt lat="51.385421" lon="0.241199">
        <ele>44.4</ele>
        <time>2026-04-24T16:42:30.000Z</time>
      </trkpt>
      <trkpt lat="51.385246" lon="0.240963">
        <ele>45.8</ele>
        <time>2026-04-24T16:42:36.000Z</time>
      </trkpt>
      <trkpt lat="51.384978" lon="0.24055">
        <ele>46.8</ele>
        <time>2026-04-24T16:42:46.000Z</time>
      </trkpt>
      <trkpt lat="51.38465" lon="0.240172">
        <ele>47</ele>
        <time>2026-04-24T16:42:57.000Z</time>
      </trkpt>
      <trkpt lat="51.384267" lon="0.239608">
        <ele>47</ele>
        <time>2026-04-24T16:43:11.000Z</time>
      </trkpt>
      <trkpt lat="51.38409" lon="0.239395">
        <ele>47.4</ele>
        <time>2026-04-24T16:43:17.000Z</time>
      </trkpt>
      <trkpt lat="51.383337" lon="0.238655">
        <ele>48.4</ele>
        <time>2026-04-24T16:43:40.000Z</time>
      </trkpt>
      <trkpt lat="51.382881" lon="0.238162">
        <ele>49.2</ele>
        <time>2026-04-24T16:43:55.000Z</time>
      </trkpt>
      <trkpt lat="51.382516" lon="0.237794">
        <ele>49.6</ele>
        <time>2026-04-24T16:44:07.000Z</time>
      </trkpt>
      <trkpt lat="51.382264" lon="0.237501">
        <ele>49.8</ele>
        <time>2026-04-24T16:44:15.000Z</time>
      </trkpt>
      <trkpt lat="51.381836" lon="0.236952">
        <ele>50.6</ele>
        <time>2026-04-24T16:44:30.000Z</time>
      </trkpt>
      <trkpt lat="51.381036" lon="0.236062">
        <ele>51.6</ele>
        <time>2026-04-24T16:44:56.000Z</time>
      </trkpt>
      <trkpt lat="51.38089" lon="0.235854">
        <ele>51.6</ele>
        <time>2026-04-24T16:45:01.000Z</time>
      </trkpt>
      <trkpt lat="51.38078" lon="0.2356">
        <ele>51.8</ele>
        <time>2026-04-24T16:45:06.000Z</time>
      </trkpt>
      <trkpt lat="51.380726" lon="0.235534">
        <ele>51.8</ele>
        <time>2026-04-24T16:45:08.000Z</time>
      </trkpt>
      <trkpt lat="51.380544" lon="0.235185">
        <ele>51.8</ele>
        <time>2026-04-24T16:45:15.000Z</time>
      </trkpt>
      <trkpt lat="51.380407" lon="0.234873">
        <ele>51.6</ele>
        <time>2026-04-24T16:45:22.000Z</time>
      </trkpt>
      <trkpt lat="51.380275" lon="0.234519">
        <ele>51.2</ele>
        <time>2026-04-24T16:45:29.000Z</time>
      </trkpt>
      <trkpt lat="51.379811" lon="0.232964">
        <ele>48.8</ele>
        <time>2026-04-24T16:45:57.000Z</time>
      </trkpt>
      <trkpt lat="51.37926" lon="0.231265">
        <ele>54</ele>
        <time>2026-04-24T16:46:29.000Z</time>
      </trkpt>
      <trkpt lat="51.378684" lon="0.229285">
        <ele>51</ele>
        <time>2026-04-24T16:47:06.000Z</time>
      </trkpt>
      <trkpt lat="51.378311" lon="0.228134">
        <ele>54</ele>
        <time>2026-04-24T16:47:27.000Z</time>
      </trkpt>
      <trkpt lat="51.378131" lon="0.227665">
        <ele>55</ele>
        <time>2026-04-24T16:47:36.000Z</time>
      </trkpt>
      <trkpt lat="51.378073" lon="0.227563">
        <ele>55</ele>
        <time>2026-04-24T16:47:39.000Z</time>
      </trkpt>
      <trkpt lat="51.377968" lon="0.227445">
        <ele>54.8</ele>
        <time>2026-04-24T16:47:42.000Z</time>
      </trkpt>
      <trkpt lat="51.377871" lon="0.227163">
        <ele>54.4</ele>
        <time>2026-04-24T16:47:47.000Z</time>
      </trkpt>
      <trkpt lat="51.377846" lon="0.227014">
        <ele>54.4</ele>
        <time>2026-04-24T16:47:50.000Z</time>
      </trkpt>
      <trkpt lat="51.377863" lon="0.226839">
        <ele>54.2</ele>
        <time>2026-04-24T16:47:53.000Z</time>
      </trkpt>
      <trkpt lat="51.378016" lon="0.226262">
        <ele>53</ele>
        <time>2026-04-24T16:48:03.000Z</time>
      </trkpt>
      <trkpt lat="51.37812" lon="0.225978">
        <ele>51.6</ele>
        <time>2026-04-24T16:48:09.000Z</time>
      </trkpt>
      <trkpt lat="51.378118" lon="0.225915">
        <ele>51.2</ele>
        <time>2026-04-24T16:48:10.000Z</time>
      </trkpt>
      <trkpt lat="51.378092" lon="0.225862">
        <ele>50.8</ele>
        <time>2026-04-24T16:48:11.000Z</time>
      </trkpt>
      <trkpt lat="51.378048" lon="0.225825">
        <ele>50.2</ele>
        <time>2026-04-24T16:48:12.000Z</time>
      </trkpt>
      <trkpt lat="51.377816" lon="0.22569">
        <ele>48.2</ele>
        <time>2026-04-24T16:48:19.000Z</time>
      </trkpt>
      <trkpt lat="51.377698" lon="0.225546">
        <ele>47.6</ele>
        <time>2026-04-24T16:48:23.000Z</time>
      </trkpt>
      <trkpt lat="51.377584" lon="0.225347">
        <ele>46.8</ele>
        <time>2026-04-24T16:48:27.000Z</time>
      </trkpt>
      <trkpt lat="51.377406" lon="0.224865">
        <ele>44.6</ele>
        <time>2026-04-24T16:48:37.000Z</time>
      </trkpt>
      <trkpt lat="51.377213" lon="0.224055">
        <ele>41.2</ele>
        <time>2026-04-24T16:48:51.000Z</time>
      </trkpt>
      <trkpt lat="51.377118" lon="0.223809">
        <ele>40.2</ele>
        <time>2026-04-24T16:48:56.000Z</time>
      </trkpt>
      <trkpt lat="51.376959" lon="0.223502">
        <ele>38.6</ele>
        <time>2026-04-24T16:49:03.000Z</time>
      </trkpt>
      <trkpt lat="51.376702" lon="0.22312">
        <ele>37</ele>
        <time>2026-04-24T16:49:12.000Z</time>
      </trkpt>
      <trkpt lat="51.376589" lon="0.222998">
        <ele>36.8</ele>
        <time>2026-04-24T16:49:16.000Z</time>
      </trkpt>
      <trkpt lat="51.376465" lon="0.222825">
        <ele>36.6</ele>
        <time>2026-04-24T16:49:20.000Z</time>
      </trkpt>
      <trkpt lat="51.375995" lon="0.221879">
        <ele>38.8</ele>
        <time>2026-04-24T16:49:40.000Z</time>
      </trkpt>
      <trkpt lat="51.375703" lon="0.221457">
        <ele>40.2</ele>
        <time>2026-04-24T16:49:51.000Z</time>
      </trkpt>
      <trkpt lat="51.375524" lon="0.221332">
        <ele>40.2</ele>
        <time>2026-04-24T16:49:56.000Z</time>
      </trkpt>
      <trkpt lat="51.375256" lon="0.221049">
        <ele>40</ele>
        <time>2026-04-24T16:50:04.000Z</time>
      </trkpt>
      <trkpt lat="51.375106" lon="0.220927">
        <ele>39.8</ele>
        <time>2026-04-24T16:50:09.000Z</time>
      </trkpt>
      <trkpt lat="51.374862" lon="0.220679">
        <ele>39.6</ele>
        <time>2026-04-24T16:50:17.000Z</time>
      </trkpt>
      <trkpt lat="51.374413" lon="0.220283">
        <ele>39.8</ele>
        <time>2026-04-24T16:50:30.000Z</time>
      </trkpt>
      <trkpt lat="51.374073" lon="0.219996">
        <ele>39.8</ele>
        <time>2026-04-24T16:50:41.000Z</time>
      </trkpt>
      <trkpt lat="51.373288" lon="0.219421">
        <ele>40.2</ele>
        <time>2026-04-24T16:51:04.000Z</time>
      </trkpt>
      <trkpt lat="51.372991" lon="0.219164">
        <ele>40.2</ele>
        <time>2026-04-24T16:51:13.000Z</time>
      </trkpt>
      <trkpt lat="51.37283" lon="0.219051">
        <ele>40.2</ele>
        <time>2026-04-24T16:51:17.000Z</time>
      </trkpt>
      <trkpt lat="51.372572" lon="0.218831">
        <ele>40.6</ele>
        <time>2026-04-24T16:51:25.000Z</time>
      </trkpt>
      <trkpt lat="51.372228" lon="0.218472">
        <ele>40.8</ele>
        <time>2026-04-24T16:51:36.000Z</time>
      </trkpt>
      <trkpt lat="51.371598" lon="0.217603">
        <ele>40.4</ele>
        <time>2026-04-24T16:51:58.000Z</time>
      </trkpt>
      <trkpt lat="51.371055" lon="0.216819">
        <ele>39.4</ele>
        <time>2026-04-24T16:52:18.000Z</time>
      </trkpt>
      <trkpt lat="51.370596" lon="0.215999">
        <ele>39</ele>
        <time>2026-04-24T16:52:36.000Z</time>
      </trkpt>
      <trkpt lat="51.370328" lon="0.215558">
        <ele>38.8</ele>
        <time>2026-04-24T16:52:46.000Z</time>
      </trkpt>
      <trkpt lat="51.369434" lon="0.214297">
        <ele>38</ele>
        <time>2026-04-24T16:53:18.000Z</time>
      </trkpt>
      <trkpt lat="51.369111" lon="0.213898">
        <ele>37.8</ele>
        <time>2026-04-24T16:53:29.000Z</time>
      </trkpt>
      <trkpt lat="51.368622" lon="0.213475">
        <ele>38</ele>
        <time>2026-04-24T16:53:44.000Z</time>
      </trkpt>
      <trkpt lat="51.368445" lon="0.213264">
        <ele>38</ele>
        <time>2026-04-24T16:53:50.000Z</time>
      </trkpt>
      <trkpt lat="51.368254" lon="0.212936">
        <ele>37.4</ele>
        <time>2026-04-24T16:53:57.000Z</time>
      </trkpt>
      <trkpt lat="51.367979" lon="0.212336">
        <ele>37</ele>
        <time>2026-04-24T16:54:10.000Z</time>
      </trkpt>
      <trkpt lat="51.367791" lon="0.21181">
        <ele>36.6</ele>
        <time>2026-04-24T16:54:20.000Z</time>
      </trkpt>
      <trkpt lat="51.367608" lon="0.211184">
        <ele>36.4</ele>
        <time>2026-04-24T16:54:31.000Z</time>
      </trkpt>
      <trkpt lat="51.367374" lon="0.210607">
        <ele>36.4</ele>
        <time>2026-04-24T16:54:43.000Z</time>
      </trkpt>
      <trkpt lat="51.36725" lon="0.210389">
        <ele>36.4</ele>
        <time>2026-04-24T16:54:48.000Z</time>
      </trkpt>
      <trkpt lat="51.367063" lon="0.210151">
        <ele>36.6</ele>
        <time>2026-04-24T16:54:54.000Z</time>
      </trkpt>
      <trkpt lat="51.3669" lon="0.209903">
        <ele>36.8</ele>
        <time>2026-04-24T16:55:00.000Z</time>
      </trkpt>
      <trkpt lat="51.366708" lon="0.20917">
        <ele>37.8</ele>
        <time>2026-04-24T16:55:13.000Z</time>
      </trkpt>
      <trkpt lat="51.36631" lon="0.208256">
        <ele>41</ele>
        <time>2026-04-24T16:55:32.000Z</time>
      </trkpt>
      <trkpt lat="51.366087" lon="0.207802">
        <ele>43</ele>
        <time>2026-04-24T16:55:42.000Z</time>
      </trkpt>
      <trkpt lat="51.365949" lon="0.207611">
        <ele>44.2</ele>
        <time>2026-04-24T16:55:46.000Z</time>
      </trkpt>
      <trkpt lat="51.36578" lon="0.207317">
        <ele>46</ele>
        <time>2026-04-24T16:55:53.000Z</time>
      </trkpt>
      <trkpt lat="51.365569" lon="0.207022">
        <ele>47.4</ele>
        <time>2026-04-24T16:56:01.000Z</time>
      </trkpt>
      <trkpt lat="51.365407" lon="0.206743">
        <ele>48.6</ele>
        <time>2026-04-24T16:56:07.000Z</time>
      </trkpt>
      <trkpt lat="51.365347" lon="0.206585">
        <ele>49.4</ele>
        <time>2026-04-24T16:56:10.000Z</time>
      </trkpt>
      <trkpt lat="51.365112" lon="0.206239">
        <ele>50.6</ele>
        <time>2026-04-24T16:56:19.000Z</time>
      </trkpt>
      <trkpt lat="51.364939" lon="0.206036">
        <ele>51.8</ele>
        <time>2026-04-24T16:56:24.000Z</time>
      </trkpt>
      <trkpt lat="51.364463" lon="0.205576">
        <ele>54.2</ele>
        <time>2026-04-24T16:56:39.000Z</time>
      </trkpt>
      <trkpt lat="51.363943" lon="0.205036">
        <ele>56</ele>
        <time>2026-04-24T16:56:56.000Z</time>
      </trkpt>
      <trkpt lat="51.36354" lon="0.204741">
        <ele>56.2</ele>
        <time>2026-04-24T16:57:07.000Z</time>
      </trkpt>
      <trkpt lat="51.363437" lon="0.204648">
        <ele>56.2</ele>
        <time>2026-04-24T16:57:11.000Z</time>
      </trkpt>
      <trkpt lat="51.363235" lon="0.204429">
        <ele>55.6</ele>
        <time>2026-04-24T16:57:17.000Z</time>
      </trkpt>
      <trkpt lat="51.363111" lon="0.204245">
        <ele>55.2</ele>
        <time>2026-04-24T16:57:22.000Z</time>
      </trkpt>
      <trkpt lat="51.362968" lon="0.204101">
        <ele>54.6</ele>
        <time>2026-04-24T16:57:26.000Z</time>
      </trkpt>
      <trkpt lat="51.362495" lon="0.203696">
        <ele>53.4</ele>
        <time>2026-04-24T16:57:40.000Z</time>
      </trkpt>
      <trkpt lat="51.361927" lon="0.203274">
        <ele>52.8</ele>
        <time>2026-04-24T16:57:57.000Z</time>
      </trkpt>
      <trkpt lat="51.36155" lon="0.20307">
        <ele>52.2</ele>
        <time>2026-04-24T16:58:08.000Z</time>
      </trkpt>
      <trkpt lat="51.36007" lon="0.202383">
        <ele>55.4</ele>
        <time>2026-04-24T16:58:49.000Z</time>
      </trkpt>
      <trkpt lat="51.35991" lon="0.202292">
        <ele>56.2</ele>
        <time>2026-04-24T16:58:53.000Z</time>
      </trkpt>
      <trkpt lat="51.359705" lon="0.202132">
        <ele>57.4</ele>
        <time>2026-04-24T16:59:00.000Z</time>
      </trkpt>
      <trkpt lat="51.359216" lon="0.201816">
        <ele>61</ele>
        <time>2026-04-24T16:59:14.000Z</time>
      </trkpt>
      <trkpt lat="51.359081" lon="0.201758">
        <ele>61.6</ele>
        <time>2026-04-24T16:59:17.000Z</time>
      </trkpt>
      <trkpt lat="51.358814" lon="0.201564">
        <ele>63</ele>
        <time>2026-04-24T16:59:25.000Z</time>
      </trkpt>
      <trkpt lat="51.358556" lon="0.201433">
        <ele>64.2</ele>
        <time>2026-04-24T16:59:32.000Z</time>
      </trkpt>
      <trkpt lat="51.358458" lon="0.201363">
        <ele>64.6</ele>
        <time>2026-04-24T16:59:35.000Z</time>
      </trkpt>
      <trkpt lat="51.358252" lon="0.201266">
        <ele>65.8</ele>
        <time>2026-04-24T16:59:41.000Z</time>
      </trkpt>
      <trkpt lat="51.357915" lon="0.201137">
        <ele>67.4</ele>
        <time>2026-04-24T16:59:50.000Z</time>
      </trkpt>
      <trkpt lat="51.357303" lon="0.20095">
        <ele>69.4</ele>
        <time>2026-04-24T17:00:07.000Z</time>
      </trkpt>
      <trkpt lat="51.356782" lon="0.200829">
        <ele>71.6</ele>
        <time>2026-04-24T17:00:21.000Z</time>
      </trkpt>
      <trkpt lat="51.356167" lon="0.200628">
        <ele>73.8</ele>
        <time>2026-04-24T17:00:38.000Z</time>
      </trkpt>
      <trkpt lat="51.355907" lon="0.200523">
        <ele>74.8</ele>
        <time>2026-04-24T17:00:45.000Z</time>
      </trkpt>
      <trkpt lat="51.355322" lon="0.200241">
        <ele>78.2</ele>
        <time>2026-04-24T17:01:01.000Z</time>
      </trkpt>
      <trkpt lat="51.354914" lon="0.199993">
        <ele>79.8</ele>
        <time>2026-04-24T17:01:13.000Z</time>
      </trkpt>
      <trkpt lat="51.354531" lon="0.199729">
        <ele>81.6</ele>
        <time>2026-04-24T17:01:24.000Z</time>
      </trkpt>
      <trkpt lat="51.353919" lon="0.199211">
        <ele>83.6</ele>
        <time>2026-04-24T17:01:42.000Z</time>
      </trkpt>
      <trkpt lat="51.353561" lon="0.198859">
        <ele>84.4</ele>
        <time>2026-04-24T17:01:54.000Z</time>
      </trkpt>
      <trkpt lat="51.351762" lon="0.196913">
        <ele>81.4</ele>
        <time>2026-04-24T17:02:52.000Z</time>
      </trkpt>
      <trkpt lat="51.351512" lon="0.196612">
        <ele>80</ele>
        <time>2026-04-24T17:03:00.000Z</time>
      </trkpt>
      <trkpt lat="51.350919" lon="0.195973">
        <ele>77.2</ele>
        <time>2026-04-24T17:03:19.000Z</time>
      </trkpt>
      <trkpt lat="51.350567" lon="0.195627">
        <ele>76</ele>
        <time>2026-04-24T17:03:30.000Z</time>
      </trkpt>
      <trkpt lat="51.350292" lon="0.195399">
        <ele>74.6</ele>
        <time>2026-04-24T17:03:38.000Z</time>
      </trkpt>
      <trkpt lat="51.350058" lon="0.195231">
        <ele>74</ele>
        <time>2026-04-24T17:03:45.000Z</time>
      </trkpt>
      <trkpt lat="51.349763" lon="0.195061">
        <ele>73</ele>
        <time>2026-04-24T17:03:54.000Z</time>
      </trkpt>
      <trkpt lat="51.349253" lon="0.19487">
        <ele>71.6</ele>
        <time>2026-04-24T17:04:08.000Z</time>
      </trkpt>
      <trkpt lat="51.348127" lon="0.194629">
        <ele>69.2</ele>
        <time>2026-04-24T17:04:38.000Z</time>
      </trkpt>
      <trkpt lat="51.347581" lon="0.194476">
        <ele>68.2</ele>
        <time>2026-04-24T17:04:53.000Z</time>
      </trkpt>
      <trkpt lat="51.347195" lon="0.194388">
        <ele>67.6</ele>
        <time>2026-04-24T17:05:03.000Z</time>
      </trkpt>
      <trkpt lat="51.346826" lon="0.194328">
        <ele>66.4</ele>
        <time>2026-04-24T17:05:13.000Z</time>
      </trkpt>
      <trkpt lat="51.346425" lon="0.194313">
        <ele>65.2</ele>
        <time>2026-04-24T17:05:24.000Z</time>
      </trkpt>
      <trkpt lat="51.345805" lon="0.194319">
        <ele>64.2</ele>
        <time>2026-04-24T17:05:40.000Z</time>
      </trkpt>
      <trkpt lat="51.345275" lon="0.194336">
        <ele>63</ele>
        <time>2026-04-24T17:05:54.000Z</time>
      </trkpt>
      <trkpt lat="51.345053" lon="0.194358">
        <ele>62.8</ele>
        <time>2026-04-24T17:06:00.000Z</time>
      </trkpt>
      <trkpt lat="51.344901" lon="0.194393">
        <ele>62.6</ele>
        <time>2026-04-24T17:06:04.000Z</time>
      </trkpt>
      <trkpt lat="51.34475" lon="0.194466">
        <ele>62.4</ele>
        <time>2026-04-24T17:06:09.000Z</time>
      </trkpt>
      <trkpt lat="51.344352" lon="0.194796">
        <ele>61.6</ele>
        <time>2026-04-24T17:06:21.000Z</time>
      </trkpt>
      <trkpt lat="51.344279" lon="0.194839">
        <ele>61.4</ele>
        <time>2026-04-24T17:06:23.000Z</time>
      </trkpt>
      <trkpt lat="51.344139" lon="0.194887">
        <ele>61</ele>
        <time>2026-04-24T17:06:26.000Z</time>
      </trkpt>
      <trkpt lat="51.344056" lon="0.194888">
        <ele>61</ele>
        <time>2026-04-24T17:06:29.000Z</time>
      </trkpt>
      <trkpt lat="51.343867" lon="0.194834">
        <ele>60.6</ele>
        <time>2026-04-24T17:06:34.000Z</time>
      </trkpt>
      <trkpt lat="51.343325" lon="0.194595">
        <ele>61.2</ele>
        <time>2026-04-24T17:06:49.000Z</time>
      </trkpt>
      <trkpt lat="51.342075" lon="0.193994">
        <ele>67.2</ele>
        <time>2026-04-24T17:07:24.000Z</time>
      </trkpt>
      <trkpt lat="51.34183" lon="0.193896">
        <ele>68</ele>
        <time>2026-04-24T17:07:30.000Z</time>
      </trkpt>
      <trkpt lat="51.341285" lon="0.19364">
        <ele>70.4</ele>
        <time>2026-04-24T17:07:46.000Z</time>
      </trkpt>
      <trkpt lat="51.340924" lon="0.193423">
        <ele>71.8</ele>
        <time>2026-04-24T17:07:56.000Z</time>
      </trkpt>
      <trkpt lat="51.340463" lon="0.193071">
        <ele>72.8</ele>
        <time>2026-04-24T17:08:09.000Z</time>
      </trkpt>
      <trkpt lat="51.338572" lon="0.191217">
        <ele>72.2</ele>
        <time>2026-04-24T17:09:09.000Z</time>
      </trkpt>
      <trkpt lat="51.338175" lon="0.190865">
        <ele>71.6</ele>
        <time>2026-04-24T17:09:21.000Z</time>
      </trkpt>
      <trkpt lat="51.337752" lon="0.19056">
        <ele>71.6</ele>
        <time>2026-04-24T17:09:33.000Z</time>
      </trkpt>
      <trkpt lat="51.337166" lon="0.190227">
        <ele>73</ele>
        <time>2026-04-24T17:09:50.000Z</time>
      </trkpt>
      <trkpt lat="51.336733" lon="0.190036">
        <ele>74.6</ele>
        <time>2026-04-24T17:10:02.000Z</time>
      </trkpt>
      <trkpt lat="51.336317" lon="0.189902">
        <ele>75.4</ele>
        <time>2026-04-24T17:10:13.000Z</time>
      </trkpt>
      <trkpt lat="51.335981" lon="0.189829">
        <ele>76</ele>
        <time>2026-04-24T17:10:22.000Z</time>
      </trkpt>
      <trkpt lat="51.335628" lon="0.189782">
        <ele>76</ele>
        <time>2026-04-24T17:10:32.000Z</time>
      </trkpt>
      <trkpt lat="51.334919" lon="0.189759">
        <ele>75.6</ele>
        <time>2026-04-24T17:10:51.000Z</time>
      </trkpt>
      <trkpt lat="51.333675" lon="0.189787">
        <ele>74.4</ele>
        <time>2026-04-24T17:11:24.000Z</time>
      </trkpt>
      <trkpt lat="51.332623" lon="0.189927">
        <ele>73.8</ele>
        <time>2026-04-24T17:11:52.000Z</time>
      </trkpt>
      <trkpt lat="51.332372" lon="0.189937">
        <ele>73.8</ele>
        <time>2026-04-24T17:11:59.000Z</time>
      </trkpt>
      <trkpt lat="51.331999" lon="0.189921">
        <ele>73.4</ele>
        <time>2026-04-24T17:12:09.000Z</time>
      </trkpt>
      <trkpt lat="51.331879" lon="0.189904">
        <ele>73.4</ele>
        <time>2026-04-24T17:12:12.000Z</time>
      </trkpt>
      <trkpt lat="51.331141" lon="0.189692">
        <ele>73.8</ele>
        <time>2026-04-24T17:12:32.000Z</time>
      </trkpt>
      <trkpt lat="51.330872" lon="0.189635">
        <ele>74.2</ele>
        <time>2026-04-24T17:12:39.000Z</time>
      </trkpt>
      <trkpt lat="51.330567" lon="0.189603">
        <ele>75</ele>
        <time>2026-04-24T17:12:47.000Z</time>
      </trkpt>
      <trkpt lat="51.330466" lon="0.189578">
        <ele>75.2</ele>
        <time>2026-04-24T17:12:50.000Z</time>
      </trkpt>
      <trkpt lat="51.330277" lon="0.189585">
        <ele>76</ele>
        <time>2026-04-24T17:12:55.000Z</time>
      </trkpt>
      <trkpt lat="51.330131" lon="0.189545">
        <ele>76.6</ele>
        <time>2026-04-24T17:12:59.000Z</time>
      </trkpt>
      <trkpt lat="51.329731" lon="0.189507">
        <ele>78.6</ele>
        <time>2026-04-24T17:13:10.000Z</time>
      </trkpt>
      <trkpt lat="51.329465" lon="0.189448">
        <ele>80.2</ele>
        <time>2026-04-24T17:13:17.000Z</time>
      </trkpt>
      <trkpt lat="51.329319" lon="0.189447">
        <ele>80.8</ele>
        <time>2026-04-24T17:13:21.000Z</time>
      </trkpt>
      <trkpt lat="51.329031" lon="0.18948">
        <ele>82.2</ele>
        <time>2026-04-24T17:13:28.000Z</time>
      </trkpt>
      <trkpt lat="51.328917" lon="0.189469">
        <ele>82.8</ele>
        <time>2026-04-24T17:13:31.000Z</time>
      </trkpt>
      <trkpt lat="51.328613" lon="0.18955">
        <ele>84.2</ele>
        <time>2026-04-24T17:13:40.000Z</time>
      </trkpt>
      <trkpt lat="51.32838" lon="0.189553">
        <ele>85</ele>
        <time>2026-04-24T17:13:46.000Z</time>
      </trkpt>
      <trkpt lat="51.327869" lon="0.189503">
        <ele>86.2</ele>
        <time>2026-04-24T17:14:00.000Z</time>
      </trkpt>
      <trkpt lat="51.327785" lon="0.189475">
        <ele>86.6</ele>
        <time>2026-04-24T17:14:02.000Z</time>
      </trkpt>
      <trkpt lat="51.327457" lon="0.189438">
        <ele>88.2</ele>
        <time>2026-04-24T17:14:11.000Z</time>
      </trkpt>
      <trkpt lat="51.327327" lon="0.189402">
        <ele>88.8</ele>
        <time>2026-04-24T17:14:14.000Z</time>
      </trkpt>
      <trkpt lat="51.326897" lon="0.189415">
        <ele>89.8</ele>
        <time>2026-04-24T17:14:26.000Z</time>
      </trkpt>
      <trkpt lat="51.326144" lon="0.189544">
        <ele>90.4</ele>
        <time>2026-04-24T17:14:46.000Z</time>
      </trkpt>
      <trkpt lat="51.325921" lon="0.189554">
        <ele>91</ele>
        <time>2026-04-24T17:14:52.000Z</time>
      </trkpt>
      <trkpt lat="51.325757" lon="0.189531">
        <ele>91.4</ele>
        <time>2026-04-24T17:14:56.000Z</time>
      </trkpt>
      <trkpt lat="51.325532" lon="0.189552">
        <ele>92.4</ele>
        <time>2026-04-24T17:15:02.000Z</time>
      </trkpt>
      <trkpt lat="51.325352" lon="0.189594">
        <ele>93.4</ele>
        <time>2026-04-24T17:15:07.000Z</time>
      </trkpt>
      <trkpt lat="51.32504" lon="0.189754">
        <ele>94.2</ele>
        <time>2026-04-24T17:15:16.000Z</time>
      </trkpt>
      <trkpt lat="51.324716" lon="0.18999">
        <ele>94.6</ele>
        <time>2026-04-24T17:15:25.000Z</time>
      </trkpt>
      <trkpt lat="51.32451" lon="0.190162">
        <ele>94.8</ele>
        <time>2026-04-24T17:15:32.000Z</time>
      </trkpt>
      <trkpt lat="51.324356" lon="0.190264">
        <ele>94.8</ele>
        <time>2026-04-24T17:15:36.000Z</time>
      </trkpt>
      <trkpt lat="51.324147" lon="0.190367">
        <ele>94.6</ele>
        <time>2026-04-24T17:15:42.000Z</time>
      </trkpt>
      <trkpt lat="51.323995" lon="0.190418">
        <ele>94.6</ele>
        <time>2026-04-24T17:15:46.000Z</time>
      </trkpt>
      <trkpt lat="51.323793" lon="0.190442">
        <ele>95</ele>
        <time>2026-04-24T17:15:51.000Z</time>
      </trkpt>
      <trkpt lat="51.323324" lon="0.190381">
        <ele>96.2</ele>
        <time>2026-04-24T17:16:04.000Z</time>
      </trkpt>
      <trkpt lat="51.323066" lon="0.190324">
        <ele>97.8</ele>
        <time>2026-04-24T17:16:11.000Z</time>
      </trkpt>
      <trkpt lat="51.322808" lon="0.190318">
        <ele>98.8</ele>
        <time>2026-04-24T17:16:18.000Z</time>
      </trkpt>
      <trkpt lat="51.321923" lon="0.190469">
        <ele>101.8</ele>
        <time>2026-04-24T17:16:42.000Z</time>
      </trkpt>
      <trkpt lat="51.321606" lon="0.190566">
        <ele>102</ele>
        <time>2026-04-24T17:16:50.000Z</time>
      </trkpt>
      <trkpt lat="51.321112" lon="0.190782">
        <ele>101.8</ele>
        <time>2026-04-24T17:17:04.000Z</time>
      </trkpt>
      <trkpt lat="51.320995" lon="0.190863">
        <ele>101.6</ele>
        <time>2026-04-24T17:17:07.000Z</time>
      </trkpt>
      <trkpt lat="51.320799" lon="0.19105">
        <ele>101.2</ele>
        <time>2026-04-24T17:17:13.000Z</time>
      </trkpt>
      <trkpt lat="51.320618" lon="0.191286">
        <ele>100.6</ele>
        <time>2026-04-24T17:17:20.000Z</time>
      </trkpt>
      <trkpt lat="51.320082" lon="0.192057">
        <ele>97.6</ele>
        <time>2026-04-24T17:17:39.000Z</time>
      </trkpt>
      <trkpt lat="51.31984" lon="0.192318">
        <ele>96.4</ele>
        <time>2026-04-24T17:17:47.000Z</time>
      </trkpt>
      <trkpt lat="51.319301" lon="0.192771">
        <ele>93.8</ele>
        <time>2026-04-24T17:18:03.000Z</time>
      </trkpt>
      <trkpt lat="51.318566" lon="0.193253">
        <ele>90</ele>
        <time>2026-04-24T17:18:24.000Z</time>
      </trkpt>
      <trkpt lat="51.317865" lon="0.193829">
        <ele>87.8</ele>
        <time>2026-04-24T17:18:45.000Z</time>
      </trkpt>
      <trkpt lat="51.317415" lon="0.194146">
        <ele>85</ele>
        <time>2026-04-24T17:18:58.000Z</time>
      </trkpt>
      <trkpt lat="51.317166" lon="0.194368">
        <ele>83.8</ele>
        <time>2026-04-24T17:19:06.000Z</time>
      </trkpt>
      <trkpt lat="51.315247" lon="0.196361">
        <ele>80.8</ele>
        <time>2026-04-24T17:20:07.000Z</time>
      </trkpt>
      <trkpt lat="51.315072" lon="0.196615">
        <ele>82</ele>
        <time>2026-04-24T17:20:13.000Z</time>
      </trkpt>
      <trkpt lat="51.31465" lon="0.19736">
        <ele>84</ele>
        <time>2026-04-24T17:20:30.000Z</time>
      </trkpt>
      <trkpt lat="51.314436" lon="0.197629">
        <ele>85</ele>
        <time>2026-04-24T17:20:37.000Z</time>
      </trkpt>
      <trkpt lat="51.314345" lon="0.197717">
        <ele>85.2</ele>
        <time>2026-04-24T17:20:40.000Z</time>
      </trkpt>
      <trkpt lat="51.314247" lon="0.19778">
        <ele>85.2</ele>
        <time>2026-04-24T17:20:43.000Z</time>
      </trkpt>
      <trkpt lat="51.314193" lon="0.197788">
        <ele>85.2</ele>
        <time>2026-04-24T17:20:44.000Z</time>
      </trkpt>
      <trkpt lat="51.314082" lon="0.197751">
        <ele>85.4</ele>
        <time>2026-04-24T17:20:47.000Z</time>
      </trkpt>
      <trkpt lat="51.313961" lon="0.197669">
        <ele>85.4</ele>
        <time>2026-04-24T17:20:51.000Z</time>
      </trkpt>
      <trkpt lat="51.313705" lon="0.197405">
        <ele>85.4</ele>
        <time>2026-04-24T17:20:59.000Z</time>
      </trkpt>
      <trkpt lat="51.313568" lon="0.19723">
        <ele>85.2</ele>
        <time>2026-04-24T17:21:04.000Z</time>
      </trkpt>
      <trkpt lat="51.313447" lon="0.197015">
        <ele>85</ele>
        <time>2026-04-24T17:21:09.000Z</time>
      </trkpt>
      <trkpt lat="51.313357" lon="0.19676">
        <ele>84</ele>
        <time>2026-04-24T17:21:13.000Z</time>
      </trkpt>
      <trkpt lat="51.313292" lon="0.196473">
        <ele>83.4</ele>
        <time>2026-04-24T17:21:19.000Z</time>
      </trkpt>
      <trkpt lat="51.313249" lon="0.19615">
        <ele>82.8</ele>
        <time>2026-04-24T17:21:24.000Z</time>
      </trkpt>
      <trkpt lat="51.313145" lon="0.19472">
        <ele>78.8</ele>
        <time>2026-04-24T17:21:48.000Z</time>
      </trkpt>
      <trkpt lat="51.31296" lon="0.193577">
        <ele>74.6</ele>
        <time>2026-04-24T17:22:08.000Z</time>
      </trkpt>
      <trkpt lat="51.312926" lon="0.19328">
        <ele>73.2</ele>
        <time>2026-04-24T17:22:13.000Z</time>
      </trkpt>
      <trkpt lat="51.3129" lon="0.192725">
        <ele>71.8</ele>
        <time>2026-04-24T17:22:22.000Z</time>
      </trkpt>
      <trkpt lat="51.312922" lon="0.19183">
        <ele>69.8</ele>
        <time>2026-04-24T17:22:37.000Z</time>
      </trkpt>
      <trkpt lat="51.312886" lon="0.191302">
        <ele>69</ele>
        <time>2026-04-24T17:22:46.000Z</time>
      </trkpt>
      <trkpt lat="51.312831" lon="0.191078">
        <ele>68.4</ele>
        <time>2026-04-24T17:22:50.000Z</time>
      </trkpt>
      <trkpt lat="51.312783" lon="0.190989">
        <ele>68</ele>
        <time>2026-04-24T17:22:52.000Z</time>
      </trkpt>
      <trkpt lat="51.312602" lon="0.19081">
        <ele>67.2</ele>
        <time>2026-04-24T17:22:58.000Z</time>
      </trkpt>
      <trkpt lat="51.312561" lon="0.190732">
        <ele>66.8</ele>
        <time>2026-04-24T17:22:59.000Z</time>
      </trkpt>
      <trkpt lat="51.31254" lon="0.19064">
        <ele>66.6</ele>
        <time>2026-04-24T17:23:01.000Z</time>
      </trkpt>
      <trkpt lat="51.312537" lon="0.190547">
        <ele>66.2</ele>
        <time>2026-04-24T17:23:02.000Z</time>
      </trkpt>
      <trkpt lat="51.312584" lon="0.190382">
        <ele>65.6</ele>
        <time>2026-04-24T17:23:05.000Z</time>
      </trkpt>
      <trkpt lat="51.312637" lon="0.190311">
        <ele>65.2</ele>
        <time>2026-04-24T17:23:07.000Z</time>
      </trkpt>
      <trkpt lat="51.31278" lon="0.190198">
        <ele>64</ele>
        <time>2026-04-24T17:23:12.000Z</time>
      </trkpt>
      <trkpt lat="51.312853" lon="0.190058">
        <ele>63.8</ele>
        <time>2026-04-24T17:23:15.000Z</time>
      </trkpt>
      <trkpt lat="51.312934" lon="0.189656">
        <ele>63.4</ele>
        <time>2026-04-24T17:23:22.000Z</time>
      </trkpt>
      <trkpt lat="51.312962" lon="0.189363">
        <ele>63</ele>
        <time>2026-04-24T17:23:27.000Z</time>
      </trkpt>
      <trkpt lat="51.31298" lon="0.188578">
        <ele>62.4</ele>
        <time>2026-04-24T17:23:40.000Z</time>
      </trkpt>
      <trkpt lat="51.31295" lon="0.187138">
        <ele>61.6</ele>
        <time>2026-04-24T17:24:04.000Z</time>
      </trkpt>
      <trkpt lat="51.31285" lon="0.185579">
        <ele>59.2</ele>
        <time>2026-04-24T17:24:30.000Z</time>
      </trkpt>
      <trkpt lat="51.312742" lon="0.185035">
        <ele>58.6</ele>
        <time>2026-04-24T17:24:39.000Z</time>
      </trkpt>
      <trkpt lat="51.312592" lon="0.184458">
        <ele>57.4</ele>
        <time>2026-04-24T17:24:50.000Z</time>
      </trkpt>
      <trkpt lat="51.312425" lon="0.18358">
        <ele>56.2</ele>
        <time>2026-04-24T17:25:05.000Z</time>
      </trkpt>
      <trkpt lat="51.312252" lon="0.182974">
        <ele>55.8</ele>
        <time>2026-04-24T17:25:16.000Z</time>
      </trkpt>
      <trkpt lat="51.312055" lon="0.182391">
        <ele>55.6</ele>
        <time>2026-04-24T17:25:27.000Z</time>
      </trkpt>
      <trkpt lat="51.311737" lon="0.181278">
        <ele>55.2</ele>
        <time>2026-04-24T17:25:48.000Z</time>
      </trkpt>
      <trkpt lat="51.311357" lon="0.179869">
        <ele>57.2</ele>
        <time>2026-04-24T17:26:13.000Z</time>
      </trkpt>
      <trkpt lat="51.311309" lon="0.179585">
        <ele>57.6</ele>
        <time>2026-04-24T17:26:18.000Z</time>
      </trkpt>
      <trkpt lat="51.311327" lon="0.179116">
        <ele>58.8</ele>
        <time>2026-04-24T17:26:26.000Z</time>
      </trkpt>
      <trkpt lat="51.311568" lon="0.177032">
        <ele>63.4</ele>
        <time>2026-04-24T17:27:01.000Z</time>
      </trkpt>
      <trkpt lat="51.311578" lon="0.176611">
        <ele>63.8</ele>
        <time>2026-04-24T17:27:08.000Z</time>
      </trkpt>
      <trkpt lat="51.311606" lon="0.176289">
        <ele>64.2</ele>
        <time>2026-04-24T17:27:14.000Z</time>
      </trkpt>
      <trkpt lat="51.311676" lon="0.175979">
        <ele>64.4</ele>
        <time>2026-04-24T17:27:19.000Z</time>
      </trkpt>
      <trkpt lat="51.311825" lon="0.175561">
        <ele>65</ele>
        <time>2026-04-24T17:27:27.000Z</time>
      </trkpt>
      <trkpt lat="51.311927" lon="0.175174">
        <ele>65.8</ele>
        <time>2026-04-24T17:27:34.000Z</time>
      </trkpt>
      <trkpt lat="51.312035" lon="0.174691">
        <ele>66.4</ele>
        <time>2026-04-24T17:27:43.000Z</time>
      </trkpt>
      <trkpt lat="51.312139" lon="0.174019">
        <ele>67</ele>
        <time>2026-04-24T17:27:55.000Z</time>
      </trkpt>
      <trkpt lat="51.312254" lon="0.172186">
        <ele>67.8</ele>
        <time>2026-04-24T17:28:25.000Z</time>
      </trkpt>
      <trkpt lat="51.31226" lon="0.171229">
        <ele>67.8</ele>
        <time>2026-04-24T17:28:41.000Z</time>
      </trkpt>
      <trkpt lat="51.312249" lon="0.170922">
        <ele>67.8</ele>
        <time>2026-04-24T17:28:46.000Z</time>
      </trkpt>
      <trkpt lat="51.312204" lon="0.170499">
        <ele>67.6</ele>
        <time>2026-04-24T17:28:54.000Z</time>
      </trkpt>
      <trkpt lat="51.312153" lon="0.1702">
        <ele>67.4</ele>
        <time>2026-04-24T17:28:59.000Z</time>
      </trkpt>
      <trkpt lat="51.312073" lon="0.169928">
        <ele>67.4</ele>
        <time>2026-04-24T17:29:04.000Z</time>
      </trkpt>
      <trkpt lat="51.311927" lon="0.169632">
        <ele>67.4</ele>
        <time>2026-04-24T17:29:10.000Z</time>
      </trkpt>
      <trkpt lat="51.311574" lon="0.16916">
        <ele>68.4</ele>
        <time>2026-04-24T17:29:22.000Z</time>
      </trkpt>
      <trkpt lat="51.311324" lon="0.168758">
        <ele>70</ele>
        <time>2026-04-24T17:29:32.000Z</time>
      </trkpt>
      <trkpt lat="51.311234" lon="0.168539">
        <ele>70.6</ele>
        <time>2026-04-24T17:29:36.000Z</time>
      </trkpt>
      <trkpt lat="51.311134" lon="0.168084">
        <ele>70.8</ele>
        <time>2026-04-24T17:29:44.000Z</time>
      </trkpt>
      <trkpt lat="51.311087" lon="0.167297">
        <ele>71.4</ele>
        <time>2026-04-24T17:29:57.000Z</time>
      </trkpt>
      <trkpt lat="51.311102" lon="0.166454">
        <ele>73</ele>
        <time>2026-04-24T17:30:11.000Z</time>
      </trkpt>
      <trkpt lat="51.31116" lon="0.166174">
        <ele>74.2</ele>
        <time>2026-04-24T17:30:16.000Z</time>
      </trkpt>
      <trkpt lat="51.311189" lon="0.165943">
        <ele>75.4</ele>
        <time>2026-04-24T17:30:20.000Z</time>
      </trkpt>
      <trkpt lat="51.311279" lon="0.165596">
        <ele>77.4</ele>
        <time>2026-04-24T17:30:27.000Z</time>
      </trkpt>
      <trkpt lat="51.311316" lon="0.165388">
        <ele>78.2</ele>
        <time>2026-04-24T17:30:30.000Z</time>
      </trkpt>
      <trkpt lat="51.311321" lon="0.165201">
        <ele>78.8</ele>
        <time>2026-04-24T17:30:33.000Z</time>
      </trkpt>
      <trkpt lat="51.311416" lon="0.164267">
        <ele>83</ele>
        <time>2026-04-24T17:30:49.000Z</time>
      </trkpt>
      <trkpt lat="51.311437" lon="0.163486">
        <ele>85.8</ele>
        <time>2026-04-24T17:31:02.000Z</time>
      </trkpt>
      <trkpt lat="51.311391" lon="0.162986">
        <ele>87.8</ele>
        <time>2026-04-24T17:31:11.000Z</time>
      </trkpt>
      <trkpt lat="51.311236" lon="0.161933">
        <ele>91.8</ele>
        <time>2026-04-24T17:31:29.000Z</time>
      </trkpt>
      <trkpt lat="51.311193" lon="0.161708">
        <ele>92.6</ele>
        <time>2026-04-24T17:31:33.000Z</time>
      </trkpt>
      <trkpt lat="51.311071" lon="0.161341">
        <ele>94</ele>
        <time>2026-04-24T17:31:39.000Z</time>
      </trkpt>
      <trkpt lat="51.310996" lon="0.161169">
        <ele>94.4</ele>
        <time>2026-04-24T17:31:43.000Z</time>
      </trkpt>
      <trkpt lat="51.310882" lon="0.160992">
        <ele>95.4</ele>
        <time>2026-04-24T17:31:47.000Z</time>
      </trkpt>
      <trkpt lat="51.31068" lon="0.160822">
        <ele>96.4</ele>
        <time>2026-04-24T17:31:53.000Z</time>
      </trkpt>
      <trkpt lat="51.310483" lon="0.160739">
        <ele>97</ele>
        <time>2026-04-24T17:31:59.000Z</time>
      </trkpt>
      <trkpt lat="51.310036" lon="0.160706">
        <ele>99.2</ele>
        <time>2026-04-24T17:32:11.000Z</time>
      </trkpt>
      <trkpt lat="51.309797" lon="0.160716">
        <ele>99.8</ele>
        <time>2026-04-24T17:32:17.000Z</time>
      </trkpt>
      <trkpt lat="51.309348" lon="0.160678">
        <ele>101.6</ele>
        <time>2026-04-24T17:32:29.000Z</time>
      </trkpt>
      <trkpt lat="51.30891" lon="0.160592">
        <ele>102.6</ele>
        <time>2026-04-24T17:32:41.000Z</time>
      </trkpt>
      <trkpt lat="51.308747" lon="0.160532">
        <ele>103</ele>
        <time>2026-04-24T17:32:45.000Z</time>
      </trkpt>
      <trkpt lat="51.308633" lon="0.160463">
        <ele>103.4</ele>
        <time>2026-04-24T17:32:49.000Z</time>
      </trkpt>
      <trkpt lat="51.308602" lon="0.160422">
        <ele>103.4</ele>
        <time>2026-04-24T17:32:50.000Z</time>
      </trkpt>
      <trkpt lat="51.308587" lon="0.160298">
        <ele>103.4</ele>
        <time>2026-04-24T17:32:52.000Z</time>
      </trkpt>
      <trkpt lat="51.308836" lon="0.158941">
        <ele>105.4</ele>
        <time>2026-04-24T17:33:15.000Z</time>
      </trkpt>
      <trkpt lat="51.308837" lon="0.158808">
        <ele>105.6</ele>
        <time>2026-04-24T17:33:18.000Z</time>
      </trkpt>
      <trkpt lat="51.308785" lon="0.158647">
        <ele>106</ele>
        <time>2026-04-24T17:33:21.000Z</time>
      </trkpt>
      <trkpt lat="51.308753" lon="0.158611">
        <ele>106</ele>
        <time>2026-04-24T17:33:22.000Z</time>
      </trkpt>
      <trkpt lat="51.308669" lon="0.158577">
        <ele>106</ele>
        <time>2026-04-24T17:33:24.000Z</time>
      </trkpt>
      <trkpt lat="51.308403" lon="0.158552">
        <ele>105.8</ele>
        <time>2026-04-24T17:33:31.000Z</time>
      </trkpt>
      <trkpt lat="51.308091" lon="0.158482">
        <ele>105.4</ele>
        <time>2026-04-24T17:33:39.000Z</time>
      </trkpt>
      <trkpt lat="51.307754" lon="0.158347">
        <ele>104.4</ele>
        <time>2026-04-24T17:33:49.000Z</time>
      </trkpt>
      <trkpt lat="51.307137" lon="0.157989">
        <ele>103.2</ele>
        <time>2026-04-24T17:34:06.000Z</time>
      </trkpt>
      <trkpt lat="51.306808" lon="0.157726">
        <ele>102.4</ele>
        <time>2026-04-24T17:34:16.000Z</time>
      </trkpt>
      <trkpt lat="51.306293" lon="0.157218">
        <ele>101.2</ele>
        <time>2026-04-24T17:34:32.000Z</time>
      </trkpt>
      <trkpt lat="51.305818" lon="0.156678">
        <ele>100.2</ele>
        <time>2026-04-24T17:34:48.000Z</time>
      </trkpt>
      <trkpt lat="51.305284" lon="0.155975">
        <ele>100.2</ele>
        <time>2026-04-24T17:35:06.000Z</time>
      </trkpt>
      <trkpt lat="51.304797" lon="0.155223">
        <ele>101.4</ele>
        <time>2026-04-24T17:35:24.000Z</time>
      </trkpt>
      <trkpt lat="51.304651" lon="0.154958">
        <ele>102.2</ele>
        <time>2026-04-24T17:35:30.000Z</time>
      </trkpt>
      <trkpt lat="51.304423" lon="0.154475">
        <ele>103.4</ele>
        <time>2026-04-24T17:35:40.000Z</time>
      </trkpt>
      <trkpt lat="51.304272" lon="0.154104">
        <ele>104.4</ele>
        <time>2026-04-24T17:35:48.000Z</time>
      </trkpt>
      <trkpt lat="51.304119" lon="0.153631">
        <ele>105.4</ele>
        <time>2026-04-24T17:35:57.000Z</time>
      </trkpt>
      <trkpt lat="51.303987" lon="0.153135">
        <ele>106</ele>
        <time>2026-04-24T17:36:06.000Z</time>
      </trkpt>
      <trkpt lat="51.303815" lon="0.152792">
        <ele>106.2</ele>
        <time>2026-04-24T17:36:13.000Z</time>
      </trkpt>
      <trkpt lat="51.303784" lon="0.152437">
        <ele>106.4</ele>
        <time>2026-04-24T17:36:19.000Z</time>
      </trkpt>
      <trkpt lat="51.303702" lon="0.152181">
        <ele>106.2</ele>
        <time>2026-04-24T17:36:24.000Z</time>
      </trkpt>
      <trkpt lat="51.303514" lon="0.151869">
        <ele>105.8</ele>
        <time>2026-04-24T17:36:31.000Z</time>
      </trkpt>
      <trkpt lat="51.303036" lon="0.1513">
        <ele>105</ele>
        <time>2026-04-24T17:36:47.000Z</time>
      </trkpt>
      <trkpt lat="51.302746" lon="0.150902">
        <ele>104.4</ele>
        <time>2026-04-24T17:36:57.000Z</time>
      </trkpt>
      <trkpt lat="51.302643" lon="0.150727">
        <ele>103.6</ele>
        <time>2026-04-24T17:37:01.000Z</time>
      </trkpt>
      <trkpt lat="51.302349" lon="0.15014">
        <ele>102.4</ele>
        <time>2026-04-24T17:37:14.000Z</time>
      </trkpt>
      <trkpt lat="51.30222" lon="0.14981">
        <ele>102.6</ele>
        <time>2026-04-24T17:37:20.000Z</time>
      </trkpt>
      <trkpt lat="51.301817" lon="0.148887">
        <ele>101.8</ele>
        <time>2026-04-24T17:37:39.000Z</time>
      </trkpt>
      <trkpt lat="51.301639" lon="0.148329">
        <ele>102</ele>
        <time>2026-04-24T17:37:49.000Z</time>
      </trkpt>
      <trkpt lat="51.301425" lon="0.147486">
        <ele>102.4</ele>
        <time>2026-04-24T17:38:05.000Z</time>
      </trkpt>
      <trkpt lat="51.300999" lon="0.145457">
        <ele>101.6</ele>
        <time>2026-04-24T17:38:40.000Z</time>
      </trkpt>
      <trkpt lat="51.300776" lon="0.144508">
        <ele>100</ele>
        <time>2026-04-24T17:38:57.000Z</time>
      </trkpt>
      <trkpt lat="51.300713" lon="0.144318">
        <ele>100</ele>
        <time>2026-04-24T17:39:01.000Z</time>
      </trkpt>
      <trkpt lat="51.300631" lon="0.144145">
        <ele>100</ele>
        <time>2026-04-24T17:39:04.000Z</time>
      </trkpt>
      <trkpt lat="51.300535" lon="0.143992">
        <ele>100</ele>
        <time>2026-04-24T17:39:08.000Z</time>
      </trkpt>
      <trkpt lat="51.300423" lon="0.14386">
        <ele>100.2</ele>
        <time>2026-04-24T17:39:12.000Z</time>
      </trkpt>
      <trkpt lat="51.300288" lon="0.143762">
        <ele>99.8</ele>
        <time>2026-04-24T17:39:16.000Z</time>
      </trkpt>
      <trkpt lat="51.300214" lon="0.143743">
        <ele>99.4</ele>
        <time>2026-04-24T17:39:18.000Z</time>
      </trkpt>
      <trkpt lat="51.300136" lon="0.143746">
        <ele>99.4</ele>
        <time>2026-04-24T17:39:20.000Z</time>
      </trkpt>
      <trkpt lat="51.299817" lon="0.143866">
        <ele>98.2</ele>
        <time>2026-04-24T17:39:29.000Z</time>
      </trkpt>
      <trkpt lat="51.29922" lon="0.144156">
        <ele>96.2</ele>
        <time>2026-04-24T17:39:45.000Z</time>
      </trkpt>
      <trkpt lat="51.299043" lon="0.144217">
        <ele>95</ele>
        <time>2026-04-24T17:39:50.000Z</time>
      </trkpt>
      <trkpt lat="51.298951" lon="0.14423">
        <ele>94.8</ele>
        <time>2026-04-24T17:39:52.000Z</time>
      </trkpt>
      <trkpt lat="51.298765" lon="0.14422">
        <ele>94</ele>
        <time>2026-04-24T17:39:57.000Z</time>
      </trkpt>
      <trkpt lat="51.298104" lon="0.144117">
        <ele>92.2</ele>
        <time>2026-04-24T17:40:15.000Z</time>
      </trkpt>
      <trkpt lat="51.296728" lon="0.144101">
        <ele>85.6</ele>
        <time>2026-04-24T17:40:52.000Z</time>
      </trkpt>
      <trkpt lat="51.296192" lon="0.144057">
        <ele>83.8</ele>
        <time>2026-04-24T17:41:06.000Z</time>
      </trkpt>
      <trkpt lat="51.29602" lon="0.144031">
        <ele>83.4</ele>
        <time>2026-04-24T17:41:11.000Z</time>
      </trkpt>
      <trkpt lat="51.29568" lon="0.143946">
        <ele>82.2</ele>
        <time>2026-04-24T17:41:20.000Z</time>
      </trkpt>
      <trkpt lat="51.295401" lon="0.143849">
        <ele>81.6</ele>
        <time>2026-04-24T17:41:28.000Z</time>
      </trkpt>
      <trkpt lat="51.295256" lon="0.143781">
        <ele>81.2</ele>
        <time>2026-04-24T17:41:32.000Z</time>
      </trkpt>
      <trkpt lat="51.295112" lon="0.143696">
        <ele>81.2</ele>
        <time>2026-04-24T17:41:36.000Z</time>
      </trkpt>
      <trkpt lat="51.294847" lon="0.143503">
        <ele>80.8</ele>
        <time>2026-04-24T17:41:44.000Z</time>
      </trkpt>
      <trkpt lat="51.294664" lon="0.143338">
        <ele>80.8</ele>
        <time>2026-04-24T17:41:49.000Z</time>
      </trkpt>
      <trkpt lat="51.29455" lon="0.143203">
        <ele>80.8</ele>
        <time>2026-04-24T17:41:53.000Z</time>
      </trkpt>
      <trkpt lat="51.294307" lon="0.142788">
        <ele>80.6</ele>
        <time>2026-04-24T17:42:02.000Z</time>
      </trkpt>
      <trkpt lat="51.293914" lon="0.141954">
        <ele>81</ele>
        <time>2026-04-24T17:42:20.000Z</time>
      </trkpt>
      <trkpt lat="51.293451" lon="0.140896">
        <ele>84.4</ele>
        <time>2026-04-24T17:42:41.000Z</time>
      </trkpt>
      <trkpt lat="51.293021" lon="0.139986">
        <ele>86.4</ele>
        <time>2026-04-24T17:43:00.000Z</time>
      </trkpt>
      <trkpt lat="51.292553" lon="0.138923">
        <ele>87.4</ele>
        <time>2026-04-24T17:43:22.000Z</time>
      </trkpt>
      <trkpt lat="51.292157" lon="0.138093">
        <ele>87.8</ele>
        <time>2026-04-24T17:43:40.000Z</time>
      </trkpt>
      <trkpt lat="51.291869" lon="0.137418">
        <ele>88</ele>
        <time>2026-04-24T17:43:53.000Z</time>
      </trkpt>
      <trkpt lat="51.291703" lon="0.137095">
        <ele>87.6</ele>
        <time>2026-04-24T17:44:00.000Z</time>
      </trkpt>
      <trkpt lat="51.291225" lon="0.135938">
        <ele>86.6</ele>
        <time>2026-04-24T17:44:23.000Z</time>
      </trkpt>
      <trkpt lat="51.291116" lon="0.135721">
        <ele>86</ele>
        <time>2026-04-24T17:44:28.000Z</time>
      </trkpt>
      <trkpt lat="51.291065" lon="0.135559">
        <ele>85.4</ele>
        <time>2026-04-24T17:44:31.000Z</time>
      </trkpt>
      <trkpt lat="51.290968" lon="0.135333">
        <ele>84.8</ele>
        <time>2026-04-24T17:44:36.000Z</time>
      </trkpt>
      <trkpt lat="51.29044" lon="0.134168">
        <ele>81.8</ele>
        <time>2026-04-24T17:45:00.000Z</time>
      </trkpt>
      <trkpt lat="51.289727" lon="0.132678">
        <ele>83</ele>
        <time>2026-04-24T17:45:31.000Z</time>
      </trkpt>
      <trkpt lat="51.289386" lon="0.131872">
        <ele>85.6</ele>
        <time>2026-04-24T17:45:47.000Z</time>
      </trkpt>
      <trkpt lat="51.289137" lon="0.131434">
        <ele>87.2</ele>
        <time>2026-04-24T17:45:57.000Z</time>
      </trkpt>
      <trkpt lat="51.288985" lon="0.131246">
        <ele>87.8</ele>
        <time>2026-04-24T17:46:02.000Z</time>
      </trkpt>
      <trkpt lat="51.28871" lon="0.131056">
        <ele>89.2</ele>
        <time>2026-04-24T17:46:10.000Z</time>
      </trkpt>
      <trkpt lat="51.28778" lon="0.130632">
        <ele>92.8</ele>
        <time>2026-04-24T17:46:36.000Z</time>
      </trkpt>
      <trkpt lat="51.284553" lon="0.129305">
        <ele>89.6</ele>
        <time>2026-04-24T17:48:05.000Z</time>
      </trkpt>
      <trkpt lat="51.282255" lon="0.128402">
        <ele>88.8</ele>
        <time>2026-04-24T17:49:08.000Z</time>
      </trkpt>
      <trkpt lat="51.281719" lon="0.128164">
        <ele>86.8</ele>
        <time>2026-04-24T17:49:23.000Z</time>
      </trkpt>
      <trkpt lat="51.281393" lon="0.127971">
        <ele>85.4</ele>
        <time>2026-04-24T17:49:32.000Z</time>
      </trkpt>
      <trkpt lat="51.281252" lon="0.127841">
        <ele>84.8</ele>
        <time>2026-04-24T17:49:37.000Z</time>
      </trkpt>
      <trkpt lat="51.280955" lon="0.127496">
        <ele>83.4</ele>
        <time>2026-04-24T17:49:46.000Z</time>
      </trkpt>
      <trkpt lat="51.280837" lon="0.127381">
        <ele>83</ele>
        <time>2026-04-24T17:49:50.000Z</time>
      </trkpt>
      <trkpt lat="51.280657" lon="0.12724">
        <ele>82.6</ele>
        <time>2026-04-24T17:49:55.000Z</time>
      </trkpt>
      <trkpt lat="51.280531" lon="0.127187">
        <ele>82.2</ele>
        <time>2026-04-24T17:49:59.000Z</time>
      </trkpt>
      <trkpt lat="51.279856" lon="0.127025">
        <ele>80.6</ele>
        <time>2026-04-24T17:50:17.000Z</time>
      </trkpt>
      <trkpt lat="51.279422" lon="0.126869">
        <ele>80.2</ele>
        <time>2026-04-24T17:50:29.000Z</time>
      </trkpt>
      <trkpt lat="51.279265" lon="0.126861">
        <ele>79.8</ele>
        <time>2026-04-24T17:50:33.000Z</time>
      </trkpt>
      <trkpt lat="51.279185" lon="0.126889">
        <ele>78.8</ele>
        <time>2026-04-24T17:50:35.000Z</time>
      </trkpt>
      <trkpt lat="51.279115" lon="0.126935">
        <ele>78.6</ele>
        <time>2026-04-24T17:50:37.000Z</time>
      </trkpt>
      <trkpt lat="51.278955" lon="0.127119">
        <ele>77.8</ele>
        <time>2026-04-24T17:50:43.000Z</time>
      </trkpt>
      <trkpt lat="51.278709" lon="0.127281">
        <ele>77.2</ele>
        <time>2026-04-24T17:50:50.000Z</time>
      </trkpt>
      <trkpt lat="51.27827" lon="0.127473">
        <ele>77</ele>
        <time>2026-04-24T17:51:02.000Z</time>
      </trkpt>
      <trkpt lat="51.278161" lon="0.12748">
        <ele>77</ele>
        <time>2026-04-24T17:51:05.000Z</time>
      </trkpt>
      <trkpt lat="51.278136" lon="0.127454">
        <ele>77</ele>
        <time>2026-04-24T17:51:06.000Z</time>
      </trkpt>
      <trkpt lat="51.278014" lon="0.126804">
        <ele>77.6</ele>
        <time>2026-04-24T17:51:17.000Z</time>
      </trkpt>
      <trkpt lat="51.277975" lon="0.126264">
        <ele>78</ele>
        <time>2026-04-24T17:51:26.000Z</time>
      </trkpt>
      <trkpt lat="51.278026" lon="0.123574">
        <ele>78.2</ele>
        <time>2026-04-24T17:52:11.000Z</time>
      </trkpt>
      <trkpt lat="51.277947" lon="0.121261">
        <ele>78.4</ele>
        <time>2026-04-24T17:52:50.000Z</time>
      </trkpt>
      <trkpt lat="51.277913" lon="0.118611">
        <ele>78.8</ele>
        <time>2026-04-24T17:53:34.000Z</time>
      </trkpt>
      <trkpt lat="51.277899" lon="0.118232">
        <ele>78.8</ele>
        <time>2026-04-24T17:53:40.000Z</time>
      </trkpt>
      <trkpt lat="51.27786" lon="0.117796">
        <ele>78.8</ele>
        <time>2026-04-24T17:53:48.000Z</time>
      </trkpt>
      <trkpt lat="51.277801" lon="0.117332">
        <ele>78.8</ele>
        <time>2026-04-24T17:53:56.000Z</time>
      </trkpt>
      <trkpt lat="51.277678" lon="0.11677">
        <ele>79</ele>
        <time>2026-04-24T17:54:05.000Z</time>
      </trkpt>
      <trkpt lat="51.277583" lon="0.116521">
        <ele>79.2</ele>
        <time>2026-04-24T17:54:10.000Z</time>
      </trkpt>
      <trkpt lat="51.277476" lon="0.116087">
        <ele>79.4</ele>
        <time>2026-04-24T17:54:18.000Z</time>
      </trkpt>
      <trkpt lat="51.27737" lon="0.115773">
        <ele>79.6</ele>
        <time>2026-04-24T17:54:24.000Z</time>
      </trkpt>
      <trkpt lat="51.277312" lon="0.115539">
        <ele>79.8</ele>
        <time>2026-04-24T17:54:28.000Z</time>
      </trkpt>
      <trkpt lat="51.277213" lon="0.115299">
        <ele>79.8</ele>
        <time>2026-04-24T17:54:33.000Z</time>
      </trkpt>
      <trkpt lat="51.277194" lon="0.115141">
        <ele>79.8</ele>
        <time>2026-04-24T17:54:36.000Z</time>
      </trkpt>
      <trkpt lat="51.277114" lon="0.114826">
        <ele>80</ele>
        <time>2026-04-24T17:54:41.000Z</time>
      </trkpt>
      <trkpt lat="51.277109" lon="0.114709">
        <ele>80</ele>
        <time>2026-04-24T17:54:43.000Z</time>
      </trkpt>
      <trkpt lat="51.276969" lon="0.114156">
        <ele>80.4</ele>
        <time>2026-04-24T17:54:53.000Z</time>
      </trkpt>
      <trkpt lat="51.276722" lon="0.111961">
        <ele>81.4</ele>
        <time>2026-04-24T17:55:31.000Z</time>
      </trkpt>
      <trkpt lat="51.276665" lon="0.11117">
        <ele>81.6</ele>
        <time>2026-04-24T17:55:44.000Z</time>
      </trkpt>
      <trkpt lat="51.276441" lon="0.109616">
        <ele>82.4</ele>
        <time>2026-04-24T17:56:11.000Z</time>
      </trkpt>
      <trkpt lat="51.276357" lon="0.109131">
        <ele>82.6</ele>
        <time>2026-04-24T17:56:19.000Z</time>
      </trkpt>
      <trkpt lat="51.276105" lon="0.107906">
        <ele>83.6</ele>
        <time>2026-04-24T17:56:41.000Z</time>
      </trkpt>
      <trkpt lat="51.276043" lon="0.107679">
        <ele>83.8</ele>
        <time>2026-04-24T17:56:45.000Z</time>
      </trkpt>
      <trkpt lat="51.275996" lon="0.107595">
        <ele>84</ele>
        <time>2026-04-24T17:56:47.000Z</time>
      </trkpt>
      <trkpt lat="51.275922" lon="0.107585">
        <ele>84.2</ele>
        <time>2026-04-24T17:56:49.000Z</time>
      </trkpt>
      <trkpt lat="51.275801" lon="0.107623">
        <ele>84.4</ele>
        <time>2026-04-24T17:56:52.000Z</time>
      </trkpt>
      <trkpt lat="51.275537" lon="0.107665">
        <ele>84.8</ele>
        <time>2026-04-24T17:56:59.000Z</time>
      </trkpt>
      <trkpt lat="51.275111" lon="0.107685">
        <ele>86.2</ele>
        <time>2026-04-24T17:57:10.000Z</time>
      </trkpt>
      <trkpt lat="51.274901" lon="0.107657">
        <ele>86.6</ele>
        <time>2026-04-24T17:57:16.000Z</time>
      </trkpt>
      <trkpt lat="51.274674" lon="0.107653">
        <ele>87.2</ele>
        <time>2026-04-24T17:57:22.000Z</time>
      </trkpt>
      <trkpt lat="51.27433" lon="0.107601">
        <ele>88</ele>
        <time>2026-04-24T17:57:31.000Z</time>
      </trkpt>
      <trkpt lat="51.273985" lon="0.107464">
        <ele>89</ele>
        <time>2026-04-24T17:57:41.000Z</time>
      </trkpt>
      <trkpt lat="51.273678" lon="0.107386">
        <ele>89.6</ele>
        <time>2026-04-24T17:57:49.000Z</time>
      </trkpt>
      <trkpt lat="51.273364" lon="0.107197">
        <ele>90</ele>
        <time>2026-04-24T17:57:58.000Z</time>
      </trkpt>
      <trkpt lat="51.273269" lon="0.10712">
        <ele>90.2</ele>
        <time>2026-04-24T17:58:01.000Z</time>
      </trkpt>
      <trkpt lat="51.273142" lon="0.107054">
        <ele>90.6</ele>
        <time>2026-04-24T17:58:04.000Z</time>
      </trkpt>
      <trkpt lat="51.273009" lon="0.107017">
        <ele>91</ele>
        <time>2026-04-24T17:58:08.000Z</time>
      </trkpt>
      <trkpt lat="51.272668" lon="0.106835">
        <ele>92.2</ele>
        <time>2026-04-24T17:58:18.000Z</time>
      </trkpt>
      <trkpt lat="51.272419" lon="0.106735">
        <ele>92.8</ele>
        <time>2026-04-24T17:58:24.000Z</time>
      </trkpt>
      <trkpt lat="51.272265" lon="0.106704">
        <ele>93.2</ele>
        <time>2026-04-24T17:58:29.000Z</time>
      </trkpt>
      <trkpt lat="51.271816" lon="0.106558">
        <ele>94.6</ele>
        <time>2026-04-24T17:58:41.000Z</time>
      </trkpt>
      <trkpt lat="51.271675" lon="0.10655">
        <ele>95.2</ele>
        <time>2026-04-24T17:58:45.000Z</time>
      </trkpt>
      <trkpt lat="51.271576" lon="0.106517">
        <ele>95.6</ele>
        <time>2026-04-24T17:58:47.000Z</time>
      </trkpt>
      <trkpt lat="51.271498" lon="0.106508">
        <ele>95.8</ele>
        <time>2026-04-24T17:58:49.000Z</time>
      </trkpt>
      <trkpt lat="51.27116" lon="0.106527">
        <ele>97.2</ele>
        <time>2026-04-24T17:58:58.000Z</time>
      </trkpt>
      <trkpt lat="51.271062" lon="0.106509">
        <ele>97.6</ele>
        <time>2026-04-24T17:59:01.000Z</time>
      </trkpt>
      <trkpt lat="51.27095" lon="0.106516">
        <ele>98.4</ele>
        <time>2026-04-24T17:59:04.000Z</time>
      </trkpt>
      <trkpt lat="51.2708" lon="0.106493">
        <ele>98.8</ele>
        <time>2026-04-24T17:59:08.000Z</time>
      </trkpt>
      <trkpt lat="51.270665" lon="0.106439">
        <ele>99.6</ele>
        <time>2026-04-24T17:59:12.000Z</time>
      </trkpt>
      <trkpt lat="51.270538" lon="0.106432">
        <ele>100</ele>
        <time>2026-04-24T17:59:15.000Z</time>
      </trkpt>
      <trkpt lat="51.270441" lon="0.106362">
        <ele>100.4</ele>
        <time>2026-04-24T17:59:18.000Z</time>
      </trkpt>
      <trkpt lat="51.270359" lon="0.106333">
        <ele>100.8</ele>
        <time>2026-04-24T17:59:20.000Z</time>
      </trkpt>
      <trkpt lat="51.27012" lon="0.10608">
        <ele>101.4</ele>
        <time>2026-04-24T17:59:28.000Z</time>
      </trkpt>
      <trkpt lat="51.269976" lon="0.105846">
        <ele>102.2</ele>
        <time>2026-04-24T17:59:33.000Z</time>
      </trkpt>
      <trkpt lat="51.269798" lon="0.10568">
        <ele>103.8</ele>
        <time>2026-04-24T17:59:39.000Z</time>
      </trkpt>
      <trkpt lat="51.269671" lon="0.105611">
        <ele>104.6</ele>
        <time>2026-04-24T17:59:42.000Z</time>
      </trkpt>
      <trkpt lat="51.269501" lon="0.105467">
        <ele>106</ele>
        <time>2026-04-24T17:59:48.000Z</time>
      </trkpt>
      <trkpt lat="51.269405" lon="0.105411">
        <ele>106.8</ele>
        <time>2026-04-24T17:59:50.000Z</time>
      </trkpt>
      <trkpt lat="51.269371" lon="0.105415">
        <ele>107.2</ele>
        <time>2026-04-24T17:59:51.000Z</time>
      </trkpt>
      <trkpt lat="51.269342" lon="0.105397">
        <ele>107.6</ele>
        <time>2026-04-24T17:59:52.000Z</time>
      </trkpt>
      <trkpt lat="51.269278" lon="0.105335">
        <ele>108.2</ele>
        <time>2026-04-24T17:59:54.000Z</time>
      </trkpt>
      <trkpt lat="51.269135" lon="0.105241">
        <ele>109.8</ele>
        <time>2026-04-24T17:59:58.000Z</time>
      </trkpt>
      <trkpt lat="51.268967" lon="0.105182">
        <ele>111.8</ele>
        <time>2026-04-24T18:00:03.000Z</time>
      </trkpt>
      <trkpt lat="51.268873" lon="0.105125">
        <ele>112.6</ele>
        <time>2026-04-24T18:00:05.000Z</time>
      </trkpt>
      <trkpt lat="51.2687" lon="0.105076">
        <ele>114.2</ele>
        <time>2026-04-24T18:00:10.000Z</time>
      </trkpt>
      <trkpt lat="51.268612" lon="0.105016">
        <ele>115.2</ele>
        <time>2026-04-24T18:00:13.000Z</time>
      </trkpt>
      <trkpt lat="51.268451" lon="0.104979">
        <ele>117</ele>
        <time>2026-04-24T18:00:17.000Z</time>
      </trkpt>
      <trkpt lat="51.268237" lon="0.104873">
        <ele>119.2</ele>
        <time>2026-04-24T18:00:23.000Z</time>
      </trkpt>
      <trkpt lat="51.267852" lon="0.104712">
        <ele>121.6</ele>
        <time>2026-04-24T18:00:34.000Z</time>
      </trkpt>
      <trkpt lat="51.26781" lon="0.10471">
        <ele>121.8</ele>
        <time>2026-04-24T18:00:35.000Z</time>
      </trkpt>
      <trkpt lat="51.267748" lon="0.104671">
        <ele>122.4</ele>
        <time>2026-04-24T18:00:36.000Z</time>
      </trkpt>
      <trkpt lat="51.267598" lon="0.104636">
        <ele>123.8</ele>
        <time>2026-04-24T18:00:41.000Z</time>
      </trkpt>
      <trkpt lat="51.267389" lon="0.104545">
        <ele>126.2</ele>
        <time>2026-04-24T18:00:46.000Z</time>
      </trkpt>
      <trkpt lat="51.267346" lon="0.104542">
        <ele>126.6</ele>
        <time>2026-04-24T18:00:47.000Z</time>
      </trkpt>
      <trkpt lat="51.266935" lon="0.104286">
        <ele>128.8</ele>
        <time>2026-04-24T18:00:59.000Z</time>
      </trkpt>
      <trkpt lat="51.266805" lon="0.104239">
        <ele>129.4</ele>
        <time>2026-04-24T18:01:03.000Z</time>
      </trkpt>
      <trkpt lat="51.266633" lon="0.10414">
        <ele>130.8</ele>
        <time>2026-04-24T18:01:08.000Z</time>
      </trkpt>
      <trkpt lat="51.266585" lon="0.104097">
        <ele>131.4</ele>
        <time>2026-04-24T18:01:09.000Z</time>
      </trkpt>
      <trkpt lat="51.266515" lon="0.104098">
        <ele>131.6</ele>
        <time>2026-04-24T18:01:11.000Z</time>
      </trkpt>
      <trkpt lat="51.266401" lon="0.10402">
        <ele>132.4</ele>
        <time>2026-04-24T18:01:14.000Z</time>
      </trkpt>
      <trkpt lat="51.266337" lon="0.104011">
        <ele>133.2</ele>
        <time>2026-04-24T18:01:16.000Z</time>
      </trkpt>
      <trkpt lat="51.26618" lon="0.103915">
        <ele>134.4</ele>
        <time>2026-04-24T18:01:21.000Z</time>
      </trkpt>
      <trkpt lat="51.265934" lon="0.103845">
        <ele>136.2</ele>
        <time>2026-04-24T18:01:27.000Z</time>
      </trkpt>
      <trkpt lat="51.265887" lon="0.103803">
        <ele>136.4</ele>
        <time>2026-04-24T18:01:29.000Z</time>
      </trkpt>
      <trkpt lat="51.265503" lon="0.10364">
        <ele>139.4</ele>
        <time>2026-04-24T18:01:39.000Z</time>
      </trkpt>
      <trkpt lat="51.265326" lon="0.103605">
        <ele>140.6</ele>
        <time>2026-04-24T18:01:44.000Z</time>
      </trkpt>
      <trkpt lat="51.265285" lon="0.103581">
        <ele>141.4</ele>
        <time>2026-04-24T18:01:45.000Z</time>
      </trkpt>
      <trkpt lat="51.265146" lon="0.103587">
        <ele>142.6</ele>
        <time>2026-04-24T18:01:49.000Z</time>
      </trkpt>
      <trkpt lat="51.264866" lon="0.103564">
        <ele>146.4</ele>
        <time>2026-04-24T18:01:56.000Z</time>
      </trkpt>
      <trkpt lat="51.264724" lon="0.103508">
        <ele>147.8</ele>
        <time>2026-04-24T18:02:00.000Z</time>
      </trkpt>
      <trkpt lat="51.264679" lon="0.103511">
        <ele>148</ele>
        <time>2026-04-24T18:02:01.000Z</time>
      </trkpt>
      <trkpt lat="51.264536" lon="0.103473">
        <ele>149.6</ele>
        <time>2026-04-24T18:02:05.000Z</time>
      </trkpt>
      <trkpt lat="51.264473" lon="0.10348">
        <ele>150.2</ele>
        <time>2026-04-24T18:02:07.000Z</time>
      </trkpt>
      <trkpt lat="51.26438" lon="0.103419">
        <ele>151.2</ele>
        <time>2026-04-24T18:02:10.000Z</time>
      </trkpt>
      <trkpt lat="51.264265" lon="0.103426">
        <ele>152</ele>
        <time>2026-04-24T18:02:13.000Z</time>
      </trkpt>
      <trkpt lat="51.264211" lon="0.103411">
        <ele>152.6</ele>
        <time>2026-04-24T18:02:14.000Z</time>
      </trkpt>
      <trkpt lat="51.264091" lon="0.103442">
        <ele>153.8</ele>
        <time>2026-04-24T18:02:17.000Z</time>
      </trkpt>
      <trkpt lat="51.264054" lon="0.103436">
        <ele>154.2</ele>
        <time>2026-04-24T18:02:18.000Z</time>
      </trkpt>
      <trkpt lat="51.263985" lon="0.103465">
        <ele>154.8</ele>
        <time>2026-04-24T18:02:20.000Z</time>
      </trkpt>
      <trkpt lat="51.263778" lon="0.103475">
        <ele>156.6</ele>
        <time>2026-04-24T18:02:26.000Z</time>
      </trkpt>
      <trkpt lat="51.263558" lon="0.103514">
        <ele>158.2</ele>
        <time>2026-04-24T18:02:32.000Z</time>
      </trkpt>
      <trkpt lat="51.263325" lon="0.103496">
        <ele>160</ele>
        <time>2026-04-24T18:02:38.000Z</time>
      </trkpt>
      <trkpt lat="51.262916" lon="0.103433">
        <ele>162.4</ele>
        <time>2026-04-24T18:02:49.000Z</time>
      </trkpt>
      <trkpt lat="51.262304" lon="0.103242">
        <ele>167.8</ele>
        <time>2026-04-24T18:03:06.000Z</time>
      </trkpt>
      <trkpt lat="51.261415" lon="0.103002">
        <ele>172.8</ele>
        <time>2026-04-24T18:03:30.000Z</time>
      </trkpt>
      <trkpt lat="51.261261" lon="0.102984">
        <ele>174.2</ele>
        <time>2026-04-24T18:03:34.000Z</time>
      </trkpt>
      <trkpt lat="51.261007" lon="0.102916">
        <ele>175.6</ele>
        <time>2026-04-24T18:03:41.000Z</time>
      </trkpt>
      <trkpt lat="51.260742" lon="0.10289">
        <ele>177.6</ele>
        <time>2026-04-24T18:03:48.000Z</time>
      </trkpt>
      <trkpt lat="51.260416" lon="0.102831">
        <ele>179.6</ele>
        <time>2026-04-24T18:03:57.000Z</time>
      </trkpt>
      <trkpt lat="51.260169" lon="0.102715">
        <ele>180.4</ele>
        <time>2026-04-24T18:04:03.000Z</time>
      </trkpt>
      <trkpt lat="51.260037" lon="0.102679">
        <ele>181.2</ele>
        <time>2026-04-24T18:04:07.000Z</time>
      </trkpt>
      <trkpt lat="51.259764" lon="0.102566">
        <ele>182</ele>
        <time>2026-04-24T18:04:15.000Z</time>
      </trkpt>
      <trkpt lat="51.258731" lon="0.102009">
        <ele>184</ele>
        <time>2026-04-24T18:04:44.000Z</time>
      </trkpt>
      <trkpt lat="51.258348" lon="0.101832">
        <ele>185.4</ele>
        <time>2026-04-24T18:04:54.000Z</time>
      </trkpt>
      <trkpt lat="51.25806" lon="0.101734">
        <ele>186.2</ele>
        <time>2026-04-24T18:05:02.000Z</time>
      </trkpt>
      <trkpt lat="51.257848" lon="0.101686">
        <ele>186.8</ele>
        <time>2026-04-24T18:05:08.000Z</time>
      </trkpt>
      <trkpt lat="51.257778" lon="0.101656">
        <ele>187.2</ele>
        <time>2026-04-24T18:05:10.000Z</time>
      </trkpt>
      <trkpt lat="51.257617" lon="0.101629">
        <ele>187.8</ele>
        <time>2026-04-24T18:05:14.000Z</time>
      </trkpt>
      <trkpt lat="51.257521" lon="0.101624">
        <ele>188.2</ele>
        <time>2026-04-24T18:05:17.000Z</time>
      </trkpt>
      <trkpt lat="51.257366" lon="0.101653">
        <ele>190</ele>
        <time>2026-04-24T18:05:21.000Z</time>
      </trkpt>
      <trkpt lat="51.256823" lon="0.101547">
        <ele>193.2</ele>
        <time>2026-04-24T18:05:35.000Z</time>
      </trkpt>
      <trkpt lat="51.256372" lon="0.101524">
        <ele>195.6</ele>
        <time>2026-04-24T18:05:48.000Z</time>
      </trkpt>
      <trkpt lat="51.256264" lon="0.10147">
        <ele>196.2</ele>
        <time>2026-04-24T18:05:51.000Z</time>
      </trkpt>
      <trkpt lat="51.256114" lon="0.101454">
        <ele>197.6</ele>
        <time>2026-04-24T18:05:55.000Z</time>
      </trkpt>
      <trkpt lat="51.255979" lon="0.101401">
        <ele>199</ele>
        <time>2026-04-24T18:05:58.000Z</time>
      </trkpt>
      <trkpt lat="51.255812" lon="0.101365">
        <ele>200.6</ele>
        <time>2026-04-24T18:06:03.000Z</time>
      </trkpt>
      <trkpt lat="51.255723" lon="0.101412">
        <ele>201.2</ele>
        <time>2026-04-24T18:06:05.000Z</time>
      </trkpt>
      <trkpt lat="51.255486" lon="0.101442">
        <ele>202.4</ele>
        <time>2026-04-24T18:06:12.000Z</time>
      </trkpt>
      <trkpt lat="51.255279" lon="0.101504">
        <ele>204.2</ele>
        <time>2026-04-24T18:06:17.000Z</time>
      </trkpt>
      <trkpt lat="51.255146" lon="0.101521">
        <ele>205.8</ele>
        <time>2026-04-24T18:06:21.000Z</time>
      </trkpt>
      <trkpt lat="51.255016" lon="0.101576">
        <ele>207</ele>
        <time>2026-04-24T18:06:24.000Z</time>
      </trkpt>
      <trkpt lat="51.254889" lon="0.101602">
        <ele>208</ele>
        <time>2026-04-24T18:06:28.000Z</time>
      </trkpt>
      <trkpt lat="51.254556" lon="0.101618">
        <ele>210.6</ele>
        <time>2026-04-24T18:06:37.000Z</time>
      </trkpt>
      <trkpt lat="51.254399" lon="0.101663">
        <ele>211.4</ele>
        <time>2026-04-24T18:06:41.000Z</time>
      </trkpt>
      <trkpt lat="51.254295" lon="0.101666">
        <ele>211.8</ele>
        <time>2026-04-24T18:06:44.000Z</time>
      </trkpt>
      <trkpt lat="51.25425" lon="0.10169">
        <ele>212.2</ele>
        <time>2026-04-24T18:06:45.000Z</time>
      </trkpt>
      <trkpt lat="51.254052" lon="0.101737">
        <ele>213.2</ele>
        <time>2026-04-24T18:06:50.000Z</time>
      </trkpt>
      <trkpt lat="51.253725" lon="0.101882">
        <ele>215.2</ele>
        <time>2026-04-24T18:06:59.000Z</time>
      </trkpt>
      <trkpt lat="51.253379" lon="0.102149">
        <ele>217.8</ele>
        <time>2026-04-24T18:07:10.000Z</time>
      </trkpt>
      <trkpt lat="51.25314" lon="0.102386">
        <ele>218.8</ele>
        <time>2026-04-24T18:07:17.000Z</time>
      </trkpt>
      <trkpt lat="51.252996" lon="0.102499">
        <ele>219.2</ele>
        <time>2026-04-24T18:07:21.000Z</time>
      </trkpt>
      <trkpt lat="51.252847" lon="0.102588">
        <ele>219.8</ele>
        <time>2026-04-24T18:07:26.000Z</time>
      </trkpt>
      <trkpt lat="51.252747" lon="0.102743">
        <ele>220.2</ele>
        <time>2026-04-24T18:07:29.000Z</time>
      </trkpt>
      <trkpt lat="51.252667" lon="0.102819">
        <ele>220.4</ele>
        <time>2026-04-24T18:07:32.000Z</time>
      </trkpt>
      <trkpt lat="51.252487" lon="0.103081">
        <ele>220.8</ele>
        <time>2026-04-24T18:07:38.000Z</time>
      </trkpt>
      <trkpt lat="51.25233" lon="0.103228">
        <ele>221.4</ele>
        <time>2026-04-24T18:07:43.000Z</time>
      </trkpt>
      <trkpt lat="51.252187" lon="0.103316">
        <ele>222</ele>
        <time>2026-04-24T18:07:47.000Z</time>
      </trkpt>
      <trkpt lat="51.252023" lon="0.10337">
        <ele>222.6</ele>
        <time>2026-04-24T18:07:52.000Z</time>
      </trkpt>
      <trkpt lat="51.251921" lon="0.103431">
        <ele>223.2</ele>
        <time>2026-04-24T18:07:55.000Z</time>
      </trkpt>
      <trkpt lat="51.251806" lon="0.103559">
        <ele>224</ele>
        <time>2026-04-24T18:07:58.000Z</time>
      </trkpt>
      <trkpt lat="51.251665" lon="0.103672">
        <ele>224.6</ele>
        <time>2026-04-24T18:08:03.000Z</time>
      </trkpt>
      <trkpt lat="51.251565" lon="0.103727">
        <ele>225.4</ele>
        <time>2026-04-24T18:08:05.000Z</time>
      </trkpt>
      <trkpt lat="51.251185" lon="0.104132">
        <ele>227.8</ele>
        <time>2026-04-24T18:08:18.000Z</time>
      </trkpt>
      <trkpt lat="51.251068" lon="0.104312">
        <ele>228.4</ele>
        <time>2026-04-24T18:08:22.000Z</time>
      </trkpt>
      <trkpt lat="51.250902" lon="0.104445">
        <ele>229.4</ele>
        <time>2026-04-24T18:08:27.000Z</time>
      </trkpt>
      <trkpt lat="51.250573" lon="0.10485">
        <ele>230.4</ele>
        <time>2026-04-24T18:08:38.000Z</time>
      </trkpt>
      <trkpt lat="51.250507" lon="0.104892">
        <ele>230.6</ele>
        <time>2026-04-24T18:08:40.000Z</time>
      </trkpt>
      <trkpt lat="51.250451" lon="0.104893">
        <ele>230.8</ele>
        <time>2026-04-24T18:08:41.000Z</time>
      </trkpt>
      <trkpt lat="51.250127" lon="0.105163">
        <ele>232.8</ele>
        <time>2026-04-24T18:08:51.000Z</time>
      </trkpt>
      <trkpt lat="51.250002" lon="0.105199">
        <ele>233.6</ele>
        <time>2026-04-24T18:08:55.000Z</time>
      </trkpt>
      <trkpt lat="51.249921" lon="0.105251">
        <ele>234</ele>
        <time>2026-04-24T18:08:57.000Z</time>
      </trkpt>
      <trkpt lat="51.249731" lon="0.105307">
        <ele>234.8</ele>
        <time>2026-04-24T18:09:02.000Z</time>
      </trkpt>
      <trkpt lat="51.24965" lon="0.105358">
        <ele>235.2</ele>
        <time>2026-04-24T18:09:04.000Z</time>
      </trkpt>
      <trkpt lat="51.249557" lon="0.105382">
        <ele>235.8</ele>
        <time>2026-04-24T18:09:07.000Z</time>
      </trkpt>
      <trkpt lat="51.249416" lon="0.105475">
        <ele>236.2</ele>
        <time>2026-04-24T18:09:11.000Z</time>
      </trkpt>
      <trkpt lat="51.249379" lon="0.105484">
        <ele>236.2</ele>
        <time>2026-04-24T18:09:12.000Z</time>
      </trkpt>
      <trkpt lat="51.249293" lon="0.105485">
        <ele>236.4</ele>
        <time>2026-04-24T18:09:14.000Z</time>
      </trkpt>
      <trkpt lat="51.249185" lon="0.10546">
        <ele>237</ele>
        <time>2026-04-24T18:09:17.000Z</time>
      </trkpt>
      <trkpt lat="51.248904" lon="0.105452">
        <ele>237.2</ele>
        <time>2026-04-24T18:09:25.000Z</time>
      </trkpt>
      <trkpt lat="51.248659" lon="0.10541">
        <ele>236.8</ele>
        <time>2026-04-24T18:09:31.000Z</time>
      </trkpt>
      <trkpt lat="51.248196" lon="0.105419">
        <ele>236.6</ele>
        <time>2026-04-24T18:09:44.000Z</time>
      </trkpt>
      <trkpt lat="51.247692" lon="0.105327">
        <ele>237.6</ele>
        <time>2026-04-24T18:09:57.000Z</time>
      </trkpt>
      <trkpt lat="51.247242" lon="0.105368">
        <ele>237.4</ele>
        <time>2026-04-24T18:10:09.000Z</time>
      </trkpt>
      <trkpt lat="51.24714" lon="0.105339">
        <ele>237.4</ele>
        <time>2026-04-24T18:10:12.000Z</time>
      </trkpt>
      <trkpt lat="51.246977" lon="0.105347">
        <ele>237</ele>
        <time>2026-04-24T18:10:16.000Z</time>
      </trkpt>
      <trkpt lat="51.246758" lon="0.105332">
        <ele>236.6</ele>
        <time>2026-04-24T18:10:22.000Z</time>
      </trkpt>
      <trkpt lat="51.246723" lon="0.105362">
        <ele>236.4</ele>
        <time>2026-04-24T18:10:23.000Z</time>
      </trkpt>
      <trkpt lat="51.246521" lon="0.105332">
        <ele>235.8</ele>
        <time>2026-04-24T18:10:29.000Z</time>
      </trkpt>
      <trkpt lat="51.246364" lon="0.105278">
        <ele>235.4</ele>
        <time>2026-04-24T18:10:33.000Z</time>
      </trkpt>
      <trkpt lat="51.246083" lon="0.10514">
        <ele>235.2</ele>
        <time>2026-04-24T18:10:41.000Z</time>
      </trkpt>
      <trkpt lat="51.245207" lon="0.104577">
        <ele>231.8</ele>
        <time>2026-04-24T18:11:06.000Z</time>
      </trkpt>
      <trkpt lat="51.24504" lon="0.104484">
        <ele>231.2</ele>
        <time>2026-04-24T18:11:11.000Z</time>
      </trkpt>
      <trkpt lat="51.244863" lon="0.104424">
        <ele>229.8</ele>
        <time>2026-04-24T18:11:16.000Z</time>
      </trkpt>
      <trkpt lat="51.244685" lon="0.104403">
        <ele>228.8</ele>
        <time>2026-04-24T18:11:20.000Z</time>
      </trkpt>
      <trkpt lat="51.244496" lon="0.104413">
        <ele>227.6</ele>
        <time>2026-04-24T18:11:25.000Z</time>
      </trkpt>
      <trkpt lat="51.243702" lon="0.104502">
        <ele>222</ele>
        <time>2026-04-24T18:11:47.000Z</time>
      </trkpt>
      <trkpt lat="51.243524" lon="0.104508">
        <ele>220.2</ele>
        <time>2026-04-24T18:11:51.000Z</time>
      </trkpt>
      <trkpt lat="51.242776" lon="0.10442">
        <ele>211.8</ele>
        <time>2026-04-24T18:12:11.000Z</time>
      </trkpt>
      <trkpt lat="51.242261" lon="0.104308">
        <ele>205</ele>
        <time>2026-04-24T18:12:25.000Z</time>
      </trkpt>
      <trkpt lat="51.241972" lon="0.104293">
        <ele>200</ele>
        <time>2026-04-24T18:12:33.000Z</time>
      </trkpt>
      <trkpt lat="51.241885" lon="0.104307">
        <ele>199.2</ele>
        <time>2026-04-24T18:12:35.000Z</time>
      </trkpt>
      <trkpt lat="51.241729" lon="0.104389">
        <ele>195.8</ele>
        <time>2026-04-24T18:12:40.000Z</time>
      </trkpt>
      <trkpt lat="51.241408" lon="0.104682">
        <ele>188.6</ele>
        <time>2026-04-24T18:12:50.000Z</time>
      </trkpt>
      <trkpt lat="51.241052" lon="0.104917">
        <ele>184.4</ele>
        <time>2026-04-24T18:13:00.000Z</time>
      </trkpt>
      <trkpt lat="51.240747" lon="0.105153">
        <ele>180</ele>
        <time>2026-04-24T18:13:09.000Z</time>
      </trkpt>
      <trkpt lat="51.24039" lon="0.105542">
        <ele>176.8</ele>
        <time>2026-04-24T18:13:20.000Z</time>
      </trkpt>
      <trkpt lat="51.240079" lon="0.105828">
        <ele>173.6</ele>
        <time>2026-04-24T18:13:30.000Z</time>
      </trkpt>
      <trkpt lat="51.239937" lon="0.105995">
        <ele>171.8</ele>
        <time>2026-04-24T18:13:35.000Z</time>
      </trkpt>
      <trkpt lat="51.2396" lon="0.106461">
        <ele>168.4</ele>
        <time>2026-04-24T18:13:47.000Z</time>
      </trkpt>
      <trkpt lat="51.239325" lon="0.106911">
        <ele>163.8</ele>
        <time>2026-04-24T18:13:57.000Z</time>
      </trkpt>
      <trkpt lat="51.239059" lon="0.107243">
        <ele>160</ele>
        <time>2026-04-24T18:14:06.000Z</time>
      </trkpt>
      <trkpt lat="51.238977" lon="0.107318">
        <ele>158.8</ele>
        <time>2026-04-24T18:14:09.000Z</time>
      </trkpt>
      <trkpt lat="51.238772" lon="0.107405">
        <ele>155.8</ele>
        <time>2026-04-24T18:14:14.000Z</time>
      </trkpt>
      <trkpt lat="51.238669" lon="0.107426">
        <ele>154.2</ele>
        <time>2026-04-24T18:14:17.000Z</time>
      </trkpt>
      <trkpt lat="51.238349" lon="0.107418">
        <ele>150.2</ele>
        <time>2026-04-24T18:14:26.000Z</time>
      </trkpt>
      <trkpt lat="51.238132" lon="0.107433">
        <ele>147.4</ele>
        <time>2026-04-24T18:14:31.000Z</time>
      </trkpt>
      <trkpt lat="51.237052" lon="0.107666">
        <ele>138.2</ele>
        <time>2026-04-24T18:15:01.000Z</time>
      </trkpt>
      <trkpt lat="51.236592" lon="0.107731">
        <ele>132.2</ele>
        <time>2026-04-24T18:15:13.000Z</time>
      </trkpt>
      <trkpt lat="51.23648" lon="0.107726">
        <ele>131.2</ele>
        <time>2026-04-24T18:15:16.000Z</time>
      </trkpt>
      <trkpt lat="51.236172" lon="0.107609">
        <ele>126.2</ele>
        <time>2026-04-24T18:15:24.000Z</time>
      </trkpt>
      <trkpt lat="51.23607" lon="0.107592">
        <ele>125.2</ele>
        <time>2026-04-24T18:15:27.000Z</time>
      </trkpt>
      <trkpt lat="51.23597" lon="0.107599">
        <ele>123.8</ele>
        <time>2026-04-24T18:15:30.000Z</time>
      </trkpt>
      <trkpt lat="51.235786" lon="0.107685">
        <ele>121</ele>
        <time>2026-04-24T18:15:35.000Z</time>
      </trkpt>
      <trkpt lat="51.23527" lon="0.108032">
        <ele>114</ele>
        <time>2026-04-24T18:15:50.000Z</time>
      </trkpt>
      <trkpt lat="51.234869" lon="0.108225">
        <ele>109.4</ele>
        <time>2026-04-24T18:16:01.000Z</time>
      </trkpt>
      <trkpt lat="51.234264" lon="0.10838">
        <ele>103.6</ele>
        <time>2026-04-24T18:16:17.000Z</time>
      </trkpt>
      <trkpt lat="51.233757" lon="0.108529">
        <ele>101</ele>
        <time>2026-04-24T18:16:31.000Z</time>
      </trkpt>
      <trkpt lat="51.233368" lon="0.108615">
        <ele>98</ele>
        <time>2026-04-24T18:16:42.000Z</time>
      </trkpt>
      <trkpt lat="51.232884" lon="0.108547">
        <ele>94.4</ele>
        <time>2026-04-24T18:16:55.000Z</time>
      </trkpt>
      <trkpt lat="51.232314" lon="0.108426">
        <ele>91.4</ele>
        <time>2026-04-24T18:17:10.000Z</time>
      </trkpt>
      <trkpt lat="51.232067" lon="0.108409">
        <ele>90</ele>
        <time>2026-04-24T18:17:16.000Z</time>
      </trkpt>
      <trkpt lat="51.231803" lon="0.108437">
        <ele>89</ele>
        <time>2026-04-24T18:17:24.000Z</time>
      </trkpt>
      <trkpt lat="51.230952" lon="0.108571">
        <ele>83.4</ele>
        <time>2026-04-24T18:17:46.000Z</time>
      </trkpt>
      <trkpt lat="51.230573" lon="0.108567">
        <ele>81.8</ele>
        <time>2026-04-24T18:17:56.000Z</time>
      </trkpt>
      <trkpt lat="51.228887" lon="0.108254">
        <ele>76</ele>
        <time>2026-04-24T18:18:42.000Z</time>
      </trkpt>
      <trkpt lat="51.228546" lon="0.108172">
        <ele>75</ele>
        <time>2026-04-24T18:18:51.000Z</time>
      </trkpt>
      <trkpt lat="51.228167" lon="0.108043">
        <ele>73.6</ele>
        <time>2026-04-24T18:19:01.000Z</time>
      </trkpt>
      <trkpt lat="51.228042" lon="0.108085">
        <ele>73</ele>
        <time>2026-04-24T18:19:05.000Z</time>
      </trkpt>
      <trkpt lat="51.227958" lon="0.108173">
        <ele>72.8</ele>
        <time>2026-04-24T18:19:07.000Z</time>
      </trkpt>
      <trkpt lat="51.227777" lon="0.108424">
        <ele>71.6</ele>
        <time>2026-04-24T18:19:14.000Z</time>
      </trkpt>
      <trkpt lat="51.227542" lon="0.108631">
        <ele>70</ele>
        <time>2026-04-24T18:19:21.000Z</time>
      </trkpt>
      <trkpt lat="51.227474" lon="0.108681">
        <ele>69.6</ele>
        <time>2026-04-24T18:19:23.000Z</time>
      </trkpt>
      <trkpt lat="51.227227" lon="0.108803">
        <ele>68.8</ele>
        <time>2026-04-24T18:19:30.000Z</time>
      </trkpt>
      <trkpt lat="51.227055" lon="0.108937">
        <ele>68.4</ele>
        <time>2026-04-24T18:19:35.000Z</time>
      </trkpt>
      <trkpt lat="51.22633" lon="0.109429">
        <ele>65</ele>
        <time>2026-04-24T18:19:56.000Z</time>
      </trkpt>
      <trkpt lat="51.226119" lon="0.109545">
        <ele>64.6</ele>
        <time>2026-04-24T18:20:02.000Z</time>
      </trkpt>
      <trkpt lat="51.226047" lon="0.109605">
        <ele>64.2</ele>
        <time>2026-04-24T18:20:04.000Z</time>
      </trkpt>
      <trkpt lat="51.225893" lon="0.109784">
        <ele>63.4</ele>
        <time>2026-04-24T18:20:09.000Z</time>
      </trkpt>
      <trkpt lat="51.225738" lon="0.11002">
        <ele>63.2</ele>
        <time>2026-04-24T18:20:15.000Z</time>
      </trkpt>
      <trkpt lat="51.22547" lon="0.110535">
        <ele>62.8</ele>
        <time>2026-04-24T18:20:26.000Z</time>
      </trkpt>
      <trkpt lat="51.225278" lon="0.110977">
        <ele>65.8</ele>
        <time>2026-04-24T18:20:35.000Z</time>
      </trkpt>
      <trkpt lat="51.225237" lon="0.111033">
        <ele>66.4</ele>
        <time>2026-04-24T18:20:37.000Z</time>
      </trkpt>
      <trkpt lat="51.225104" lon="0.11114">
        <ele>68.4</ele>
        <time>2026-04-24T18:20:41.000Z</time>
      </trkpt>
      <trkpt lat="51.224834" lon="0.111241">
        <ele>70</ele>
        <time>2026-04-24T18:20:48.000Z</time>
      </trkpt>
      <trkpt lat="51.224563" lon="0.111285">
        <ele>71.2</ele>
        <time>2026-04-24T18:20:55.000Z</time>
      </trkpt>
      <trkpt lat="51.224381" lon="0.11135">
        <ele>72</ele>
        <time>2026-04-24T18:21:00.000Z</time>
      </trkpt>
      <trkpt lat="51.224266" lon="0.111364">
        <ele>72.6</ele>
        <time>2026-04-24T18:21:03.000Z</time>
      </trkpt>
      <trkpt lat="51.224166" lon="0.111351">
        <ele>73.6</ele>
        <time>2026-04-24T18:21:06.000Z</time>
      </trkpt>
      <trkpt lat="51.224022" lon="0.111394">
        <ele>74.8</ele>
        <time>2026-04-24T18:21:10.000Z</time>
      </trkpt>
      <trkpt lat="51.223862" lon="0.111386">
        <ele>75.4</ele>
        <time>2026-04-24T18:21:14.000Z</time>
      </trkpt>
      <trkpt lat="51.223478" lon="0.111276">
        <ele>77</ele>
        <time>2026-04-24T18:21:25.000Z</time>
      </trkpt>
      <trkpt lat="51.223055" lon="0.11123">
        <ele>77.8</ele>
        <time>2026-04-24T18:21:36.000Z</time>
      </trkpt>
      <trkpt lat="51.222863" lon="0.111261">
        <ele>78</ele>
        <time>2026-04-24T18:21:41.000Z</time>
      </trkpt>
      <trkpt lat="51.222597" lon="0.111354">
        <ele>77.8</ele>
        <time>2026-04-24T18:21:48.000Z</time>
      </trkpt>
      <trkpt lat="51.221854" lon="0.111737">
        <ele>77</ele>
        <time>2026-04-24T18:22:09.000Z</time>
      </trkpt>
      <trkpt lat="51.221595" lon="0.111895">
        <ele>76.8</ele>
        <time>2026-04-24T18:22:17.000Z</time>
      </trkpt>
      <trkpt lat="51.221307" lon="0.112131">
        <ele>76.6</ele>
        <time>2026-04-24T18:22:25.000Z</time>
      </trkpt>
      <trkpt lat="51.221217" lon="0.112238">
        <ele>76.4</ele>
        <time>2026-04-24T18:22:28.000Z</time>
      </trkpt>
      <trkpt lat="51.220938" lon="0.112505">
        <ele>76.4</ele>
        <time>2026-04-24T18:22:37.000Z</time>
      </trkpt>
      <trkpt lat="51.22057" lon="0.112824">
        <ele>76.2</ele>
        <time>2026-04-24T18:22:48.000Z</time>
      </trkpt>
      <trkpt lat="51.220403" lon="0.112939">
        <ele>76.2</ele>
        <time>2026-04-24T18:22:53.000Z</time>
      </trkpt>
      <trkpt lat="51.22017" lon="0.113081">
        <ele>76</ele>
        <time>2026-04-24T18:23:00.000Z</time>
      </trkpt>
      <trkpt lat="51.219553" lon="0.113385">
        <ele>74.6</ele>
        <time>2026-04-24T18:23:17.000Z</time>
      </trkpt>
      <trkpt lat="51.219094" lon="0.113695">
        <ele>73.8</ele>
        <time>2026-04-24T18:23:30.000Z</time>
      </trkpt>
      <trkpt lat="51.218729" lon="0.113897">
        <ele>73.4</ele>
        <time>2026-04-24T18:23:40.000Z</time>
      </trkpt>
      <trkpt lat="51.218195" lon="0.11426">
        <ele>72</ele>
        <time>2026-04-24T18:23:56.000Z</time>
      </trkpt>
      <trkpt lat="51.217864" lon="0.11453">
        <ele>70.8</ele>
        <time>2026-04-24T18:24:06.000Z</time>
      </trkpt>
      <trkpt lat="51.217519" lon="0.114885">
        <ele>69.8</ele>
        <time>2026-04-24T18:24:17.000Z</time>
      </trkpt>
      <trkpt lat="51.217291" lon="0.115073">
        <ele>68.8</ele>
        <time>2026-04-24T18:24:24.000Z</time>
      </trkpt>
      <trkpt lat="51.21711" lon="0.115157">
        <ele>68.8</ele>
        <time>2026-04-24T18:24:29.000Z</time>
      </trkpt>
      <trkpt lat="51.216904" lon="0.115186">
        <ele>69</ele>
        <time>2026-04-24T18:24:34.000Z</time>
      </trkpt>
      <trkpt lat="51.216536" lon="0.115156">
        <ele>69.4</ele>
        <time>2026-04-24T18:24:44.000Z</time>
      </trkpt>
      <trkpt lat="51.215984" lon="0.115148">
        <ele>69.2</ele>
        <time>2026-04-24T18:24:59.000Z</time>
      </trkpt>
      <trkpt lat="51.215642" lon="0.115104">
        <ele>68.6</ele>
        <time>2026-04-24T18:25:08.000Z</time>
      </trkpt>
      <trkpt lat="51.214996" lon="0.114973">
        <ele>67.8</ele>
        <time>2026-04-24T18:25:25.000Z</time>
      </trkpt>
      <trkpt lat="51.214693" lon="0.114876">
        <ele>67.6</ele>
        <time>2026-04-24T18:25:34.000Z</time>
      </trkpt>
      <trkpt lat="51.214309" lon="0.114713">
        <ele>67.4</ele>
        <time>2026-04-24T18:25:44.000Z</time>
      </trkpt>
      <trkpt lat="51.214212" lon="0.114649">
        <ele>67.4</ele>
        <time>2026-04-24T18:25:47.000Z</time>
      </trkpt>
      <trkpt lat="51.214126" lon="0.114509">
        <ele>67.4</ele>
        <time>2026-04-24T18:25:50.000Z</time>
      </trkpt>
      <trkpt lat="51.214037" lon="0.114167">
        <ele>67.2</ele>
        <time>2026-04-24T18:25:56.000Z</time>
      </trkpt>
      <trkpt lat="51.213951" lon="0.114">
        <ele>67.2</ele>
        <time>2026-04-24T18:26:00.000Z</time>
      </trkpt>
      <trkpt lat="51.21374" lon="0.1138">
        <ele>66.8</ele>
        <time>2026-04-24T18:26:07.000Z</time>
      </trkpt>
      <trkpt lat="51.213438" lon="0.113409">
        <ele>66.2</ele>
        <time>2026-04-24T18:26:17.000Z</time>
      </trkpt>
      <trkpt lat="51.21297" lon="0.1129">
        <ele>65.2</ele>
        <time>2026-04-24T18:26:32.000Z</time>
      </trkpt>
      <trkpt lat="51.212418" lon="0.112472">
        <ele>64.4</ele>
        <time>2026-04-24T18:26:48.000Z</time>
      </trkpt>
      <trkpt lat="51.211731" lon="0.111844">
        <ele>66.2</ele>
        <time>2026-04-24T18:27:10.000Z</time>
      </trkpt>
      <trkpt lat="51.211174" lon="0.111403">
        <ele>66.4</ele>
        <time>2026-04-24T18:27:26.000Z</time>
      </trkpt>
      <trkpt lat="51.210647" lon="0.110945">
        <ele>64.2</ele>
        <time>2026-04-24T18:27:42.000Z</time>
      </trkpt>
      <trkpt lat="51.210031" lon="0.110487">
        <ele>62</ele>
        <time>2026-04-24T18:28:00.000Z</time>
      </trkpt>
      <trkpt lat="51.209834" lon="0.110284">
        <ele>61.4</ele>
        <time>2026-04-24T18:28:07.000Z</time>
      </trkpt>
      <trkpt lat="51.209601" lon="0.110003">
        <ele>59.8</ele>
        <time>2026-04-24T18:28:14.000Z</time>
      </trkpt>
      <trkpt lat="51.209528" lon="0.109952">
        <ele>59.4</ele>
        <time>2026-04-24T18:28:17.000Z</time>
      </trkpt>
      <trkpt lat="51.209475" lon="0.10994">
        <ele>59</ele>
        <time>2026-04-24T18:28:18.000Z</time>
      </trkpt>
      <trkpt lat="51.209381" lon="0.109963">
        <ele>58.6</ele>
        <time>2026-04-24T18:28:21.000Z</time>
      </trkpt>
      <trkpt lat="51.208151" lon="0.110586">
        <ele>56.4</ele>
        <time>2026-04-24T18:28:55.000Z</time>
      </trkpt>
      <trkpt lat="51.208017" lon="0.110617">
        <ele>56.4</ele>
        <time>2026-04-24T18:28:59.000Z</time>
      </trkpt>
      <trkpt lat="51.20756" lon="0.110645">
        <ele>55.8</ele>
        <time>2026-04-24T18:29:11.000Z</time>
      </trkpt>
      <trkpt lat="51.207241" lon="0.110707">
        <ele>55</ele>
        <time>2026-04-24T18:29:19.000Z</time>
      </trkpt>
      <trkpt lat="51.207108" lon="0.110694">
        <ele>54.8</ele>
        <time>2026-04-24T18:29:23.000Z</time>
      </trkpt>
      <trkpt lat="51.206541" lon="0.110531">
        <ele>52.8</ele>
        <time>2026-04-24T18:29:38.000Z</time>
      </trkpt>
      <trkpt lat="51.205803" lon="0.110178">
        <ele>50.4</ele>
        <time>2026-04-24T18:29:59.000Z</time>
      </trkpt>
      <trkpt lat="51.20533" lon="0.110063">
        <ele>48.6</ele>
        <time>2026-04-24T18:30:12.000Z</time>
      </trkpt>
      <trkpt lat="51.204665" lon="0.109843">
        <ele>47</ele>
        <time>2026-04-24T18:30:30.000Z</time>
      </trkpt>
      <trkpt lat="51.204466" lon="0.109757">
        <ele>46.6</ele>
        <time>2026-04-24T18:30:35.000Z</time>
      </trkpt>
      <trkpt lat="51.20424" lon="0.109617">
        <ele>46.4</ele>
        <time>2026-04-24T18:30:42.000Z</time>
      </trkpt>
      <trkpt lat="51.20405" lon="0.109448">
        <ele>46.4</ele>
        <time>2026-04-24T18:30:48.000Z</time>
      </trkpt>
      <trkpt lat="51.203893" lon="0.109265">
        <ele>46.2</ele>
        <time>2026-04-24T18:30:53.000Z</time>
      </trkpt>
      <trkpt lat="51.203738" lon="0.109031">
        <ele>46</ele>
        <time>2026-04-24T18:30:58.000Z</time>
      </trkpt>
      <trkpt lat="51.203667" lon="0.108892">
        <ele>46</ele>
        <time>2026-04-24T18:31:01.000Z</time>
      </trkpt>
      <trkpt lat="51.203584" lon="0.108782">
        <ele>46.2</ele>
        <time>2026-04-24T18:31:04.000Z</time>
      </trkpt>
      <trkpt lat="51.20345" lon="0.108717">
        <ele>46.4</ele>
        <time>2026-04-24T18:31:08.000Z</time>
      </trkpt>
      <trkpt lat="51.203394" lon="0.108671">
        <ele>46.6</ele>
        <time>2026-04-24T18:31:10.000Z</time>
      </trkpt>
      <trkpt lat="51.203107" lon="0.108185">
        <ele>47</ele>
        <time>2026-04-24T18:31:21.000Z</time>
      </trkpt>
      <trkpt lat="51.202555" lon="0.107334">
        <ele>49</ele>
        <time>2026-04-24T18:31:41.000Z</time>
      </trkpt>
      <trkpt lat="51.202386" lon="0.106995">
        <ele>50.2</ele>
        <time>2026-04-24T18:31:49.000Z</time>
      </trkpt>
      <trkpt lat="51.201967" lon="0.10585">
        <ele>50.6</ele>
        <time>2026-04-24T18:32:11.000Z</time>
      </trkpt>
      <trkpt lat="51.201639" lon="0.10512">
        <ele>50.4</ele>
        <time>2026-04-24T18:32:26.000Z</time>
      </trkpt>
      <trkpt lat="51.201153" lon="0.103855">
        <ele>50.2</ele>
        <time>2026-04-24T18:32:51.000Z</time>
      </trkpt>
      <trkpt lat="51.201082" lon="0.10371">
        <ele>50</ele>
        <time>2026-04-24T18:32:54.000Z</time>
      </trkpt>
      <trkpt lat="51.201038" lon="0.103666">
        <ele>49.8</ele>
        <time>2026-04-24T18:32:55.000Z</time>
      </trkpt>
      <trkpt lat="51.200988" lon="0.103649">
        <ele>49.8</ele>
        <time>2026-04-24T18:32:56.000Z</time>
      </trkpt>
      <trkpt lat="51.200896" lon="0.103686">
        <ele>49.8</ele>
        <time>2026-04-24T18:32:59.000Z</time>
      </trkpt>
      <trkpt lat="51.20084" lon="0.103744">
        <ele>49.8</ele>
        <time>2026-04-24T18:33:01.000Z</time>
      </trkpt>
      <trkpt lat="51.200177" lon="0.104628">
        <ele>48.6</ele>
        <time>2026-04-24T18:33:24.000Z</time>
      </trkpt>
      <trkpt lat="51.200046" lon="0.104754">
        <ele>48.6</ele>
        <time>2026-04-24T18:33:28.000Z</time>
      </trkpt>
      <trkpt lat="51.199879" lon="0.104814">
        <ele>48.6</ele>
        <time>2026-04-24T18:33:33.000Z</time>
      </trkpt>
      <trkpt lat="51.199469" lon="0.104732">
        <ele>49.6</ele>
        <time>2026-04-24T18:33:44.000Z</time>
      </trkpt>
      <trkpt lat="51.199349" lon="0.104726">
        <ele>49.8</ele>
        <time>2026-04-24T18:33:47.000Z</time>
      </trkpt>
      <trkpt lat="51.199255" lon="0.104741">
        <ele>50</ele>
        <time>2026-04-24T18:33:49.000Z</time>
      </trkpt>
      <trkpt lat="51.199106" lon="0.104826">
        <ele>50.2</ele>
        <time>2026-04-24T18:33:53.000Z</time>
      </trkpt>
      <trkpt lat="51.198934" lon="0.105026">
        <ele>50.6</ele>
        <time>2026-04-24T18:33:59.000Z</time>
      </trkpt>
      <trkpt lat="51.198605" lon="0.105609">
        <ele>52</ele>
        <time>2026-04-24T18:34:12.000Z</time>
      </trkpt>
      <trkpt lat="51.19848" lon="0.105784">
        <ele>52.4</ele>
        <time>2026-04-24T18:34:17.000Z</time>
      </trkpt>
      <trkpt lat="51.198325" lon="0.10614">
        <ele>52.8</ele>
        <time>2026-04-24T18:34:24.000Z</time>
      </trkpt>
      <trkpt lat="51.198109" lon="0.106438">
        <ele>53</ele>
        <time>2026-04-24T18:34:32.000Z</time>
      </trkpt>
      <trkpt lat="51.198058" lon="0.106561">
        <ele>53</ele>
        <time>2026-04-24T18:34:34.000Z</time>
      </trkpt>
      <trkpt lat="51.198014" lon="0.106749">
        <ele>53</ele>
        <time>2026-04-24T18:34:37.000Z</time>
      </trkpt>
      <trkpt lat="51.19795" lon="0.106893">
        <ele>53.2</ele>
        <time>2026-04-24T18:34:40.000Z</time>
      </trkpt>
      <trkpt lat="51.197847" lon="0.107242">
        <ele>53.2</ele>
        <time>2026-04-24T18:34:47.000Z</time>
      </trkpt>
      <trkpt lat="51.197457" lon="0.108162">
        <ele>52.8</ele>
        <time>2026-04-24T18:35:05.000Z</time>
      </trkpt>
      <trkpt lat="51.197372" lon="0.108479">
        <ele>53</ele>
        <time>2026-04-24T18:35:11.000Z</time>
      </trkpt>
      <trkpt lat="51.197251" lon="0.108823">
        <ele>53.2</ele>
        <time>2026-04-24T18:35:18.000Z</time>
      </trkpt>
      <trkpt lat="51.197051" lon="0.109483">
        <ele>53.8</ele>
        <time>2026-04-24T18:35:30.000Z</time>
      </trkpt>
      <trkpt lat="51.196999" lon="0.109586">
        <ele>53.8</ele>
        <time>2026-04-24T18:35:32.000Z</time>
      </trkpt>
      <trkpt lat="51.196843" lon="0.109739">
        <ele>54</ele>
        <time>2026-04-24T18:35:37.000Z</time>
      </trkpt>
      <trkpt lat="51.196644" lon="0.109988">
        <ele>54</ele>
        <time>2026-04-24T18:35:44.000Z</time>
      </trkpt>
      <trkpt lat="51.196225" lon="0.110649">
        <ele>54.8</ele>
        <time>2026-04-24T18:36:00.000Z</time>
      </trkpt>
      <trkpt lat="51.196001" lon="0.111037">
        <ele>55</ele>
        <time>2026-04-24T18:36:08.000Z</time>
      </trkpt>
      <trkpt lat="51.195948" lon="0.111075">
        <ele>54.8</ele>
        <time>2026-04-24T18:36:10.000Z</time>
      </trkpt>
      <trkpt lat="51.195864" lon="0.111071">
        <ele>54.8</ele>
        <time>2026-04-24T18:36:12.000Z</time>
      </trkpt>
      <trkpt lat="51.195741" lon="0.11096">
        <ele>54.6</ele>
        <time>2026-04-24T18:36:16.000Z</time>
      </trkpt>
      <trkpt lat="51.195563" lon="0.110642">
        <ele>54.4</ele>
        <time>2026-04-24T18:36:23.000Z</time>
      </trkpt>
      <trkpt lat="51.195404" lon="0.110295">
        <ele>54</ele>
        <time>2026-04-24T18:36:30.000Z</time>
      </trkpt>
      <trkpt lat="51.195307" lon="0.110142">
        <ele>53.8</ele>
        <time>2026-04-24T18:36:34.000Z</time>
      </trkpt>
      <trkpt lat="51.1952" lon="0.110038">
        <ele>53.6</ele>
        <time>2026-04-24T18:36:37.000Z</time>
      </trkpt>
      <trkpt lat="51.195049" lon="0.109938">
        <ele>53.6</ele>
        <time>2026-04-24T18:36:42.000Z</time>
      </trkpt>
      <trkpt lat="51.194267" lon="0.10952">
        <ele>51</ele>
        <time>2026-04-24T18:37:04.000Z</time>
      </trkpt>
      <trkpt lat="51.194067" lon="0.10946">
        <ele>50.4</ele>
        <time>2026-04-24T18:37:09.000Z</time>
      </trkpt>
      <trkpt lat="51.193674" lon="0.109376">
        <ele>48.2</ele>
        <time>2026-04-24T18:37:20.000Z</time>
      </trkpt>
      <trkpt lat="51.19337" lon="0.109266">
        <ele>47.2</ele>
        <time>2026-04-24T18:37:28.000Z</time>
      </trkpt>
      <trkpt lat="51.1932" lon="0.109227">
        <ele>46.4</ele>
        <time>2026-04-24T18:37:33.000Z</time>
      </trkpt>
      <trkpt lat="51.193111" lon="0.109229">
        <ele>45.8</ele>
        <time>2026-04-24T18:37:35.000Z</time>
      </trkpt>
      <trkpt lat="51.192798" lon="0.109294">
        <ele>44</ele>
        <time>2026-04-24T18:37:43.000Z</time>
      </trkpt>
      <trkpt lat="51.192532" lon="0.109396">
        <ele>42.8</ele>
        <time>2026-04-24T18:37:51.000Z</time>
      </trkpt>
      <trkpt lat="51.192298" lon="0.109536">
        <ele>41.6</ele>
        <time>2026-04-24T18:37:57.000Z</time>
      </trkpt>
      <trkpt lat="51.191888" lon="0.109846">
        <ele>38.8</ele>
        <time>2026-04-24T18:38:10.000Z</time>
      </trkpt>
      <trkpt lat="51.19137" lon="0.110189">
        <ele>36.8</ele>
        <time>2026-04-24T18:38:24.000Z</time>
      </trkpt>
      <trkpt lat="51.190849" lon="0.110486">
        <ele>34.8</ele>
        <time>2026-04-24T18:38:39.000Z</time>
      </trkpt>
      <trkpt lat="51.190499" lon="0.110646">
        <ele>33.6</ele>
        <time>2026-04-24T18:38:49.000Z</time>
      </trkpt>
      <trkpt lat="51.190171" lon="0.110747">
        <ele>32.6</ele>
        <time>2026-04-24T18:38:58.000Z</time>
      </trkpt>
      <trkpt lat="51.189472" lon="0.110906">
        <ele>31</ele>
        <time>2026-04-24T18:39:17.000Z</time>
      </trkpt>
      <trkpt lat="51.189322" lon="0.110904">
        <ele>30.8</ele>
        <time>2026-04-24T18:39:21.000Z</time>
      </trkpt>
      <trkpt lat="51.189021" lon="0.110857">
        <ele>30.2</ele>
        <time>2026-04-24T18:39:29.000Z</time>
      </trkpt>
      <trkpt lat="51.18888" lon="0.110856">
        <ele>30</ele>
        <time>2026-04-24T18:39:33.000Z</time>
      </trkpt>
      <trkpt lat="51.188709" lon="0.110911">
        <ele>30</ele>
        <time>2026-04-24T18:39:37.000Z</time>
      </trkpt>
      <trkpt lat="51.188394" lon="0.111082">
        <ele>29.6</ele>
        <time>2026-04-24T18:39:46.000Z</time>
      </trkpt>
      <trkpt lat="51.188303" lon="0.111072">
        <ele>29.4</ele>
        <time>2026-04-24T18:39:49.000Z</time>
      </trkpt>
      <trkpt lat="51.188106" lon="0.110962">
        <ele>29.4</ele>
        <time>2026-04-24T18:39:54.000Z</time>
      </trkpt>
      <trkpt lat="51.187991" lon="0.110917">
        <ele>29.2</ele>
        <time>2026-04-24T18:39:57.000Z</time>
      </trkpt>
      <trkpt lat="51.187916" lon="0.110914">
        <ele>29.2</ele>
        <time>2026-04-24T18:39:59.000Z</time>
      </trkpt>
      <trkpt lat="51.187168" lon="0.111021">
        <ele>30.2</ele>
        <time>2026-04-24T18:40:19.000Z</time>
      </trkpt>
      <trkpt lat="51.186875" lon="0.111028">
        <ele>30.6</ele>
        <time>2026-04-24T18:40:27.000Z</time>
      </trkpt>
      <trkpt lat="51.186739" lon="0.110982">
        <ele>30.6</ele>
        <time>2026-04-24T18:40:31.000Z</time>
      </trkpt>
      <trkpt lat="51.186419" lon="0.110764">
        <ele>30.8</ele>
        <time>2026-04-24T18:40:40.000Z</time>
      </trkpt>
      <trkpt lat="51.186335" lon="0.110723">
        <ele>30.8</ele>
        <time>2026-04-24T18:40:43.000Z</time>
      </trkpt>
      <trkpt lat="51.186093" lon="0.110637">
        <ele>30.8</ele>
        <time>2026-04-24T18:40:49.000Z</time>
      </trkpt>
      <trkpt lat="51.185984" lon="0.110618">
        <ele>30.8</ele>
        <time>2026-04-24T18:40:52.000Z</time>
      </trkpt>
      <trkpt lat="51.185818" lon="0.110636">
        <ele>31</ele>
        <time>2026-04-24T18:40:56.000Z</time>
      </trkpt>
      <trkpt lat="51.185418" lon="0.110832">
        <ele>32.6</ele>
        <time>2026-04-24T18:41:08.000Z</time>
      </trkpt>
      <trkpt lat="51.185311" lon="0.110851">
        <ele>33</ele>
        <time>2026-04-24T18:41:11.000Z</time>
      </trkpt>
      <trkpt lat="51.185042" lon="0.110853">
        <ele>34.6</ele>
        <time>2026-04-24T18:41:18.000Z</time>
      </trkpt>
      <trkpt lat="51.184084" lon="0.11074">
        <ele>40.6</ele>
        <time>2026-04-24T18:41:43.000Z</time>
      </trkpt>
      <trkpt lat="51.183942" lon="0.110711">
        <ele>41.4</ele>
        <time>2026-04-24T18:41:47.000Z</time>
      </trkpt>
      <trkpt lat="51.1836" lon="0.110701">
        <ele>42.4</ele>
        <time>2026-04-24T18:41:56.000Z</time>
      </trkpt>
      <trkpt lat="51.183526" lon="0.110653">
        <ele>42.6</ele>
        <time>2026-04-24T18:41:58.000Z</time>
      </trkpt>
      <trkpt lat="51.183498" lon="0.110602">
        <ele>42.8</ele>
        <time>2026-04-24T18:42:00.000Z</time>
      </trkpt>
      <trkpt lat="51.183487" lon="0.110457">
        <ele>42.8</ele>
        <time>2026-04-24T18:42:02.000Z</time>
      </trkpt>
      <trkpt lat="51.18371" lon="0.108765">
        <ele>42</ele>
        <time>2026-04-24T18:42:31.000Z</time>
      </trkpt>
      <trkpt lat="51.183969" lon="0.107084">
        <ele>36.6</ele>
        <time>2026-04-24T18:43:00.000Z</time>
      </trkpt>
      <trkpt lat="51.184001" lon="0.106636">
        <ele>35</ele>
        <time>2026-04-24T18:43:07.000Z</time>
      </trkpt>
      <trkpt lat="51.183973" lon="0.106382">
        <ele>34.4</ele>
        <time>2026-04-24T18:43:12.000Z</time>
      </trkpt>
      <trkpt lat="51.183852" lon="0.105947">
        <ele>32.6</ele>
        <time>2026-04-24T18:43:20.000Z</time>
      </trkpt>
      <trkpt lat="51.183476" lon="0.105068">
        <ele>31.4</ele>
        <time>2026-04-24T18:43:38.000Z</time>
      </trkpt>
      <trkpt lat="51.183363" lon="0.104872">
        <ele>31.4</ele>
        <time>2026-04-24T18:43:42.000Z</time>
      </trkpt>
      <trkpt lat="51.183289" lon="0.10481">
        <ele>31.6</ele>
        <time>2026-04-24T18:43:44.000Z</time>
      </trkpt>
      <trkpt lat="51.183242" lon="0.10482">
        <ele>31.8</ele>
        <time>2026-04-24T18:43:45.000Z</time>
      </trkpt>
      <trkpt lat="51.183204" lon="0.104849">
        <ele>31.8</ele>
        <time>2026-04-24T18:43:47.000Z</time>
      </trkpt>
      <trkpt lat="51.182811" lon="0.105297">
        <ele>32.2</ele>
        <time>2026-04-24T18:44:00.000Z</time>
      </trkpt>
      <trkpt lat="51.182546" lon="0.105553">
        <ele>33.4</ele>
        <time>2026-04-24T18:44:08.000Z</time>
      </trkpt>
      <trkpt lat="51.182251" lon="0.105889">
        <ele>36.2</ele>
        <time>2026-04-24T18:44:17.000Z</time>
      </trkpt>
      <trkpt lat="51.182179" lon="0.105952">
        <ele>36.4</ele>
        <time>2026-04-24T18:44:20.000Z</time>
      </trkpt>
      <trkpt lat="51.182106" lon="0.105984">
        <ele>37</ele>
        <time>2026-04-24T18:44:22.000Z</time>
      </trkpt>
      <trkpt lat="51.182028" lon="0.105982">
        <ele>37.2</ele>
        <time>2026-04-24T18:44:24.000Z</time>
      </trkpt>
      <trkpt lat="51.181903" lon="0.10595">
        <ele>37.6</ele>
        <time>2026-04-24T18:44:27.000Z</time>
      </trkpt>
      <trkpt lat="51.181705" lon="0.105871">
        <ele>38.6</ele>
        <time>2026-04-24T18:44:33.000Z</time>
      </trkpt>
      <trkpt lat="51.181363" lon="0.105659">
        <ele>40.4</ele>
        <time>2026-04-24T18:44:42.000Z</time>
      </trkpt>
      <trkpt lat="51.181151" lon="0.105569">
        <ele>41.8</ele>
        <time>2026-04-24T18:44:48.000Z</time>
      </trkpt>
      <trkpt lat="51.180819" lon="0.105505">
        <ele>43.4</ele>
        <time>2026-04-24T18:44:57.000Z</time>
      </trkpt>
      <trkpt lat="51.180305" lon="0.105495">
        <ele>46.6</ele>
        <time>2026-04-24T18:45:11.000Z</time>
      </trkpt>
      <trkpt lat="51.180002" lon="0.105454">
        <ele>47.6</ele>
        <time>2026-04-24T18:45:19.000Z</time>
      </trkpt>
      <trkpt lat="51.179772" lon="0.105374">
        <ele>48</ele>
        <time>2026-04-24T18:45:25.000Z</time>
      </trkpt>
      <trkpt lat="51.179329" lon="0.105151">
        <ele>48</ele>
        <time>2026-04-24T18:45:38.000Z</time>
      </trkpt>
      <trkpt lat="51.179215" lon="0.105126">
        <ele>48</ele>
        <time>2026-04-24T18:45:41.000Z</time>
      </trkpt>
      <trkpt lat="51.179095" lon="0.105128">
        <ele>47.8</ele>
        <time>2026-04-24T18:45:44.000Z</time>
      </trkpt>
      <trkpt lat="51.178734" lon="0.105175">
        <ele>47.6</ele>
        <time>2026-04-24T18:45:54.000Z</time>
      </trkpt>
      <trkpt lat="51.178556" lon="0.105214">
        <ele>47.4</ele>
        <time>2026-04-24T18:45:58.000Z</time>
      </trkpt>
      <trkpt lat="51.177852" lon="0.10549">
        <ele>47.8</ele>
        <time>2026-04-24T18:46:18.000Z</time>
      </trkpt>
      <trkpt lat="51.177477" lon="0.105594">
        <ele>48.8</ele>
        <time>2026-04-24T18:46:28.000Z</time>
      </trkpt>
      <trkpt lat="51.17732" lon="0.105658">
        <ele>49.4</ele>
        <time>2026-04-24T18:46:32.000Z</time>
      </trkpt>
      <trkpt lat="51.177128" lon="0.105763">
        <ele>50</ele>
        <time>2026-04-24T18:46:38.000Z</time>
      </trkpt>
      <trkpt lat="51.176869" lon="0.105997">
        <ele>51</ele>
        <time>2026-04-24T18:46:46.000Z</time>
      </trkpt>
      <trkpt lat="51.176774" lon="0.106098">
        <ele>52</ele>
        <time>2026-04-24T18:46:49.000Z</time>
      </trkpt>
      <trkpt lat="51.176683" lon="0.106228">
        <ele>52.8</ele>
        <time>2026-04-24T18:46:52.000Z</time>
      </trkpt>
      <trkpt lat="51.176443" lon="0.106421">
        <ele>55.2</ele>
        <time>2026-04-24T18:46:59.000Z</time>
      </trkpt>
      <trkpt lat="51.176282" lon="0.10658">
        <ele>57.2</ele>
        <time>2026-04-24T18:47:04.000Z</time>
      </trkpt>
      <trkpt lat="51.17603" lon="0.106874">
        <ele>59</ele>
        <time>2026-04-24T18:47:12.000Z</time>
      </trkpt>
      <trkpt lat="51.175882" lon="0.106979">
        <ele>60.4</ele>
        <time>2026-04-24T18:47:17.000Z</time>
      </trkpt>
      <trkpt lat="51.175777" lon="0.107142">
        <ele>61.4</ele>
        <time>2026-04-24T18:47:21.000Z</time>
      </trkpt>
      <trkpt lat="51.175633" lon="0.107252">
        <ele>62.6</ele>
        <time>2026-04-24T18:47:25.000Z</time>
      </trkpt>
      <trkpt lat="51.175543" lon="0.107483">
        <ele>64</ele>
        <time>2026-04-24T18:47:30.000Z</time>
      </trkpt>
      <trkpt lat="51.175268" lon="0.107974">
        <ele>66.8</ele>
        <time>2026-04-24T18:47:41.000Z</time>
      </trkpt>
      <trkpt lat="51.175108" lon="0.108185">
        <ele>67.8</ele>
        <time>2026-04-24T18:47:46.000Z</time>
      </trkpt>
      <trkpt lat="51.174913" lon="0.108361">
        <ele>68.8</ele>
        <time>2026-04-24T18:47:52.000Z</time>
      </trkpt>
      <trkpt lat="51.174792" lon="0.108555">
        <ele>70.2</ele>
        <time>2026-04-24T18:47:57.000Z</time>
      </trkpt>
      <trkpt lat="51.17457" lon="0.108769">
        <ele>72.4</ele>
        <time>2026-04-24T18:48:04.000Z</time>
      </trkpt>
      <trkpt lat="51.174203" lon="0.109249">
        <ele>75.6</ele>
        <time>2026-04-24T18:48:16.000Z</time>
      </trkpt>
      <trkpt lat="51.173979" lon="0.109366">
        <ele>77.2</ele>
        <time>2026-04-24T18:48:23.000Z</time>
      </trkpt>
      <trkpt lat="51.173816" lon="0.109508">
        <ele>78.4</ele>
        <time>2026-04-24T18:48:28.000Z</time>
      </trkpt>
      <trkpt lat="51.173438" lon="0.109736">
        <ele>80.8</ele>
        <time>2026-04-24T18:48:38.000Z</time>
      </trkpt>
      <trkpt lat="51.173307" lon="0.109841">
        <ele>81.8</ele>
        <time>2026-04-24T18:48:42.000Z</time>
      </trkpt>
      <trkpt lat="51.173226" lon="0.109987">
        <ele>82.8</ele>
        <time>2026-04-24T18:48:45.000Z</time>
      </trkpt>
      <trkpt lat="51.173044" lon="0.11017">
        <ele>85</ele>
        <time>2026-04-24T18:48:51.000Z</time>
      </trkpt>
      <trkpt lat="51.172811" lon="0.110319">
        <ele>87</ele>
        <time>2026-04-24T18:48:58.000Z</time>
      </trkpt>
      <trkpt lat="51.172609" lon="0.110376">
        <ele>88</ele>
        <time>2026-04-24T18:49:03.000Z</time>
      </trkpt>
      <trkpt lat="51.172331" lon="0.110495">
        <ele>89.8</ele>
        <time>2026-04-24T18:49:11.000Z</time>
      </trkpt>
      <trkpt lat="51.172259" lon="0.110629">
        <ele>90.4</ele>
        <time>2026-04-24T18:49:14.000Z</time>
      </trkpt>
      <trkpt lat="51.172172" lon="0.110663">
        <ele>91</ele>
        <time>2026-04-24T18:49:16.000Z</time>
      </trkpt>
      <trkpt lat="51.171819" lon="0.110721">
        <ele>93</ele>
        <time>2026-04-24T18:49:26.000Z</time>
      </trkpt>
      <trkpt lat="51.171473" lon="0.110827">
        <ele>94.4</ele>
        <time>2026-04-24T18:49:35.000Z</time>
      </trkpt>
      <trkpt lat="51.171329" lon="0.110849">
        <ele>94.8</ele>
        <time>2026-04-24T18:49:39.000Z</time>
      </trkpt>
      <trkpt lat="51.17117" lon="0.110919">
        <ele>95.6</ele>
        <time>2026-04-24T18:49:44.000Z</time>
      </trkpt>
      <trkpt lat="51.170997" lon="0.110942">
        <ele>96</ele>
        <time>2026-04-24T18:49:48.000Z</time>
      </trkpt>
      <trkpt lat="51.170428" lon="0.110896">
        <ele>97.2</ele>
        <time>2026-04-24T18:50:03.000Z</time>
      </trkpt>
      <trkpt lat="51.169665" lon="0.110755">
        <ele>98.2</ele>
        <time>2026-04-24T18:50:24.000Z</time>
      </trkpt>
      <trkpt lat="51.169464" lon="0.110666">
        <ele>98.6</ele>
        <time>2026-04-24T18:50:29.000Z</time>
      </trkpt>
      <trkpt lat="51.169324" lon="0.110583">
        <ele>98.8</ele>
        <time>2026-04-24T18:50:33.000Z</time>
      </trkpt>
      <trkpt lat="51.169083" lon="0.110405">
        <ele>99.6</ele>
        <time>2026-04-24T18:50:41.000Z</time>
      </trkpt>
      <trkpt lat="51.168078" lon="0.109881">
        <ele>103.2</ele>
        <time>2026-04-24T18:51:09.000Z</time>
      </trkpt>
      <trkpt lat="51.16751" lon="0.109309">
        <ele>105.6</ele>
        <time>2026-04-24T18:51:27.000Z</time>
      </trkpt>
      <trkpt lat="51.167297" lon="0.109154">
        <ele>107</ele>
        <time>2026-04-24T18:51:33.000Z</time>
      </trkpt>
      <trkpt lat="51.167199" lon="0.109102">
        <ele>107.4</ele>
        <time>2026-04-24T18:51:36.000Z</time>
      </trkpt>
      <trkpt lat="51.166981" lon="0.109046">
        <ele>109</ele>
        <time>2026-04-24T18:51:42.000Z</time>
      </trkpt>
      <trkpt lat="51.166912" lon="0.109012">
        <ele>109.4</ele>
        <time>2026-04-24T18:51:44.000Z</time>
      </trkpt>
      <trkpt lat="51.166854" lon="0.109014">
        <ele>110</ele>
        <time>2026-04-24T18:51:45.000Z</time>
      </trkpt>
      <trkpt lat="51.166725" lon="0.108977">
        <ele>110.8</ele>
        <time>2026-04-24T18:51:49.000Z</time>
      </trkpt>
      <trkpt lat="51.165547" lon="0.108802">
        <ele>117.4</ele>
        <time>2026-04-24T18:52:20.000Z</time>
      </trkpt>
      <trkpt lat="51.165232" lon="0.108659">
        <ele>119.2</ele>
        <time>2026-04-24T18:52:29.000Z</time>
      </trkpt>
      <trkpt lat="51.165195" lon="0.108652">
        <ele>119.2</ele>
        <time>2026-04-24T18:52:30.000Z</time>
      </trkpt>
      <trkpt lat="51.165115" lon="0.108677">
        <ele>119.2</ele>
        <time>2026-04-24T18:52:32.000Z</time>
      </trkpt>
      <trkpt lat="51.164619" lon="0.109069">
        <ele>120.4</ele>
        <time>2026-04-24T18:52:47.000Z</time>
      </trkpt>
      <trkpt lat="51.164066" lon="0.109586">
        <ele>121.4</ele>
        <time>2026-04-24T18:53:04.000Z</time>
      </trkpt>
      <trkpt lat="51.163457" lon="0.109928">
        <ele>123.6</ele>
        <time>2026-04-24T18:53:21.000Z</time>
      </trkpt>
      <trkpt lat="51.163188" lon="0.110058">
        <ele>124.4</ele>
        <time>2026-04-24T18:53:29.000Z</time>
      </trkpt>
      <trkpt lat="51.162627" lon="0.110429">
        <ele>125.8</ele>
        <time>2026-04-24T18:53:45.000Z</time>
      </trkpt>
      <trkpt lat="51.162276" lon="0.110712">
        <ele>126.2</ele>
        <time>2026-04-24T18:53:55.000Z</time>
      </trkpt>
      <trkpt lat="51.162085" lon="0.110912">
        <ele>126.2</ele>
        <time>2026-04-24T18:54:02.000Z</time>
      </trkpt>
      <trkpt lat="51.161897" lon="0.111141">
        <ele>126</ele>
        <time>2026-04-24T18:54:08.000Z</time>
      </trkpt>
      <trkpt lat="51.161781" lon="0.111354">
        <ele>125.6</ele>
        <time>2026-04-24T18:54:13.000Z</time>
      </trkpt>
      <trkpt lat="51.161633" lon="0.111745">
        <ele>125</ele>
        <time>2026-04-24T18:54:20.000Z</time>
      </trkpt>
      <trkpt lat="51.16129" lon="0.112437">
        <ele>123.6</ele>
        <time>2026-04-24T18:54:35.000Z</time>
      </trkpt>
      <trkpt lat="51.161145" lon="0.112782">
        <ele>122.4</ele>
        <time>2026-04-24T18:54:42.000Z</time>
      </trkpt>
      <trkpt lat="51.161089" lon="0.113038">
        <ele>121.8</ele>
        <time>2026-04-24T18:54:46.000Z</time>
      </trkpt>
      <trkpt lat="51.161078" lon="0.113173">
        <ele>121.2</ele>
        <time>2026-04-24T18:54:49.000Z</time>
      </trkpt>
      <trkpt lat="51.161096" lon="0.113661">
        <ele>119</ele>
        <time>2026-04-24T18:54:57.000Z</time>
      </trkpt>
      <trkpt lat="51.161079" lon="0.113862">
        <ele>117.8</ele>
        <time>2026-04-24T18:55:00.000Z</time>
      </trkpt>
      <trkpt lat="51.160983" lon="0.114115">
        <ele>116.4</ele>
        <time>2026-04-24T18:55:05.000Z</time>
      </trkpt>
      <trkpt lat="51.160916" lon="0.114212">
        <ele>115.6</ele>
        <time>2026-04-24T18:55:08.000Z</time>
      </trkpt>
      <trkpt lat="51.160872" lon="0.114229">
        <ele>115.2</ele>
        <time>2026-04-24T18:55:09.000Z</time>
      </trkpt>
      <trkpt lat="51.160532" lon="0.114126">
        <ele>112.4</ele>
        <time>2026-04-24T18:55:18.000Z</time>
      </trkpt>
      <trkpt lat="51.160223" lon="0.114054">
        <ele>111</ele>
        <time>2026-04-24T18:55:26.000Z</time>
      </trkpt>
      <trkpt lat="51.15938" lon="0.113996">
        <ele>106.4</ele>
        <time>2026-04-24T18:55:49.000Z</time>
      </trkpt>
      <trkpt lat="51.159197" lon="0.113937">
        <ele>105.8</ele>
        <time>2026-04-24T18:55:54.000Z</time>
      </trkpt>
      <trkpt lat="51.158931" lon="0.113806">
        <ele>104.4</ele>
        <time>2026-04-24T18:56:01.000Z</time>
      </trkpt>
      <trkpt lat="51.15867" lon="0.113609">
        <ele>102.6</ele>
        <time>2026-04-24T18:56:09.000Z</time>
      </trkpt>
      <trkpt lat="51.157479" lon="0.112479">
        <ele>96.6</ele>
        <time>2026-04-24T18:56:46.000Z</time>
      </trkpt>
      <trkpt lat="51.157132" lon="0.112205">
        <ele>95.2</ele>
        <time>2026-04-24T18:56:56.000Z</time>
      </trkpt>
      <trkpt lat="51.155933" lon="0.111496">
        <ele>85.8</ele>
        <time>2026-04-24T18:57:31.000Z</time>
      </trkpt>
      <trkpt lat="51.154967" lon="0.110859">
        <ele>77</ele>
        <time>2026-04-24T18:57:59.000Z</time>
      </trkpt>
      <trkpt lat="51.154201" lon="0.110386">
        <ele>67.8</ele>
        <time>2026-04-24T18:58:20.000Z</time>
      </trkpt>
      <trkpt lat="51.153655" lon="0.110106">
        <ele>61.6</ele>
        <time>2026-04-24T18:58:36.000Z</time>
      </trkpt>
      <trkpt lat="51.153489" lon="0.109997">
        <ele>61.4</ele>
        <time>2026-04-24T18:58:41.000Z</time>
      </trkpt>
      <trkpt lat="51.15337" lon="0.109889">
        <ele>62.8</ele>
        <time>2026-04-24T18:58:44.000Z</time>
      </trkpt>
      <trkpt lat="51.153192" lon="0.109627">
        <ele>64.4</ele>
        <time>2026-04-24T18:58:51.000Z</time>
      </trkpt>
      <trkpt lat="51.153096" lon="0.109415">
        <ele>65.4</ele>
        <time>2026-04-24T18:58:55.000Z</time>
      </trkpt>
      <trkpt lat="51.152773" lon="0.108486">
        <ele>71</ele>
        <time>2026-04-24T18:59:13.000Z</time>
      </trkpt>
      <trkpt lat="51.152734" lon="0.10829">
        <ele>72.4</ele>
        <time>2026-04-24T18:59:16.000Z</time>
      </trkpt>
      <trkpt lat="51.152634" lon="0.108062">
        <ele>74.2</ele>
        <time>2026-04-24T18:59:21.000Z</time>
      </trkpt>
      <trkpt lat="51.152484" lon="0.107566">
        <ele>77</ele>
        <time>2026-04-24T18:59:30.000Z</time>
      </trkpt>
      <trkpt lat="51.152383" lon="0.107145">
        <ele>78.6</ele>
        <time>2026-04-24T18:59:38.000Z</time>
      </trkpt>
      <trkpt lat="51.152319" lon="0.106082">
        <ele>81.4</ele>
        <time>2026-04-24T18:59:56.000Z</time>
      </trkpt>
      <trkpt lat="51.152284" lon="0.105825">
        <ele>82.2</ele>
        <time>2026-04-24T19:00:00.000Z</time>
      </trkpt>
      <trkpt lat="51.152232" lon="0.105606">
        <ele>83.2</ele>
        <time>2026-04-24T19:00:04.000Z</time>
      </trkpt>
      <trkpt lat="51.151604" lon="0.104031">
        <ele>88.2</ele>
        <time>2026-04-24T19:00:35.000Z</time>
      </trkpt>
      <trkpt lat="51.151396" lon="0.103571">
        <ele>88.6</ele>
        <time>2026-04-24T19:00:45.000Z</time>
      </trkpt>
      <trkpt lat="51.151021" lon="0.102447">
        <ele>89.6</ele>
        <time>2026-04-24T19:01:06.000Z</time>
      </trkpt>
      <trkpt lat="51.150835" lon="0.101662">
        <ele>90.4</ele>
        <time>2026-04-24T19:01:20.000Z</time>
      </trkpt>
      <trkpt lat="51.150807" lon="0.101591">
        <ele>90.2</ele>
        <time>2026-04-24T19:01:21.000Z</time>
      </trkpt>
      <trkpt lat="51.150764" lon="0.101539">
        <ele>90.2</ele>
        <time>2026-04-24T19:01:23.000Z</time>
      </trkpt>
      <trkpt lat="51.150729" lon="0.101537">
        <ele>90.2</ele>
        <time>2026-04-24T19:01:24.000Z</time>
      </trkpt>
      <trkpt lat="51.150679" lon="0.101552">
        <ele>90</ele>
        <time>2026-04-24T19:01:25.000Z</time>
      </trkpt>
      <trkpt lat="51.150632" lon="0.101589">
        <ele>89.8</ele>
        <time>2026-04-24T19:01:27.000Z</time>
      </trkpt>
      <trkpt lat="51.150018" lon="0.102156">
        <ele>87.8</ele>
        <time>2026-04-24T19:01:45.000Z</time>
      </trkpt>
      <trkpt lat="51.149375" lon="0.102797">
        <ele>85.6</ele>
        <time>2026-04-24T19:02:06.000Z</time>
      </trkpt>
      <trkpt lat="51.149076" lon="0.103161">
        <ele>84.4</ele>
        <time>2026-04-24T19:02:16.000Z</time>
      </trkpt>
      <trkpt lat="51.148546" lon="0.103886">
        <ele>82.4</ele>
        <time>2026-04-24T19:02:34.000Z</time>
      </trkpt>
      <trkpt lat="51.148157" lon="0.104384">
        <ele>80.8</ele>
        <time>2026-04-24T19:02:48.000Z</time>
      </trkpt>
      <trkpt lat="51.147906" lon="0.104669">
        <ele>78.8</ele>
        <time>2026-04-24T19:02:56.000Z</time>
      </trkpt>
      <trkpt lat="51.147813" lon="0.104752">
        <ele>77.4</ele>
        <time>2026-04-24T19:02:59.000Z</time>
      </trkpt>
      <trkpt lat="51.147497" lon="0.104958">
        <ele>75</ele>
        <time>2026-04-24T19:03:08.000Z</time>
      </trkpt>
      <trkpt lat="51.146819" lon="0.105306">
        <ele>70.2</ele>
        <time>2026-04-24T19:03:27.000Z</time>
      </trkpt>
      <trkpt lat="51.146451" lon="0.105524">
        <ele>67.8</ele>
        <time>2026-04-24T19:03:37.000Z</time>
      </trkpt>
      <trkpt lat="51.145662" lon="0.106089">
        <ele>61.6</ele>
        <time>2026-04-24T19:04:00.000Z</time>
      </trkpt>
      <trkpt lat="51.145424" lon="0.106234">
        <ele>60.4</ele>
        <time>2026-04-24T19:04:07.000Z</time>
      </trkpt>
      <trkpt lat="51.144692" lon="0.106558">
        <ele>53.6</ele>
        <time>2026-04-24T19:04:28.000Z</time>
      </trkpt>
      <trkpt lat="51.144028" lon="0.106894">
        <ele>49.4</ele>
        <time>2026-04-24T19:04:46.000Z</time>
      </trkpt>
      <trkpt lat="51.143826" lon="0.106981">
        <ele>48.4</ele>
        <time>2026-04-24T19:04:52.000Z</time>
      </trkpt>
      <trkpt lat="51.142886" lon="0.107477">
        <ele>44.2</ele>
        <time>2026-04-24T19:05:18.000Z</time>
      </trkpt>
      <trkpt lat="51.142667" lon="0.107566">
        <ele>45</ele>
        <time>2026-04-24T19:05:24.000Z</time>
      </trkpt>
      <trkpt lat="51.142513" lon="0.107649">
        <ele>46.2</ele>
        <time>2026-04-24T19:05:29.000Z</time>
      </trkpt>
      <trkpt lat="51.142315" lon="0.107717">
        <ele>48</ele>
        <time>2026-04-24T19:05:34.000Z</time>
      </trkpt>
      <trkpt lat="51.142065" lon="0.107764">
        <ele>49.6</ele>
        <time>2026-04-24T19:05:41.000Z</time>
      </trkpt>
      <trkpt lat="51.141688" lon="0.107791">
        <ele>52.4</ele>
        <time>2026-04-24T19:05:51.000Z</time>
      </trkpt>
      <trkpt lat="51.141297" lon="0.10776">
        <ele>55.4</ele>
        <time>2026-04-24T19:06:01.000Z</time>
      </trkpt>
      <trkpt lat="51.140852" lon="0.107683">
        <ele>59</ele>
        <time>2026-04-24T19:06:13.000Z</time>
      </trkpt>
      <trkpt lat="51.140584" lon="0.10757">
        <ele>61.2</ele>
        <time>2026-04-24T19:06:21.000Z</time>
      </trkpt>
      <trkpt lat="51.140524" lon="0.107569">
        <ele>61.4</ele>
        <time>2026-04-24T19:06:22.000Z</time>
      </trkpt>
      <trkpt lat="51.140444" lon="0.107529">
        <ele>62.6</ele>
        <time>2026-04-24T19:06:24.000Z</time>
      </trkpt>
      <trkpt lat="51.140319" lon="0.107499">
        <ele>63.8</ele>
        <time>2026-04-24T19:06:28.000Z</time>
      </trkpt>
      <trkpt lat="51.140083" lon="0.10748">
        <ele>67</ele>
        <time>2026-04-24T19:06:34.000Z</time>
      </trkpt>
      <trkpt lat="51.139912" lon="0.107442">
        <ele>69.8</ele>
        <time>2026-04-24T19:06:39.000Z</time>
      </trkpt>
      <trkpt lat="51.139875" lon="0.107458">
        <ele>70.2</ele>
        <time>2026-04-24T19:06:40.000Z</time>
      </trkpt>
      <trkpt lat="51.139686" lon="0.107456">
        <ele>72.2</ele>
        <time>2026-04-24T19:06:45.000Z</time>
      </trkpt>
      <trkpt lat="51.139593" lon="0.107483">
        <ele>73.6</ele>
        <time>2026-04-24T19:06:47.000Z</time>
      </trkpt>
      <trkpt lat="51.139502" lon="0.107485">
        <ele>74.4</ele>
        <time>2026-04-24T19:06:50.000Z</time>
      </trkpt>
      <trkpt lat="51.139259" lon="0.107547">
        <ele>76.4</ele>
        <time>2026-04-24T19:06:56.000Z</time>
      </trkpt>
      <trkpt lat="51.139196" lon="0.107588">
        <ele>77.2</ele>
        <time>2026-04-24T19:06:58.000Z</time>
      </trkpt>
      <trkpt lat="51.139059" lon="0.107583">
        <ele>78.2</ele>
        <time>2026-04-24T19:07:02.000Z</time>
      </trkpt>
      <trkpt lat="51.139041" lon="0.10763">
        <ele>78.6</ele>
        <time>2026-04-24T19:07:03.000Z</time>
      </trkpt>
      <trkpt lat="51.138797" lon="0.107755">
        <ele>81.6</ele>
        <time>2026-04-24T19:07:10.000Z</time>
      </trkpt>
      <trkpt lat="51.138634" lon="0.107814">
        <ele>83</ele>
        <time>2026-04-24T19:07:14.000Z</time>
      </trkpt>
      <trkpt lat="51.138465" lon="0.107842">
        <ele>84.6</ele>
        <time>2026-04-24T19:07:19.000Z</time>
      </trkpt>
      <trkpt lat="51.138235" lon="0.107839">
        <ele>86.4</ele>
        <time>2026-04-24T19:07:25.000Z</time>
      </trkpt>
      <trkpt lat="51.138088" lon="0.107813">
        <ele>87</ele>
        <time>2026-04-24T19:07:29.000Z</time>
      </trkpt>
      <trkpt lat="51.137888" lon="0.107746">
        <ele>87.8</ele>
        <time>2026-04-24T19:07:34.000Z</time>
      </trkpt>
      <trkpt lat="51.137666" lon="0.107695">
        <ele>88.2</ele>
        <time>2026-04-24T19:07:40.000Z</time>
      </trkpt>
      <trkpt lat="51.137284" lon="0.107544">
        <ele>89</ele>
        <time>2026-04-24T19:07:51.000Z</time>
      </trkpt>
      <trkpt lat="51.137097" lon="0.10749">
        <ele>89</ele>
        <time>2026-04-24T19:07:56.000Z</time>
      </trkpt>
      <trkpt lat="51.136034" lon="0.107307">
        <ele>91.4</ele>
        <time>2026-04-24T19:08:24.000Z</time>
      </trkpt>
      <trkpt lat="51.134824" lon="0.107055">
        <ele>92.6</ele>
        <time>2026-04-24T19:08:57.000Z</time>
      </trkpt>
      <trkpt lat="51.134265" lon="0.106996">
        <ele>93</ele>
        <time>2026-04-24T19:09:12.000Z</time>
      </trkpt>
      <trkpt lat="51.133599" lon="0.106953">
        <ele>94</ele>
        <time>2026-04-24T19:09:29.000Z</time>
      </trkpt>
      <trkpt lat="51.133401" lon="0.106977">
        <ele>94.6</ele>
        <time>2026-04-24T19:09:35.000Z</time>
      </trkpt>
      <trkpt lat="51.133198" lon="0.107069">
        <ele>95.2</ele>
        <time>2026-04-24T19:09:40.000Z</time>
      </trkpt>
      <trkpt lat="51.133109" lon="0.107132">
        <ele>95.4</ele>
        <time>2026-04-24T19:09:43.000Z</time>
      </trkpt>
      <trkpt lat="51.133002" lon="0.107248">
        <ele>95.8</ele>
        <time>2026-04-24T19:09:46.000Z</time>
      </trkpt>
      <trkpt lat="51.132913" lon="0.107292">
        <ele>96.2</ele>
        <time>2026-04-24T19:09:49.000Z</time>
      </trkpt>
      <trkpt lat="51.132845" lon="0.107403">
        <ele>96.6</ele>
        <time>2026-04-24T19:09:52.000Z</time>
      </trkpt>
      <trkpt lat="51.132757" lon="0.107466">
        <ele>97</ele>
        <time>2026-04-24T19:09:54.000Z</time>
      </trkpt>
      <trkpt lat="51.13264" lon="0.107598">
        <ele>97.2</ele>
        <time>2026-04-24T19:09:58.000Z</time>
      </trkpt>
      <trkpt lat="51.132493" lon="0.107702">
        <ele>98</ele>
        <time>2026-04-24T19:10:02.000Z</time>
      </trkpt>
      <trkpt lat="51.13239" lon="0.107813">
        <ele>98.6</ele>
        <time>2026-04-24T19:10:06.000Z</time>
      </trkpt>
      <trkpt lat="51.132321" lon="0.107859">
        <ele>98.8</ele>
        <time>2026-04-24T19:10:08.000Z</time>
      </trkpt>
      <trkpt lat="51.132182" lon="0.108018">
        <ele>99.6</ele>
        <time>2026-04-24T19:10:12.000Z</time>
      </trkpt>
      <trkpt lat="51.132088" lon="0.108083">
        <ele>100</ele>
        <time>2026-04-24T19:10:15.000Z</time>
      </trkpt>
      <trkpt lat="51.13192" lon="0.108252">
        <ele>100.6</ele>
        <time>2026-04-24T19:10:20.000Z</time>
      </trkpt>
      <trkpt lat="51.131811" lon="0.1084">
        <ele>101.2</ele>
        <time>2026-04-24T19:10:24.000Z</time>
      </trkpt>
      <trkpt lat="51.131617" lon="0.108483">
        <ele>101.8</ele>
        <time>2026-04-24T19:10:29.000Z</time>
      </trkpt>
      <trkpt lat="51.131543" lon="0.108535">
        <ele>102</ele>
        <time>2026-04-24T19:10:32.000Z</time>
      </trkpt>
      <trkpt lat="51.13151" lon="0.108635">
        <ele>102.2</ele>
        <time>2026-04-24T19:10:33.000Z</time>
      </trkpt>
      <trkpt lat="51.131498" lon="0.109166">
        <ele>102</ele>
        <time>2026-04-24T19:10:42.000Z</time>
      </trkpt>
      <trkpt lat="51.131477" lon="0.109273">
        <ele>102</ele>
        <time>2026-04-24T19:10:44.000Z</time>
      </trkpt>
      <trkpt lat="51.131455" lon="0.109303">
        <ele>102</ele>
        <time>2026-04-24T19:10:45.000Z</time>
      </trkpt>
      <trkpt lat="51.131222" lon="0.109307">
        <ele>101.8</ele>
        <time>2026-04-24T19:10:51.000Z</time>
      </trkpt>
      <trkpt lat="51.130992" lon="0.109398">
        <ele>101.8</ele>
        <time>2026-04-24T19:10:58.000Z</time>
      </trkpt>
      <trkpt lat="51.13083" lon="0.1095">
        <ele>101.6</ele>
        <time>2026-04-24T19:11:02.000Z</time>
      </trkpt>
      <trkpt lat="51.130548" lon="0.109764">
        <ele>101</ele>
        <time>2026-04-24T19:11:11.000Z</time>
      </trkpt>
      <trkpt lat="51.130252" lon="0.110138">
        <ele>100.4</ele>
        <time>2026-04-24T19:11:21.000Z</time>
      </trkpt>
      <trkpt lat="51.129866" lon="0.110698">
        <ele>99.2</ele>
        <time>2026-04-24T19:11:35.000Z</time>
      </trkpt>
      <trkpt lat="51.12961" lon="0.111037">
        <ele>98.8</ele>
        <time>2026-04-24T19:11:44.000Z</time>
      </trkpt>
      <trkpt lat="51.129403" lon="0.111351">
        <ele>98.2</ele>
        <time>2026-04-24T19:11:51.000Z</time>
      </trkpt>
      <trkpt lat="51.128818" lon="0.11211">
        <ele>97.2</ele>
        <time>2026-04-24T19:12:12.000Z</time>
      </trkpt>
      <trkpt lat="51.128723" lon="0.112264">
        <ele>97</ele>
        <time>2026-04-24T19:12:15.000Z</time>
      </trkpt>
      <trkpt lat="51.128206" lon="0.112977">
        <ele>96.8</ele>
        <time>2026-04-24T19:12:33.000Z</time>
      </trkpt>
      <trkpt lat="51.127986" lon="0.113249">
        <ele>96.8</ele>
        <time>2026-04-24T19:12:41.000Z</time>
      </trkpt>
      <trkpt lat="51.127637" lon="0.11363">
        <ele>96.6</ele>
        <time>2026-04-24T19:12:52.000Z</time>
      </trkpt>
      <trkpt lat="51.127438" lon="0.113785">
        <ele>96.6</ele>
        <time>2026-04-24T19:12:58.000Z</time>
      </trkpt>
      <trkpt lat="51.126778" lon="0.114198">
        <ele>95</ele>
        <time>2026-04-24T19:13:17.000Z</time>
      </trkpt>
      <trkpt lat="51.126066" lon="0.114608">
        <ele>93</ele>
        <time>2026-04-24T19:13:37.000Z</time>
      </trkpt>
      <trkpt lat="51.125865" lon="0.1147">
        <ele>92</ele>
        <time>2026-04-24T19:13:43.000Z</time>
      </trkpt>
      <trkpt lat="51.125654" lon="0.114769">
        <ele>90.2</ele>
        <time>2026-04-24T19:13:49.000Z</time>
      </trkpt>
      <trkpt lat="51.125444" lon="0.114813">
        <ele>89.2</ele>
        <time>2026-04-24T19:13:54.000Z</time>
      </trkpt>
      <trkpt lat="51.125148" lon="0.114829">
        <ele>87.2</ele>
        <time>2026-04-24T19:14:02.000Z</time>
      </trkpt>
      <trkpt lat="51.124319" lon="0.114701">
        <ele>83.2</ele>
        <time>2026-04-24T19:14:24.000Z</time>
      </trkpt>
      <trkpt lat="51.123672" lon="0.114621">
        <ele>82.6</ele>
        <time>2026-04-24T19:14:42.000Z</time>
      </trkpt>
      <trkpt lat="51.122911" lon="0.114477">
        <ele>84.8</ele>
        <time>2026-04-24T19:15:02.000Z</time>
      </trkpt>
      <trkpt lat="51.121668" lon="0.113911">
        <ele>86.4</ele>
        <time>2026-04-24T19:15:37.000Z</time>
      </trkpt>
      <trkpt lat="51.119728" lon="0.113304">
        <ele>79.4</ele>
        <time>2026-04-24T19:16:29.000Z</time>
      </trkpt>
      <trkpt lat="51.117469" lon="0.112536">
        <ele>65.2</ele>
        <time>2026-04-24T19:17:31.000Z</time>
      </trkpt>
      <trkpt lat="51.117203" lon="0.112464">
        <ele>63.6</ele>
        <time>2026-04-24T19:17:38.000Z</time>
      </trkpt>
      <trkpt lat="51.117066" lon="0.112443">
        <ele>62.8</ele>
        <time>2026-04-24T19:17:42.000Z</time>
      </trkpt>
      <trkpt lat="51.116797" lon="0.112459">
        <ele>60.8</ele>
        <time>2026-04-24T19:17:49.000Z</time>
      </trkpt>
      <trkpt lat="51.116665" lon="0.112494">
        <ele>59.6</ele>
        <time>2026-04-24T19:17:53.000Z</time>
      </trkpt>
      <trkpt lat="51.115039" lon="0.113117">
        <ele>46.2</ele>
        <time>2026-04-24T19:18:37.000Z</time>
      </trkpt>
      <trkpt lat="51.114194" lon="0.113419">
        <ele>43</ele>
        <time>2026-04-24T19:19:00.000Z</time>
      </trkpt>
      <trkpt lat="51.113914" lon="0.113508">
        <ele>42.4</ele>
        <time>2026-04-24T19:19:08.000Z</time>
      </trkpt>
      <trkpt lat="51.11374" lon="0.113533">
        <ele>42.2</ele>
        <time>2026-04-24T19:19:13.000Z</time>
      </trkpt>
      <trkpt lat="51.113602" lon="0.113516">
        <ele>42.8</ele>
        <time>2026-04-24T19:19:16.000Z</time>
      </trkpt>
      <trkpt lat="51.113384" lon="0.113455">
        <ele>44.2</ele>
        <time>2026-04-24T19:19:22.000Z</time>
      </trkpt>
      <trkpt lat="51.113181" lon="0.113362">
        <ele>45.6</ele>
        <time>2026-04-24T19:19:28.000Z</time>
      </trkpt>
      <trkpt lat="51.11278" lon="0.113245">
        <ele>47.2</ele>
        <time>2026-04-24T19:19:39.000Z</time>
      </trkpt>
      <trkpt lat="51.112613" lon="0.113215">
        <ele>47.6</ele>
        <time>2026-04-24T19:19:43.000Z</time>
      </trkpt>
      <trkpt lat="51.112317" lon="0.113208">
        <ele>48.2</ele>
        <time>2026-04-24T19:19:51.000Z</time>
      </trkpt>
      <trkpt lat="51.111947" lon="0.113242">
        <ele>48.8</ele>
        <time>2026-04-24T19:20:01.000Z</time>
      </trkpt>
      <trkpt lat="51.111588" lon="0.113298">
        <ele>48.8</ele>
        <time>2026-04-24T19:20:11.000Z</time>
      </trkpt>
      <trkpt lat="51.111282" lon="0.113303">
        <ele>48.8</ele>
        <time>2026-04-24T19:20:19.000Z</time>
      </trkpt>
      <trkpt lat="51.110943" lon="0.113248">
        <ele>48.6</ele>
        <time>2026-04-24T19:20:28.000Z</time>
      </trkpt>
      <trkpt lat="51.110372" lon="0.113106">
        <ele>46.8</ele>
        <time>2026-04-24T19:20:43.000Z</time>
      </trkpt>
      <trkpt lat="51.110113" lon="0.113087">
        <ele>46</ele>
        <time>2026-04-24T19:20:50.000Z</time>
      </trkpt>
      <trkpt lat="51.109931" lon="0.113092">
        <ele>45.2</ele>
        <time>2026-04-24T19:20:55.000Z</time>
      </trkpt>
      <trkpt lat="51.109359" lon="0.11319">
        <ele>42.8</ele>
        <time>2026-04-24T19:21:11.000Z</time>
      </trkpt>
      <trkpt lat="51.10918" lon="0.113184">
        <ele>42</ele>
        <time>2026-04-24T19:21:15.000Z</time>
      </trkpt>
      <trkpt lat="51.109035" lon="0.113123">
        <ele>41</ele>
        <time>2026-04-24T19:21:19.000Z</time>
      </trkpt>
      <trkpt lat="51.108882" lon="0.113017">
        <ele>40.2</ele>
        <time>2026-04-24T19:21:24.000Z</time>
      </trkpt>
      <trkpt lat="51.108128" lon="0.112255">
        <ele>38.4</ele>
        <time>2026-04-24T19:21:48.000Z</time>
      </trkpt>
      <trkpt lat="51.107882" lon="0.112047">
        <ele>38.2</ele>
        <time>2026-04-24T19:21:55.000Z</time>
      </trkpt>
      <trkpt lat="51.107559" lon="0.111856">
        <ele>38.2</ele>
        <time>2026-04-24T19:22:04.000Z</time>
      </trkpt>
      <trkpt lat="51.107355" lon="0.111763">
        <ele>38.2</ele>
        <time>2026-04-24T19:22:10.000Z</time>
      </trkpt>
      <trkpt lat="51.107167" lon="0.111705">
        <ele>38.4</ele>
        <time>2026-04-24T19:22:15.000Z</time>
      </trkpt>
      <trkpt lat="51.106865" lon="0.111727">
        <ele>38.6</ele>
        <time>2026-04-24T19:22:23.000Z</time>
      </trkpt>
      <trkpt lat="51.106628" lon="0.111765">
        <ele>39</ele>
        <time>2026-04-24T19:22:30.000Z</time>
      </trkpt>
      <trkpt lat="51.106221" lon="0.111789">
        <ele>41.4</ele>
        <time>2026-04-24T19:22:40.000Z</time>
      </trkpt>
      <trkpt lat="51.105885" lon="0.111851">
        <ele>43</ele>
        <time>2026-04-24T19:22:49.000Z</time>
      </trkpt>
      <trkpt lat="51.10571" lon="0.111915">
        <ele>43.4</ele>
        <time>2026-04-24T19:22:54.000Z</time>
      </trkpt>
      <trkpt lat="51.105589" lon="0.111989">
        <ele>43.6</ele>
        <time>2026-04-24T19:22:58.000Z</time>
      </trkpt>
      <trkpt lat="51.105153" lon="0.112413">
        <ele>44.2</ele>
        <time>2026-04-24T19:23:11.000Z</time>
      </trkpt>
      <trkpt lat="51.104984" lon="0.112415">
        <ele>45</ele>
        <time>2026-04-24T19:23:16.000Z</time>
      </trkpt>
      <trkpt lat="51.104802" lon="0.112351">
        <ele>45.6</ele>
        <time>2026-04-24T19:23:21.000Z</time>
      </trkpt>
      <trkpt lat="51.10462" lon="0.11224">
        <ele>47.6</ele>
        <time>2026-04-24T19:23:26.000Z</time>
      </trkpt>
      <trkpt lat="51.104594" lon="0.112266">
        <ele>48</ele>
        <time>2026-04-24T19:23:27.000Z</time>
      </trkpt>
      <trkpt lat="51.104557" lon="0.112255">
        <ele>48.6</ele>
        <time>2026-04-24T19:23:28.000Z</time>
      </trkpt>
      <trkpt lat="51.10446" lon="0.112192">
        <ele>49</ele>
        <time>2026-04-24T19:23:31.000Z</time>
      </trkpt>
      <trkpt lat="51.104154" lon="0.111914">
        <ele>50.6</ele>
        <time>2026-04-24T19:23:40.000Z</time>
      </trkpt>
      <trkpt lat="51.103988" lon="0.111851">
        <ele>51.8</ele>
        <time>2026-04-24T19:23:45.000Z</time>
      </trkpt>
      <trkpt lat="51.103865" lon="0.111624">
        <ele>52.2</ele>
        <time>2026-04-24T19:23:50.000Z</time>
      </trkpt>
      <trkpt lat="51.10378" lon="0.111501">
        <ele>52.4</ele>
        <time>2026-04-24T19:23:53.000Z</time>
      </trkpt>
      <trkpt lat="51.103367" lon="0.111037">
        <ele>52.6</ele>
        <time>2026-04-24T19:24:06.000Z</time>
      </trkpt>
      <trkpt lat="51.103253" lon="0.110949">
        <ele>52.8</ele>
        <time>2026-04-24T19:24:10.000Z</time>
      </trkpt>
      <trkpt lat="51.102873" lon="0.110542">
        <ele>54</ele>
        <time>2026-04-24T19:24:22.000Z</time>
      </trkpt>
      <trkpt lat="51.102437" lon="0.110215">
        <ele>55</ele>
        <time>2026-04-24T19:24:35.000Z</time>
      </trkpt>
      <trkpt lat="51.101731" lon="0.109767">
        <ele>56.6</ele>
        <time>2026-04-24T19:24:55.000Z</time>
      </trkpt>
      <trkpt lat="51.101379" lon="0.109502">
        <ele>57.8</ele>
        <time>2026-04-24T19:25:05.000Z</time>
      </trkpt>
      <trkpt lat="51.100722" lon="0.108952">
        <ele>60.8</ele>
        <time>2026-04-24T19:25:25.000Z</time>
      </trkpt>
      <trkpt lat="51.100512" lon="0.108796">
        <ele>61.2</ele>
        <time>2026-04-24T19:25:31.000Z</time>
      </trkpt>
      <trkpt lat="51.099781" lon="0.108376">
        <ele>61.8</ele>
        <time>2026-04-24T19:25:52.000Z</time>
      </trkpt>
      <trkpt lat="51.099501" lon="0.108239">
        <ele>61.8</ele>
        <time>2026-04-24T19:26:00.000Z</time>
      </trkpt>
      <trkpt lat="51.09922" lon="0.108017">
        <ele>61.4</ele>
        <time>2026-04-24T19:26:08.000Z</time>
      </trkpt>
      <trkpt lat="51.099164" lon="0.107993">
        <ele>61.2</ele>
        <time>2026-04-24T19:26:10.000Z</time>
      </trkpt>
      <trkpt lat="51.099016" lon="0.107994">
        <ele>60.8</ele>
        <time>2026-04-24T19:26:14.000Z</time>
      </trkpt>
      <trkpt lat="51.098236" lon="0.107825">
        <ele>66.2</ele>
        <time>2026-04-24T19:26:35.000Z</time>
      </trkpt>
      <trkpt lat="51.098058" lon="0.10782">
        <ele>67.4</ele>
        <time>2026-04-24T19:26:40.000Z</time>
      </trkpt>
      <trkpt lat="51.097948" lon="0.107798">
        <ele>68.2</ele>
        <time>2026-04-24T19:26:42.000Z</time>
      </trkpt>
      <trkpt lat="51.097828" lon="0.107754">
        <ele>69</ele>
        <time>2026-04-24T19:26:46.000Z</time>
      </trkpt>
      <trkpt lat="51.097197" lon="0.107678">
        <ele>74.4</ele>
        <time>2026-04-24T19:27:03.000Z</time>
      </trkpt>
      <trkpt lat="51.096951" lon="0.107692">
        <ele>77.2</ele>
        <time>2026-04-24T19:27:09.000Z</time>
      </trkpt>
      <trkpt lat="51.096559" lon="0.107635">
        <ele>80.2</ele>
        <time>2026-04-24T19:27:20.000Z</time>
      </trkpt>
      <trkpt lat="51.096479" lon="0.107647">
        <ele>81</ele>
        <time>2026-04-24T19:27:22.000Z</time>
      </trkpt>
      <trkpt lat="51.096105" lon="0.107607">
        <ele>84.6</ele>
        <time>2026-04-24T19:27:32.000Z</time>
      </trkpt>
      <trkpt lat="51.095782" lon="0.107604">
        <ele>87.8</ele>
        <time>2026-04-24T19:27:41.000Z</time>
      </trkpt>
      <trkpt lat="51.095692" lon="0.107585">
        <ele>89.2</ele>
        <time>2026-04-24T19:27:43.000Z</time>
      </trkpt>
      <trkpt lat="51.09545" lon="0.107607">
        <ele>91.2</ele>
        <time>2026-04-24T19:27:49.000Z</time>
      </trkpt>
      <trkpt lat="51.094956" lon="0.107547">
        <ele>93.4</ele>
        <time>2026-04-24T19:28:03.000Z</time>
      </trkpt>
      <trkpt lat="51.094911" lon="0.107556">
        <ele>93.6</ele>
        <time>2026-04-24T19:28:04.000Z</time>
      </trkpt>
      <trkpt lat="51.094537" lon="0.107527">
        <ele>94.8</ele>
        <time>2026-04-24T19:28:14.000Z</time>
      </trkpt>
      <trkpt lat="51.094407" lon="0.107523">
        <ele>94.8</ele>
        <time>2026-04-24T19:28:17.000Z</time>
      </trkpt>
      <trkpt lat="51.094076" lon="0.107582">
        <ele>94.8</ele>
        <time>2026-04-24T19:28:26.000Z</time>
      </trkpt>
      <trkpt lat="51.093867" lon="0.107628">
        <ele>94.6</ele>
        <time>2026-04-24T19:28:32.000Z</time>
      </trkpt>
      <trkpt lat="51.093619" lon="0.107723">
        <ele>93.4</ele>
        <time>2026-04-24T19:28:39.000Z</time>
      </trkpt>
      <trkpt lat="51.093479" lon="0.107813">
        <ele>93.2</ele>
        <time>2026-04-24T19:28:43.000Z</time>
      </trkpt>
      <trkpt lat="51.093025" lon="0.108037">
        <ele>91.2</ele>
        <time>2026-04-24T19:28:55.000Z</time>
      </trkpt>
      <trkpt lat="51.092763" lon="0.108144">
        <ele>90</ele>
        <time>2026-04-24T19:29:03.000Z</time>
      </trkpt>
      <trkpt lat="51.092327" lon="0.108459">
        <ele>86.8</ele>
        <time>2026-04-24T19:29:15.000Z</time>
      </trkpt>
      <trkpt lat="51.091962" lon="0.108645">
        <ele>84.6</ele>
        <time>2026-04-24T19:29:26.000Z</time>
      </trkpt>
      <trkpt lat="51.091701" lon="0.108758">
        <ele>82.8</ele>
        <time>2026-04-24T19:29:33.000Z</time>
      </trkpt>
      <trkpt lat="51.090826" lon="0.109102">
        <ele>74.2</ele>
        <time>2026-04-24T19:29:57.000Z</time>
      </trkpt>
      <trkpt lat="51.090535" lon="0.109184">
        <ele>71</ele>
        <time>2026-04-24T19:30:05.000Z</time>
      </trkpt>
      <trkpt lat="51.09024" lon="0.109224">
        <ele>67.2</ele>
        <time>2026-04-24T19:30:13.000Z</time>
      </trkpt>
      <trkpt lat="51.089426" lon="0.10922">
        <ele>58.6</ele>
        <time>2026-04-24T19:30:34.000Z</time>
      </trkpt>
      <trkpt lat="51.088758" lon="0.109246">
        <ele>52.8</ele>
        <time>2026-04-24T19:30:52.000Z</time>
      </trkpt>
      <trkpt lat="51.088594" lon="0.109259">
        <ele>51.8</ele>
        <time>2026-04-24T19:30:57.000Z</time>
      </trkpt>
      <trkpt lat="51.088355" lon="0.109304">
        <ele>51.4</ele>
        <time>2026-04-24T19:31:03.000Z</time>
      </trkpt>
      <trkpt lat="51.087916" lon="0.109329">
        <ele>54.6</ele>
        <time>2026-04-24T19:31:15.000Z</time>
      </trkpt>
      <trkpt lat="51.087762" lon="0.109361">
        <ele>56.6</ele>
        <time>2026-04-24T19:31:19.000Z</time>
      </trkpt>
      <trkpt lat="51.087564" lon="0.109362">
        <ele>58.8</ele>
        <time>2026-04-24T19:31:24.000Z</time>
      </trkpt>
      <trkpt lat="51.086784" lon="0.109448">
        <ele>64.2</ele>
        <time>2026-04-24T19:31:45.000Z</time>
      </trkpt>
      <trkpt lat="51.086287" lon="0.109482">
        <ele>67.2</ele>
        <time>2026-04-24T19:31:58.000Z</time>
      </trkpt>
      <trkpt lat="51.085797" lon="0.109416">
        <ele>69.8</ele>
        <time>2026-04-24T19:32:11.000Z</time>
      </trkpt>
      <trkpt lat="51.085688" lon="0.109375">
        <ele>70.8</ele>
        <time>2026-04-24T19:32:14.000Z</time>
      </trkpt>
      <trkpt lat="51.085385" lon="0.109352">
        <ele>73.2</ele>
        <time>2026-04-24T19:32:23.000Z</time>
      </trkpt>
      <trkpt lat="51.085113" lon="0.109292">
        <ele>74.6</ele>
        <time>2026-04-24T19:32:30.000Z</time>
      </trkpt>
      <trkpt lat="51.084433" lon="0.109183">
        <ele>77.4</ele>
        <time>2026-04-24T19:32:48.000Z</time>
      </trkpt>
      <trkpt lat="51.084252" lon="0.109168">
        <ele>78.8</ele>
        <time>2026-04-24T19:32:53.000Z</time>
      </trkpt>
      <trkpt lat="51.083864" lon="0.109054">
        <ele>80.4</ele>
        <time>2026-04-24T19:33:04.000Z</time>
      </trkpt>
      <trkpt lat="51.083631" lon="0.108932">
        <ele>81.4</ele>
        <time>2026-04-24T19:33:10.000Z</time>
      </trkpt>
      <trkpt lat="51.083459" lon="0.108786">
        <ele>82.6</ele>
        <time>2026-04-24T19:33:15.000Z</time>
      </trkpt>
      <trkpt lat="51.082813" lon="0.108095">
        <ele>85.2</ele>
        <time>2026-04-24T19:33:36.000Z</time>
      </trkpt>
      <trkpt lat="51.081865" lon="0.107171">
        <ele>87.6</ele>
        <time>2026-04-24T19:34:06.000Z</time>
      </trkpt>
      <trkpt lat="51.081641" lon="0.106882">
        <ele>87.8</ele>
        <time>2026-04-24T19:34:13.000Z</time>
      </trkpt>
      <trkpt lat="51.081503" lon="0.106671">
        <ele>88.2</ele>
        <time>2026-04-24T19:34:19.000Z</time>
      </trkpt>
      <trkpt lat="51.081246" lon="0.106191">
        <ele>89.2</ele>
        <time>2026-04-24T19:34:29.000Z</time>
      </trkpt>
      <trkpt lat="51.080968" lon="0.105557">
        <ele>91.2</ele>
        <time>2026-04-24T19:34:42.000Z</time>
      </trkpt>
      <trkpt lat="51.080731" lon="0.105147">
        <ele>92.6</ele>
        <time>2026-04-24T19:34:51.000Z</time>
      </trkpt>
      <trkpt lat="51.08042" lon="0.104715">
        <ele>93.6</ele>
        <time>2026-04-24T19:35:02.000Z</time>
      </trkpt>
      <trkpt lat="51.080175" lon="0.104277">
        <ele>95.4</ele>
        <time>2026-04-24T19:35:12.000Z</time>
      </trkpt>
      <trkpt lat="51.0796" lon="0.103423">
        <ele>97.6</ele>
        <time>2026-04-24T19:35:33.000Z</time>
      </trkpt>
      <trkpt lat="51.079479" lon="0.10321">
        <ele>98.2</ele>
        <time>2026-04-24T19:35:38.000Z</time>
      </trkpt>
      <trkpt lat="51.079225" lon="0.102858">
        <ele>99</ele>
        <time>2026-04-24T19:35:47.000Z</time>
      </trkpt>
      <trkpt lat="51.078801" lon="0.10218">
        <ele>102</ele>
        <time>2026-04-24T19:36:03.000Z</time>
      </trkpt>
      <trkpt lat="51.078626" lon="0.101962">
        <ele>103.2</ele>
        <time>2026-04-24T19:36:09.000Z</time>
      </trkpt>
      <trkpt lat="51.078571" lon="0.101812">
        <ele>104.2</ele>
        <time>2026-04-24T19:36:12.000Z</time>
      </trkpt>
      <trkpt lat="51.078532" lon="0.101776">
        <ele>104.4</ele>
        <time>2026-04-24T19:36:13.000Z</time>
      </trkpt>
      <trkpt lat="51.078232" lon="0.10126">
        <ele>108</ele>
        <time>2026-04-24T19:36:25.000Z</time>
      </trkpt>
      <trkpt lat="51.0782" lon="0.101156">
        <ele>108.8</ele>
        <time>2026-04-24T19:36:27.000Z</time>
      </trkpt>
      <trkpt lat="51.07811" lon="0.100972">
        <ele>109.8</ele>
        <time>2026-04-24T19:36:31.000Z</time>
      </trkpt>
      <trkpt lat="51.078013" lon="0.1008">
        <ele>110.6</ele>
        <time>2026-04-24T19:36:35.000Z</time>
      </trkpt>
      <trkpt lat="51.077892" lon="0.100653">
        <ele>111.2</ele>
        <time>2026-04-24T19:36:39.000Z</time>
      </trkpt>
      <trkpt lat="51.077703" lon="0.100303">
        <ele>113</ele>
        <time>2026-04-24T19:36:46.000Z</time>
      </trkpt>
      <trkpt lat="51.077425" lon="0.099905">
        <ele>114.4</ele>
        <time>2026-04-24T19:36:56.000Z</time>
      </trkpt>
      <trkpt lat="51.077239" lon="0.099595">
        <ele>115.2</ele>
        <time>2026-04-24T19:37:04.000Z</time>
      </trkpt>
      <trkpt lat="51.076975" lon="0.099269">
        <ele>116.6</ele>
        <time>2026-04-24T19:37:13.000Z</time>
      </trkpt>
      <trkpt lat="51.076674" lon="0.09895">
        <ele>119</ele>
        <time>2026-04-24T19:37:22.000Z</time>
      </trkpt>
      <trkpt lat="51.076324" lon="0.098681">
        <ele>121.8</ele>
        <time>2026-04-24T19:37:33.000Z</time>
      </trkpt>
      <trkpt lat="51.076248" lon="0.09863">
        <ele>122.6</ele>
        <time>2026-04-24T19:37:35.000Z</time>
      </trkpt>
      <trkpt lat="51.076108" lon="0.09857">
        <ele>124.2</ele>
        <time>2026-04-24T19:37:39.000Z</time>
      </trkpt>
      <trkpt lat="51.075676" lon="0.098426">
        <ele>128.2</ele>
        <time>2026-04-24T19:37:50.000Z</time>
      </trkpt>
      <trkpt lat="51.075555" lon="0.098418">
        <ele>128.8</ele>
        <time>2026-04-24T19:37:54.000Z</time>
      </trkpt>
      <trkpt lat="51.075425" lon="0.098386">
        <ele>130.2</ele>
        <time>2026-04-24T19:37:57.000Z</time>
      </trkpt>
      <trkpt lat="51.075344" lon="0.098347">
        <ele>131</ele>
        <time>2026-04-24T19:37:59.000Z</time>
      </trkpt>
      <trkpt lat="51.07515" lon="0.098312">
        <ele>133.2</ele>
        <time>2026-04-24T19:38:05.000Z</time>
      </trkpt>
      <trkpt lat="51.075064" lon="0.098319">
        <ele>134</ele>
        <time>2026-04-24T19:38:07.000Z</time>
      </trkpt>
      <trkpt lat="51.074737" lon="0.09824">
        <ele>137.2</ele>
        <time>2026-04-24T19:38:16.000Z</time>
      </trkpt>
      <trkpt lat="51.074643" lon="0.098238">
        <ele>138.4</ele>
        <time>2026-04-24T19:38:18.000Z</time>
      </trkpt>
      <trkpt lat="51.074499" lon="0.098202">
        <ele>139.6</ele>
        <time>2026-04-24T19:38:22.000Z</time>
      </trkpt>
      <trkpt lat="51.074347" lon="0.098194">
        <ele>140.8</ele>
        <time>2026-04-24T19:38:26.000Z</time>
      </trkpt>
      <trkpt lat="51.07389" lon="0.098129">
        <ele>143.4</ele>
        <time>2026-04-24T19:38:38.000Z</time>
      </trkpt>
      <trkpt lat="51.073342" lon="0.098087">
        <ele>146.4</ele>
        <time>2026-04-24T19:38:53.000Z</time>
      </trkpt>
      <trkpt lat="51.073004" lon="0.098102">
        <ele>148.2</ele>
        <time>2026-04-24T19:39:02.000Z</time>
      </trkpt>
      <trkpt lat="51.072789" lon="0.098082">
        <ele>150.4</ele>
        <time>2026-04-24T19:39:08.000Z</time>
      </trkpt>
      <trkpt lat="51.07267" lon="0.098104">
        <ele>151</ele>
        <time>2026-04-24T19:39:11.000Z</time>
      </trkpt>
      <trkpt lat="51.072528" lon="0.098097">
        <ele>152</ele>
        <time>2026-04-24T19:39:15.000Z</time>
      </trkpt>
      <trkpt lat="51.07233" lon="0.098148">
        <ele>153.2</ele>
        <time>2026-04-24T19:39:20.000Z</time>
      </trkpt>
      <trkpt lat="51.072216" lon="0.098144">
        <ele>154.2</ele>
        <time>2026-04-24T19:39:23.000Z</time>
      </trkpt>
      <trkpt lat="51.07189" lon="0.098232">
        <ele>156.8</ele>
        <time>2026-04-24T19:39:32.000Z</time>
      </trkpt>
      <trkpt lat="51.071778" lon="0.098245">
        <ele>157.6</ele>
        <time>2026-04-24T19:39:35.000Z</time>
      </trkpt>
      <trkpt lat="51.071678" lon="0.098293">
        <ele>158.4</ele>
        <time>2026-04-24T19:39:38.000Z</time>
      </trkpt>
      <trkpt lat="51.071466" lon="0.09835">
        <ele>161.4</ele>
        <time>2026-04-24T19:39:44.000Z</time>
      </trkpt>
      <trkpt lat="51.071394" lon="0.098351">
        <ele>161.8</ele>
        <time>2026-04-24T19:39:46.000Z</time>
      </trkpt>
      <trkpt lat="51.071309" lon="0.098375">
        <ele>162.6</ele>
        <time>2026-04-24T19:39:48.000Z</time>
      </trkpt>
      <trkpt lat="51.071181" lon="0.098351">
        <ele>163.8</ele>
        <time>2026-04-24T19:39:51.000Z</time>
      </trkpt>
      <trkpt lat="51.071055" lon="0.098394">
        <ele>164.8</ele>
        <time>2026-04-24T19:39:55.000Z</time>
      </trkpt>
      <trkpt lat="51.070925" lon="0.098388">
        <ele>166</ele>
        <time>2026-04-24T19:39:58.000Z</time>
      </trkpt>
      <trkpt lat="51.07078" lon="0.098406">
        <ele>167</ele>
        <time>2026-04-24T19:40:02.000Z</time>
      </trkpt>
      <trkpt lat="51.070449" lon="0.09836">
        <ele>169.8</ele>
        <time>2026-04-24T19:40:11.000Z</time>
      </trkpt>
      <trkpt lat="51.07008" lon="0.098228">
        <ele>171.4</ele>
        <time>2026-04-24T19:40:21.000Z</time>
      </trkpt>
      <trkpt lat="51.069981" lon="0.098207">
        <ele>171.6</ele>
        <time>2026-04-24T19:40:24.000Z</time>
      </trkpt>
      <trkpt lat="51.069706" lon="0.09809">
        <ele>172</ele>
        <time>2026-04-24T19:40:31.000Z</time>
      </trkpt>
      <trkpt lat="51.069312" lon="0.097971">
        <ele>173.8</ele>
        <time>2026-04-24T19:40:42.000Z</time>
      </trkpt>
      <trkpt lat="51.06893" lon="0.097828">
        <ele>176</ele>
        <time>2026-04-24T19:40:53.000Z</time>
      </trkpt>
      <trkpt lat="51.068712" lon="0.097707">
        <ele>177.6</ele>
        <time>2026-04-24T19:40:59.000Z</time>
      </trkpt>
      <trkpt lat="51.068604" lon="0.097594">
        <ele>179</ele>
        <time>2026-04-24T19:41:02.000Z</time>
      </trkpt>
      <trkpt lat="51.068469" lon="0.097491">
        <ele>180.2</ele>
        <time>2026-04-24T19:41:06.000Z</time>
      </trkpt>
      <trkpt lat="51.068427" lon="0.097489">
        <ele>180.8</ele>
        <time>2026-04-24T19:41:07.000Z</time>
      </trkpt>
      <trkpt lat="51.068403" lon="0.097467">
        <ele>180.8</ele>
        <time>2026-04-24T19:41:08.000Z</time>
      </trkpt>
      <trkpt lat="51.066587" lon="0.095447">
        <ele>185.8</ele>
        <time>2026-04-24T19:42:07.000Z</time>
      </trkpt>
      <trkpt lat="51.06601" lon="0.094855">
        <ele>186.4</ele>
        <time>2026-04-24T19:42:25.000Z</time>
      </trkpt>
      <trkpt lat="51.06524" lon="0.094168">
        <ele>188.2</ele>
        <time>2026-04-24T19:42:49.000Z</time>
      </trkpt>
      <trkpt lat="51.064824" lon="0.093814">
        <ele>189.4</ele>
        <time>2026-04-24T19:43:02.000Z</time>
      </trkpt>
      <trkpt lat="51.064491" lon="0.093575">
        <ele>190</ele>
        <time>2026-04-24T19:43:11.000Z</time>
      </trkpt>
      <trkpt lat="51.064153" lon="0.093417">
        <ele>190.4</ele>
        <time>2026-04-24T19:43:21.000Z</time>
      </trkpt>
      <trkpt lat="51.063803" lon="0.093325">
        <ele>192</ele>
        <time>2026-04-24T19:43:30.000Z</time>
      </trkpt>
      <trkpt lat="51.063411" lon="0.093287">
        <ele>193</ele>
        <time>2026-04-24T19:43:41.000Z</time>
      </trkpt>
      <trkpt lat="51.06317" lon="0.093312">
        <ele>193.2</ele>
        <time>2026-04-24T19:43:47.000Z</time>
      </trkpt>
      <trkpt lat="51.062958" lon="0.093379">
        <ele>194</ele>
        <time>2026-04-24T19:43:53.000Z</time>
      </trkpt>
      <trkpt lat="51.062497" lon="0.09356">
        <ele>195.8</ele>
        <time>2026-04-24T19:44:06.000Z</time>
      </trkpt>
      <trkpt lat="51.060921" lon="0.094281">
        <ele>207</ele>
        <time>2026-04-24T19:44:49.000Z</time>
      </trkpt>
      <trkpt lat="51.058602" lon="0.095276">
        <ele>207</ele>
        <time>2026-04-24T19:45:54.000Z</time>
      </trkpt>
      <trkpt lat="51.058403" lon="0.095347">
        <ele>206.8</ele>
        <time>2026-04-24T19:45:59.000Z</time>
      </trkpt>
      <trkpt lat="51.058061" lon="0.095513">
        <ele>206.6</ele>
        <time>2026-04-24T19:46:09.000Z</time>
      </trkpt>
      <trkpt lat="51.057417" lon="0.09579">
        <ele>206.4</ele>
        <time>2026-04-24T19:46:26.000Z</time>
      </trkpt>
      <trkpt lat="51.056483" lon="0.096165">
        <ele>205.4</ele>
        <time>2026-04-24T19:46:52.000Z</time>
      </trkpt>
      <trkpt lat="51.054995" lon="0.096825">
        <ele>204.2</ele>
        <time>2026-04-24T19:47:33.000Z</time>
      </trkpt>
      <trkpt lat="51.05479" lon="0.096959">
        <ele>204.2</ele>
        <time>2026-04-24T19:47:39.000Z</time>
      </trkpt>
      <trkpt lat="51.054665" lon="0.097068">
        <ele>204</ele>
        <time>2026-04-24T19:47:43.000Z</time>
      </trkpt>
      <trkpt lat="51.053689" lon="0.098078">
        <ele>203.4</ele>
        <time>2026-04-24T19:48:14.000Z</time>
      </trkpt>
      <trkpt lat="51.052878" lon="0.098954">
        <ele>203.4</ele>
        <time>2026-04-24T19:48:40.000Z</time>
      </trkpt>
      <trkpt lat="51.05209" lon="0.099774">
        <ele>203.4</ele>
        <time>2026-04-24T19:49:05.000Z</time>
      </trkpt>
      <trkpt lat="51.051716" lon="0.10012">
        <ele>203.6</ele>
        <time>2026-04-24T19:49:17.000Z</time>
      </trkpt>
      <trkpt lat="51.051593" lon="0.100195">
        <ele>203.4</ele>
        <time>2026-04-24T19:49:20.000Z</time>
      </trkpt>
      <trkpt lat="51.051466" lon="0.100234">
        <ele>203.2</ele>
        <time>2026-04-24T19:49:24.000Z</time>
      </trkpt>
      <trkpt lat="51.051218" lon="0.10027">
        <ele>202.6</ele>
        <time>2026-04-24T19:49:31.000Z</time>
      </trkpt>
      <trkpt lat="51.045826" lon="0.100836">
        <ele>192</ele>
        <time>2026-04-24T19:51:55.000Z</time>
      </trkpt>
      <trkpt lat="51.045299" lon="0.100873">
        <ele>190.4</ele>
        <time>2026-04-24T19:52:09.000Z</time>
      </trkpt>
      <trkpt lat="51.044961" lon="0.100873">
        <ele>190</ele>
        <time>2026-04-24T19:52:18.000Z</time>
      </trkpt>
      <trkpt lat="51.044572" lon="0.100831">
        <ele>189</ele>
        <time>2026-04-24T19:52:28.000Z</time>
      </trkpt>
      <trkpt lat="51.044427" lon="0.100798">
        <ele>188.6</ele>
        <time>2026-04-24T19:52:32.000Z</time>
      </trkpt>
      <trkpt lat="51.044214" lon="0.100733">
        <ele>188.2</ele>
        <time>2026-04-24T19:52:38.000Z</time>
      </trkpt>
      <trkpt lat="51.043998" lon="0.100634">
        <ele>187.8</ele>
        <time>2026-04-24T19:52:44.000Z</time>
      </trkpt>
      <trkpt lat="51.043785" lon="0.100506">
        <ele>187.4</ele>
        <time>2026-04-24T19:52:50.000Z</time>
      </trkpt>
      <trkpt lat="51.04351" lon="0.100302">
        <ele>187</ele>
        <time>2026-04-24T19:52:58.000Z</time>
      </trkpt>
      <trkpt lat="51.042856" lon="0.099702">
        <ele>186.6</ele>
        <time>2026-04-24T19:53:18.000Z</time>
      </trkpt>
      <trkpt lat="51.041986" lon="0.098814">
        <ele>186.2</ele>
        <time>2026-04-24T19:53:46.000Z</time>
      </trkpt>
      <trkpt lat="51.041587" lon="0.098369">
        <ele>185.8</ele>
        <time>2026-04-24T19:53:59.000Z</time>
      </trkpt>
      <trkpt lat="51.041262" lon="0.097971">
        <ele>185.8</ele>
        <time>2026-04-24T19:54:10.000Z</time>
      </trkpt>
      <trkpt lat="51.040996" lon="0.097614">
        <ele>185.8</ele>
        <time>2026-04-24T19:54:19.000Z</time>
      </trkpt>
      <trkpt lat="51.039907" lon="0.096029">
        <ele>182.6</ele>
        <time>2026-04-24T19:54:59.000Z</time>
      </trkpt>
      <trkpt lat="51.039215" lon="0.095103">
        <ele>180.8</ele>
        <time>2026-04-24T19:55:23.000Z</time>
      </trkpt>
      <trkpt lat="51.038792" lon="0.094589">
        <ele>180.4</ele>
        <time>2026-04-24T19:55:37.000Z</time>
      </trkpt>
      <trkpt lat="51.038131" lon="0.093864">
        <ele>178</ele>
        <time>2026-04-24T19:55:58.000Z</time>
      </trkpt>
      <trkpt lat="51.037181" lon="0.092933">
        <ele>171.4</ele>
        <time>2026-04-24T19:56:28.000Z</time>
      </trkpt>
      <trkpt lat="51.036792" lon="0.092601">
        <ele>169.8</ele>
        <time>2026-04-24T19:56:40.000Z</time>
      </trkpt>
      <trkpt lat="51.03662" lon="0.092504">
        <ele>168.2</ele>
        <time>2026-04-24T19:56:45.000Z</time>
      </trkpt>
      <trkpt lat="51.036421" lon="0.092454">
        <ele>167.6</ele>
        <time>2026-04-24T19:56:50.000Z</time>
      </trkpt>
      <trkpt lat="51.036115" lon="0.092428">
        <ele>166.6</ele>
        <time>2026-04-24T19:56:58.000Z</time>
      </trkpt>
      <trkpt lat="51.034599" lon="0.09245">
        <ele>159</ele>
        <time>2026-04-24T19:57:39.000Z</time>
      </trkpt>
      <trkpt lat="51.034132" lon="0.092434">
        <ele>156.4</ele>
        <time>2026-04-24T19:57:51.000Z</time>
      </trkpt>
      <trkpt lat="51.032688" lon="0.092052">
        <ele>146.8</ele>
        <time>2026-04-24T19:58:30.000Z</time>
      </trkpt>
      <trkpt lat="51.032364" lon="0.091923">
        <ele>144.6</ele>
        <time>2026-04-24T19:58:39.000Z</time>
      </trkpt>
      <trkpt lat="51.03216" lon="0.091804">
        <ele>143.6</ele>
        <time>2026-04-24T19:58:45.000Z</time>
      </trkpt>
      <trkpt lat="51.031879" lon="0.091578">
        <ele>141.6</ele>
        <time>2026-04-24T19:58:54.000Z</time>
      </trkpt>
      <trkpt lat="51.031316" lon="0.091049">
        <ele>138.2</ele>
        <time>2026-04-24T19:59:11.000Z</time>
      </trkpt>
      <trkpt lat="51.031156" lon="0.09093">
        <ele>137.8</ele>
        <time>2026-04-24T19:59:16.000Z</time>
      </trkpt>
      <trkpt lat="51.031009" lon="0.090853">
        <ele>137.2</ele>
        <time>2026-04-24T19:59:20.000Z</time>
      </trkpt>
      <trkpt lat="51.030864" lon="0.09081">
        <ele>137</ele>
        <time>2026-04-24T19:59:24.000Z</time>
      </trkpt>
      <trkpt lat="51.030721" lon="0.090789">
        <ele>136.8</ele>
        <time>2026-04-24T19:59:28.000Z</time>
      </trkpt>
      <trkpt lat="51.029668" lon="0.090773">
        <ele>135</ele>
        <time>2026-04-24T19:59:56.000Z</time>
      </trkpt>
      <trkpt lat="51.029492" lon="0.090751">
        <ele>134.6</ele>
        <time>2026-04-24T20:00:00.000Z</time>
      </trkpt>
      <trkpt lat="51.029306" lon="0.090702">
        <ele>134.2</ele>
        <time>2026-04-24T20:00:05.000Z</time>
      </trkpt>
      <trkpt lat="51.027757" lon="0.090114">
        <ele>125.6</ele>
        <time>2026-04-24T20:00:48.000Z</time>
      </trkpt>
      <trkpt lat="51.027466" lon="0.090019">
        <ele>125</ele>
        <time>2026-04-24T20:00:56.000Z</time>
      </trkpt>
      <trkpt lat="51.025549" lon="0.08931">
        <ele>116</ele>
        <time>2026-04-24T20:01:48.000Z</time>
      </trkpt>
      <trkpt lat="51.024821" lon="0.089012">
        <ele>114.2</ele>
        <time>2026-04-24T20:02:08.000Z</time>
      </trkpt>
      <trkpt lat="51.024239" lon="0.08874">
        <ele>113.2</ele>
        <time>2026-04-24T20:02:25.000Z</time>
      </trkpt>
      <trkpt lat="51.023927" lon="0.088614">
        <ele>112</ele>
        <time>2026-04-24T20:02:33.000Z</time>
      </trkpt>
      <trkpt lat="51.023591" lon="0.088505">
        <ele>110.8</ele>
        <time>2026-04-24T20:02:42.000Z</time>
      </trkpt>
      <trkpt lat="51.023238" lon="0.088431">
        <ele>108.8</ele>
        <time>2026-04-24T20:02:52.000Z</time>
      </trkpt>
      <trkpt lat="51.0224" lon="0.088313">
        <ele>103.4</ele>
        <time>2026-04-24T20:03:14.000Z</time>
      </trkpt>
      <trkpt lat="51.020447" lon="0.088126">
        <ele>91</ele>
        <time>2026-04-24T20:04:07.000Z</time>
      </trkpt>
      <trkpt lat="51.019418" lon="0.087994">
        <ele>84.6</ele>
        <time>2026-04-24T20:04:34.000Z</time>
      </trkpt>
      <trkpt lat="51.01892" lon="0.087902">
        <ele>81.6</ele>
        <time>2026-04-24T20:04:48.000Z</time>
      </trkpt>
      <trkpt lat="51.018039" lon="0.087648">
        <ele>75.6</ele>
        <time>2026-04-24T20:05:11.000Z</time>
      </trkpt>
      <trkpt lat="51.017201" lon="0.087378">
        <ele>71</ele>
        <time>2026-04-24T20:05:34.000Z</time>
      </trkpt>
      <trkpt lat="51.015317" lon="0.086687">
        <ele>69.8</ele>
        <time>2026-04-24T20:06:26.000Z</time>
      </trkpt>
      <trkpt lat="51.014897" lon="0.086413">
        <ele>70.8</ele>
        <time>2026-04-24T20:06:38.000Z</time>
      </trkpt>
      <trkpt lat="51.013837" lon="0.085543">
        <ele>73</ele>
        <time>2026-04-24T20:07:10.000Z</time>
      </trkpt>
      <trkpt lat="51.013494" lon="0.085335">
        <ele>73</ele>
        <time>2026-04-24T20:07:20.000Z</time>
      </trkpt>
      <trkpt lat="51.01271" lon="0.084954">
        <ele>71.8</ele>
        <time>2026-04-24T20:07:42.000Z</time>
      </trkpt>
      <trkpt lat="51.012501" lon="0.08487">
        <ele>71.4</ele>
        <time>2026-04-24T20:07:47.000Z</time>
      </trkpt>
      <trkpt lat="51.012354" lon="0.084832">
        <ele>71</ele>
        <time>2026-04-24T20:07:51.000Z</time>
      </trkpt>
      <trkpt lat="51.011985" lon="0.084781">
        <ele>69.8</ele>
        <time>2026-04-24T20:08:01.000Z</time>
      </trkpt>
      <trkpt lat="51.011778" lon="0.084784">
        <ele>69.6</ele>
        <time>2026-04-24T20:08:07.000Z</time>
      </trkpt>
      <trkpt lat="51.011521" lon="0.08484">
        <ele>68.8</ele>
        <time>2026-04-24T20:08:14.000Z</time>
      </trkpt>
      <trkpt lat="51.011284" lon="0.084864">
        <ele>68.4</ele>
        <time>2026-04-24T20:08:20.000Z</time>
      </trkpt>
      <trkpt lat="51.010958" lon="0.084868">
        <ele>67.8</ele>
        <time>2026-04-24T20:08:29.000Z</time>
      </trkpt>
      <trkpt lat="51.010779" lon="0.084839">
        <ele>67.4</ele>
        <time>2026-04-24T20:08:33.000Z</time>
      </trkpt>
      <trkpt lat="51.010514" lon="0.084734">
        <ele>66.4</ele>
        <time>2026-04-24T20:08:41.000Z</time>
      </trkpt>
      <trkpt lat="51.010322" lon="0.084635">
        <ele>65.6</ele>
        <time>2026-04-24T20:08:46.000Z</time>
      </trkpt>
      <trkpt lat="51.008588" lon="0.083593">
        <ele>61.2</ele>
        <time>2026-04-24T20:09:36.000Z</time>
      </trkpt>
      <trkpt lat="51.008409" lon="0.083469">
        <ele>61</ele>
        <time>2026-04-24T20:09:41.000Z</time>
      </trkpt>
      <trkpt lat="51.008287" lon="0.083421">
        <ele>60.8</ele>
        <time>2026-04-24T20:09:44.000Z</time>
      </trkpt>
      <trkpt lat="51.008225" lon="0.083432">
        <ele>60.8</ele>
        <time>2026-04-24T20:09:46.000Z</time>
      </trkpt>
      <trkpt lat="51.008165" lon="0.083466">
        <ele>60.6</ele>
        <time>2026-04-24T20:09:48.000Z</time>
      </trkpt>
      <trkpt lat="51.007877" lon="0.083699">
        <ele>60.2</ele>
        <time>2026-04-24T20:09:56.000Z</time>
      </trkpt>
      <trkpt lat="51.007046" lon="0.084204">
        <ele>60.6</ele>
        <time>2026-04-24T20:10:20.000Z</time>
      </trkpt>
      <trkpt lat="51.006594" lon="0.084501">
        <ele>60.8</ele>
        <time>2026-04-24T20:10:33.000Z</time>
      </trkpt>
      <trkpt lat="51.0064" lon="0.084659">
        <ele>60.8</ele>
        <time>2026-04-24T20:10:39.000Z</time>
      </trkpt>
      <trkpt lat="51.006221" lon="0.084855">
        <ele>60.6</ele>
        <time>2026-04-24T20:10:45.000Z</time>
      </trkpt>
      <trkpt lat="51.006124" lon="0.085007">
        <ele>60.2</ele>
        <time>2026-04-24T20:10:48.000Z</time>
      </trkpt>
      <trkpt lat="51.006004" lon="0.085251">
        <ele>60</ele>
        <time>2026-04-24T20:10:53.000Z</time>
      </trkpt>
      <trkpt lat="51.005831" lon="0.085701">
        <ele>59.8</ele>
        <time>2026-04-24T20:11:02.000Z</time>
      </trkpt>
      <trkpt lat="51.00574" lon="0.086">
        <ele>59.4</ele>
        <time>2026-04-24T20:11:08.000Z</time>
      </trkpt>
      <trkpt lat="51.00558" lon="0.086775">
        <ele>58.8</ele>
        <time>2026-04-24T20:11:22.000Z</time>
      </trkpt>
      <trkpt lat="51.005477" lon="0.087151">
        <ele>58.6</ele>
        <time>2026-04-24T20:11:28.000Z</time>
      </trkpt>
      <trkpt lat="51.005359" lon="0.087524">
        <ele>58.2</ele>
        <time>2026-04-24T20:11:35.000Z</time>
      </trkpt>
      <trkpt lat="51.005243" lon="0.08777">
        <ele>58.4</ele>
        <time>2026-04-24T20:11:41.000Z</time>
      </trkpt>
      <trkpt lat="51.004979" lon="0.088221">
        <ele>58</ele>
        <time>2026-04-24T20:11:51.000Z</time>
      </trkpt>
      <trkpt lat="51.004777" lon="0.088468">
        <ele>57.8</ele>
        <time>2026-04-24T20:11:58.000Z</time>
      </trkpt>
      <trkpt lat="51.004586" lon="0.08863">
        <ele>57.8</ele>
        <time>2026-04-24T20:12:04.000Z</time>
      </trkpt>
      <trkpt lat="51.004453" lon="0.088711">
        <ele>57.4</ele>
        <time>2026-04-24T20:12:07.000Z</time>
      </trkpt>
      <trkpt lat="51.004308" lon="0.088773">
        <ele>57</ele>
        <time>2026-04-24T20:12:11.000Z</time>
      </trkpt>
      <trkpt lat="51.004008" lon="0.088829">
        <ele>56.2</ele>
        <time>2026-04-24T20:12:19.000Z</time>
      </trkpt>
      <trkpt lat="51.003624" lon="0.08882">
        <ele>55</ele>
        <time>2026-04-24T20:12:30.000Z</time>
      </trkpt>
      <trkpt lat="51.001409" lon="0.088492">
        <ele>46.6</ele>
        <time>2026-04-24T20:13:29.000Z</time>
      </trkpt>
      <trkpt lat="51.000365" lon="0.088317">
        <ele>44.8</ele>
        <time>2026-04-24T20:13:57.000Z</time>
      </trkpt>
      <trkpt lat="50.99891" lon="0.088118">
        <ele>44.2</ele>
        <time>2026-04-24T20:14:36.000Z</time>
      </trkpt>
      <trkpt lat="50.997987" lon="0.087963">
        <ele>44</ele>
        <time>2026-04-24T20:15:01.000Z</time>
      </trkpt>
      <trkpt lat="50.997256" lon="0.08792">
        <ele>44</ele>
        <time>2026-04-24T20:15:20.000Z</time>
      </trkpt>
      <trkpt lat="50.996911" lon="0.087959">
        <ele>44</ele>
        <time>2026-04-24T20:15:30.000Z</time>
      </trkpt>
      <trkpt lat="50.996798" lon="0.08801">
        <ele>44</ele>
        <time>2026-04-24T20:15:33.000Z</time>
      </trkpt>
      <trkpt lat="50.996713" lon="0.088159">
        <ele>43.8</ele>
        <time>2026-04-24T20:15:36.000Z</time>
      </trkpt>
      <trkpt lat="50.996648" lon="0.088348">
        <ele>43.4</ele>
        <time>2026-04-24T20:15:40.000Z</time>
      </trkpt>
      <trkpt lat="50.996113" lon="0.08959">
        <ele>41.8</ele>
        <time>2026-04-24T20:16:05.000Z</time>
      </trkpt>
      <trkpt lat="50.99585" lon="0.090121">
        <ele>41.6</ele>
        <time>2026-04-24T20:16:16.000Z</time>
      </trkpt>
      <trkpt lat="50.995601" lon="0.090527">
        <ele>41.2</ele>
        <time>2026-04-24T20:16:26.000Z</time>
      </trkpt>
      <trkpt lat="50.995151" lon="0.091162">
        <ele>39.2</ele>
        <time>2026-04-24T20:16:42.000Z</time>
      </trkpt>
      <trkpt lat="50.994821" lon="0.091441">
        <ele>38.4</ele>
        <time>2026-04-24T20:16:52.000Z</time>
      </trkpt>
      <trkpt lat="50.994379" lon="0.091756">
        <ele>35.6</ele>
        <time>2026-04-24T20:17:05.000Z</time>
      </trkpt>
      <trkpt lat="50.994195" lon="0.091857">
        <ele>34.8</ele>
        <time>2026-04-24T20:17:10.000Z</time>
      </trkpt>
      <trkpt lat="50.99383" lon="0.092094">
        <ele>33</ele>
        <time>2026-04-24T20:17:21.000Z</time>
      </trkpt>
      <trkpt lat="50.993651" lon="0.092236">
        <ele>31.8</ele>
        <time>2026-04-24T20:17:26.000Z</time>
      </trkpt>
      <trkpt lat="50.993482" lon="0.092345">
        <ele>31</ele>
        <time>2026-04-24T20:17:31.000Z</time>
      </trkpt>
      <trkpt lat="50.993394" lon="0.092418">
        <ele>30.2</ele>
        <time>2026-04-24T20:17:33.000Z</time>
      </trkpt>
      <trkpt lat="50.993326" lon="0.092501">
        <ele>30</ele>
        <time>2026-04-24T20:17:36.000Z</time>
      </trkpt>
      <trkpt lat="50.992903" lon="0.093234">
        <ele>26.8</ele>
        <time>2026-04-24T20:17:52.000Z</time>
      </trkpt>
      <trkpt lat="50.992532" lon="0.093949">
        <ele>24.6</ele>
        <time>2026-04-24T20:18:08.000Z</time>
      </trkpt>
      <trkpt lat="50.992465" lon="0.094158">
        <ele>23.8</ele>
        <time>2026-04-24T20:18:12.000Z</time>
      </trkpt>
      <trkpt lat="50.992456" lon="0.0946">
        <ele>23.2</ele>
        <time>2026-04-24T20:18:19.000Z</time>
      </trkpt>
      <trkpt lat="50.992411" lon="0.094812">
        <ele>23</ele>
        <time>2026-04-24T20:18:23.000Z</time>
      </trkpt>
      <trkpt lat="50.992315" lon="0.094977">
        <ele>22.8</ele>
        <time>2026-04-24T20:18:27.000Z</time>
      </trkpt>
      <trkpt lat="50.99209" lon="0.095227">
        <ele>22.6</ele>
        <time>2026-04-24T20:18:34.000Z</time>
      </trkpt>
      <trkpt lat="50.99185" lon="0.095706">
        <ele>22.8</ele>
        <time>2026-04-24T20:18:45.000Z</time>
      </trkpt>
      <trkpt lat="50.991716" lon="0.095903">
        <ele>23.2</ele>
        <time>2026-04-24T20:18:49.000Z</time>
      </trkpt>
      <trkpt lat="50.991623" lon="0.09601">
        <ele>23.4</ele>
        <time>2026-04-24T20:18:53.000Z</time>
      </trkpt>
      <trkpt lat="50.991475" lon="0.096141">
        <ele>23.4</ele>
        <time>2026-04-24T20:18:57.000Z</time>
      </trkpt>
      <trkpt lat="50.991371" lon="0.096209">
        <ele>23.6</ele>
        <time>2026-04-24T20:19:00.000Z</time>
      </trkpt>
      <trkpt lat="50.991158" lon="0.096308">
        <ele>24</ele>
        <time>2026-04-24T20:19:06.000Z</time>
      </trkpt>
      <trkpt lat="50.990744" lon="0.096452">
        <ele>25.4</ele>
        <time>2026-04-24T20:19:17.000Z</time>
      </trkpt>
      <trkpt lat="50.990442" lon="0.096578">
        <ele>26</ele>
        <time>2026-04-24T20:19:26.000Z</time>
      </trkpt>
      <trkpt lat="50.990114" lon="0.096775">
        <ele>26.2</ele>
        <time>2026-04-24T20:19:35.000Z</time>
      </trkpt>
      <trkpt lat="50.989855" lon="0.09699">
        <ele>26.2</ele>
        <time>2026-04-24T20:19:43.000Z</time>
      </trkpt>
      <trkpt lat="50.98891" lon="0.098086">
        <ele>27.2</ele>
        <time>2026-04-24T20:20:14.000Z</time>
      </trkpt>
      <trkpt lat="50.988791" lon="0.09821">
        <ele>27.2</ele>
        <time>2026-04-24T20:20:18.000Z</time>
      </trkpt>
      <trkpt lat="50.988492" lon="0.09847">
        <ele>27</ele>
        <time>2026-04-24T20:20:27.000Z</time>
      </trkpt>
      <trkpt lat="50.987789" lon="0.098974">
        <ele>25.4</ele>
        <time>2026-04-24T20:20:47.000Z</time>
      </trkpt>
      <trkpt lat="50.987102" lon="0.099423">
        <ele>26</ele>
        <time>2026-04-24T20:21:07.000Z</time>
      </trkpt>
      <trkpt lat="50.986679" lon="0.099739">
        <ele>28.4</ele>
        <time>2026-04-24T20:21:20.000Z</time>
      </trkpt>
      <trkpt lat="50.986405" lon="0.099922">
        <ele>30.2</ele>
        <time>2026-04-24T20:21:28.000Z</time>
      </trkpt>
      <trkpt lat="50.986192" lon="0.100092">
        <ele>31.4</ele>
        <time>2026-04-24T20:21:34.000Z</time>
      </trkpt>
      <trkpt lat="50.985799" lon="0.100325">
        <ele>32.8</ele>
        <time>2026-04-24T20:21:45.000Z</time>
      </trkpt>
      <trkpt lat="50.985248" lon="0.100754">
        <ele>36.6</ele>
        <time>2026-04-24T20:22:02.000Z</time>
      </trkpt>
      <trkpt lat="50.984922" lon="0.101038">
        <ele>39.6</ele>
        <time>2026-04-24T20:22:12.000Z</time>
      </trkpt>
      <trkpt lat="50.984699" lon="0.101196">
        <ele>41</ele>
        <time>2026-04-24T20:22:18.000Z</time>
      </trkpt>
      <trkpt lat="50.98449" lon="0.101319">
        <ele>41.8</ele>
        <time>2026-04-24T20:22:24.000Z</time>
      </trkpt>
      <trkpt lat="50.984072" lon="0.101477">
        <ele>42</ele>
        <time>2026-04-24T20:22:36.000Z</time>
      </trkpt>
      <trkpt lat="50.983334" lon="0.101631">
        <ele>42.4</ele>
        <time>2026-04-24T20:22:55.000Z</time>
      </trkpt>
      <trkpt lat="50.98306" lon="0.101658">
        <ele>42.4</ele>
        <time>2026-04-24T20:23:03.000Z</time>
      </trkpt>
      <trkpt lat="50.98189" lon="0.101605">
        <ele>45</ele>
        <time>2026-04-24T20:23:34.000Z</time>
      </trkpt>
      <trkpt lat="50.981627" lon="0.101576">
        <ele>46.4</ele>
        <time>2026-04-24T20:23:41.000Z</time>
      </trkpt>
      <trkpt lat="50.981445" lon="0.101538">
        <ele>47.4</ele>
        <time>2026-04-24T20:23:46.000Z</time>
      </trkpt>
      <trkpt lat="50.981061" lon="0.101423">
        <ele>48.8</ele>
        <time>2026-04-24T20:23:56.000Z</time>
      </trkpt>
      <trkpt lat="50.980323" lon="0.101084">
        <ele>50.2</ele>
        <time>2026-04-24T20:24:17.000Z</time>
      </trkpt>
      <trkpt lat="50.979346" lon="0.100728">
        <ele>51.2</ele>
        <time>2026-04-24T20:24:44.000Z</time>
      </trkpt>
      <trkpt lat="50.978353" lon="0.100336">
        <ele>51.2</ele>
        <time>2026-04-24T20:25:11.000Z</time>
      </trkpt>
      <trkpt lat="50.976619" lon="0.099759">
        <ele>47.8</ele>
        <time>2026-04-24T20:25:58.000Z</time>
      </trkpt>
      <trkpt lat="50.975975" lon="0.099577">
        <ele>46</ele>
        <time>2026-04-24T20:26:16.000Z</time>
      </trkpt>
      <trkpt lat="50.975629" lon="0.099402">
        <ele>43.6</ele>
        <time>2026-04-24T20:26:25.000Z</time>
      </trkpt>
      <trkpt lat="50.975283" lon="0.099143">
        <ele>42.4</ele>
        <time>2026-04-24T20:26:36.000Z</time>
      </trkpt>
      <trkpt lat="50.974376" lon="0.098287">
        <ele>36</ele>
        <time>2026-04-24T20:27:04.000Z</time>
      </trkpt>
      <trkpt lat="50.97367" lon="0.097559">
        <ele>34.4</ele>
        <time>2026-04-24T20:27:26.000Z</time>
      </trkpt>
      <trkpt lat="50.973438" lon="0.097342">
        <ele>34</ele>
        <time>2026-04-24T20:27:33.000Z</time>
      </trkpt>
      <trkpt lat="50.973266" lon="0.097216">
        <ele>33.8</ele>
        <time>2026-04-24T20:27:38.000Z</time>
      </trkpt>
      <trkpt lat="50.97315" lon="0.097148">
        <ele>33.4</ele>
        <time>2026-04-24T20:27:42.000Z</time>
      </trkpt>
      <trkpt lat="50.972926" lon="0.097087">
        <ele>31.4</ele>
        <time>2026-04-24T20:27:48.000Z</time>
      </trkpt>
      <trkpt lat="50.972653" lon="0.096953">
        <ele>31</ele>
        <time>2026-04-24T20:27:55.000Z</time>
      </trkpt>
      <trkpt lat="50.972099" lon="0.096808">
        <ele>29.6</ele>
        <time>2026-04-24T20:28:10.000Z</time>
      </trkpt>
      <trkpt lat="50.970804" lon="0.096322">
        <ele>21.6</ele>
        <time>2026-04-24T20:28:46.000Z</time>
      </trkpt>
      <trkpt lat="50.970312" lon="0.096242">
        <ele>18</ele>
        <time>2026-04-24T20:28:59.000Z</time>
      </trkpt>
      <trkpt lat="50.969848" lon="0.096134">
        <ele>14.6</ele>
        <time>2026-04-24T20:29:12.000Z</time>
      </trkpt>
      <trkpt lat="50.969758" lon="0.096138">
        <ele>13.2</ele>
        <time>2026-04-24T20:29:14.000Z</time>
      </trkpt>
      <trkpt lat="50.96948" lon="0.096027">
        <ele>12</ele>
        <time>2026-04-24T20:29:22.000Z</time>
      </trkpt>
      <trkpt lat="50.96931" lon="0.096001">
        <ele>11.4</ele>
        <time>2026-04-24T20:29:26.000Z</time>
      </trkpt>
      <trkpt lat="50.969126" lon="0.096004">
        <ele>10.8</ele>
        <time>2026-04-24T20:29:31.000Z</time>
      </trkpt>
      <trkpt lat="50.968881" lon="0.096054">
        <ele>10.2</ele>
        <time>2026-04-24T20:29:38.000Z</time>
      </trkpt>
      <trkpt lat="50.968646" lon="0.096133">
        <ele>10.2</ele>
        <time>2026-04-24T20:29:44.000Z</time>
      </trkpt>
      <trkpt lat="50.968306" lon="0.096316">
        <ele>10.4</ele>
        <time>2026-04-24T20:29:54.000Z</time>
      </trkpt>
      <trkpt lat="50.96814" lon="0.096377">
        <ele>10.6</ele>
        <time>2026-04-24T20:29:58.000Z</time>
      </trkpt>
      <trkpt lat="50.967914" lon="0.096434">
        <ele>11.2</ele>
        <time>2026-04-24T20:30:04.000Z</time>
      </trkpt>
      <trkpt lat="50.967796" lon="0.096481">
        <ele>11.8</ele>
        <time>2026-04-24T20:30:08.000Z</time>
      </trkpt>
      <trkpt lat="50.967446" lon="0.096533">
        <ele>16.2</ele>
        <time>2026-04-24T20:30:17.000Z</time>
      </trkpt>
      <trkpt lat="50.967405" lon="0.096565">
        <ele>16.4</ele>
        <time>2026-04-24T20:30:18.000Z</time>
      </trkpt>
      <trkpt lat="50.9673" lon="0.096811">
        <ele>16.8</ele>
        <time>2026-04-24T20:30:23.000Z</time>
      </trkpt>
      <trkpt lat="50.967192" lon="0.09715">
        <ele>17.8</ele>
        <time>2026-04-24T20:30:30.000Z</time>
      </trkpt>
      <trkpt lat="50.967105" lon="0.097539">
        <ele>19</ele>
        <time>2026-04-24T20:30:37.000Z</time>
      </trkpt>
      <trkpt lat="50.966884" lon="0.099234">
        <ele>20.4</ele>
        <time>2026-04-24T20:31:06.000Z</time>
      </trkpt>
      <trkpt lat="50.966754" lon="0.100083">
        <ele>19</ele>
        <time>2026-04-24T20:31:20.000Z</time>
      </trkpt>
      <trkpt lat="50.96673" lon="0.100468">
        <ele>18.4</ele>
        <time>2026-04-24T20:31:27.000Z</time>
      </trkpt>
      <trkpt lat="50.966742" lon="0.101453">
        <ele>17</ele>
        <time>2026-04-24T20:31:43.000Z</time>
      </trkpt>
      <trkpt lat="50.966795" lon="0.102256">
        <ele>16.2</ele>
        <time>2026-04-24T20:31:57.000Z</time>
      </trkpt>
      <trkpt lat="50.966863" lon="0.10303">
        <ele>16.4</ele>
        <time>2026-04-24T20:32:10.000Z</time>
      </trkpt>
      <trkpt lat="50.966965" lon="0.103929">
        <ele>16</ele>
        <time>2026-04-24T20:32:26.000Z</time>
      </trkpt>
      <trkpt lat="50.967065" lon="0.104451">
        <ele>15.8</ele>
        <time>2026-04-24T20:32:35.000Z</time>
      </trkpt>
      <trkpt lat="50.96726" lon="0.105201">
        <ele>15.2</ele>
        <time>2026-04-24T20:32:48.000Z</time>
      </trkpt>
      <trkpt lat="50.967607" lon="0.106056">
        <ele>12.8</ele>
        <time>2026-04-24T20:33:05.000Z</time>
      </trkpt>
      <trkpt lat="50.967783" lon="0.106549">
        <ele>12.2</ele>
        <time>2026-04-24T20:33:15.000Z</time>
      </trkpt>
      <trkpt lat="50.967817" lon="0.106754">
        <ele>12.2</ele>
        <time>2026-04-24T20:33:19.000Z</time>
      </trkpt>
      <trkpt lat="50.967817" lon="0.107455">
        <ele>12.2</ele>
        <time>2026-04-24T20:33:30.000Z</time>
      </trkpt>
      <trkpt lat="50.967897" lon="0.108027">
        <ele>13.8</ele>
        <time>2026-04-24T20:33:40.000Z</time>
      </trkpt>
      <trkpt lat="50.968014" lon="0.108439">
        <ele>16.4</ele>
        <time>2026-04-24T20:33:48.000Z</time>
      </trkpt>
      <trkpt lat="50.968112" lon="0.108678">
        <ele>18.2</ele>
        <time>2026-04-24T20:33:53.000Z</time>
      </trkpt>
      <trkpt lat="50.968239" lon="0.109056">
        <ele>20.8</ele>
        <time>2026-04-24T20:34:00.000Z</time>
      </trkpt>
      <trkpt lat="50.968253" lon="0.109147">
        <ele>21</ele>
        <time>2026-04-24T20:34:01.000Z</time>
      </trkpt>
      <trkpt lat="50.968356" lon="0.109419">
        <ele>22.6</ele>
        <time>2026-04-24T20:34:07.000Z</time>
      </trkpt>
      <trkpt lat="50.968452" lon="0.10978">
        <ele>24.4</ele>
        <time>2026-04-24T20:34:13.000Z</time>
      </trkpt>
      <trkpt lat="50.968627" lon="0.110285">
        <ele>26.8</ele>
        <time>2026-04-24T20:34:23.000Z</time>
      </trkpt>
      <trkpt lat="50.968693" lon="0.11057">
        <ele>28.4</ele>
        <time>2026-04-24T20:34:28.000Z</time>
      </trkpt>
      <trkpt lat="50.96874" lon="0.111012">
        <ele>30.4</ele>
        <time>2026-04-24T20:34:36.000Z</time>
      </trkpt>
      <trkpt lat="50.968742" lon="0.111369">
        <ele>31.6</ele>
        <time>2026-04-24T20:34:42.000Z</time>
      </trkpt>
      <trkpt lat="50.968727" lon="0.111799">
        <ele>33.8</ele>
        <time>2026-04-24T20:34:49.000Z</time>
      </trkpt>
      <trkpt lat="50.968671" lon="0.112351">
        <ele>35.6</ele>
        <time>2026-04-24T20:34:58.000Z</time>
      </trkpt>
      <trkpt lat="50.968632" lon="0.112997">
        <ele>36.8</ele>
        <time>2026-04-24T20:35:09.000Z</time>
      </trkpt>
      <trkpt lat="50.968654" lon="0.113488">
        <ele>37.6</ele>
        <time>2026-04-24T20:35:17.000Z</time>
      </trkpt>
      <trkpt lat="50.968739" lon="0.114482">
        <ele>39.2</ele>
        <time>2026-04-24T20:35:34.000Z</time>
      </trkpt>
      <trkpt lat="50.968861" lon="0.115488">
        <ele>40.6</ele>
        <time>2026-04-24T20:35:52.000Z</time>
      </trkpt>
      <trkpt lat="50.968904" lon="0.115773">
        <ele>41.2</ele>
        <time>2026-04-24T20:35:56.000Z</time>
      </trkpt>
      <trkpt lat="50.969074" lon="0.116566">
        <ele>43</ele>
        <time>2026-04-24T20:36:11.000Z</time>
      </trkpt>
      <trkpt lat="50.969085" lon="0.116804">
        <ele>44.2</ele>
        <time>2026-04-24T20:36:15.000Z</time>
      </trkpt>
      <trkpt lat="50.969049" lon="0.116958">
        <ele>44.4</ele>
        <time>2026-04-24T20:36:17.000Z</time>
      </trkpt>
      <trkpt lat="50.968956" lon="0.117136">
        <ele>45.2</ele>
        <time>2026-04-24T20:36:21.000Z</time>
      </trkpt>
      <trkpt lat="50.968782" lon="0.117342">
        <ele>45.8</ele>
        <time>2026-04-24T20:36:27.000Z</time>
      </trkpt>
      <trkpt lat="50.968348" lon="0.117744">
        <ele>47.2</ele>
        <time>2026-04-24T20:36:40.000Z</time>
      </trkpt>
      <trkpt lat="50.968189" lon="0.117957">
        <ele>47.2</ele>
        <time>2026-04-24T20:36:46.000Z</time>
      </trkpt>
      <trkpt lat="50.968042" lon="0.1182">
        <ele>47</ele>
        <time>2026-04-24T20:36:52.000Z</time>
      </trkpt>
      <trkpt lat="50.967813" lon="0.118708">
        <ele>46.2</ele>
        <time>2026-04-24T20:37:02.000Z</time>
      </trkpt>
      <trkpt lat="50.967652" lon="0.118991">
        <ele>45.8</ele>
        <time>2026-04-24T20:37:09.000Z</time>
      </trkpt>
      <trkpt lat="50.967524" lon="0.11916">
        <ele>45.4</ele>
        <time>2026-04-24T20:37:13.000Z</time>
      </trkpt>
      <trkpt lat="50.967173" lon="0.119501">
        <ele>43.8</ele>
        <time>2026-04-24T20:37:24.000Z</time>
      </trkpt>
      <trkpt lat="50.966958" lon="0.119794">
        <ele>42.6</ele>
        <time>2026-04-24T20:37:32.000Z</time>
      </trkpt>
      <trkpt lat="50.966783" lon="0.120144">
        <ele>41.8</ele>
        <time>2026-04-24T20:37:39.000Z</time>
      </trkpt>
      <trkpt lat="50.966701" lon="0.120407">
        <ele>42</ele>
        <time>2026-04-24T20:37:44.000Z</time>
      </trkpt>
      <trkpt lat="50.966662" lon="0.120672">
        <ele>42</ele>
        <time>2026-04-24T20:37:49.000Z</time>
      </trkpt>
      <trkpt lat="50.966649" lon="0.121032">
        <ele>42.2</ele>
        <time>2026-04-24T20:37:55.000Z</time>
      </trkpt>
      <trkpt lat="50.966699" lon="0.121852">
        <ele>42.8</ele>
        <time>2026-04-24T20:38:08.000Z</time>
      </trkpt>
      <trkpt lat="50.966752" lon="0.122192">
        <ele>43.4</ele>
        <time>2026-04-24T20:38:14.000Z</time>
      </trkpt>
      <trkpt lat="50.96688" lon="0.122684">
        <ele>44.6</ele>
        <time>2026-04-24T20:38:23.000Z</time>
      </trkpt>
      <trkpt lat="50.967173" lon="0.123312">
        <ele>45.6</ele>
        <time>2026-04-24T20:38:36.000Z</time>
      </trkpt>
      <trkpt lat="50.967281" lon="0.123585">
        <ele>45.6</ele>
        <time>2026-04-24T20:38:42.000Z</time>
      </trkpt>
      <trkpt lat="50.967375" lon="0.12388">
        <ele>45.4</ele>
        <time>2026-04-24T20:38:47.000Z</time>
      </trkpt>
      <trkpt lat="50.96743" lon="0.124141">
        <ele>45</ele>
        <time>2026-04-24T20:38:52.000Z</time>
      </trkpt>
      <trkpt lat="50.967448" lon="0.124343">
        <ele>44.8</ele>
        <time>2026-04-24T20:38:55.000Z</time>
      </trkpt>
      <trkpt lat="50.967438" lon="0.124557">
        <ele>44.6</ele>
        <time>2026-04-24T20:38:59.000Z</time>
      </trkpt>
      <trkpt lat="50.967392" lon="0.124767">
        <ele>44.6</ele>
        <time>2026-04-24T20:39:03.000Z</time>
      </trkpt>
      <trkpt lat="50.967307" lon="0.124938">
        <ele>44.4</ele>
        <time>2026-04-24T20:39:06.000Z</time>
      </trkpt>
      <trkpt lat="50.967137" lon="0.125137">
        <ele>44.2</ele>
        <time>2026-04-24T20:39:12.000Z</time>
      </trkpt>
      <trkpt lat="50.966962" lon="0.125276">
        <ele>44</ele>
        <time>2026-04-24T20:39:17.000Z</time>
      </trkpt>
      <trkpt lat="50.966594" lon="0.125455">
        <ele>43.6</ele>
        <time>2026-04-24T20:39:28.000Z</time>
      </trkpt>
      <trkpt lat="50.966388" lon="0.125576">
        <ele>43.6</ele>
        <time>2026-04-24T20:39:33.000Z</time>
      </trkpt>
      <trkpt lat="50.966211" lon="0.125696">
        <ele>43.4</ele>
        <time>2026-04-24T20:39:39.000Z</time>
      </trkpt>
      <trkpt lat="50.966032" lon="0.125861">
        <ele>43.6</ele>
        <time>2026-04-24T20:39:44.000Z</time>
      </trkpt>
      <trkpt lat="50.96575" lon="0.126064">
        <ele>44</ele>
        <time>2026-04-24T20:39:52.000Z</time>
      </trkpt>
      <trkpt lat="50.965219" lon="0.126322">
        <ele>45.6</ele>
        <time>2026-04-24T20:40:07.000Z</time>
      </trkpt>
      <trkpt lat="50.964514" lon="0.126765">
        <ele>48</ele>
        <time>2026-04-24T20:40:27.000Z</time>
      </trkpt>
      <trkpt lat="50.964363" lon="0.126888">
        <ele>49.8</ele>
        <time>2026-04-24T20:40:32.000Z</time>
      </trkpt>
      <trkpt lat="50.964063" lon="0.127257">
        <ele>52</ele>
        <time>2026-04-24T20:40:42.000Z</time>
      </trkpt>
      <trkpt lat="50.963844" lon="0.127422">
        <ele>52.8</ele>
        <time>2026-04-24T20:40:49.000Z</time>
      </trkpt>
      <trkpt lat="50.963637" lon="0.127475">
        <ele>53.2</ele>
        <time>2026-04-24T20:40:54.000Z</time>
      </trkpt>
      <trkpt lat="50.963539" lon="0.127466">
        <ele>53.4</ele>
        <time>2026-04-24T20:40:57.000Z</time>
      </trkpt>
      <trkpt lat="50.96345" lon="0.127419">
        <ele>53.4</ele>
        <time>2026-04-24T20:40:59.000Z</time>
      </trkpt>
      <trkpt lat="50.963385" lon="0.127357">
        <ele>53.4</ele>
        <time>2026-04-24T20:41:01.000Z</time>
      </trkpt>
      <trkpt lat="50.963312" lon="0.12721">
        <ele>53.4</ele>
        <time>2026-04-24T20:41:04.000Z</time>
      </trkpt>
      <trkpt lat="50.963257" lon="0.127163">
        <ele>53</ele>
        <time>2026-04-24T20:41:06.000Z</time>
      </trkpt>
      <trkpt lat="50.962546" lon="0.127283">
        <ele>51</ele>
        <time>2026-04-24T20:41:25.000Z</time>
      </trkpt>
      <trkpt lat="50.962441" lon="0.127331">
        <ele>50.6</ele>
        <time>2026-04-24T20:41:28.000Z</time>
      </trkpt>
      <trkpt lat="50.962318" lon="0.127484">
        <ele>48.8</ele>
        <time>2026-04-24T20:41:32.000Z</time>
      </trkpt>
      <trkpt lat="50.962314" lon="0.127462">
        <ele>48.4</ele>
        <time>2026-04-24T20:41:33.000Z</time>
      </trkpt>
      <trkpt lat="50.962419" lon="0.127324">
        <ele>47.4</ele>
        <time>2026-04-24T20:41:36.000Z</time>
      </trkpt>
      <trkpt lat="50.962531" lon="0.12726">
        <ele>47.2</ele>
        <time>2026-04-24T20:41:40.000Z</time>
      </trkpt>
      <trkpt lat="50.962646" lon="0.127227">
        <ele>47.4</ele>
        <time>2026-04-24T20:41:43.000Z</time>
      </trkpt>
      <trkpt lat="50.963055" lon="0.127156">
        <ele>49.4</ele>
        <time>2026-04-24T20:41:54.000Z</time>
      </trkpt>
      <trkpt lat="50.963258" lon="0.127137">
        <ele>50.4</ele>
        <time>2026-04-24T20:41:59.000Z</time>
      </trkpt>
      <trkpt lat="50.963281" lon="0.127148">
        <ele>50.8</ele>
        <time>2026-04-24T20:42:00.000Z</time>
      </trkpt>
      <trkpt lat="50.963316" lon="0.127208">
        <ele>51.2</ele>
        <time>2026-04-24T20:42:01.000Z</time>
      </trkpt>
      <trkpt lat="50.963408" lon="0.127601">
        <ele>52.6</ele>
        <time>2026-04-24T20:42:08.000Z</time>
      </trkpt>
      <trkpt lat="50.963397" lon="0.127775">
        <ele>52.4</ele>
        <time>2026-04-24T20:42:11.000Z</time>
      </trkpt>
      <trkpt lat="50.963428" lon="0.128112">
        <ele>51.2</ele>
        <time>2026-04-24T20:42:17.000Z</time>
      </trkpt>
      <trkpt lat="50.963585" lon="0.128458">
        <ele>51.6</ele>
        <time>2026-04-24T20:42:24.000Z</time>
      </trkpt>
      <trkpt lat="50.963863" lon="0.129199">
        <ele>52.8</ele>
        <time>2026-04-24T20:42:38.000Z</time>
      </trkpt>
      <trkpt lat="50.964106" lon="0.12978">
        <ele>53.2</ele>
        <time>2026-04-24T20:42:50.000Z</time>
      </trkpt>
      <trkpt lat="50.964364" lon="0.130538">
        <ele>54.2</ele>
        <time>2026-04-24T20:43:05.000Z</time>
      </trkpt>
      <trkpt lat="50.964758" lon="0.132269">
        <ele>55.2</ele>
        <time>2026-04-24T20:43:36.000Z</time>
      </trkpt>
      <trkpt lat="50.965053" lon="0.133374">
        <ele>55</ele>
        <time>2026-04-24T20:43:56.000Z</time>
      </trkpt>
      <trkpt lat="50.965099" lon="0.133713">
        <ele>54.4</ele>
        <time>2026-04-24T20:44:02.000Z</time>
      </trkpt>
      <trkpt lat="50.965071" lon="0.133931">
        <ele>54.2</ele>
        <time>2026-04-24T20:44:05.000Z</time>
      </trkpt>
      <trkpt lat="50.965035" lon="0.134029">
        <ele>54.2</ele>
        <time>2026-04-24T20:44:07.000Z</time>
      </trkpt>
      <trkpt lat="50.964982" lon="0.13411">
        <ele>54</ele>
        <time>2026-04-24T20:44:09.000Z</time>
      </trkpt>
      <trkpt lat="50.964916" lon="0.134171">
        <ele>54</ele>
        <time>2026-04-24T20:44:11.000Z</time>
      </trkpt>
      <trkpt lat="50.964764" lon="0.134264">
        <ele>53.4</ele>
        <time>2026-04-24T20:44:16.000Z</time>
      </trkpt>
      <trkpt lat="50.964591" lon="0.134337">
        <ele>53</ele>
        <time>2026-04-24T20:44:20.000Z</time>
      </trkpt>
      <trkpt lat="50.963836" lon="0.134623">
        <ele>49.6</ele>
        <time>2026-04-24T20:44:41.000Z</time>
      </trkpt>
      <trkpt lat="50.963648" lon="0.134734">
        <ele>48.6</ele>
        <time>2026-04-24T20:44:46.000Z</time>
      </trkpt>
      <trkpt lat="50.963558" lon="0.13481">
        <ele>48</ele>
        <time>2026-04-24T20:44:49.000Z</time>
      </trkpt>
      <trkpt lat="50.963294" lon="0.135068">
        <ele>47.2</ele>
        <time>2026-04-24T20:44:57.000Z</time>
      </trkpt>
      <trkpt lat="50.963133" lon="0.135273">
        <ele>46.6</ele>
        <time>2026-04-24T20:45:03.000Z</time>
      </trkpt>
      <trkpt lat="50.963063" lon="0.135389">
        <ele>45.8</ele>
        <time>2026-04-24T20:45:06.000Z</time>
      </trkpt>
      <trkpt lat="50.96301" lon="0.135522">
        <ele>45.2</ele>
        <time>2026-04-24T20:45:08.000Z</time>
      </trkpt>
      <trkpt lat="50.962977" lon="0.135668">
        <ele>45</ele>
        <time>2026-04-24T20:45:11.000Z</time>
      </trkpt>
      <trkpt lat="50.962904" lon="0.136865">
        <ele>41.8</ele>
        <time>2026-04-24T20:45:31.000Z</time>
      </trkpt>
      <trkpt lat="50.962904" lon="0.137137">
        <ele>41</ele>
        <time>2026-04-24T20:45:36.000Z</time>
      </trkpt>
      <trkpt lat="50.96298" lon="0.137867">
        <ele>39.8</ele>
        <time>2026-04-24T20:45:48.000Z</time>
      </trkpt>
      <trkpt lat="50.963025" lon="0.138524">
        <ele>39.8</ele>
        <time>2026-04-24T20:45:59.000Z</time>
      </trkpt>
      <trkpt lat="50.963057" lon="0.1391">
        <ele>40.2</ele>
        <time>2026-04-24T20:46:09.000Z</time>
      </trkpt>
      <trkpt lat="50.963072" lon="0.140237">
        <ele>39.4</ele>
        <time>2026-04-24T20:46:28.000Z</time>
      </trkpt>
      <trkpt lat="50.963125" lon="0.140818">
        <ele>39</ele>
        <time>2026-04-24T20:46:38.000Z</time>
      </trkpt>
      <trkpt lat="50.963209" lon="0.141302">
        <ele>38.6</ele>
        <time>2026-04-24T20:46:46.000Z</time>
      </trkpt>
      <trkpt lat="50.963439" lon="0.142282">
        <ele>38.8</ele>
        <time>2026-04-24T20:47:04.000Z</time>
      </trkpt>
      <trkpt lat="50.963494" lon="0.143265">
        <ele>42.4</ele>
        <time>2026-04-24T20:47:21.000Z</time>
      </trkpt>
      <trkpt lat="50.963602" lon="0.143825">
        <ele>44.6</ele>
        <time>2026-04-24T20:47:30.000Z</time>
      </trkpt>
      <trkpt lat="50.963673" lon="0.144042">
        <ele>45.4</ele>
        <time>2026-04-24T20:47:35.000Z</time>
      </trkpt>
      <trkpt lat="50.963792" lon="0.144289">
        <ele>46</ele>
        <time>2026-04-24T20:47:40.000Z</time>
      </trkpt>
      <trkpt lat="50.964139" lon="0.14486">
        <ele>49</ele>
        <time>2026-04-24T20:47:53.000Z</time>
      </trkpt>
      <trkpt lat="50.964183" lon="0.145011">
        <ele>49.8</ele>
        <time>2026-04-24T20:47:56.000Z</time>
      </trkpt>
      <trkpt lat="50.964251" lon="0.145134">
        <ele>50.4</ele>
        <time>2026-04-24T20:47:59.000Z</time>
      </trkpt>
      <trkpt lat="50.964297" lon="0.145182">
        <ele>50.6</ele>
        <time>2026-04-24T20:48:00.000Z</time>
      </trkpt>
      <trkpt lat="50.964383" lon="0.145486">
        <ele>52.2</ele>
        <time>2026-04-24T20:48:06.000Z</time>
      </trkpt>
      <trkpt lat="50.964406" lon="0.145794">
        <ele>53.6</ele>
        <time>2026-04-24T20:48:11.000Z</time>
      </trkpt>
      <trkpt lat="50.964388" lon="0.146005">
        <ele>54.4</ele>
        <time>2026-04-24T20:48:15.000Z</time>
      </trkpt>
      <trkpt lat="50.964336" lon="0.146276">
        <ele>55.4</ele>
        <time>2026-04-24T20:48:19.000Z</time>
      </trkpt>
      <trkpt lat="50.964259" lon="0.146567">
        <ele>56.4</ele>
        <time>2026-04-24T20:48:25.000Z</time>
      </trkpt>
      <trkpt lat="50.964172" lon="0.146812">
        <ele>57.8</ele>
        <time>2026-04-24T20:48:29.000Z</time>
      </trkpt>
      <trkpt lat="50.963949" lon="0.147282">
        <ele>59.4</ele>
        <time>2026-04-24T20:48:39.000Z</time>
      </trkpt>
      <trkpt lat="50.963522" lon="0.148046">
        <ele>61.2</ele>
        <time>2026-04-24T20:48:56.000Z</time>
      </trkpt>
      <trkpt lat="50.963349" lon="0.148534">
        <ele>62.2</ele>
        <time>2026-04-24T20:49:06.000Z</time>
      </trkpt>
      <trkpt lat="50.963225" lon="0.149019">
        <ele>62.6</ele>
        <time>2026-04-24T20:49:15.000Z</time>
      </trkpt>
      <trkpt lat="50.963125" lon="0.149585">
        <ele>63</ele>
        <time>2026-04-24T20:49:25.000Z</time>
      </trkpt>
      <trkpt lat="50.963088" lon="0.150103">
        <ele>63.4</ele>
        <time>2026-04-24T20:49:33.000Z</time>
      </trkpt>
      <trkpt lat="50.963088" lon="0.15055">
        <ele>63.4</ele>
        <time>2026-04-24T20:49:41.000Z</time>
      </trkpt>
      <trkpt lat="50.963139" lon="0.151521">
        <ele>63.6</ele>
        <time>2026-04-24T20:49:57.000Z</time>
      </trkpt>
      <trkpt lat="50.963233" lon="0.15231">
        <ele>63.8</ele>
        <time>2026-04-24T20:50:11.000Z</time>
      </trkpt>
      <trkpt lat="50.963279" lon="0.152587">
        <ele>63.8</ele>
        <time>2026-04-24T20:50:15.000Z</time>
      </trkpt>
      <trkpt lat="50.963526" lon="0.153735">
        <ele>64.4</ele>
        <time>2026-04-24T20:50:36.000Z</time>
      </trkpt>
      <trkpt lat="50.963661" lon="0.154567">
        <ele>66</ele>
        <time>2026-04-24T20:50:50.000Z</time>
      </trkpt>
      <trkpt lat="50.963678" lon="0.155218">
        <ele>67.2</ele>
        <time>2026-04-24T20:51:01.000Z</time>
      </trkpt>
      <trkpt lat="50.963653" lon="0.156001">
        <ele>68.6</ele>
        <time>2026-04-24T20:51:14.000Z</time>
      </trkpt>
      <trkpt lat="50.963688" lon="0.156349">
        <ele>69</ele>
        <time>2026-04-24T20:51:20.000Z</time>
      </trkpt>
      <trkpt lat="50.963817" lon="0.156788">
        <ele>70</ele>
        <time>2026-04-24T20:51:29.000Z</time>
      </trkpt>
      <trkpt lat="50.964008" lon="0.157292">
        <ele>70.4</ele>
        <time>2026-04-24T20:51:38.000Z</time>
      </trkpt>
      <trkpt lat="50.964221" lon="0.157789">
        <ele>71.6</ele>
        <time>2026-04-24T20:51:49.000Z</time>
      </trkpt>
      <trkpt lat="50.964453" lon="0.158419">
        <ele>73</ele>
        <time>2026-04-24T20:52:01.000Z</time>
      </trkpt>
      <trkpt lat="50.965035" lon="0.1607">
        <ele>74.2</ele>
        <time>2026-04-24T20:52:42.000Z</time>
      </trkpt>
      <trkpt lat="50.965135" lon="0.161134">
        <ele>74.4</ele>
        <time>2026-04-24T20:52:50.000Z</time>
      </trkpt>
      <trkpt lat="50.965392" lon="0.162756">
        <ele>75.8</ele>
        <time>2026-04-24T20:53:18.000Z</time>
      </trkpt>
      <trkpt lat="50.96563" lon="0.164497">
        <ele>78</ele>
        <time>2026-04-24T20:53:48.000Z</time>
      </trkpt>
      <trkpt lat="50.965702" lon="0.165316">
        <ele>78.2</ele>
        <time>2026-04-24T20:54:02.000Z</time>
      </trkpt>
      <trkpt lat="50.965754" lon="0.166512">
        <ele>77.2</ele>
        <time>2026-04-24T20:54:22.000Z</time>
      </trkpt>
      <trkpt lat="50.965804" lon="0.16951">
        <ele>76</ele>
        <time>2026-04-24T20:55:12.000Z</time>
      </trkpt>
      <trkpt lat="50.965783" lon="0.170649">
        <ele>77.2</ele>
        <time>2026-04-24T20:55:32.000Z</time>
      </trkpt>
      <trkpt lat="50.965794" lon="0.171029">
        <ele>77.4</ele>
        <time>2026-04-24T20:55:38.000Z</time>
      </trkpt>
      <trkpt lat="50.965939" lon="0.172687">
        <ele>80</ele>
        <time>2026-04-24T20:56:06.000Z</time>
      </trkpt>
      <trkpt lat="50.965894" lon="0.173926">
        <ele>83.2</ele>
        <time>2026-04-24T20:56:27.000Z</time>
      </trkpt>
      <trkpt lat="50.965839" lon="0.174173">
        <ele>83.8</ele>
        <time>2026-04-24T20:56:31.000Z</time>
      </trkpt>
      <trkpt lat="50.965859" lon="0.174299">
        <ele>84.2</ele>
        <time>2026-04-24T20:56:34.000Z</time>
      </trkpt>
      <trkpt lat="50.966057" lon="0.174835">
        <ele>85</ele>
        <time>2026-04-24T20:56:44.000Z</time>
      </trkpt>
      <trkpt lat="50.966406" lon="0.175549">
        <ele>86.6</ele>
        <time>2026-04-24T20:56:59.000Z</time>
      </trkpt>
      <trkpt lat="50.966471" lon="0.175714">
        <ele>87</ele>
        <time>2026-04-24T20:57:03.000Z</time>
      </trkpt>
      <trkpt lat="50.966949" lon="0.176726">
        <ele>89.8</ele>
        <time>2026-04-24T20:57:24.000Z</time>
      </trkpt>
      <trkpt lat="50.967565" lon="0.178316">
        <ele>94.2</ele>
        <time>2026-04-24T20:57:55.000Z</time>
      </trkpt>
      <trkpt lat="50.967982" lon="0.179257">
        <ele>96.2</ele>
        <time>2026-04-24T20:58:15.000Z</time>
      </trkpt>
      <trkpt lat="50.968078" lon="0.179559">
        <ele>97</ele>
        <time>2026-04-24T20:58:20.000Z</time>
      </trkpt>
      <trkpt lat="50.968247" lon="0.180334">
        <ele>98.4</ele>
        <time>2026-04-24T20:58:34.000Z</time>
      </trkpt>
      <trkpt lat="50.968392" lon="0.180913">
        <ele>99.6</ele>
        <time>2026-04-24T20:58:44.000Z</time>
      </trkpt>
      <trkpt lat="50.968432" lon="0.181139">
        <ele>100.2</ele>
        <time>2026-04-24T20:58:48.000Z</time>
      </trkpt>
      <trkpt lat="50.96853" lon="0.181469">
        <ele>101</ele>
        <time>2026-04-24T20:58:55.000Z</time>
      </trkpt>
      <trkpt lat="50.968542" lon="0.181591">
        <ele>101</ele>
        <time>2026-04-24T20:58:57.000Z</time>
      </trkpt>
      <trkpt lat="50.968648" lon="0.182007">
        <ele>101.8</ele>
        <time>2026-04-24T20:59:04.000Z</time>
      </trkpt>
      <trkpt lat="50.968727" lon="0.182433">
        <ele>103.6</ele>
        <time>2026-04-24T20:59:12.000Z</time>
      </trkpt>
      <trkpt lat="50.968811" lon="0.182628">
        <ele>104.4</ele>
        <time>2026-04-24T20:59:16.000Z</time>
      </trkpt>
      <trkpt lat="50.968888" lon="0.182864">
        <ele>105.8</ele>
        <time>2026-04-24T20:59:20.000Z</time>
      </trkpt>
      <trkpt lat="50.968951" lon="0.182973">
        <ele>106.2</ele>
        <time>2026-04-24T20:59:23.000Z</time>
      </trkpt>
      <trkpt lat="50.969009" lon="0.183134">
        <ele>107</ele>
        <time>2026-04-24T20:59:26.000Z</time>
      </trkpt>
      <trkpt lat="50.969195" lon="0.183475">
        <ele>108</ele>
        <time>2026-04-24T20:59:33.000Z</time>
      </trkpt>
      <trkpt lat="50.96936" lon="0.18388">
        <ele>109</ele>
        <time>2026-04-24T20:59:41.000Z</time>
      </trkpt>
      <trkpt lat="50.96954" lon="0.184256">
        <ele>110.2</ele>
        <time>2026-04-24T20:59:49.000Z</time>
      </trkpt>
      <trkpt lat="50.969604" lon="0.184442">
        <ele>110.4</ele>
        <time>2026-04-24T20:59:53.000Z</time>
      </trkpt>
      <trkpt lat="50.969816" lon="0.1853">
        <ele>111.2</ele>
        <time>2026-04-24T21:00:08.000Z</time>
      </trkpt>
      <trkpt lat="50.970083" lon="0.186603">
        <ele>111.2</ele>
        <time>2026-04-24T21:00:31.000Z</time>
      </trkpt>
      <trkpt lat="50.970165" lon="0.187111">
        <ele>111</ele>
        <time>2026-04-24T21:00:40.000Z</time>
      </trkpt>
      <trkpt lat="50.970235" lon="0.187726">
        <ele>111.4</ele>
        <time>2026-04-24T21:00:51.000Z</time>
      </trkpt>
      <trkpt lat="50.970462" lon="0.18868">
        <ele>111.6</ele>
        <time>2026-04-24T21:01:08.000Z</time>
      </trkpt>
      <trkpt lat="50.970479" lon="0.188862">
        <ele>112</ele>
        <time>2026-04-24T21:01:11.000Z</time>
      </trkpt>
      <trkpt lat="50.970529" lon="0.189033">
        <ele>112</ele>
        <time>2026-04-24T21:01:14.000Z</time>
      </trkpt>
      <trkpt lat="50.97056" lon="0.189256">
        <ele>112</ele>
        <time>2026-04-24T21:01:18.000Z</time>
      </trkpt>
      <trkpt lat="50.970542" lon="0.189357">
        <ele>112.2</ele>
        <time>2026-04-24T21:01:20.000Z</time>
      </trkpt>
      <trkpt lat="50.970613" lon="0.189544">
        <ele>112.8</ele>
        <time>2026-04-24T21:01:23.000Z</time>
      </trkpt>
      <trkpt lat="50.970641" lon="0.189752">
        <ele>113.4</ele>
        <time>2026-04-24T21:01:27.000Z</time>
      </trkpt>
      <trkpt lat="50.970692" lon="0.189944">
        <ele>114</ele>
        <time>2026-04-24T21:01:31.000Z</time>
      </trkpt>
      <trkpt lat="50.970748" lon="0.190073">
        <ele>114</ele>
        <time>2026-04-24T21:01:33.000Z</time>
      </trkpt>
      <trkpt lat="50.970787" lon="0.19022">
        <ele>114.6</ele>
        <time>2026-04-24T21:01:36.000Z</time>
      </trkpt>
      <trkpt lat="50.970846" lon="0.190337">
        <ele>114.6</ele>
        <time>2026-04-24T21:01:38.000Z</time>
      </trkpt>
      <trkpt lat="50.97089" lon="0.190556">
        <ele>115</ele>
        <time>2026-04-24T21:01:42.000Z</time>
      </trkpt>
      <trkpt lat="50.970991" lon="0.190784">
        <ele>115.6</ele>
        <time>2026-04-24T21:01:47.000Z</time>
      </trkpt>
      <trkpt lat="50.971045" lon="0.191146">
        <ele>116.8</ele>
        <time>2026-04-24T21:01:53.000Z</time>
      </trkpt>
      <trkpt lat="50.971119" lon="0.191365">
        <ele>117</ele>
        <time>2026-04-24T21:01:57.000Z</time>
      </trkpt>
      <trkpt lat="50.971245" lon="0.191876">
        <ele>118.4</ele>
        <time>2026-04-24T21:02:07.000Z</time>
      </trkpt>
      <trkpt lat="50.971735" lon="0.193673">
        <ele>117.8</ele>
        <time>2026-04-24T21:02:39.000Z</time>
      </trkpt>
      <trkpt lat="50.972088" lon="0.194802">
        <ele>117.6</ele>
        <time>2026-04-24T21:03:01.000Z</time>
      </trkpt>
      <trkpt lat="50.972211" lon="0.195375">
        <ele>117.4</ele>
        <time>2026-04-24T21:03:11.000Z</time>
      </trkpt>
      <trkpt lat="50.972304" lon="0.195691">
        <ele>117.2</ele>
        <time>2026-04-24T21:03:17.000Z</time>
      </trkpt>
      <trkpt lat="50.972328" lon="0.195892">
        <ele>117.2</ele>
        <time>2026-04-24T21:03:20.000Z</time>
      </trkpt>
      <trkpt lat="50.97244" lon="0.196275">
        <ele>117.2</ele>
        <time>2026-04-24T21:03:27.000Z</time>
      </trkpt>
      <trkpt lat="50.972573" lon="0.197031">
        <ele>118</ele>
        <time>2026-04-24T21:03:40.000Z</time>
      </trkpt>
      <trkpt lat="50.972612" lon="0.197402">
        <ele>119</ele>
        <time>2026-04-24T21:03:47.000Z</time>
      </trkpt>
      <trkpt lat="50.97261" lon="0.197541">
        <ele>119.6</ele>
        <time>2026-04-24T21:03:49.000Z</time>
      </trkpt>
      <trkpt lat="50.972639" lon="0.197666">
        <ele>119.6</ele>
        <time>2026-04-24T21:03:51.000Z</time>
      </trkpt>
      <trkpt lat="50.972671" lon="0.197968">
        <ele>120.4</ele>
        <time>2026-04-24T21:03:56.000Z</time>
      </trkpt>
      <trkpt lat="50.972652" lon="0.198206">
        <ele>121</ele>
        <time>2026-04-24T21:04:01.000Z</time>
      </trkpt>
      <trkpt lat="50.972707" lon="0.198479">
        <ele>121.6</ele>
        <time>2026-04-24T21:04:05.000Z</time>
      </trkpt>
      <trkpt lat="50.97275" lon="0.198885">
        <ele>122.4</ele>
        <time>2026-04-24T21:04:12.000Z</time>
      </trkpt>
      <trkpt lat="50.972796" lon="0.199116">
        <ele>122.6</ele>
        <time>2026-04-24T21:04:16.000Z</time>
      </trkpt>
      <trkpt lat="50.972794" lon="0.199684">
        <ele>123.2</ele>
        <time>2026-04-24T21:04:26.000Z</time>
      </trkpt>
      <trkpt lat="50.972817" lon="0.19998">
        <ele>123.2</ele>
        <time>2026-04-24T21:04:31.000Z</time>
      </trkpt>
      <trkpt lat="50.972831" lon="0.200586">
        <ele>123.6</ele>
        <time>2026-04-24T21:04:41.000Z</time>
      </trkpt>
      <trkpt lat="50.972812" lon="0.200892">
        <ele>123.6</ele>
        <time>2026-04-24T21:04:46.000Z</time>
      </trkpt>
      <trkpt lat="50.972866" lon="0.20124">
        <ele>123.8</ele>
        <time>2026-04-24T21:04:52.000Z</time>
      </trkpt>
      <trkpt lat="50.972873" lon="0.201892">
        <ele>124.8</ele>
        <time>2026-04-24T21:05:03.000Z</time>
      </trkpt>
      <trkpt lat="50.972833" lon="0.202646">
        <ele>126</ele>
        <time>2026-04-24T21:05:16.000Z</time>
      </trkpt>
      <trkpt lat="50.972837" lon="0.202834">
        <ele>126.6</ele>
        <time>2026-04-24T21:05:19.000Z</time>
      </trkpt>
      <trkpt lat="50.972873" lon="0.203028">
        <ele>126.6</ele>
        <time>2026-04-24T21:05:23.000Z</time>
      </trkpt>
      <trkpt lat="50.972886" lon="0.203272">
        <ele>126.6</ele>
        <time>2026-04-24T21:05:27.000Z</time>
      </trkpt>
      <trkpt lat="50.972865" lon="0.203609">
        <ele>126.4</ele>
        <time>2026-04-24T21:05:32.000Z</time>
      </trkpt>
      <trkpt lat="50.972885" lon="0.204061">
        <ele>126.8</ele>
        <time>2026-04-24T21:05:40.000Z</time>
      </trkpt>
      <trkpt lat="50.972863" lon="0.20436">
        <ele>126.8</ele>
        <time>2026-04-24T21:05:45.000Z</time>
      </trkpt>
      <trkpt lat="50.972895" lon="0.205107">
        <ele>127.2</ele>
        <time>2026-04-24T21:05:58.000Z</time>
      </trkpt>
      <trkpt lat="50.972864" lon="0.205635">
        <ele>127.6</ele>
        <time>2026-04-24T21:06:06.000Z</time>
      </trkpt>
      <trkpt lat="50.972892" lon="0.20722">
        <ele>130.2</ele>
        <time>2026-04-24T21:06:33.000Z</time>
      </trkpt>
      <trkpt lat="50.972866" lon="0.207763">
        <ele>131</ele>
        <time>2026-04-24T21:06:42.000Z</time>
      </trkpt>
      <trkpt lat="50.972875" lon="0.208135">
        <ele>132.4</ele>
        <time>2026-04-24T21:06:49.000Z</time>
      </trkpt>
      <trkpt lat="50.972901" lon="0.208395">
        <ele>133.8</ele>
        <time>2026-04-24T21:06:53.000Z</time>
      </trkpt>
      <trkpt lat="50.972902" lon="0.208816">
        <ele>136</ele>
        <time>2026-04-24T21:07:00.000Z</time>
      </trkpt>
      <trkpt lat="50.972837" lon="0.209493">
        <ele>138.2</ele>
        <time>2026-04-24T21:07:12.000Z</time>
      </trkpt>
      <trkpt lat="50.972885" lon="0.209833">
        <ele>139.4</ele>
        <time>2026-04-24T21:07:17.000Z</time>
      </trkpt>
      <trkpt lat="50.972829" lon="0.210215">
        <ele>139.8</ele>
        <time>2026-04-24T21:07:24.000Z</time>
      </trkpt>
      <trkpt lat="50.972831" lon="0.210351">
        <ele>140.2</ele>
        <time>2026-04-24T21:07:26.000Z</time>
      </trkpt>
      <trkpt lat="50.972856" lon="0.210478">
        <ele>140.4</ele>
        <time>2026-04-24T21:07:29.000Z</time>
      </trkpt>
      <trkpt lat="50.972836" lon="0.21066">
        <ele>140.8</ele>
        <time>2026-04-24T21:07:32.000Z</time>
      </trkpt>
      <trkpt lat="50.972901" lon="0.210914">
        <ele>142.2</ele>
        <time>2026-04-24T21:07:36.000Z</time>
      </trkpt>
      <trkpt lat="50.972847" lon="0.211071">
        <ele>142.8</ele>
        <time>2026-04-24T21:07:39.000Z</time>
      </trkpt>
      <trkpt lat="50.972817" lon="0.211305">
        <ele>143.4</ele>
        <time>2026-04-24T21:07:43.000Z</time>
      </trkpt>
      <trkpt lat="50.972804" lon="0.211584">
        <ele>144</ele>
        <time>2026-04-24T21:07:48.000Z</time>
      </trkpt>
      <trkpt lat="50.972809" lon="0.2119">
        <ele>145</ele>
        <time>2026-04-24T21:07:53.000Z</time>
      </trkpt>
      <trkpt lat="50.972859" lon="0.212337">
        <ele>147</ele>
        <time>2026-04-24T21:08:01.000Z</time>
      </trkpt>
      <trkpt lat="50.97284" lon="0.212453">
        <ele>147.6</ele>
        <time>2026-04-24T21:08:03.000Z</time>
      </trkpt>
      <trkpt lat="50.972874" lon="0.212632">
        <ele>148.6</ele>
        <time>2026-04-24T21:08:06.000Z</time>
      </trkpt>
      <trkpt lat="50.972875" lon="0.213342">
        <ele>151.2</ele>
        <time>2026-04-24T21:08:18.000Z</time>
      </trkpt>
      <trkpt lat="50.972845" lon="0.213676">
        <ele>152.6</ele>
        <time>2026-04-24T21:08:24.000Z</time>
      </trkpt>
      <trkpt lat="50.972838" lon="0.21416">
        <ele>154.6</ele>
        <time>2026-04-24T21:08:32.000Z</time>
      </trkpt>
      <trkpt lat="50.972805" lon="0.214376">
        <ele>155.4</ele>
        <time>2026-04-24T21:08:35.000Z</time>
      </trkpt>
      <trkpt lat="50.972797" lon="0.214604">
        <ele>156.2</ele>
        <time>2026-04-24T21:08:39.000Z</time>
      </trkpt>
      <trkpt lat="50.972722" lon="0.215031">
        <ele>157.4</ele>
        <time>2026-04-24T21:08:47.000Z</time>
      </trkpt>
      <trkpt lat="50.972711" lon="0.215379">
        <ele>157.8</ele>
        <time>2026-04-24T21:08:53.000Z</time>
      </trkpt>
      <trkpt lat="50.972758" lon="0.215853">
        <ele>157.8</ele>
        <time>2026-04-24T21:09:01.000Z</time>
      </trkpt>
      <trkpt lat="50.973109" lon="0.218155">
        <ele>154</ele>
        <time>2026-04-24T21:09:40.000Z</time>
      </trkpt>
      <trkpt lat="50.973233" lon="0.21912">
        <ele>152</ele>
        <time>2026-04-24T21:09:57.000Z</time>
      </trkpt>
      <trkpt lat="50.97325" lon="0.21941">
        <ele>151.8</ele>
        <time>2026-04-24T21:10:02.000Z</time>
      </trkpt>
      <trkpt lat="50.973252" lon="0.220064">
        <ele>151</ele>
        <time>2026-04-24T21:10:13.000Z</time>
      </trkpt>
      <trkpt lat="50.973222" lon="0.220106">
        <ele>150.6</ele>
        <time>2026-04-24T21:10:14.000Z</time>
      </trkpt>
      <trkpt lat="50.973175" lon="0.220102">
        <ele>150</ele>
        <time>2026-04-24T21:10:15.000Z</time>
      </trkpt>
      <trkpt lat="50.973131" lon="0.220122">
        <ele>149</ele>
        <time>2026-04-24T21:10:16.000Z</time>
      </trkpt>
      <trkpt lat="50.973246" lon="0.220085">
        <ele>147.2</ele>
        <time>2026-04-24T21:10:20.000Z</time>
      </trkpt>
      <trkpt lat="50.973285" lon="0.220095">
        <ele>147.4</ele>
        <time>2026-04-24T21:10:21.000Z</time>
      </trkpt>
      <trkpt lat="50.973332" lon="0.220304">
        <ele>147</ele>
        <time>2026-04-24T21:10:24.000Z</time>
      </trkpt>
      <trkpt lat="50.973407" lon="0.222184">
        <ele>145.8</ele>
        <time>2026-04-24T21:10:56.000Z</time>
      </trkpt>
      <trkpt lat="50.973449" lon="0.222679">
        <ele>145.6</ele>
        <time>2026-04-24T21:11:04.000Z</time>
      </trkpt>
      <trkpt lat="50.973552" lon="0.223514">
        <ele>145.2</ele>
        <time>2026-04-24T21:11:19.000Z</time>
      </trkpt>
      <trkpt lat="50.973593" lon="0.223631">
        <ele>145.2</ele>
        <time>2026-04-24T21:11:21.000Z</time>
      </trkpt>
      <trkpt lat="50.973627" lon="0.223684">
        <ele>145.2</ele>
        <time>2026-04-24T21:11:22.000Z</time>
      </trkpt>
      <trkpt lat="50.973679" lon="0.223724">
        <ele>143.4</ele>
        <time>2026-04-24T21:11:24.000Z</time>
      </trkpt>
      <trkpt lat="50.973701" lon="0.223789">
        <ele>143.4</ele>
        <time>2026-04-24T21:11:25.000Z</time>
      </trkpt>
      <trkpt lat="50.973703" lon="0.223896">
        <ele>143.4</ele>
        <time>2026-04-24T21:11:27.000Z</time>
      </trkpt>
      <trkpt lat="50.973613" lon="0.224344">
        <ele>143.2</ele>
        <time>2026-04-24T21:11:35.000Z</time>
      </trkpt>
      <trkpt lat="50.973579" lon="0.224686">
        <ele>143.2</ele>
        <time>2026-04-24T21:11:41.000Z</time>
      </trkpt>
      <trkpt lat="50.973596" lon="0.226059">
        <ele>144.6</ele>
        <time>2026-04-24T21:12:04.000Z</time>
      </trkpt>
      <trkpt lat="50.973589" lon="0.227437">
        <ele>146.2</ele>
        <time>2026-04-24T21:12:27.000Z</time>
      </trkpt>
      <trkpt lat="50.973636" lon="0.228169">
        <ele>146.6</ele>
        <time>2026-04-24T21:12:39.000Z</time>
      </trkpt>
      <trkpt lat="50.973808" lon="0.229948">
        <ele>148.2</ele>
        <time>2026-04-24T21:13:09.000Z</time>
      </trkpt>
      <trkpt lat="50.973816" lon="0.230341">
        <ele>148.8</ele>
        <time>2026-04-24T21:13:16.000Z</time>
      </trkpt>
      <trkpt lat="50.97379" lon="0.230583">
        <ele>149</ele>
        <time>2026-04-24T21:13:20.000Z</time>
      </trkpt>
      <trkpt lat="50.973727" lon="0.230904">
        <ele>149</ele>
        <time>2026-04-24T21:13:26.000Z</time>
      </trkpt>
      <trkpt lat="50.973543" lon="0.231637">
        <ele>148.6</ele>
        <time>2026-04-24T21:13:39.000Z</time>
      </trkpt>
      <trkpt lat="50.973263" lon="0.23258">
        <ele>146.8</ele>
        <time>2026-04-24T21:13:57.000Z</time>
      </trkpt>
      <trkpt lat="50.97302" lon="0.233236">
        <ele>145.2</ele>
        <time>2026-04-24T21:14:09.000Z</time>
      </trkpt>
      <trkpt lat="50.972837" lon="0.233659">
        <ele>144.4</ele>
        <time>2026-04-24T21:14:18.000Z</time>
      </trkpt>
      <trkpt lat="50.972012" lon="0.235209">
        <ele>142.4</ele>
        <time>2026-04-24T21:14:52.000Z</time>
      </trkpt>
      <trkpt lat="50.970944" lon="0.237338">
        <ele>142.2</ele>
        <time>2026-04-24T21:15:38.000Z</time>
      </trkpt>
      <trkpt lat="50.970636" lon="0.238069">
        <ele>140</ele>
        <time>2026-04-24T21:15:53.000Z</time>
      </trkpt>
      <trkpt lat="50.970116" lon="0.239456">
        <ele>138.2</ele>
        <time>2026-04-24T21:16:20.000Z</time>
      </trkpt>
      <trkpt lat="50.969936" lon="0.240081">
        <ele>138.2</ele>
        <time>2026-04-24T21:16:31.000Z</time>
      </trkpt>
      <trkpt lat="50.969839" lon="0.240558">
        <ele>138.2</ele>
        <time>2026-04-24T21:16:40.000Z</time>
      </trkpt>
      <trkpt lat="50.969751" lon="0.24129">
        <ele>139.4</ele>
        <time>2026-04-24T21:16:52.000Z</time>
      </trkpt>
      <trkpt lat="50.969741" lon="0.241919">
        <ele>141.2</ele>
        <time>2026-04-24T21:17:03.000Z</time>
      </trkpt>
      <trkpt lat="50.96999" lon="0.244864">
        <ele>144.6</ele>
        <time>2026-04-24T21:17:53.000Z</time>
      </trkpt>
      <trkpt lat="50.970073" lon="0.246038">
        <ele>145.6</ele>
        <time>2026-04-24T21:18:13.000Z</time>
      </trkpt>
      <trkpt lat="50.970147" lon="0.246534">
        <ele>145.6</ele>
        <time>2026-04-24T21:18:21.000Z</time>
      </trkpt>
      <trkpt lat="50.970488" lon="0.247781">
        <ele>143.6</ele>
        <time>2026-04-24T21:18:44.000Z</time>
      </trkpt>
      <trkpt lat="50.970745" lon="0.248491">
        <ele>143</ele>
        <time>2026-04-24T21:18:58.000Z</time>
      </trkpt>
      <trkpt lat="50.971013" lon="0.249405">
        <ele>143.4</ele>
        <time>2026-04-24T21:19:15.000Z</time>
      </trkpt>
      <trkpt lat="50.971289" lon="0.250196">
        <ele>144.2</ele>
        <time>2026-04-24T21:19:30.000Z</time>
      </trkpt>
      <trkpt lat="50.971676" lon="0.251632">
        <ele>144.8</ele>
        <time>2026-04-24T21:19:56.000Z</time>
      </trkpt>
      <trkpt lat="50.97186" lon="0.252127">
        <ele>145.6</ele>
        <time>2026-04-24T21:20:06.000Z</time>
      </trkpt>
      <trkpt lat="50.972075" lon="0.252781">
        <ele>146.8</ele>
        <time>2026-04-24T21:20:18.000Z</time>
      </trkpt>
      <trkpt lat="50.97221" lon="0.253344">
        <ele>148.6</ele>
        <time>2026-04-24T21:20:28.000Z</time>
      </trkpt>
      <trkpt lat="50.97226" lon="0.253464">
        <ele>149.6</ele>
        <time>2026-04-24T21:20:31.000Z</time>
      </trkpt>
      <trkpt lat="50.972573" lon="0.254821">
        <ele>152.2</ele>
        <time>2026-04-24T21:20:55.000Z</time>
      </trkpt>
      <trkpt lat="50.972951" lon="0.25678">
        <ele>154.8</ele>
        <time>2026-04-24T21:21:30.000Z</time>
      </trkpt>
      <trkpt lat="50.973132" lon="0.257819">
        <ele>158.4</ele>
        <time>2026-04-24T21:21:48.000Z</time>
      </trkpt>
      <trkpt lat="50.973324" lon="0.259278">
        <ele>164.2</ele>
        <time>2026-04-24T21:22:13.000Z</time>
      </trkpt>
      <trkpt lat="50.973404" lon="0.260188">
        <ele>168.6</ele>
        <time>2026-04-24T21:22:28.000Z</time>
      </trkpt>
      <trkpt lat="50.973452" lon="0.261104">
        <ele>171.6</ele>
        <time>2026-04-24T21:22:44.000Z</time>
      </trkpt>
      <trkpt lat="50.973478" lon="0.262078">
        <ele>172.4</ele>
        <time>2026-04-24T21:23:00.000Z</time>
      </trkpt>
      <trkpt lat="50.973541" lon="0.262905">
        <ele>173.6</ele>
        <time>2026-04-24T21:23:14.000Z</time>
      </trkpt>
      <trkpt lat="50.973566" lon="0.263919">
        <ele>173.6</ele>
        <time>2026-04-24T21:23:31.000Z</time>
      </trkpt>
      <trkpt lat="50.973665" lon="0.265906">
        <ele>173.2</ele>
        <time>2026-04-24T21:24:05.000Z</time>
      </trkpt>
      <trkpt lat="50.973708" lon="0.267204">
        <ele>172.8</ele>
        <time>2026-04-24T21:24:26.000Z</time>
      </trkpt>
      <trkpt lat="50.973699" lon="0.267423">
        <ele>172.6</ele>
        <time>2026-04-24T21:24:30.000Z</time>
      </trkpt>
      <trkpt lat="50.973565" lon="0.268104">
        <ele>172.4</ele>
        <time>2026-04-24T21:24:42.000Z</time>
      </trkpt>
      <trkpt lat="50.973428" lon="0.268617">
        <ele>171.8</ele>
        <time>2026-04-24T21:24:52.000Z</time>
      </trkpt>
      <trkpt lat="50.973289" lon="0.268976">
        <ele>170.8</ele>
        <time>2026-04-24T21:24:59.000Z</time>
      </trkpt>
      <trkpt lat="50.973114" lon="0.269323">
        <ele>169.8</ele>
        <time>2026-04-24T21:25:06.000Z</time>
      </trkpt>
      <trkpt lat="50.972902" lon="0.269629">
        <ele>168.6</ele>
        <time>2026-04-24T21:25:14.000Z</time>
      </trkpt>
      <trkpt lat="50.972164" lon="0.270552">
        <ele>164.6</ele>
        <time>2026-04-24T21:25:39.000Z</time>
      </trkpt>
      <trkpt lat="50.970535" lon="0.272668">
        <ele>159.2</ele>
        <time>2026-04-24T21:26:35.000Z</time>
      </trkpt>
      <trkpt lat="50.969701" lon="0.273719">
        <ele>156.8</ele>
        <time>2026-04-24T21:27:03.000Z</time>
      </trkpt>
      <trkpt lat="50.969432" lon="0.274077">
        <ele>156</ele>
        <time>2026-04-24T21:27:13.000Z</time>
      </trkpt>
      <trkpt lat="50.969305" lon="0.274279">
        <ele>154.8</ele>
        <time>2026-04-24T21:27:18.000Z</time>
      </trkpt>
      <trkpt lat="50.969147" lon="0.274635">
        <ele>153.6</ele>
        <time>2026-04-24T21:27:25.000Z</time>
      </trkpt>
      <trkpt lat="50.969063" lon="0.274895">
        <ele>152.6</ele>
        <time>2026-04-24T21:27:30.000Z</time>
      </trkpt>
      <trkpt lat="50.968863" lon="0.275737">
        <ele>150.6</ele>
        <time>2026-04-24T21:27:45.000Z</time>
      </trkpt>
      <trkpt lat="50.968724" lon="0.276144">
        <ele>149.8</ele>
        <time>2026-04-24T21:27:53.000Z</time>
      </trkpt>
      <trkpt lat="50.968546" lon="0.276496">
        <ele>149</ele>
        <time>2026-04-24T21:28:00.000Z</time>
      </trkpt>
      <trkpt lat="50.968158" lon="0.277103">
        <ele>147.6</ele>
        <time>2026-04-24T21:28:15.000Z</time>
      </trkpt>
      <trkpt lat="50.967964" lon="0.277518">
        <ele>147</ele>
        <time>2026-04-24T21:28:24.000Z</time>
      </trkpt>
      <trkpt lat="50.967737" lon="0.278198">
        <ele>146.6</ele>
        <time>2026-04-24T21:28:36.000Z</time>
      </trkpt>
      <trkpt lat="50.967491" lon="0.279108">
        <ele>146.6</ele>
        <time>2026-04-24T21:28:53.000Z</time>
      </trkpt>
      <trkpt lat="50.966634" lon="0.282668">
        <ele>144.2</ele>
        <time>2026-04-24T21:29:57.000Z</time>
      </trkpt>
      <trkpt lat="50.966236" lon="0.284158">
        <ele>144</ele>
        <time>2026-04-24T21:30:24.000Z</time>
      </trkpt>
      <trkpt lat="50.965975" lon="0.28499">
        <ele>144.2</ele>
        <time>2026-04-24T21:30:40.000Z</time>
      </trkpt>
      <trkpt lat="50.965197" lon="0.287208">
        <ele>148</ele>
        <time>2026-04-24T21:31:23.000Z</time>
      </trkpt>
      <trkpt lat="50.964757" lon="0.288588">
        <ele>149.2</ele>
        <time>2026-04-24T21:31:49.000Z</time>
      </trkpt>
      <trkpt lat="50.964637" lon="0.289044">
        <ele>149.4</ele>
        <time>2026-04-24T21:31:57.000Z</time>
      </trkpt>
      <trkpt lat="50.964473" lon="0.289823">
        <ele>150.2</ele>
        <time>2026-04-24T21:32:11.000Z</time>
      </trkpt>
      <trkpt lat="50.964179" lon="0.29135">
        <ele>152.2</ele>
        <time>2026-04-24T21:32:38.000Z</time>
      </trkpt>
      <trkpt lat="50.964049" lon="0.291904">
        <ele>152.4</ele>
        <time>2026-04-24T21:32:48.000Z</time>
      </trkpt>
      <trkpt lat="50.963919" lon="0.292339">
        <ele>152.2</ele>
        <time>2026-04-24T21:32:56.000Z</time>
      </trkpt>
      <trkpt lat="50.963639" lon="0.293128">
        <ele>151.2</ele>
        <time>2026-04-24T21:33:11.000Z</time>
      </trkpt>
      <trkpt lat="50.961764" lon="0.297737">
        <ele>144</ele>
        <time>2026-04-24T21:34:43.000Z</time>
      </trkpt>
      <trkpt lat="50.961522" lon="0.29841">
        <ele>144</ele>
        <time>2026-04-24T21:34:56.000Z</time>
      </trkpt>
      <trkpt lat="50.961442" lon="0.298714">
        <ele>144.4</ele>
        <time>2026-04-24T21:35:02.000Z</time>
      </trkpt>
      <trkpt lat="50.961377" lon="0.299075">
        <ele>145</ele>
        <time>2026-04-24T21:35:08.000Z</time>
      </trkpt>
      <trkpt lat="50.961229" lon="0.300058">
        <ele>148</ele>
        <time>2026-04-24T21:35:25.000Z</time>
      </trkpt>
      <trkpt lat="50.961131" lon="0.30106">
        <ele>149.2</ele>
        <time>2026-04-24T21:35:42.000Z</time>
      </trkpt>
      <trkpt lat="50.960875" lon="0.304537">
        <ele>147.8</ele>
        <time>2026-04-24T21:36:41.000Z</time>
      </trkpt>
      <trkpt lat="50.960555" lon="0.307067">
        <ele>146.6</ele>
        <time>2026-04-24T21:37:24.000Z</time>
      </trkpt>
      <trkpt lat="50.960506" lon="0.307584">
        <ele>146.4</ele>
        <time>2026-04-24T21:37:33.000Z</time>
      </trkpt>
      <trkpt lat="50.960466" lon="0.308254">
        <ele>145.2</ele>
        <time>2026-04-24T21:37:44.000Z</time>
      </trkpt>
      <trkpt lat="50.960417" lon="0.310107">
        <ele>143</ele>
        <time>2026-04-24T21:38:16.000Z</time>
      </trkpt>
      <trkpt lat="50.960376" lon="0.31099">
        <ele>143.6</ele>
        <time>2026-04-24T21:38:31.000Z</time>
      </trkpt>
      <trkpt lat="50.960148" lon="0.313165">
        <ele>145</ele>
        <time>2026-04-24T21:39:08.000Z</time>
      </trkpt>
      <trkpt lat="50.960084" lon="0.313979">
        <ele>144.8</ele>
        <time>2026-04-24T21:39:21.000Z</time>
      </trkpt>
      <trkpt lat="50.960064" lon="0.31493">
        <ele>144.2</ele>
        <time>2026-04-24T21:39:37.000Z</time>
      </trkpt>
      <trkpt lat="50.960083" lon="0.316826">
        <ele>140.8</ele>
        <time>2026-04-24T21:40:09.000Z</time>
      </trkpt>
      <trkpt lat="50.960069" lon="0.318222">
        <ele>138.2</ele>
        <time>2026-04-24T21:40:33.000Z</time>
      </trkpt>
      <trkpt lat="50.960031" lon="0.319045">
        <ele>137.6</ele>
        <time>2026-04-24T21:40:47.000Z</time>
      </trkpt>
      <trkpt lat="50.96" lon="0.319317">
        <ele>137.4</ele>
        <time>2026-04-24T21:40:51.000Z</time>
      </trkpt>
      <trkpt lat="50.959929" lon="0.3197">
        <ele>136.8</ele>
        <time>2026-04-24T21:40:58.000Z</time>
      </trkpt>
      <trkpt lat="50.959807" lon="0.320155">
        <ele>136.4</ele>
        <time>2026-04-24T21:41:06.000Z</time>
      </trkpt>
      <trkpt lat="50.959558" lon="0.320876">
        <ele>136.4</ele>
        <time>2026-04-24T21:41:20.000Z</time>
      </trkpt>
      <trkpt lat="50.958717" lon="0.323168">
        <ele>135</ele>
        <time>2026-04-24T21:42:05.000Z</time>
      </trkpt>
      <trkpt lat="50.957977" lon="0.325102">
        <ele>134</ele>
        <time>2026-04-24T21:42:43.000Z</time>
      </trkpt>
      <trkpt lat="50.957585" lon="0.326212">
        <ele>133</ele>
        <time>2026-04-24T21:43:04.000Z</time>
      </trkpt>
      <trkpt lat="50.95746" lon="0.326638">
        <ele>132.2</ele>
        <time>2026-04-24T21:43:12.000Z</time>
      </trkpt>
      <trkpt lat="50.95742" lon="0.326871">
        <ele>132</ele>
        <time>2026-04-24T21:43:16.000Z</time>
      </trkpt>
      <trkpt lat="50.957396" lon="0.3272">
        <ele>131.8</ele>
        <time>2026-04-24T21:43:22.000Z</time>
      </trkpt>
      <trkpt lat="50.957376" lon="0.32893">
        <ele>130.2</ele>
        <time>2026-04-24T21:43:51.000Z</time>
      </trkpt>
      <trkpt lat="50.95736" lon="0.329322">
        <ele>129.8</ele>
        <time>2026-04-24T21:43:57.000Z</time>
      </trkpt>
      <trkpt lat="50.957316" lon="0.329731">
        <ele>129.2</ele>
        <time>2026-04-24T21:44:04.000Z</time>
      </trkpt>
      <trkpt lat="50.957209" lon="0.330308">
        <ele>128</ele>
        <time>2026-04-24T21:44:14.000Z</time>
      </trkpt>
      <trkpt lat="50.956965" lon="0.331393">
        <ele>125.8</ele>
        <time>2026-04-24T21:44:34.000Z</time>
      </trkpt>
      <trkpt lat="50.956687" lon="0.332452">
        <ele>122.6</ele>
        <time>2026-04-24T21:44:53.000Z</time>
      </trkpt>
      <trkpt lat="50.956493" lon="0.33305">
        <ele>120.8</ele>
        <time>2026-04-24T21:45:04.000Z</time>
      </trkpt>
      <trkpt lat="50.955931" lon="0.334471">
        <ele>116.4</ele>
        <time>2026-04-24T21:45:33.000Z</time>
      </trkpt>
      <trkpt lat="50.955625" lon="0.335038">
        <ele>114.8</ele>
        <time>2026-04-24T21:45:45.000Z</time>
      </trkpt>
      <trkpt lat="50.955357" lon="0.335375">
        <ele>113</ele>
        <time>2026-04-24T21:45:54.000Z</time>
      </trkpt>
      <trkpt lat="50.954561" lon="0.336043">
        <ele>109</ele>
        <time>2026-04-24T21:46:18.000Z</time>
      </trkpt>
      <trkpt lat="50.954354" lon="0.336248">
        <ele>107</ele>
        <time>2026-04-24T21:46:25.000Z</time>
      </trkpt>
      <trkpt lat="50.95415" lon="0.336481">
        <ele>105.2</ele>
        <time>2026-04-24T21:46:32.000Z</time>
      </trkpt>
      <trkpt lat="50.953854" lon="0.336876">
        <ele>103.2</ele>
        <time>2026-04-24T21:46:42.000Z</time>
      </trkpt>
      <trkpt lat="50.953208" lon="0.337944">
        <ele>98.2</ele>
        <time>2026-04-24T21:47:07.000Z</time>
      </trkpt>
      <trkpt lat="50.952917" lon="0.33858">
        <ele>100.6</ele>
        <time>2026-04-24T21:47:20.000Z</time>
      </trkpt>
      <trkpt lat="50.952548" lon="0.339538">
        <ele>104.4</ele>
        <time>2026-04-24T21:47:39.000Z</time>
      </trkpt>
      <trkpt lat="50.951947" lon="0.340846">
        <ele>105.6</ele>
        <time>2026-04-24T21:48:06.000Z</time>
      </trkpt>
      <trkpt lat="50.951867" lon="0.34105">
        <ele>105.2</ele>
        <time>2026-04-24T21:48:10.000Z</time>
      </trkpt>
      <trkpt lat="50.951679" lon="0.341656">
        <ele>103.4</ele>
        <time>2026-04-24T21:48:22.000Z</time>
      </trkpt>
      <trkpt lat="50.951585" lon="0.342095">
        <ele>102.2</ele>
        <time>2026-04-24T21:48:29.000Z</time>
      </trkpt>
      <trkpt lat="50.951497" lon="0.34273">
        <ele>100.2</ele>
        <time>2026-04-24T21:48:40.000Z</time>
      </trkpt>
      <trkpt lat="50.951265" lon="0.344952">
        <ele>92.8</ele>
        <time>2026-04-24T21:49:18.000Z</time>
      </trkpt>
      <trkpt lat="50.95125" lon="0.345657">
        <ele>89.2</ele>
        <time>2026-04-24T21:49:30.000Z</time>
      </trkpt>
      <trkpt lat="50.951316" lon="0.347564">
        <ele>81.2</ele>
        <time>2026-04-24T21:50:02.000Z</time>
      </trkpt>
      <trkpt lat="50.951291" lon="0.348155">
        <ele>79.2</ele>
        <time>2026-04-24T21:50:12.000Z</time>
      </trkpt>
      <trkpt lat="50.951235" lon="0.34845">
        <ele>78.2</ele>
        <time>2026-04-24T21:50:17.000Z</time>
      </trkpt>
      <trkpt lat="50.951186" lon="0.348603">
        <ele>78</ele>
        <time>2026-04-24T21:50:20.000Z</time>
      </trkpt>
      <trkpt lat="50.950897" lon="0.349356">
        <ele>75.8</ele>
        <time>2026-04-24T21:50:35.000Z</time>
      </trkpt>
      <trkpt lat="50.950855" lon="0.349518">
        <ele>75.4</ele>
        <time>2026-04-24T21:50:38.000Z</time>
      </trkpt>
      <trkpt lat="50.950836" lon="0.349841">
        <ele>75</ele>
        <time>2026-04-24T21:50:43.000Z</time>
      </trkpt>
      <trkpt lat="50.950858" lon="0.350534">
        <ele>73</ele>
        <time>2026-04-24T21:50:55.000Z</time>
      </trkpt>
      <trkpt lat="50.950956" lon="0.351348">
        <ele>72.8</ele>
        <time>2026-04-24T21:51:09.000Z</time>
      </trkpt>
      <trkpt lat="50.950996" lon="0.351464">
        <ele>73.4</ele>
        <time>2026-04-24T21:51:11.000Z</time>
      </trkpt>
      <trkpt lat="50.950971" lon="0.351771">
        <ele>75</ele>
        <time>2026-04-24T21:51:16.000Z</time>
      </trkpt>
      <trkpt lat="50.950988" lon="0.351933">
        <ele>76.2</ele>
        <time>2026-04-24T21:51:19.000Z</time>
      </trkpt>
      <trkpt lat="50.950969" lon="0.352059">
        <ele>77</ele>
        <time>2026-04-24T21:51:21.000Z</time>
      </trkpt>
      <trkpt lat="50.950993" lon="0.352255">
        <ele>77.8</ele>
        <time>2026-04-24T21:51:25.000Z</time>
      </trkpt>
      <trkpt lat="50.950982" lon="0.352399">
        <ele>78.4</ele>
        <time>2026-04-24T21:51:27.000Z</time>
      </trkpt>
      <trkpt lat="50.951035" lon="0.352654">
        <ele>79.6</ele>
        <time>2026-04-24T21:51:32.000Z</time>
      </trkpt>
      <trkpt lat="50.951089" lon="0.353055">
        <ele>81.2</ele>
        <time>2026-04-24T21:51:39.000Z</time>
      </trkpt>
      <trkpt lat="50.951202" lon="0.354151">
        <ele>83.8</ele>
        <time>2026-04-24T21:51:57.000Z</time>
      </trkpt>
      <trkpt lat="50.951272" lon="0.354539">
        <ele>84</ele>
        <time>2026-04-24T21:52:04.000Z</time>
      </trkpt>
      <trkpt lat="50.951542" lon="0.355401">
        <ele>84.4</ele>
        <time>2026-04-24T21:52:20.000Z</time>
      </trkpt>
      <trkpt lat="50.951613" lon="0.355851">
        <ele>85.4</ele>
        <time>2026-04-24T21:52:28.000Z</time>
      </trkpt>
      <trkpt lat="50.95161" lon="0.356281">
        <ele>86.6</ele>
        <time>2026-04-24T21:52:35.000Z</time>
      </trkpt>
      <trkpt lat="50.951512" lon="0.35754">
        <ele>89.2</ele>
        <time>2026-04-24T21:52:57.000Z</time>
      </trkpt>
      <trkpt lat="50.951552" lon="0.358285">
        <ele>91.2</ele>
        <time>2026-04-24T21:53:09.000Z</time>
      </trkpt>
      <trkpt lat="50.951653" lon="0.359257">
        <ele>94.4</ele>
        <time>2026-04-24T21:53:26.000Z</time>
      </trkpt>
      <trkpt lat="50.951631" lon="0.359789">
        <ele>98</ele>
        <time>2026-04-24T21:53:35.000Z</time>
      </trkpt>
      <trkpt lat="50.951569" lon="0.360203">
        <ele>101.2</ele>
        <time>2026-04-24T21:53:42.000Z</time>
      </trkpt>
      <trkpt lat="50.951445" lon="0.360621">
        <ele>105</ele>
        <time>2026-04-24T21:53:50.000Z</time>
      </trkpt>
      <trkpt lat="50.951364" lon="0.360787">
        <ele>107.6</ele>
        <time>2026-04-24T21:53:53.000Z</time>
      </trkpt>
      <trkpt lat="50.951185" lon="0.361058">
        <ele>111.2</ele>
        <time>2026-04-24T21:54:00.000Z</time>
      </trkpt>
      <trkpt lat="50.951084" lon="0.36125">
        <ele>113.6</ele>
        <time>2026-04-24T21:54:04.000Z</time>
      </trkpt>
      <trkpt lat="50.951017" lon="0.361421">
        <ele>114.8</ele>
        <time>2026-04-24T21:54:07.000Z</time>
      </trkpt>
      <trkpt lat="50.950774" lon="0.362762">
        <ele>125</ele>
        <time>2026-04-24T21:54:31.000Z</time>
      </trkpt>
      <trkpt lat="50.950691" lon="0.362989">
        <ele>127.4</ele>
        <time>2026-04-24T21:54:35.000Z</time>
      </trkpt>
      <trkpt lat="50.950462" lon="0.363454">
        <ele>132.6</ele>
        <time>2026-04-24T21:54:45.000Z</time>
      </trkpt>
      <trkpt lat="50.950426" lon="0.363584">
        <ele>133.8</ele>
        <time>2026-04-24T21:54:48.000Z</time>
      </trkpt>
      <trkpt lat="50.950382" lon="0.36364">
        <ele>134.8</ele>
        <time>2026-04-24T21:54:49.000Z</time>
      </trkpt>
      <trkpt lat="50.950321" lon="0.363835">
        <ele>137.6</ele>
        <time>2026-04-24T21:54:53.000Z</time>
      </trkpt>
      <trkpt lat="50.950245" lon="0.363997">
        <ele>139.4</ele>
        <time>2026-04-24T21:54:56.000Z</time>
      </trkpt>
      <trkpt lat="50.950241" lon="0.364047">
        <ele>140</ele>
        <time>2026-04-24T21:54:57.000Z</time>
      </trkpt>
      <trkpt lat="50.950099" lon="0.36438">
        <ele>142.6</ele>
        <time>2026-04-24T21:55:04.000Z</time>
      </trkpt>
      <trkpt lat="50.950031" lon="0.36468">
        <ele>144.4</ele>
        <time>2026-04-24T21:55:09.000Z</time>
      </trkpt>
      <trkpt lat="50.950016" lon="0.364875">
        <ele>145.2</ele>
        <time>2026-04-24T21:55:12.000Z</time>
      </trkpt>
      <trkpt lat="50.950044" lon="0.365251">
        <ele>146</ele>
        <time>2026-04-24T21:55:19.000Z</time>
      </trkpt>
      <trkpt lat="50.950109" lon="0.365724">
        <ele>147</ele>
        <time>2026-04-24T21:55:27.000Z</time>
      </trkpt>
      <trkpt lat="50.950154" lon="0.366615">
        <ele>149.8</ele>
        <time>2026-04-24T21:55:42.000Z</time>
      </trkpt>
      <trkpt lat="50.950153" lon="0.36716">
        <ele>152.2</ele>
        <time>2026-04-24T21:55:51.000Z</time>
      </trkpt>
      <trkpt lat="50.950095" lon="0.368554">
        <ele>155.6</ele>
        <time>2026-04-24T21:56:15.000Z</time>
      </trkpt>
      <trkpt lat="50.950087" lon="0.369296">
        <ele>155.6</ele>
        <time>2026-04-24T21:56:27.000Z</time>
      </trkpt>
      <trkpt lat="50.950106" lon="0.369832">
        <ele>155.4</ele>
        <time>2026-04-24T21:56:36.000Z</time>
      </trkpt>
      <trkpt lat="50.950196" lon="0.370753">
        <ele>154.6</ele>
        <time>2026-04-24T21:56:52.000Z</time>
      </trkpt>
      <trkpt lat="50.950271" lon="0.371986">
        <ele>155.4</ele>
        <time>2026-04-24T21:57:13.000Z</time>
      </trkpt>
      <trkpt lat="50.950412" lon="0.373323">
        <ele>157.6</ele>
        <time>2026-04-24T21:57:35.000Z</time>
      </trkpt>
      <trkpt lat="50.950772" lon="0.378317">
        <ele>157.2</ele>
        <time>2026-04-24T21:59:00.000Z</time>
      </trkpt>
      <trkpt lat="50.950743" lon="0.378777">
        <ele>156.2</ele>
        <time>2026-04-24T21:59:08.000Z</time>
      </trkpt>
      <trkpt lat="50.950501" lon="0.379805">
        <ele>153</ele>
        <time>2026-04-24T21:59:26.000Z</time>
      </trkpt>
      <trkpt lat="50.950424" lon="0.380262">
        <ele>151.8</ele>
        <time>2026-04-24T21:59:34.000Z</time>
      </trkpt>
      <trkpt lat="50.950381" lon="0.380631">
        <ele>151.2</ele>
        <time>2026-04-24T21:59:40.000Z</time>
      </trkpt>
      <trkpt lat="50.950363" lon="0.380948">
        <ele>150</ele>
        <time>2026-04-24T21:59:46.000Z</time>
      </trkpt>
      <trkpt lat="50.950385" lon="0.382021">
        <ele>147.4</ele>
        <time>2026-04-24T22:00:04.000Z</time>
      </trkpt>
      <trkpt lat="50.950343" lon="0.382994">
        <ele>145</ele>
        <time>2026-04-24T22:00:20.000Z</time>
      </trkpt>
      <trkpt lat="50.950272" lon="0.384023">
        <ele>140.2</ele>
        <time>2026-04-24T22:00:38.000Z</time>
      </trkpt>
      <trkpt lat="50.950219" lon="0.384493">
        <ele>138.4</ele>
        <time>2026-04-24T22:00:46.000Z</time>
      </trkpt>
      <trkpt lat="50.950157" lon="0.384877">
        <ele>135</ele>
        <time>2026-04-24T22:00:52.000Z</time>
      </trkpt>
      <trkpt lat="50.949868" lon="0.386282">
        <ele>128</ele>
        <time>2026-04-24T22:01:17.000Z</time>
      </trkpt>
      <trkpt lat="50.949706" lon="0.386876">
        <ele>125.2</ele>
        <time>2026-04-24T22:01:28.000Z</time>
      </trkpt>
      <trkpt lat="50.949444" lon="0.387525">
        <ele>121.8</ele>
        <time>2026-04-24T22:01:41.000Z</time>
      </trkpt>
      <trkpt lat="50.949304" lon="0.387968">
        <ele>119.8</ele>
        <time>2026-04-24T22:01:49.000Z</time>
      </trkpt>
      <trkpt lat="50.94899" lon="0.38941">
        <ele>116.4</ele>
        <time>2026-04-24T22:02:15.000Z</time>
      </trkpt>
      <trkpt lat="50.948661" lon="0.391057">
        <ele>115.2</ele>
        <time>2026-04-24T22:02:44.000Z</time>
      </trkpt>
      <trkpt lat="50.94859" lon="0.391766">
        <ele>114</ele>
        <time>2026-04-24T22:02:56.000Z</time>
      </trkpt>
      <trkpt lat="50.948582" lon="0.392817">
        <ele>112.2</ele>
        <time>2026-04-24T22:03:14.000Z</time>
      </trkpt>
      <trkpt lat="50.948556" lon="0.393301">
        <ele>111.2</ele>
        <time>2026-04-24T22:03:22.000Z</time>
      </trkpt>
      <trkpt lat="50.948479" lon="0.393868">
        <ele>110.6</ele>
        <time>2026-04-24T22:03:32.000Z</time>
      </trkpt>
      <trkpt lat="50.948166" lon="0.395739">
        <ele>108.2</ele>
        <time>2026-04-24T22:04:04.000Z</time>
      </trkpt>
      <trkpt lat="50.948094" lon="0.396363">
        <ele>107.4</ele>
        <time>2026-04-24T22:04:15.000Z</time>
      </trkpt>
      <trkpt lat="50.948031" lon="0.396717">
        <ele>107.2</ele>
        <time>2026-04-24T22:04:21.000Z</time>
      </trkpt>
      <trkpt lat="50.947656" lon="0.398222">
        <ele>105.4</ele>
        <time>2026-04-24T22:04:48.000Z</time>
      </trkpt>
      <trkpt lat="50.946972" lon="0.400763">
        <ele>101</ele>
        <time>2026-04-24T22:05:35.000Z</time>
      </trkpt>
      <trkpt lat="50.946552" lon="0.402568">
        <ele>97.8</ele>
        <time>2026-04-24T22:06:07.000Z</time>
      </trkpt>
      <trkpt lat="50.946223" lon="0.404212">
        <ele>94.8</ele>
        <time>2026-04-24T22:06:36.000Z</time>
      </trkpt>
      <trkpt lat="50.946161" lon="0.4046">
        <ele>94.4</ele>
        <time>2026-04-24T22:06:43.000Z</time>
      </trkpt>
      <trkpt lat="50.946132" lon="0.404859">
        <ele>94.2</ele>
        <time>2026-04-24T22:06:47.000Z</time>
      </trkpt>
      <trkpt lat="50.946037" lon="0.406786">
        <ele>94</ele>
        <time>2026-04-24T22:07:20.000Z</time>
      </trkpt>
      <trkpt lat="50.946035" lon="0.407742">
        <ele>94.2</ele>
        <time>2026-04-24T22:07:36.000Z</time>
      </trkpt>
      <trkpt lat="50.946074" lon="0.408336">
        <ele>93.8</ele>
        <time>2026-04-24T22:07:46.000Z</time>
      </trkpt>
      <trkpt lat="50.946147" lon="0.408919">
        <ele>93</ele>
        <time>2026-04-24T22:07:56.000Z</time>
      </trkpt>
      <trkpt lat="50.946422" lon="0.41049">
        <ele>91.4</ele>
        <time>2026-04-24T22:08:23.000Z</time>
      </trkpt>
      <trkpt lat="50.946595" lon="0.411789">
        <ele>89.4</ele>
        <time>2026-04-24T22:08:46.000Z</time>
      </trkpt>
      <trkpt lat="50.946604" lon="0.411972">
        <ele>88.6</ele>
        <time>2026-04-24T22:08:49.000Z</time>
      </trkpt>
      <trkpt lat="50.946575" lon="0.412325">
        <ele>86.6</ele>
        <time>2026-04-24T22:08:55.000Z</time>
      </trkpt>
      <trkpt lat="50.946216" lon="0.413483">
        <ele>80</ele>
        <time>2026-04-24T22:09:17.000Z</time>
      </trkpt>
      <trkpt lat="50.946051" lon="0.414451">
        <ele>75.6</ele>
        <time>2026-04-24T22:09:33.000Z</time>
      </trkpt>
      <trkpt lat="50.945977" lon="0.41473">
        <ele>78.2</ele>
        <time>2026-04-24T22:09:39.000Z</time>
      </trkpt>
      <trkpt lat="50.945846" lon="0.415061">
        <ele>81.8</ele>
        <time>2026-04-24T22:09:45.000Z</time>
      </trkpt>
      <trkpt lat="50.945817" lon="0.415193">
        <ele>82.6</ele>
        <time>2026-04-24T22:09:47.000Z</time>
      </trkpt>
      <trkpt lat="50.945706" lon="0.415457">
        <ele>84.4</ele>
        <time>2026-04-24T22:09:53.000Z</time>
      </trkpt>
      <trkpt lat="50.945635" lon="0.415575">
        <ele>85</ele>
        <time>2026-04-24T22:09:56.000Z</time>
      </trkpt>
      <trkpt lat="50.945523" lon="0.415756">
        <ele>85.8</ele>
        <time>2026-04-24T22:10:00.000Z</time>
      </trkpt>
      <trkpt lat="50.945446" lon="0.415845">
        <ele>86.4</ele>
        <time>2026-04-24T22:10:02.000Z</time>
      </trkpt>
      <trkpt lat="50.945382" lon="0.415961">
        <ele>87.2</ele>
        <time>2026-04-24T22:10:05.000Z</time>
      </trkpt>
      <trkpt lat="50.945252" lon="0.416118">
        <ele>89.4</ele>
        <time>2026-04-24T22:10:09.000Z</time>
      </trkpt>
      <trkpt lat="50.945151" lon="0.416288">
        <ele>91.4</ele>
        <time>2026-04-24T22:10:13.000Z</time>
      </trkpt>
      <trkpt lat="50.945012" lon="0.416593">
        <ele>93.8</ele>
        <time>2026-04-24T22:10:20.000Z</time>
      </trkpt>
      <trkpt lat="50.944958" lon="0.41677">
        <ele>94.8</ele>
        <time>2026-04-24T22:10:23.000Z</time>
      </trkpt>
      <trkpt lat="50.944882" lon="0.416865">
        <ele>95.6</ele>
        <time>2026-04-24T22:10:25.000Z</time>
      </trkpt>
      <trkpt lat="50.944881" lon="0.416999">
        <ele>96.6</ele>
        <time>2026-04-24T22:10:28.000Z</time>
      </trkpt>
      <trkpt lat="50.944814" lon="0.417143">
        <ele>97.4</ele>
        <time>2026-04-24T22:10:31.000Z</time>
      </trkpt>
      <trkpt lat="50.944783" lon="0.417294">
        <ele>98.4</ele>
        <time>2026-04-24T22:10:33.000Z</time>
      </trkpt>
      <trkpt lat="50.944674" lon="0.417457">
        <ele>99.2</ele>
        <time>2026-04-24T22:10:37.000Z</time>
      </trkpt>
      <trkpt lat="50.944622" lon="0.417586">
        <ele>100</ele>
        <time>2026-04-24T22:10:40.000Z</time>
      </trkpt>
      <trkpt lat="50.944622" lon="0.417626">
        <ele>100.2</ele>
        <time>2026-04-24T22:10:41.000Z</time>
      </trkpt>
      <trkpt lat="50.944507" lon="0.417908">
        <ele>101.4</ele>
        <time>2026-04-24T22:10:46.000Z</time>
      </trkpt>
      <trkpt lat="50.944501" lon="0.418017">
        <ele>102.2</ele>
        <time>2026-04-24T22:10:48.000Z</time>
      </trkpt>
      <trkpt lat="50.944455" lon="0.418128">
        <ele>102.8</ele>
        <time>2026-04-24T22:10:50.000Z</time>
      </trkpt>
      <trkpt lat="50.944425" lon="0.418299">
        <ele>103.6</ele>
        <time>2026-04-24T22:10:53.000Z</time>
      </trkpt>
      <trkpt lat="50.944375" lon="0.418415">
        <ele>104.4</ele>
        <time>2026-04-24T22:10:56.000Z</time>
      </trkpt>
      <trkpt lat="50.944379" lon="0.4185">
        <ele>104.8</ele>
        <time>2026-04-24T22:10:57.000Z</time>
      </trkpt>
      <trkpt lat="50.944324" lon="0.418783">
        <ele>106.4</ele>
        <time>2026-04-24T22:11:02.000Z</time>
      </trkpt>
      <trkpt lat="50.944323" lon="0.418878">
        <ele>107</ele>
        <time>2026-04-24T22:11:04.000Z</time>
      </trkpt>
      <trkpt lat="50.944344" lon="0.41897">
        <ele>107.4</ele>
        <time>2026-04-24T22:11:05.000Z</time>
      </trkpt>
      <trkpt lat="50.944323" lon="0.41932">
        <ele>109.2</ele>
        <time>2026-04-24T22:11:11.000Z</time>
      </trkpt>
      <trkpt lat="50.944274" lon="0.41952">
        <ele>110.6</ele>
        <time>2026-04-24T22:11:15.000Z</time>
      </trkpt>
      <trkpt lat="50.944301" lon="0.419585">
        <ele>111</ele>
        <time>2026-04-24T22:11:16.000Z</time>
      </trkpt>
      <trkpt lat="50.944313" lon="0.419787">
        <ele>112.4</ele>
        <time>2026-04-24T22:11:20.000Z</time>
      </trkpt>
      <trkpt lat="50.944281" lon="0.419894">
        <ele>112.8</ele>
        <time>2026-04-24T22:11:22.000Z</time>
      </trkpt>
      <trkpt lat="50.944285" lon="0.42009">
        <ele>114.6</ele>
        <time>2026-04-24T22:11:25.000Z</time>
      </trkpt>
      <trkpt lat="50.944252" lon="0.420607">
        <ele>115.8</ele>
        <time>2026-04-24T22:11:34.000Z</time>
      </trkpt>
      <trkpt lat="50.944269" lon="0.421683">
        <ele>118.4</ele>
        <time>2026-04-24T22:11:52.000Z</time>
      </trkpt>
      <trkpt lat="50.944316" lon="0.42214">
        <ele>119.6</ele>
        <time>2026-04-24T22:12:00.000Z</time>
      </trkpt>
      <trkpt lat="50.944337" lon="0.422639">
        <ele>120.8</ele>
        <time>2026-04-24T22:12:08.000Z</time>
      </trkpt>
      <trkpt lat="50.944233" lon="0.423945">
        <ele>123</ele>
        <time>2026-04-24T22:12:30.000Z</time>
      </trkpt>
      <trkpt lat="50.944183" lon="0.424976">
        <ele>125.4</ele>
        <time>2026-04-24T22:12:47.000Z</time>
      </trkpt>
      <trkpt lat="50.944161" lon="0.425241">
        <ele>126</ele>
        <time>2026-04-24T22:12:52.000Z</time>
      </trkpt>
      <trkpt lat="50.944118" lon="0.425471">
        <ele>126.6</ele>
        <time>2026-04-24T22:12:56.000Z</time>
      </trkpt>
      <trkpt lat="50.944133" lon="0.425901">
        <ele>129.4</ele>
        <time>2026-04-24T22:13:03.000Z</time>
      </trkpt>
      <trkpt lat="50.944095" lon="0.426084">
        <ele>130.4</ele>
        <time>2026-04-24T22:13:07.000Z</time>
      </trkpt>
      <trkpt lat="50.944082" lon="0.426255">
        <ele>130.8</ele>
        <time>2026-04-24T22:13:09.000Z</time>
      </trkpt>
      <trkpt lat="50.944014" lon="0.426552">
        <ele>132</ele>
        <time>2026-04-24T22:13:15.000Z</time>
      </trkpt>
      <trkpt lat="50.94401" lon="0.426646">
        <ele>132.6</ele>
        <time>2026-04-24T22:13:16.000Z</time>
      </trkpt>
      <trkpt lat="50.943953" lon="0.426852">
        <ele>133.6</ele>
        <time>2026-04-24T22:13:20.000Z</time>
      </trkpt>
      <trkpt lat="50.943939" lon="0.427101">
        <ele>134.6</ele>
        <time>2026-04-24T22:13:24.000Z</time>
      </trkpt>
      <trkpt lat="50.943874" lon="0.427346">
        <ele>136</ele>
        <time>2026-04-24T22:13:29.000Z</time>
      </trkpt>
      <trkpt lat="50.943764" lon="0.427594">
        <ele>137.2</ele>
        <time>2026-04-24T22:13:34.000Z</time>
      </trkpt>
      <trkpt lat="50.943611" lon="0.427801">
        <ele>138.8</ele>
        <time>2026-04-24T22:13:39.000Z</time>
      </trkpt>
      <trkpt lat="50.94348" lon="0.428074">
        <ele>139.8</ele>
        <time>2026-04-24T22:13:45.000Z</time>
      </trkpt>
      <trkpt lat="50.94338" lon="0.428514">
        <ele>140.4</ele>
        <time>2026-04-24T22:13:53.000Z</time>
      </trkpt>
      <trkpt lat="50.94318" lon="0.429722">
        <ele>139.4</ele>
        <time>2026-04-24T22:14:14.000Z</time>
      </trkpt>
      <trkpt lat="50.943018" lon="0.430464">
        <ele>139</ele>
        <time>2026-04-24T22:14:27.000Z</time>
      </trkpt>
      <trkpt lat="50.942576" lon="0.432046">
        <ele>137.4</ele>
        <time>2026-04-24T22:14:56.000Z</time>
      </trkpt>
      <trkpt lat="50.942468" lon="0.432347">
        <ele>137</ele>
        <time>2026-04-24T22:15:02.000Z</time>
      </trkpt>
      <trkpt lat="50.942337" lon="0.432628">
        <ele>136.4</ele>
        <time>2026-04-24T22:15:08.000Z</time>
      </trkpt>
      <trkpt lat="50.942305" lon="0.432755">
        <ele>136.2</ele>
        <time>2026-04-24T22:15:10.000Z</time>
      </trkpt>
      <trkpt lat="50.942287" lon="0.432956">
        <ele>136</ele>
        <time>2026-04-24T22:15:14.000Z</time>
      </trkpt>
      <trkpt lat="50.942207" lon="0.433369">
        <ele>135.2</ele>
        <time>2026-04-24T22:15:21.000Z</time>
      </trkpt>
      <trkpt lat="50.941998" lon="0.434834">
        <ele>134.8</ele>
        <time>2026-04-24T22:15:46.000Z</time>
      </trkpt>
      <trkpt lat="50.94188" lon="0.435533">
        <ele>135</ele>
        <time>2026-04-24T22:15:58.000Z</time>
      </trkpt>
      <trkpt lat="50.941745" lon="0.436164">
        <ele>135</ele>
        <time>2026-04-24T22:16:10.000Z</time>
      </trkpt>
      <trkpt lat="50.94147" lon="0.437286">
        <ele>134</ele>
        <time>2026-04-24T22:16:30.000Z</time>
      </trkpt>
      <trkpt lat="50.941298" lon="0.438481">
        <ele>132.6</ele>
        <time>2026-04-24T22:16:50.000Z</time>
      </trkpt>
      <trkpt lat="50.941108" lon="0.440192">
        <ele>129.8</ele>
        <time>2026-04-24T22:17:20.000Z</time>
      </trkpt>
      <trkpt lat="50.940895" lon="0.441835">
        <ele>128.2</ele>
        <time>2026-04-24T22:17:48.000Z</time>
      </trkpt>
      <trkpt lat="50.940864" lon="0.442378">
        <ele>128.2</ele>
        <time>2026-04-24T22:17:57.000Z</time>
      </trkpt>
      <trkpt lat="50.940861" lon="0.443112">
        <ele>128.8</ele>
        <time>2026-04-24T22:18:09.000Z</time>
      </trkpt>
      <trkpt lat="50.940909" lon="0.443502">
        <ele>129.6</ele>
        <time>2026-04-24T22:18:16.000Z</time>
      </trkpt>
      <trkpt lat="50.941183" lon="0.444311">
        <ele>131.2</ele>
        <time>2026-04-24T22:18:31.000Z</time>
      </trkpt>
      <trkpt lat="50.941269" lon="0.444683">
        <ele>132.4</ele>
        <time>2026-04-24T22:18:38.000Z</time>
      </trkpt>
      <trkpt lat="50.941289" lon="0.444963">
        <ele>133.6</ele>
        <time>2026-04-24T22:18:43.000Z</time>
      </trkpt>
      <trkpt lat="50.941328" lon="0.445097">
        <ele>134.2</ele>
        <time>2026-04-24T22:18:45.000Z</time>
      </trkpt>
      <trkpt lat="50.941333" lon="0.445323">
        <ele>134.8</ele>
        <time>2026-04-24T22:18:49.000Z</time>
      </trkpt>
      <trkpt lat="50.941386" lon="0.445502">
        <ele>135.2</ele>
        <time>2026-04-24T22:18:53.000Z</time>
      </trkpt>
      <trkpt lat="50.941407" lon="0.445698">
        <ele>136</ele>
        <time>2026-04-24T22:18:56.000Z</time>
      </trkpt>
      <trkpt lat="50.941403" lon="0.445872">
        <ele>136.4</ele>
        <time>2026-04-24T22:18:59.000Z</time>
      </trkpt>
      <trkpt lat="50.941461" lon="0.44604">
        <ele>136.8</ele>
        <time>2026-04-24T22:19:02.000Z</time>
      </trkpt>
      <trkpt lat="50.941524" lon="0.446348">
        <ele>137.2</ele>
        <time>2026-04-24T22:19:07.000Z</time>
      </trkpt>
      <trkpt lat="50.941629" lon="0.446999">
        <ele>138.2</ele>
        <time>2026-04-24T22:19:19.000Z</time>
      </trkpt>
      <trkpt lat="50.941797" lon="0.447648">
        <ele>138.4</ele>
        <time>2026-04-24T22:19:31.000Z</time>
      </trkpt>
      <trkpt lat="50.941802" lon="0.448023">
        <ele>138.2</ele>
        <time>2026-04-24T22:19:37.000Z</time>
      </trkpt>
      <trkpt lat="50.941754" lon="0.448277">
        <ele>138</ele>
        <time>2026-04-24T22:19:41.000Z</time>
      </trkpt>
      <trkpt lat="50.941665" lon="0.448501">
        <ele>137.6</ele>
        <time>2026-04-24T22:19:46.000Z</time>
      </trkpt>
      <trkpt lat="50.94134" lon="0.449083">
        <ele>136.6</ele>
        <time>2026-04-24T22:19:59.000Z</time>
      </trkpt>
      <trkpt lat="50.940769" lon="0.449935">
        <ele>132.4</ele>
        <time>2026-04-24T22:20:20.000Z</time>
      </trkpt>
      <trkpt lat="50.940531" lon="0.450371">
        <ele>130.8</ele>
        <time>2026-04-24T22:20:29.000Z</time>
      </trkpt>
      <trkpt lat="50.940386" lon="0.450703">
        <ele>129.8</ele>
        <time>2026-04-24T22:20:36.000Z</time>
      </trkpt>
      <trkpt lat="50.940254" lon="0.451139">
        <ele>128.6</ele>
        <time>2026-04-24T22:20:44.000Z</time>
      </trkpt>
      <trkpt lat="50.940137" lon="0.451448">
        <ele>127.8</ele>
        <time>2026-04-24T22:20:50.000Z</time>
      </trkpt>
      <trkpt lat="50.93954" lon="0.452677">
        <ele>124</ele>
        <time>2026-04-24T22:21:17.000Z</time>
      </trkpt>
      <trkpt lat="50.939103" lon="0.453394">
        <ele>120.4</ele>
        <time>2026-04-24T22:21:33.000Z</time>
      </trkpt>
      <trkpt lat="50.93894" lon="0.453582">
        <ele>119</ele>
        <time>2026-04-24T22:21:39.000Z</time>
      </trkpt>
      <trkpt lat="50.93885" lon="0.453644">
        <ele>118.4</ele>
        <time>2026-04-24T22:21:41.000Z</time>
      </trkpt>
      <trkpt lat="50.938116" lon="0.453888">
        <ele>114</ele>
        <time>2026-04-24T22:22:01.000Z</time>
      </trkpt>
      <trkpt lat="50.937962" lon="0.453963">
        <ele>113.2</ele>
        <time>2026-04-24T22:22:06.000Z</time>
      </trkpt>
      <trkpt lat="50.93781" lon="0.454079">
        <ele>112</ele>
        <time>2026-04-24T22:22:10.000Z</time>
      </trkpt>
      <trkpt lat="50.937408" lon="0.454492">
        <ele>110.4</ele>
        <time>2026-04-24T22:22:23.000Z</time>
      </trkpt>
      <trkpt lat="50.937263" lon="0.454654">
        <ele>110</ele>
        <time>2026-04-24T22:22:28.000Z</time>
      </trkpt>
      <trkpt lat="50.93712" lon="0.454847">
        <ele>109.6</ele>
        <time>2026-04-24T22:22:33.000Z</time>
      </trkpt>
      <trkpt lat="50.936764" lon="0.455231">
        <ele>108.4</ele>
        <time>2026-04-24T22:22:44.000Z</time>
      </trkpt>
      <trkpt lat="50.936383" lon="0.455699">
        <ele>106.2</ele>
        <time>2026-04-24T22:22:57.000Z</time>
      </trkpt>
      <trkpt lat="50.936307" lon="0.455805">
        <ele>105.8</ele>
        <time>2026-04-24T22:23:00.000Z</time>
      </trkpt>
      <trkpt lat="50.936189" lon="0.456031">
        <ele>104.4</ele>
        <time>2026-04-24T22:23:05.000Z</time>
      </trkpt>
      <trkpt lat="50.936086" lon="0.456276">
        <ele>103.4</ele>
        <time>2026-04-24T22:23:10.000Z</time>
      </trkpt>
      <trkpt lat="50.936022" lon="0.456521">
        <ele>102.4</ele>
        <time>2026-04-24T22:23:14.000Z</time>
      </trkpt>
      <trkpt lat="50.935867" lon="0.456977">
        <ele>101</ele>
        <time>2026-04-24T22:23:23.000Z</time>
      </trkpt>
      <trkpt lat="50.935224" lon="0.458433">
        <ele>97.4</ele>
        <time>2026-04-24T22:23:53.000Z</time>
      </trkpt>
      <trkpt lat="50.934976" lon="0.459069">
        <ele>97</ele>
        <time>2026-04-24T22:24:05.000Z</time>
      </trkpt>
      <trkpt lat="50.934762" lon="0.459684">
        <ele>96.8</ele>
        <time>2026-04-24T22:24:17.000Z</time>
      </trkpt>
      <trkpt lat="50.93465" lon="0.459936">
        <ele>96.8</ele>
        <time>2026-04-24T22:24:22.000Z</time>
      </trkpt>
      <trkpt lat="50.934568" lon="0.460076">
        <ele>96.8</ele>
        <time>2026-04-24T22:24:26.000Z</time>
      </trkpt>
      <trkpt lat="50.933994" lon="0.460767">
        <ele>100.2</ele>
        <time>2026-04-24T22:24:45.000Z</time>
      </trkpt>
      <trkpt lat="50.933802" lon="0.461075">
        <ele>100.6</ele>
        <time>2026-04-24T22:24:52.000Z</time>
      </trkpt>
      <trkpt lat="50.933734" lon="0.461213">
        <ele>100.6</ele>
        <time>2026-04-24T22:24:55.000Z</time>
      </trkpt>
      <trkpt lat="50.933315" lon="0.462356">
        <ele>100</ele>
        <time>2026-04-24T22:25:17.000Z</time>
      </trkpt>
      <trkpt lat="50.933223" lon="0.462545">
        <ele>100</ele>
        <time>2026-04-24T22:25:21.000Z</time>
      </trkpt>
      <trkpt lat="50.93315" lon="0.46279">
        <ele>100</ele>
        <time>2026-04-24T22:25:26.000Z</time>
      </trkpt>
      <trkpt lat="50.933018" lon="0.463412">
        <ele>100</ele>
        <time>2026-04-24T22:25:37.000Z</time>
      </trkpt>
      <trkpt lat="50.932668" lon="0.464869">
        <ele>100.8</ele>
        <time>2026-04-24T22:26:03.000Z</time>
      </trkpt>
      <trkpt lat="50.93255" lon="0.465566">
        <ele>100</ele>
        <time>2026-04-24T22:26:15.000Z</time>
      </trkpt>
      <trkpt lat="50.932485" lon="0.465837">
        <ele>99.8</ele>
        <time>2026-04-24T22:26:20.000Z</time>
      </trkpt>
      <trkpt lat="50.93238" lon="0.466228">
        <ele>99.2</ele>
        <time>2026-04-24T22:26:27.000Z</time>
      </trkpt>
      <trkpt lat="50.932168" lon="0.46677">
        <ele>98.6</ele>
        <time>2026-04-24T22:26:38.000Z</time>
      </trkpt>
      <trkpt lat="50.93206" lon="0.467092">
        <ele>98.4</ele>
        <time>2026-04-24T22:26:44.000Z</time>
      </trkpt>
      <trkpt lat="50.931713" lon="0.468411">
        <ele>94.8</ele>
        <time>2026-04-24T22:27:08.000Z</time>
      </trkpt>
      <trkpt lat="50.931456" lon="0.469188">
        <ele>91.6</ele>
        <time>2026-04-24T22:27:23.000Z</time>
      </trkpt>
      <trkpt lat="50.931201" lon="0.469759">
        <ele>89.6</ele>
        <time>2026-04-24T22:27:35.000Z</time>
      </trkpt>
      <trkpt lat="50.93063" lon="0.470908">
        <ele>83</ele>
        <time>2026-04-24T22:27:59.000Z</time>
      </trkpt>
      <trkpt lat="50.930492" lon="0.471233">
        <ele>81.8</ele>
        <time>2026-04-24T22:28:06.000Z</time>
      </trkpt>
      <trkpt lat="50.93028" lon="0.471817">
        <ele>78.8</ele>
        <time>2026-04-24T22:28:17.000Z</time>
      </trkpt>
      <trkpt lat="50.930136" lon="0.472134">
        <ele>77.2</ele>
        <time>2026-04-24T22:28:24.000Z</time>
      </trkpt>
      <trkpt lat="50.929736" lon="0.472798">
        <ele>73.2</ele>
        <time>2026-04-24T22:28:39.000Z</time>
      </trkpt>
      <trkpt lat="50.929329" lon="0.473408">
        <ele>68.2</ele>
        <time>2026-04-24T22:28:54.000Z</time>
      </trkpt>
      <trkpt lat="50.928751" lon="0.474369">
        <ele>61.2</ele>
        <time>2026-04-24T22:29:17.000Z</time>
      </trkpt>
      <trkpt lat="50.928579" lon="0.474594">
        <ele>59.8</ele>
        <time>2026-04-24T22:29:23.000Z</time>
      </trkpt>
      <trkpt lat="50.928091" lon="0.475046">
        <ele>55.2</ele>
        <time>2026-04-24T22:29:38.000Z</time>
      </trkpt>
      <trkpt lat="50.927891" lon="0.475267">
        <ele>53.8</ele>
        <time>2026-04-24T22:29:44.000Z</time>
      </trkpt>
      <trkpt lat="50.927601" lon="0.475648">
        <ele>51.2</ele>
        <time>2026-04-24T22:29:54.000Z</time>
      </trkpt>
      <trkpt lat="50.927164" lon="0.476271">
        <ele>46.6</ele>
        <time>2026-04-24T22:30:10.000Z</time>
      </trkpt>
      <trkpt lat="50.926798" lon="0.476687">
        <ele>42.8</ele>
        <time>2026-04-24T22:30:22.000Z</time>
      </trkpt>
      <trkpt lat="50.926622" lon="0.476916">
        <ele>41</ele>
        <time>2026-04-24T22:30:28.000Z</time>
      </trkpt>
      <trkpt lat="50.926477" lon="0.4772">
        <ele>40</ele>
        <time>2026-04-24T22:30:34.000Z</time>
      </trkpt>
      <trkpt lat="50.926322" lon="0.477661">
        <ele>38.4</ele>
        <time>2026-04-24T22:30:43.000Z</time>
      </trkpt>
      <trkpt lat="50.926112" lon="0.478203">
        <ele>34.2</ele>
        <time>2026-04-24T22:30:54.000Z</time>
      </trkpt>
      <trkpt lat="50.92592" lon="0.478539">
        <ele>33.2</ele>
        <time>2026-04-24T22:31:01.000Z</time>
      </trkpt>
      <trkpt lat="50.925526" lon="0.478987">
        <ele>31</ele>
        <time>2026-04-24T22:31:14.000Z</time>
      </trkpt>
      <trkpt lat="50.925151" lon="0.479296">
        <ele>33</ele>
        <time>2026-04-24T22:31:25.000Z</time>
      </trkpt>
      <trkpt lat="50.924855" lon="0.479572">
        <ele>36</ele>
        <time>2026-04-24T22:31:35.000Z</time>
      </trkpt>
      <trkpt lat="50.924629" lon="0.479873">
        <ele>39.2</ele>
        <time>2026-04-24T22:31:43.000Z</time>
      </trkpt>
      <trkpt lat="50.924482" lon="0.480113">
        <ele>43.2</ele>
        <time>2026-04-24T22:31:48.000Z</time>
      </trkpt>
      <trkpt lat="50.924303" lon="0.480299">
        <ele>45.6</ele>
        <time>2026-04-24T22:31:54.000Z</time>
      </trkpt>
      <trkpt lat="50.92395" lon="0.480386">
        <ele>49</ele>
        <time>2026-04-24T22:32:03.000Z</time>
      </trkpt>
      <trkpt lat="50.923565" lon="0.480417">
        <ele>51.8</ele>
        <time>2026-04-24T22:32:14.000Z</time>
      </trkpt>
      <trkpt lat="50.923443" lon="0.480474">
        <ele>52.6</ele>
        <time>2026-04-24T22:32:17.000Z</time>
      </trkpt>
      <trkpt lat="50.923259" lon="0.480639">
        <ele>54.6</ele>
        <time>2026-04-24T22:32:23.000Z</time>
      </trkpt>
      <trkpt lat="50.922944" lon="0.480864">
        <ele>57.2</ele>
        <time>2026-04-24T22:32:32.000Z</time>
      </trkpt>
      <trkpt lat="50.922705" lon="0.480974">
        <ele>60.6</ele>
        <time>2026-04-24T22:32:39.000Z</time>
      </trkpt>
      <trkpt lat="50.922605" lon="0.481045">
        <ele>61.8</ele>
        <time>2026-04-24T22:32:42.000Z</time>
      </trkpt>
      <trkpt lat="50.922402" lon="0.481134">
        <ele>64</ele>
        <time>2026-04-24T22:32:47.000Z</time>
      </trkpt>
      <trkpt lat="50.922189" lon="0.481314">
        <ele>66</ele>
        <time>2026-04-24T22:32:54.000Z</time>
      </trkpt>
      <trkpt lat="50.922139" lon="0.481398">
        <ele>66.8</ele>
        <time>2026-04-24T22:32:56.000Z</time>
      </trkpt>
      <trkpt lat="50.922137" lon="0.481466">
        <ele>68</ele>
        <time>2026-04-24T22:32:57.000Z</time>
      </trkpt>
      <trkpt lat="50.922121" lon="0.48148">
        <ele>68.2</ele>
        <time>2026-04-24T22:32:57.000Z</time>
      </trkpt>
      <trkpt lat="50.921918" lon="0.481466">
        <ele>68.4</ele>
        <time>2026-04-24T22:33:03.000Z</time>
      </trkpt>
      <trkpt lat="50.921547" lon="0.481498">
        <ele>70.6</ele>
        <time>2026-04-24T22:33:12.000Z</time>
      </trkpt>
      <trkpt lat="50.921379" lon="0.481491">
        <ele>71.6</ele>
        <time>2026-04-24T22:33:17.000Z</time>
      </trkpt>
      <trkpt lat="50.921221" lon="0.481449">
        <ele>72.8</ele>
        <time>2026-04-24T22:33:21.000Z</time>
      </trkpt>
      <trkpt lat="50.921134" lon="0.481473">
        <ele>73.4</ele>
        <time>2026-04-24T22:33:24.000Z</time>
      </trkpt>
      <trkpt lat="50.921061" lon="0.481468">
        <ele>73.8</ele>
        <time>2026-04-24T22:33:26.000Z</time>
      </trkpt>
      <trkpt lat="50.921028" lon="0.48149">
        <ele>74.2</ele>
        <time>2026-04-24T22:33:27.000Z</time>
      </trkpt>
      <trkpt lat="50.920845" lon="0.481476">
        <ele>75</ele>
        <time>2026-04-24T22:33:31.000Z</time>
      </trkpt>
      <trkpt lat="50.920399" lon="0.481399">
        <ele>76.6</ele>
        <time>2026-04-24T22:33:43.000Z</time>
      </trkpt>
      <trkpt lat="50.920241" lon="0.481442">
        <ele>77.6</ele>
        <time>2026-04-24T22:33:48.000Z</time>
      </trkpt>
      <trkpt lat="50.920142" lon="0.481449">
        <ele>78.2</ele>
        <time>2026-04-24T22:33:50.000Z</time>
      </trkpt>
      <trkpt lat="50.919976" lon="0.4815">
        <ele>78.8</ele>
        <time>2026-04-24T22:33:55.000Z</time>
      </trkpt>
      <trkpt lat="50.919644" lon="0.481718">
        <ele>80.2</ele>
        <time>2026-04-24T22:34:04.000Z</time>
      </trkpt>
      <trkpt lat="50.919515" lon="0.481827">
        <ele>80.6</ele>
        <time>2026-04-24T22:34:08.000Z</time>
      </trkpt>
      <trkpt lat="50.91895" lon="0.482188">
        <ele>79.8</ele>
        <time>2026-04-24T22:34:25.000Z</time>
      </trkpt>
      <trkpt lat="50.918755" lon="0.482342">
        <ele>79.4</ele>
        <time>2026-04-24T22:34:30.000Z</time>
      </trkpt>
      <trkpt lat="50.918653" lon="0.482392">
        <ele>79.2</ele>
        <time>2026-04-24T22:34:33.000Z</time>
      </trkpt>
      <trkpt lat="50.91851" lon="0.482427">
        <ele>78.6</ele>
        <time>2026-04-24T22:34:37.000Z</time>
      </trkpt>
      <trkpt lat="50.918463" lon="0.482462">
        <ele>78.6</ele>
        <time>2026-04-24T22:34:38.000Z</time>
      </trkpt>
      <trkpt lat="50.918291" lon="0.482799">
        <ele>78</ele>
        <time>2026-04-24T22:34:46.000Z</time>
      </trkpt>
      <trkpt lat="50.91813" lon="0.483039">
        <ele>77.2</ele>
        <time>2026-04-24T22:34:52.000Z</time>
      </trkpt>
      <trkpt lat="50.917884" lon="0.48336">
        <ele>75.8</ele>
        <time>2026-04-24T22:35:00.000Z</time>
      </trkpt>
      <trkpt lat="50.917659" lon="0.483604">
        <ele>75</ele>
        <time>2026-04-24T22:35:07.000Z</time>
      </trkpt>
      <trkpt lat="50.917188" lon="0.484019">
        <ele>75</ele>
        <time>2026-04-24T22:35:22.000Z</time>
      </trkpt>
      <trkpt lat="50.91664" lon="0.484559">
        <ele>74</ele>
        <time>2026-04-24T22:35:39.000Z</time>
      </trkpt>
      <trkpt lat="50.91633" lon="0.484943">
        <ele>73.2</ele>
        <time>2026-04-24T22:35:50.000Z</time>
      </trkpt>
      <trkpt lat="50.916264" lon="0.485035">
        <ele>73</ele>
        <time>2026-04-24T22:35:52.000Z</time>
      </trkpt>
      <trkpt lat="50.916244" lon="0.4851">
        <ele>72.2</ele>
        <time>2026-04-24T22:35:53.000Z</time>
      </trkpt>
      <trkpt lat="50.916246" lon="0.485075">
        <ele>71</ele>
        <time>2026-04-24T22:35:54.000Z</time>
      </trkpt>
      <trkpt lat="50.916215" lon="0.485078">
        <ele>70.6</ele>
        <time>2026-04-24T22:35:54.000Z</time>
      </trkpt>
      <trkpt lat="50.916209" lon="0.485097">
        <ele>70.8</ele>
        <time>2026-04-24T22:35:55.000Z</time>
      </trkpt>
      <trkpt lat="50.91622" lon="0.48508">
        <ele>69.8</ele>
        <time>2026-04-24T22:35:55.000Z</time>
      </trkpt>
      <trkpt lat="50.916198" lon="0.485069">
        <ele>70.4</ele>
        <time>2026-04-24T22:35:56.000Z</time>
      </trkpt>
      <trkpt lat="50.916101" lon="0.485169">
        <ele>70.4</ele>
        <time>2026-04-24T22:35:59.000Z</time>
      </trkpt>
      <trkpt lat="50.916102" lon="0.485186">
        <ele>70.6</ele>
        <time>2026-04-24T22:35:59.000Z</time>
      </trkpt>
      <trkpt lat="50.915685" lon="0.485689">
        <ele>69.8</ele>
        <time>2026-04-24T22:36:13.000Z</time>
      </trkpt>
      <trkpt lat="50.915294" lon="0.486335">
        <ele>70.4</ele>
        <time>2026-04-24T22:36:28.000Z</time>
      </trkpt>
      <trkpt lat="50.915091" lon="0.486979">
        <ele>71.6</ele>
        <time>2026-04-24T22:36:40.000Z</time>
      </trkpt>
      <trkpt lat="50.914946" lon="0.487893">
        <ele>71.8</ele>
        <time>2026-04-24T22:36:56.000Z</time>
      </trkpt>
      <trkpt lat="50.914681" lon="0.488879">
        <ele>72.2</ele>
        <time>2026-04-24T22:37:14.000Z</time>
      </trkpt>
      <trkpt lat="50.914482" lon="0.489876">
        <ele>71.6</ele>
        <time>2026-04-24T22:37:32.000Z</time>
      </trkpt>
      <trkpt lat="50.91442" lon="0.490343">
        <ele>71</ele>
        <time>2026-04-24T22:37:40.000Z</time>
      </trkpt>
      <trkpt lat="50.914423" lon="0.490548">
        <ele>70.2</ele>
        <time>2026-04-24T22:37:43.000Z</time>
      </trkpt>
      <trkpt lat="50.91447" lon="0.490715">
        <ele>69.8</ele>
        <time>2026-04-24T22:37:46.000Z</time>
      </trkpt>
      <trkpt lat="50.914485" lon="0.490851">
        <ele>69.4</ele>
        <time>2026-04-24T22:37:49.000Z</time>
      </trkpt>
      <trkpt lat="50.914507" lon="0.492088">
        <ele>68.2</ele>
        <time>2026-04-24T22:38:10.000Z</time>
      </trkpt>
      <trkpt lat="50.914548" lon="0.492689">
        <ele>67.6</ele>
        <time>2026-04-24T22:38:20.000Z</time>
      </trkpt>
      <trkpt lat="50.914618" lon="0.493242">
        <ele>66.4</ele>
        <time>2026-04-24T22:38:29.000Z</time>
      </trkpt>
      <trkpt lat="50.914832" lon="0.494578">
        <ele>63.2</ele>
        <time>2026-04-24T22:38:52.000Z</time>
      </trkpt>
      <trkpt lat="50.914964" lon="0.495759">
        <ele>59.6</ele>
        <time>2026-04-24T22:39:13.000Z</time>
      </trkpt>
      <trkpt lat="50.915085" lon="0.49647">
        <ele>57</ele>
        <time>2026-04-24T22:39:25.000Z</time>
      </trkpt>
      <trkpt lat="50.915138" lon="0.496918">
        <ele>55.2</ele>
        <time>2026-04-24T22:39:33.000Z</time>
      </trkpt>
      <trkpt lat="50.915184" lon="0.498221">
        <ele>50.8</ele>
        <time>2026-04-24T22:39:55.000Z</time>
      </trkpt>
      <trkpt lat="50.915227" lon="0.498983">
        <ele>48.6</ele>
        <time>2026-04-24T22:40:07.000Z</time>
      </trkpt>
      <trkpt lat="50.915501" lon="0.502055">
        <ele>36.8</ele>
        <time>2026-04-24T22:41:00.000Z</time>
      </trkpt>
      <trkpt lat="50.915552" lon="0.502363">
        <ele>35.6</ele>
        <time>2026-04-24T22:41:05.000Z</time>
      </trkpt>
      <trkpt lat="50.915602" lon="0.50256">
        <ele>34.8</ele>
        <time>2026-04-24T22:41:09.000Z</time>
      </trkpt>
      <trkpt lat="50.915833" lon="0.503281">
        <ele>32.8</ele>
        <time>2026-04-24T22:41:22.000Z</time>
      </trkpt>
      <trkpt lat="50.915971" lon="0.503642">
        <ele>32</ele>
        <time>2026-04-24T22:41:29.000Z</time>
      </trkpt>
      <trkpt lat="50.916159" lon="0.503999">
        <ele>31.4</ele>
        <time>2026-04-24T22:41:37.000Z</time>
      </trkpt>
      <trkpt lat="50.916467" lon="0.504498">
        <ele>30.6</ele>
        <time>2026-04-24T22:41:49.000Z</time>
      </trkpt>
      <trkpt lat="50.918403" lon="0.507329">
        <ele>23.6</ele>
        <time>2026-04-24T22:42:59.000Z</time>
      </trkpt>
      <trkpt lat="50.918744" lon="0.507762">
        <ele>22.2</ele>
        <time>2026-04-24T22:43:11.000Z</time>
      </trkpt>
      <trkpt lat="50.919188" lon="0.508194">
        <ele>19.8</ele>
        <time>2026-04-24T22:43:25.000Z</time>
      </trkpt>
      <trkpt lat="50.919361" lon="0.508429">
        <ele>19.4</ele>
        <time>2026-04-24T22:43:31.000Z</time>
      </trkpt>
      <trkpt lat="50.919559" lon="0.508864">
        <ele>18.2</ele>
        <time>2026-04-24T22:43:40.000Z</time>
      </trkpt>
      <trkpt lat="50.919883" lon="0.509867">
        <ele>16.6</ele>
        <time>2026-04-24T22:43:59.000Z</time>
      </trkpt>
      <trkpt lat="50.92001" lon="0.51015">
        <ele>16.4</ele>
        <time>2026-04-24T22:44:05.000Z</time>
      </trkpt>
      <trkpt lat="50.920128" lon="0.510319">
        <ele>16.2</ele>
        <time>2026-04-24T22:44:09.000Z</time>
      </trkpt>
      <trkpt lat="50.920234" lon="0.51042">
        <ele>15.8</ele>
        <time>2026-04-24T22:44:12.000Z</time>
      </trkpt>
      <trkpt lat="50.920541" lon="0.510645">
        <ele>16.4</ele>
        <time>2026-04-24T22:44:21.000Z</time>
      </trkpt>
      <trkpt lat="50.920951" lon="0.511151">
        <ele>18.8</ele>
        <time>2026-04-24T22:44:35.000Z</time>
      </trkpt>
      <trkpt lat="50.921088" lon="0.511283">
        <ele>19</ele>
        <time>2026-04-24T22:44:39.000Z</time>
      </trkpt>
      <trkpt lat="50.921278" lon="0.511401">
        <ele>19.4</ele>
        <time>2026-04-24T22:44:45.000Z</time>
      </trkpt>
      <trkpt lat="50.921649" lon="0.511541">
        <ele>19</ele>
        <time>2026-04-24T22:44:55.000Z</time>
      </trkpt>
      <trkpt lat="50.921848" lon="0.511671">
        <ele>18.4</ele>
        <time>2026-04-24T22:45:01.000Z</time>
      </trkpt>
      <trkpt lat="50.922801" lon="0.512446">
        <ele>17</ele>
        <time>2026-04-24T22:45:29.000Z</time>
      </trkpt>
      <trkpt lat="50.92315" lon="0.51269">
        <ele>16.6</ele>
        <time>2026-04-24T22:45:40.000Z</time>
      </trkpt>
      <trkpt lat="50.923445" lon="0.512868">
        <ele>15.8</ele>
        <time>2026-04-24T22:45:48.000Z</time>
      </trkpt>
      <trkpt lat="50.923761" lon="0.512998">
        <ele>14.8</ele>
        <time>2026-04-24T22:45:57.000Z</time>
      </trkpt>
      <trkpt lat="50.924053" lon="0.513064">
        <ele>14</ele>
        <time>2026-04-24T22:46:05.000Z</time>
      </trkpt>
      <trkpt lat="50.924623" lon="0.51313">
        <ele>13.6</ele>
        <time>2026-04-24T22:46:20.000Z</time>
      </trkpt>
      <trkpt lat="50.924775" lon="0.513173">
        <ele>13.4</ele>
        <time>2026-04-24T22:46:24.000Z</time>
      </trkpt>
      <trkpt lat="50.924866" lon="0.513218">
        <ele>13.2</ele>
        <time>2026-04-24T22:46:26.000Z</time>
      </trkpt>
      <trkpt lat="50.924993" lon="0.513316">
        <ele>12.8</ele>
        <time>2026-04-24T22:46:30.000Z</time>
      </trkpt>
      <trkpt lat="50.925119" lon="0.513453">
        <ele>12.4</ele>
        <time>2026-04-24T22:46:34.000Z</time>
      </trkpt>
      <trkpt lat="50.925176" lon="0.513556">
        <ele>12.4</ele>
        <time>2026-04-24T22:46:37.000Z</time>
      </trkpt>
      <trkpt lat="50.925204" lon="0.513656">
        <ele>12.2</ele>
        <time>2026-04-24T22:46:38.000Z</time>
      </trkpt>
      <trkpt lat="50.925209" lon="0.513745">
        <ele>12</ele>
        <time>2026-04-24T22:46:40.000Z</time>
      </trkpt>
      <trkpt lat="50.925167" lon="0.514261">
        <ele>11.2</ele>
        <time>2026-04-24T22:46:49.000Z</time>
      </trkpt>
      <trkpt lat="50.925174" lon="0.514641">
        <ele>10.8</ele>
        <time>2026-04-24T22:46:55.000Z</time>
      </trkpt>
      <trkpt lat="50.925208" lon="0.514854">
        <ele>10.8</ele>
        <time>2026-04-24T22:46:59.000Z</time>
      </trkpt>
      <trkpt lat="50.92531" lon="0.515195">
        <ele>10</ele>
        <time>2026-04-24T22:47:05.000Z</time>
      </trkpt>
      <trkpt lat="50.925552" lon="0.515651">
        <ele>9.4</ele>
        <time>2026-04-24T22:47:15.000Z</time>
      </trkpt>
      <trkpt lat="50.926068" lon="0.516491">
        <ele>8.4</ele>
        <time>2026-04-24T22:47:35.000Z</time>
      </trkpt>
      <trkpt lat="50.926297" lon="0.516945">
        <ele>8.8</ele>
        <time>2026-04-24T22:47:45.000Z</time>
      </trkpt>
      <trkpt lat="50.927472" lon="0.519772">
        <ele>13</ele>
        <time>2026-04-24T22:48:42.000Z</time>
      </trkpt>
      <trkpt lat="50.928831" lon="0.522851">
        <ele>15.2</ele>
        <time>2026-04-24T22:49:45.000Z</time>
      </trkpt>
      <trkpt lat="50.929464" lon="0.524234">
        <ele>12.6</ele>
        <time>2026-04-24T22:50:14.000Z</time>
      </trkpt>
      <trkpt lat="50.92967" lon="0.524708">
        <ele>11.4</ele>
        <time>2026-04-24T22:50:23.000Z</time>
      </trkpt>
      <trkpt lat="50.929896" lon="0.525315">
        <ele>10.6</ele>
        <time>2026-04-24T22:50:35.000Z</time>
      </trkpt>
      <trkpt lat="50.930063" lon="0.525647">
        <ele>9</ele>
        <time>2026-04-24T22:50:42.000Z</time>
      </trkpt>
      <trkpt lat="50.930078" lon="0.525739">
        <ele>8.8</ele>
        <time>2026-04-24T22:50:44.000Z</time>
      </trkpt>
      <trkpt lat="50.930069" lon="0.525812">
        <ele>8.8</ele>
        <time>2026-04-24T22:50:45.000Z</time>
      </trkpt>
      <trkpt lat="50.930013" lon="0.525938">
        <ele>8.4</ele>
        <time>2026-04-24T22:50:48.000Z</time>
      </trkpt>
      <trkpt lat="50.929612" lon="0.526546">
        <ele>7</ele>
        <time>2026-04-24T22:51:03.000Z</time>
      </trkpt>
      <trkpt lat="50.92764" lon="0.52973">
        <ele>12</ele>
        <time>2026-04-24T22:52:18.000Z</time>
      </trkpt>
      <trkpt lat="50.927098" lon="0.530571">
        <ele>13</ele>
        <time>2026-04-24T22:52:38.000Z</time>
      </trkpt>
      <trkpt lat="50.92681" lon="0.530962">
        <ele>13</ele>
        <time>2026-04-24T22:52:48.000Z</time>
      </trkpt>
      <trkpt lat="50.926582" lon="0.531221">
        <ele>12.6</ele>
        <time>2026-04-24T22:52:56.000Z</time>
      </trkpt>
      <trkpt lat="50.925714" lon="0.532112">
        <ele>11</ele>
        <time>2026-04-24T22:53:23.000Z</time>
      </trkpt>
      <trkpt lat="50.925052" lon="0.532847">
        <ele>8.8</ele>
        <time>2026-04-24T22:53:45.000Z</time>
      </trkpt>
      <trkpt lat="50.924979" lon="0.532974">
        <ele>8.8</ele>
        <time>2026-04-24T22:53:48.000Z</time>
      </trkpt>
      <trkpt lat="50.924965" lon="0.533054">
        <ele>8.8</ele>
        <time>2026-04-24T22:53:49.000Z</time>
      </trkpt>
      <trkpt lat="50.924968" lon="0.533139">
        <ele>8.6</ele>
        <time>2026-04-24T22:53:51.000Z</time>
      </trkpt>
      <trkpt lat="50.924993" lon="0.533214">
        <ele>8.6</ele>
        <time>2026-04-24T22:53:52.000Z</time>
      </trkpt>
      <trkpt lat="50.925039" lon="0.533269">
        <ele>8.6</ele>
        <time>2026-04-24T22:53:53.000Z</time>
      </trkpt>
      <trkpt lat="50.925094" lon="0.5333">
        <ele>8.4</ele>
        <time>2026-04-24T22:53:55.000Z</time>
      </trkpt>
      <trkpt lat="50.925587" lon="0.533483">
        <ele>7.2</ele>
        <time>2026-04-24T22:54:09.000Z</time>
      </trkpt>
      <trkpt lat="50.927202" lon="0.533876">
        <ele>6.6</ele>
        <time>2026-04-24T22:54:52.000Z</time>
      </trkpt>
      <trkpt lat="50.927461" lon="0.533979">
        <ele>6.8</ele>
        <time>2026-04-24T22:54:59.000Z</time>
      </trkpt>
      <trkpt lat="50.927789" lon="0.534143">
        <ele>7.4</ele>
        <time>2026-04-24T22:55:08.000Z</time>
      </trkpt>
      <trkpt lat="50.928161" lon="0.534365">
        <ele>8</ele>
        <time>2026-04-24T22:55:19.000Z</time>
      </trkpt>
      <trkpt lat="50.928685" lon="0.534756">
        <ele>8.8</ele>
        <time>2026-04-24T22:55:35.000Z</time>
      </trkpt>
      <trkpt lat="50.929085" lon="0.535129">
        <ele>9.4</ele>
        <time>2026-04-24T22:55:47.000Z</time>
      </trkpt>
      <trkpt lat="50.92992" lon="0.536029">
        <ele>8.6</ele>
        <time>2026-04-24T22:56:14.000Z</time>
      </trkpt>
      <trkpt lat="50.930057" lon="0.536148">
        <ele>8.4</ele>
        <time>2026-04-24T22:56:18.000Z</time>
      </trkpt>
      <trkpt lat="50.930207" lon="0.536214">
        <ele>7.8</ele>
        <time>2026-04-24T22:56:22.000Z</time>
      </trkpt>
      <trkpt lat="50.930365" lon="0.536207">
        <ele>7.2</ele>
        <time>2026-04-24T22:56:26.000Z</time>
      </trkpt>
      <trkpt lat="50.930516" lon="0.53616">
        <ele>6.6</ele>
        <time>2026-04-24T22:56:31.000Z</time>
      </trkpt>
      <trkpt lat="50.930987" lon="0.535912">
        <ele>5.4</ele>
        <time>2026-04-24T22:56:44.000Z</time>
      </trkpt>
      <trkpt lat="50.93117" lon="0.535791">
        <ele>5.2</ele>
        <time>2026-04-24T22:56:49.000Z</time>
      </trkpt>
      <trkpt lat="50.931737" lon="0.535327">
        <ele>4.6</ele>
        <time>2026-04-24T22:57:06.000Z</time>
      </trkpt>
      <trkpt lat="50.931973" lon="0.535169">
        <ele>4.4</ele>
        <time>2026-04-24T22:57:13.000Z</time>
      </trkpt>
      <trkpt lat="50.93237" lon="0.534986">
        <ele>4.6</ele>
        <time>2026-04-24T22:57:24.000Z</time>
      </trkpt>
      <trkpt lat="50.932475" lon="0.534954">
        <ele>4.8</ele>
        <time>2026-04-24T22:57:27.000Z</time>
      </trkpt>
      <trkpt lat="50.932665" lon="0.534935">
        <ele>5.2</ele>
        <time>2026-04-24T22:57:32.000Z</time>
      </trkpt>
      <trkpt lat="50.932896" lon="0.534833">
        <ele>6</ele>
        <time>2026-04-24T22:57:38.000Z</time>
      </trkpt>
      <trkpt lat="50.933223" lon="0.534609">
        <ele>8.2</ele>
        <time>2026-04-24T22:57:48.000Z</time>
      </trkpt>
      <trkpt lat="50.93354" lon="0.534438">
        <ele>10.8</ele>
        <time>2026-04-24T22:57:57.000Z</time>
      </trkpt>
      <trkpt lat="50.933668" lon="0.534284">
        <ele>12.4</ele>
        <time>2026-04-24T22:58:01.000Z</time>
      </trkpt>
      <trkpt lat="50.933679" lon="0.534234">
        <ele>12.8</ele>
        <time>2026-04-24T22:58:02.000Z</time>
      </trkpt>
      <trkpt lat="50.933709" lon="0.534207">
        <ele>12.8</ele>
        <time>2026-04-24T22:58:03.000Z</time>
      </trkpt>
      <trkpt lat="50.933765" lon="0.534226">
        <ele>12.8</ele>
        <time>2026-04-24T22:58:04.000Z</time>
      </trkpt>
      <trkpt lat="50.933937" lon="0.534146">
        <ele>12.8</ele>
        <time>2026-04-24T22:58:09.000Z</time>
      </trkpt>
      <trkpt lat="50.934006" lon="0.534153">
        <ele>12.8</ele>
        <time>2026-04-24T22:58:11.000Z</time>
      </trkpt>
      <trkpt lat="50.934146" lon="0.534234">
        <ele>13.4</ele>
        <time>2026-04-24T22:58:15.000Z</time>
      </trkpt>
      <trkpt lat="50.934382" lon="0.534491">
        <ele>14.4</ele>
        <time>2026-04-24T22:58:23.000Z</time>
      </trkpt>
      <trkpt lat="50.934877" lon="0.535171">
        <ele>15.8</ele>
        <time>2026-04-24T22:58:40.000Z</time>
      </trkpt>
      <trkpt lat="50.935051" lon="0.535504">
        <ele>16</ele>
        <time>2026-04-24T22:58:47.000Z</time>
      </trkpt>
      <trkpt lat="50.935165" lon="0.535881">
        <ele>16.2</ele>
        <time>2026-04-24T22:58:54.000Z</time>
      </trkpt>
      <trkpt lat="50.935309" lon="0.536577">
        <ele>18</ele>
        <time>2026-04-24T22:59:07.000Z</time>
      </trkpt>
      <trkpt lat="50.935455" lon="0.537893">
        <ele>25.4</ele>
        <time>2026-04-24T22:59:29.000Z</time>
      </trkpt>
      <trkpt lat="50.93564" lon="0.538778">
        <ele>27.8</ele>
        <time>2026-04-24T22:59:45.000Z</time>
      </trkpt>
      <trkpt lat="50.935801" lon="0.539352">
        <ele>28</ele>
        <time>2026-04-24T22:59:55.000Z</time>
      </trkpt>
      <trkpt lat="50.936349" lon="0.540701">
        <ele>26</ele>
        <time>2026-04-24T23:00:22.000Z</time>
      </trkpt>
      <trkpt lat="50.93645" lon="0.541135">
        <ele>25.4</ele>
        <time>2026-04-24T23:00:30.000Z</time>
      </trkpt>
      <trkpt lat="50.936682" lon="0.542558">
        <ele>20.6</ele>
        <time>2026-04-24T23:00:55.000Z</time>
      </trkpt>
      <trkpt lat="50.936801" lon="0.543101">
        <ele>18.4</ele>
        <time>2026-04-24T23:01:05.000Z</time>
      </trkpt>
      <trkpt lat="50.936909" lon="0.543447">
        <ele>16.4</ele>
        <time>2026-04-24T23:01:11.000Z</time>
      </trkpt>
      <trkpt lat="50.937253" lon="0.544263">
        <ele>11.8</ele>
        <time>2026-04-24T23:01:28.000Z</time>
      </trkpt>
      <trkpt lat="50.937303" lon="0.544418">
        <ele>11.6</ele>
        <time>2026-04-24T23:01:31.000Z</time>
      </trkpt>
      <trkpt lat="50.937344" lon="0.544691">
        <ele>12.6</ele>
        <time>2026-04-24T23:01:35.000Z</time>
      </trkpt>
      <trkpt lat="50.937364" lon="0.545118">
        <ele>17.4</ele>
        <time>2026-04-24T23:01:43.000Z</time>
      </trkpt>
      <trkpt lat="50.937438" lon="0.545654">
        <ele>19.4</ele>
        <time>2026-04-24T23:01:52.000Z</time>
      </trkpt>
      <trkpt lat="50.937484" lon="0.546258">
        <ele>21.8</ele>
        <time>2026-04-24T23:02:02.000Z</time>
      </trkpt>
      <trkpt lat="50.937625" lon="0.546891">
        <ele>23.8</ele>
        <time>2026-04-24T23:02:13.000Z</time>
      </trkpt>
      <trkpt lat="50.937758" lon="0.547319">
        <ele>24.8</ele>
        <time>2026-04-24T23:02:21.000Z</time>
      </trkpt>
      <trkpt lat="50.937917" lon="0.547644">
        <ele>25.4</ele>
        <time>2026-04-24T23:02:28.000Z</time>
      </trkpt>
      <trkpt lat="50.93816" lon="0.548042">
        <ele>26.8</ele>
        <time>2026-04-24T23:02:38.000Z</time>
      </trkpt>
      <trkpt lat="50.938267" lon="0.548142">
        <ele>27.4</ele>
        <time>2026-04-24T23:02:41.000Z</time>
      </trkpt>
      <trkpt lat="50.938525" lon="0.548272">
        <ele>28.4</ele>
        <time>2026-04-24T23:02:48.000Z</time>
      </trkpt>
      <trkpt lat="50.938627" lon="0.548391">
        <ele>28.6</ele>
        <time>2026-04-24T23:02:51.000Z</time>
      </trkpt>
      <trkpt lat="50.938696" lon="0.548526">
        <ele>28.6</ele>
        <time>2026-04-24T23:02:54.000Z</time>
      </trkpt>
      <trkpt lat="50.938763" lon="0.548782">
        <ele>28.6</ele>
        <time>2026-04-24T23:02:59.000Z</time>
      </trkpt>
      <trkpt lat="50.938705" lon="0.549099">
        <ele>28</ele>
        <time>2026-04-24T23:03:05.000Z</time>
      </trkpt>
      <trkpt lat="50.938692" lon="0.549352">
        <ele>27.6</ele>
        <time>2026-04-24T23:03:09.000Z</time>
      </trkpt>
      <trkpt lat="50.938736" lon="0.549577">
        <ele>27</ele>
        <time>2026-04-24T23:03:13.000Z</time>
      </trkpt>
      <trkpt lat="50.938775" lon="0.549682">
        <ele>26.6</ele>
        <time>2026-04-24T23:03:15.000Z</time>
      </trkpt>
      <trkpt lat="50.938856" lon="0.549801">
        <ele>26</ele>
        <time>2026-04-24T23:03:18.000Z</time>
      </trkpt>
      <trkpt lat="50.939004" lon="0.549945">
        <ele>25</ele>
        <time>2026-04-24T23:03:22.000Z</time>
      </trkpt>
      <trkpt lat="50.939086" lon="0.549993">
        <ele>24.8</ele>
        <time>2026-04-24T23:03:25.000Z</time>
      </trkpt>
      <trkpt lat="50.939278" lon="0.550043">
        <ele>24</ele>
        <time>2026-04-24T23:03:30.000Z</time>
      </trkpt>
      <trkpt lat="50.939478" lon="0.550121">
        <ele>23.6</ele>
        <time>2026-04-24T23:03:35.000Z</time>
      </trkpt>
      <trkpt lat="50.939671" lon="0.550221">
        <ele>22.6</ele>
        <time>2026-04-24T23:03:41.000Z</time>
      </trkpt>
      <trkpt lat="50.939855" lon="0.550359">
        <ele>21.2</ele>
        <time>2026-04-24T23:03:46.000Z</time>
      </trkpt>
      <trkpt lat="50.940101" lon="0.550622">
        <ele>19.2</ele>
        <time>2026-04-24T23:03:54.000Z</time>
      </trkpt>
      <trkpt lat="50.94048" lon="0.551167">
        <ele>17</ele>
        <time>2026-04-24T23:04:08.000Z</time>
      </trkpt>
      <trkpt lat="50.940731" lon="0.551446">
        <ele>18.6</ele>
        <time>2026-04-24T23:04:16.000Z</time>
      </trkpt>
      <trkpt lat="50.940736" lon="0.551664">
        <ele>20.6</ele>
        <time>2026-04-24T23:04:20.000Z</time>
      </trkpt>
      <trkpt lat="50.9407" lon="0.551843">
        <ele>21.2</ele>
        <time>2026-04-24T23:04:23.000Z</time>
      </trkpt>
      <trkpt lat="50.940527" lon="0.552471">
        <ele>23</ele>
        <time>2026-04-24T23:04:34.000Z</time>
      </trkpt>
      <trkpt lat="50.940247" lon="0.553322">
        <ele>24.2</ele>
        <time>2026-04-24T23:04:51.000Z</time>
      </trkpt>
      <trkpt lat="50.940153" lon="0.553655">
        <ele>24.4</ele>
        <time>2026-04-24T23:04:57.000Z</time>
      </trkpt>
      <trkpt lat="50.94014" lon="0.554198">
        <ele>24.2</ele>
        <time>2026-04-24T23:05:06.000Z</time>
      </trkpt>
      <trkpt lat="50.940119" lon="0.554394">
        <ele>24.2</ele>
        <time>2026-04-24T23:05:09.000Z</time>
      </trkpt>
      <trkpt lat="50.940065" lon="0.554566">
        <ele>24</ele>
        <time>2026-04-24T23:05:12.000Z</time>
      </trkpt>
      <trkpt lat="50.939904" lon="0.554751">
        <ele>23.4</ele>
        <time>2026-04-24T23:05:18.000Z</time>
      </trkpt>
      <trkpt lat="50.939747" lon="0.554846">
        <ele>23.2</ele>
        <time>2026-04-24T23:05:22.000Z</time>
      </trkpt>
      <trkpt lat="50.939552" lon="0.555013">
        <ele>22.8</ele>
        <time>2026-04-24T23:05:28.000Z</time>
      </trkpt>
      <trkpt lat="50.938839" lon="0.555836">
        <ele>17.8</ele>
        <time>2026-04-24T23:05:52.000Z</time>
      </trkpt>
      <trkpt lat="50.938572" lon="0.556175">
        <ele>15.6</ele>
        <time>2026-04-24T23:06:01.000Z</time>
      </trkpt>
      <trkpt lat="50.938407" lon="0.556449">
        <ele>14.2</ele>
        <time>2026-04-24T23:06:07.000Z</time>
      </trkpt>
      <trkpt lat="50.938319" lon="0.556656">
        <ele>13.2</ele>
        <time>2026-04-24T23:06:11.000Z</time>
      </trkpt>
      <trkpt lat="50.938194" lon="0.557186">
        <ele>12</ele>
        <time>2026-04-24T23:06:21.000Z</time>
      </trkpt>
      <trkpt lat="50.938058" lon="0.557651">
        <ele>11.2</ele>
        <time>2026-04-24T23:06:30.000Z</time>
      </trkpt>
      <trkpt lat="50.937972" lon="0.558014">
        <ele>10.8</ele>
        <time>2026-04-24T23:06:36.000Z</time>
      </trkpt>
      <trkpt lat="50.937946" lon="0.5582">
        <ele>10.6</ele>
        <time>2026-04-24T23:06:39.000Z</time>
      </trkpt>
      <trkpt lat="50.937944" lon="0.558727">
        <ele>10</ele>
        <time>2026-04-24T23:06:48.000Z</time>
      </trkpt>
      <trkpt lat="50.93799" lon="0.559084">
        <ele>9.6</ele>
        <time>2026-04-24T23:06:54.000Z</time>
      </trkpt>
      <trkpt lat="50.938175" lon="0.559872">
        <ele>7.6</ele>
        <time>2026-04-24T23:07:08.000Z</time>
      </trkpt>
      <trkpt lat="50.938236" lon="0.560303">
        <ele>5.6</ele>
        <time>2026-04-24T23:07:16.000Z</time>
      </trkpt>
      <trkpt lat="50.938257" lon="0.560856">
        <ele>4</ele>
        <time>2026-04-24T23:07:25.000Z</time>
      </trkpt>
      <trkpt lat="50.938259" lon="0.561842">
        <ele>1.6</ele>
        <time>2026-04-24T23:07:42.000Z</time>
      </trkpt>
      <trkpt lat="50.93831" lon="0.562533">
        <ele>1.2</ele>
        <time>2026-04-24T23:07:53.000Z</time>
      </trkpt>
      <trkpt lat="50.938304" lon="0.562619">
        <ele>1.2</ele>
        <time>2026-04-24T23:07:55.000Z</time>
      </trkpt>
      <trkpt lat="50.938235" lon="0.562854">
        <ele>1</ele>
        <time>2026-04-24T23:07:59.000Z</time>
      </trkpt>
      <trkpt lat="50.937443" lon="0.564755">
        <ele>5.2</ele>
        <time>2026-04-24T23:08:38.000Z</time>
      </trkpt>
      <trkpt lat="50.9374" lon="0.564951">
        <ele>5.4</ele>
        <time>2026-04-24T23:08:41.000Z</time>
      </trkpt>
      <trkpt lat="50.937391" lon="0.565086">
        <ele>5.4</ele>
        <time>2026-04-24T23:08:43.000Z</time>
      </trkpt>
      <trkpt lat="50.937352" lon="0.566278">
        <ele>4.2</ele>
        <time>2026-04-24T23:09:03.000Z</time>
      </trkpt>
      <trkpt lat="50.937364" lon="0.566694">
        <ele>5</ele>
        <time>2026-04-24T23:09:10.000Z</time>
      </trkpt>
      <trkpt lat="50.937427" lon="0.56685">
        <ele>6</ele>
        <time>2026-04-24T23:09:14.000Z</time>
      </trkpt>
      <trkpt lat="50.937456" lon="0.567006">
        <ele>6.6</ele>
        <time>2026-04-24T23:09:16.000Z</time>
      </trkpt>
      <trkpt lat="50.937515" lon="0.567177">
        <ele>7.6</ele>
        <time>2026-04-24T23:09:20.000Z</time>
      </trkpt>
      <trkpt lat="50.937596" lon="0.567328">
        <ele>8.6</ele>
        <time>2026-04-24T23:09:23.000Z</time>
      </trkpt>
      <trkpt lat="50.937684" lon="0.56755">
        <ele>9.8</ele>
        <time>2026-04-24T23:09:27.000Z</time>
      </trkpt>
      <trkpt lat="50.937879" lon="0.567908">
        <ele>12.4</ele>
        <time>2026-04-24T23:09:35.000Z</time>
      </trkpt>
      <trkpt lat="50.938008" lon="0.56832">
        <ele>14</ele>
        <time>2026-04-24T23:09:43.000Z</time>
      </trkpt>
      <trkpt lat="50.938045" lon="0.568501">
        <ele>14.4</ele>
        <time>2026-04-24T23:09:46.000Z</time>
      </trkpt>
      <trkpt lat="50.938075" lon="0.569018">
        <ele>16.2</ele>
        <time>2026-04-24T23:09:55.000Z</time>
      </trkpt>
      <trkpt lat="50.938125" lon="0.569313">
        <ele>16.6</ele>
        <time>2026-04-24T23:10:00.000Z</time>
      </trkpt>
      <trkpt lat="50.938205" lon="0.56952">
        <ele>16.6</ele>
        <time>2026-04-24T23:10:04.000Z</time>
      </trkpt>
      <trkpt lat="50.938424" lon="0.569977">
        <ele>16.4</ele>
        <time>2026-04-24T23:10:14.000Z</time>
      </trkpt>
      <trkpt lat="50.93847" lon="0.570209">
        <ele>16.2</ele>
        <time>2026-04-24T23:10:18.000Z</time>
      </trkpt>
      <trkpt lat="50.938468" lon="0.570486">
        <ele>15.6</ele>
        <time>2026-04-24T23:10:23.000Z</time>
      </trkpt>
      <trkpt lat="50.938411" lon="0.57121">
        <ele>14</ele>
        <time>2026-04-24T23:10:35.000Z</time>
      </trkpt>
      <trkpt lat="50.938461" lon="0.572013">
        <ele>12.4</ele>
        <time>2026-04-24T23:10:48.000Z</time>
      </trkpt>
      <trkpt lat="50.938463" lon="0.572333">
        <ele>10.4</ele>
        <time>2026-04-24T23:10:54.000Z</time>
      </trkpt>
      <trkpt lat="50.938344" lon="0.573236">
        <ele>6.8</ele>
        <time>2026-04-24T23:11:09.000Z</time>
      </trkpt>
      <trkpt lat="50.938346" lon="0.57349">
        <ele>6.4</ele>
        <time>2026-04-24T23:11:14.000Z</time>
      </trkpt>
      <trkpt lat="50.938384" lon="0.57369">
        <ele>5.6</ele>
        <time>2026-04-24T23:11:17.000Z</time>
      </trkpt>
      <trkpt lat="50.938459" lon="0.573929">
        <ele>5.4</ele>
        <time>2026-04-24T23:11:22.000Z</time>
      </trkpt>
      <trkpt lat="50.938577" lon="0.574223">
        <ele>6.4</ele>
        <time>2026-04-24T23:11:27.000Z</time>
      </trkpt>
      <trkpt lat="50.938751" lon="0.574544">
        <ele>9</ele>
        <time>2026-04-24T23:11:35.000Z</time>
      </trkpt>
      <trkpt lat="50.938842" lon="0.574747">
        <ele>10.2</ele>
        <time>2026-04-24T23:11:39.000Z</time>
      </trkpt>
      <trkpt lat="50.938939" lon="0.575122">
        <ele>14</ele>
        <time>2026-04-24T23:11:46.000Z</time>
      </trkpt>
      <trkpt lat="50.938964" lon="0.575406">
        <ele>15.6</ele>
        <time>2026-04-24T23:11:50.000Z</time>
      </trkpt>
      <trkpt lat="50.939069" lon="0.57564">
        <ele>17.6</ele>
        <time>2026-04-24T23:11:55.000Z</time>
      </trkpt>
      <trkpt lat="50.939091" lon="0.575724">
        <ele>18</ele>
        <time>2026-04-24T23:11:57.000Z</time>
      </trkpt>
      <trkpt lat="50.93908" lon="0.575777">
        <ele>18.2</ele>
        <time>2026-04-24T23:11:58.000Z</time>
      </trkpt>
      <trkpt lat="50.939149" lon="0.576056">
        <ele>20.2</ele>
        <time>2026-04-24T23:12:03.000Z</time>
      </trkpt>
      <trkpt lat="50.939145" lon="0.576161">
        <ele>21</ele>
        <time>2026-04-24T23:12:05.000Z</time>
      </trkpt>
      <trkpt lat="50.939204" lon="0.576373">
        <ele>22</ele>
        <time>2026-04-24T23:12:08.000Z</time>
      </trkpt>
      <trkpt lat="50.939212" lon="0.576496">
        <ele>22.4</ele>
        <time>2026-04-24T23:12:11.000Z</time>
      </trkpt>
      <trkpt lat="50.939234" lon="0.576549">
        <ele>23.2</ele>
        <time>2026-04-24T23:12:12.000Z</time>
      </trkpt>
      <trkpt lat="50.939222" lon="0.576671">
        <ele>24.6</ele>
        <time>2026-04-24T23:12:14.000Z</time>
      </trkpt>
      <trkpt lat="50.939257" lon="0.577126">
        <ele>28</ele>
        <time>2026-04-24T23:12:21.000Z</time>
      </trkpt>
      <trkpt lat="50.939244" lon="0.577436">
        <ele>29.4</ele>
        <time>2026-04-24T23:12:27.000Z</time>
      </trkpt>
      <trkpt lat="50.939256" lon="0.577523">
        <ele>30</ele>
        <time>2026-04-24T23:12:28.000Z</time>
      </trkpt>
      <trkpt lat="50.939283" lon="0.577589">
        <ele>30.6</ele>
        <time>2026-04-24T23:12:29.000Z</time>
      </trkpt>
      <trkpt lat="50.939341" lon="0.577877">
        <ele>33</ele>
        <time>2026-04-24T23:12:35.000Z</time>
      </trkpt>
      <trkpt lat="50.939368" lon="0.577926">
        <ele>33.2</ele>
        <time>2026-04-24T23:12:36.000Z</time>
      </trkpt>
      <trkpt lat="50.939389" lon="0.578066">
        <ele>34</ele>
        <time>2026-04-24T23:12:38.000Z</time>
      </trkpt>
      <trkpt lat="50.93944" lon="0.578143">
        <ele>34.8</ele>
        <time>2026-04-24T23:12:40.000Z</time>
      </trkpt>
      <trkpt lat="50.939461" lon="0.578232">
        <ele>35.8</ele>
        <time>2026-04-24T23:12:42.000Z</time>
      </trkpt>
      <trkpt lat="50.939538" lon="0.578393">
        <ele>38</ele>
        <time>2026-04-24T23:12:45.000Z</time>
      </trkpt>
      <trkpt lat="50.939528" lon="0.578442">
        <ele>39</ele>
        <time>2026-04-24T23:12:46.000Z</time>
      </trkpt>
      <trkpt lat="50.939569" lon="0.578865">
        <ele>41.6</ele>
        <time>2026-04-24T23:12:53.000Z</time>
      </trkpt>
      <trkpt lat="50.939555" lon="0.579077">
        <ele>42.8</ele>
        <time>2026-04-24T23:12:57.000Z</time>
      </trkpt>
      <trkpt lat="50.939533" lon="0.579148">
        <ele>43.4</ele>
        <time>2026-04-24T23:12:58.000Z</time>
      </trkpt>
      <trkpt lat="50.939567" lon="0.579319">
        <ele>45</ele>
        <time>2026-04-24T23:13:01.000Z</time>
      </trkpt>
      <trkpt lat="50.939555" lon="0.579597">
        <ele>45.6</ele>
        <time>2026-04-24T23:13:06.000Z</time>
      </trkpt>
      <trkpt lat="50.939591" lon="0.579842">
        <ele>47.2</ele>
        <time>2026-04-24T23:13:10.000Z</time>
      </trkpt>
      <trkpt lat="50.939545" lon="0.580002">
        <ele>48.6</ele>
        <time>2026-04-24T23:13:13.000Z</time>
      </trkpt>
      <trkpt lat="50.939581" lon="0.579986">
        <ele>48.6</ele>
        <time>2026-04-24T23:13:14.000Z</time>
      </trkpt>
      <trkpt lat="50.939592" lon="0.580155">
        <ele>49.4</ele>
        <time>2026-04-24T23:13:17.000Z</time>
      </trkpt>
      <trkpt lat="50.939567" lon="0.580406">
        <ele>50.8</ele>
        <time>2026-04-24T23:13:21.000Z</time>
      </trkpt>
      <trkpt lat="50.939594" lon="0.580577">
        <ele>52.4</ele>
        <time>2026-04-24T23:13:24.000Z</time>
      </trkpt>
      <trkpt lat="50.939658" lon="0.580813">
        <ele>53.4</ele>
        <time>2026-04-24T23:13:28.000Z</time>
      </trkpt>
      <trkpt lat="50.939635" lon="0.580923">
        <ele>54.4</ele>
        <time>2026-04-24T23:13:30.000Z</time>
      </trkpt>
      <trkpt lat="50.939662" lon="0.581114">
        <ele>56.4</ele>
        <time>2026-04-24T23:13:33.000Z</time>
      </trkpt>
      <trkpt lat="50.939631" lon="0.581201">
        <ele>57.4</ele>
        <time>2026-04-24T23:13:35.000Z</time>
      </trkpt>
      <trkpt lat="50.939592" lon="0.58141">
        <ele>60</ele>
        <time>2026-04-24T23:13:39.000Z</time>
      </trkpt>
      <trkpt lat="50.939596" lon="0.581605">
        <ele>61.8</ele>
        <time>2026-04-24T23:13:42.000Z</time>
      </trkpt>
      <trkpt lat="50.939576" lon="0.581733">
        <ele>63</ele>
        <time>2026-04-24T23:13:44.000Z</time>
      </trkpt>
      <trkpt lat="50.939533" lon="0.581828">
        <ele>63.4</ele>
        <time>2026-04-24T23:13:46.000Z</time>
      </trkpt>
      <trkpt lat="50.939517" lon="0.581979">
        <ele>64.6</ele>
        <time>2026-04-24T23:13:49.000Z</time>
      </trkpt>
      <trkpt lat="50.93953" lon="0.582047">
        <ele>65</ele>
        <time>2026-04-24T23:13:50.000Z</time>
      </trkpt>
      <trkpt lat="50.939444" lon="0.582554">
        <ele>66.6</ele>
        <time>2026-04-24T23:13:59.000Z</time>
      </trkpt>
      <trkpt lat="50.939434" lon="0.582907">
        <ele>67.6</ele>
        <time>2026-04-24T23:14:05.000Z</time>
      </trkpt>
      <trkpt lat="50.939459" lon="0.583285">
        <ele>68.4</ele>
        <time>2026-04-24T23:14:11.000Z</time>
      </trkpt>
      <trkpt lat="50.939664" lon="0.583988">
        <ele>68.8</ele>
        <time>2026-04-24T23:14:24.000Z</time>
      </trkpt>
      <trkpt lat="50.939757" lon="0.584593">
        <ele>68.8</ele>
        <time>2026-04-24T23:14:35.000Z</time>
      </trkpt>
      <trkpt lat="50.939774" lon="0.584997">
        <ele>68.8</ele>
        <time>2026-04-24T23:14:42.000Z</time>
      </trkpt>
      <trkpt lat="50.939732" lon="0.586101">
        <ele>68.8</ele>
        <time>2026-04-24T23:15:00.000Z</time>
      </trkpt>
      <trkpt lat="50.939658" lon="0.587377">
        <ele>69.6</ele>
        <time>2026-04-24T23:15:22.000Z</time>
      </trkpt>
      <trkpt lat="50.939547" lon="0.58867">
        <ele>71</ele>
        <time>2026-04-24T23:15:44.000Z</time>
      </trkpt>
      <trkpt lat="50.939337" lon="0.589873">
        <ele>72.8</ele>
        <time>2026-04-24T23:16:05.000Z</time>
      </trkpt>
      <trkpt lat="50.939147" lon="0.590756">
        <ele>72.2</ele>
        <time>2026-04-24T23:16:20.000Z</time>
      </trkpt>
      <trkpt lat="50.939059" lon="0.591356">
        <ele>71.2</ele>
        <time>2026-04-24T23:16:31.000Z</time>
      </trkpt>
      <trkpt lat="50.938887" lon="0.592183">
        <ele>70</ele>
        <time>2026-04-24T23:16:45.000Z</time>
      </trkpt>
      <trkpt lat="50.93888" lon="0.592289">
        <ele>69.4</ele>
        <time>2026-04-24T23:16:47.000Z</time>
      </trkpt>
      <trkpt lat="50.938914" lon="0.592324">
        <ele>69</ele>
        <time>2026-04-24T23:16:48.000Z</time>
      </trkpt>
      <trkpt lat="50.939008" lon="0.592322">
        <ele>68.6</ele>
        <time>2026-04-24T23:16:51.000Z</time>
      </trkpt>
      <trkpt lat="50.939071" lon="0.592344">
        <ele>68.4</ele>
        <time>2026-04-24T23:16:52.000Z</time>
      </trkpt>
      <trkpt lat="50.939237" lon="0.592456">
        <ele>68.4</ele>
        <time>2026-04-24T23:16:57.000Z</time>
      </trkpt>
      <trkpt lat="50.939301" lon="0.592526">
        <ele>68.6</ele>
        <time>2026-04-24T23:16:59.000Z</time>
      </trkpt>
      <trkpt lat="50.939414" lon="0.592712">
        <ele>69.2</ele>
        <time>2026-04-24T23:17:04.000Z</time>
      </trkpt>
      <trkpt lat="50.939543" lon="0.593002">
        <ele>69.8</ele>
        <time>2026-04-24T23:17:10.000Z</time>
      </trkpt>
      <trkpt lat="50.939671" lon="0.593344">
        <ele>70.2</ele>
        <time>2026-04-24T23:17:16.000Z</time>
      </trkpt>
      <trkpt lat="50.939969" lon="0.59429">
        <ele>71.8</ele>
        <time>2026-04-24T23:17:34.000Z</time>
      </trkpt>
      <trkpt lat="50.940148" lon="0.59466">
        <ele>72</ele>
        <time>2026-04-24T23:17:42.000Z</time>
      </trkpt>
      <trkpt lat="50.940384" lon="0.59508">
        <ele>71.8</ele>
        <time>2026-04-24T23:17:51.000Z</time>
      </trkpt>
      <trkpt lat="50.940574" lon="0.595353">
        <ele>71.4</ele>
        <time>2026-04-24T23:17:58.000Z</time>
      </trkpt>
      <trkpt lat="50.941071" lon="0.595967">
        <ele>70.4</ele>
        <time>2026-04-24T23:18:15.000Z</time>
      </trkpt>
      <trkpt lat="50.941334" lon="0.596221">
        <ele>69.4</ele>
        <time>2026-04-24T23:18:23.000Z</time>
      </trkpt>
      <trkpt lat="50.941544" lon="0.596376">
        <ele>68.2</ele>
        <time>2026-04-24T23:18:30.000Z</time>
      </trkpt>
      <trkpt lat="50.942006" lon="0.596635">
        <ele>66.8</ele>
        <time>2026-04-24T23:18:43.000Z</time>
      </trkpt>
      <trkpt lat="50.942149" lon="0.596688">
        <ele>66.4</ele>
        <time>2026-04-24T23:18:47.000Z</time>
      </trkpt>
      <trkpt lat="50.942303" lon="0.596721">
        <ele>66.2</ele>
        <time>2026-04-24T23:18:51.000Z</time>
      </trkpt>
      <trkpt lat="50.942717" lon="0.596776">
        <ele>65.2</ele>
        <time>2026-04-24T23:19:02.000Z</time>
      </trkpt>
      <trkpt lat="50.943131" lon="0.59681">
        <ele>64.2</ele>
        <time>2026-04-24T23:19:13.000Z</time>
      </trkpt>
      <trkpt lat="50.943912" lon="0.596814">
        <ele>62.6</ele>
        <time>2026-04-24T23:19:34.000Z</time>
      </trkpt>
      <trkpt lat="50.944506" lon="0.596859">
        <ele>62.4</ele>
        <time>2026-04-24T23:19:50.000Z</time>
      </trkpt>
      <trkpt lat="50.944727" lon="0.596807">
        <ele>62</ele>
        <time>2026-04-24T23:19:56.000Z</time>
      </trkpt>
      <trkpt lat="50.945159" lon="0.596615">
        <ele>61.6</ele>
        <time>2026-04-24T23:20:07.000Z</time>
      </trkpt>
      <trkpt lat="50.945258" lon="0.596551">
        <ele>61.8</ele>
        <time>2026-04-24T23:20:10.000Z</time>
      </trkpt>
      <trkpt lat="50.945399" lon="0.596504">
        <ele>62.2</ele>
        <time>2026-04-24T23:20:14.000Z</time>
      </trkpt>
      <trkpt lat="50.945545" lon="0.596425">
        <ele>64.4</ele>
        <time>2026-04-24T23:20:18.000Z</time>
      </trkpt>
      <trkpt lat="50.945666" lon="0.596381">
        <ele>66</ele>
        <time>2026-04-24T23:20:22.000Z</time>
      </trkpt>
      <trkpt lat="50.945876" lon="0.596387">
        <ele>67.8</ele>
        <time>2026-04-24T23:20:27.000Z</time>
      </trkpt>
      <trkpt lat="50.946109" lon="0.596436">
        <ele>69</ele>
        <time>2026-04-24T23:20:33.000Z</time>
      </trkpt>
      <trkpt lat="50.946255" lon="0.596501">
        <ele>69.4</ele>
        <time>2026-04-24T23:20:38.000Z</time>
      </trkpt>
      <trkpt lat="50.946396" lon="0.596587">
        <ele>69.6</ele>
        <time>2026-04-24T23:20:42.000Z</time>
      </trkpt>
      <trkpt lat="50.94672" lon="0.596905">
        <ele>69.6</ele>
        <time>2026-04-24T23:20:52.000Z</time>
      </trkpt>
      <trkpt lat="50.946946" lon="0.597056">
        <ele>69.8</ele>
        <time>2026-04-24T23:20:58.000Z</time>
      </trkpt>
      <trkpt lat="50.947152" lon="0.597106">
        <ele>70</ele>
        <time>2026-04-24T23:21:04.000Z</time>
      </trkpt>
      <trkpt lat="50.947523" lon="0.597155">
        <ele>71.4</ele>
        <time>2026-04-24T23:21:14.000Z</time>
      </trkpt>
      <trkpt lat="50.947753" lon="0.597232">
        <ele>72.6</ele>
        <time>2026-04-24T23:21:20.000Z</time>
      </trkpt>
      <trkpt lat="50.947815" lon="0.597235">
        <ele>73</ele>
        <time>2026-04-24T23:21:22.000Z</time>
      </trkpt>
      <trkpt lat="50.948021" lon="0.597337">
        <ele>74</ele>
        <time>2026-04-24T23:21:27.000Z</time>
      </trkpt>
      <trkpt lat="50.948417" lon="0.59762">
        <ele>76.8</ele>
        <time>2026-04-24T23:21:39.000Z</time>
      </trkpt>
      <trkpt lat="50.948635" lon="0.597824">
        <ele>78.6</ele>
        <time>2026-04-24T23:21:46.000Z</time>
      </trkpt>
      <trkpt lat="50.948702" lon="0.597859">
        <ele>79</ele>
        <time>2026-04-24T23:21:48.000Z</time>
      </trkpt>
      <trkpt lat="50.948765" lon="0.597941">
        <ele>79.2</ele>
        <time>2026-04-24T23:21:50.000Z</time>
      </trkpt>
      <trkpt lat="50.948826" lon="0.598063">
        <ele>80</ele>
        <time>2026-04-24T23:21:53.000Z</time>
      </trkpt>
      <trkpt lat="50.948873" lon="0.598245">
        <ele>81</ele>
        <time>2026-04-24T23:21:56.000Z</time>
      </trkpt>
      <trkpt lat="50.948845" lon="0.598472">
        <ele>81.6</ele>
        <time>2026-04-24T23:22:00.000Z</time>
      </trkpt>
      <trkpt lat="50.948853" lon="0.598802">
        <ele>81.8</ele>
        <time>2026-04-24T23:22:05.000Z</time>
      </trkpt>
      <trkpt lat="50.948956" lon="0.600752">
        <ele>81.4</ele>
        <time>2026-04-24T23:22:38.000Z</time>
      </trkpt>
      <trkpt lat="50.948958" lon="0.601328">
        <ele>81</ele>
        <time>2026-04-24T23:22:48.000Z</time>
      </trkpt>
      <trkpt lat="50.948924" lon="0.602524">
        <ele>80</ele>
        <time>2026-04-24T23:23:08.000Z</time>
      </trkpt>
      <trkpt lat="50.948886" lon="0.602935">
        <ele>79.8</ele>
        <time>2026-04-24T23:23:15.000Z</time>
      </trkpt>
      <trkpt lat="50.948726" lon="0.603869">
        <ele>79</ele>
        <time>2026-04-24T23:23:31.000Z</time>
      </trkpt>
      <trkpt lat="50.948509" lon="0.604774">
        <ele>78.4</ele>
        <time>2026-04-24T23:23:48.000Z</time>
      </trkpt>
      <trkpt lat="50.948407" lon="0.605123">
        <ele>78.4</ele>
        <time>2026-04-24T23:23:54.000Z</time>
      </trkpt>
      <trkpt lat="50.948208" lon="0.605654">
        <ele>78.2</ele>
        <time>2026-04-24T23:24:04.000Z</time>
      </trkpt>
      <trkpt lat="50.947986" lon="0.606039">
        <ele>77.8</ele>
        <time>2026-04-24T23:24:13.000Z</time>
      </trkpt>
      <trkpt lat="50.947678" lon="0.606499">
        <ele>77.2</ele>
        <time>2026-04-24T23:24:24.000Z</time>
      </trkpt>
      <trkpt lat="50.947314" lon="0.60697">
        <ele>75.4</ele>
        <time>2026-04-24T23:24:37.000Z</time>
      </trkpt>
      <trkpt lat="50.947102" lon="0.607202">
        <ele>74.8</ele>
        <time>2026-04-24T23:24:44.000Z</time>
      </trkpt>
      <trkpt lat="50.946927" lon="0.607336">
        <ele>73.8</ele>
        <time>2026-04-24T23:24:49.000Z</time>
      </trkpt>
      <trkpt lat="50.946594" lon="0.607496">
        <ele>72.8</ele>
        <time>2026-04-24T23:24:58.000Z</time>
      </trkpt>
      <trkpt lat="50.946494" lon="0.60756">
        <ele>72.8</ele>
        <time>2026-04-24T23:25:01.000Z</time>
      </trkpt>
      <trkpt lat="50.946272" lon="0.60775">
        <ele>72</ele>
        <time>2026-04-24T23:25:08.000Z</time>
      </trkpt>
      <trkpt lat="50.94605" lon="0.608008">
        <ele>71.4</ele>
        <time>2026-04-24T23:25:15.000Z</time>
      </trkpt>
      <trkpt lat="50.945877" lon="0.608238">
        <ele>71</ele>
        <time>2026-04-24T23:25:21.000Z</time>
      </trkpt>
      <trkpt lat="50.945711" lon="0.608525">
        <ele>70.6</ele>
        <time>2026-04-24T23:25:28.000Z</time>
      </trkpt>
      <trkpt lat="50.945621" lon="0.608722">
        <ele>70.2</ele>
        <time>2026-04-24T23:25:32.000Z</time>
      </trkpt>
      <trkpt lat="50.945539" lon="0.608931">
        <ele>70.2</ele>
        <time>2026-04-24T23:25:36.000Z</time>
      </trkpt>
      <trkpt lat="50.945487" lon="0.609162">
        <ele>69.8</ele>
        <time>2026-04-24T23:25:40.000Z</time>
      </trkpt>
      <trkpt lat="50.945346" lon="0.610382">
        <ele>68.6</ele>
        <time>2026-04-24T23:26:01.000Z</time>
      </trkpt>
      <trkpt lat="50.945276" lon="0.610748">
        <ele>68.2</ele>
        <time>2026-04-24T23:26:08.000Z</time>
      </trkpt>
      <trkpt lat="50.944691" lon="0.612959">
        <ele>65.8</ele>
        <time>2026-04-24T23:26:48.000Z</time>
      </trkpt>
      <trkpt lat="50.944383" lon="0.613868">
        <ele>63.8</ele>
        <time>2026-04-24T23:27:05.000Z</time>
      </trkpt>
      <trkpt lat="50.944326" lon="0.61418">
        <ele>63.4</ele>
        <time>2026-04-24T23:27:11.000Z</time>
      </trkpt>
      <trkpt lat="50.944313" lon="0.614624">
        <ele>62.4</ele>
        <time>2026-04-24T23:27:18.000Z</time>
      </trkpt>
      <trkpt lat="50.944407" lon="0.615854">
        <ele>60</ele>
        <time>2026-04-24T23:27:39.000Z</time>
      </trkpt>
      <trkpt lat="50.944465" lon="0.617479">
        <ele>60.2</ele>
        <time>2026-04-24T23:28:06.000Z</time>
      </trkpt>
      <trkpt lat="50.944485" lon="0.618725">
        <ele>61.6</ele>
        <time>2026-04-24T23:28:27.000Z</time>
      </trkpt>
      <trkpt lat="50.944519" lon="0.619679">
        <ele>63</ele>
        <time>2026-04-24T23:28:43.000Z</time>
      </trkpt>
      <trkpt lat="50.944495" lon="0.620342">
        <ele>64</ele>
        <time>2026-04-24T23:28:55.000Z</time>
      </trkpt>
      <trkpt lat="50.944378" lon="0.62113">
        <ele>64.6</ele>
        <time>2026-04-24T23:29:08.000Z</time>
      </trkpt>
      <trkpt lat="50.944311" lon="0.62146">
        <ele>64.4</ele>
        <time>2026-04-24T23:29:14.000Z</time>
      </trkpt>
      <trkpt lat="50.944187" lon="0.621857">
        <ele>64.2</ele>
        <time>2026-04-24T23:29:21.000Z</time>
      </trkpt>
      <trkpt lat="50.943987" lon="0.622324">
        <ele>63</ele>
        <time>2026-04-24T23:29:31.000Z</time>
      </trkpt>
      <trkpt lat="50.943741" lon="0.623428">
        <ele>60.4</ele>
        <time>2026-04-24T23:29:51.000Z</time>
      </trkpt>
      <trkpt lat="50.943464" lon="0.624426">
        <ele>58.6</ele>
        <time>2026-04-24T23:30:09.000Z</time>
      </trkpt>
      <trkpt lat="50.943391" lon="0.624755">
        <ele>58.4</ele>
        <time>2026-04-24T23:30:15.000Z</time>
      </trkpt>
      <trkpt lat="50.943302" lon="0.625364">
        <ele>57.8</ele>
        <time>2026-04-24T23:30:25.000Z</time>
      </trkpt>
      <trkpt lat="50.943183" lon="0.626524">
        <ele>56.4</ele>
        <time>2026-04-24T23:30:45.000Z</time>
      </trkpt>
      <trkpt lat="50.943138" lon="0.626758">
        <ele>55.8</ele>
        <time>2026-04-24T23:30:49.000Z</time>
      </trkpt>
      <trkpt lat="50.942993" lon="0.627223">
        <ele>54.8</ele>
        <time>2026-04-24T23:30:58.000Z</time>
      </trkpt>
      <trkpt lat="50.942596" lon="0.628048">
        <ele>53.2</ele>
        <time>2026-04-24T23:31:15.000Z</time>
      </trkpt>
      <trkpt lat="50.942485" lon="0.628526">
        <ele>52.4</ele>
        <time>2026-04-24T23:31:24.000Z</time>
      </trkpt>
      <trkpt lat="50.942419" lon="0.629117">
        <ele>51.6</ele>
        <time>2026-04-24T23:31:34.000Z</time>
      </trkpt>
      <trkpt lat="50.942367" lon="0.63089">
        <ele>49.6</ele>
        <time>2026-04-24T23:32:04.000Z</time>
      </trkpt>
      <trkpt lat="50.942371" lon="0.631677">
        <ele>48.4</ele>
        <time>2026-04-24T23:32:17.000Z</time>
      </trkpt>
      <trkpt lat="50.942412" lon="0.631981">
        <ele>47.8</ele>
        <time>2026-04-24T23:32:22.000Z</time>
      </trkpt>
      <trkpt lat="50.942536" lon="0.632516">
        <ele>47.4</ele>
        <time>2026-04-24T23:32:32.000Z</time>
      </trkpt>
      <trkpt lat="50.942573" lon="0.632737">
        <ele>47.4</ele>
        <time>2026-04-24T23:32:36.000Z</time>
      </trkpt>
      <trkpt lat="50.942589" lon="0.632962">
        <ele>47.2</ele>
        <time>2026-04-24T23:32:40.000Z</time>
      </trkpt>
      <trkpt lat="50.942579" lon="0.634862">
        <ele>46.8</ele>
        <time>2026-04-24T23:33:12.000Z</time>
      </trkpt>
      <trkpt lat="50.942505" lon="0.636156">
        <ele>47.2</ele>
        <time>2026-04-24T23:33:34.000Z</time>
      </trkpt>
      <trkpt lat="50.942516" lon="0.637152">
        <ele>48.2</ele>
        <time>2026-04-24T23:33:50.000Z</time>
      </trkpt>
      <trkpt lat="50.942563" lon="0.637871">
        <ele>49</ele>
        <time>2026-04-24T23:34:02.000Z</time>
      </trkpt>
      <trkpt lat="50.94274" lon="0.639633">
        <ele>52.6</ele>
        <time>2026-04-24T23:34:32.000Z</time>
      </trkpt>
      <trkpt lat="50.94275" lon="0.639872">
        <ele>52.8</ele>
        <time>2026-04-24T23:34:36.000Z</time>
      </trkpt>
      <trkpt lat="50.942877" lon="0.640859">
        <ele>53.6</ele>
        <time>2026-04-24T23:34:53.000Z</time>
      </trkpt>
      <trkpt lat="50.942954" lon="0.641706">
        <ele>54.2</ele>
        <time>2026-04-24T23:35:08.000Z</time>
      </trkpt>
      <trkpt lat="50.942964" lon="0.642052">
        <ele>54.8</ele>
        <time>2026-04-24T23:35:14.000Z</time>
      </trkpt>
      <trkpt lat="50.942956" lon="0.642572">
        <ele>55.4</ele>
        <time>2026-04-24T23:35:22.000Z</time>
      </trkpt>
      <trkpt lat="50.942916" lon="0.643272">
        <ele>56.4</ele>
        <time>2026-04-24T23:35:34.000Z</time>
      </trkpt>
      <trkpt lat="50.942843" lon="0.644024">
        <ele>57.8</ele>
        <time>2026-04-24T23:35:47.000Z</time>
      </trkpt>
      <trkpt lat="50.942733" lon="0.644926">
        <ele>59.2</ele>
        <time>2026-04-24T23:36:02.000Z</time>
      </trkpt>
      <trkpt lat="50.942641" lon="0.646192">
        <ele>59.2</ele>
        <time>2026-04-24T23:36:24.000Z</time>
      </trkpt>
      <trkpt lat="50.94257" lon="0.646655">
        <ele>59.2</ele>
        <time>2026-04-24T23:36:32.000Z</time>
      </trkpt>
      <trkpt lat="50.942424" lon="0.647253">
        <ele>58.8</ele>
        <time>2026-04-24T23:36:43.000Z</time>
      </trkpt>
      <trkpt lat="50.942293" lon="0.647896">
        <ele>58.6</ele>
        <time>2026-04-24T23:36:54.000Z</time>
      </trkpt>
      <trkpt lat="50.941943" lon="0.65043">
        <ele>59.4</ele>
        <time>2026-04-24T23:37:38.000Z</time>
      </trkpt>
      <trkpt lat="50.941791" lon="0.651275">
        <ele>59.6</ele>
        <time>2026-04-24T23:37:52.000Z</time>
      </trkpt>
      <trkpt lat="50.941007" lon="0.654278">
        <ele>60.8</ele>
        <time>2026-04-24T23:38:47.000Z</time>
      </trkpt>
      <trkpt lat="50.940866" lon="0.654726">
        <ele>60.6</ele>
        <time>2026-04-24T23:38:56.000Z</time>
      </trkpt>
      <trkpt lat="50.940621" lon="0.655338">
        <ele>60.2</ele>
        <time>2026-04-24T23:39:08.000Z</time>
      </trkpt>
      <trkpt lat="50.940426" lon="0.655753">
        <ele>59.6</ele>
        <time>2026-04-24T23:39:16.000Z</time>
      </trkpt>
      <trkpt lat="50.940246" lon="0.656091">
        <ele>59.4</ele>
        <time>2026-04-24T23:39:24.000Z</time>
      </trkpt>
      <trkpt lat="50.939966" lon="0.656509">
        <ele>59.2</ele>
        <time>2026-04-24T23:39:34.000Z</time>
      </trkpt>
      <trkpt lat="50.939774" lon="0.656857">
        <ele>59.2</ele>
        <time>2026-04-24T23:39:42.000Z</time>
      </trkpt>
      <trkpt lat="50.939646" lon="0.657187">
        <ele>59.2</ele>
        <time>2026-04-24T23:39:48.000Z</time>
      </trkpt>
      <trkpt lat="50.939543" lon="0.657534">
        <ele>59.2</ele>
        <time>2026-04-24T23:39:55.000Z</time>
      </trkpt>
      <trkpt lat="50.939324" lon="0.658394">
        <ele>59.6</ele>
        <time>2026-04-24T23:40:11.000Z</time>
      </trkpt>
      <trkpt lat="50.939176" lon="0.659101">
        <ele>59</ele>
        <time>2026-04-24T23:40:23.000Z</time>
      </trkpt>
      <trkpt lat="50.938733" lon="0.661861">
        <ele>51.2</ele>
        <time>2026-04-24T23:41:11.000Z</time>
      </trkpt>
      <trkpt lat="50.938443" lon="0.664446">
        <ele>42.4</ele>
        <time>2026-04-24T23:41:55.000Z</time>
      </trkpt>
      <trkpt lat="50.938299" lon="0.666049">
        <ele>38.8</ele>
        <time>2026-04-24T23:42:22.000Z</time>
      </trkpt>
      <trkpt lat="50.938325" lon="0.666444">
        <ele>38</ele>
        <time>2026-04-24T23:42:29.000Z</time>
      </trkpt>
      <trkpt lat="50.938481" lon="0.667251">
        <ele>36.6</ele>
        <time>2026-04-24T23:42:43.000Z</time>
      </trkpt>
      <trkpt lat="50.938509" lon="0.667723">
        <ele>36.2</ele>
        <time>2026-04-24T23:42:51.000Z</time>
      </trkpt>
      <trkpt lat="50.938485" lon="0.668195">
        <ele>36.2</ele>
        <time>2026-04-24T23:42:59.000Z</time>
      </trkpt>
      <trkpt lat="50.938411" lon="0.668884">
        <ele>37.2</ele>
        <time>2026-04-24T23:43:11.000Z</time>
      </trkpt>
      <trkpt lat="50.938394" lon="0.669949">
        <ele>41.2</ele>
        <time>2026-04-24T23:43:29.000Z</time>
      </trkpt>
      <trkpt lat="50.938272" lon="0.671547">
        <ele>44.6</ele>
        <time>2026-04-24T23:43:56.000Z</time>
      </trkpt>
      <trkpt lat="50.938291" lon="0.67193">
        <ele>45</ele>
        <time>2026-04-24T23:44:02.000Z</time>
      </trkpt>
      <trkpt lat="50.938335" lon="0.672227">
        <ele>45.4</ele>
        <time>2026-04-24T23:44:08.000Z</time>
      </trkpt>
      <trkpt lat="50.93852" lon="0.67315">
        <ele>48.4</ele>
        <time>2026-04-24T23:44:24.000Z</time>
      </trkpt>
      <trkpt lat="50.938705" lon="0.673869">
        <ele>49.6</ele>
        <time>2026-04-24T23:44:37.000Z</time>
      </trkpt>
      <trkpt lat="50.938769" lon="0.674231">
        <ele>50.4</ele>
        <time>2026-04-24T23:44:43.000Z</time>
      </trkpt>
      <trkpt lat="50.938876" lon="0.675567">
        <ele>50.8</ele>
        <time>2026-04-24T23:45:06.000Z</time>
      </trkpt>
      <trkpt lat="50.938878" lon="0.676994">
        <ele>50.8</ele>
        <time>2026-04-24T23:45:30.000Z</time>
      </trkpt>
      <trkpt lat="50.938835" lon="0.677264">
        <ele>51</ele>
        <time>2026-04-24T23:45:35.000Z</time>
      </trkpt>
      <trkpt lat="50.938746" lon="0.677484">
        <ele>51.2</ele>
        <time>2026-04-24T23:45:39.000Z</time>
      </trkpt>
      <trkpt lat="50.938246" lon="0.678145">
        <ele>53.4</ele>
        <time>2026-04-24T23:45:56.000Z</time>
      </trkpt>
      <trkpt lat="50.938148" lon="0.678329">
        <ele>54.4</ele>
        <time>2026-04-24T23:46:00.000Z</time>
      </trkpt>
      <trkpt lat="50.938074" lon="0.678544">
        <ele>55</ele>
        <time>2026-04-24T23:46:05.000Z</time>
      </trkpt>
      <trkpt lat="50.938018" lon="0.678868">
        <ele>55.8</ele>
        <time>2026-04-24T23:46:10.000Z</time>
      </trkpt>
      <trkpt lat="50.937958" lon="0.680254">
        <ele>57</ele>
        <time>2026-04-24T23:46:34.000Z</time>
      </trkpt>
      <trkpt lat="50.937828" lon="0.680851">
        <ele>56.6</ele>
        <time>2026-04-24T23:46:44.000Z</time>
      </trkpt>
      <trkpt lat="50.937793" lon="0.681085">
        <ele>56.4</ele>
        <time>2026-04-24T23:46:48.000Z</time>
      </trkpt>
      <trkpt lat="50.937787" lon="0.681468">
        <ele>56</ele>
        <time>2026-04-24T23:46:55.000Z</time>
      </trkpt>
      <trkpt lat="50.93782" lon="0.681726">
        <ele>55.4</ele>
        <time>2026-04-24T23:46:59.000Z</time>
      </trkpt>
      <trkpt lat="50.937925" lon="0.682209">
        <ele>54.8</ele>
        <time>2026-04-24T23:47:08.000Z</time>
      </trkpt>
      <trkpt lat="50.938102" lon="0.682778">
        <ele>53.6</ele>
        <time>2026-04-24T23:47:18.000Z</time>
      </trkpt>
      <trkpt lat="50.938475" lon="0.683712">
        <ele>52.6</ele>
        <time>2026-04-24T23:47:37.000Z</time>
      </trkpt>
      <trkpt lat="50.938737" lon="0.684249">
        <ele>52.2</ele>
        <time>2026-04-24T23:47:48.000Z</time>
      </trkpt>
      <trkpt lat="50.938847" lon="0.684536">
        <ele>52</ele>
        <time>2026-04-24T23:47:54.000Z</time>
      </trkpt>
      <trkpt lat="50.939145" lon="0.685689">
        <ele>50.8</ele>
        <time>2026-04-24T23:48:15.000Z</time>
      </trkpt>
      <trkpt lat="50.939428" lon="0.686667">
        <ele>50.8</ele>
        <time>2026-04-24T23:48:33.000Z</time>
      </trkpt>
      <trkpt lat="50.939703" lon="0.68778">
        <ele>50.8</ele>
        <time>2026-04-24T23:48:53.000Z</time>
      </trkpt>
      <trkpt lat="50.93987" lon="0.688232">
        <ele>51</ele>
        <time>2026-04-24T23:49:02.000Z</time>
      </trkpt>
      <trkpt lat="50.940295" lon="0.689012">
        <ele>51.4</ele>
        <time>2026-04-24T23:49:19.000Z</time>
      </trkpt>
      <trkpt lat="50.940451" lon="0.689363">
        <ele>52.6</ele>
        <time>2026-04-24T23:49:27.000Z</time>
      </trkpt>
      <trkpt lat="50.940594" lon="0.689833">
        <ele>53</ele>
        <time>2026-04-24T23:49:35.000Z</time>
      </trkpt>
      <trkpt lat="50.940892" lon="0.690631">
        <ele>54.2</ele>
        <time>2026-04-24T23:49:51.000Z</time>
      </trkpt>
      <trkpt lat="50.941042" lon="0.691177">
        <ele>54.6</ele>
        <time>2026-04-24T23:50:01.000Z</time>
      </trkpt>
      <trkpt lat="50.941094" lon="0.691474">
        <ele>54.6</ele>
        <time>2026-04-24T23:50:06.000Z</time>
      </trkpt>
      <trkpt lat="50.941112" lon="0.692483">
        <ele>54.2</ele>
        <time>2026-04-24T23:50:23.000Z</time>
      </trkpt>
      <trkpt lat="50.941133" lon="0.692718">
        <ele>54.2</ele>
        <time>2026-04-24T23:50:27.000Z</time>
      </trkpt>
      <trkpt lat="50.941175" lon="0.692958">
        <ele>54</ele>
        <time>2026-04-24T23:50:31.000Z</time>
      </trkpt>
      <trkpt lat="50.941582" lon="0.694677">
        <ele>51.6</ele>
        <time>2026-04-24T23:51:02.000Z</time>
      </trkpt>
      <trkpt lat="50.941813" lon="0.695469">
        <ele>50.8</ele>
        <time>2026-04-24T23:51:17.000Z</time>
      </trkpt>
      <trkpt lat="50.942072" lon="0.696893">
        <ele>49.8</ele>
        <time>2026-04-24T23:51:42.000Z</time>
      </trkpt>
      <trkpt lat="50.942179" lon="0.697367">
        <ele>49.2</ele>
        <time>2026-04-24T23:51:50.000Z</time>
      </trkpt>
      <trkpt lat="50.94248" lon="0.698456">
        <ele>47.4</ele>
        <time>2026-04-24T23:52:10.000Z</time>
      </trkpt>
      <trkpt lat="50.942831" lon="0.699372">
        <ele>45.8</ele>
        <time>2026-04-24T23:52:28.000Z</time>
      </trkpt>
      <trkpt lat="50.942928" lon="0.69968">
        <ele>45.2</ele>
        <time>2026-04-24T23:52:34.000Z</time>
      </trkpt>
      <trkpt lat="50.943054" lon="0.700179">
        <ele>44.8</ele>
        <time>2026-04-24T23:52:43.000Z</time>
      </trkpt>
      <trkpt lat="50.943221" lon="0.701074">
        <ele>44.6</ele>
        <time>2026-04-24T23:52:59.000Z</time>
      </trkpt>
      <trkpt lat="50.943519" lon="0.702793">
        <ele>43.4</ele>
        <time>2026-04-24T23:53:29.000Z</time>
      </trkpt>
      <trkpt lat="50.943618" lon="0.704103">
        <ele>41.8</ele>
        <time>2026-04-24T23:53:51.000Z</time>
      </trkpt>
      <trkpt lat="50.943662" lon="0.704438">
        <ele>41.6</ele>
        <time>2026-04-24T23:53:57.000Z</time>
      </trkpt>
      <trkpt lat="50.943731" lon="0.704775">
        <ele>41.4</ele>
        <time>2026-04-24T23:54:03.000Z</time>
      </trkpt>
      <trkpt lat="50.943973" lon="0.705653">
        <ele>41.4</ele>
        <time>2026-04-24T23:54:19.000Z</time>
      </trkpt>
      <trkpt lat="50.944063" lon="0.706082">
        <ele>41.4</ele>
        <time>2026-04-24T23:54:26.000Z</time>
      </trkpt>
      <trkpt lat="50.944119" lon="0.706625">
        <ele>40.4</ele>
        <time>2026-04-24T23:54:36.000Z</time>
      </trkpt>
      <trkpt lat="50.944203" lon="0.708052">
        <ele>39.2</ele>
        <time>2026-04-24T23:55:00.000Z</time>
      </trkpt>
      <trkpt lat="50.944457" lon="0.709825">
        <ele>37.2</ele>
        <time>2026-04-24T23:55:30.000Z</time>
      </trkpt>
      <trkpt lat="50.944554" lon="0.710651">
        <ele>36.2</ele>
        <time>2026-04-24T23:55:45.000Z</time>
      </trkpt>
      <trkpt lat="50.944623" lon="0.710964">
        <ele>36.2</ele>
        <time>2026-04-24T23:55:50.000Z</time>
      </trkpt>
      <trkpt lat="50.944754" lon="0.711397">
        <ele>36</ele>
        <time>2026-04-24T23:55:58.000Z</time>
      </trkpt>
      <trkpt lat="50.944951" lon="0.711956">
        <ele>35.6</ele>
        <time>2026-04-24T23:56:09.000Z</time>
      </trkpt>
      <trkpt lat="50.94508" lon="0.712281">
        <ele>35.4</ele>
        <time>2026-04-24T23:56:15.000Z</time>
      </trkpt>
      <trkpt lat="50.945224" lon="0.712581">
        <ele>35.2</ele>
        <time>2026-04-24T23:56:22.000Z</time>
      </trkpt>
      <trkpt lat="50.946489" lon="0.714782">
        <ele>30.2</ele>
        <time>2026-04-24T23:57:12.000Z</time>
      </trkpt>
      <trkpt lat="50.946616" lon="0.714971">
        <ele>29.8</ele>
        <time>2026-04-24T23:57:17.000Z</time>
      </trkpt>
      <trkpt lat="50.946881" lon="0.715244">
        <ele>28.8</ele>
        <time>2026-04-24T23:57:25.000Z</time>
      </trkpt>
      <trkpt lat="50.947051" lon="0.715714">
        <ele>27.6</ele>
        <time>2026-04-24T23:57:34.000Z</time>
      </trkpt>
      <trkpt lat="50.947664" lon="0.716944">
        <ele>24.2</ele>
        <time>2026-04-24T23:58:00.000Z</time>
      </trkpt>
      <trkpt lat="50.94797" lon="0.717487">
        <ele>22.4</ele>
        <time>2026-04-24T23:58:13.000Z</time>
      </trkpt>
      <trkpt lat="50.948871" lon="0.718977">
        <ele>16.4</ele>
        <time>2026-04-24T23:58:47.000Z</time>
      </trkpt>
      <trkpt lat="50.949325" lon="0.719782">
        <ele>11.4</ele>
        <time>2026-04-24T23:59:06.000Z</time>
      </trkpt>
      <trkpt lat="50.949545" lon="0.72028">
        <ele>7</ele>
        <time>2026-04-24T23:59:16.000Z</time>
      </trkpt>
      <trkpt lat="50.949906" lon="0.720999">
        <ele>5.6</ele>
        <time>2026-04-24T23:59:31.000Z</time>
      </trkpt>
      <trkpt lat="50.950133" lon="0.721497">
        <ele>4.4</ele>
        <time>2026-04-24T23:59:42.000Z</time>
      </trkpt>
      <trkpt lat="50.950253" lon="0.721851">
        <ele>3.6</ele>
        <time>2026-04-24T23:59:48.000Z</time>
      </trkpt>
      <trkpt lat="50.9504" lon="0.722527">
        <ele>2.6</ele>
        <time>2026-04-25T00:00:00.000Z</time>
      </trkpt>
      <trkpt lat="50.950508" lon="0.722754">
        <ele>1.6</ele>
        <time>2026-04-25T00:00:05.000Z</time>
      </trkpt>
      <trkpt lat="50.950692" lon="0.723054">
        <ele>0</ele>
        <time>2026-04-25T00:00:12.000Z</time>
      </trkpt>
      <trkpt lat="50.950784" lon="0.723276">
        <ele>-1</ele>
        <time>2026-04-25T00:00:17.000Z</time>
      </trkpt>
      <trkpt lat="50.950816" lon="0.723395">
        <ele>-1.4</ele>
        <time>2026-04-25T00:00:19.000Z</time>
      </trkpt>
      <trkpt lat="50.95084" lon="0.723643">
        <ele>-1.8</ele>
        <time>2026-04-25T00:00:23.000Z</time>
      </trkpt>
      <trkpt lat="50.950813" lon="0.724358">
        <ele>-2.8</ele>
        <time>2026-04-25T00:00:35.000Z</time>
      </trkpt>
      <trkpt lat="50.950841" lon="0.724702">
        <ele>-3.2</ele>
        <time>2026-04-25T00:00:41.000Z</time>
      </trkpt>
      <trkpt lat="50.950873" lon="0.724809">
        <ele>-3.2</ele>
        <time>2026-04-25T00:00:43.000Z</time>
      </trkpt>
      <trkpt lat="50.950966" lon="0.724996">
        <ele>-3.4</ele>
        <time>2026-04-25T00:00:47.000Z</time>
      </trkpt>
      <trkpt lat="50.95132" lon="0.725438">
        <ele>-3.8</ele>
        <time>2026-04-25T00:00:59.000Z</time>
      </trkpt>
      <trkpt lat="50.951518" lon="0.725785">
        <ele>-4</ele>
        <time>2026-04-25T00:01:07.000Z</time>
      </trkpt>
      <trkpt lat="50.951724" lon="0.726321">
        <ele>-3.8</ele>
        <time>2026-04-25T00:01:17.000Z</time>
      </trkpt>
      <trkpt lat="50.951817" lon="0.726727">
        <ele>-4</ele>
        <time>2026-04-25T00:01:25.000Z</time>
      </trkpt>
      <trkpt lat="50.951828" lon="0.726949">
        <ele>-4</ele>
        <time>2026-04-25T00:01:28.000Z</time>
      </trkpt>
      <trkpt lat="50.951802" lon="0.72717">
        <ele>-4</ele>
        <time>2026-04-25T00:01:32.000Z</time>
      </trkpt>
      <trkpt lat="50.951553" lon="0.728246">
        <ele>-4.2</ele>
        <time>2026-04-25T00:01:52.000Z</time>
      </trkpt>
      <trkpt lat="50.951361" lon="0.729272">
        <ele>-4</ele>
        <time>2026-04-25T00:02:10.000Z</time>
      </trkpt>
      <trkpt lat="50.951371" lon="0.72935">
        <ele>-4</ele>
        <time>2026-04-25T00:02:11.000Z</time>
      </trkpt>
      <trkpt lat="50.951401" lon="0.729422">
        <ele>-4</ele>
        <time>2026-04-25T00:02:12.000Z</time>
      </trkpt>
      <trkpt lat="50.951646" lon="0.729659">
        <ele>-4.4</ele>
        <time>2026-04-25T00:02:20.000Z</time>
      </trkpt>
      <trkpt lat="50.95205" lon="0.730234">
        <ele>-5.2</ele>
        <time>2026-04-25T00:02:34.000Z</time>
      </trkpt>
      <trkpt lat="50.952152" lon="0.730524">
        <ele>-4.8</ele>
        <time>2026-04-25T00:02:40.000Z</time>
      </trkpt>
      <trkpt lat="50.952196" lon="0.730724">
        <ele>-5.2</ele>
        <time>2026-04-25T00:02:44.000Z</time>
      </trkpt>
      <trkpt lat="50.952209" lon="0.730876">
        <ele>-5.2</ele>
        <time>2026-04-25T00:02:46.000Z</time>
      </trkpt>
      <trkpt lat="50.95218" lon="0.731024">
        <ele>-5.4</ele>
        <time>2026-04-25T00:02:49.000Z</time>
      </trkpt>
      <trkpt lat="50.952087" lon="0.731214">
        <ele>-5.6</ele>
        <time>2026-04-25T00:02:53.000Z</time>
      </trkpt>
      <trkpt lat="50.951651" lon="0.73182">
        <ele>-4.2</ele>
        <time>2026-04-25T00:03:08.000Z</time>
      </trkpt>
      <trkpt lat="50.951618" lon="0.731953">
        <ele>-4</ele>
        <time>2026-04-25T00:03:11.000Z</time>
      </trkpt>
      <trkpt lat="50.951631" lon="0.732092">
        <ele>-3.6</ele>
        <time>2026-04-25T00:03:13.000Z</time>
      </trkpt>
      <trkpt lat="50.952105" lon="0.733206">
        <ele>-3.6</ele>
        <time>2026-04-25T00:03:36.000Z</time>
      </trkpt>
      <trkpt lat="50.952449" lon="0.734189">
        <ele>-3.8</ele>
        <time>2026-04-25T00:03:55.000Z</time>
      </trkpt>
      <trkpt lat="50.95289" lon="0.734926">
        <ele>-3.4</ele>
        <time>2026-04-25T00:04:12.000Z</time>
      </trkpt>
      <trkpt lat="50.953013" lon="0.735186">
        <ele>-1.6</ele>
        <time>2026-04-25T00:04:17.000Z</time>
      </trkpt>
      <trkpt lat="50.953077" lon="0.735221">
        <ele>-1</ele>
        <time>2026-04-25T00:04:19.000Z</time>
      </trkpt>
      <trkpt lat="50.953372" lon="0.735269">
        <ele>-0.39999999999998</ele>
        <time>2026-04-25T00:04:27.000Z</time>
      </trkpt>
      <trkpt lat="50.953592" lon="0.735343">
        <ele>-0.60000000000002</ele>
        <time>2026-04-25T00:04:33.000Z</time>
      </trkpt>
      <trkpt lat="50.95378" lon="0.735461">
        <ele>-0.80000000000001</ele>
        <time>2026-04-25T00:04:38.000Z</time>
      </trkpt>
      <trkpt lat="50.953887" lon="0.735509">
        <ele>-1</ele>
        <time>2026-04-25T00:04:41.000Z</time>
      </trkpt>
      <trkpt lat="50.954568" lon="0.735562">
        <ele>0.19999999999999</ele>
        <time>2026-04-25T00:04:59.000Z</time>
      </trkpt>
      <trkpt lat="50.955028" lon="0.735642">
        <ele>1.2</ele>
        <time>2026-04-25T00:05:12.000Z</time>
      </trkpt>
      <trkpt lat="50.955111" lon="0.735685">
        <ele>1.2</ele>
        <time>2026-04-25T00:05:14.000Z</time>
      </trkpt>
      <trkpt lat="50.955295" lon="0.735831">
        <ele>1</ele>
        <time>2026-04-25T00:05:20.000Z</time>
      </trkpt>
      <trkpt lat="50.955837" lon="0.736076">
        <ele>-0.80000000000001</ele>
        <time>2026-04-25T00:05:35.000Z</time>
      </trkpt>
      <trkpt lat="50.956086" lon="0.736223">
        <ele>-1.2</ele>
        <time>2026-04-25T00:05:42.000Z</time>
      </trkpt>
      <trkpt lat="50.956601" lon="0.736656">
        <ele>-2.4</ele>
        <time>2026-04-25T00:05:57.000Z</time>
      </trkpt>
      <trkpt lat="50.957259" lon="0.737467">
        <ele>-3.8</ele>
        <time>2026-04-25T00:06:20.000Z</time>
      </trkpt>
      <trkpt lat="50.957448" lon="0.737746">
        <ele>-3.8</ele>
        <time>2026-04-25T00:06:26.000Z</time>
      </trkpt>
      <trkpt lat="50.957774" lon="0.738425">
        <ele>-4.2</ele>
        <time>2026-04-25T00:06:41.000Z</time>
      </trkpt>
      <trkpt lat="50.957994" lon="0.738814">
        <ele>-4.2</ele>
        <time>2026-04-25T00:06:50.000Z</time>
      </trkpt>
      <trkpt lat="50.958313" lon="0.739228">
        <ele>-4.2</ele>
        <time>2026-04-25T00:07:01.000Z</time>
      </trkpt>
      <trkpt lat="50.958693" lon="0.739672">
        <ele>-4.2</ele>
        <time>2026-04-25T00:07:13.000Z</time>
      </trkpt>
      <trkpt lat="50.958835" lon="0.739789">
        <ele>-4</ele>
        <time>2026-04-25T00:07:17.000Z</time>
      </trkpt>
      <trkpt lat="50.959191" lon="0.739963">
        <ele>-4.2</ele>
        <time>2026-04-25T00:07:27.000Z</time>
      </trkpt>
      <trkpt lat="50.959389" lon="0.740029">
        <ele>-4.2</ele>
        <time>2026-04-25T00:07:33.000Z</time>
      </trkpt>
      <trkpt lat="50.959652" lon="0.740067">
        <ele>-4</ele>
        <time>2026-04-25T00:07:40.000Z</time>
      </trkpt>
      <trkpt lat="50.959787" lon="0.740078">
        <ele>-3.8</ele>
        <time>2026-04-25T00:07:43.000Z</time>
      </trkpt>
      <trkpt lat="50.960102" lon="0.740058">
        <ele>-3.6</ele>
        <time>2026-04-25T00:07:52.000Z</time>
      </trkpt>
      <trkpt lat="50.96022" lon="0.740035">
        <ele>-3.4</ele>
        <time>2026-04-25T00:07:55.000Z</time>
      </trkpt>
      <trkpt lat="50.960415" lon="0.739962">
        <ele>-3</ele>
        <time>2026-04-25T00:08:00.000Z</time>
      </trkpt>
      <trkpt lat="50.960557" lon="0.739952">
        <ele>-3</ele>
        <time>2026-04-25T00:08:04.000Z</time>
      </trkpt>
      <trkpt lat="50.960699" lon="0.739966">
        <ele>-2.8</ele>
        <time>2026-04-25T00:08:08.000Z</time>
      </trkpt>
      <trkpt lat="50.960838" lon="0.740004">
        <ele>-2.8</ele>
        <time>2026-04-25T00:08:12.000Z</time>
      </trkpt>
      <trkpt lat="50.961307" lon="0.740275">
        <ele>-2.8</ele>
        <time>2026-04-25T00:08:25.000Z</time>
      </trkpt>
      <trkpt lat="50.961621" lon="0.740498">
        <ele>-2.8</ele>
        <time>2026-04-25T00:08:34.000Z</time>
      </trkpt>
      <trkpt lat="50.96187" lon="0.740699">
        <ele>-2.8</ele>
        <time>2026-04-25T00:08:42.000Z</time>
      </trkpt>
      <trkpt lat="50.962081" lon="0.740902">
        <ele>-2.8</ele>
        <time>2026-04-25T00:08:48.000Z</time>
      </trkpt>
      <trkpt lat="50.962523" lon="0.741378">
        <ele>-2.6</ele>
        <time>2026-04-25T00:09:03.000Z</time>
      </trkpt>
      <trkpt lat="50.962907" lon="0.741719">
        <ele>-2.6</ele>
        <time>2026-04-25T00:09:14.000Z</time>
      </trkpt>
      <trkpt lat="50.963447" lon="0.742237">
        <ele>-3</ele>
        <time>2026-04-25T00:09:31.000Z</time>
      </trkpt>
      <trkpt lat="50.963657" lon="0.74251">
        <ele>-3</ele>
        <time>2026-04-25T00:09:38.000Z</time>
      </trkpt>
      <trkpt lat="50.964208" lon="0.743302">
        <ele>-2.8</ele>
        <time>2026-04-25T00:09:58.000Z</time>
      </trkpt>
      <trkpt lat="50.964866" lon="0.744036">
        <ele>-3.2</ele>
        <time>2026-04-25T00:10:20.000Z</time>
      </trkpt>
      <trkpt lat="50.966066" lon="0.745212">
        <ele>-4.4</ele>
        <time>2026-04-25T00:10:57.000Z</time>
      </trkpt>
      <trkpt lat="50.96656" lon="0.745646">
        <ele>-4.6</ele>
        <time>2026-04-25T00:11:12.000Z</time>
      </trkpt>
      <trkpt lat="50.967089" lon="0.746148">
        <ele>-4.6</ele>
        <time>2026-04-25T00:11:29.000Z</time>
      </trkpt>
      <trkpt lat="50.967552" lon="0.746698">
        <ele>-4.6</ele>
        <time>2026-04-25T00:11:44.000Z</time>
      </trkpt>
      <trkpt lat="50.967687" lon="0.746885">
        <ele>-4.6</ele>
        <time>2026-04-25T00:11:49.000Z</time>
      </trkpt>
      <trkpt lat="50.968058" lon="0.747418">
        <ele>-4.2</ele>
        <time>2026-04-25T00:12:02.000Z</time>
      </trkpt>
      <trkpt lat="50.968839" lon="0.748616">
        <ele>-3.8</ele>
        <time>2026-04-25T00:12:31.000Z</time>
      </trkpt>
      <trkpt lat="50.969027" lon="0.748877">
        <ele>-3.8</ele>
        <time>2026-04-25T00:12:38.000Z</time>
      </trkpt>
      <trkpt lat="50.97075" lon="0.750863">
        <ele>-5</ele>
        <time>2026-04-25T00:13:35.000Z</time>
      </trkpt>
      <trkpt lat="50.970982" lon="0.751114">
        <ele>-5</ele>
        <time>2026-04-25T00:13:42.000Z</time>
      </trkpt>
      <trkpt lat="50.971194" lon="0.751282">
        <ele>-5.2</ele>
        <time>2026-04-25T00:13:49.000Z</time>
      </trkpt>
      <trkpt lat="50.972669" lon="0.752154">
        <ele>-4.8</ele>
        <time>2026-04-25T00:14:31.000Z</time>
      </trkpt>
      <trkpt lat="50.974299" lon="0.753065">
        <ele>-4.6</ele>
        <time>2026-04-25T00:15:17.000Z</time>
      </trkpt>
      <trkpt lat="50.976283" lon="0.754128">
        <ele>-4.4</ele>
        <time>2026-04-25T00:16:13.000Z</time>
      </trkpt>
      <trkpt lat="50.979295" lon="0.755843">
        <ele>-3.6</ele>
        <time>2026-04-25T00:17:38.000Z</time>
      </trkpt>
      <trkpt lat="50.980003" lon="0.756236">
        <ele>-3.8</ele>
        <time>2026-04-25T00:17:58.000Z</time>
      </trkpt>
      <trkpt lat="50.980301" lon="0.756383">
        <ele>-3.6</ele>
        <time>2026-04-25T00:18:07.000Z</time>
      </trkpt>
      <trkpt lat="50.980727" lon="0.756532">
        <ele>-3.2</ele>
        <time>2026-04-25T00:18:18.000Z</time>
      </trkpt>
      <trkpt lat="50.981307" lon="0.756676">
        <ele>-3.2</ele>
        <time>2026-04-25T00:18:34.000Z</time>
      </trkpt>
      <trkpt lat="50.982693" lon="0.756917">
        <ele>-2.4</ele>
        <time>2026-04-25T00:19:11.000Z</time>
      </trkpt>
      <trkpt lat="50.983691" lon="0.757051">
        <ele>-2</ele>
        <time>2026-04-25T00:19:38.000Z</time>
      </trkpt>
      <trkpt lat="50.984977" lon="0.757159">
        <ele>-2.6</ele>
        <time>2026-04-25T00:20:12.000Z</time>
      </trkpt>
      <trkpt lat="50.985266" lon="0.757167">
        <ele>-2.6</ele>
        <time>2026-04-25T00:20:20.000Z</time>
      </trkpt>
      <trkpt lat="50.985544" lon="0.757147">
        <ele>-2.6</ele>
        <time>2026-04-25T00:20:27.000Z</time>
      </trkpt>
      <trkpt lat="50.986062" lon="0.757051">
        <ele>-2.6</ele>
        <time>2026-04-25T00:20:41.000Z</time>
      </trkpt>
      <trkpt lat="50.986189" lon="0.757047">
        <ele>-2.6</ele>
        <time>2026-04-25T00:20:45.000Z</time>
      </trkpt>
      <trkpt lat="50.986379" lon="0.757101">
        <ele>-2.4</ele>
        <time>2026-04-25T00:20:50.000Z</time>
      </trkpt>
      <trkpt lat="50.987023" lon="0.757433">
        <ele>-2.2</ele>
        <time>2026-04-25T00:21:08.000Z</time>
      </trkpt>
      <trkpt lat="50.987486" lon="0.757818">
        <ele>-2.2</ele>
        <time>2026-04-25T00:21:22.000Z</time>
      </trkpt>
      <trkpt lat="50.990137" lon="0.760313">
        <ele>-4.4</ele>
        <time>2026-04-25T00:22:44.000Z</time>
      </trkpt>
      <trkpt lat="50.990656" lon="0.76074">
        <ele>-3.8</ele>
        <time>2026-04-25T00:23:00.000Z</time>
      </trkpt>
      <trkpt lat="50.990853" lon="0.760847">
        <ele>-3.4</ele>
        <time>2026-04-25T00:23:05.000Z</time>
      </trkpt>
      <trkpt lat="50.991379" lon="0.761057">
        <ele>-3</ele>
        <time>2026-04-25T00:23:20.000Z</time>
      </trkpt>
      <trkpt lat="50.991662" lon="0.761251">
        <ele>-3</ele>
        <time>2026-04-25T00:23:28.000Z</time>
      </trkpt>
      <trkpt lat="50.994107" lon="0.763545">
        <ele>-4.8</ele>
        <time>2026-04-25T00:24:44.000Z</time>
      </trkpt>
      <trkpt lat="50.994625" lon="0.763994">
        <ele>-4.6</ele>
        <time>2026-04-25T00:24:59.000Z</time>
      </trkpt>
      <trkpt lat="50.995483" lon="0.764819">
        <ele>-3.6</ele>
        <time>2026-04-25T00:25:26.000Z</time>
      </trkpt>
      <trkpt lat="50.995679" lon="0.764956">
        <ele>-3.6</ele>
        <time>2026-04-25T00:25:32.000Z</time>
      </trkpt>
      <trkpt lat="50.995818" lon="0.765016">
        <ele>-3.2</ele>
        <time>2026-04-25T00:25:36.000Z</time>
      </trkpt>
      <trkpt lat="50.99615" lon="0.765118">
        <ele>-3.2</ele>
        <time>2026-04-25T00:25:45.000Z</time>
      </trkpt>
      <trkpt lat="50.996439" lon="0.765302">
        <ele>-3</ele>
        <time>2026-04-25T00:25:53.000Z</time>
      </trkpt>
      <trkpt lat="50.997675" lon="0.766447">
        <ele>-3.6</ele>
        <time>2026-04-25T00:26:31.000Z</time>
      </trkpt>
      <trkpt lat="50.998056" lon="0.766821">
        <ele>-4.4</ele>
        <time>2026-04-25T00:26:43.000Z</time>
      </trkpt>
      <trkpt lat="51.000084" lon="0.768687">
        <ele>-4.2</ele>
        <time>2026-04-25T00:27:46.000Z</time>
      </trkpt>
      <trkpt lat="51.000256" lon="0.768809">
        <ele>-4.2</ele>
        <time>2026-04-25T00:27:51.000Z</time>
      </trkpt>
      <trkpt lat="51.000385" lon="0.768878">
        <ele>-3.8</ele>
        <time>2026-04-25T00:27:55.000Z</time>
      </trkpt>
      <trkpt lat="51.000676" lon="0.768959">
        <ele>-3.6</ele>
        <time>2026-04-25T00:28:02.000Z</time>
      </trkpt>
      <trkpt lat="51.000788" lon="0.76901">
        <ele>-3.4</ele>
        <time>2026-04-25T00:28:06.000Z</time>
      </trkpt>
      <trkpt lat="51.001053" lon="0.769191">
        <ele>-2.8</ele>
        <time>2026-04-25T00:28:13.000Z</time>
      </trkpt>
      <trkpt lat="51.002741" lon="0.770729">
        <ele>-3</ele>
        <time>2026-04-25T00:29:05.000Z</time>
      </trkpt>
      <trkpt lat="51.003982" lon="0.771836">
        <ele>-3</ele>
        <time>2026-04-25T00:29:43.000Z</time>
      </trkpt>
      <trkpt lat="51.004724" lon="0.77253">
        <ele>-3.2</ele>
        <time>2026-04-25T00:30:06.000Z</time>
      </trkpt>
      <trkpt lat="51.004974" lon="0.772728">
        <ele>-3.2</ele>
        <time>2026-04-25T00:30:14.000Z</time>
      </trkpt>
      <trkpt lat="51.005243" lon="0.772898">
        <ele>-3.2</ele>
        <time>2026-04-25T00:30:21.000Z</time>
      </trkpt>
      <trkpt lat="51.005833" lon="0.773185">
        <ele>-3.2</ele>
        <time>2026-04-25T00:30:38.000Z</time>
      </trkpt>
      <trkpt lat="51.007179" lon="0.773762">
        <ele>-2.6</ele>
        <time>2026-04-25T00:31:15.000Z</time>
      </trkpt>
      <trkpt lat="51.008236" lon="0.774238">
        <ele>-2.2</ele>
        <time>2026-04-25T00:31:44.000Z</time>
      </trkpt>
      <trkpt lat="51.009301" lon="0.774664">
        <ele>-2</ele>
        <time>2026-04-25T00:32:14.000Z</time>
      </trkpt>
      <trkpt lat="51.010001" lon="0.774976">
        <ele>-2.2</ele>
        <time>2026-04-25T00:32:33.000Z</time>
      </trkpt>
      <trkpt lat="51.010189" lon="0.775093">
        <ele>-2.2</ele>
        <time>2026-04-25T00:32:38.000Z</time>
      </trkpt>
      <trkpt lat="51.010305" lon="0.77519">
        <ele>-2.2</ele>
        <time>2026-04-25T00:32:42.000Z</time>
      </trkpt>
      <trkpt lat="51.010625" lon="0.77555">
        <ele>-2.4</ele>
        <time>2026-04-25T00:32:52.000Z</time>
      </trkpt>
      <trkpt lat="51.010743" lon="0.77564">
        <ele>-2.4</ele>
        <time>2026-04-25T00:32:56.000Z</time>
      </trkpt>
      <trkpt lat="51.010868" lon="0.775708">
        <ele>-2.4</ele>
        <time>2026-04-25T00:32:59.000Z</time>
      </trkpt>
      <trkpt lat="51.012344" lon="0.776338">
        <ele>-1.6</ele>
        <time>2026-04-25T00:33:40.000Z</time>
      </trkpt>
      <trkpt lat="51.013851" lon="0.777009">
        <ele>-1.6</ele>
        <time>2026-04-25T00:34:22.000Z</time>
      </trkpt>
      <trkpt lat="51.014607" lon="0.777315">
        <ele>-1.6</ele>
        <time>2026-04-25T00:34:43.000Z</time>
      </trkpt>
      <trkpt lat="51.015009" lon="0.777504">
        <ele>-1.6</ele>
        <time>2026-04-25T00:34:54.000Z</time>
      </trkpt>
      <trkpt lat="51.015268" lon="0.777673">
        <ele>-1.4</ele>
        <time>2026-04-25T00:35:01.000Z</time>
      </trkpt>
      <trkpt lat="51.015389" lon="0.777791">
        <ele>-1.6</ele>
        <time>2026-04-25T00:35:05.000Z</time>
      </trkpt>
      <trkpt lat="51.015625" lon="0.778071">
        <ele>-1.8</ele>
        <time>2026-04-25T00:35:13.000Z</time>
      </trkpt>
      <trkpt lat="51.015827" lon="0.778225">
        <ele>-2.2</ele>
        <time>2026-04-25T00:35:19.000Z</time>
      </trkpt>
      <trkpt lat="51.018122" lon="0.779235">
        <ele>-2.8</ele>
        <time>2026-04-25T00:36:23.000Z</time>
      </trkpt>
      <trkpt lat="51.018376" lon="0.779362">
        <ele>-2.8</ele>
        <time>2026-04-25T00:36:30.000Z</time>
      </trkpt>
      <trkpt lat="51.020066" lon="0.780089">
        <ele>-3</ele>
        <time>2026-04-25T00:37:17.000Z</time>
      </trkpt>
      <trkpt lat="51.020304" lon="0.78024">
        <ele>-3</ele>
        <time>2026-04-25T00:37:23.000Z</time>
      </trkpt>
      <trkpt lat="51.020745" lon="0.780711">
        <ele>-3.6</ele>
        <time>2026-04-25T00:37:38.000Z</time>
      </trkpt>
      <trkpt lat="51.020932" lon="0.780839">
        <ele>-3.6</ele>
        <time>2026-04-25T00:37:43.000Z</time>
      </trkpt>
      <trkpt lat="51.023499" lon="0.782128">
        <ele>-1.8</ele>
        <time>2026-04-25T00:38:55.000Z</time>
      </trkpt>
      <trkpt lat="51.024983" lon="0.782908">
        <ele>-1.6</ele>
        <time>2026-04-25T00:39:37.000Z</time>
      </trkpt>
      <trkpt lat="51.025226" lon="0.783066">
        <ele>-1.2</ele>
        <time>2026-04-25T00:39:44.000Z</time>
      </trkpt>
      <trkpt lat="51.025399" lon="0.783229">
        <ele>-1.2</ele>
        <time>2026-04-25T00:39:49.000Z</time>
      </trkpt>
      <trkpt lat="51.025507" lon="0.783375">
        <ele>-1.2</ele>
        <time>2026-04-25T00:39:53.000Z</time>
      </trkpt>
      <trkpt lat="51.025608" lon="0.783543">
        <ele>-1.4</ele>
        <time>2026-04-25T00:39:57.000Z</time>
      </trkpt>
      <trkpt lat="51.025691" lon="0.783733">
        <ele>-1.8</ele>
        <time>2026-04-25T00:40:01.000Z</time>
      </trkpt>
      <trkpt lat="51.027333" lon="0.788491">
        <ele>-3.6</ele>
        <time>2026-04-25T00:41:32.000Z</time>
      </trkpt>
      <trkpt lat="51.027433" lon="0.788744">
        <ele>-3.4</ele>
        <time>2026-04-25T00:41:37.000Z</time>
      </trkpt>
      <trkpt lat="51.027595" lon="0.789039">
        <ele>-3.4</ele>
        <time>2026-04-25T00:41:43.000Z</time>
      </trkpt>
      <trkpt lat="51.027998" lon="0.789554">
        <ele>-3.2</ele>
        <time>2026-04-25T00:41:57.000Z</time>
      </trkpt>
      <trkpt lat="51.028527" lon="0.790328">
        <ele>-2</ele>
        <time>2026-04-25T00:42:16.000Z</time>
      </trkpt>
      <trkpt lat="51.028538" lon="0.790382">
        <ele>-2</ele>
        <time>2026-04-25T00:42:17.000Z</time>
      </trkpt>
      <trkpt lat="51.02852" lon="0.790449">
        <ele>-2</ele>
        <time>2026-04-25T00:42:18.000Z</time>
      </trkpt>
      <trkpt lat="51.028401" lon="0.790606">
        <ele>-2</ele>
        <time>2026-04-25T00:42:23.000Z</time>
      </trkpt>
      <trkpt lat="51.028353" lon="0.790728">
        <ele>-2.4</ele>
        <time>2026-04-25T00:42:25.000Z</time>
      </trkpt>
      <trkpt lat="51.028359" lon="0.790872">
        <ele>-2.8</ele>
        <time>2026-04-25T00:42:27.000Z</time>
      </trkpt>
      <trkpt lat="51.028424" lon="0.791013">
        <ele>-3</ele>
        <time>2026-04-25T00:42:30.000Z</time>
      </trkpt>
      <trkpt lat="51.029866" lon="0.793183">
        <ele>-4.8</ele>
        <time>2026-04-25T00:43:23.000Z</time>
      </trkpt>
      <trkpt lat="51.030196" lon="0.793651">
        <ele>-5</ele>
        <time>2026-04-25T00:43:35.000Z</time>
      </trkpt>
      <trkpt lat="51.0304" lon="0.793895">
        <ele>-4.8</ele>
        <time>2026-04-25T00:43:42.000Z</time>
      </trkpt>
      <trkpt lat="51.030568" lon="0.794049">
        <ele>-4.8</ele>
        <time>2026-04-25T00:43:47.000Z</time>
      </trkpt>
      <trkpt lat="51.03076" lon="0.794136">
        <ele>-4.8</ele>
        <time>2026-04-25T00:43:52.000Z</time>
      </trkpt>
      <trkpt lat="51.030936" lon="0.794147">
        <ele>-4.4</ele>
        <time>2026-04-25T00:43:57.000Z</time>
      </trkpt>
      <trkpt lat="51.031259" lon="0.794096">
        <ele>-4.4</ele>
        <time>2026-04-25T00:44:06.000Z</time>
      </trkpt>
      <trkpt lat="51.031322" lon="0.794104">
        <ele>-4.4</ele>
        <time>2026-04-25T00:44:07.000Z</time>
      </trkpt>
      <trkpt lat="51.031381" lon="0.794132">
        <ele>-4.2</ele>
        <time>2026-04-25T00:44:09.000Z</time>
      </trkpt>
      <trkpt lat="51.031435" lon="0.794182">
        <ele>-4.2</ele>
        <time>2026-04-25T00:44:11.000Z</time>
      </trkpt>
      <trkpt lat="51.031526" lon="0.794325">
        <ele>-4.2</ele>
        <time>2026-04-25T00:44:14.000Z</time>
      </trkpt>
      <trkpt lat="51.031595" lon="0.794494">
        <ele>-4.2</ele>
        <time>2026-04-25T00:44:18.000Z</time>
      </trkpt>
      <trkpt lat="51.032133" lon="0.796217">
        <ele>-4.6</ele>
        <time>2026-04-25T00:44:50.000Z</time>
      </trkpt>
      <trkpt lat="51.032294" lon="0.796786">
        <ele>-4.6</ele>
        <time>2026-04-25T00:45:00.000Z</time>
      </trkpt>
      <trkpt lat="51.032783" lon="0.799136">
        <ele>-5.4</ele>
        <time>2026-04-25T00:45:42.000Z</time>
      </trkpt>
      <trkpt lat="51.032957" lon="0.799894">
        <ele>-4.8</ele>
        <time>2026-04-25T00:45:55.000Z</time>
      </trkpt>
      <trkpt lat="51.033037" lon="0.800171">
        <ele>-4.6</ele>
        <time>2026-04-25T00:46:01.000Z</time>
      </trkpt>
      <trkpt lat="51.033522" lon="0.801598">
        <ele>-4.4</ele>
        <time>2026-04-25T00:46:28.000Z</time>
      </trkpt>
      <trkpt lat="51.034057" lon="0.803716">
        <ele>-4.4</ele>
        <time>2026-04-25T00:47:06.000Z</time>
      </trkpt>
      <trkpt lat="51.034637" lon="0.805627">
        <ele>-4.4</ele>
        <time>2026-04-25T00:47:42.000Z</time>
      </trkpt>
      <trkpt lat="51.034711" lon="0.80602">
        <ele>-4.4</ele>
        <time>2026-04-25T00:47:49.000Z</time>
      </trkpt>
      <trkpt lat="51.034833" lon="0.807044">
        <ele>-4.8</ele>
        <time>2026-04-25T00:48:06.000Z</time>
      </trkpt>
      <trkpt lat="51.034833" lon="0.807333">
        <ele>-4.8</ele>
        <time>2026-04-25T00:48:11.000Z</time>
      </trkpt>
      <trkpt lat="51.034753" lon="0.807725">
        <ele>-4.8</ele>
        <time>2026-04-25T00:48:18.000Z</time>
      </trkpt>
      <trkpt lat="51.034661" lon="0.807988">
        <ele>-4.6</ele>
        <time>2026-04-25T00:48:23.000Z</time>
      </trkpt>
      <trkpt lat="51.034433" lon="0.808486">
        <ele>-3.6</ele>
        <time>2026-04-25T00:48:33.000Z</time>
      </trkpt>
      <trkpt lat="51.034304" lon="0.808838">
        <ele>-3</ele>
        <time>2026-04-25T00:48:40.000Z</time>
      </trkpt>
      <trkpt lat="51.034201" lon="0.809289">
        <ele>-2.6</ele>
        <time>2026-04-25T00:48:48.000Z</time>
      </trkpt>
      <trkpt lat="51.034142" lon="0.809673">
        <ele>-2.4</ele>
        <time>2026-04-25T00:48:55.000Z</time>
      </trkpt>
      <trkpt lat="51.034091" lon="0.81018">
        <ele>-2.6</ele>
        <time>2026-04-25T00:49:03.000Z</time>
      </trkpt>
      <trkpt lat="51.03406" lon="0.810888">
        <ele>-2.6</ele>
        <time>2026-04-25T00:49:15.000Z</time>
      </trkpt>
      <trkpt lat="51.034069" lon="0.811292">
        <ele>-2.4</ele>
        <time>2026-04-25T00:49:22.000Z</time>
      </trkpt>
      <trkpt lat="51.034125" lon="0.812194">
        <ele>-1.6</ele>
        <time>2026-04-25T00:49:37.000Z</time>
      </trkpt>
      <trkpt lat="51.034091" lon="0.812802">
        <ele>-1.2</ele>
        <time>2026-04-25T00:49:48.000Z</time>
      </trkpt>
      <trkpt lat="51.03399" lon="0.813452">
        <ele>-0.80000000000001</ele>
        <time>2026-04-25T00:49:59.000Z</time>
      </trkpt>
      <trkpt lat="51.033721" lon="0.814516">
        <ele>-0.60000000000002</ele>
        <time>2026-04-25T00:50:18.000Z</time>
      </trkpt>
      <trkpt lat="51.033654" lon="0.814947">
        <ele>-0.80000000000001</ele>
        <time>2026-04-25T00:50:26.000Z</time>
      </trkpt>
      <trkpt lat="51.033634" lon="0.815434">
        <ele>-1</ele>
        <time>2026-04-25T00:50:34.000Z</time>
      </trkpt>
      <trkpt lat="51.033646" lon="0.816116">
        <ele>-1.4</ele>
        <time>2026-04-25T00:50:45.000Z</time>
      </trkpt>
      <trkpt lat="51.033524" lon="0.817695">
        <ele>-1.6</ele>
        <time>2026-04-25T00:51:12.000Z</time>
      </trkpt>
      <trkpt lat="51.033503" lon="0.818196">
        <ele>-1.4</ele>
        <time>2026-04-25T00:51:20.000Z</time>
      </trkpt>
      <trkpt lat="51.033418" lon="0.818701">
        <ele>-1</ele>
        <time>2026-04-25T00:51:29.000Z</time>
      </trkpt>
      <trkpt lat="51.033305" lon="0.819069">
        <ele>-0.60000000000002</ele>
        <time>2026-04-25T00:51:36.000Z</time>
      </trkpt>
      <trkpt lat="51.033159" lon="0.819393">
        <ele>-0.60000000000002</ele>
        <time>2026-04-25T00:51:43.000Z</time>
      </trkpt>
      <trkpt lat="51.032618" lon="0.820328">
        <ele>-0.60000000000002</ele>
        <time>2026-04-25T00:52:04.000Z</time>
      </trkpt>
      <trkpt lat="51.032355" lon="0.820885">
        <ele>-1.2</ele>
        <time>2026-04-25T00:52:16.000Z</time>
      </trkpt>
      <trkpt lat="51.03208" lon="0.821557">
        <ele>-1.6</ele>
        <time>2026-04-25T00:52:29.000Z</time>
      </trkpt>
      <trkpt lat="51.031749" lon="0.822431">
        <ele>-2.2</ele>
        <time>2026-04-25T00:52:46.000Z</time>
      </trkpt>
      <trkpt lat="51.03133" lon="0.823341">
        <ele>-2.2</ele>
        <time>2026-04-25T00:53:05.000Z</time>
      </trkpt>
      <trkpt lat="51.030993" lon="0.824343">
        <ele>-2</ele>
        <time>2026-04-25T00:53:24.000Z</time>
      </trkpt>
      <trkpt lat="51.030806" lon="0.825007">
        <ele>-1.6</ele>
        <time>2026-04-25T00:53:37.000Z</time>
      </trkpt>
      <trkpt lat="51.030713" lon="0.825269">
        <ele>-2</ele>
        <time>2026-04-25T00:53:42.000Z</time>
      </trkpt>
      <trkpt lat="51.030448" lon="0.825839">
        <ele>-2.6</ele>
        <time>2026-04-25T00:53:53.000Z</time>
      </trkpt>
      <trkpt lat="51.03005" lon="0.826537">
        <ele>-2.8</ele>
        <time>2026-04-25T00:54:09.000Z</time>
      </trkpt>
      <trkpt lat="51.029834" lon="0.826799">
        <ele>-2.8</ele>
        <time>2026-04-25T00:54:17.000Z</time>
      </trkpt>
      <trkpt lat="51.029518" lon="0.827057">
        <ele>-2.6</ele>
        <time>2026-04-25T00:54:26.000Z</time>
      </trkpt>
      <trkpt lat="51.029333" lon="0.827139">
        <ele>-2.4</ele>
        <time>2026-04-25T00:54:31.000Z</time>
      </trkpt>
      <trkpt lat="51.028898" lon="0.827266">
        <ele>-2.8</ele>
        <time>2026-04-25T00:54:43.000Z</time>
      </trkpt>
      <trkpt lat="51.028446" lon="0.827479">
        <ele>-3.4</ele>
        <time>2026-04-25T00:54:56.000Z</time>
      </trkpt>
      <trkpt lat="51.028104" lon="0.827712">
        <ele>-3</ele>
        <time>2026-04-25T00:55:05.000Z</time>
      </trkpt>
      <trkpt lat="51.027909" lon="0.827908">
        <ele>-3</ele>
        <time>2026-04-25T00:55:12.000Z</time>
      </trkpt>
      <trkpt lat="51.027688" lon="0.828235">
        <ele>-3</ele>
        <time>2026-04-25T00:55:20.000Z</time>
      </trkpt>
      <trkpt lat="51.027256" lon="0.829201">
        <ele>-3</ele>
        <time>2026-04-25T00:55:40.000Z</time>
      </trkpt>
      <trkpt lat="51.027099" lon="0.829506">
        <ele>-3.2</ele>
        <time>2026-04-25T00:55:46.000Z</time>
      </trkpt>
      <trkpt lat="51.026614" lon="0.830268">
        <ele>-4.2</ele>
        <time>2026-04-25T00:56:04.000Z</time>
      </trkpt>
      <trkpt lat="51.026464" lon="0.830534">
        <ele>-4</ele>
        <time>2026-04-25T00:56:10.000Z</time>
      </trkpt>
      <trkpt lat="51.026319" lon="0.830877">
        <ele>-4</ele>
        <time>2026-04-25T00:56:17.000Z</time>
      </trkpt>
      <trkpt lat="51.026189" lon="0.831296">
        <ele>-3.6</ele>
        <time>2026-04-25T00:56:25.000Z</time>
      </trkpt>
      <trkpt lat="51.026086" lon="0.831538">
        <ele>-3.8</ele>
        <time>2026-04-25T00:56:30.000Z</time>
      </trkpt>
      <trkpt lat="51.025954" lon="0.831724">
        <ele>-4</ele>
        <time>2026-04-25T00:56:35.000Z</time>
      </trkpt>
      <trkpt lat="51.025861" lon="0.831803">
        <ele>-3.8</ele>
        <time>2026-04-25T00:56:38.000Z</time>
      </trkpt>
      <trkpt lat="51.025756" lon="0.831856">
        <ele>-3.8</ele>
        <time>2026-04-25T00:56:41.000Z</time>
      </trkpt>
      <trkpt lat="51.025473" lon="0.831957">
        <ele>-3.6</ele>
        <time>2026-04-25T00:56:48.000Z</time>
      </trkpt>
      <trkpt lat="51.025377" lon="0.832028">
        <ele>-3.6</ele>
        <time>2026-04-25T00:56:51.000Z</time>
      </trkpt>
      <trkpt lat="51.025294" lon="0.83215">
        <ele>-3.6</ele>
        <time>2026-04-25T00:56:54.000Z</time>
      </trkpt>
      <trkpt lat="51.024973" lon="0.832765">
        <ele>-3.8</ele>
        <time>2026-04-25T00:57:08.000Z</time>
      </trkpt>
      <trkpt lat="51.024817" lon="0.833">
        <ele>-3.8</ele>
        <time>2026-04-25T00:57:13.000Z</time>
      </trkpt>
      <trkpt lat="51.024726" lon="0.833107">
        <ele>-3.8</ele>
        <time>2026-04-25T00:57:16.000Z</time>
      </trkpt>
      <trkpt lat="51.024524" lon="0.833278">
        <ele>-3.8</ele>
        <time>2026-04-25T00:57:22.000Z</time>
      </trkpt>
      <trkpt lat="51.024367" lon="0.833358">
        <ele>-3.8</ele>
        <time>2026-04-25T00:57:27.000Z</time>
      </trkpt>
      <trkpt lat="51.023664" lon="0.833617">
        <ele>-3</ele>
        <time>2026-04-25T00:57:46.000Z</time>
      </trkpt>
      <trkpt lat="51.023298" lon="0.833773">
        <ele>-3.4</ele>
        <time>2026-04-25T00:57:56.000Z</time>
      </trkpt>
      <trkpt lat="51.023122" lon="0.833891">
        <ele>-3.2</ele>
        <time>2026-04-25T00:58:01.000Z</time>
      </trkpt>
      <trkpt lat="51.023021" lon="0.833999">
        <ele>-3.2</ele>
        <time>2026-04-25T00:58:05.000Z</time>
      </trkpt>
      <trkpt lat="51.022906" lon="0.834215">
        <ele>-3.2</ele>
        <time>2026-04-25T00:58:09.000Z</time>
      </trkpt>
      <trkpt lat="51.022753" lon="0.834641">
        <ele>-3.2</ele>
        <time>2026-04-25T00:58:18.000Z</time>
      </trkpt>
      <trkpt lat="51.022637" lon="0.835085">
        <ele>-3.6</ele>
        <time>2026-04-25T00:58:26.000Z</time>
      </trkpt>
      <trkpt lat="51.022535" lon="0.835681">
        <ele>-3.6</ele>
        <time>2026-04-25T00:58:36.000Z</time>
      </trkpt>
      <trkpt lat="51.022455" lon="0.835987">
        <ele>-3.6</ele>
        <time>2026-04-25T00:58:42.000Z</time>
      </trkpt>
      <trkpt lat="51.022297" lon="0.836374">
        <ele>-3.4</ele>
        <time>2026-04-25T00:58:49.000Z</time>
      </trkpt>
      <trkpt lat="51.022179" lon="0.836577">
        <ele>-3.4</ele>
        <time>2026-04-25T00:58:54.000Z</time>
      </trkpt>
      <trkpt lat="51.021571" lon="0.837396">
        <ele>-3.6</ele>
        <time>2026-04-25T00:59:15.000Z</time>
      </trkpt>
      <trkpt lat="51.020531" lon="0.838912">
        <ele>-3.8</ele>
        <time>2026-04-25T00:59:53.000Z</time>
      </trkpt>
      <trkpt lat="51.020261" lon="0.839259">
        <ele>-4</ele>
        <time>2026-04-25T01:00:02.000Z</time>
      </trkpt>
      <trkpt lat="51.019782" lon="0.839997">
        <ele>-4.2</ele>
        <time>2026-04-25T01:00:20.000Z</time>
      </trkpt>
      <trkpt lat="51.017806" lon="0.84282">
        <ele>-3.2</ele>
        <time>2026-04-25T01:01:31.000Z</time>
      </trkpt>
      <trkpt lat="51.016468" lon="0.844637">
        <ele>-3.6</ele>
        <time>2026-04-25T01:02:18.000Z</time>
      </trkpt>
      <trkpt lat="51.01602" lon="0.845215">
        <ele>-3.4</ele>
        <time>2026-04-25T01:02:33.000Z</time>
      </trkpt>
      <trkpt lat="51.015274" lon="0.846242">
        <ele>-3.4</ele>
        <time>2026-04-25T01:03:00.000Z</time>
      </trkpt>
      <trkpt lat="51.013756" lon="0.848244">
        <ele>-2.8</ele>
        <time>2026-04-25T01:03:52.000Z</time>
      </trkpt>
      <trkpt lat="51.013052" lon="0.849285">
        <ele>-2.8</ele>
        <time>2026-04-25T01:04:18.000Z</time>
      </trkpt>
      <trkpt lat="51.012829" lon="0.849577">
        <ele>-3</ele>
        <time>2026-04-25T01:04:26.000Z</time>
      </trkpt>
      <trkpt lat="51.011636" lon="0.851289">
        <ele>-4</ele>
        <time>2026-04-25T01:05:09.000Z</time>
      </trkpt>
      <trkpt lat="51.01053" lon="0.852897">
        <ele>-3.8</ele>
        <time>2026-04-25T01:05:49.000Z</time>
      </trkpt>
      <trkpt lat="51.010227" lon="0.853374">
        <ele>-4</ele>
        <time>2026-04-25T01:06:00.000Z</time>
      </trkpt>
      <trkpt lat="51.010072" lon="0.853686">
        <ele>-4.2</ele>
        <time>2026-04-25T01:06:07.000Z</time>
      </trkpt>
      <trkpt lat="51.009992" lon="0.854052">
        <ele>-4.4</ele>
        <time>2026-04-25T01:06:13.000Z</time>
      </trkpt>
      <trkpt lat="51.009557" lon="0.854892">
        <ele>-4.6</ele>
        <time>2026-04-25T01:06:31.000Z</time>
      </trkpt>
      <trkpt lat="51.009468" lon="0.855018">
        <ele>-4.4</ele>
        <time>2026-04-25T01:06:35.000Z</time>
      </trkpt>
      <trkpt lat="51.009207" lon="0.855311">
        <ele>-4</ele>
        <time>2026-04-25T01:06:43.000Z</time>
      </trkpt>
      <trkpt lat="51.008635" lon="0.855823">
        <ele>-3.4</ele>
        <time>2026-04-25T01:07:01.000Z</time>
      </trkpt>
      <trkpt lat="51.008242" lon="0.856308">
        <ele>-2.8</ele>
        <time>2026-04-25T01:07:14.000Z</time>
      </trkpt>
      <trkpt lat="51.00798" lon="0.856717">
        <ele>-3</ele>
        <time>2026-04-25T01:07:24.000Z</time>
      </trkpt>
      <trkpt lat="51.00742" lon="0.857682">
        <ele>-3.2</ele>
        <time>2026-04-25T01:07:46.000Z</time>
      </trkpt>
      <trkpt lat="51.007267" lon="0.858028">
        <ele>-3.4</ele>
        <time>2026-04-25T01:07:53.000Z</time>
      </trkpt>
      <trkpt lat="51.007246" lon="0.858173">
        <ele>-3.6</ele>
        <time>2026-04-25T01:07:55.000Z</time>
      </trkpt>
      <trkpt lat="51.007287" lon="0.858293">
        <ele>-3.6</ele>
        <time>2026-04-25T01:07:58.000Z</time>
      </trkpt>
      <trkpt lat="51.007393" lon="0.858454">
        <ele>-3.8</ele>
        <time>2026-04-25T01:08:02.000Z</time>
      </trkpt>
      <trkpt lat="51.007897" lon="0.858945">
        <ele>-4.6</ele>
        <time>2026-04-25T01:08:17.000Z</time>
      </trkpt>
      <trkpt lat="51.007907" lon="0.858996">
        <ele>-4.4</ele>
        <time>2026-04-25T01:08:18.000Z</time>
      </trkpt>
      <trkpt lat="51.007892" lon="0.859079">
        <ele>-4.4</ele>
        <time>2026-04-25T01:08:20.000Z</time>
      </trkpt>
      <trkpt lat="51.00777" lon="0.859365">
        <ele>-4.4</ele>
        <time>2026-04-25T01:08:25.000Z</time>
      </trkpt>
      <trkpt lat="51.007739" lon="0.859523">
        <ele>-4.2</ele>
        <time>2026-04-25T01:08:28.000Z</time>
      </trkpt>
      <trkpt lat="51.007745" lon="0.859697">
        <ele>-4.2</ele>
        <time>2026-04-25T01:08:31.000Z</time>
      </trkpt>
      <trkpt lat="51.007786" lon="0.859868">
        <ele>-4.8</ele>
        <time>2026-04-25T01:08:34.000Z</time>
      </trkpt>
      <trkpt lat="51.007857" lon="0.860028">
        <ele>-5</ele>
        <time>2026-04-25T01:08:38.000Z</time>
      </trkpt>
      <trkpt lat="51.008042" lon="0.860316">
        <ele>-5.4</ele>
        <time>2026-04-25T01:08:44.000Z</time>
      </trkpt>
      <trkpt lat="51.008662" lon="0.86117">
        <ele>-6</ele>
        <time>2026-04-25T01:09:06.000Z</time>
      </trkpt>
      <trkpt lat="51.008768" lon="0.861353">
        <ele>-5.8</ele>
        <time>2026-04-25T01:09:11.000Z</time>
      </trkpt>
      <trkpt lat="51.008819" lon="0.861559">
        <ele>-5.6</ele>
        <time>2026-04-25T01:09:14.000Z</time>
      </trkpt>
      <trkpt lat="51.008853" lon="0.862243">
        <ele>-5.8</ele>
        <time>2026-04-25T01:09:26.000Z</time>
      </trkpt>
      <trkpt lat="51.008902" lon="0.86247">
        <ele>-5.8</ele>
        <time>2026-04-25T01:09:30.000Z</time>
      </trkpt>
      <trkpt lat="51.009165" lon="0.863172">
        <ele>-5.4</ele>
        <time>2026-04-25T01:09:44.000Z</time>
      </trkpt>
      <trkpt lat="51.009346" lon="0.864043">
        <ele>-5.2</ele>
        <time>2026-04-25T01:09:59.000Z</time>
      </trkpt>
      <trkpt lat="51.009566" lon="0.864753">
        <ele>-5.8</ele>
        <time>2026-04-25T01:10:12.000Z</time>
      </trkpt>
      <trkpt lat="51.00981" lon="0.865457">
        <ele>-6</ele>
        <time>2026-04-25T01:10:26.000Z</time>
      </trkpt>
      <trkpt lat="51.010319" lon="0.866797">
        <ele>-6.4</ele>
        <time>2026-04-25T01:10:52.000Z</time>
      </trkpt>
      <trkpt lat="51.010469" lon="0.867327">
        <ele>-6.2</ele>
        <time>2026-04-25T01:11:02.000Z</time>
      </trkpt>
      <trkpt lat="51.010576" lon="0.867851">
        <ele>-5.4</ele>
        <time>2026-04-25T01:11:11.000Z</time>
      </trkpt>
      <trkpt lat="51.010702" lon="0.868985">
        <ele>-5.4</ele>
        <time>2026-04-25T01:11:30.000Z</time>
      </trkpt>
      <trkpt lat="51.01071" lon="0.869481">
        <ele>-5.4</ele>
        <time>2026-04-25T01:11:39.000Z</time>
      </trkpt>
      <trkpt lat="51.010665" lon="0.869921">
        <ele>-5.2</ele>
        <time>2026-04-25T01:11:46.000Z</time>
      </trkpt>
      <trkpt lat="51.010552" lon="0.870605">
        <ele>-5</ele>
        <time>2026-04-25T01:11:58.000Z</time>
      </trkpt>
      <trkpt lat="51.010412" lon="0.871319">
        <ele>-4.2</ele>
        <time>2026-04-25T01:12:11.000Z</time>
      </trkpt>
      <trkpt lat="51.010326" lon="0.871887">
        <ele>-3.8</ele>
        <time>2026-04-25T01:12:20.000Z</time>
      </trkpt>
      <trkpt lat="51.01022" lon="0.873026">
        <ele>-4</ele>
        <time>2026-04-25T01:12:40.000Z</time>
      </trkpt>
      <trkpt lat="51.010203" lon="0.873435">
        <ele>-4.2</ele>
        <time>2026-04-25T01:12:47.000Z</time>
      </trkpt>
      <trkpt lat="51.010211" lon="0.873729">
        <ele>-4.6</ele>
        <time>2026-04-25T01:12:52.000Z</time>
      </trkpt>
      <trkpt lat="51.010268" lon="0.874117">
        <ele>-4.8</ele>
        <time>2026-04-25T01:12:58.000Z</time>
      </trkpt>
      <trkpt lat="51.010425" lon="0.874688">
        <ele>-5</ele>
        <time>2026-04-25T01:13:09.000Z</time>
      </trkpt>
      <trkpt lat="51.010487" lon="0.87499">
        <ele>-5.2</ele>
        <time>2026-04-25T01:13:14.000Z</time>
      </trkpt>
      <trkpt lat="51.010587" lon="0.876016">
        <ele>-5.6</ele>
        <time>2026-04-25T01:13:32.000Z</time>
      </trkpt>
      <trkpt lat="51.01088" lon="0.877915">
        <ele>-5.4</ele>
        <time>2026-04-25T01:14:04.000Z</time>
      </trkpt>
      <trkpt lat="51.010953" lon="0.878266">
        <ele>-5.4</ele>
        <time>2026-04-25T01:14:11.000Z</time>
      </trkpt>
      <trkpt lat="51.01124" lon="0.879343">
        <ele>-5.8</ele>
        <time>2026-04-25T01:14:30.000Z</time>
      </trkpt>
      <trkpt lat="51.011295" lon="0.879617">
        <ele>-6</ele>
        <time>2026-04-25T01:14:35.000Z</time>
      </trkpt>
      <trkpt lat="51.011368" lon="0.880184">
        <ele>-6.2</ele>
        <time>2026-04-25T01:14:45.000Z</time>
      </trkpt>
      <trkpt lat="51.011509" lon="0.881885">
        <ele>-5.4</ele>
        <time>2026-04-25T01:15:14.000Z</time>
      </trkpt>
      <trkpt lat="51.011672" lon="0.882674">
        <ele>-5</ele>
        <time>2026-04-25T01:15:28.000Z</time>
      </trkpt>
      <trkpt lat="51.011783" lon="0.883532">
        <ele>-4.8</ele>
        <time>2026-04-25T01:15:42.000Z</time>
      </trkpt>
      <trkpt lat="51.011955" lon="0.884389">
        <ele>-5</ele>
        <time>2026-04-25T01:15:57.000Z</time>
      </trkpt>
      <trkpt lat="51.01224" lon="0.886881">
        <ele>-5.4</ele>
        <time>2026-04-25T01:16:40.000Z</time>
      </trkpt>
      <trkpt lat="51.012397" lon="0.8879">
        <ele>-5.4</ele>
        <time>2026-04-25T01:16:58.000Z</time>
      </trkpt>
      <trkpt lat="51.012453" lon="0.888161">
        <ele>-5.4</ele>
        <time>2026-04-25T01:17:02.000Z</time>
      </trkpt>
      <trkpt lat="51.012539" lon="0.888429">
        <ele>-5.4</ele>
        <time>2026-04-25T01:17:07.000Z</time>
      </trkpt>
      <trkpt lat="51.012647" lon="0.888616">
        <ele>-5.2</ele>
        <time>2026-04-25T01:17:11.000Z</time>
      </trkpt>
      <trkpt lat="51.012797" lon="0.888807">
        <ele>-5</ele>
        <time>2026-04-25T01:17:17.000Z</time>
      </trkpt>
      <trkpt lat="51.012831" lon="0.888832">
        <ele>-5</ele>
        <time>2026-04-25T01:17:18.000Z</time>
      </trkpt>
      <trkpt lat="51.012866" lon="0.888834">
        <ele>-5</ele>
        <time>2026-04-25T01:17:19.000Z</time>
      </trkpt>
      <trkpt lat="51.012928" lon="0.888778">
        <ele>-5</ele>
        <time>2026-04-25T01:17:20.000Z</time>
      </trkpt>
      <trkpt lat="51.013122" lon="0.888437">
        <ele>-5.2</ele>
        <time>2026-04-25T01:17:28.000Z</time>
      </trkpt>
      <trkpt lat="51.013326" lon="0.888121">
        <ele>-5.4</ele>
        <time>2026-04-25T01:17:36.000Z</time>
      </trkpt>
      <trkpt lat="51.013659" lon="0.887719">
        <ele>-5.4</ele>
        <time>2026-04-25T01:17:47.000Z</time>
      </trkpt>
      <trkpt lat="51.013914" lon="0.88748">
        <ele>-5</ele>
        <time>2026-04-25T01:17:55.000Z</time>
      </trkpt>
      <trkpt lat="51.013998" lon="0.887429">
        <ele>-4.8</ele>
        <time>2026-04-25T01:17:57.000Z</time>
      </trkpt>
      <trkpt lat="51.014049" lon="0.887449">
        <ele>-4.8</ele>
        <time>2026-04-25T01:17:59.000Z</time>
      </trkpt>
      <trkpt lat="51.014108" lon="0.88755">
        <ele>-4.8</ele>
        <time>2026-04-25T01:18:01.000Z</time>
      </trkpt>
      <trkpt lat="51.014143" lon="0.887715">
        <ele>-4.8</ele>
        <time>2026-04-25T01:18:04.000Z</time>
      </trkpt>
      <trkpt lat="51.014299" lon="0.888206">
        <ele>-5.2</ele>
        <time>2026-04-25T01:18:13.000Z</time>
      </trkpt>
      <trkpt lat="51.014613" lon="0.889345">
        <ele>-5.6</ele>
        <time>2026-04-25T01:18:34.000Z</time>
      </trkpt>
      <trkpt lat="51.014978" lon="0.890758">
        <ele>-5.6</ele>
        <time>2026-04-25T01:19:00.000Z</time>
      </trkpt>
      <trkpt lat="51.015192" lon="0.891485">
        <ele>-5.6</ele>
        <time>2026-04-25T01:19:13.000Z</time>
      </trkpt>
      <trkpt lat="51.015458" lon="0.892657">
        <ele>-5.2</ele>
        <time>2026-04-25T01:19:34.000Z</time>
      </trkpt>
      <trkpt lat="51.015683" lon="0.893436">
        <ele>-5.4</ele>
        <time>2026-04-25T01:19:48.000Z</time>
      </trkpt>
      <trkpt lat="51.01572" lon="0.893738">
        <ele>-5.4</ele>
        <time>2026-04-25T01:19:54.000Z</time>
      </trkpt>
      <trkpt lat="51.015713" lon="0.895151">
        <ele>-5.2</ele>
        <time>2026-04-25T01:20:17.000Z</time>
      </trkpt>
      <trkpt lat="51.015781" lon="0.895439">
        <ele>-5.2</ele>
        <time>2026-04-25T01:20:23.000Z</time>
      </trkpt>
      <trkpt lat="51.015925" lon="0.895783">
        <ele>-5.2</ele>
        <time>2026-04-25T01:20:29.000Z</time>
      </trkpt>
      <trkpt lat="51.016126" lon="0.896094">
        <ele>-5</ele>
        <time>2026-04-25T01:20:37.000Z</time>
      </trkpt>
      <trkpt lat="51.016309" lon="0.896291">
        <ele>-5</ele>
        <time>2026-04-25T01:20:43.000Z</time>
      </trkpt>
      <trkpt lat="51.016814" lon="0.896683">
        <ele>-4.6</ele>
        <time>2026-04-25T01:20:58.000Z</time>
      </trkpt>
      <trkpt lat="51.017033" lon="0.8969">
        <ele>-4.4</ele>
        <time>2026-04-25T01:21:05.000Z</time>
      </trkpt>
      <trkpt lat="51.017177" lon="0.897129">
        <ele>-4.4</ele>
        <time>2026-04-25T01:21:10.000Z</time>
      </trkpt>
      <trkpt lat="51.017243" lon="0.897328">
        <ele>-4.6</ele>
        <time>2026-04-25T01:21:14.000Z</time>
      </trkpt>
      <trkpt lat="51.017272" lon="0.897548">
        <ele>-4.6</ele>
        <time>2026-04-25T01:21:18.000Z</time>
      </trkpt>
      <trkpt lat="51.017261" lon="0.897992">
        <ele>-4.8</ele>
        <time>2026-04-25T01:21:25.000Z</time>
      </trkpt>
      <trkpt lat="51.01724" lon="0.898195">
        <ele>-4.8</ele>
        <time>2026-04-25T01:21:29.000Z</time>
      </trkpt>
      <trkpt lat="51.016949" lon="0.899987">
        <ele>-4.4</ele>
        <time>2026-04-25T01:22:00.000Z</time>
      </trkpt>
      <trkpt lat="51.016938" lon="0.900176">
        <ele>-4.4</ele>
        <time>2026-04-25T01:22:03.000Z</time>
      </trkpt>
      <trkpt lat="51.016972" lon="0.900347">
        <ele>-4.4</ele>
        <time>2026-04-25T01:22:06.000Z</time>
      </trkpt>
      <trkpt lat="51.018312" lon="0.902489">
        <ele>-5</ele>
        <time>2026-04-25T01:22:57.000Z</time>
      </trkpt>
      <trkpt lat="51.018815" lon="0.90319">
        <ele>-4.8</ele>
        <time>2026-04-25T01:23:15.000Z</time>
      </trkpt>
      <trkpt lat="51.019016" lon="0.903436">
        <ele>-4.6</ele>
        <time>2026-04-25T01:23:21.000Z</time>
      </trkpt>
      <trkpt lat="51.019214" lon="0.903641">
        <ele>-4.4</ele>
        <time>2026-04-25T01:23:28.000Z</time>
      </trkpt>
      <trkpt lat="51.019331" lon="0.903744">
        <ele>-4.4</ele>
        <time>2026-04-25T01:23:31.000Z</time>
      </trkpt>
      <trkpt lat="51.019492" lon="0.903846">
        <ele>-4.2</ele>
        <time>2026-04-25T01:23:36.000Z</time>
      </trkpt>
      <trkpt lat="51.019723" lon="0.903964">
        <ele>-4.2</ele>
        <time>2026-04-25T01:23:42.000Z</time>
      </trkpt>
      <trkpt lat="51.019834" lon="0.904004">
        <ele>-4</ele>
        <time>2026-04-25T01:23:45.000Z</time>
      </trkpt>
      <trkpt lat="51.020113" lon="0.904025">
        <ele>-3.8</ele>
        <time>2026-04-25T01:23:53.000Z</time>
      </trkpt>
      <trkpt lat="51.020321" lon="0.904015">
        <ele>-3.8</ele>
        <time>2026-04-25T01:23:58.000Z</time>
      </trkpt>
      <trkpt lat="51.020393" lon="0.904024">
        <ele>-3.8</ele>
        <time>2026-04-25T01:24:00.000Z</time>
      </trkpt>
      <trkpt lat="51.020449" lon="0.904053">
        <ele>-3.8</ele>
        <time>2026-04-25T01:24:02.000Z</time>
      </trkpt>
      <trkpt lat="51.020522" lon="0.904163">
        <ele>-3.8</ele>
        <time>2026-04-25T01:24:04.000Z</time>
      </trkpt>
      <trkpt lat="51.020594" lon="0.904587">
        <ele>-4</ele>
        <time>2026-04-25T01:24:12.000Z</time>
      </trkpt>
      <trkpt lat="51.020677" lon="0.90473">
        <ele>-4</ele>
        <time>2026-04-25T01:24:15.000Z</time>
      </trkpt>
      <trkpt lat="51.020776" lon="0.904809">
        <ele>-4</ele>
        <time>2026-04-25T01:24:18.000Z</time>
      </trkpt>
      <trkpt lat="51.021129" lon="0.90499">
        <ele>-4.2</ele>
        <time>2026-04-25T01:24:28.000Z</time>
      </trkpt>
      <trkpt lat="51.021616" lon="0.905286">
        <ele>-4.2</ele>
        <time>2026-04-25T01:24:42.000Z</time>
      </trkpt>
      <trkpt lat="51.02189" lon="0.905466">
        <ele>-4.2</ele>
        <time>2026-04-25T01:24:50.000Z</time>
      </trkpt>
      <trkpt lat="51.022113" lon="0.905648">
        <ele>-4</ele>
        <time>2026-04-25T01:24:57.000Z</time>
      </trkpt>
      <trkpt lat="51.022211" lon="0.905785">
        <ele>-3.8</ele>
        <time>2026-04-25T01:25:00.000Z</time>
      </trkpt>
      <trkpt lat="51.02224" lon="0.905854">
        <ele>-3.8</ele>
        <time>2026-04-25T01:25:01.000Z</time>
      </trkpt>
      <trkpt lat="51.022393" lon="0.906407">
        <ele>-3.6</ele>
        <time>2026-04-25T01:25:12.000Z</time>
      </trkpt>
      <trkpt lat="51.02243" lon="0.906493">
        <ele>-3.6</ele>
        <time>2026-04-25T01:25:13.000Z</time>
      </trkpt>
      <trkpt lat="51.022535" lon="0.906646">
        <ele>-3.6</ele>
        <time>2026-04-25T01:25:17.000Z</time>
      </trkpt>
      <trkpt lat="51.022823" lon="0.906916">
        <ele>-3.6</ele>
        <time>2026-04-25T01:25:26.000Z</time>
      </trkpt>
      <trkpt lat="51.023386" lon="0.907301">
        <ele>-3.4</ele>
        <time>2026-04-25T01:25:42.000Z</time>
      </trkpt>
      <trkpt lat="51.023762" lon="0.90758">
        <ele>-3.2</ele>
        <time>2026-04-25T01:25:53.000Z</time>
      </trkpt>
      <trkpt lat="51.02392" lon="0.907764">
        <ele>-3.2</ele>
        <time>2026-04-25T01:25:59.000Z</time>
      </trkpt>
      <trkpt lat="51.024386" lon="0.9084">
        <ele>-4.2</ele>
        <time>2026-04-25T01:26:15.000Z</time>
      </trkpt>
      <trkpt lat="51.024601" lon="0.908641">
        <ele>-4.6</ele>
        <time>2026-04-25T01:26:22.000Z</time>
      </trkpt>
      <trkpt lat="51.024828" lon="0.908833">
        <ele>-4.8</ele>
        <time>2026-04-25T01:26:29.000Z</time>
      </trkpt>
      <trkpt lat="51.02506" lon="0.908986">
        <ele>-4.8</ele>
        <time>2026-04-25T01:26:36.000Z</time>
      </trkpt>
      <trkpt lat="51.025901" lon="0.909354">
        <ele>-4.2</ele>
        <time>2026-04-25T01:26:59.000Z</time>
      </trkpt>
      <trkpt lat="51.026022" lon="0.90945">
        <ele>-4</ele>
        <time>2026-04-25T01:27:03.000Z</time>
      </trkpt>
      <trkpt lat="51.026179" lon="0.909626">
        <ele>-4</ele>
        <time>2026-04-25T01:27:08.000Z</time>
      </trkpt>
      <trkpt lat="51.026297" lon="0.909714">
        <ele>-4</ele>
        <time>2026-04-25T01:27:11.000Z</time>
      </trkpt>
      <trkpt lat="51.026689" lon="0.909829">
        <ele>-4</ele>
        <time>2026-04-25T01:27:22.000Z</time>
      </trkpt>
      <trkpt lat="51.026926" lon="0.909963">
        <ele>-4</ele>
        <time>2026-04-25T01:27:29.000Z</time>
      </trkpt>
      <trkpt lat="51.027165" lon="0.910163">
        <ele>-3.8</ele>
        <time>2026-04-25T01:27:36.000Z</time>
      </trkpt>
      <trkpt lat="51.02751" lon="0.910495">
        <ele>-3.8</ele>
        <time>2026-04-25T01:27:47.000Z</time>
      </trkpt>
      <trkpt lat="51.027833" lon="0.910924">
        <ele>-3.6</ele>
        <time>2026-04-25T01:27:58.000Z</time>
      </trkpt>
      <trkpt lat="51.027903" lon="0.91097">
        <ele>-3.6</ele>
        <time>2026-04-25T01:28:00.000Z</time>
      </trkpt>
      <trkpt lat="51.027968" lon="0.91097">
        <ele>-3.6</ele>
        <time>2026-04-25T01:28:01.000Z</time>
      </trkpt>
      <trkpt lat="51.028025" lon="0.910939">
        <ele>-3.6</ele>
        <time>2026-04-25T01:28:03.000Z</time>
      </trkpt>
      <trkpt lat="51.028446" lon="0.910345">
        <ele>-3.8</ele>
        <time>2026-04-25T01:28:18.000Z</time>
      </trkpt>
      <trkpt lat="51.028559" lon="0.910241">
        <ele>-3.8</ele>
        <time>2026-04-25T01:28:22.000Z</time>
      </trkpt>
      <trkpt lat="51.028618" lon="0.910228">
        <ele>-3.8</ele>
        <time>2026-04-25T01:28:23.000Z</time>
      </trkpt>
      <trkpt lat="51.028677" lon="0.910245">
        <ele>-3.8</ele>
        <time>2026-04-25T01:28:25.000Z</time>
      </trkpt>
      <trkpt lat="51.028783" lon="0.910341">
        <ele>-3.8</ele>
        <time>2026-04-25T01:28:28.000Z</time>
      </trkpt>
      <trkpt lat="51.029133" lon="0.910794">
        <ele>-4</ele>
        <time>2026-04-25T01:28:40.000Z</time>
      </trkpt>
      <trkpt lat="51.029191" lon="0.910842">
        <ele>-4</ele>
        <time>2026-04-25T01:28:42.000Z</time>
      </trkpt>
      <trkpt lat="51.02925" lon="0.910865">
        <ele>-4</ele>
        <time>2026-04-25T01:28:43.000Z</time>
      </trkpt>
      <trkpt lat="51.029309" lon="0.910853">
        <ele>-4</ele>
        <time>2026-04-25T01:28:45.000Z</time>
      </trkpt>
      <trkpt lat="51.029365" lon="0.910807">
        <ele>-4</ele>
        <time>2026-04-25T01:28:47.000Z</time>
      </trkpt>
      <trkpt lat="51.029444" lon="0.910651">
        <ele>-4.4</ele>
        <time>2026-04-25T01:28:50.000Z</time>
      </trkpt>
      <trkpt lat="51.02966" lon="0.909899">
        <ele>-5</ele>
        <time>2026-04-25T01:29:04.000Z</time>
      </trkpt>
      <trkpt lat="51.029796" lon="0.909543">
        <ele>-5</ele>
        <time>2026-04-25T01:29:11.000Z</time>
      </trkpt>
      <trkpt lat="51.029887" lon="0.909394">
        <ele>-4.8</ele>
        <time>2026-04-25T01:29:14.000Z</time>
      </trkpt>
      <trkpt lat="51.029938" lon="0.909345">
        <ele>-4.8</ele>
        <time>2026-04-25T01:29:16.000Z</time>
      </trkpt>
      <trkpt lat="51.029995" lon="0.909319">
        <ele>-5</ele>
        <time>2026-04-25T01:29:18.000Z</time>
      </trkpt>
      <trkpt lat="51.030069" lon="0.90931">
        <ele>-4.8</ele>
        <time>2026-04-25T01:29:20.000Z</time>
      </trkpt>
      <trkpt lat="51.030185" lon="0.909334">
        <ele>-5</ele>
        <time>2026-04-25T01:29:23.000Z</time>
      </trkpt>
      <trkpt lat="51.03093" lon="0.909696">
        <ele>-4.8</ele>
        <time>2026-04-25T01:29:44.000Z</time>
      </trkpt>
      <trkpt lat="51.031052" lon="0.909738">
        <ele>-4.6</ele>
        <time>2026-04-25T01:29:47.000Z</time>
      </trkpt>
      <trkpt lat="51.031175" lon="0.90974">
        <ele>-4.6</ele>
        <time>2026-04-25T01:29:50.000Z</time>
      </trkpt>
      <trkpt lat="51.031237" lon="0.909717">
        <ele>-4.6</ele>
        <time>2026-04-25T01:29:52.000Z</time>
      </trkpt>
      <trkpt lat="51.031296" lon="0.90967">
        <ele>-4.6</ele>
        <time>2026-04-25T01:29:54.000Z</time>
      </trkpt>
      <trkpt lat="51.031398" lon="0.909536">
        <ele>-4.6</ele>
        <time>2026-04-25T01:29:57.000Z</time>
      </trkpt>
      <trkpt lat="51.031714" lon="0.908979">
        <ele>-4.8</ele>
        <time>2026-04-25T01:30:10.000Z</time>
      </trkpt>
      <trkpt lat="51.031901" lon="0.908708">
        <ele>-4.8</ele>
        <time>2026-04-25T01:30:16.000Z</time>
      </trkpt>
      <trkpt lat="51.032062" lon="0.908543">
        <ele>-4.6</ele>
        <time>2026-04-25T01:30:22.000Z</time>
      </trkpt>
      <trkpt lat="51.032442" lon="0.908241">
        <ele>-4.8</ele>
        <time>2026-04-25T01:30:33.000Z</time>
      </trkpt>
      <trkpt lat="51.032594" lon="0.908047">
        <ele>-5</ele>
        <time>2026-04-25T01:30:38.000Z</time>
      </trkpt>
      <trkpt lat="51.032716" lon="0.907803">
        <ele>-5</ele>
        <time>2026-04-25T01:30:43.000Z</time>
      </trkpt>
      <trkpt lat="51.032833" lon="0.907479">
        <ele>-5</ele>
        <time>2026-04-25T01:30:50.000Z</time>
      </trkpt>
      <trkpt lat="51.033053" lon="0.906618">
        <ele>-5</ele>
        <time>2026-04-25T01:31:05.000Z</time>
      </trkpt>
      <trkpt lat="51.03314" lon="0.906354">
        <ele>-5</ele>
        <time>2026-04-25T01:31:10.000Z</time>
      </trkpt>
      <trkpt lat="51.033178" lon="0.906284">
        <ele>-5</ele>
        <time>2026-04-25T01:31:12.000Z</time>
      </trkpt>
      <trkpt lat="51.03323" lon="0.906232">
        <ele>-5</ele>
        <time>2026-04-25T01:31:13.000Z</time>
      </trkpt>
      <trkpt lat="51.033288" lon="0.906209">
        <ele>-5</ele>
        <time>2026-04-25T01:31:15.000Z</time>
      </trkpt>
      <trkpt lat="51.033408" lon="0.906247">
        <ele>-4.6</ele>
        <time>2026-04-25T01:31:18.000Z</time>
      </trkpt>
      <trkpt lat="51.0345" lon="0.906893">
        <ele>-3.2</ele>
        <time>2026-04-25T01:31:49.000Z</time>
      </trkpt>
      <trkpt lat="51.034556" lon="0.906914">
        <ele>-3.2</ele>
        <time>2026-04-25T01:31:51.000Z</time>
      </trkpt>
      <trkpt lat="51.034614" lon="0.906912">
        <ele>-3.2</ele>
        <time>2026-04-25T01:31:52.000Z</time>
      </trkpt>
      <trkpt lat="51.034668" lon="0.906875">
        <ele>-3.2</ele>
        <time>2026-04-25T01:31:54.000Z</time>
      </trkpt>
      <trkpt lat="51.034733" lon="0.906727">
        <ele>-3.2</ele>
        <time>2026-04-25T01:31:57.000Z</time>
      </trkpt>
      <trkpt lat="51.034829" lon="0.906076">
        <ele>-3.4</ele>
        <time>2026-04-25T01:32:08.000Z</time>
      </trkpt>
      <trkpt lat="51.034907" lon="0.905932">
        <ele>-3.4</ele>
        <time>2026-04-25T01:32:12.000Z</time>
      </trkpt>
      <trkpt lat="51.035017" lon="0.905846">
        <ele>-3.6</ele>
        <time>2026-04-25T01:32:15.000Z</time>
      </trkpt>
      <trkpt lat="51.035555" lon="0.905744">
        <ele>-4.2</ele>
        <time>2026-04-25T01:32:29.000Z</time>
      </trkpt>
      <trkpt lat="51.035954" lon="0.905722">
        <ele>-4.4</ele>
        <time>2026-04-25T01:32:40.000Z</time>
      </trkpt>
      <trkpt lat="51.036078" lon="0.905735">
        <ele>-4.4</ele>
        <time>2026-04-25T01:32:43.000Z</time>
      </trkpt>
      <trkpt lat="51.036268" lon="0.905782">
        <ele>-4.4</ele>
        <time>2026-04-25T01:32:48.000Z</time>
      </trkpt>
      <trkpt lat="51.036586" lon="0.905902">
        <ele>-4.4</ele>
        <time>2026-04-25T01:32:57.000Z</time>
      </trkpt>
      <trkpt lat="51.036774" lon="0.905951">
        <ele>-4.2</ele>
        <time>2026-04-25T01:33:02.000Z</time>
      </trkpt>
      <trkpt lat="51.03715" lon="0.905936">
        <ele>-4</ele>
        <time>2026-04-25T01:33:12.000Z</time>
      </trkpt>
      <trkpt lat="51.037196" lon="0.905976">
        <ele>-4</ele>
        <time>2026-04-25T01:33:14.000Z</time>
      </trkpt>
      <trkpt lat="51.037264" lon="0.906289">
        <ele>-4</ele>
        <time>2026-04-25T01:33:19.000Z</time>
      </trkpt>
      <trkpt lat="51.037437" lon="0.906861">
        <ele>-3.8</ele>
        <time>2026-04-25T01:33:30.000Z</time>
      </trkpt>
      <trkpt lat="51.037635" lon="0.907326">
        <ele>-3.6</ele>
        <time>2026-04-25T01:33:39.000Z</time>
      </trkpt>
      <trkpt lat="51.037779" lon="0.907533">
        <ele>-3.6</ele>
        <time>2026-04-25T01:33:44.000Z</time>
      </trkpt>
      <trkpt lat="51.037982" lon="0.90778">
        <ele>-3.8</ele>
        <time>2026-04-25T01:33:51.000Z</time>
      </trkpt>
      <trkpt lat="51.038088" lon="0.907877">
        <ele>-4</ele>
        <time>2026-04-25T01:33:55.000Z</time>
      </trkpt>
      <trkpt lat="51.038203" lon="0.907953">
        <ele>-4</ele>
        <time>2026-04-25T01:33:58.000Z</time>
      </trkpt>
      <trkpt lat="51.038391" lon="0.908038">
        <ele>-3.8</ele>
        <time>2026-04-25T01:34:03.000Z</time>
      </trkpt>
      <trkpt lat="51.038454" lon="0.908051">
        <ele>-3.8</ele>
        <time>2026-04-25T01:34:05.000Z</time>
      </trkpt>
      <trkpt lat="51.038583" lon="0.908026">
        <ele>-3.6</ele>
        <time>2026-04-25T01:34:08.000Z</time>
      </trkpt>
      <trkpt lat="51.0389" lon="0.907833">
        <ele>-3.6</ele>
        <time>2026-04-25T01:34:17.000Z</time>
      </trkpt>
      <trkpt lat="51.039282" lon="0.907533">
        <ele>-4</ele>
        <time>2026-04-25T01:34:29.000Z</time>
      </trkpt>
      <trkpt lat="51.039457" lon="0.907433">
        <ele>-4</ele>
        <time>2026-04-25T01:34:34.000Z</time>
      </trkpt>
      <trkpt lat="51.039648" lon="0.907376">
        <ele>-4</ele>
        <time>2026-04-25T01:34:39.000Z</time>
      </trkpt>
      <trkpt lat="51.039851" lon="0.907376">
        <ele>-4</ele>
        <time>2026-04-25T01:34:44.000Z</time>
      </trkpt>
      <trkpt lat="51.039984" lon="0.907416">
        <ele>-3.8</ele>
        <time>2026-04-25T01:34:48.000Z</time>
      </trkpt>
      <trkpt lat="51.040104" lon="0.9075">
        <ele>-3.8</ele>
        <time>2026-04-25T01:34:51.000Z</time>
      </trkpt>
      <trkpt lat="51.040264" lon="0.907693">
        <ele>-3.6</ele>
        <time>2026-04-25T01:34:57.000Z</time>
      </trkpt>
      <trkpt lat="51.040767" lon="0.908566">
        <ele>-4.2</ele>
        <time>2026-04-25T01:35:17.000Z</time>
      </trkpt>
      <trkpt lat="51.041042" lon="0.908988">
        <ele>-4.4</ele>
        <time>2026-04-25T01:35:27.000Z</time>
      </trkpt>
      <trkpt lat="51.041173" lon="0.909224">
        <ele>-4.4</ele>
        <time>2026-04-25T01:35:32.000Z</time>
      </trkpt>
      <trkpt lat="51.041242" lon="0.9094">
        <ele>-4.4</ele>
        <time>2026-04-25T01:35:36.000Z</time>
      </trkpt>
      <trkpt lat="51.041312" lon="0.909782">
        <ele>-4.6</ele>
        <time>2026-04-25T01:35:42.000Z</time>
      </trkpt>
      <trkpt lat="51.041368" lon="0.909979">
        <ele>-4.6</ele>
        <time>2026-04-25T01:35:46.000Z</time>
      </trkpt>
      <trkpt lat="51.041457" lon="0.910156">
        <ele>-4.6</ele>
        <time>2026-04-25T01:35:50.000Z</time>
      </trkpt>
      <trkpt lat="51.041612" lon="0.910376">
        <ele>-4.6</ele>
        <time>2026-04-25T01:35:55.000Z</time>
      </trkpt>
      <trkpt lat="51.041688" lon="0.910548">
        <ele>-4.8</ele>
        <time>2026-04-25T01:35:59.000Z</time>
      </trkpt>
      <trkpt lat="51.041861" lon="0.911268">
        <ele>-4.8</ele>
        <time>2026-04-25T01:36:12.000Z</time>
      </trkpt>
      <trkpt lat="51.041937" lon="0.911702">
        <ele>-5</ele>
        <time>2026-04-25T01:36:19.000Z</time>
      </trkpt>
      <trkpt lat="51.041974" lon="0.912137">
        <ele>-5.2</ele>
        <time>2026-04-25T01:36:27.000Z</time>
      </trkpt>
      <trkpt lat="51.042022" lon="0.915921">
        <ele>-4.2</ele>
        <time>2026-04-25T01:37:30.000Z</time>
      </trkpt>
      <trkpt lat="51.042069" lon="0.916123">
        <ele>-4.2</ele>
        <time>2026-04-25T01:37:34.000Z</time>
      </trkpt>
      <trkpt lat="51.04214" lon="0.916318">
        <ele>-4.2</ele>
        <time>2026-04-25T01:37:38.000Z</time>
      </trkpt>
      <trkpt lat="51.042608" lon="0.917149">
        <ele>-4.6</ele>
        <time>2026-04-25T01:37:56.000Z</time>
      </trkpt>
      <trkpt lat="51.042744" lon="0.917425">
        <ele>-4.4</ele>
        <time>2026-04-25T01:38:02.000Z</time>
      </trkpt>
      <trkpt lat="51.042821" lon="0.917621">
        <ele>-4.2</ele>
        <time>2026-04-25T01:38:06.000Z</time>
      </trkpt>
      <trkpt lat="51.042894" lon="0.917935">
        <ele>-4.2</ele>
        <time>2026-04-25T01:38:12.000Z</time>
      </trkpt>
      <trkpt lat="51.042906" lon="0.918156">
        <ele>-4.2</ele>
        <time>2026-04-25T01:38:15.000Z</time>
      </trkpt>
      <trkpt lat="51.042882" lon="0.918376">
        <ele>-4.2</ele>
        <time>2026-04-25T01:38:19.000Z</time>
      </trkpt>
      <trkpt lat="51.042767" lon="0.91879">
        <ele>-4.2</ele>
        <time>2026-04-25T01:38:27.000Z</time>
      </trkpt>
      <trkpt lat="51.04273" lon="0.919126">
        <ele>-4.2</ele>
        <time>2026-04-25T01:38:32.000Z</time>
      </trkpt>
      <trkpt lat="51.042741" lon="0.919354">
        <ele>-4.2</ele>
        <time>2026-04-25T01:38:36.000Z</time>
      </trkpt>
      <trkpt lat="51.042865" lon="0.920539">
        <ele>-3.6</ele>
        <time>2026-04-25T01:38:56.000Z</time>
      </trkpt>
      <trkpt lat="51.042902" lon="0.920771">
        <ele>-3.6</ele>
        <time>2026-04-25T01:39:00.000Z</time>
      </trkpt>
      <trkpt lat="51.042961" lon="0.920993">
        <ele>-3.6</ele>
        <time>2026-04-25T01:39:04.000Z</time>
      </trkpt>
      <trkpt lat="51.043355" lon="0.922079">
        <ele>-3.6</ele>
        <time>2026-04-25T01:39:26.000Z</time>
      </trkpt>
      <trkpt lat="51.043481" lon="0.922361">
        <ele>-3.8</ele>
        <time>2026-04-25T01:39:31.000Z</time>
      </trkpt>
      <trkpt lat="51.04362" lon="0.922605">
        <ele>-4</ele>
        <time>2026-04-25T01:39:37.000Z</time>
      </trkpt>
      <trkpt lat="51.043789" lon="0.922817">
        <ele>-4</ele>
        <time>2026-04-25T01:39:43.000Z</time>
      </trkpt>
      <trkpt lat="51.043979" lon="0.922981">
        <ele>-4</ele>
        <time>2026-04-25T01:39:48.000Z</time>
      </trkpt>
      <trkpt lat="51.044175" lon="0.923078">
        <ele>-4</ele>
        <time>2026-04-25T01:39:54.000Z</time>
      </trkpt>
      <trkpt lat="51.044452" lon="0.923158">
        <ele>-3.4</ele>
        <time>2026-04-25T01:40:01.000Z</time>
      </trkpt>
      <trkpt lat="51.044653" lon="0.923241">
        <ele>-3.2</ele>
        <time>2026-04-25T01:40:07.000Z</time>
      </trkpt>
      <trkpt lat="51.044842" lon="0.92337">
        <ele>-3</ele>
        <time>2026-04-25T01:40:12.000Z</time>
      </trkpt>
      <trkpt lat="51.045027" lon="0.923541">
        <ele>-2.6</ele>
        <time>2026-04-25T01:40:18.000Z</time>
      </trkpt>
      <trkpt lat="51.045315" lon="0.923894">
        <ele>-2.6</ele>
        <time>2026-04-25T01:40:28.000Z</time>
      </trkpt>
      <trkpt lat="51.045467" lon="0.924146">
        <ele>-2.6</ele>
        <time>2026-04-25T01:40:34.000Z</time>
      </trkpt>
      <trkpt lat="51.045606" lon="0.924432">
        <ele>-2.8</ele>
        <time>2026-04-25T01:40:40.000Z</time>
      </trkpt>
      <trkpt lat="51.045714" lon="0.924733">
        <ele>-3.2</ele>
        <time>2026-04-25T01:40:46.000Z</time>
      </trkpt>
      <trkpt lat="51.045769" lon="0.924938">
        <ele>-3.2</ele>
        <time>2026-04-25T01:40:49.000Z</time>
      </trkpt>
      <trkpt lat="51.045832" lon="0.925452">
        <ele>-3.2</ele>
        <time>2026-04-25T01:40:58.000Z</time>
      </trkpt>
      <trkpt lat="51.045811" lon="0.925675">
        <ele>-3.4</ele>
        <time>2026-04-25T01:41:02.000Z</time>
      </trkpt>
      <trkpt lat="51.045782" lon="0.925732">
        <ele>-3.4</ele>
        <time>2026-04-25T01:41:03.000Z</time>
      </trkpt>
      <trkpt lat="51.045659" lon="0.925867">
        <ele>-3.6</ele>
        <time>2026-04-25T01:41:07.000Z</time>
      </trkpt>
      <trkpt lat="51.045391" lon="0.926259">
        <ele>-3.6</ele>
        <time>2026-04-25T01:41:17.000Z</time>
      </trkpt>
      <trkpt lat="51.045064" lon="0.926865">
        <ele>-3.4</ele>
        <time>2026-04-25T01:41:30.000Z</time>
      </trkpt>
      <trkpt lat="51.045037" lon="0.92695">
        <ele>-3.4</ele>
        <time>2026-04-25T01:41:32.000Z</time>
      </trkpt>
      <trkpt lat="51.04503" lon="0.927043">
        <ele>-3.2</ele>
        <time>2026-04-25T01:41:33.000Z</time>
      </trkpt>
      <trkpt lat="51.045171" lon="0.927785">
        <ele>-3.6</ele>
        <time>2026-04-25T01:41:46.000Z</time>
      </trkpt>
      <trkpt lat="51.045195" lon="0.928115">
        <ele>-3.8</ele>
        <time>2026-04-25T01:41:52.000Z</time>
      </trkpt>
      <trkpt lat="51.045188" lon="0.928326">
        <ele>-3.8</ele>
        <time>2026-04-25T01:41:56.000Z</time>
      </trkpt>
      <trkpt lat="51.045125" lon="0.928816">
        <ele>-3.8</ele>
        <time>2026-04-25T01:42:04.000Z</time>
      </trkpt>
      <trkpt lat="51.045088" lon="0.929412">
        <ele>-3.6</ele>
        <time>2026-04-25T01:42:14.000Z</time>
      </trkpt>
      <trkpt lat="51.045047" lon="0.929589">
        <ele>-3.6</ele>
        <time>2026-04-25T01:42:17.000Z</time>
      </trkpt>
      <trkpt lat="51.044957" lon="0.929829">
        <ele>-3.6</ele>
        <time>2026-04-25T01:42:22.000Z</time>
      </trkpt>
      <trkpt lat="51.044937" lon="0.929928">
        <ele>-3.6</ele>
        <time>2026-04-25T01:42:24.000Z</time>
      </trkpt>
      <trkpt lat="51.044959" lon="0.930071">
        <ele>-3.6</ele>
        <time>2026-04-25T01:42:26.000Z</time>
      </trkpt>
      <trkpt lat="51.045169" lon="0.930722">
        <ele>-3.2</ele>
        <time>2026-04-25T01:42:38.000Z</time>
      </trkpt>
      <trkpt lat="51.045213" lon="0.930987">
        <ele>-3.2</ele>
        <time>2026-04-25T01:42:43.000Z</time>
      </trkpt>
      <trkpt lat="51.045264" lon="0.931545">
        <ele>-3.2</ele>
        <time>2026-04-25T01:42:52.000Z</time>
      </trkpt>
      <trkpt lat="51.045287" lon="0.931637">
        <ele>-3.2</ele>
        <time>2026-04-25T01:42:54.000Z</time>
      </trkpt>
      <trkpt lat="51.045359" lon="0.931796">
        <ele>-3.2</ele>
        <time>2026-04-25T01:42:57.000Z</time>
      </trkpt>
      <trkpt lat="51.045505" lon="0.932">
        <ele>-3.2</ele>
        <time>2026-04-25T01:43:03.000Z</time>
      </trkpt>
      <trkpt lat="51.045624" lon="0.9321">
        <ele>-3.2</ele>
        <time>2026-04-25T01:43:06.000Z</time>
      </trkpt>
      <trkpt lat="51.045872" lon="0.932222">
        <ele>-3.2</ele>
        <time>2026-04-25T01:43:13.000Z</time>
      </trkpt>
      <trkpt lat="51.045969" lon="0.932347">
        <ele>-3.2</ele>
        <time>2026-04-25T01:43:16.000Z</time>
      </trkpt>
      <trkpt lat="51.046168" lon="0.932975">
        <ele>-3.4</ele>
        <time>2026-04-25T01:43:28.000Z</time>
      </trkpt>
      <trkpt lat="51.046313" lon="0.933337">
        <ele>-3.8</ele>
        <time>2026-04-25T01:43:35.000Z</time>
      </trkpt>
      <trkpt lat="51.046466" lon="0.933669">
        <ele>-3.8</ele>
        <time>2026-04-25T01:43:42.000Z</time>
      </trkpt>
      <trkpt lat="51.046776" lon="0.934233">
        <ele>-4</ele>
        <time>2026-04-25T01:43:55.000Z</time>
      </trkpt>
      <trkpt lat="51.046928" lon="0.934573">
        <ele>-4</ele>
        <time>2026-04-25T01:44:02.000Z</time>
      </trkpt>
      <trkpt lat="51.047283" lon="0.935743">
        <ele>-4</ele>
        <time>2026-04-25T01:44:24.000Z</time>
      </trkpt>
      <trkpt lat="51.047443" lon="0.936139">
        <ele>-4</ele>
        <time>2026-04-25T01:44:32.000Z</time>
      </trkpt>
      <trkpt lat="51.04761" lon="0.936461">
        <ele>-4</ele>
        <time>2026-04-25T01:44:39.000Z</time>
      </trkpt>
      <trkpt lat="51.047841" lon="0.936836">
        <ele>-4</ele>
        <time>2026-04-25T01:44:47.000Z</time>
      </trkpt>
      <trkpt lat="51.048472" lon="0.937655">
        <ele>-3.6</ele>
        <time>2026-04-25T01:45:09.000Z</time>
      </trkpt>
      <trkpt lat="51.049348" lon="0.938577">
        <ele>-3</ele>
        <time>2026-04-25T01:45:37.000Z</time>
      </trkpt>
      <trkpt lat="51.04959" lon="0.938777">
        <ele>-2.8</ele>
        <time>2026-04-25T01:45:44.000Z</time>
      </trkpt>
      <trkpt lat="51.049719" lon="0.938854">
        <ele>-2.4</ele>
        <time>2026-04-25T01:45:48.000Z</time>
      </trkpt>
      <trkpt lat="51.049921" lon="0.938931">
        <ele>-2.2</ele>
        <time>2026-04-25T01:45:54.000Z</time>
      </trkpt>
      <trkpt lat="51.050114" lon="0.938978">
        <ele>-2</ele>
        <time>2026-04-25T01:45:59.000Z</time>
      </trkpt>
      <trkpt lat="51.05031" lon="0.938981">
        <ele>-2</ele>
        <time>2026-04-25T01:46:04.000Z</time>
      </trkpt>
      <trkpt lat="51.050708" lon="0.938948">
        <ele>-1.8</ele>
        <time>2026-04-25T01:46:15.000Z</time>
      </trkpt>
      <trkpt lat="51.050969" lon="0.938957">
        <ele>-2</ele>
        <time>2026-04-25T01:46:22.000Z</time>
      </trkpt>
      <trkpt lat="51.051162" lon="0.938998">
        <ele>-2</ele>
        <time>2026-04-25T01:46:27.000Z</time>
      </trkpt>
      <trkpt lat="51.051479" lon="0.939115">
        <ele>-1.8</ele>
        <time>2026-04-25T01:46:36.000Z</time>
      </trkpt>
      <trkpt lat="51.05172" lon="0.939239">
        <ele>-1.6</ele>
        <time>2026-04-25T01:46:42.000Z</time>
      </trkpt>
      <trkpt lat="51.051904" lon="0.939357">
        <ele>-1.6</ele>
        <time>2026-04-25T01:46:48.000Z</time>
      </trkpt>
      <trkpt lat="51.052087" lon="0.939508">
        <ele>-1.4</ele>
        <time>2026-04-25T01:46:53.000Z</time>
      </trkpt>
      <trkpt lat="51.052587" lon="0.93998">
        <ele>-1</ele>
        <time>2026-04-25T01:47:09.000Z</time>
      </trkpt>
      <trkpt lat="51.052861" lon="0.940291">
        <ele>-1.2</ele>
        <time>2026-04-25T01:47:18.000Z</time>
      </trkpt>
      <trkpt lat="51.053296" lon="0.940972">
        <ele>-2</ele>
        <time>2026-04-25T01:47:34.000Z</time>
      </trkpt>
      <trkpt lat="51.053569" lon="0.941366">
        <ele>-2</ele>
        <time>2026-04-25T01:47:44.000Z</time>
      </trkpt>
      <trkpt lat="51.053768" lon="0.941628">
        <ele>-2</ele>
        <time>2026-04-25T01:47:51.000Z</time>
      </trkpt>
      <trkpt lat="51.054358" lon="0.942318">
        <ele>-2.2</ele>
        <time>2026-04-25T01:48:10.000Z</time>
      </trkpt>
      <trkpt lat="51.054725" lon="0.942926">
        <ele>-2.8</ele>
        <time>2026-04-25T01:48:24.000Z</time>
      </trkpt>
      <trkpt lat="51.054836" lon="0.943192">
        <ele>-2.8</ele>
        <time>2026-04-25T01:48:30.000Z</time>
      </trkpt>
      <trkpt lat="51.054903" lon="0.943507">
        <ele>-3</ele>
        <time>2026-04-25T01:48:35.000Z</time>
      </trkpt>
      <trkpt lat="51.054924" lon="0.943738">
        <ele>-3</ele>
        <time>2026-04-25T01:48:39.000Z</time>
      </trkpt>
      <trkpt lat="51.054874" lon="0.94444">
        <ele>-3.2</ele>
        <time>2026-04-25T01:48:51.000Z</time>
      </trkpt>
      <trkpt lat="51.05489" lon="0.944967">
        <ele>-3</ele>
        <time>2026-04-25T01:49:00.000Z</time>
      </trkpt>
      <trkpt lat="51.055005" lon="0.945684">
        <ele>-3.4</ele>
        <time>2026-04-25T01:49:12.000Z</time>
      </trkpt>
      <trkpt lat="51.055145" lon="0.946188">
        <ele>-3.4</ele>
        <time>2026-04-25T01:49:22.000Z</time>
      </trkpt>
      <trkpt lat="51.055334" lon="0.946671">
        <ele>-3.4</ele>
        <time>2026-04-25T01:49:31.000Z</time>
      </trkpt>
      <trkpt lat="51.055497" lon="0.94699">
        <ele>-3.6</ele>
        <time>2026-04-25T01:49:38.000Z</time>
      </trkpt>
      <trkpt lat="51.056283" lon="0.947835">
        <ele>-3.4</ele>
        <time>2026-04-25T01:50:03.000Z</time>
      </trkpt>
      <trkpt lat="51.05661" lon="0.948298">
        <ele>-3</ele>
        <time>2026-04-25T01:50:15.000Z</time>
      </trkpt>
      <trkpt lat="51.056896" lon="0.948841">
        <ele>-3</ele>
        <time>2026-04-25T01:50:27.000Z</time>
      </trkpt>
      <trkpt lat="51.057088" lon="0.949413">
        <ele>-3.4</ele>
        <time>2026-04-25T01:50:38.000Z</time>
      </trkpt>
      <trkpt lat="51.057134" lon="0.94974">
        <ele>-3.6</ele>
        <time>2026-04-25T01:50:43.000Z</time>
      </trkpt>
      <trkpt lat="51.057132" lon="0.949963">
        <ele>-3.8</ele>
        <time>2026-04-25T01:50:47.000Z</time>
      </trkpt>
      <trkpt lat="51.057014" lon="0.950881">
        <ele>-3.8</ele>
        <time>2026-04-25T01:51:03.000Z</time>
      </trkpt>
      <trkpt lat="51.056992" lon="0.9512">
        <ele>-3.6</ele>
        <time>2026-04-25T01:51:08.000Z</time>
      </trkpt>
      <trkpt lat="51.056993" lon="0.951549">
        <ele>-3.4</ele>
        <time>2026-04-25T01:51:14.000Z</time>
      </trkpt>
      <trkpt lat="51.057028" lon="0.952075">
        <ele>-3.4</ele>
        <time>2026-04-25T01:51:23.000Z</time>
      </trkpt>
      <trkpt lat="51.057085" lon="0.952519">
        <ele>-3.4</ele>
        <time>2026-04-25T01:51:31.000Z</time>
      </trkpt>
      <trkpt lat="51.057163" lon="0.952959">
        <ele>-3.4</ele>
        <time>2026-04-25T01:51:38.000Z</time>
      </trkpt>
      <trkpt lat="51.057274" lon="0.953381">
        <ele>-3.4</ele>
        <time>2026-04-25T01:51:46.000Z</time>
      </trkpt>
      <trkpt lat="51.057351" lon="0.953601">
        <ele>-3.4</ele>
        <time>2026-04-25T01:51:50.000Z</time>
      </trkpt>
      <trkpt lat="51.057465" lon="0.953857">
        <ele>-3.8</ele>
        <time>2026-04-25T01:51:55.000Z</time>
      </trkpt>
      <trkpt lat="51.057691" lon="0.95423">
        <ele>-4</ele>
        <time>2026-04-25T01:52:04.000Z</time>
      </trkpt>
      <trkpt lat="51.057783" lon="0.954351">
        <ele>-4</ele>
        <time>2026-04-25T01:52:07.000Z</time>
      </trkpt>
      <trkpt lat="51.057835" lon="0.954389">
        <ele>-4</ele>
        <time>2026-04-25T01:52:09.000Z</time>
      </trkpt>
      <trkpt lat="51.057891" lon="0.954405">
        <ele>-4</ele>
        <time>2026-04-25T01:52:10.000Z</time>
      </trkpt>
      <trkpt lat="51.057999" lon="0.954393">
        <ele>-3.8</ele>
        <time>2026-04-25T01:52:13.000Z</time>
      </trkpt>
      <trkpt lat="51.058097" lon="0.95433">
        <ele>-3.6</ele>
        <time>2026-04-25T01:52:16.000Z</time>
      </trkpt>
      <trkpt lat="51.058249" lon="0.954195">
        <ele>-3.8</ele>
        <time>2026-04-25T01:52:21.000Z</time>
      </trkpt>
      <trkpt lat="51.058337" lon="0.954152">
        <ele>-3.6</ele>
        <time>2026-04-25T01:52:23.000Z</time>
      </trkpt>
      <trkpt lat="51.058391" lon="0.954164">
        <ele>-3.6</ele>
        <time>2026-04-25T01:52:25.000Z</time>
      </trkpt>
      <trkpt lat="51.058443" lon="0.954203">
        <ele>-3.6</ele>
        <time>2026-04-25T01:52:26.000Z</time>
      </trkpt>
      <trkpt lat="51.058755" lon="0.954473">
        <ele>-3.4</ele>
        <time>2026-04-25T01:52:36.000Z</time>
      </trkpt>
      <trkpt lat="51.058915" lon="0.954673">
        <ele>-3.2</ele>
        <time>2026-04-25T01:52:41.000Z</time>
      </trkpt>
      <trkpt lat="51.059156" lon="0.95507">
        <ele>-2.8</ele>
        <time>2026-04-25T01:52:50.000Z</time>
      </trkpt>
      <trkpt lat="51.059478" lon="0.955801">
        <ele>-2.8</ele>
        <time>2026-04-25T01:53:05.000Z</time>
      </trkpt>
      <trkpt lat="51.059614" lon="0.956186">
        <ele>-2.4</ele>
        <time>2026-04-25T01:53:13.000Z</time>
      </trkpt>
      <trkpt lat="51.059821" lon="0.956867">
        <ele>-2.2</ele>
        <time>2026-04-25T01:53:25.000Z</time>
      </trkpt>
      <trkpt lat="51.06002" lon="0.957401">
        <ele>-2.4</ele>
        <time>2026-04-25T01:53:36.000Z</time>
      </trkpt>
      <trkpt lat="51.06019" lon="0.957986">
        <ele>-2.8</ele>
        <time>2026-04-25T01:53:47.000Z</time>
      </trkpt>
      <trkpt lat="51.060256" lon="0.958301">
        <ele>-3</ele>
        <time>2026-04-25T01:53:52.000Z</time>
      </trkpt>
      <trkpt lat="51.060292" lon="0.958611">
        <ele>-3</ele>
        <time>2026-04-25T01:53:58.000Z</time>
      </trkpt>
      <trkpt lat="51.060295" lon="0.958837">
        <ele>-3</ele>
        <time>2026-04-25T01:54:01.000Z</time>
      </trkpt>
      <trkpt lat="51.060154" lon="0.960078">
        <ele>-3.6</ele>
        <time>2026-04-25T01:54:22.000Z</time>
      </trkpt>
      <trkpt lat="51.060139" lon="0.96039">
        <ele>-3.6</ele>
        <time>2026-04-25T01:54:28.000Z</time>
      </trkpt>
      <trkpt lat="51.060146" lon="0.960709">
        <ele>-3.6</ele>
        <time>2026-04-25T01:54:33.000Z</time>
      </trkpt>
      <trkpt lat="51.060248" lon="0.961306">
        <ele>-3.6</ele>
        <time>2026-04-25T01:54:43.000Z</time>
      </trkpt>
      <trkpt lat="51.060511" lon="0.962322">
        <ele>-4</ele>
        <time>2026-04-25T01:55:02.000Z</time>
      </trkpt>
      <trkpt lat="51.060732" lon="0.963574">
        <ele>-4.2</ele>
        <time>2026-04-25T01:55:24.000Z</time>
      </trkpt>
      <trkpt lat="51.06083" lon="0.964009">
        <ele>-4.2</ele>
        <time>2026-04-25T01:55:31.000Z</time>
      </trkpt>
      <trkpt lat="51.060936" lon="0.964287">
        <ele>-4.2</ele>
        <time>2026-04-25T01:55:37.000Z</time>
      </trkpt>
      <trkpt lat="51.061126" lon="0.964603">
        <ele>-4</ele>
        <time>2026-04-25T01:55:44.000Z</time>
      </trkpt>
      <trkpt lat="51.061721" lon="0.96516">
        <ele>-3.4</ele>
        <time>2026-04-25T01:56:03.000Z</time>
      </trkpt>
      <trkpt lat="51.061934" lon="0.965435">
        <ele>-2.8</ele>
        <time>2026-04-25T01:56:10.000Z</time>
      </trkpt>
      <trkpt lat="51.062083" lon="0.965678">
        <ele>-2.8</ele>
        <time>2026-04-25T01:56:16.000Z</time>
      </trkpt>
      <trkpt lat="51.062264" lon="0.966054">
        <ele>-2.8</ele>
        <time>2026-04-25T01:56:24.000Z</time>
      </trkpt>
      <trkpt lat="51.062465" lon="0.966564">
        <ele>-3</ele>
        <time>2026-04-25T01:56:34.000Z</time>
      </trkpt>
      <trkpt lat="51.062648" lon="0.967091">
        <ele>-3.4</ele>
        <time>2026-04-25T01:56:44.000Z</time>
      </trkpt>
      <trkpt lat="51.062778" lon="0.967618">
        <ele>-3</ele>
        <time>2026-04-25T01:56:53.000Z</time>
      </trkpt>
      <trkpt lat="51.062872" lon="0.968213">
        <ele>-2.2</ele>
        <time>2026-04-25T01:57:04.000Z</time>
      </trkpt>
      <trkpt lat="51.062944" lon="0.969088">
        <ele>-2</ele>
        <time>2026-04-25T01:57:18.000Z</time>
      </trkpt>
      <trkpt lat="51.063092" lon="0.970287">
        <ele>-2.4</ele>
        <time>2026-04-25T01:57:39.000Z</time>
      </trkpt>
      <trkpt lat="51.063096" lon="0.970736">
        <ele>-2.4</ele>
        <time>2026-04-25T01:57:46.000Z</time>
      </trkpt>
      <trkpt lat="51.063054" lon="0.971063">
        <ele>-2.4</ele>
        <time>2026-04-25T01:57:52.000Z</time>
      </trkpt>
      <trkpt lat="51.062972" lon="0.97137">
        <ele>-2.2</ele>
        <time>2026-04-25T01:57:58.000Z</time>
      </trkpt>
      <trkpt lat="51.062639" lon="0.972147">
        <ele>-1.8</ele>
        <time>2026-04-25T01:58:13.000Z</time>
      </trkpt>
      <trkpt lat="51.062543" lon="0.972496">
        <ele>-1.6</ele>
        <time>2026-04-25T01:58:20.000Z</time>
      </trkpt>
      <trkpt lat="51.062492" lon="0.972831">
        <ele>-1.4</ele>
        <time>2026-04-25T01:58:26.000Z</time>
      </trkpt>
      <trkpt lat="51.062475" lon="0.973537">
        <ele>-2.4</ele>
        <time>2026-04-25T01:58:37.000Z</time>
      </trkpt>
      <trkpt lat="51.062523" lon="0.974044">
        <ele>-2.6</ele>
        <time>2026-04-25T01:58:46.000Z</time>
      </trkpt>
      <trkpt lat="51.062721" lon="0.975095">
        <ele>-3</ele>
        <time>2026-04-25T01:59:04.000Z</time>
      </trkpt>
      <trkpt lat="51.062803" lon="0.975641">
        <ele>-3</ele>
        <time>2026-04-25T01:59:14.000Z</time>
      </trkpt>
      <trkpt lat="51.062855" lon="0.976157">
        <ele>-3</ele>
        <time>2026-04-25T01:59:23.000Z</time>
      </trkpt>
      <trkpt lat="51.062921" lon="0.977296">
        <ele>-3.4</ele>
        <time>2026-04-25T01:59:42.000Z</time>
      </trkpt>
      <trkpt lat="51.062962" lon="0.977707">
        <ele>-3.4</ele>
        <time>2026-04-25T01:59:49.000Z</time>
      </trkpt>
      <trkpt lat="51.063101" lon="0.978444">
        <ele>-3.4</ele>
        <time>2026-04-25T02:00:02.000Z</time>
      </trkpt>
      <trkpt lat="51.06319" lon="0.978754">
        <ele>-3.6</ele>
        <time>2026-04-25T02:00:07.000Z</time>
      </trkpt>
      <trkpt lat="51.063268" lon="0.978945">
        <ele>-3.6</ele>
        <time>2026-04-25T02:00:11.000Z</time>
      </trkpt>
      <trkpt lat="51.06337" lon="0.979108">
        <ele>-3.6</ele>
        <time>2026-04-25T02:00:15.000Z</time>
      </trkpt>
      <trkpt lat="51.06343" lon="0.979174">
        <ele>-3.6</ele>
        <time>2026-04-25T02:00:17.000Z</time>
      </trkpt>
      <trkpt lat="51.063886" lon="0.979519">
        <ele>-2.8</ele>
        <time>2026-04-25T02:00:31.000Z</time>
      </trkpt>
      <trkpt lat="51.064073" lon="0.979698">
        <ele>-2.2</ele>
        <time>2026-04-25T02:00:36.000Z</time>
      </trkpt>
      <trkpt lat="51.06424" lon="0.979916">
        <ele>-2</ele>
        <time>2026-04-25T02:00:42.000Z</time>
      </trkpt>
      <trkpt lat="51.064391" lon="0.980166">
        <ele>-2</ele>
        <time>2026-04-25T02:00:48.000Z</time>
      </trkpt>
      <trkpt lat="51.064729" lon="0.980986">
        <ele>-2.4</ele>
        <time>2026-04-25T02:01:04.000Z</time>
      </trkpt>
      <trkpt lat="51.064893" lon="0.981487">
        <ele>-2.8</ele>
        <time>2026-04-25T02:01:14.000Z</time>
      </trkpt>
      <trkpt lat="51.065036" lon="0.982013">
        <ele>-2.8</ele>
        <time>2026-04-25T02:01:24.000Z</time>
      </trkpt>
      <trkpt lat="51.065089" lon="0.982442">
        <ele>-2.6</ele>
        <time>2026-04-25T02:01:31.000Z</time>
      </trkpt>
      <trkpt lat="51.065087" lon="0.982644">
        <ele>-2.6</ele>
        <time>2026-04-25T02:01:34.000Z</time>
      </trkpt>
      <trkpt lat="51.065055" lon="0.982952">
        <ele>-2.6</ele>
        <time>2026-04-25T02:01:39.000Z</time>
      </trkpt>
      <trkpt lat="51.064985" lon="0.983252">
        <ele>-2.2</ele>
        <time>2026-04-25T02:01:45.000Z</time>
      </trkpt>
      <trkpt lat="51.064712" lon="0.984148">
        <ele>-2.4</ele>
        <time>2026-04-25T02:02:02.000Z</time>
      </trkpt>
      <trkpt lat="51.064621" lon="0.98464">
        <ele>-2.4</ele>
        <time>2026-04-25T02:02:10.000Z</time>
      </trkpt>
      <trkpt lat="51.064614" lon="0.984964">
        <ele>-2.4</ele>
        <time>2026-04-25T02:02:16.000Z</time>
      </trkpt>
      <trkpt lat="51.064674" lon="0.98577">
        <ele>-2.8</ele>
        <time>2026-04-25T02:02:29.000Z</time>
      </trkpt>
      <trkpt lat="51.064582" lon="0.986809">
        <ele>-2.8</ele>
        <time>2026-04-25T02:02:47.000Z</time>
      </trkpt>
      <trkpt lat="51.064586" lon="0.987344">
        <ele>-2.6</ele>
        <time>2026-04-25T02:02:56.000Z</time>
      </trkpt>
      <trkpt lat="51.06465" lon="0.987724">
        <ele>-2.4</ele>
        <time>2026-04-25T02:03:02.000Z</time>
      </trkpt>
      <trkpt lat="51.064704" lon="0.987902">
        <ele>-2.4</ele>
        <time>2026-04-25T02:03:06.000Z</time>
      </trkpt>
      <trkpt lat="51.064781" lon="0.988077">
        <ele>-2.4</ele>
        <time>2026-04-25T02:03:09.000Z</time>
      </trkpt>
      <trkpt lat="51.064978" lon="0.988389">
        <ele>-2.6</ele>
        <time>2026-04-25T02:03:17.000Z</time>
      </trkpt>
      <trkpt lat="51.065341" lon="0.988814">
        <ele>-2.4</ele>
        <time>2026-04-25T02:03:29.000Z</time>
      </trkpt>
      <trkpt lat="51.065489" lon="0.98911">
        <ele>-2.2</ele>
        <time>2026-04-25T02:03:35.000Z</time>
      </trkpt>
      <trkpt lat="51.065554" lon="0.98929">
        <ele>-2.2</ele>
        <time>2026-04-25T02:03:39.000Z</time>
      </trkpt>
      <trkpt lat="51.065822" lon="0.990269">
        <ele>-2</ele>
        <time>2026-04-25T02:03:56.000Z</time>
      </trkpt>
      <trkpt lat="51.06591" lon="0.990757">
        <ele>-2</ele>
        <time>2026-04-25T02:04:05.000Z</time>
      </trkpt>
      <trkpt lat="51.065932" lon="0.991065">
        <ele>-2</ele>
        <time>2026-04-25T02:04:10.000Z</time>
      </trkpt>
      <trkpt lat="51.065907" lon="0.992182">
        <ele>-2.4</ele>
        <time>2026-04-25T02:04:29.000Z</time>
      </trkpt>
      <trkpt lat="51.065928" lon="0.992884">
        <ele>-2.6</ele>
        <time>2026-04-25T02:04:41.000Z</time>
      </trkpt>
      <trkpt lat="51.065907" lon="0.993348">
        <ele>-2.6</ele>
        <time>2026-04-25T02:04:49.000Z</time>
      </trkpt>
      <trkpt lat="51.065832" lon="0.993793">
        <ele>-2.6</ele>
        <time>2026-04-25T02:04:56.000Z</time>
      </trkpt>
      <trkpt lat="51.065696" lon="0.994203">
        <ele>-2.6</ele>
        <time>2026-04-25T02:05:04.000Z</time>
      </trkpt>
      <trkpt lat="51.065547" lon="0.994453">
        <ele>-2.6</ele>
        <time>2026-04-25T02:05:10.000Z</time>
      </trkpt>
      <trkpt lat="51.06511" lon="0.995024">
        <ele>-2</ele>
        <time>2026-04-25T02:05:25.000Z</time>
      </trkpt>
      <trkpt lat="51.064978" lon="0.995245">
        <ele>-2</ele>
        <time>2026-04-25T02:05:30.000Z</time>
      </trkpt>
      <trkpt lat="51.064861" lon="0.995493">
        <ele>-1.8</ele>
        <time>2026-04-25T02:05:35.000Z</time>
      </trkpt>
      <trkpt lat="51.064592" lon="0.99635">
        <ele>-1.4</ele>
        <time>2026-04-25T02:05:51.000Z</time>
      </trkpt>
      <trkpt lat="51.064238" lon="0.997346">
        <ele>-1.6</ele>
        <time>2026-04-25T02:06:11.000Z</time>
      </trkpt>
      <trkpt lat="51.064114" lon="0.997756">
        <ele>-2</ele>
        <time>2026-04-25T02:06:18.000Z</time>
      </trkpt>
      <trkpt lat="51.06406" lon="0.998043">
        <ele>-2.2</ele>
        <time>2026-04-25T02:06:23.000Z</time>
      </trkpt>
      <trkpt lat="51.064059" lon="0.998248">
        <ele>-2.4</ele>
        <time>2026-04-25T02:06:27.000Z</time>
      </trkpt>
      <trkpt lat="51.064271" lon="0.999345">
        <ele>-3.2</ele>
        <time>2026-04-25T02:06:46.000Z</time>
      </trkpt>
      <trkpt lat="51.064312" lon="0.999785">
        <ele>-3.6</ele>
        <time>2026-04-25T02:06:53.000Z</time>
      </trkpt>
      <trkpt lat="51.064294" lon="1.000483">
        <ele>-3.8</ele>
        <time>2026-04-25T02:07:05.000Z</time>
      </trkpt>
      <trkpt lat="51.064245" lon="1.001035">
        <ele>-3.8</ele>
        <time>2026-04-25T02:07:14.000Z</time>
      </trkpt>
      <trkpt lat="51.064188" lon="1.00133">
        <ele>-3.8</ele>
        <time>2026-04-25T02:07:20.000Z</time>
      </trkpt>
      <trkpt lat="51.064129" lon="1.00152">
        <ele>-3.8</ele>
        <time>2026-04-25T02:07:23.000Z</time>
      </trkpt>
      <trkpt lat="51.063766" lon="1.002305">
        <ele>-3.4</ele>
        <time>2026-04-25T02:07:39.000Z</time>
      </trkpt>
      <trkpt lat="51.063456" lon="1.003164">
        <ele>-2.8</ele>
        <time>2026-04-25T02:07:56.000Z</time>
      </trkpt>
      <trkpt lat="51.063034" lon="1.005144">
        <ele>-2.6</ele>
        <time>2026-04-25T02:08:31.000Z</time>
      </trkpt>
      <trkpt lat="51.062906" lon="1.005641">
        <ele>-2.2</ele>
        <time>2026-04-25T02:08:40.000Z</time>
      </trkpt>
      <trkpt lat="51.062843" lon="1.005826">
        <ele>-2.2</ele>
        <time>2026-04-25T02:08:44.000Z</time>
      </trkpt>
      <trkpt lat="51.062691" lon="1.006163">
        <ele>-2.2</ele>
        <time>2026-04-25T02:08:51.000Z</time>
      </trkpt>
      <trkpt lat="51.062608" lon="1.006327">
        <ele>-2.2</ele>
        <time>2026-04-25T02:08:54.000Z</time>
      </trkpt>
      <trkpt lat="51.062512" lon="1.006471">
        <ele>-2.2</ele>
        <time>2026-04-25T02:08:58.000Z</time>
      </trkpt>
      <trkpt lat="51.062283" lon="1.006704">
        <ele>-2.2</ele>
        <time>2026-04-25T02:09:05.000Z</time>
      </trkpt>
      <trkpt lat="51.061669" lon="1.007138">
        <ele>-2</ele>
        <time>2026-04-25T02:09:23.000Z</time>
      </trkpt>
      <trkpt lat="51.06144" lon="1.007348">
        <ele>-1.8</ele>
        <time>2026-04-25T02:09:30.000Z</time>
      </trkpt>
      <trkpt lat="51.061171" lon="1.00763">
        <ele>-1.6</ele>
        <time>2026-04-25T02:09:39.000Z</time>
      </trkpt>
      <trkpt lat="51.060821" lon="1.008043">
        <ele>-1.4</ele>
        <time>2026-04-25T02:09:50.000Z</time>
      </trkpt>
      <trkpt lat="51.06063" lon="1.008298">
        <ele>-1.4</ele>
        <time>2026-04-25T02:09:57.000Z</time>
      </trkpt>
      <trkpt lat="51.060425" lon="1.008664">
        <ele>-1.4</ele>
        <time>2026-04-25T02:10:05.000Z</time>
      </trkpt>
      <trkpt lat="51.060281" lon="1.008989">
        <ele>-1.4</ele>
        <time>2026-04-25T02:10:12.000Z</time>
      </trkpt>
      <trkpt lat="51.060088" lon="1.009507">
        <ele>-1.6</ele>
        <time>2026-04-25T02:10:22.000Z</time>
      </trkpt>
      <trkpt lat="51.059894" lon="1.010124">
        <ele>-1.4</ele>
        <time>2026-04-25T02:10:33.000Z</time>
      </trkpt>
      <trkpt lat="51.059524" lon="1.011421">
        <ele>-1</ele>
        <time>2026-04-25T02:10:57.000Z</time>
      </trkpt>
      <trkpt lat="51.059122" lon="1.012603">
        <ele>-1</ele>
        <time>2026-04-25T02:11:20.000Z</time>
      </trkpt>
      <trkpt lat="51.058947" lon="1.013176">
        <ele>-1</ele>
        <time>2026-04-25T02:11:31.000Z</time>
      </trkpt>
      <trkpt lat="51.058848" lon="1.013569">
        <ele>-1</ele>
        <time>2026-04-25T02:11:38.000Z</time>
      </trkpt>
      <trkpt lat="51.058583" lon="1.014874">
        <ele>-0.39999999999998</ele>
        <time>2026-04-25T02:12:01.000Z</time>
      </trkpt>
      <trkpt lat="51.058539" lon="1.015164">
        <ele>-0.39999999999998</ele>
        <time>2026-04-25T02:12:06.000Z</time>
      </trkpt>
      <trkpt lat="51.058497" lon="1.01557">
        <ele>-0.60000000000002</ele>
        <time>2026-04-25T02:12:13.000Z</time>
      </trkpt>
      <trkpt lat="51.058469" lon="1.016166">
        <ele>-1</ele>
        <time>2026-04-25T02:12:23.000Z</time>
      </trkpt>
      <trkpt lat="51.058492" lon="1.01675">
        <ele>-1.2</ele>
        <time>2026-04-25T02:12:32.000Z</time>
      </trkpt>
      <trkpt lat="51.058561" lon="1.017421">
        <ele>-1.6</ele>
        <time>2026-04-25T02:12:44.000Z</time>
      </trkpt>
      <trkpt lat="51.058692" lon="1.017855">
        <ele>-2</ele>
        <time>2026-04-25T02:12:52.000Z</time>
      </trkpt>
      <trkpt lat="51.058769" lon="1.018021">
        <ele>-2.4</ele>
        <time>2026-04-25T02:12:55.000Z</time>
      </trkpt>
      <trkpt lat="51.058863" lon="1.018163">
        <ele>-2.6</ele>
        <time>2026-04-25T02:12:59.000Z</time>
      </trkpt>
      <trkpt lat="51.059024" lon="1.018344">
        <ele>-2.6</ele>
        <time>2026-04-25T02:13:04.000Z</time>
      </trkpt>
      <trkpt lat="51.059377" lon="1.018662">
        <ele>-2.6</ele>
        <time>2026-04-25T02:13:15.000Z</time>
      </trkpt>
      <trkpt lat="51.059594" lon="1.018893">
        <ele>-2</ele>
        <time>2026-04-25T02:13:22.000Z</time>
      </trkpt>
      <trkpt lat="51.059973" lon="1.019395">
        <ele>-1.6</ele>
        <time>2026-04-25T02:13:35.000Z</time>
      </trkpt>
      <trkpt lat="51.060218" lon="1.019771">
        <ele>-1.4</ele>
        <time>2026-04-25T02:13:44.000Z</time>
      </trkpt>
      <trkpt lat="51.060477" lon="1.020235">
        <ele>-1.8</ele>
        <time>2026-04-25T02:13:55.000Z</time>
      </trkpt>
      <trkpt lat="51.060589" lon="1.020505">
        <ele>-2</ele>
        <time>2026-04-25T02:14:00.000Z</time>
      </trkpt>
      <trkpt lat="51.060675" lon="1.020808">
        <ele>-2</ele>
        <time>2026-04-25T02:14:06.000Z</time>
      </trkpt>
      <trkpt lat="51.060698" lon="1.021023">
        <ele>-2.2</ele>
        <time>2026-04-25T02:14:09.000Z</time>
      </trkpt>
      <trkpt lat="51.060688" lon="1.021232">
        <ele>-2.2</ele>
        <time>2026-04-25T02:14:13.000Z</time>
      </trkpt>
      <trkpt lat="51.060574" lon="1.021832">
        <ele>-2.4</ele>
        <time>2026-04-25T02:14:23.000Z</time>
      </trkpt>
      <trkpt lat="51.060532" lon="1.022246">
        <ele>-2.4</ele>
        <time>2026-04-25T02:14:30.000Z</time>
      </trkpt>
      <trkpt lat="51.060627" lon="1.023687">
        <ele>-2.8</ele>
        <time>2026-04-25T02:14:55.000Z</time>
      </trkpt>
      <trkpt lat="51.060669" lon="1.023867">
        <ele>-2.8</ele>
        <time>2026-04-25T02:14:58.000Z</time>
      </trkpt>
      <trkpt lat="51.060763" lon="1.024119">
        <ele>-3</ele>
        <time>2026-04-25T02:15:03.000Z</time>
      </trkpt>
      <trkpt lat="51.061249" lon="1.024949">
        <ele>-2.8</ele>
        <time>2026-04-25T02:15:22.000Z</time>
      </trkpt>
      <trkpt lat="51.061328" lon="1.02512">
        <ele>-2.8</ele>
        <time>2026-04-25T02:15:25.000Z</time>
      </trkpt>
      <trkpt lat="51.061422" lon="1.025384">
        <ele>-2.6</ele>
        <time>2026-04-25T02:15:30.000Z</time>
      </trkpt>
      <trkpt lat="51.061473" lon="1.02567">
        <ele>-2.6</ele>
        <time>2026-04-25T02:15:35.000Z</time>
      </trkpt>
      <trkpt lat="51.061504" lon="1.02681">
        <ele>-3</ele>
        <time>2026-04-25T02:15:55.000Z</time>
      </trkpt>
      <trkpt lat="51.061476" lon="1.027001">
        <ele>-2.8</ele>
        <time>2026-04-25T02:15:58.000Z</time>
      </trkpt>
      <trkpt lat="51.061361" lon="1.02737">
        <ele>-2.8</ele>
        <time>2026-04-25T02:16:05.000Z</time>
      </trkpt>
      <trkpt lat="51.061289" lon="1.027662">
        <ele>-2.8</ele>
        <time>2026-04-25T02:16:10.000Z</time>
      </trkpt>
      <trkpt lat="51.061257" lon="1.027971">
        <ele>-2.4</ele>
        <time>2026-04-25T02:16:15.000Z</time>
      </trkpt>
      <trkpt lat="51.061257" lon="1.028186">
        <ele>-2.6</ele>
        <time>2026-04-25T02:16:19.000Z</time>
      </trkpt>
      <trkpt lat="51.06139" lon="1.029733">
        <ele>-2.8</ele>
        <time>2026-04-25T02:16:45.000Z</time>
      </trkpt>
      <trkpt lat="51.061574" lon="1.030823">
        <ele>-2.6</ele>
        <time>2026-04-25T02:17:04.000Z</time>
      </trkpt>
      <trkpt lat="51.061594" lon="1.031139">
        <ele>-2.6</ele>
        <time>2026-04-25T02:17:09.000Z</time>
      </trkpt>
      <trkpt lat="51.06159" lon="1.031773">
        <ele>-2.4</ele>
        <time>2026-04-25T02:17:20.000Z</time>
      </trkpt>
      <trkpt lat="51.061612" lon="1.032076">
        <ele>-2.4</ele>
        <time>2026-04-25T02:17:25.000Z</time>
      </trkpt>
      <trkpt lat="51.061682" lon="1.032599">
        <ele>-2.6</ele>
        <time>2026-04-25T02:17:34.000Z</time>
      </trkpt>
      <trkpt lat="51.061745" lon="1.03288">
        <ele>-2.6</ele>
        <time>2026-04-25T02:17:39.000Z</time>
      </trkpt>
      <trkpt lat="51.061841" lon="1.033139">
        <ele>-2.6</ele>
        <time>2026-04-25T02:17:44.000Z</time>
      </trkpt>
      <trkpt lat="51.061934" lon="1.033278">
        <ele>-2.6</ele>
        <time>2026-04-25T02:17:48.000Z</time>
      </trkpt>
      <trkpt lat="51.062044" lon="1.033386">
        <ele>-2.6</ele>
        <time>2026-04-25T02:17:51.000Z</time>
      </trkpt>
      <trkpt lat="51.062468" lon="1.033694">
        <ele>-2.4</ele>
        <time>2026-04-25T02:18:03.000Z</time>
      </trkpt>
      <trkpt lat="51.062636" lon="1.033885">
        <ele>-2.2</ele>
        <time>2026-04-25T02:18:09.000Z</time>
      </trkpt>
      <trkpt lat="51.063065" lon="1.0347">
        <ele>-1.8</ele>
        <time>2026-04-25T02:18:27.000Z</time>
      </trkpt>
      <trkpt lat="51.063602" lon="1.035462">
        <ele>-1.4</ele>
        <time>2026-04-25T02:18:46.000Z</time>
      </trkpt>
      <trkpt lat="51.063721" lon="1.035738">
        <ele>-1.2</ele>
        <time>2026-04-25T02:18:52.000Z</time>
      </trkpt>
      <trkpt lat="51.063797" lon="1.036028">
        <ele>-1.2</ele>
        <time>2026-04-25T02:18:57.000Z</time>
      </trkpt>
      <trkpt lat="51.063825" lon="1.03622">
        <ele>-1.2</ele>
        <time>2026-04-25T02:19:00.000Z</time>
      </trkpt>
      <trkpt lat="51.063838" lon="1.036535">
        <ele>-0.80000000000001</ele>
        <time>2026-04-25T02:19:05.000Z</time>
      </trkpt>
      <trkpt lat="51.063839" lon="1.037289">
        <ele>-0.60000000000002</ele>
        <time>2026-04-25T02:19:18.000Z</time>
      </trkpt>
      <trkpt lat="51.063877" lon="1.03804">
        <ele>-1.2</ele>
        <time>2026-04-25T02:19:31.000Z</time>
      </trkpt>
      <trkpt lat="51.063868" lon="1.038252">
        <ele>-1.4</ele>
        <time>2026-04-25T02:19:34.000Z</time>
      </trkpt>
      <trkpt lat="51.063847" lon="1.038357">
        <ele>-1.6</ele>
        <time>2026-04-25T02:19:36.000Z</time>
      </trkpt>
      <trkpt lat="51.063776" lon="1.038539">
        <ele>-1.6</ele>
        <time>2026-04-25T02:19:40.000Z</time>
      </trkpt>
      <trkpt lat="51.063424" lon="1.039004">
        <ele>-1.6</ele>
        <time>2026-04-25T02:19:52.000Z</time>
      </trkpt>
      <trkpt lat="51.063307" lon="1.039257">
        <ele>-0.80000000000001</ele>
        <time>2026-04-25T02:19:57.000Z</time>
      </trkpt>
      <trkpt lat="51.063028" lon="1.040353">
        <ele>-0.80000000000001</ele>
        <time>2026-04-25T02:20:17.000Z</time>
      </trkpt>
      <trkpt lat="51.062941" lon="1.040766">
        <ele>-0.80000000000001</ele>
        <time>2026-04-25T02:20:24.000Z</time>
      </trkpt>
      <trkpt lat="51.062921" lon="1.040944">
        <ele>-0.80000000000001</ele>
        <time>2026-04-25T02:20:27.000Z</time>
      </trkpt>
      <trkpt lat="51.062918" lon="1.041271">
        <ele>-0.60000000000002</ele>
        <time>2026-04-25T02:20:33.000Z</time>
      </trkpt>
      <trkpt lat="51.062968" lon="1.041657">
        <ele>-0.80000000000001</ele>
        <time>2026-04-25T02:20:40.000Z</time>
      </trkpt>
      <trkpt lat="51.063252" lon="1.043262">
        <ele>-1.2</ele>
        <time>2026-04-25T02:21:07.000Z</time>
      </trkpt>
      <trkpt lat="51.063331" lon="1.043502">
        <ele>-1.4</ele>
        <time>2026-04-25T02:21:12.000Z</time>
      </trkpt>
      <trkpt lat="51.063428" lon="1.04364">
        <ele>-1.6</ele>
        <time>2026-04-25T02:21:16.000Z</time>
      </trkpt>
      <trkpt lat="51.063483" lon="1.043678">
        <ele>-1.4</ele>
        <time>2026-04-25T02:21:17.000Z</time>
      </trkpt>
      <trkpt lat="51.063542" lon="1.043701">
        <ele>-1.4</ele>
        <time>2026-04-25T02:21:19.000Z</time>
      </trkpt>
      <trkpt lat="51.06365" lon="1.043711">
        <ele>-1.4</ele>
        <time>2026-04-25T02:21:22.000Z</time>
      </trkpt>
      <trkpt lat="51.064076" lon="1.043644">
        <ele>-1.6</ele>
        <time>2026-04-25T02:21:33.000Z</time>
      </trkpt>
      <trkpt lat="51.064259" lon="1.043653">
        <ele>-1.6</ele>
        <time>2026-04-25T02:21:38.000Z</time>
      </trkpt>
      <trkpt lat="51.064431" lon="1.043732">
        <ele>-1.2</ele>
        <time>2026-04-25T02:21:43.000Z</time>
      </trkpt>
      <trkpt lat="51.064542" lon="1.043836">
        <ele>-1</ele>
        <time>2026-04-25T02:21:46.000Z</time>
      </trkpt>
      <trkpt lat="51.064602" lon="1.043916">
        <ele>-1</ele>
        <time>2026-04-25T02:21:48.000Z</time>
      </trkpt>
      <trkpt lat="51.064682" lon="1.044056">
        <ele>-0.60000000000002</ele>
        <time>2026-04-25T02:21:51.000Z</time>
      </trkpt>
      <trkpt lat="51.064876" lon="1.044477">
        <ele>-0.60000000000002</ele>
        <time>2026-04-25T02:22:00.000Z</time>
      </trkpt>
      <trkpt lat="51.065294" lon="1.04564">
        <ele>-1.2</ele>
        <time>2026-04-25T02:22:23.000Z</time>
      </trkpt>
      <trkpt lat="51.065657" lon="1.04653">
        <ele>-1.4</ele>
        <time>2026-04-25T02:22:40.000Z</time>
      </trkpt>
      <trkpt lat="51.065711" lon="1.04673">
        <ele>-1.6</ele>
        <time>2026-04-25T02:22:44.000Z</time>
      </trkpt>
      <trkpt lat="51.065718" lon="1.046907">
        <ele>-1.4</ele>
        <time>2026-04-25T02:22:47.000Z</time>
      </trkpt>
      <trkpt lat="51.065696" lon="1.047128">
        <ele>-1.6</ele>
        <time>2026-04-25T02:22:51.000Z</time>
      </trkpt>
      <trkpt lat="51.065509" lon="1.048402">
        <ele>-1.2</ele>
        <time>2026-04-25T02:23:13.000Z</time>
      </trkpt>
      <trkpt lat="51.065483" lon="1.048671">
        <ele>-1.2</ele>
        <time>2026-04-25T02:23:17.000Z</time>
      </trkpt>
      <trkpt lat="51.065486" lon="1.048858">
        <ele>-1.2</ele>
        <time>2026-04-25T02:23:20.000Z</time>
      </trkpt>
      <trkpt lat="51.065612" lon="1.049446">
        <ele>-1.4</ele>
        <time>2026-04-25T02:23:31.000Z</time>
      </trkpt>
      <trkpt lat="51.065636" lon="1.04963">
        <ele>-1.4</ele>
        <time>2026-04-25T02:23:34.000Z</time>
      </trkpt>
      <trkpt lat="51.065665" lon="1.050313">
        <ele>-1.6</ele>
        <time>2026-04-25T02:23:46.000Z</time>
      </trkpt>
      <trkpt lat="51.06563" lon="1.051214">
        <ele>-1.6</ele>
        <time>2026-04-25T02:24:01.000Z</time>
      </trkpt>
      <trkpt lat="51.06553" lon="1.052097">
        <ele>-1.6</ele>
        <time>2026-04-25T02:24:16.000Z</time>
      </trkpt>
      <trkpt lat="51.065467" lon="1.053141">
        <ele>-2.2</ele>
        <time>2026-04-25T02:24:33.000Z</time>
      </trkpt>
      <trkpt lat="51.065421" lon="1.053566">
        <ele>-2.2</ele>
        <time>2026-04-25T02:24:41.000Z</time>
      </trkpt>
      <trkpt lat="51.065348" lon="1.053882">
        <ele>-2.2</ele>
        <time>2026-04-25T02:24:46.000Z</time>
      </trkpt>
      <trkpt lat="51.065267" lon="1.054066">
        <ele>-2.2</ele>
        <time>2026-04-25T02:24:50.000Z</time>
      </trkpt>
      <trkpt lat="51.064634" lon="1.055083">
        <ele>-0.80000000000001</ele>
        <time>2026-04-25T02:25:14.000Z</time>
      </trkpt>
      <trkpt lat="51.064431" lon="1.055437">
        <ele>-0.60000000000002</ele>
        <time>2026-04-25T02:25:22.000Z</time>
      </trkpt>
      <trkpt lat="51.064239" lon="1.055825">
        <ele>-0.80000000000001</ele>
        <time>2026-04-25T02:25:30.000Z</time>
      </trkpt>
      <trkpt lat="51.063883" lon="1.056669">
        <ele>-2</ele>
        <time>2026-04-25T02:25:47.000Z</time>
      </trkpt>
      <trkpt lat="51.063819" lon="1.056775">
        <ele>-2</ele>
        <time>2026-04-25T02:25:50.000Z</time>
      </trkpt>
      <trkpt lat="51.063741" lon="1.056846">
        <ele>-2.2</ele>
        <time>2026-04-25T02:25:52.000Z</time>
      </trkpt>
      <trkpt lat="51.063738" lon="1.057033">
        <ele>-2.4</ele>
        <time>2026-04-25T02:25:55.000Z</time>
      </trkpt>
      <trkpt lat="51.063792" lon="1.057416">
        <ele>-2.2</ele>
        <time>2026-04-25T02:26:02.000Z</time>
      </trkpt>
      <trkpt lat="51.063916" lon="1.058028">
        <ele>-2.2</ele>
        <time>2026-04-25T02:26:13.000Z</time>
      </trkpt>
      <trkpt lat="51.064045" lon="1.058487">
        <ele>-2.6</ele>
        <time>2026-04-25T02:26:21.000Z</time>
      </trkpt>
      <trkpt lat="51.064246" lon="1.05901">
        <ele>-2.6</ele>
        <time>2026-04-25T02:26:31.000Z</time>
      </trkpt>
      <trkpt lat="51.064491" lon="1.059511">
        <ele>-2.4</ele>
        <time>2026-04-25T02:26:42.000Z</time>
      </trkpt>
      <trkpt lat="51.065605" lon="1.061637">
        <ele>-0.19999999999999</ele>
        <time>2026-04-25T02:27:29.000Z</time>
      </trkpt>
      <trkpt lat="51.065812" lon="1.062092">
        <ele>-0.19999999999999</ele>
        <time>2026-04-25T02:27:38.000Z</time>
      </trkpt>
      <trkpt lat="51.066075" lon="1.062855">
        <ele>-0.19999999999999</ele>
        <time>2026-04-25T02:27:53.000Z</time>
      </trkpt>
      <trkpt lat="51.066353" lon="1.064124">
        <ele>-1.2</ele>
        <time>2026-04-25T02:28:15.000Z</time>
      </trkpt>
      <trkpt lat="51.066478" lon="1.064576">
        <ele>-1.8</ele>
        <time>2026-04-25T02:28:23.000Z</time>
      </trkpt>
      <trkpt lat="51.066586" lon="1.064893">
        <ele>-2.2</ele>
        <time>2026-04-25T02:28:29.000Z</time>
      </trkpt>
      <trkpt lat="51.066672" lon="1.065063">
        <ele>-2.4</ele>
        <time>2026-04-25T02:28:33.000Z</time>
      </trkpt>
      <trkpt lat="51.066763" lon="1.065212">
        <ele>-2.4</ele>
        <time>2026-04-25T02:28:37.000Z</time>
      </trkpt>
      <trkpt lat="51.067058" lon="1.065574">
        <ele>-2.2</ele>
        <time>2026-04-25T02:28:47.000Z</time>
      </trkpt>
      <trkpt lat="51.067593" lon="1.066209">
        <ele>-0.80000000000001</ele>
        <time>2026-04-25T02:29:04.000Z</time>
      </trkpt>
      <trkpt lat="51.067936" lon="1.06658">
        <ele>-0.39999999999998</ele>
        <time>2026-04-25T02:29:15.000Z</time>
      </trkpt>
      <trkpt lat="51.068263" lon="1.066968">
        <ele>-0.19999999999999</ele>
        <time>2026-04-25T02:29:26.000Z</time>
      </trkpt>
      <trkpt lat="51.068766" lon="1.067654">
        <ele>-0.19999999999999</ele>
        <time>2026-04-25T02:29:44.000Z</time>
      </trkpt>
      <trkpt lat="51.069586" lon="1.068627">
        <ele>0</ele>
        <time>2026-04-25T02:30:11.000Z</time>
      </trkpt>
      <trkpt lat="51.069951" lon="1.069107">
        <ele>-0.19999999999999</ele>
        <time>2026-04-25T02:30:24.000Z</time>
      </trkpt>
      <trkpt lat="51.070131" lon="1.06943">
        <ele>-0.19999999999999</ele>
        <time>2026-04-25T02:30:31.000Z</time>
      </trkpt>
      <trkpt lat="51.070237" lon="1.069717">
        <ele>-0.39999999999998</ele>
        <time>2026-04-25T02:30:37.000Z</time>
      </trkpt>
      <trkpt lat="51.070487" lon="1.070755">
        <ele>-1.4</ele>
        <time>2026-04-25T02:30:55.000Z</time>
      </trkpt>
      <trkpt lat="51.070706" lon="1.072058">
        <ele>-2</ele>
        <time>2026-04-25T02:31:18.000Z</time>
      </trkpt>
      <trkpt lat="51.070827" lon="1.072665">
        <ele>-1.8</ele>
        <time>2026-04-25T02:31:29.000Z</time>
      </trkpt>
      <trkpt lat="51.070856" lon="1.072749">
        <ele>-1.8</ele>
        <time>2026-04-25T02:31:30.000Z</time>
      </trkpt>
      <trkpt lat="51.070897" lon="1.072793">
        <ele>-1.8</ele>
        <time>2026-04-25T02:31:32.000Z</time>
      </trkpt>
      <trkpt lat="51.070971" lon="1.072812">
        <ele>-2</ele>
        <time>2026-04-25T02:31:34.000Z</time>
      </trkpt>
      <trkpt lat="51.071375" lon="1.072814">
        <ele>-2</ele>
        <time>2026-04-25T02:31:44.000Z</time>
      </trkpt>
      <trkpt lat="51.071615" lon="1.072845">
        <ele>-2</ele>
        <time>2026-04-25T02:31:51.000Z</time>
      </trkpt>
      <trkpt lat="51.071771" lon="1.072836">
        <ele>-1.8</ele>
        <time>2026-04-25T02:31:55.000Z</time>
      </trkpt>
      <trkpt lat="51.071899" lon="1.072795">
        <ele>-2.6</ele>
        <time>2026-04-25T02:31:59.000Z</time>
      </trkpt>
      <trkpt lat="51.072041" lon="1.072782">
        <ele>-3</ele>
        <time>2026-04-25T02:32:02.000Z</time>
      </trkpt>
      <trkpt lat="51.072154" lon="1.07286">
        <ele>-3</ele>
        <time>2026-04-25T02:32:06.000Z</time>
      </trkpt>
      <trkpt lat="51.0722" lon="1.072977">
        <ele>-3</ele>
        <time>2026-04-25T02:32:08.000Z</time>
      </trkpt>
      <trkpt lat="51.072206" lon="1.073137">
        <ele>-3</ele>
        <time>2026-04-25T02:32:11.000Z</time>
      </trkpt>
      <trkpt lat="51.072191" lon="1.073313">
        <ele>-3</ele>
        <time>2026-04-25T02:32:14.000Z</time>
      </trkpt>
      <trkpt lat="51.072" lon="1.074267">
        <ele>-1.4</ele>
        <time>2026-04-25T02:32:30.000Z</time>
      </trkpt>
      <trkpt lat="51.07188" lon="1.07476">
        <ele>-1.2</ele>
        <time>2026-04-25T02:32:39.000Z</time>
      </trkpt>
      <trkpt lat="51.07186" lon="1.074917">
        <ele>-1.2</ele>
        <time>2026-04-25T02:32:42.000Z</time>
      </trkpt>
      <trkpt lat="51.071902" lon="1.075012">
        <ele>-1.2</ele>
        <time>2026-04-25T02:32:44.000Z</time>
      </trkpt>
      <trkpt lat="51.071939" lon="1.075028">
        <ele>-1</ele>
        <time>2026-04-25T02:32:45.000Z</time>
      </trkpt>
      <trkpt lat="51.072008" lon="1.075015">
        <ele>-1</ele>
        <time>2026-04-25T02:32:47.000Z</time>
      </trkpt>
      <trkpt lat="51.07206" lon="1.074951">
        <ele>-0.80000000000001</ele>
        <time>2026-04-25T02:32:49.000Z</time>
      </trkpt>
      <trkpt lat="51.072114" lon="1.074819">
        <ele>-0.80000000000001</ele>
        <time>2026-04-25T02:32:51.000Z</time>
      </trkpt>
      <trkpt lat="51.072168" lon="1.074775">
        <ele>-0.60000000000002</ele>
        <time>2026-04-25T02:32:53.000Z</time>
      </trkpt>
      <trkpt lat="51.072237" lon="1.074799">
        <ele>-0.39999999999998</ele>
        <time>2026-04-25T02:32:55.000Z</time>
      </trkpt>
      <trkpt lat="51.072262" lon="1.074901">
        <ele>0.19999999999999</ele>
        <time>2026-04-25T02:32:56.000Z</time>
      </trkpt>
      <trkpt lat="51.072188" lon="1.075161">
        <ele>0.39999999999998</ele>
        <time>2026-04-25T02:33:01.000Z</time>
      </trkpt>
      <trkpt lat="51.07212" lon="1.075305">
        <ele>0.60000000000002</ele>
        <time>2026-04-25T02:33:04.000Z</time>
      </trkpt>
      <trkpt lat="51.072035" lon="1.075664">
        <ele>1</ele>
        <time>2026-04-25T02:33:11.000Z</time>
      </trkpt>
      <trkpt lat="51.071996" lon="1.075764">
        <ele>1.2</ele>
        <time>2026-04-25T02:33:13.000Z</time>
      </trkpt>
      <trkpt lat="51.071954" lon="1.075791">
        <ele>1.2</ele>
        <time>2026-04-25T02:33:14.000Z</time>
      </trkpt>
      <trkpt lat="51.071886" lon="1.075786">
        <ele>1.4</ele>
        <time>2026-04-25T02:33:16.000Z</time>
      </trkpt>
      <trkpt lat="51.071802" lon="1.075809">
        <ele>3.2</ele>
        <time>2026-04-25T02:33:18.000Z</time>
      </trkpt>
      <trkpt lat="51.07182" lon="1.075808">
        <ele>2.6</ele>
        <time>2026-04-25T02:33:18.000Z</time>
      </trkpt>
      <trkpt lat="51.071963" lon="1.075371">
        <ele>0.60000000000002</ele>
        <time>2026-04-25T02:33:27.000Z</time>
      </trkpt>
      <trkpt lat="51.072013" lon="1.075321">
        <ele>0.39999999999998</ele>
        <time>2026-04-25T02:33:28.000Z</time>
      </trkpt>
      <trkpt lat="51.0721" lon="1.075313">
        <ele>0.19999999999999</ele>
        <time>2026-04-25T02:33:31.000Z</time>
      </trkpt>
      <trkpt lat="51.072123" lon="1.07529">
        <ele>0.19999999999999</ele>
        <time>2026-04-25T02:33:31.000Z</time>
      </trkpt>
      <trkpt lat="51.072238" lon="1.074876">
        <ele>0.19999999999999</ele>
        <time>2026-04-25T02:33:39.000Z</time>
      </trkpt>
      <trkpt lat="51.072204" lon="1.074865">
        <ele>0.19999999999999</ele>
        <time>2026-04-25T02:33:40.000Z</time>
      </trkpt>
      <trkpt lat="51.072146" lon="1.07489">
        <ele>0.19999999999999</ele>
        <time>2026-04-25T02:33:42.000Z</time>
      </trkpt>
      <trkpt lat="51.072075" lon="1.07504">
        <ele>-0.39999999999998</ele>
        <time>2026-04-25T02:33:45.000Z</time>
      </trkpt>
      <trkpt lat="51.072018" lon="1.075105">
        <ele>-1.6</ele>
        <time>2026-04-25T02:33:47.000Z</time>
      </trkpt>
      <trkpt lat="51.071969" lon="1.075102">
        <ele>-2</ele>
        <time>2026-04-25T02:33:48.000Z</time>
      </trkpt>
      <trkpt lat="51.071889" lon="1.075046">
        <ele>-1.8</ele>
        <time>2026-04-25T02:33:50.000Z</time>
      </trkpt>
      <trkpt lat="51.071843" lon="1.075068">
        <ele>-1.8</ele>
        <time>2026-04-25T02:33:51.000Z</time>
      </trkpt>
      <trkpt lat="51.071771" lon="1.07532">
        <ele>-2.2</ele>
        <time>2026-04-25T02:33:56.000Z</time>
      </trkpt>
      <trkpt lat="51.071689" lon="1.075828">
        <ele>-1.8</ele>
        <time>2026-04-25T02:34:05.000Z</time>
      </trkpt>
      <trkpt lat="51.071647" lon="1.07599">
        <ele>-1.6</ele>
        <time>2026-04-25T02:34:08.000Z</time>
      </trkpt>
      <trkpt lat="51.071644" lon="1.076093">
        <ele>-1.8</ele>
        <time>2026-04-25T02:34:10.000Z</time>
      </trkpt>
      <trkpt lat="51.071541" lon="1.076589">
        <ele>-2</ele>
        <time>2026-04-25T02:34:18.000Z</time>
      </trkpt>
      <trkpt lat="51.07136" lon="1.077945">
        <ele>-2</ele>
        <time>2026-04-25T02:34:42.000Z</time>
      </trkpt>
      <trkpt lat="51.07127" lon="1.07845">
        <ele>-2</ele>
        <time>2026-04-25T02:34:50.000Z</time>
      </trkpt>
      <trkpt lat="51.071002" lon="1.080264">
        <ele>-2.8</ele>
        <time>2026-04-25T02:35:22.000Z</time>
      </trkpt>
      <trkpt lat="51.070935" lon="1.080435">
        <ele>-2.8</ele>
        <time>2026-04-25T02:35:25.000Z</time>
      </trkpt>
      <trkpt lat="51.070733" lon="1.080622">
        <ele>-2.8</ele>
        <time>2026-04-25T02:35:31.000Z</time>
      </trkpt>
      <trkpt lat="51.070649" lon="1.080726">
        <ele>-2.8</ele>
        <time>2026-04-25T02:35:34.000Z</time>
      </trkpt>
      <trkpt lat="51.070577" lon="1.080876">
        <ele>-2.6</ele>
        <time>2026-04-25T02:35:37.000Z</time>
      </trkpt>
      <trkpt lat="51.07053" lon="1.081045">
        <ele>-2.6</ele>
        <time>2026-04-25T02:35:40.000Z</time>
      </trkpt>
      <trkpt lat="51.070494" lon="1.081317">
        <ele>-2.6</ele>
        <time>2026-04-25T02:35:45.000Z</time>
      </trkpt>
      <trkpt lat="51.070471" lon="1.081769">
        <ele>-2.4</ele>
        <time>2026-04-25T02:35:53.000Z</time>
      </trkpt>
      <trkpt lat="51.070457" lon="1.082541">
        <ele>-1.8</ele>
        <time>2026-04-25T02:36:06.000Z</time>
      </trkpt>
      <trkpt lat="51.070436" lon="1.082566">
        <ele>-1.8</ele>
        <time>2026-04-25T02:36:06.000Z</time>
      </trkpt>
      <trkpt lat="51.070375" lon="1.082591">
        <ele>-1.8</ele>
        <time>2026-04-25T02:36:08.000Z</time>
      </trkpt>
      <trkpt lat="51.070061" lon="1.082573">
        <ele>-2</ele>
        <time>2026-04-25T02:36:16.000Z</time>
      </trkpt>
      <trkpt lat="51.069828" lon="1.082579">
        <ele>-2.2</ele>
        <time>2026-04-25T02:36:23.000Z</time>
      </trkpt>
      <trkpt lat="51.069559" lon="1.082555">
        <ele>-2.2</ele>
        <time>2026-04-25T02:36:30.000Z</time>
      </trkpt>
      <trkpt lat="51.069394" lon="1.082579">
        <ele>-2.2</ele>
        <time>2026-04-25T02:36:34.000Z</time>
      </trkpt>
      <trkpt lat="51.068367" lon="1.083148">
        <ele>-1.4</ele>
        <time>2026-04-25T02:37:03.000Z</time>
      </trkpt>
      <trkpt lat="51.068047" lon="1.083352">
        <ele>-1.4</ele>
        <time>2026-04-25T02:37:12.000Z</time>
      </trkpt>
      <trkpt lat="51.067965" lon="1.08343">
        <ele>-1.2</ele>
        <time>2026-04-25T02:37:15.000Z</time>
      </trkpt>
      <trkpt lat="51.067923" lon="1.083448">
        <ele>-1.4</ele>
        <time>2026-04-25T02:37:16.000Z</time>
      </trkpt>
      <trkpt lat="51.067893" lon="1.083416">
        <ele>-1.6</ele>
        <time>2026-04-25T02:37:17.000Z</time>
      </trkpt>
      <trkpt lat="51.067736" lon="1.082765">
        <ele>-1.6</ele>
        <time>2026-04-25T02:37:29.000Z</time>
      </trkpt>
      <trkpt lat="51.067741" lon="1.082721">
        <ele>-1.6</ele>
        <time>2026-04-25T02:37:30.000Z</time>
      </trkpt>
      <trkpt lat="51.067755" lon="1.082713">
        <ele>-1.6</ele>
        <time>2026-04-25T02:37:30.000Z</time>
      </trkpt>
      <trkpt lat="51.067804" lon="1.082991">
        <ele>-1.8</ele>
        <time>2026-04-25T02:37:35.000Z</time>
      </trkpt>
      <trkpt lat="51.067921" lon="1.083373">
        <ele>-1.8</ele>
        <time>2026-04-25T02:37:42.000Z</time>
      </trkpt>
      <trkpt lat="51.067914" lon="1.083414">
        <ele>-1.8</ele>
        <time>2026-04-25T02:37:43.000Z</time>
      </trkpt>
      <trkpt lat="51.067685" lon="1.08363">
        <ele>-2.6</ele>
        <time>2026-04-25T02:37:50.000Z</time>
      </trkpt>
      <trkpt lat="51.066929" lon="1.084205">
        <ele>-1.4</ele>
        <time>2026-04-25T02:38:12.000Z</time>
      </trkpt>
      <trkpt lat="51.066544" lon="1.084527">
        <ele>-1.6</ele>
        <time>2026-04-25T02:38:24.000Z</time>
      </trkpt>
      <trkpt lat="51.066453" lon="1.084619">
        <ele>-1.6</ele>
        <time>2026-04-25T02:38:27.000Z</time>
      </trkpt>
      <trkpt lat="51.066416" lon="1.084679">
        <ele>-1.6</ele>
        <time>2026-04-25T02:38:28.000Z</time>
      </trkpt>
      <trkpt lat="51.066403" lon="1.084764">
        <ele>-1.6</ele>
        <time>2026-04-25T02:38:29.000Z</time>
      </trkpt>
      <trkpt lat="51.066412" lon="1.084855">
        <ele>-1.6</ele>
        <time>2026-04-25T02:38:31.000Z</time>
      </trkpt>
      <trkpt lat="51.066765" lon="1.086359">
        <ele>-1.6</ele>
        <time>2026-04-25T02:38:58.000Z</time>
      </trkpt>
      <trkpt lat="51.066935" lon="1.087185">
        <ele>-1.8</ele>
        <time>2026-04-25T02:39:13.000Z</time>
      </trkpt>
      <trkpt lat="51.06745" lon="1.089816">
        <ele>-2.4</ele>
        <time>2026-04-25T02:39:59.000Z</time>
      </trkpt>
      <trkpt lat="51.067638" lon="1.090927">
        <ele>-2.2</ele>
        <time>2026-04-25T02:40:18.000Z</time>
      </trkpt>
      <trkpt lat="51.067874" lon="1.092097">
        <ele>-1.6</ele>
        <time>2026-04-25T02:40:39.000Z</time>
      </trkpt>
      <trkpt lat="51.068129" lon="1.09349">
        <ele>0</ele>
        <time>2026-04-25T02:41:03.000Z</time>
      </trkpt>
      <trkpt lat="51.068126" lon="1.093564">
        <ele>0.19999999999999</ele>
        <time>2026-04-25T02:41:04.000Z</time>
      </trkpt>
      <trkpt lat="51.068003" lon="1.093667">
        <ele>0.19999999999999</ele>
        <time>2026-04-25T02:41:08.000Z</time>
      </trkpt>
      <trkpt lat="51.067894" lon="1.093927">
        <ele>-0.19999999999999</ele>
        <time>2026-04-25T02:41:13.000Z</time>
      </trkpt>
      <trkpt lat="51.067808" lon="1.09429">
        <ele>-0.39999999999998</ele>
        <time>2026-04-25T02:41:20.000Z</time>
      </trkpt>
      <trkpt lat="51.067791" lon="1.094464">
        <ele>-0.19999999999999</ele>
        <time>2026-04-25T02:41:23.000Z</time>
      </trkpt>
      <trkpt lat="51.067795" lon="1.094671">
        <ele>-0.19999999999999</ele>
        <time>2026-04-25T02:41:26.000Z</time>
      </trkpt>
      <trkpt lat="51.068109" lon="1.096642">
        <ele>1</ele>
        <time>2026-04-25T02:42:00.000Z</time>
      </trkpt>
      <trkpt lat="51.068955" lon="1.102342">
        <ele>1.4</ele>
        <time>2026-04-25T02:43:38.000Z</time>
      </trkpt>
      <trkpt lat="51.069385" lon="1.105421">
        <ele>1.8</ele>
        <time>2026-04-25T02:44:31.000Z</time>
      </trkpt>
      <trkpt lat="51.069895" lon="1.109316">
        <ele>1</ele>
        <time>2026-04-25T02:45:38.000Z</time>
      </trkpt>
      <trkpt lat="51.070296" lon="1.112747">
        <ele>0.80000000000001</ele>
        <time>2026-04-25T02:46:37.000Z</time>
      </trkpt>
      <trkpt lat="51.070675" lon="1.116206">
        <ele>1.2</ele>
        <time>2026-04-25T02:47:36.000Z</time>
      </trkpt>
      <trkpt lat="51.071369" lon="1.123228">
        <ele>0.60000000000002</ele>
        <time>2026-04-25T02:49:35.000Z</time>
      </trkpt>
      <trkpt lat="51.071402" lon="1.123369">
        <ele>0.60000000000002</ele>
        <time>2026-04-25T02:49:37.000Z</time>
      </trkpt>
      <trkpt lat="51.071484" lon="1.123428">
        <ele>0.60000000000002</ele>
        <time>2026-04-25T02:49:40.000Z</time>
      </trkpt>
      <trkpt lat="51.071795" lon="1.123355">
        <ele>0.60000000000002</ele>
        <time>2026-04-25T02:49:48.000Z</time>
      </trkpt>
      <trkpt lat="51.071921" lon="1.123294">
        <ele>0.60000000000002</ele>
        <time>2026-04-25T02:49:52.000Z</time>
      </trkpt>
      <trkpt lat="51.071998" lon="1.123326">
        <ele>0.60000000000002</ele>
        <time>2026-04-25T02:49:54.000Z</time>
      </trkpt>
      <trkpt lat="51.072019" lon="1.123397">
        <ele>0.60000000000002</ele>
        <time>2026-04-25T02:49:55.000Z</time>
      </trkpt>
      <trkpt lat="51.071961" lon="1.123626">
        <ele>0.39999999999998</ele>
        <time>2026-04-25T02:49:59.000Z</time>
      </trkpt>
      <trkpt lat="51.071848" lon="1.124422">
        <ele>-1</ele>
        <time>2026-04-25T02:50:13.000Z</time>
      </trkpt>
      <trkpt lat="51.071692" lon="1.125364">
        <ele>-1</ele>
        <time>2026-04-25T02:50:29.000Z</time>
      </trkpt>
      <trkpt lat="51.071659" lon="1.125727">
        <ele>-1</ele>
        <time>2026-04-25T02:50:35.000Z</time>
      </trkpt>
      <trkpt lat="51.071649" lon="1.126281">
        <ele>-0.80000000000001</ele>
        <time>2026-04-25T02:50:45.000Z</time>
      </trkpt>
      <trkpt lat="51.071669" lon="1.126935">
        <ele>-0.80000000000001</ele>
        <time>2026-04-25T02:50:56.000Z</time>
      </trkpt>
      <trkpt lat="51.071948" lon="1.130024">
        <ele>-1</ele>
        <time>2026-04-25T02:51:48.000Z</time>
      </trkpt>
      <trkpt lat="51.07203" lon="1.131149">
        <ele>-1.4</ele>
        <time>2026-04-25T02:52:07.000Z</time>
      </trkpt>
      <trkpt lat="51.072097" lon="1.132419">
        <ele>-1.2</ele>
        <time>2026-04-25T02:52:28.000Z</time>
      </trkpt>
      <trkpt lat="51.072369" lon="1.135009">
        <ele>-1</ele>
        <time>2026-04-25T02:53:12.000Z</time>
      </trkpt>
      <trkpt lat="51.072546" lon="1.137673">
        <ele>-1.8</ele>
        <time>2026-04-25T02:53:57.000Z</time>
      </trkpt>
      <trkpt lat="51.072594" lon="1.138152">
        <ele>-2</ele>
        <time>2026-04-25T02:54:06.000Z</time>
      </trkpt>
      <trkpt lat="51.072807" lon="1.139468">
        <ele>-1.4</ele>
        <time>2026-04-25T02:54:28.000Z</time>
      </trkpt>
      <trkpt lat="51.07313" lon="1.141099">
        <ele>-0.19999999999999</ele>
        <time>2026-04-25T02:54:57.000Z</time>
      </trkpt>
      <trkpt lat="51.073216" lon="1.141778">
        <ele>0</ele>
        <time>2026-04-25T02:55:09.000Z</time>
      </trkpt>
      <trkpt lat="51.073282" lon="1.142468">
        <ele>0.60000000000002</ele>
        <time>2026-04-25T02:55:20.000Z</time>
      </trkpt>
      <trkpt lat="51.073399" lon="1.143347">
        <ele>0.80000000000001</ele>
        <time>2026-04-25T02:55:35.000Z</time>
      </trkpt>
      <trkpt lat="51.073639" lon="1.144503">
        <ele>1.6</ele>
        <time>2026-04-25T02:55:56.000Z</time>
      </trkpt>
      <trkpt lat="51.073723" lon="1.145027">
        <ele>1.6</ele>
        <time>2026-04-25T02:56:05.000Z</time>
      </trkpt>
      <trkpt lat="51.073756" lon="1.145339">
        <ele>1.6</ele>
        <time>2026-04-25T02:56:10.000Z</time>
      </trkpt>
      <trkpt lat="51.073795" lon="1.146199">
        <ele>1</ele>
        <time>2026-04-25T02:56:25.000Z</time>
      </trkpt>
      <trkpt lat="51.073876" lon="1.147037">
        <ele>0.80000000000001</ele>
        <time>2026-04-25T02:56:39.000Z</time>
      </trkpt>
      <trkpt lat="51.073986" lon="1.147776">
        <ele>1.2</ele>
        <time>2026-04-25T02:56:52.000Z</time>
      </trkpt>
      <trkpt lat="51.07404" lon="1.148389">
        <ele>1.4</ele>
        <time>2026-04-25T02:57:02.000Z</time>
      </trkpt>
      <trkpt lat="51.074102" lon="1.148833">
        <ele>1.8</ele>
        <time>2026-04-25T02:57:10.000Z</time>
      </trkpt>
      <trkpt lat="51.074085" lon="1.148946">
        <ele>2</ele>
        <time>2026-04-25T02:57:12.000Z</time>
      </trkpt>
      <trkpt lat="51.074054" lon="1.148977">
        <ele>2</ele>
        <time>2026-04-25T02:57:13.000Z</time>
      </trkpt>
      <trkpt lat="51.073876" lon="1.149043">
        <ele>2</ele>
        <time>2026-04-25T02:57:17.000Z</time>
      </trkpt>
      <trkpt lat="51.073793" lon="1.149096">
        <ele>2</ele>
        <time>2026-04-25T02:57:20.000Z</time>
      </trkpt>
      <trkpt lat="51.073762" lon="1.149219">
        <ele>1.8</ele>
        <time>2026-04-25T02:57:22.000Z</time>
      </trkpt>
      <trkpt lat="51.07387" lon="1.150217">
        <ele>1.6</ele>
        <time>2026-04-25T02:57:39.000Z</time>
      </trkpt>
      <trkpt lat="51.073994" lon="1.150932">
        <ele>1.6</ele>
        <time>2026-04-25T02:57:51.000Z</time>
      </trkpt>
      <trkpt lat="51.074048" lon="1.151384">
        <ele>1.8</ele>
        <time>2026-04-25T02:57:59.000Z</time>
      </trkpt>
      <trkpt lat="51.074038" lon="1.152929">
        <ele>0.19999999999999</ele>
        <time>2026-04-25T02:58:25.000Z</time>
      </trkpt>
      <trkpt lat="51.073964" lon="1.154263">
        <ele>6.2</ele>
        <time>2026-04-25T02:58:48.000Z</time>
      </trkpt>
      <trkpt lat="51.073962" lon="1.154548">
        <ele>7.4</ele>
        <time>2026-04-25T02:58:52.000Z</time>
      </trkpt>
      <trkpt lat="51.074039" lon="1.155392">
        <ele>10.8</ele>
        <time>2026-04-25T02:59:07.000Z</time>
      </trkpt>
      <trkpt lat="51.074079" lon="1.156145">
        <ele>13.8</ele>
        <time>2026-04-25T02:59:19.000Z</time>
      </trkpt>
      <trkpt lat="51.074025" lon="1.157402">
        <ele>14.2</ele>
        <time>2026-04-25T02:59:40.000Z</time>
      </trkpt>
      <trkpt lat="51.074013" lon="1.158102">
        <ele>14.8</ele>
        <time>2026-04-25T02:59:52.000Z</time>
      </trkpt>
      <trkpt lat="51.073958" lon="1.158871">
        <ele>15.6</ele>
        <time>2026-04-25T03:00:05.000Z</time>
      </trkpt>
      <trkpt lat="51.073719" lon="1.161204">
        <ele>14.6</ele>
        <time>2026-04-25T03:00:45.000Z</time>
      </trkpt>
      <trkpt lat="51.073631" lon="1.161719">
        <ele>13.8</ele>
        <time>2026-04-25T03:00:54.000Z</time>
      </trkpt>
      <trkpt lat="51.073639" lon="1.16183">
        <ele>13.4</ele>
        <time>2026-04-25T03:00:56.000Z</time>
      </trkpt>
      <trkpt lat="51.073609" lon="1.162425">
        <ele>12.2</ele>
        <time>2026-04-25T03:01:06.000Z</time>
      </trkpt>
      <trkpt lat="51.073614" lon="1.162902">
        <ele>11.6</ele>
        <time>2026-04-25T03:01:14.000Z</time>
      </trkpt>
      <trkpt lat="51.073703" lon="1.164158">
        <ele>10.6</ele>
        <time>2026-04-25T03:01:35.000Z</time>
      </trkpt>
      <trkpt lat="51.073871" lon="1.165155">
        <ele>11.4</ele>
        <time>2026-04-25T03:01:52.000Z</time>
      </trkpt>
      <trkpt lat="51.073875" lon="1.165523">
        <ele>11.2</ele>
        <time>2026-04-25T03:01:58.000Z</time>
      </trkpt>
      <trkpt lat="51.073918" lon="1.166077">
        <ele>11</ele>
        <time>2026-04-25T03:02:08.000Z</time>
      </trkpt>
      <trkpt lat="51.073923" lon="1.166675">
        <ele>11.2</ele>
        <time>2026-04-25T03:02:18.000Z</time>
      </trkpt>
      <trkpt lat="51.073906" lon="1.167017">
        <ele>11.8</ele>
        <time>2026-04-25T03:02:23.000Z</time>
      </trkpt>
      <trkpt lat="51.073927" lon="1.167743">
        <ele>11.8</ele>
        <time>2026-04-25T03:02:36.000Z</time>
      </trkpt>
      <trkpt lat="51.073973" lon="1.167997">
        <ele>11.6</ele>
        <time>2026-04-25T03:02:40.000Z</time>
      </trkpt>
      <trkpt lat="51.074014" lon="1.168135">
        <ele>11.4</ele>
        <time>2026-04-25T03:02:43.000Z</time>
      </trkpt>
      <trkpt lat="51.074111" lon="1.168325">
        <ele>11.6</ele>
        <time>2026-04-25T03:02:47.000Z</time>
      </trkpt>
      <trkpt lat="51.074163" lon="1.168468">
        <ele>12.2</ele>
        <time>2026-04-25T03:02:50.000Z</time>
      </trkpt>
      <trkpt lat="51.074234" lon="1.168575">
        <ele>12.6</ele>
        <time>2026-04-25T03:02:52.000Z</time>
      </trkpt>
      <trkpt lat="51.074287" lon="1.16878">
        <ele>13</ele>
        <time>2026-04-25T03:02:56.000Z</time>
      </trkpt>
      <trkpt lat="51.074383" lon="1.169008">
        <ele>12.4</ele>
        <time>2026-04-25T03:03:00.000Z</time>
      </trkpt>
      <trkpt lat="51.07449" lon="1.169361">
        <ele>11.6</ele>
        <time>2026-04-25T03:03:07.000Z</time>
      </trkpt>
      <trkpt lat="51.07459" lon="1.170015">
        <ele>10.2</ele>
        <time>2026-04-25T03:03:18.000Z</time>
      </trkpt>
      <trkpt lat="51.074609" lon="1.170406">
        <ele>10.2</ele>
        <time>2026-04-25T03:03:25.000Z</time>
      </trkpt>
      <trkpt lat="51.074674" lon="1.170899">
        <ele>9.4</ele>
        <time>2026-04-25T03:03:33.000Z</time>
      </trkpt>
      <trkpt lat="51.074688" lon="1.171155">
        <ele>8.2</ele>
        <time>2026-04-25T03:03:38.000Z</time>
      </trkpt>
      <trkpt lat="51.074827" lon="1.171704">
        <ele>7</ele>
        <time>2026-04-25T03:03:48.000Z</time>
      </trkpt>
      <trkpt lat="51.074939" lon="1.172264">
        <ele>6.8</ele>
        <time>2026-04-25T03:03:57.000Z</time>
      </trkpt>
      <trkpt lat="51.075086" lon="1.172711">
        <ele>7</ele>
        <time>2026-04-25T03:04:06.000Z</time>
      </trkpt>
      <trkpt lat="51.075206" lon="1.173164">
        <ele>6.8</ele>
        <time>2026-04-25T03:04:14.000Z</time>
      </trkpt>
      <trkpt lat="51.075286" lon="1.173341">
        <ele>6.8</ele>
        <time>2026-04-25T03:04:18.000Z</time>
      </trkpt>
      <trkpt lat="51.07535" lon="1.173679">
        <ele>6.8</ele>
        <time>2026-04-25T03:04:24.000Z</time>
      </trkpt>
      <trkpt lat="51.07546" lon="1.174034">
        <ele>6.8</ele>
        <time>2026-04-25T03:04:30.000Z</time>
      </trkpt>
      <trkpt lat="51.075479" lon="1.174074">
        <ele>6.8</ele>
        <time>2026-04-25T03:04:31.000Z</time>
      </trkpt>
      <trkpt lat="51.075523" lon="1.174104">
        <ele>6.8</ele>
        <time>2026-04-25T03:04:33.000Z</time>
      </trkpt>
      <trkpt lat="51.075669" lon="1.174267">
        <ele>6.4</ele>
        <time>2026-04-25T03:04:37.000Z</time>
      </trkpt>
      <trkpt lat="51.075751" lon="1.174426">
        <ele>6.4</ele>
        <time>2026-04-25T03:04:41.000Z</time>
      </trkpt>
      <trkpt lat="51.075908" lon="1.175015">
        <ele>5.8</ele>
        <time>2026-04-25T03:04:51.000Z</time>
      </trkpt>
      <trkpt lat="51.075985" lon="1.17563">
        <ele>4.8</ele>
        <time>2026-04-25T03:05:02.000Z</time>
      </trkpt>
      <trkpt lat="51.076026" lon="1.175809">
        <ele>4.8</ele>
        <time>2026-04-25T03:05:05.000Z</time>
      </trkpt>
      <trkpt lat="51.076167" lon="1.176225">
        <ele>4.4</ele>
        <time>2026-04-25T03:05:13.000Z</time>
      </trkpt>
      <trkpt lat="51.076353" lon="1.176929">
        <ele>4</ele>
        <time>2026-04-25T03:05:26.000Z</time>
      </trkpt>
      <trkpt lat="51.076576" lon="1.177674">
        <ele>3.2</ele>
        <time>2026-04-25T03:05:40.000Z</time>
      </trkpt>
      <trkpt lat="51.076567" lon="1.177726">
        <ele>2.8</ele>
        <time>2026-04-25T03:05:41.000Z</time>
      </trkpt>
      <trkpt lat="51.076511" lon="1.177802">
        <ele>2.6</ele>
        <time>2026-04-25T03:05:43.000Z</time>
      </trkpt>
      <trkpt lat="51.076503" lon="1.177878">
        <ele>2.4</ele>
        <time>2026-04-25T03:05:44.000Z</time>
      </trkpt>
      <trkpt lat="51.076556" lon="1.178082">
        <ele>1.8</ele>
        <time>2026-04-25T03:05:48.000Z</time>
      </trkpt>
      <trkpt lat="51.076583" lon="1.178114">
        <ele>1.8</ele>
        <time>2026-04-25T03:05:49.000Z</time>
      </trkpt>
      <trkpt lat="51.076655" lon="1.178134">
        <ele>1.8</ele>
        <time>2026-04-25T03:05:50.000Z</time>
      </trkpt>
      <trkpt lat="51.076687" lon="1.178164">
        <ele>1.6</ele>
        <time>2026-04-25T03:05:51.000Z</time>
      </trkpt>
      <trkpt lat="51.076791" lon="1.178499">
        <ele>1.4</ele>
        <time>2026-04-25T03:05:58.000Z</time>
      </trkpt>
      <trkpt lat="51.076812" lon="1.178634">
        <ele>1.2</ele>
        <time>2026-04-25T03:06:00.000Z</time>
      </trkpt>
      <trkpt lat="51.076824" lon="1.179063">
        <ele>0.80000000000001</ele>
        <time>2026-04-25T03:06:07.000Z</time>
      </trkpt>
      <trkpt lat="51.076878" lon="1.179506">
        <ele>1.2</ele>
        <time>2026-04-25T03:06:15.000Z</time>
      </trkpt>
      <trkpt lat="51.077005" lon="1.180139">
        <ele>1.8</ele>
        <time>2026-04-25T03:06:26.000Z</time>
      </trkpt>
      <trkpt lat="51.077168" lon="1.180637">
        <ele>2</ele>
        <time>2026-04-25T03:06:35.000Z</time>
      </trkpt>
      <trkpt lat="51.077246" lon="1.181296">
        <ele>1.2</ele>
        <time>2026-04-25T03:06:47.000Z</time>
      </trkpt>
      <trkpt lat="51.077795" lon="1.184156">
        <ele>0.39999999999998</ele>
        <time>2026-04-25T03:07:37.000Z</time>
      </trkpt>
      <trkpt lat="51.077868" lon="1.184422">
        <ele>0.39999999999998</ele>
        <time>2026-04-25T03:07:42.000Z</time>
      </trkpt>
      <trkpt lat="51.077908" lon="1.184471">
        <ele>0.19999999999999</ele>
        <time>2026-04-25T03:07:43.000Z</time>
      </trkpt>
      <trkpt lat="51.077948" lon="1.184477">
        <ele>0.19999999999999</ele>
        <time>2026-04-25T03:07:44.000Z</time>
      </trkpt>
      <trkpt lat="51.078082" lon="1.184435">
        <ele>0</ele>
        <time>2026-04-25T03:07:48.000Z</time>
      </trkpt>
      <trkpt lat="51.078232" lon="1.184356">
        <ele>-0.19999999999999</ele>
        <time>2026-04-25T03:07:52.000Z</time>
      </trkpt>
      <trkpt lat="51.078762" lon="1.184031">
        <ele>-0.80000000000001</ele>
        <time>2026-04-25T03:08:07.000Z</time>
      </trkpt>
      <trkpt lat="51.078808" lon="1.184026">
        <ele>-0.80000000000001</ele>
        <time>2026-04-25T03:08:08.000Z</time>
      </trkpt>
      <trkpt lat="51.078878" lon="1.184049">
        <ele>-0.80000000000001</ele>
        <time>2026-04-25T03:08:10.000Z</time>
      </trkpt>
      <trkpt lat="51.078973" lon="1.184164">
        <ele>-0.80000000000001</ele>
        <time>2026-04-25T03:08:13.000Z</time>
      </trkpt>
      <trkpt lat="51.079243" lon="1.18472">
        <ele>-0.80000000000001</ele>
        <time>2026-04-25T03:08:25.000Z</time>
      </trkpt>
      <trkpt lat="51.079396" lon="1.185065">
        <ele>-0.39999999999998</ele>
        <time>2026-04-25T03:08:32.000Z</time>
      </trkpt>
      <trkpt lat="51.079553" lon="1.185497">
        <ele>0.60000000000002</ele>
        <time>2026-04-25T03:08:41.000Z</time>
      </trkpt>
      <trkpt lat="51.079632" lon="1.185641">
        <ele>0.80000000000001</ele>
        <time>2026-04-25T03:08:44.000Z</time>
      </trkpt>
      <trkpt lat="51.079741" lon="1.18571">
        <ele>0.60000000000002</ele>
        <time>2026-04-25T03:08:47.000Z</time>
      </trkpt>
      <trkpt lat="51.079805" lon="1.185717">
        <ele>0.60000000000002</ele>
        <time>2026-04-25T03:08:49.000Z</time>
      </trkpt>
      <trkpt lat="51.079941" lon="1.185663">
        <ele>0.19999999999999</ele>
        <time>2026-04-25T03:08:52.000Z</time>
      </trkpt>
      <trkpt lat="51.080052" lon="1.185588">
        <ele>-0.19999999999999</ele>
        <time>2026-04-25T03:08:56.000Z</time>
      </trkpt>
      <trkpt lat="51.080135" lon="1.185568">
        <ele>-0.19999999999999</ele>
        <time>2026-04-25T03:08:58.000Z</time>
      </trkpt>
      <trkpt lat="51.080216" lon="1.185641">
        <ele>-0.39999999999998</ele>
        <time>2026-04-25T03:09:00.000Z</time>
      </trkpt>
      <trkpt lat="51.08034" lon="1.185986">
        <ele>-0.60000000000002</ele>
        <time>2026-04-25T03:09:07.000Z</time>
      </trkpt>
      <trkpt lat="51.080393" lon="1.186049">
        <ele>-0.60000000000002</ele>
        <time>2026-04-25T03:09:09.000Z</time>
      </trkpt>
      <trkpt lat="51.080513" lon="1.18611">
        <ele>-0.60000000000002</ele>
        <time>2026-04-25T03:09:12.000Z</time>
      </trkpt>
      <trkpt lat="51.080538" lon="1.186143">
        <ele>-0.60000000000002</ele>
        <time>2026-04-25T03:09:13.000Z</time>
      </trkpt>
      <trkpt lat="51.080602" lon="1.186403">
        <ele>-0.60000000000002</ele>
        <time>2026-04-25T03:09:18.000Z</time>
      </trkpt>
      <trkpt lat="51.08065" lon="1.186483">
        <ele>-0.39999999999998</ele>
        <time>2026-04-25T03:09:20.000Z</time>
      </trkpt>
      <trkpt lat="51.080867" lon="1.186482">
        <ele>-0.39999999999998</ele>
        <time>2026-04-25T03:09:25.000Z</time>
      </trkpt>
      <trkpt lat="51.081199" lon="1.186559">
        <ele>1.2</ele>
        <time>2026-04-25T03:09:34.000Z</time>
      </trkpt>
      <trkpt lat="51.081516" lon="1.186657">
        <ele>3</ele>
        <time>2026-04-25T03:09:43.000Z</time>
      </trkpt>
      <trkpt lat="51.081599" lon="1.186728">
        <ele>3.6</ele>
        <time>2026-04-25T03:09:45.000Z</time>
      </trkpt>
      <trkpt lat="51.081622" lon="1.186832">
        <ele>4.8</ele>
        <time>2026-04-25T03:09:47.000Z</time>
      </trkpt>
      <trkpt lat="51.081591" lon="1.186932">
        <ele>5.6</ele>
        <time>2026-04-25T03:09:49.000Z</time>
      </trkpt>
      <trkpt lat="51.081586" lon="1.187135">
        <ele>7.4</ele>
        <time>2026-04-25T03:09:53.000Z</time>
      </trkpt>
      <trkpt lat="51.081492" lon="1.187663">
        <ele>13</ele>
        <time>2026-04-25T03:10:02.000Z</time>
      </trkpt>
      <trkpt lat="51.081505" lon="1.187787">
        <ele>14.2</ele>
        <time>2026-04-25T03:10:04.000Z</time>
      </trkpt>
      <trkpt lat="51.08159" lon="1.187888">
        <ele>15.2</ele>
        <time>2026-04-25T03:10:07.000Z</time>
      </trkpt>
      <trkpt lat="51.082072" lon="1.188333">
        <ele>18</ele>
        <time>2026-04-25T03:10:22.000Z</time>
      </trkpt>
      <trkpt lat="51.082517" lon="1.189096">
        <ele>21.2</ele>
        <time>2026-04-25T03:10:39.000Z</time>
      </trkpt>
      <trkpt lat="51.082542" lon="1.189178">
        <ele>21.4</ele>
        <time>2026-04-25T03:10:41.000Z</time>
      </trkpt>
      <trkpt lat="51.082501" lon="1.189735">
        <ele>22.6</ele>
        <time>2026-04-25T03:10:50.000Z</time>
      </trkpt>
      <trkpt lat="51.082526" lon="1.190068">
        <ele>23.2</ele>
        <time>2026-04-25T03:10:56.000Z</time>
      </trkpt>
      <trkpt lat="51.08277" lon="1.191576">
        <ele>28.2</ele>
        <time>2026-04-25T03:11:22.000Z</time>
      </trkpt>
      <trkpt lat="51.083318" lon="1.195185">
        <ele>22.4</ele>
        <time>2026-04-25T03:12:24.000Z</time>
      </trkpt>
      <trkpt lat="51.083403" lon="1.195564">
        <ele>21.4</ele>
        <time>2026-04-25T03:12:31.000Z</time>
      </trkpt>
      <trkpt lat="51.083483" lon="1.195718">
        <ele>21</ele>
        <time>2026-04-25T03:12:34.000Z</time>
      </trkpt>
      <trkpt lat="51.08365" lon="1.195877">
        <ele>20.4</ele>
        <time>2026-04-25T03:12:39.000Z</time>
      </trkpt>
      <trkpt lat="51.083812" lon="1.195959">
        <ele>20.4</ele>
        <time>2026-04-25T03:12:44.000Z</time>
      </trkpt>
      <trkpt lat="51.084501" lon="1.196109">
        <ele>22</ele>
        <time>2026-04-25T03:13:02.000Z</time>
      </trkpt>
      <trkpt lat="51.085118" lon="1.196306">
        <ele>24.8</ele>
        <time>2026-04-25T03:13:19.000Z</time>
      </trkpt>
      <trkpt lat="51.085389" lon="1.196424">
        <ele>26.6</ele>
        <time>2026-04-25T03:13:27.000Z</time>
      </trkpt>
      <trkpt lat="51.086099" lon="1.19677">
        <ele>29.8</ele>
        <time>2026-04-25T03:13:47.000Z</time>
      </trkpt>
      <trkpt lat="51.08694" lon="1.197286">
        <ele>32.8</ele>
        <time>2026-04-25T03:14:11.000Z</time>
      </trkpt>
      <trkpt lat="51.08754" lon="1.197579">
        <ele>34.6</ele>
        <time>2026-04-25T03:14:27.000Z</time>
      </trkpt>
      <trkpt lat="51.087833" lon="1.197694">
        <ele>36.4</ele>
        <time>2026-04-25T03:14:35.000Z</time>
      </trkpt>
      <trkpt lat="51.088073" lon="1.197808">
        <ele>37.2</ele>
        <time>2026-04-25T03:14:42.000Z</time>
      </trkpt>
      <trkpt lat="51.088274" lon="1.197885">
        <ele>37.6</ele>
        <time>2026-04-25T03:14:48.000Z</time>
      </trkpt>
      <trkpt lat="51.08862" lon="1.197986">
        <ele>38.2</ele>
        <time>2026-04-25T03:14:57.000Z</time>
      </trkpt>
      <trkpt lat="51.089093" lon="1.198103">
        <ele>41</ele>
        <time>2026-04-25T03:15:10.000Z</time>
      </trkpt>
      <trkpt lat="51.089253" lon="1.198128">
        <ele>42.6</ele>
        <time>2026-04-25T03:15:14.000Z</time>
      </trkpt>
      <trkpt lat="51.089452" lon="1.198127">
        <ele>44.2</ele>
        <time>2026-04-25T03:15:19.000Z</time>
      </trkpt>
      <trkpt lat="51.08954" lon="1.198146">
        <ele>45.2</ele>
        <time>2026-04-25T03:15:22.000Z</time>
      </trkpt>
      <trkpt lat="51.0899" lon="1.198163">
        <ele>47.8</ele>
        <time>2026-04-25T03:15:31.000Z</time>
      </trkpt>
      <trkpt lat="51.090177" lon="1.198121">
        <ele>49.6</ele>
        <time>2026-04-25T03:15:39.000Z</time>
      </trkpt>
      <trkpt lat="51.09033" lon="1.198066">
        <ele>51.4</ele>
        <time>2026-04-25T03:15:43.000Z</time>
      </trkpt>
      <trkpt lat="51.090656" lon="1.197802">
        <ele>55.2</ele>
        <time>2026-04-25T03:15:53.000Z</time>
      </trkpt>
      <trkpt lat="51.090761" lon="1.197677">
        <ele>56.8</ele>
        <time>2026-04-25T03:15:56.000Z</time>
      </trkpt>
      <trkpt lat="51.090841" lon="1.197609">
        <ele>57.8</ele>
        <time>2026-04-25T03:15:59.000Z</time>
      </trkpt>
      <trkpt lat="51.091481" lon="1.196884">
        <ele>63.6</ele>
        <time>2026-04-25T03:16:20.000Z</time>
      </trkpt>
      <trkpt lat="51.091565" lon="1.196762">
        <ele>64.2</ele>
        <time>2026-04-25T03:16:23.000Z</time>
      </trkpt>
      <trkpt lat="51.091637" lon="1.196603">
        <ele>64.4</ele>
        <time>2026-04-25T03:16:26.000Z</time>
      </trkpt>
      <trkpt lat="51.09168" lon="1.196434">
        <ele>64.6</ele>
        <time>2026-04-25T03:16:29.000Z</time>
      </trkpt>
      <trkpt lat="51.091699" lon="1.196261">
        <ele>64.6</ele>
        <time>2026-04-25T03:16:32.000Z</time>
      </trkpt>
      <trkpt lat="51.091745" lon="1.19495">
        <ele>64</ele>
        <time>2026-04-25T03:16:54.000Z</time>
      </trkpt>
      <trkpt lat="51.091778" lon="1.194428">
        <ele>63.2</ele>
        <time>2026-04-25T03:17:03.000Z</time>
      </trkpt>
      <trkpt lat="51.09181" lon="1.19429">
        <ele>63.2</ele>
        <time>2026-04-25T03:17:05.000Z</time>
      </trkpt>
      <trkpt lat="51.091843" lon="1.194252">
        <ele>63.2</ele>
        <time>2026-04-25T03:17:06.000Z</time>
      </trkpt>
      <trkpt lat="51.091884" lon="1.194234">
        <ele>63.2</ele>
        <time>2026-04-25T03:17:07.000Z</time>
      </trkpt>
      <trkpt lat="51.092071" lon="1.194249">
        <ele>63</ele>
        <time>2026-04-25T03:17:12.000Z</time>
      </trkpt>
      <trkpt lat="51.092157" lon="1.194225">
        <ele>63</ele>
        <time>2026-04-25T03:17:15.000Z</time>
      </trkpt>
      <trkpt lat="51.092347" lon="1.194093">
        <ele>63.8</ele>
        <time>2026-04-25T03:17:20.000Z</time>
      </trkpt>
      <trkpt lat="51.09247" lon="1.193985">
        <ele>65</ele>
        <time>2026-04-25T03:17:24.000Z</time>
      </trkpt>
      <trkpt lat="51.092725" lon="1.193625">
        <ele>68</ele>
        <time>2026-04-25T03:17:33.000Z</time>
      </trkpt>
      <trkpt lat="51.092823" lon="1.193448">
        <ele>69.6</ele>
        <time>2026-04-25T03:17:37.000Z</time>
      </trkpt>
      <trkpt lat="51.093026" lon="1.193186">
        <ele>71.8</ele>
        <time>2026-04-25T03:17:44.000Z</time>
      </trkpt>
      <trkpt lat="51.093084" lon="1.193075">
        <ele>72.6</ele>
        <time>2026-04-25T03:17:46.000Z</time>
      </trkpt>
      <trkpt lat="51.09322" lon="1.192888">
        <ele>73.8</ele>
        <time>2026-04-25T03:17:51.000Z</time>
      </trkpt>
      <trkpt lat="51.093308" lon="1.19272">
        <ele>74.4</ele>
        <time>2026-04-25T03:17:55.000Z</time>
      </trkpt>
      <trkpt lat="51.09345" lon="1.192533">
        <ele>75.6</ele>
        <time>2026-04-25T03:18:00.000Z</time>
      </trkpt>
      <trkpt lat="51.093513" lon="1.192487">
        <ele>76</ele>
        <time>2026-04-25T03:18:02.000Z</time>
      </trkpt>
      <trkpt lat="51.093532" lon="1.19243">
        <ele>76.4</ele>
        <time>2026-04-25T03:18:03.000Z</time>
      </trkpt>
      <trkpt lat="51.093628" lon="1.191584">
        <ele>78</ele>
        <time>2026-04-25T03:18:17.000Z</time>
      </trkpt>
      <trkpt lat="51.093661" lon="1.191493">
        <ele>78.2</ele>
        <time>2026-04-25T03:18:19.000Z</time>
      </trkpt>
      <trkpt lat="51.0937" lon="1.191478">
        <ele>78.2</ele>
        <time>2026-04-25T03:18:20.000Z</time>
      </trkpt>
      <trkpt lat="51.093802" lon="1.191502">
        <ele>78.8</ele>
        <time>2026-04-25T03:18:23.000Z</time>
      </trkpt>
      <trkpt lat="51.0939" lon="1.191498">
        <ele>79.4</ele>
        <time>2026-04-25T03:18:25.000Z</time>
      </trkpt>
      <trkpt lat="51.09416" lon="1.191423">
        <ele>82.2</ele>
        <time>2026-04-25T03:18:32.000Z</time>
      </trkpt>
      <trkpt lat="51.094259" lon="1.191376">
        <ele>84</ele>
        <time>2026-04-25T03:18:35.000Z</time>
      </trkpt>
      <trkpt lat="51.094299" lon="1.191337">
        <ele>84.6</ele>
        <time>2026-04-25T03:18:36.000Z</time>
      </trkpt>
      <trkpt lat="51.09441" lon="1.191037">
        <ele>87.4</ele>
        <time>2026-04-25T03:18:42.000Z</time>
      </trkpt>
      <trkpt lat="51.094428" lon="1.191025">
        <ele>87.8</ele>
        <time>2026-04-25T03:18:43.000Z</time>
      </trkpt>
      <trkpt lat="51.094463" lon="1.191043">
        <ele>88</ele>
        <time>2026-04-25T03:18:44.000Z</time>
      </trkpt>
      <trkpt lat="51.094521" lon="1.191173">
        <ele>88.6</ele>
        <time>2026-04-25T03:18:47.000Z</time>
      </trkpt>
      <trkpt lat="51.094558" lon="1.191482">
        <ele>91.8</ele>
        <time>2026-04-25T03:18:52.000Z</time>
      </trkpt>
      <trkpt lat="51.094522" lon="1.191867">
        <ele>95.4</ele>
        <time>2026-04-25T03:18:58.000Z</time>
      </trkpt>
      <trkpt lat="51.094351" lon="1.192751">
        <ele>101.8</ele>
        <time>2026-04-25T03:19:14.000Z</time>
      </trkpt>
      <trkpt lat="51.094304" lon="1.192896">
        <ele>102.6</ele>
        <time>2026-04-25T03:19:17.000Z</time>
      </trkpt>
      <trkpt lat="51.09423" lon="1.193313">
        <ele>105.8</ele>
        <time>2026-04-25T03:19:24.000Z</time>
      </trkpt>
      <trkpt lat="51.093937" lon="1.194601">
        <ele>114</ele>
        <time>2026-04-25T03:19:47.000Z</time>
      </trkpt>
      <trkpt lat="51.093888" lon="1.194957">
        <ele>116.2</ele>
        <time>2026-04-25T03:19:53.000Z</time>
      </trkpt>
      <trkpt lat="51.093849" lon="1.195111">
        <ele>117.2</ele>
        <time>2026-04-25T03:19:56.000Z</time>
      </trkpt>
      <trkpt lat="51.093847" lon="1.195225">
        <ele>118</ele>
        <time>2026-04-25T03:19:58.000Z</time>
      </trkpt>
      <trkpt lat="51.093893" lon="1.195289">
        <ele>118.8</ele>
        <time>2026-04-25T03:19:59.000Z</time>
      </trkpt>
      <trkpt lat="51.093953" lon="1.195315">
        <ele>119.2</ele>
        <time>2026-04-25T03:20:01.000Z</time>
      </trkpt>
      <trkpt lat="51.094134" lon="1.195501">
        <ele>120.8</ele>
        <time>2026-04-25T03:20:07.000Z</time>
      </trkpt>
      <trkpt lat="51.094595" lon="1.196047">
        <ele>127.8</ele>
        <time>2026-04-25T03:20:22.000Z</time>
      </trkpt>
      <trkpt lat="51.094739" lon="1.196174">
        <ele>129.8</ele>
        <time>2026-04-25T03:20:26.000Z</time>
      </trkpt>
      <trkpt lat="51.094816" lon="1.196221">
        <ele>130.2</ele>
        <time>2026-04-25T03:20:29.000Z</time>
      </trkpt>
      <trkpt lat="51.094969" lon="1.196425">
        <ele>132.6</ele>
        <time>2026-04-25T03:20:34.000Z</time>
      </trkpt>
      <trkpt lat="51.095082" lon="1.196612">
        <ele>135</ele>
        <time>2026-04-25T03:20:38.000Z</time>
      </trkpt>
      <trkpt lat="51.095151" lon="1.196762">
        <ele>137</ele>
        <time>2026-04-25T03:20:41.000Z</time>
      </trkpt>
      <trkpt lat="51.095226" lon="1.197064">
        <ele>140</ele>
        <time>2026-04-25T03:20:47.000Z</time>
      </trkpt>
      <trkpt lat="51.095335" lon="1.198042">
        <ele>148</ele>
        <time>2026-04-25T03:21:03.000Z</time>
      </trkpt>
      <trkpt lat="51.095437" lon="1.198425">
        <ele>151</ele>
        <time>2026-04-25T03:21:10.000Z</time>
      </trkpt>
      <trkpt lat="51.095569" lon="1.1987">
        <ele>153.6</ele>
        <time>2026-04-25T03:21:16.000Z</time>
      </trkpt>
      <trkpt lat="51.095567" lon="1.198721">
        <ele>153.6</ele>
        <time>2026-04-25T03:21:17.000Z</time>
      </trkpt>
      <trkpt lat="51.095732" lon="1.198886">
        <ele>155</ele>
        <time>2026-04-25T03:21:22.000Z</time>
      </trkpt>
      <trkpt lat="51.096168" lon="1.199065">
        <ele>158</ele>
        <time>2026-04-25T03:21:34.000Z</time>
      </trkpt>
      <trkpt lat="51.096302" lon="1.199126">
        <ele>158.6</ele>
        <time>2026-04-25T03:21:38.000Z</time>
      </trkpt>
      <trkpt lat="51.096366" lon="1.199174">
        <ele>159</ele>
        <time>2026-04-25T03:21:39.000Z</time>
      </trkpt>
      <trkpt lat="51.09648" lon="1.199306">
        <ele>160</ele>
        <time>2026-04-25T03:21:43.000Z</time>
      </trkpt>
      <trkpt lat="51.096675" lon="1.199792">
        <ele>161.2</ele>
        <time>2026-04-25T03:21:53.000Z</time>
      </trkpt>
      <trkpt lat="51.09674" lon="1.199786">
        <ele>161</ele>
        <time>2026-04-25T03:21:55.000Z</time>
      </trkpt>
      <trkpt lat="51.096755" lon="1.199801">
        <ele>160.8</ele>
        <time>2026-04-25T03:21:55.000Z</time>
      </trkpt>
      <trkpt lat="51.096992" lon="1.200403">
        <ele>161.4</ele>
        <time>2026-04-25T03:22:07.000Z</time>
      </trkpt>
      <trkpt lat="51.097486" lon="1.20154">
        <ele>161.8</ele>
        <time>2026-04-25T03:22:30.000Z</time>
      </trkpt>
      <trkpt lat="51.097826" lon="1.202228">
        <ele>162</ele>
        <time>2026-04-25T03:22:45.000Z</time>
      </trkpt>
      <trkpt lat="51.098555" lon="1.203593">
        <ele>162.4</ele>
        <time>2026-04-25T03:23:15.000Z</time>
      </trkpt>
      <trkpt lat="51.098766" lon="1.204019">
        <ele>162.2</ele>
        <time>2026-04-25T03:23:24.000Z</time>
      </trkpt>
      <trkpt lat="51.099043" lon="1.204635">
        <ele>161.8</ele>
        <time>2026-04-25T03:23:37.000Z</time>
      </trkpt>
      <trkpt lat="51.099387" lon="1.205467">
        <ele>161</ele>
        <time>2026-04-25T03:23:53.000Z</time>
      </trkpt>
      <trkpt lat="51.099837" lon="1.206436">
        <ele>159.4</ele>
        <time>2026-04-25T03:24:14.000Z</time>
      </trkpt>
      <trkpt lat="51.100067" lon="1.207947">
        <ele>157.2</ele>
        <time>2026-04-25T03:24:40.000Z</time>
      </trkpt>
      <trkpt lat="51.100223" lon="1.209192">
        <ele>156.8</ele>
        <time>2026-04-25T03:25:01.000Z</time>
      </trkpt>
      <trkpt lat="51.100213" lon="1.210154">
        <ele>156.4</ele>
        <time>2026-04-25T03:25:17.000Z</time>
      </trkpt>
      <trkpt lat="51.100233" lon="1.21075">
        <ele>156.2</ele>
        <time>2026-04-25T03:25:27.000Z</time>
      </trkpt>
      <trkpt lat="51.100412" lon="1.212889">
        <ele>156</ele>
        <time>2026-04-25T03:26:03.000Z</time>
      </trkpt>
      <trkpt lat="51.100448" lon="1.213702">
        <ele>155.4</ele>
        <time>2026-04-25T03:26:17.000Z</time>
      </trkpt>
      <trkpt lat="51.100489" lon="1.214199">
        <ele>155.2</ele>
        <time>2026-04-25T03:26:25.000Z</time>
      </trkpt>
      <trkpt lat="51.100685" lon="1.215397">
        <ele>154.2</ele>
        <time>2026-04-25T03:26:46.000Z</time>
      </trkpt>
      <trkpt lat="51.101046" lon="1.216768">
        <ele>150.8</ele>
        <time>2026-04-25T03:27:11.000Z</time>
      </trkpt>
      <trkpt lat="51.101216" lon="1.21768">
        <ele>148.8</ele>
        <time>2026-04-25T03:27:27.000Z</time>
      </trkpt>
      <trkpt lat="51.101445" lon="1.219424">
        <ele>146.8</ele>
        <time>2026-04-25T03:27:57.000Z</time>
      </trkpt>
      <trkpt lat="51.101471" lon="1.219741">
        <ele>146.4</ele>
        <time>2026-04-25T03:28:02.000Z</time>
      </trkpt>
      <trkpt lat="51.101498" lon="1.220597">
        <ele>145.2</ele>
        <time>2026-04-25T03:28:16.000Z</time>
      </trkpt>
      <trkpt lat="51.101673" lon="1.222081">
        <ele>144</ele>
        <time>2026-04-25T03:28:42.000Z</time>
      </trkpt>
      <trkpt lat="51.101715" lon="1.222782">
        <ele>143.4</ele>
        <time>2026-04-25T03:28:54.000Z</time>
      </trkpt>
      <trkpt lat="51.101743" lon="1.222866">
        <ele>143.4</ele>
        <time>2026-04-25T03:28:55.000Z</time>
      </trkpt>
      <trkpt lat="51.10191" lon="1.22315">
        <ele>143.8</ele>
        <time>2026-04-25T03:29:02.000Z</time>
      </trkpt>
      <trkpt lat="51.101961" lon="1.223322">
        <ele>143.6</ele>
        <time>2026-04-25T03:29:05.000Z</time>
      </trkpt>
      <trkpt lat="51.101973" lon="1.223609">
        <ele>143.6</ele>
        <time>2026-04-25T03:29:10.000Z</time>
      </trkpt>
      <trkpt lat="51.101857" lon="1.22498">
        <ele>142.8</ele>
        <time>2026-04-25T03:29:33.000Z</time>
      </trkpt>
      <trkpt lat="51.10184" lon="1.2253">
        <ele>142.4</ele>
        <time>2026-04-25T03:29:38.000Z</time>
      </trkpt>
      <trkpt lat="51.101843" lon="1.225628">
        <ele>142</ele>
        <time>2026-04-25T03:29:44.000Z</time>
      </trkpt>
      <trkpt lat="51.102081" lon="1.227117">
        <ele>139</ele>
        <time>2026-04-25T03:30:10.000Z</time>
      </trkpt>
      <trkpt lat="51.102174" lon="1.227568">
        <ele>138.4</ele>
        <time>2026-04-25T03:30:18.000Z</time>
      </trkpt>
      <trkpt lat="51.102429" lon="1.228751">
        <ele>137.8</ele>
        <time>2026-04-25T03:30:38.000Z</time>
      </trkpt>
      <trkpt lat="51.102488" lon="1.228924">
        <ele>137.8</ele>
        <time>2026-04-25T03:30:42.000Z</time>
      </trkpt>
      <trkpt lat="51.102547" lon="1.229003">
        <ele>138</ele>
        <time>2026-04-25T03:30:44.000Z</time>
      </trkpt>
      <trkpt lat="51.102568" lon="1.229106">
        <ele>138</ele>
        <time>2026-04-25T03:30:46.000Z</time>
      </trkpt>
      <trkpt lat="51.102602" lon="1.229883">
        <ele>137.4</ele>
        <time>2026-04-25T03:30:59.000Z</time>
      </trkpt>
      <trkpt lat="51.102678" lon="1.230836">
        <ele>136.2</ele>
        <time>2026-04-25T03:31:15.000Z</time>
      </trkpt>
      <trkpt lat="51.103011" lon="1.233981">
        <ele>129.8</ele>
        <time>2026-04-25T03:32:08.000Z</time>
      </trkpt>
      <trkpt lat="51.103171" lon="1.234959">
        <ele>126.2</ele>
        <time>2026-04-25T03:32:25.000Z</time>
      </trkpt>
      <trkpt lat="51.103172" lon="1.235056">
        <ele>126</ele>
        <time>2026-04-25T03:32:27.000Z</time>
      </trkpt>
      <trkpt lat="51.103069" lon="1.235854">
        <ele>124</ele>
        <time>2026-04-25T03:32:40.000Z</time>
      </trkpt>
      <trkpt lat="51.10304" lon="1.236303">
        <ele>125.2</ele>
        <time>2026-04-25T03:32:48.000Z</time>
      </trkpt>
      <trkpt lat="51.102895" lon="1.237269">
        <ele>129.2</ele>
        <time>2026-04-25T03:33:05.000Z</time>
      </trkpt>
      <trkpt lat="51.102857" lon="1.237442">
        <ele>129.8</ele>
        <time>2026-04-25T03:33:08.000Z</time>
      </trkpt>
      <trkpt lat="51.102786" lon="1.237687">
        <ele>130.6</ele>
        <time>2026-04-25T03:33:12.000Z</time>
      </trkpt>
      <trkpt lat="51.102685" lon="1.237928">
        <ele>131.2</ele>
        <time>2026-04-25T03:33:17.000Z</time>
      </trkpt>
      <trkpt lat="51.102321" lon="1.238488">
        <ele>132</ele>
        <time>2026-04-25T03:33:31.000Z</time>
      </trkpt>
      <trkpt lat="51.102185" lon="1.238746">
        <ele>132</ele>
        <time>2026-04-25T03:33:36.000Z</time>
      </trkpt>
      <trkpt lat="51.102018" lon="1.239478">
        <ele>132.6</ele>
        <time>2026-04-25T03:33:49.000Z</time>
      </trkpt>
      <trkpt lat="51.10198" lon="1.239725">
        <ele>133</ele>
        <time>2026-04-25T03:33:54.000Z</time>
      </trkpt>
      <trkpt lat="51.101874" lon="1.241397">
        <ele>133.6</ele>
        <time>2026-04-25T03:34:22.000Z</time>
      </trkpt>
      <trkpt lat="51.101809" lon="1.243081">
        <ele>132.2</ele>
        <time>2026-04-25T03:34:50.000Z</time>
      </trkpt>
      <trkpt lat="51.101836" lon="1.243805">
        <ele>129.8</ele>
        <time>2026-04-25T03:35:02.000Z</time>
      </trkpt>
      <trkpt lat="51.10209" lon="1.245254">
        <ele>127.6</ele>
        <time>2026-04-25T03:35:27.000Z</time>
      </trkpt>
      <trkpt lat="51.102355" lon="1.247129">
        <ele>136</ele>
        <time>2026-04-25T03:36:00.000Z</time>
      </trkpt>
      <trkpt lat="51.102397" lon="1.247521">
        <ele>137.4</ele>
        <time>2026-04-25T03:36:06.000Z</time>
      </trkpt>
      <trkpt lat="51.102438" lon="1.248433">
        <ele>139</ele>
        <time>2026-04-25T03:36:22.000Z</time>
      </trkpt>
      <trkpt lat="51.102528" lon="1.24926">
        <ele>139.2</ele>
        <time>2026-04-25T03:36:36.000Z</time>
      </trkpt>
      <trkpt lat="51.102791" lon="1.250034">
        <ele>138.8</ele>
        <time>2026-04-25T03:36:50.000Z</time>
      </trkpt>
      <trkpt lat="51.102914" lon="1.250328">
        <ele>138.8</ele>
        <time>2026-04-25T03:36:56.000Z</time>
      </trkpt>
      <trkpt lat="51.103201" lon="1.250917">
        <ele>138</ele>
        <time>2026-04-25T03:37:09.000Z</time>
      </trkpt>
      <trkpt lat="51.103365" lon="1.251423">
        <ele>137.4</ele>
        <time>2026-04-25T03:37:18.000Z</time>
      </trkpt>
      <trkpt lat="51.103506" lon="1.25175">
        <ele>137.2</ele>
        <time>2026-04-25T03:37:25.000Z</time>
      </trkpt>
      <trkpt lat="51.103655" lon="1.252411">
        <ele>136.4</ele>
        <time>2026-04-25T03:37:37.000Z</time>
      </trkpt>
      <trkpt lat="51.103753" lon="1.252938">
        <ele>135.8</ele>
        <time>2026-04-25T03:37:46.000Z</time>
      </trkpt>
      <trkpt lat="51.103805" lon="1.253126">
        <ele>135.6</ele>
        <time>2026-04-25T03:37:50.000Z</time>
      </trkpt>
      <trkpt lat="51.104235" lon="1.254371">
        <ele>134</ele>
        <time>2026-04-25T03:38:13.000Z</time>
      </trkpt>
      <trkpt lat="51.104758" lon="1.256021">
        <ele>132.8</ele>
        <time>2026-04-25T03:38:44.000Z</time>
      </trkpt>
      <trkpt lat="51.105367" lon="1.258092">
        <ele>131.6</ele>
        <time>2026-04-25T03:39:23.000Z</time>
      </trkpt>
      <trkpt lat="51.105535" lon="1.258508">
        <ele>131.2</ele>
        <time>2026-04-25T03:39:31.000Z</time>
      </trkpt>
      <trkpt lat="51.105557" lon="1.258877">
        <ele>130.6</ele>
        <time>2026-04-25T03:39:37.000Z</time>
      </trkpt>
      <trkpt lat="51.105692" lon="1.259427">
        <ele>129.8</ele>
        <time>2026-04-25T03:39:47.000Z</time>
      </trkpt>
      <trkpt lat="51.106186" lon="1.260921">
        <ele>128.8</ele>
        <time>2026-04-25T03:40:15.000Z</time>
      </trkpt>
      <trkpt lat="51.106325" lon="1.261368">
        <ele>128.8</ele>
        <time>2026-04-25T03:40:24.000Z</time>
      </trkpt>
      <trkpt lat="51.10644" lon="1.261822">
        <ele>128.6</ele>
        <time>2026-04-25T03:40:32.000Z</time>
      </trkpt>
      <trkpt lat="51.106654" lon="1.262756">
        <ele>128</ele>
        <time>2026-04-25T03:40:49.000Z</time>
      </trkpt>
      <trkpt lat="51.106904" lon="1.263993">
        <ele>126.2</ele>
        <time>2026-04-25T03:41:10.000Z</time>
      </trkpt>
      <trkpt lat="51.107035" lon="1.264704">
        <ele>125.2</ele>
        <time>2026-04-25T03:41:23.000Z</time>
      </trkpt>
      <trkpt lat="51.107106" lon="1.265215">
        <ele>124.8</ele>
        <time>2026-04-25T03:41:32.000Z</time>
      </trkpt>
      <trkpt lat="51.107179" lon="1.266055">
        <ele>125</ele>
        <time>2026-04-25T03:41:46.000Z</time>
      </trkpt>
      <trkpt lat="51.107184" lon="1.267043">
        <ele>125.2</ele>
        <time>2026-04-25T03:42:02.000Z</time>
      </trkpt>
      <trkpt lat="51.107214" lon="1.267507">
        <ele>125</ele>
        <time>2026-04-25T03:42:10.000Z</time>
      </trkpt>
      <trkpt lat="51.107241" lon="1.267689">
        <ele>125</ele>
        <time>2026-04-25T03:42:13.000Z</time>
      </trkpt>
      <trkpt lat="51.107353" lon="1.268058">
        <ele>124.6</ele>
        <time>2026-04-25T03:42:20.000Z</time>
      </trkpt>
      <trkpt lat="51.107404" lon="1.268631">
        <ele>123.8</ele>
        <time>2026-04-25T03:42:30.000Z</time>
      </trkpt>
      <trkpt lat="51.107463" lon="1.269604">
        <ele>121.2</ele>
        <time>2026-04-25T03:42:46.000Z</time>
      </trkpt>
      <trkpt lat="51.107613" lon="1.270896">
        <ele>116.8</ele>
        <time>2026-04-25T03:43:08.000Z</time>
      </trkpt>
      <trkpt lat="51.107783" lon="1.271986">
        <ele>112.6</ele>
        <time>2026-04-25T03:43:27.000Z</time>
      </trkpt>
      <trkpt lat="51.107927" lon="1.272647">
        <ele>109.4</ele>
        <time>2026-04-25T03:43:39.000Z</time>
      </trkpt>
      <trkpt lat="51.108138" lon="1.273438">
        <ele>105.8</ele>
        <time>2026-04-25T03:43:53.000Z</time>
      </trkpt>
      <trkpt lat="51.108299" lon="1.273909">
        <ele>104.4</ele>
        <time>2026-04-25T03:44:02.000Z</time>
      </trkpt>
      <trkpt lat="51.10896" lon="1.275677">
        <ele>99.6</ele>
        <time>2026-04-25T03:44:37.000Z</time>
      </trkpt>
      <trkpt lat="51.109477" lon="1.277404">
        <ele>94</ele>
        <time>2026-04-25T03:45:09.000Z</time>
      </trkpt>
      <trkpt lat="51.109624" lon="1.27784">
        <ele>91.8</ele>
        <time>2026-04-25T03:45:17.000Z</time>
      </trkpt>
      <trkpt lat="51.109729" lon="1.27827">
        <ele>89</ele>
        <time>2026-04-25T03:45:25.000Z</time>
      </trkpt>
      <trkpt lat="51.109939" lon="1.279562">
        <ele>82.4</ele>
        <time>2026-04-25T03:45:47.000Z</time>
      </trkpt>
      <trkpt lat="51.110037" lon="1.280614">
        <ele>76.6</ele>
        <time>2026-04-25T03:46:05.000Z</time>
      </trkpt>
      <trkpt lat="51.110019" lon="1.281001">
        <ele>75.6</ele>
        <time>2026-04-25T03:46:11.000Z</time>
      </trkpt>
      <trkpt lat="51.10995" lon="1.281691">
        <ele>73.8</ele>
        <time>2026-04-25T03:46:23.000Z</time>
      </trkpt>
      <trkpt lat="51.109931" lon="1.28206">
        <ele>72.8</ele>
        <time>2026-04-25T03:46:29.000Z</time>
      </trkpt>
      <trkpt lat="51.109931" lon="1.283137">
        <ele>66</ele>
        <time>2026-04-25T03:46:47.000Z</time>
      </trkpt>
      <trkpt lat="51.109898" lon="1.283736">
        <ele>63</ele>
        <time>2026-04-25T03:46:58.000Z</time>
      </trkpt>
      <trkpt lat="51.10987" lon="1.283927">
        <ele>61.8</ele>
        <time>2026-04-25T03:47:01.000Z</time>
      </trkpt>
      <trkpt lat="51.109841" lon="1.284012">
        <ele>61.2</ele>
        <time>2026-04-25T03:47:02.000Z</time>
      </trkpt>
      <trkpt lat="51.109803" lon="1.284057">
        <ele>60.4</ele>
        <time>2026-04-25T03:47:04.000Z</time>
      </trkpt>
      <trkpt lat="51.109727" lon="1.284098">
        <ele>59.2</ele>
        <time>2026-04-25T03:47:06.000Z</time>
      </trkpt>
      <trkpt lat="51.1097" lon="1.284156">
        <ele>58.6</ele>
        <time>2026-04-25T03:47:07.000Z</time>
      </trkpt>
      <trkpt lat="51.109732" lon="1.284424">
        <ele>57.8</ele>
        <time>2026-04-25T03:47:12.000Z</time>
      </trkpt>
      <trkpt lat="51.109716" lon="1.285452">
        <ele>56.4</ele>
        <time>2026-04-25T03:47:29.000Z</time>
      </trkpt>
      <trkpt lat="51.10976" lon="1.285736">
        <ele>55.8</ele>
        <time>2026-04-25T03:47:34.000Z</time>
      </trkpt>
      <trkpt lat="51.109861" lon="1.286109">
        <ele>54.6</ele>
        <time>2026-04-25T03:47:41.000Z</time>
      </trkpt>
      <trkpt lat="51.109896" lon="1.286742">
        <ele>53.8</ele>
        <time>2026-04-25T03:47:51.000Z</time>
      </trkpt>
      <trkpt lat="51.109942" lon="1.287209">
        <ele>53.8</ele>
        <time>2026-04-25T03:47:59.000Z</time>
      </trkpt>
      <trkpt lat="51.10996" lon="1.288052">
        <ele>55.6</ele>
        <time>2026-04-25T03:48:13.000Z</time>
      </trkpt>
      <trkpt lat="51.110031" lon="1.288556">
        <ele>58</ele>
        <time>2026-04-25T03:48:22.000Z</time>
      </trkpt>
      <trkpt lat="51.110053" lon="1.28858">
        <ele>58.2</ele>
        <time>2026-04-25T03:48:23.000Z</time>
      </trkpt>
      <trkpt lat="51.110072" lon="1.288574">
        <ele>58.2</ele>
        <time>2026-04-25T03:48:23.000Z</time>
      </trkpt>
      <trkpt lat="51.110742" lon="1.288202">
        <ele>56.4</ele>
        <time>2026-04-25T03:48:42.000Z</time>
      </trkpt>
      <trkpt lat="51.11074" lon="1.288133">
        <ele>56.2</ele>
        <time>2026-04-25T03:48:43.000Z</time>
      </trkpt>
      <trkpt lat="51.110514" lon="1.287274">
        <ele>53</ele>
        <time>2026-04-25T03:48:59.000Z</time>
      </trkpt>
      <trkpt lat="51.110511" lon="1.287195">
        <ele>52</ele>
        <time>2026-04-25T03:49:00.000Z</time>
      </trkpt>
      <trkpt lat="51.110543" lon="1.287172">
        <ele>50.8</ele>
        <time>2026-04-25T03:49:01.000Z</time>
      </trkpt>
      <trkpt lat="51.110801" lon="1.287734">
        <ele>49</ele>
        <time>2026-04-25T03:49:13.000Z</time>
      </trkpt>
      <trkpt lat="51.110985" lon="1.288092">
        <ele>47.8</ele>
        <time>2026-04-25T03:49:21.000Z</time>
      </trkpt>
      <trkpt lat="51.111463" lon="1.288919">
        <ele>46</ele>
        <time>2026-04-25T03:49:39.000Z</time>
      </trkpt>
      <trkpt lat="51.112135" lon="1.2902">
        <ele>43.8</ele>
        <time>2026-04-25T03:50:07.000Z</time>
      </trkpt>
      <trkpt lat="51.112442" lon="1.290911">
        <ele>42.6</ele>
        <time>2026-04-25T03:50:22.000Z</time>
      </trkpt>
      <trkpt lat="51.112817" lon="1.291971">
        <ele>40.6</ele>
        <time>2026-04-25T03:50:42.000Z</time>
      </trkpt>
      <trkpt lat="51.11298" lon="1.292537">
        <ele>39.2</ele>
        <time>2026-04-25T03:50:53.000Z</time>
      </trkpt>
      <trkpt lat="51.113265" lon="1.293787">
        <ele>37.2</ele>
        <time>2026-04-25T03:51:15.000Z</time>
      </trkpt>
      <trkpt lat="51.113351" lon="1.294074">
        <ele>36.2</ele>
        <time>2026-04-25T03:51:20.000Z</time>
      </trkpt>
      <trkpt lat="51.113691" lon="1.295037">
        <ele>34</ele>
        <time>2026-04-25T03:51:39.000Z</time>
      </trkpt>
      <trkpt lat="51.113756" lon="1.295302">
        <ele>33.6</ele>
        <time>2026-04-25T03:51:44.000Z</time>
      </trkpt>
      <trkpt lat="51.113769" lon="1.295423">
        <ele>33.4</ele>
        <time>2026-04-25T03:51:46.000Z</time>
      </trkpt>
      <trkpt lat="51.113761" lon="1.295523">
        <ele>33.2</ele>
        <time>2026-04-25T03:51:47.000Z</time>
      </trkpt>
      <trkpt lat="51.113702" lon="1.295685">
        <ele>33</ele>
        <time>2026-04-25T03:51:50.000Z</time>
      </trkpt>
      <trkpt lat="51.113646" lon="1.29575">
        <ele>32.8</ele>
        <time>2026-04-25T03:51:52.000Z</time>
      </trkpt>
      <trkpt lat="51.11344" lon="1.295925">
        <ele>32</ele>
        <time>2026-04-25T03:51:59.000Z</time>
      </trkpt>
      <trkpt lat="51.1134" lon="1.295992">
        <ele>32</ele>
        <time>2026-04-25T03:52:00.000Z</time>
      </trkpt>
      <trkpt lat="51.113364" lon="1.296092">
        <ele>32</ele>
        <time>2026-04-25T03:52:02.000Z</time>
      </trkpt>
      <trkpt lat="51.113343" lon="1.296418">
        <ele>31.4</ele>
        <time>2026-04-25T03:52:07.000Z</time>
      </trkpt>
      <trkpt lat="51.113512" lon="1.297326">
        <ele>29.4</ele>
        <time>2026-04-25T03:52:23.000Z</time>
      </trkpt>
      <trkpt lat="51.113882" lon="1.299047">
        <ele>29.8</ele>
        <time>2026-04-25T03:52:54.000Z</time>
      </trkpt>
      <trkpt lat="51.114494" lon="1.302078">
        <ele>31.2</ele>
        <time>2026-04-25T03:53:47.000Z</time>
      </trkpt>
      <trkpt lat="51.114575" lon="1.302355">
        <ele>31.2</ele>
        <time>2026-04-25T03:53:52.000Z</time>
      </trkpt>
      <trkpt lat="51.114667" lon="1.302507">
        <ele>30.8</ele>
        <time>2026-04-25T03:53:56.000Z</time>
      </trkpt>
      <trkpt lat="51.114793" lon="1.302587">
        <ele>30.6</ele>
        <time>2026-04-25T03:53:59.000Z</time>
      </trkpt>
      <trkpt lat="51.115006" lon="1.302617">
        <ele>30.2</ele>
        <time>2026-04-25T03:54:05.000Z</time>
      </trkpt>
      <trkpt lat="51.115067" lon="1.302645">
        <ele>30</ele>
        <time>2026-04-25T03:54:07.000Z</time>
      </trkpt>
      <trkpt lat="51.115116" lon="1.302694">
        <ele>29.8</ele>
        <time>2026-04-25T03:54:08.000Z</time>
      </trkpt>
      <trkpt lat="51.115153" lon="1.302761">
        <ele>29.6</ele>
        <time>2026-04-25T03:54:10.000Z</time>
      </trkpt>
      <trkpt lat="51.115173" lon="1.302849">
        <ele>29.4</ele>
        <time>2026-04-25T03:54:11.000Z</time>
      </trkpt>
      <trkpt lat="51.11517" lon="1.303038">
        <ele>29</ele>
        <time>2026-04-25T03:54:15.000Z</time>
      </trkpt>
      <trkpt lat="51.115132" lon="1.303194">
        <ele>28.6</ele>
        <time>2026-04-25T03:54:17.000Z</time>
      </trkpt>
      <trkpt lat="51.115102" lon="1.303247">
        <ele>28.6</ele>
        <time>2026-04-25T03:54:19.000Z</time>
      </trkpt>
      <trkpt lat="51.115015" lon="1.303319">
        <ele>28.6</ele>
        <time>2026-04-25T03:54:21.000Z</time>
      </trkpt>
      <trkpt lat="51.114917" lon="1.303368">
        <ele>27.2</ele>
        <time>2026-04-25T03:54:24.000Z</time>
      </trkpt>
      <trkpt lat="51.114815" lon="1.303392">
        <ele>26.6</ele>
        <time>2026-04-25T03:54:27.000Z</time>
      </trkpt>
      <trkpt lat="51.114771" lon="1.303419">
        <ele>26.6</ele>
        <time>2026-04-25T03:54:28.000Z</time>
      </trkpt>
      <trkpt lat="51.114733" lon="1.30347">
        <ele>26.2</ele>
        <time>2026-04-25T03:54:29.000Z</time>
      </trkpt>
      <trkpt lat="51.114643" lon="1.303746">
        <ele>24.4</ele>
        <time>2026-04-25T03:54:35.000Z</time>
      </trkpt>
      <trkpt lat="51.114617" lon="1.303909">
        <ele>23.8</ele>
        <time>2026-04-25T03:54:37.000Z</time>
      </trkpt>
      <trkpt lat="51.11462" lon="1.304098">
        <ele>23.4</ele>
        <time>2026-04-25T03:54:41.000Z</time>
      </trkpt>
      <trkpt lat="51.114693" lon="1.304506">
        <ele>22.6</ele>
        <time>2026-04-25T03:54:48.000Z</time>
      </trkpt>
      <trkpt lat="51.114823" lon="1.304955">
        <ele>20.6</ele>
        <time>2026-04-25T03:54:56.000Z</time>
      </trkpt>
      <trkpt lat="51.114949" lon="1.305278">
        <ele>19.6</ele>
        <time>2026-04-25T03:55:02.000Z</time>
      </trkpt>
      <trkpt lat="51.115081" lon="1.30549">
        <ele>18.4</ele>
        <time>2026-04-25T03:55:07.000Z</time>
      </trkpt>
      <trkpt lat="51.115142" lon="1.305675">
        <ele>16.8</ele>
        <time>2026-04-25T03:55:11.000Z</time>
      </trkpt>
      <trkpt lat="51.115354" lon="1.306004">
        <ele>13.8</ele>
        <time>2026-04-25T03:55:19.000Z</time>
      </trkpt>
      <trkpt lat="51.115544" lon="1.306235">
        <ele>12.8</ele>
        <time>2026-04-25T03:55:25.000Z</time>
      </trkpt>
      <trkpt lat="51.115945" lon="1.306609">
        <ele>9.6</ele>
        <time>2026-04-25T03:55:37.000Z</time>
      </trkpt>
      <trkpt lat="51.116126" lon="1.306745">
        <ele>8.6</ele>
        <time>2026-04-25T03:55:43.000Z</time>
      </trkpt>
      <trkpt lat="51.116321" lon="1.30686">
        <ele>7.6</ele>
        <time>2026-04-25T03:55:48.000Z</time>
      </trkpt>
      <trkpt lat="51.116512" lon="1.306951">
        <ele>6.4</ele>
        <time>2026-04-25T03:55:54.000Z</time>
      </trkpt>
      <trkpt lat="51.116941" lon="1.307098">
        <ele>4</ele>
        <time>2026-04-25T03:56:05.000Z</time>
      </trkpt>
      <trkpt lat="51.117069" lon="1.307123">
        <ele>3</ele>
        <time>2026-04-25T03:56:09.000Z</time>
      </trkpt>
      <trkpt lat="51.117132" lon="1.30712">
        <ele>2.6</ele>
        <time>2026-04-25T03:56:11.000Z</time>
      </trkpt>
      <trkpt lat="51.117202" lon="1.307091">
        <ele>1.8</ele>
        <time>2026-04-25T03:56:12.000Z</time>
      </trkpt>
      <trkpt lat="51.117302" lon="1.307007">
        <ele>1.4</ele>
        <time>2026-04-25T03:56:16.000Z</time>
      </trkpt>
      <trkpt lat="51.117394" lon="1.30696">
        <ele>1</ele>
        <time>2026-04-25T03:56:18.000Z</time>
      </trkpt>
      <trkpt lat="51.117456" lon="1.306955">
        <ele>0.80000000000001</ele>
        <time>2026-04-25T03:56:20.000Z</time>
      </trkpt>
      <trkpt lat="51.11755" lon="1.30699">
        <ele>0.39999999999998</ele>
        <time>2026-04-25T03:56:22.000Z</time>
      </trkpt>
      <trkpt lat="51.117637" lon="1.307056">
        <ele>0.19999999999999</ele>
        <time>2026-04-25T03:56:25.000Z</time>
      </trkpt>
      <trkpt lat="51.117782" lon="1.30724">
        <ele>0.39999999999998</ele>
        <time>2026-04-25T03:56:30.000Z</time>
      </trkpt>
      <trkpt lat="51.117917" lon="1.307368">
        <ele>0.39999999999998</ele>
        <time>2026-04-25T03:56:34.000Z</time>
      </trkpt>
      <trkpt lat="51.118157" lon="1.30745">
        <ele>0.60000000000002</ele>
        <time>2026-04-25T03:56:41.000Z</time>
      </trkpt>
      <trkpt lat="51.118231" lon="1.307502">
        <ele>0.60000000000002</ele>
        <time>2026-04-25T03:56:43.000Z</time>
      </trkpt>
      <trkpt lat="51.118333" lon="1.307616">
        <ele>1</ele>
        <time>2026-04-25T03:56:46.000Z</time>
      </trkpt>
      <trkpt lat="51.118328" lon="1.307735">
        <ele>2.2</ele>
        <time>2026-04-25T03:56:48.000Z</time>
      </trkpt>
      <trkpt lat="51.118399" lon="1.307827">
        <ele>2.2</ele>
        <time>2026-04-25T03:56:51.000Z</time>
      </trkpt>
      <trkpt lat="51.118407" lon="1.30799">
        <ele>2</ele>
        <time>2026-04-25T03:56:53.000Z</time>
      </trkpt>
      <trkpt lat="51.118944" lon="1.308359">
        <ele>2</ele>
        <time>2026-04-25T03:57:09.000Z</time>
      </trkpt>
      <trkpt lat="51.11925" lon="1.308612">
        <ele>2</ele>
        <time>2026-04-25T03:57:18.000Z</time>
      </trkpt>
      <trkpt lat="51.119543" lon="1.308915">
        <ele>1.6</ele>
        <time>2026-04-25T03:57:27.000Z</time>
      </trkpt>
      <trkpt lat="51.119697" lon="1.309126">
        <ele>0.80000000000001</ele>
        <time>2026-04-25T03:57:33.000Z</time>
      </trkpt>
      <trkpt lat="51.11987" lon="1.309483">
        <ele>-0.80000000000001</ele>
        <time>2026-04-25T03:57:40.000Z</time>
      </trkpt>
      <trkpt lat="51.119906" lon="1.309533">
        <ele>-2.4</ele>
        <time>2026-04-25T03:57:42.000Z</time>
      </trkpt>
      <trkpt lat="51.119964" lon="1.309572">
        <ele>-2.6</ele>
        <time>2026-04-25T03:57:43.000Z</time>
      </trkpt>
      <trkpt lat="51.11998" lon="1.30966">
        <ele>-2.6</ele>
        <time>2026-04-25T03:57:45.000Z</time>
      </trkpt>
      <trkpt lat="51.119691" lon="1.311053">
        <ele>-3.6</ele>
        <time>2026-04-25T03:58:09.000Z</time>
      </trkpt>
      <trkpt lat="51.11957" lon="1.311808">
        <ele>-3</ele>
        <time>2026-04-25T03:58:22.000Z</time>
      </trkpt>
      <trkpt lat="51.119498" lon="1.31215">
        <ele>-2.8</ele>
        <time>2026-04-25T03:58:29.000Z</time>
      </trkpt>
      <trkpt lat="51.119496" lon="1.312231">
        <ele>-2.8</ele>
        <time>2026-04-25T03:58:30.000Z</time>
      </trkpt>
      <trkpt lat="51.119531" lon="1.31238">
        <ele>-2.8</ele>
        <time>2026-04-25T03:58:33.000Z</time>
      </trkpt>
      <trkpt lat="51.119645" lon="1.312546">
        <ele>-2.4</ele>
        <time>2026-04-25T03:58:37.000Z</time>
      </trkpt>
      <trkpt lat="51.11974" lon="1.312623">
        <ele>-2.4</ele>
        <time>2026-04-25T03:58:40.000Z</time>
      </trkpt>
      <trkpt lat="51.120053" lon="1.312799">
        <ele>-1.8</ele>
        <time>2026-04-25T03:58:48.000Z</time>
      </trkpt>
      <trkpt lat="51.120771" lon="1.3133">
        <ele>-1.6</ele>
        <time>2026-04-25T03:59:09.000Z</time>
      </trkpt>
      <trkpt lat="51.121504" lon="1.313872">
        <ele>-1.8</ele>
        <time>2026-04-25T03:59:31.000Z</time>
      </trkpt>
      <trkpt lat="51.122017" lon="1.314388">
        <ele>-1.6</ele>
        <time>2026-04-25T03:59:47.000Z</time>
      </trkpt>
      <trkpt lat="51.122247" lon="1.314661">
        <ele>-1.6</ele>
        <time>2026-04-25T03:59:55.000Z</time>
      </trkpt>
      <trkpt lat="51.12248" lon="1.314986">
        <ele>-1.6</ele>
        <time>2026-04-25T04:00:03.000Z</time>
      </trkpt>
      <trkpt lat="51.122544" lon="1.315048">
        <ele>-1.6</ele>
        <time>2026-04-25T04:00:05.000Z</time>
      </trkpt>
      <trkpt lat="51.12262" lon="1.315048">
        <ele>-1.6</ele>
        <time>2026-04-25T04:00:07.000Z</time>
      </trkpt>
      <trkpt lat="51.122684" lon="1.315005">
        <ele>-1.6</ele>
        <time>2026-04-25T04:00:09.000Z</time>
      </trkpt>
      <trkpt lat="51.122788" lon="1.314843">
        <ele>-1.4</ele>
        <time>2026-04-25T04:00:13.000Z</time>
      </trkpt>
      <trkpt lat="51.122921" lon="1.314566">
        <ele>-1.2</ele>
        <time>2026-04-25T04:00:19.000Z</time>
      </trkpt>
      <trkpt lat="51.122942" lon="1.314561">
        <ele>-1.2</ele>
        <time>2026-04-25T04:00:19.000Z</time>
      </trkpt>
      <trkpt lat="51.123005" lon="1.314588">
        <ele>-1</ele>
        <time>2026-04-25T04:00:21.000Z</time>
      </trkpt>
      <trkpt lat="51.123056" lon="1.314576">
        <ele>-1</ele>
        <time>2026-04-25T04:00:23.000Z</time>
      </trkpt>
      <trkpt lat="51.123184" lon="1.314479">
        <ele>-1.4</ele>
        <time>2026-04-25T04:00:26.000Z</time>
      </trkpt>
      <trkpt lat="51.123343" lon="1.314389">
        <ele>-1.4</ele>
        <time>2026-04-25T04:00:31.000Z</time>
      </trkpt>
      <trkpt lat="51.123391" lon="1.314335">
        <ele>-1.4</ele>
        <time>2026-04-25T04:00:32.000Z</time>
      </trkpt>
      <trkpt lat="51.123429" lon="1.31427">
        <ele>-1.4</ele>
        <time>2026-04-25T04:00:34.000Z</time>
      </trkpt>
      <trkpt lat="51.123431" lon="1.314224">
        <ele>-1.4</ele>
        <time>2026-04-25T04:00:35.000Z</time>
      </trkpt>
      <trkpt lat="51.12336" lon="1.314068">
        <ele>-1.6</ele>
        <time>2026-04-25T04:00:38.000Z</time>
      </trkpt>
      <trkpt lat="51.123359" lon="1.314022">
        <ele>-1.8</ele>
        <time>2026-04-25T04:00:39.000Z</time>
      </trkpt>
      <trkpt lat="51.123412" lon="1.314136">
        <ele>-2.8</ele>
        <time>2026-04-25T04:00:41.000Z</time>
      </trkpt>
      <trkpt lat="51.123433" lon="1.314294">
        <ele>-3.4</ele>
        <time>2026-04-25T04:00:44.000Z</time>
      </trkpt>
      <trkpt lat="51.123538" lon="1.314202">
        <ele>-4.4</ele>
        <time>2026-04-25T04:00:47.000Z</time>
      </trkpt>
      <trkpt lat="51.123849" lon="1.31402">
        <ele>-4.2</ele>
        <time>2026-04-25T04:00:56.000Z</time>
      </trkpt>
      <trkpt lat="51.124026" lon="1.314006">
        <ele>-3.4</ele>
        <time>2026-04-25T04:01:00.000Z</time>
      </trkpt>
      <trkpt lat="51.124111" lon="1.314016">
        <ele>-3.2</ele>
        <time>2026-04-25T04:01:03.000Z</time>
      </trkpt>
      <trkpt lat="51.124142" lon="1.314037">
        <ele>-3.2</ele>
        <time>2026-04-25T04:01:04.000Z</time>
      </trkpt>
      <trkpt lat="51.124208" lon="1.314225">
        <ele>-3.4</ele>
        <time>2026-04-25T04:01:07.000Z</time>
      </trkpt>
      <trkpt lat="51.124357" lon="1.314467">
        <ele>-3.4</ele>
        <time>2026-04-25T04:01:13.000Z</time>
      </trkpt>
      <trkpt lat="51.124381" lon="1.314567">
        <ele>-3.6</ele>
        <time>2026-04-25T04:01:15.000Z</time>
      </trkpt>
      <trkpt lat="51.124481" lon="1.314806">
        <ele>-4.2</ele>
        <time>2026-04-25T04:01:20.000Z</time>
      </trkpt>
      <trkpt lat="51.124505" lon="1.314831">
        <ele>-4.2</ele>
        <time>2026-04-25T04:01:20.000Z</time>
      </trkpt>
      <trkpt lat="51.124621" lon="1.314845">
        <ele>-4.2</ele>
        <time>2026-04-25T04:01:23.000Z</time>
      </trkpt>
      <trkpt lat="51.124641" lon="1.314865">
        <ele>-4.2</ele>
        <time>2026-04-25T04:01:24.000Z</time>
      </trkpt>
      <trkpt lat="51.124636" lon="1.315013">
        <ele>-4</ele>
        <time>2026-04-25T04:01:27.000Z</time>
      </trkpt>
      <trkpt lat="51.12475" lon="1.315339">
        <ele>-3.6</ele>
        <time>2026-04-25T04:01:33.000Z</time>
      </trkpt>
      <trkpt lat="51.125196" lon="1.316372">
        <ele>-2.8</ele>
        <time>2026-04-25T04:01:54.000Z</time>
      </trkpt>
      <trkpt lat="51.125437" lon="1.316774">
        <ele>-2.2</ele>
        <time>2026-04-25T04:02:03.000Z</time>
      </trkpt>
      <trkpt lat="51.125723" lon="1.317139">
        <ele>-1.8</ele>
        <time>2026-04-25T04:02:13.000Z</time>
      </trkpt>
      <trkpt lat="51.125933" lon="1.31737">
        <ele>-1.4</ele>
        <time>2026-04-25T04:02:20.000Z</time>
      </trkpt>
      <trkpt lat="51.125971" lon="1.317367">
        <ele>-1.4</ele>
        <time>2026-04-25T04:02:21.000Z</time>
      </trkpt>
      <trkpt lat="51.125994" lon="1.317344">
        <ele>-1.4</ele>
        <time>2026-04-25T04:02:21.000Z</time>
      </trkpt>
      <trkpt lat="51.126223" lon="1.316971">
        <ele>-1.2</ele>
        <time>2026-04-25T04:02:30.000Z</time>
      </trkpt>
      <trkpt lat="51.126541" lon="1.316571">
        <ele>-1.4</ele>
        <time>2026-04-25T04:02:41.000Z</time>
      </trkpt>
      <trkpt lat="51.126607" lon="1.316532">
        <ele>-1.4</ele>
        <time>2026-04-25T04:02:43.000Z</time>
      </trkpt>
      <trkpt lat="51.126678" lon="1.316556">
        <ele>-1.4</ele>
        <time>2026-04-25T04:02:45.000Z</time>
      </trkpt>
      <trkpt lat="51.126714" lon="1.316604">
        <ele>-1.4</ele>
        <time>2026-04-25T04:02:46.000Z</time>
      </trkpt>
      <trkpt lat="51.126774" lon="1.316806">
        <ele>-1.2</ele>
        <time>2026-04-25T04:02:50.000Z</time>
      </trkpt>
      <trkpt lat="51.126784" lon="1.316961">
        <ele>-1</ele>
        <time>2026-04-25T04:02:52.000Z</time>
      </trkpt>
      <trkpt lat="51.126628" lon="1.317884">
        <ele>3.4</ele>
        <time>2026-04-25T04:03:08.000Z</time>
      </trkpt>
      <trkpt lat="51.126559" lon="1.318085">
        <ele>5</ele>
        <time>2026-04-25T04:03:12.000Z</time>
      </trkpt>
      <trkpt lat="51.126483" lon="1.318406">
        <ele>8.6</ele>
        <time>2026-04-25T04:03:18.000Z</time>
      </trkpt>
      <trkpt lat="51.126445" lon="1.318487">
        <ele>9.2</ele>
        <time>2026-04-25T04:03:20.000Z</time>
      </trkpt>
      <trkpt lat="51.126419" lon="1.318659">
        <ele>10.6</ele>
        <time>2026-04-25T04:03:23.000Z</time>
      </trkpt>
      <trkpt lat="51.126296" lon="1.319059">
        <ele>13</ele>
        <time>2026-04-25T04:03:30.000Z</time>
      </trkpt>
      <trkpt lat="51.126277" lon="1.319243">
        <ele>14</ele>
        <time>2026-04-25T04:03:33.000Z</time>
      </trkpt>
      <trkpt lat="51.126157" lon="1.319642">
        <ele>16.2</ele>
        <time>2026-04-25T04:03:41.000Z</time>
      </trkpt>
      <trkpt lat="51.126187" lon="1.319823">
        <ele>17.8</ele>
        <time>2026-04-25T04:03:44.000Z</time>
      </trkpt>
      <trkpt lat="51.126248" lon="1.319927">
        <ele>19.6</ele>
        <time>2026-04-25T04:03:46.000Z</time>
      </trkpt>
      <trkpt lat="51.126307" lon="1.31994">
        <ele>20.8</ele>
        <time>2026-04-25T04:03:48.000Z</time>
      </trkpt>
      <trkpt lat="51.126403" lon="1.319908">
        <ele>22</ele>
        <time>2026-04-25T04:03:50.000Z</time>
      </trkpt>
      <trkpt lat="51.126555" lon="1.319919">
        <ele>23.8</ele>
        <time>2026-04-25T04:03:54.000Z</time>
      </trkpt>
      <trkpt lat="51.12669" lon="1.319842">
        <ele>25.6</ele>
        <time>2026-04-25T04:03:58.000Z</time>
      </trkpt>
      <trkpt lat="51.126822" lon="1.319818">
        <ele>27.2</ele>
        <time>2026-04-25T04:04:02.000Z</time>
      </trkpt>
      <trkpt lat="51.126972" lon="1.319761">
        <ele>30</ele>
        <time>2026-04-25T04:04:06.000Z</time>
      </trkpt>
      <trkpt lat="51.127079" lon="1.319756">
        <ele>31.4</ele>
        <time>2026-04-25T04:04:09.000Z</time>
      </trkpt>
      <trkpt lat="51.127178" lon="1.319775">
        <ele>32.4</ele>
        <time>2026-04-25T04:04:11.000Z</time>
      </trkpt>
      <trkpt lat="51.12737" lon="1.319693">
        <ele>34.2</ele>
        <time>2026-04-25T04:04:17.000Z</time>
      </trkpt>
      <trkpt lat="51.127474" lon="1.319669">
        <ele>34.8</ele>
        <time>2026-04-25T04:04:20.000Z</time>
      </trkpt>
      <trkpt lat="51.127624" lon="1.319585">
        <ele>35.6</ele>
        <time>2026-04-25T04:04:24.000Z</time>
      </trkpt>
      <trkpt lat="51.127712" lon="1.319584">
        <ele>36.6</ele>
        <time>2026-04-25T04:04:26.000Z</time>
      </trkpt>
      <trkpt lat="51.127746" lon="1.319552">
        <ele>37.4</ele>
        <time>2026-04-25T04:04:27.000Z</time>
      </trkpt>
      <trkpt lat="51.127842" lon="1.319514">
        <ele>38.8</ele>
        <time>2026-04-25T04:04:30.000Z</time>
      </trkpt>
      <trkpt lat="51.128058" lon="1.31931">
        <ele>40.8</ele>
        <time>2026-04-25T04:04:37.000Z</time>
      </trkpt>
      <trkpt lat="51.128318" lon="1.319011">
        <ele>43.6</ele>
        <time>2026-04-25T04:04:45.000Z</time>
      </trkpt>
      <trkpt lat="51.12855" lon="1.318612">
        <ele>47</ele>
        <time>2026-04-25T04:04:54.000Z</time>
      </trkpt>
      <trkpt lat="51.128611" lon="1.318533">
        <ele>47.8</ele>
        <time>2026-04-25T04:04:56.000Z</time>
      </trkpt>
      <trkpt lat="51.128772" lon="1.318385">
        <ele>49</ele>
        <time>2026-04-25T04:05:01.000Z</time>
      </trkpt>
      <trkpt lat="51.128905" lon="1.318326">
        <ele>50.2</ele>
        <time>2026-04-25T04:05:05.000Z</time>
      </trkpt>
      <trkpt lat="51.129082" lon="1.318312">
        <ele>52</ele>
        <time>2026-04-25T04:05:10.000Z</time>
      </trkpt>
      <trkpt lat="51.129208" lon="1.318359">
        <ele>53.2</ele>
        <time>2026-04-25T04:05:13.000Z</time>
      </trkpt>
      <trkpt lat="51.12933" lon="1.318448">
        <ele>54.4</ele>
        <time>2026-04-25T04:05:17.000Z</time>
      </trkpt>
      <trkpt lat="51.129741" lon="1.318851">
        <ele>58.6</ele>
        <time>2026-04-25T04:05:30.000Z</time>
      </trkpt>
      <trkpt lat="51.129834" lon="1.318913">
        <ele>59.6</ele>
        <time>2026-04-25T04:05:32.000Z</time>
      </trkpt>
      <trkpt lat="51.130087" lon="1.319025">
        <ele>62</ele>
        <time>2026-04-25T04:05:39.000Z</time>
      </trkpt>
      <trkpt lat="51.130418" lon="1.319097">
        <ele>65</ele>
        <time>2026-04-25T04:05:48.000Z</time>
      </trkpt>
      <trkpt lat="51.130554" lon="1.319066">
        <ele>67.2</ele>
        <time>2026-04-25T04:05:52.000Z</time>
      </trkpt>
      <trkpt lat="51.130851" lon="1.318937">
        <ele>71.2</ele>
        <time>2026-04-25T04:06:00.000Z</time>
      </trkpt>
      <trkpt lat="51.131407" lon="1.318545">
        <ele>77</ele>
        <time>2026-04-25T04:06:16.000Z</time>
      </trkpt>
      <trkpt lat="51.131674" lon="1.318407">
        <ele>79.4</ele>
        <time>2026-04-25T04:06:24.000Z</time>
      </trkpt>
      <trkpt lat="51.13186" lon="1.318357">
        <ele>81.4</ele>
        <time>2026-04-25T04:06:29.000Z</time>
      </trkpt>
      <trkpt lat="51.132014" lon="1.318373">
        <ele>82.2</ele>
        <time>2026-04-25T04:06:33.000Z</time>
      </trkpt>
      <trkpt lat="51.132111" lon="1.318417">
        <ele>82.8</ele>
        <time>2026-04-25T04:06:36.000Z</time>
      </trkpt>
      <trkpt lat="51.132222" lon="1.318526">
        <ele>84</ele>
        <time>2026-04-25T04:06:39.000Z</time>
      </trkpt>
      <trkpt lat="51.132311" lon="1.318686">
        <ele>86.6</ele>
        <time>2026-04-25T04:06:43.000Z</time>
      </trkpt>
      <trkpt lat="51.132426" lon="1.319011">
        <ele>91.4</ele>
        <time>2026-04-25T04:06:49.000Z</time>
      </trkpt>
      <trkpt lat="51.132295" lon="1.319078">
        <ele>91.2</ele>
        <time>2026-04-25T04:06:53.000Z</time>
      </trkpt>
      <trkpt lat="51.13228" lon="1.319241">
        <ele>88.2</ele>
        <time>2026-04-25T04:06:55.000Z</time>
      </trkpt>
      <trkpt lat="51.132249" lon="1.319295">
        <ele>88.2</ele>
        <time>2026-04-25T04:06:57.000Z</time>
      </trkpt>
      <trkpt lat="51.13215" lon="1.319374">
        <ele>88.2</ele>
        <time>2026-04-25T04:07:00.000Z</time>
      </trkpt>
      <trkpt lat="51.132113" lon="1.319426">
        <ele>88.2</ele>
        <time>2026-04-25T04:07:01.000Z</time>
      </trkpt>
      <trkpt lat="51.131922" lon="1.319937">
        <ele>87.6</ele>
        <time>2026-04-25T04:07:11.000Z</time>
      </trkpt>
      <trkpt lat="51.131792" lon="1.320402">
        <ele>87.2</ele>
        <time>2026-04-25T04:07:19.000Z</time>
      </trkpt>
      <trkpt lat="51.131692" lon="1.320908">
        <ele>86.4</ele>
        <time>2026-04-25T04:07:28.000Z</time>
      </trkpt>
      <trkpt lat="51.131649" lon="1.321165">
        <ele>86</ele>
        <time>2026-04-25T04:07:33.000Z</time>
      </trkpt>
      <trkpt lat="51.131593" lon="1.32179">
        <ele>85.4</ele>
        <time>2026-04-25T04:07:43.000Z</time>
      </trkpt>
      <trkpt lat="51.131617" lon="1.322591">
        <ele>83.4</ele>
        <time>2026-04-25T04:07:57.000Z</time>
      </trkpt>
      <trkpt lat="51.131691" lon="1.323679">
        <ele>82</ele>
        <time>2026-04-25T04:08:15.000Z</time>
      </trkpt>
      <trkpt lat="51.131723" lon="1.32449">
        <ele>80.8</ele>
        <time>2026-04-25T04:08:29.000Z</time>
      </trkpt>
      <trkpt lat="51.131814" lon="1.325449">
        <ele>79.4</ele>
        <time>2026-04-25T04:08:45.000Z</time>
      </trkpt>
      <trkpt lat="51.131915" lon="1.326082">
        <ele>78</ele>
        <time>2026-04-25T04:08:56.000Z</time>
      </trkpt>
      <trkpt lat="51.132011" lon="1.326388">
        <ele>76.6</ele>
        <time>2026-04-25T04:09:02.000Z</time>
      </trkpt>
      <trkpt lat="51.132225" lon="1.326793">
        <ele>75.4</ele>
        <time>2026-04-25T04:09:11.000Z</time>
      </trkpt>
      <trkpt lat="51.132641" lon="1.327359">
        <ele>72.4</ele>
        <time>2026-04-25T04:09:25.000Z</time>
      </trkpt>
      <trkpt lat="51.133008" lon="1.327943">
        <ele>69.4</ele>
        <time>2026-04-25T04:09:39.000Z</time>
      </trkpt>
      <trkpt lat="51.133183" lon="1.328312">
        <ele>67.6</ele>
        <time>2026-04-25T04:09:47.000Z</time>
      </trkpt>
      <trkpt lat="51.133314" lon="1.32868">
        <ele>66.4</ele>
        <time>2026-04-25T04:09:54.000Z</time>
      </trkpt>
      <trkpt lat="51.133432" lon="1.329142">
        <ele>65.4</ele>
        <time>2026-04-25T04:10:02.000Z</time>
      </trkpt>
      <trkpt lat="51.133498" lon="1.329654">
        <ele>65</ele>
        <time>2026-04-25T04:10:11.000Z</time>
      </trkpt>
      <trkpt lat="51.133522" lon="1.330105">
        <ele>65.2</ele>
        <time>2026-04-25T04:10:19.000Z</time>
      </trkpt>
      <trkpt lat="51.13351" lon="1.33044">
        <ele>65.6</ele>
        <time>2026-04-25T04:10:24.000Z</time>
      </trkpt>
      <trkpt lat="51.133473" lon="1.33076">
        <ele>66</ele>
        <time>2026-04-25T04:10:30.000Z</time>
      </trkpt>
      <trkpt lat="51.133411" lon="1.330981">
        <ele>66.2</ele>
        <time>2026-04-25T04:10:34.000Z</time>
      </trkpt>
      <trkpt lat="51.133336" lon="1.33111">
        <ele>66.4</ele>
        <time>2026-04-25T04:10:37.000Z</time>
      </trkpt>
      <trkpt lat="51.133195" lon="1.331244">
        <ele>66.6</ele>
        <time>2026-04-25T04:10:41.000Z</time>
      </trkpt>
      <trkpt lat="51.133085" lon="1.331286">
        <ele>66.8</ele>
        <time>2026-04-25T04:10:44.000Z</time>
      </trkpt>
      <trkpt lat="51.133026" lon="1.33129">
        <ele>67.2</ele>
        <time>2026-04-25T04:10:46.000Z</time>
      </trkpt>
      <trkpt lat="51.132907" lon="1.33127">
        <ele>67.4</ele>
        <time>2026-04-25T04:10:49.000Z</time>
      </trkpt>
      <trkpt lat="51.132789" lon="1.331226">
        <ele>67.6</ele>
        <time>2026-04-25T04:10:52.000Z</time>
      </trkpt>
      <trkpt lat="51.132327" lon="1.330978">
        <ele>67.2</ele>
        <time>2026-04-25T04:11:05.000Z</time>
      </trkpt>
      <trkpt lat="51.132061" lon="1.330871">
        <ele>66.4</ele>
        <time>2026-04-25T04:11:12.000Z</time>
      </trkpt>
      <trkpt lat="51.131726" lon="1.330821">
        <ele>65</ele>
        <time>2026-04-25T04:11:21.000Z</time>
      </trkpt>
      <trkpt lat="51.131487" lon="1.330856">
        <ele>64.6</ele>
        <time>2026-04-25T04:11:28.000Z</time>
      </trkpt>
      <trkpt lat="51.131365" lon="1.330943">
        <ele>64.6</ele>
        <time>2026-04-25T04:11:31.000Z</time>
      </trkpt>
      <trkpt lat="51.131236" lon="1.33111">
        <ele>64.8</ele>
        <time>2026-04-25T04:11:36.000Z</time>
      </trkpt>
      <trkpt lat="51.131008" lon="1.331579">
        <ele>65.6</ele>
        <time>2026-04-25T04:11:46.000Z</time>
      </trkpt>
      <trkpt lat="51.130857" lon="1.331804">
        <ele>66.6</ele>
        <time>2026-04-25T04:11:51.000Z</time>
      </trkpt>
      <trkpt lat="51.130707" lon="1.331938">
        <ele>67.8</ele>
        <time>2026-04-25T04:11:56.000Z</time>
      </trkpt>
      <trkpt lat="51.130276" lon="1.332216">
        <ele>70.8</ele>
        <time>2026-04-25T04:12:08.000Z</time>
      </trkpt>
      <trkpt lat="51.130164" lon="1.332309">
        <ele>71.4</ele>
        <time>2026-04-25T04:12:12.000Z</time>
      </trkpt>
      <trkpt lat="51.130049" lon="1.332462">
        <ele>72.2</ele>
        <time>2026-04-25T04:12:16.000Z</time>
      </trkpt>
      <trkpt lat="51.130031" lon="1.332543">
        <ele>72.8</ele>
        <time>2026-04-25T04:12:17.000Z</time>
      </trkpt>
      <trkpt lat="51.130036" lon="1.332633">
        <ele>73</ele>
        <time>2026-04-25T04:12:19.000Z</time>
      </trkpt>
      <trkpt lat="51.130089" lon="1.332716">
        <ele>73.2</ele>
        <time>2026-04-25T04:12:20.000Z</time>
      </trkpt>
      <trkpt lat="51.130147" lon="1.332711">
        <ele>73.4</ele>
        <time>2026-04-25T04:12:22.000Z</time>
      </trkpt>
      <trkpt lat="51.130199" lon="1.332649">
        <ele>73.6</ele>
        <time>2026-04-25T04:12:24.000Z</time>
      </trkpt>
      <trkpt lat="51.130264" lon="1.332514">
        <ele>74</ele>
        <time>2026-04-25T04:12:27.000Z</time>
      </trkpt>
      <trkpt lat="51.130318" lon="1.33244">
        <ele>74.4</ele>
        <time>2026-04-25T04:12:29.000Z</time>
      </trkpt>
      <trkpt lat="51.130424" lon="1.332374">
        <ele>74.6</ele>
        <time>2026-04-25T04:12:32.000Z</time>
      </trkpt>
      <trkpt lat="51.130563" lon="1.332338">
        <ele>74.8</ele>
        <time>2026-04-25T04:12:35.000Z</time>
      </trkpt>
      <trkpt lat="51.130876" lon="1.332328">
        <ele>76.2</ele>
        <time>2026-04-25T04:12:44.000Z</time>
      </trkpt>
      <trkpt lat="51.131424" lon="1.33237">
        <ele>79</ele>
        <time>2026-04-25T04:12:58.000Z</time>
      </trkpt>
      <trkpt lat="51.131657" lon="1.332365">
        <ele>79.8</ele>
        <time>2026-04-25T04:13:05.000Z</time>
      </trkpt>
      <trkpt lat="51.131935" lon="1.332327">
        <ele>81.4</ele>
        <time>2026-04-25T04:13:12.000Z</time>
      </trkpt>
      <trkpt lat="51.132163" lon="1.33232">
        <ele>83</ele>
        <time>2026-04-25T04:13:18.000Z</time>
      </trkpt>
      <trkpt lat="51.132458" lon="1.332368">
        <ele>84.4</ele>
        <time>2026-04-25T04:13:26.000Z</time>
      </trkpt>
      <trkpt lat="51.132639" lon="1.332449">
        <ele>85.4</ele>
        <time>2026-04-25T04:13:31.000Z</time>
      </trkpt>
      <trkpt lat="51.132786" lon="1.332556">
        <ele>86.2</ele>
        <time>2026-04-25T04:13:35.000Z</time>
      </trkpt>
      <trkpt lat="51.132855" lon="1.332659">
        <ele>86.4</ele>
        <time>2026-04-25T04:13:38.000Z</time>
      </trkpt>
      <trkpt lat="51.132908" lon="1.33285">
        <ele>87.6</ele>
        <time>2026-04-25T04:13:41.000Z</time>
      </trkpt>
      <trkpt lat="51.132918" lon="1.333056">
        <ele>88.4</ele>
        <time>2026-04-25T04:13:45.000Z</time>
      </trkpt>
      <trkpt lat="51.132878" lon="1.333697">
        <ele>91.4</ele>
        <time>2026-04-25T04:13:56.000Z</time>
      </trkpt>
      <trkpt lat="51.132871" lon="1.334253">
        <ele>94.2</ele>
        <time>2026-04-25T04:14:05.000Z</time>
      </trkpt>
      <trkpt lat="51.13292" lon="1.334687">
        <ele>96</ele>
        <time>2026-04-25T04:14:12.000Z</time>
      </trkpt>
      <trkpt lat="51.132986" lon="1.33497">
        <ele>97.4</ele>
        <time>2026-04-25T04:14:17.000Z</time>
      </trkpt>
      <trkpt lat="51.133224" lon="1.335543">
        <ele>100.2</ele>
        <time>2026-04-25T04:14:29.000Z</time>
      </trkpt>
      <trkpt lat="51.133537" lon="1.336087">
        <ele>102.2</ele>
        <time>2026-04-25T04:14:41.000Z</time>
      </trkpt>
      <trkpt lat="51.133995" lon="1.337101">
        <ele>106</ele>
        <time>2026-04-25T04:15:02.000Z</time>
      </trkpt>
      <trkpt lat="51.134149" lon="1.337304">
        <ele>107.2</ele>
        <time>2026-04-25T04:15:08.000Z</time>
      </trkpt>
      <trkpt lat="51.13449" lon="1.337575">
        <ele>109.2</ele>
        <time>2026-04-25T04:15:18.000Z</time>
      </trkpt>
      <trkpt lat="51.134622" lon="1.337728">
        <ele>110.2</ele>
        <time>2026-04-25T04:15:22.000Z</time>
      </trkpt>
      <trkpt lat="51.134698" lon="1.337845">
        <ele>111</ele>
        <time>2026-04-25T04:15:25.000Z</time>
      </trkpt>
      <trkpt lat="51.134856" lon="1.338208">
        <ele>112.6</ele>
        <time>2026-04-25T04:15:32.000Z</time>
      </trkpt>
      <trkpt lat="51.134996" lon="1.338647">
        <ele>114.2</ele>
        <time>2026-04-25T04:15:41.000Z</time>
      </trkpt>
      <trkpt lat="51.135221" lon="1.339636">
        <ele>116</ele>
        <time>2026-04-25T04:15:58.000Z</time>
      </trkpt>
      <trkpt lat="51.135906" lon="1.342383">
        <ele>119.4</ele>
        <time>2026-04-25T04:16:48.000Z</time>
      </trkpt>
      <trkpt lat="51.136389" lon="1.343829">
        <ele>119</ele>
        <time>2026-04-25T04:17:15.000Z</time>
      </trkpt>
      <trkpt lat="51.137302" lon="1.346807">
        <ele>116.4</ele>
        <time>2026-04-25T04:18:11.000Z</time>
      </trkpt>
      <trkpt lat="51.137466" lon="1.347295">
        <ele>115.8</ele>
        <time>2026-04-25T04:18:20.000Z</time>
      </trkpt>
      <trkpt lat="51.137738" lon="1.348025">
        <ele>114.6</ele>
        <time>2026-04-25T04:18:34.000Z</time>
      </trkpt>
      <trkpt lat="51.137985" lon="1.348626">
        <ele>113.8</ele>
        <time>2026-04-25T04:18:46.000Z</time>
      </trkpt>
      <trkpt lat="51.140007" lon="1.352923">
        <ele>108</ele>
        <time>2026-04-25T04:20:16.000Z</time>
      </trkpt>
      <trkpt lat="51.142082" lon="1.356332">
        <ele>102.6</ele>
        <time>2026-04-25T04:21:36.000Z</time>
      </trkpt>
      <trkpt lat="51.14299" lon="1.357573">
        <ele>101.6</ele>
        <time>2026-04-25T04:22:08.000Z</time>
      </trkpt>
      <trkpt lat="51.143186" lon="1.357867">
        <ele>101.4</ele>
        <time>2026-04-25T04:22:15.000Z</time>
      </trkpt>
      <trkpt lat="51.143412" lon="1.358247">
        <ele>101.2</ele>
        <time>2026-04-25T04:22:24.000Z</time>
      </trkpt>
      <trkpt lat="51.144198" lon="1.359765">
        <ele>99.6</ele>
        <time>2026-04-25T04:22:56.000Z</time>
      </trkpt>
      <trkpt lat="51.145296" lon="1.361714">
        <ele>98.6</ele>
        <time>2026-04-25T04:23:40.000Z</time>
      </trkpt>
      <trkpt lat="51.145665" lon="1.362473">
        <ele>97.2</ele>
        <time>2026-04-25T04:23:56.000Z</time>
      </trkpt>
      <trkpt lat="51.146332" lon="1.36393">
        <ele>95</ele>
        <time>2026-04-25T04:24:27.000Z</time>
      </trkpt>
      <trkpt lat="51.146641" lon="1.364506">
        <ele>94.2</ele>
        <time>2026-04-25T04:24:39.000Z</time>
      </trkpt>
      <trkpt lat="51.148197" lon="1.367069">
        <ele>88.8</ele>
        <time>2026-04-25T04:25:39.000Z</time>
      </trkpt>
      <trkpt lat="51.14841" lon="1.367366">
        <ele>88.4</ele>
        <time>2026-04-25T04:25:47.000Z</time>
      </trkpt>
      <trkpt lat="51.148751" lon="1.367767">
        <ele>88.2</ele>
        <time>2026-04-25T04:25:58.000Z</time>
      </trkpt>
      <trkpt lat="51.149377" lon="1.368716">
        <ele>88</ele>
        <time>2026-04-25T04:26:21.000Z</time>
      </trkpt>
      <trkpt lat="51.149963" lon="1.369496">
        <ele>86.8</ele>
        <time>2026-04-25T04:26:41.000Z</time>
      </trkpt>
      <trkpt lat="51.150512" lon="1.370137">
        <ele>85.8</ele>
        <time>2026-04-25T04:27:00.000Z</time>
      </trkpt>
      <trkpt lat="51.151556" lon="1.371235">
        <ele>81.8</ele>
        <time>2026-04-25T04:27:33.000Z</time>
      </trkpt>
      <trkpt lat="51.151681" lon="1.371345">
        <ele>81.2</ele>
        <time>2026-04-25T04:27:37.000Z</time>
      </trkpt>
      <trkpt lat="51.152037" lon="1.371563">
        <ele>80.2</ele>
        <time>2026-04-25T04:27:47.000Z</time>
      </trkpt>
      <trkpt lat="51.152723" lon="1.372261">
        <ele>79.4</ele>
        <time>2026-04-25T04:28:09.000Z</time>
      </trkpt>
      <trkpt lat="51.15287" lon="1.372433">
        <ele>79.2</ele>
        <time>2026-04-25T04:28:13.000Z</time>
      </trkpt>
      <trkpt lat="51.153065" lon="1.372742">
        <ele>78.4</ele>
        <time>2026-04-25T04:28:21.000Z</time>
      </trkpt>
      <trkpt lat="51.153125" lon="1.37278">
        <ele>78.2</ele>
        <time>2026-04-25T04:28:23.000Z</time>
      </trkpt>
      <trkpt lat="51.153147" lon="1.372774">
        <ele>78</ele>
        <time>2026-04-25T04:28:23.000Z</time>
      </trkpt>
      <trkpt lat="51.15324" lon="1.372675">
        <ele>77</ele>
        <time>2026-04-25T04:28:26.000Z</time>
      </trkpt>
      <trkpt lat="51.153585" lon="1.372205">
        <ele>77.4</ele>
        <time>2026-04-25T04:28:38.000Z</time>
      </trkpt>
      <trkpt lat="51.153775" lon="1.371979">
        <ele>77.6</ele>
        <time>2026-04-25T04:28:45.000Z</time>
      </trkpt>
      <trkpt lat="51.154075" lon="1.371681">
        <ele>77.2</ele>
        <time>2026-04-25T04:28:54.000Z</time>
      </trkpt>
      <trkpt lat="51.154302" lon="1.371391">
        <ele>76.2</ele>
        <time>2026-04-25T04:29:02.000Z</time>
      </trkpt>
      <trkpt lat="51.154481" lon="1.371294">
        <ele>75.6</ele>
        <time>2026-04-25T04:29:07.000Z</time>
      </trkpt>
      <trkpt lat="51.154527" lon="1.371248">
        <ele>75.4</ele>
        <time>2026-04-25T04:29:08.000Z</time>
      </trkpt>
      <trkpt lat="51.154625" lon="1.371106">
        <ele>74.8</ele>
        <time>2026-04-25T04:29:12.000Z</time>
      </trkpt>
      <trkpt lat="51.154673" lon="1.371007">
        <ele>74.6</ele>
        <time>2026-04-25T04:29:14.000Z</time>
      </trkpt>
      <trkpt lat="51.154717" lon="1.370981">
        <ele>74.4</ele>
        <time>2026-04-25T04:29:15.000Z</time>
      </trkpt>
      <trkpt lat="51.154763" lon="1.370891">
        <ele>74.4</ele>
        <time>2026-04-25T04:29:17.000Z</time>
      </trkpt>
      <trkpt lat="51.154863" lon="1.370756">
        <ele>74</ele>
        <time>2026-04-25T04:29:21.000Z</time>
      </trkpt>
      <trkpt lat="51.15489" lon="1.370753">
        <ele>73.8</ele>
        <time>2026-04-25T04:29:21.000Z</time>
      </trkpt>
      <trkpt lat="51.155242" lon="1.371397">
        <ele>73.8</ele>
        <time>2026-04-25T04:29:36.000Z</time>
      </trkpt>
      <trkpt lat="51.155588" lon="1.371887">
        <ele>74.6</ele>
        <time>2026-04-25T04:29:48.000Z</time>
      </trkpt>
      <trkpt lat="51.155902" lon="1.372452">
        <ele>75.6</ele>
        <time>2026-04-25T04:30:01.000Z</time>
      </trkpt>
      <trkpt lat="51.156351" lon="1.373148">
        <ele>76.8</ele>
        <time>2026-04-25T04:30:17.000Z</time>
      </trkpt>
      <trkpt lat="51.156606" lon="1.37348">
        <ele>77.2</ele>
        <time>2026-04-25T04:30:26.000Z</time>
      </trkpt>
      <trkpt lat="51.156913" lon="1.373836">
        <ele>78.2</ele>
        <time>2026-04-25T04:30:36.000Z</time>
      </trkpt>
      <trkpt lat="51.157757" lon="1.374978">
        <ele>77.6</ele>
        <time>2026-04-25T04:31:06.000Z</time>
      </trkpt>
      <trkpt lat="51.158039" lon="1.375485">
        <ele>75.6</ele>
        <time>2026-04-25T04:31:17.000Z</time>
      </trkpt>
      <trkpt lat="51.158437" lon="1.376299">
        <ele>73.8</ele>
        <time>2026-04-25T04:31:34.000Z</time>
      </trkpt>
      <trkpt lat="51.15862" lon="1.376636">
        <ele>73.4</ele>
        <time>2026-04-25T04:31:42.000Z</time>
      </trkpt>
      <trkpt lat="51.159494" lon="1.378041">
        <ele>70.8</ele>
        <time>2026-04-25T04:32:15.000Z</time>
      </trkpt>
      <trkpt lat="51.160087" lon="1.378939">
        <ele>70</ele>
        <time>2026-04-25T04:32:37.000Z</time>
      </trkpt>
      <trkpt lat="51.161027" lon="1.380308">
        <ele>68.2</ele>
        <time>2026-04-25T04:33:11.000Z</time>
      </trkpt>
      <trkpt lat="51.161601" lon="1.381232">
        <ele>66.2</ele>
        <time>2026-04-25T04:33:33.000Z</time>
      </trkpt>
      <trkpt lat="51.161966" lon="1.381784">
        <ele>64.4</ele>
        <time>2026-04-25T04:33:46.000Z</time>
      </trkpt>
      <trkpt lat="51.162138" lon="1.382014">
        <ele>63.8</ele>
        <time>2026-04-25T04:33:52.000Z</time>
      </trkpt>
      <trkpt lat="51.162491" lon="1.382391">
        <ele>62.8</ele>
        <time>2026-04-25T04:34:03.000Z</time>
      </trkpt>
      <trkpt lat="51.162779" lon="1.382759">
        <ele>62</ele>
        <time>2026-04-25T04:34:13.000Z</time>
      </trkpt>
      <trkpt lat="51.163627" lon="1.384095">
        <ele>59.4</ele>
        <time>2026-04-25T04:34:45.000Z</time>
      </trkpt>
      <trkpt lat="51.163767" lon="1.38424">
        <ele>59</ele>
        <time>2026-04-25T04:34:49.000Z</time>
      </trkpt>
      <trkpt lat="51.163954" lon="1.384354">
        <ele>58.6</ele>
        <time>2026-04-25T04:34:55.000Z</time>
      </trkpt>
      <trkpt lat="51.165102" lon="1.384923">
        <ele>53.4</ele>
        <time>2026-04-25T04:35:27.000Z</time>
      </trkpt>
      <trkpt lat="51.16573" lon="1.385273">
        <ele>49.8</ele>
        <time>2026-04-25T04:35:45.000Z</time>
      </trkpt>
      <trkpt lat="51.167309" lon="1.386358">
        <ele>39</ele>
        <time>2026-04-25T04:36:31.000Z</time>
      </trkpt>
      <trkpt lat="51.168098" lon="1.386847">
        <ele>32.2</ele>
        <time>2026-04-25T04:36:53.000Z</time>
      </trkpt>
      <trkpt lat="51.168585" lon="1.387346">
        <ele>28.6</ele>
        <time>2026-04-25T04:37:09.000Z</time>
      </trkpt>
      <trkpt lat="51.168901" lon="1.387732">
        <ele>26.2</ele>
        <time>2026-04-25T04:37:19.000Z</time>
      </trkpt>
      <trkpt lat="51.169571" lon="1.388492">
        <ele>24.2</ele>
        <time>2026-04-25T04:37:41.000Z</time>
      </trkpt>
      <trkpt lat="51.169988" lon="1.389025">
        <ele>23.2</ele>
        <time>2026-04-25T04:37:55.000Z</time>
      </trkpt>
      <trkpt lat="51.17019" lon="1.38922">
        <ele>22.2</ele>
        <time>2026-04-25T04:38:02.000Z</time>
      </trkpt>
      <trkpt lat="51.170752" lon="1.390035">
        <ele>20.6</ele>
        <time>2026-04-25T04:38:22.000Z</time>
      </trkpt>
      <trkpt lat="51.171286" lon="1.390924">
        <ele>21</ele>
        <time>2026-04-25T04:38:43.000Z</time>
      </trkpt>
      <trkpt lat="51.171748" lon="1.391554">
        <ele>21</ele>
        <time>2026-04-25T04:38:59.000Z</time>
      </trkpt>
      <trkpt lat="51.172145" lon="1.39199">
        <ele>20.2</ele>
        <time>2026-04-25T04:39:12.000Z</time>
      </trkpt>
      <trkpt lat="51.172704" lon="1.392778">
        <ele>17.6</ele>
        <time>2026-04-25T04:39:32.000Z</time>
      </trkpt>
      <trkpt lat="51.172917" lon="1.393108">
        <ele>16.8</ele>
        <time>2026-04-25T04:39:40.000Z</time>
      </trkpt>
      <trkpt lat="51.173233" lon="1.393525">
        <ele>15.4</ele>
        <time>2026-04-25T04:39:51.000Z</time>
      </trkpt>
      <trkpt lat="51.173729" lon="1.394237">
        <ele>14</ele>
        <time>2026-04-25T04:40:08.000Z</time>
      </trkpt>
      <trkpt lat="51.174228" lon="1.395035">
        <ele>12.8</ele>
        <time>2026-04-25T04:40:27.000Z</time>
      </trkpt>
      <trkpt lat="51.174747" lon="1.395749">
        <ele>12.2</ele>
        <time>2026-04-25T04:40:46.000Z</time>
      </trkpt>
      <trkpt lat="51.174993" lon="1.396131">
        <ele>11.8</ele>
        <time>2026-04-25T04:40:55.000Z</time>
      </trkpt>
      <trkpt lat="51.1752" lon="1.396497">
        <ele>11.2</ele>
        <time>2026-04-25T04:41:03.000Z</time>
      </trkpt>
      <trkpt lat="51.175799" lon="1.397351">
        <ele>10.8</ele>
        <time>2026-04-25T04:41:24.000Z</time>
      </trkpt>
      <trkpt lat="51.176669" lon="1.398643">
        <ele>11</ele>
        <time>2026-04-25T04:41:56.000Z</time>
      </trkpt>
      <trkpt lat="51.176986" lon="1.399036">
        <ele>11.4</ele>
        <time>2026-04-25T04:42:07.000Z</time>
      </trkpt>
      <trkpt lat="51.177225" lon="1.399268">
        <ele>11.4</ele>
        <time>2026-04-25T04:42:14.000Z</time>
      </trkpt>
      <trkpt lat="51.177393" lon="1.399521">
        <ele>11.8</ele>
        <time>2026-04-25T04:42:20.000Z</time>
      </trkpt>
      <trkpt lat="51.177807" lon="1.399997">
        <ele>11.4</ele>
        <time>2026-04-25T04:42:34.000Z</time>
      </trkpt>
      <trkpt lat="51.178077" lon="1.400373">
        <ele>10.8</ele>
        <time>2026-04-25T04:42:44.000Z</time>
      </trkpt>
      <trkpt lat="51.178535" lon="1.400911">
        <ele>9.6</ele>
        <time>2026-04-25T04:42:59.000Z</time>
      </trkpt>
      <trkpt lat="51.178789" lon="1.401308">
        <ele>8.6</ele>
        <time>2026-04-25T04:43:08.000Z</time>
      </trkpt>
      <trkpt lat="51.179021" lon="1.401726">
        <ele>8.2</ele>
        <time>2026-04-25T04:43:18.000Z</time>
      </trkpt>
      <trkpt lat="51.17947" lon="1.402457">
        <ele>7.8</ele>
        <time>2026-04-25T04:43:35.000Z</time>
      </trkpt>
      <trkpt lat="51.18008" lon="1.403613">
        <ele>5.2</ele>
        <time>2026-04-25T04:44:00.000Z</time>
      </trkpt>
      <trkpt lat="51.180155" lon="1.403709">
        <ele>4.6</ele>
        <time>2026-04-25T04:44:03.000Z</time>
      </trkpt>
      <trkpt lat="51.180213" lon="1.403734">
        <ele>4.2</ele>
        <time>2026-04-25T04:44:04.000Z</time>
      </trkpt>
      <trkpt lat="51.180335" lon="1.403733">
        <ele>3</ele>
        <time>2026-04-25T04:44:08.000Z</time>
      </trkpt>
      <trkpt lat="51.180415" lon="1.40377">
        <ele>1</ele>
        <time>2026-04-25T04:44:10.000Z</time>
      </trkpt>
      <trkpt lat="51.180514" lon="1.403682">
        <ele>-2</ele>
        <time>2026-04-25T04:44:13.000Z</time>
      </trkpt>
      <trkpt lat="51.18061" lon="1.403635">
        <ele>-2</ele>
        <time>2026-04-25T04:44:15.000Z</time>
      </trkpt>
      <trkpt lat="51.180837" lon="1.40357">
        <ele>-2.2</ele>
        <time>2026-04-25T04:44:22.000Z</time>
      </trkpt>
      <trkpt lat="51.180955" lon="1.403557">
        <ele>-2.2</ele>
        <time>2026-04-25T04:44:25.000Z</time>
      </trkpt>
      <trkpt lat="51.181285" lon="1.403637">
        <ele>-2.4</ele>
        <time>2026-04-25T04:44:34.000Z</time>
      </trkpt>
      <trkpt lat="51.181666" lon="1.403784">
        <ele>-2.4</ele>
        <time>2026-04-25T04:44:44.000Z</time>
      </trkpt>
      <trkpt lat="51.18194" lon="1.403859">
        <ele>-2</ele>
        <time>2026-04-25T04:44:52.000Z</time>
      </trkpt>
      <trkpt lat="51.182502" lon="1.403904">
        <ele>-1.6</ele>
        <time>2026-04-25T04:45:07.000Z</time>
      </trkpt>
      <trkpt lat="51.183047" lon="1.403879">
        <ele>-1.4</ele>
        <time>2026-04-25T04:45:21.000Z</time>
      </trkpt>
      <trkpt lat="51.183319" lon="1.403798">
        <ele>-1.4</ele>
        <time>2026-04-25T04:45:29.000Z</time>
      </trkpt>
      <trkpt lat="51.184089" lon="1.403484">
        <ele>-0.60000000000002</ele>
        <time>2026-04-25T04:45:50.000Z</time>
      </trkpt>
      <trkpt lat="51.184361" lon="1.40343">
        <ele>-0.60000000000002</ele>
        <time>2026-04-25T04:45:57.000Z</time>
      </trkpt>
      <trkpt lat="51.184856" lon="1.403285">
        <ele>-0.60000000000002</ele>
        <time>2026-04-25T04:46:10.000Z</time>
      </trkpt>
      <trkpt lat="51.185202" lon="1.403227">
        <ele>-0.39999999999998</ele>
        <time>2026-04-25T04:46:20.000Z</time>
      </trkpt>
      <trkpt lat="51.185726" lon="1.40307">
        <ele>-0.39999999999998</ele>
        <time>2026-04-25T04:46:34.000Z</time>
      </trkpt>
      <trkpt lat="51.186331" lon="1.402957">
        <ele>0.19999999999999</ele>
        <time>2026-04-25T04:46:50.000Z</time>
      </trkpt>
      <trkpt lat="51.187494" lon="1.40279">
        <ele>-1</ele>
        <time>2026-04-25T04:47:21.000Z</time>
      </trkpt>
      <trkpt lat="51.188152" lon="1.40266">
        <ele>-1</ele>
        <time>2026-04-25T04:47:39.000Z</time>
      </trkpt>
      <trkpt lat="51.188958" lon="1.402527">
        <ele>-1.6</ele>
        <time>2026-04-25T04:48:01.000Z</time>
      </trkpt>
      <trkpt lat="51.189403" lon="1.402531">
        <ele>-1.6</ele>
        <time>2026-04-25T04:48:13.000Z</time>
      </trkpt>
      <trkpt lat="51.189977" lon="1.40247">
        <ele>-1.8</ele>
        <time>2026-04-25T04:48:28.000Z</time>
      </trkpt>
      <trkpt lat="51.192137" lon="1.402358">
        <ele>-1.4</ele>
        <time>2026-04-25T04:49:26.000Z</time>
      </trkpt>
      <trkpt lat="51.19375" lon="1.402348">
        <ele>-1</ele>
        <time>2026-04-25T04:50:09.000Z</time>
      </trkpt>
      <trkpt lat="51.19463" lon="1.402432">
        <ele>-0.60000000000002</ele>
        <time>2026-04-25T04:50:32.000Z</time>
      </trkpt>
      <trkpt lat="51.194839" lon="1.402438">
        <ele>-0.60000000000002</ele>
        <time>2026-04-25T04:50:38.000Z</time>
      </trkpt>
      <trkpt lat="51.19524" lon="1.402426">
        <ele>-0.60000000000002</ele>
        <time>2026-04-25T04:50:49.000Z</time>
      </trkpt>
      <trkpt lat="51.1961" lon="1.402359">
        <ele>-1.4</ele>
        <time>2026-04-25T04:51:12.000Z</time>
      </trkpt>
      <trkpt lat="51.196689" lon="1.402295">
        <ele>-1.4</ele>
        <time>2026-04-25T04:51:27.000Z</time>
      </trkpt>
      <trkpt lat="51.197842" lon="1.402313">
        <ele>-1.2</ele>
        <time>2026-04-25T04:51:58.000Z</time>
      </trkpt>
      <trkpt lat="51.198566" lon="1.402347">
        <ele>-1.6</ele>
        <time>2026-04-25T04:52:17.000Z</time>
      </trkpt>
      <trkpt lat="51.199554" lon="1.402302">
        <ele>-2.2</ele>
        <time>2026-04-25T04:52:44.000Z</time>
      </trkpt>
      <trkpt lat="51.199791" lon="1.402327">
        <ele>-2.2</ele>
        <time>2026-04-25T04:52:50.000Z</time>
      </trkpt>
      <trkpt lat="51.200004" lon="1.402383">
        <ele>-2.2</ele>
        <time>2026-04-25T04:52:56.000Z</time>
      </trkpt>
      <trkpt lat="51.200117" lon="1.402444">
        <ele>-2.2</ele>
        <time>2026-04-25T04:52:59.000Z</time>
      </trkpt>
      <trkpt lat="51.200379" lon="1.402685">
        <ele>-2.2</ele>
        <time>2026-04-25T04:53:07.000Z</time>
      </trkpt>
      <trkpt lat="51.200488" lon="1.402766">
        <ele>-2.2</ele>
        <time>2026-04-25T04:53:10.000Z</time>
      </trkpt>
      <trkpt lat="51.200595" lon="1.402809">
        <ele>-2.2</ele>
        <time>2026-04-25T04:53:13.000Z</time>
      </trkpt>
      <trkpt lat="51.200666" lon="1.402818">
        <ele>-2</ele>
        <time>2026-04-25T04:53:15.000Z</time>
      </trkpt>
      <trkpt lat="51.200783" lon="1.402793">
        <ele>-2</ele>
        <time>2026-04-25T04:53:18.000Z</time>
      </trkpt>
      <trkpt lat="51.201104" lon="1.402656">
        <ele>-2.2</ele>
        <time>2026-04-25T04:53:27.000Z</time>
      </trkpt>
      <trkpt lat="51.201349" lon="1.402428">
        <ele>-2</ele>
        <time>2026-04-25T04:53:35.000Z</time>
      </trkpt>
      <trkpt lat="51.201501" lon="1.402319">
        <ele>-2</ele>
        <time>2026-04-25T04:53:39.000Z</time>
      </trkpt>
      <trkpt lat="51.201621" lon="1.402272">
        <ele>-2</ele>
        <time>2026-04-25T04:53:43.000Z</time>
      </trkpt>
      <trkpt lat="51.20183" lon="1.402255">
        <ele>-2</ele>
        <time>2026-04-25T04:53:48.000Z</time>
      </trkpt>
      <trkpt lat="51.202104" lon="1.402265">
        <ele>-2.6</ele>
        <time>2026-04-25T04:53:55.000Z</time>
      </trkpt>
      <trkpt lat="51.202619" lon="1.402254">
        <ele>-4.4</ele>
        <time>2026-04-25T04:54:09.000Z</time>
      </trkpt>
      <trkpt lat="51.202943" lon="1.402272">
        <ele>-5.2</ele>
        <time>2026-04-25T04:54:18.000Z</time>
      </trkpt>
      <trkpt lat="51.203279" lon="1.402264">
        <ele>-5.6</ele>
        <time>2026-04-25T04:54:27.000Z</time>
      </trkpt>
      <trkpt lat="51.203799" lon="1.402336">
        <ele>-6.2</ele>
        <time>2026-04-25T04:54:41.000Z</time>
      </trkpt>
      <trkpt lat="51.204578" lon="1.402367">
        <ele>-6</ele>
        <time>2026-04-25T04:55:02.000Z</time>
      </trkpt>
      <trkpt lat="51.205016" lon="1.402406">
        <ele>-5.8</ele>
        <time>2026-04-25T04:55:13.000Z</time>
      </trkpt>
      <trkpt lat="51.206102" lon="1.40236">
        <ele>-5.6</ele>
        <time>2026-04-25T04:55:42.000Z</time>
      </trkpt>
      <trkpt lat="51.206402" lon="1.402426">
        <ele>-5.2</ele>
        <time>2026-04-25T04:55:50.000Z</time>
      </trkpt>
      <trkpt lat="51.207005" lon="1.40268">
        <ele>-4</ele>
        <time>2026-04-25T04:56:07.000Z</time>
      </trkpt>
      <trkpt lat="51.207248" lon="1.402741">
        <ele>-3.4</ele>
        <time>2026-04-25T04:56:14.000Z</time>
      </trkpt>
      <trkpt lat="51.207415" lon="1.402729">
        <ele>-3.2</ele>
        <time>2026-04-25T04:56:18.000Z</time>
      </trkpt>
      <trkpt lat="51.207969" lon="1.402598">
        <ele>-2.4</ele>
        <time>2026-04-25T04:56:33.000Z</time>
      </trkpt>
      <trkpt lat="51.208731" lon="1.402601">
        <ele>-2.2</ele>
        <time>2026-04-25T04:56:53.000Z</time>
      </trkpt>
      <trkpt lat="51.212216" lon="1.402709">
        <ele>-1.6</ele>
        <time>2026-04-25T04:58:26.000Z</time>
      </trkpt>
      <trkpt lat="51.212701" lon="1.402645">
        <ele>-2</ele>
        <time>2026-04-25T04:58:39.000Z</time>
      </trkpt>
      <trkpt lat="51.212787" lon="1.40267">
        <ele>-2.2</ele>
        <time>2026-04-25T04:58:42.000Z</time>
      </trkpt>
      <trkpt lat="51.212813" lon="1.402816">
        <ele>-2.4</ele>
        <time>2026-04-25T04:58:44.000Z</time>
      </trkpt>
      <trkpt lat="51.212807" lon="1.402935">
        <ele>-1.8</ele>
        <time>2026-04-25T04:58:46.000Z</time>
      </trkpt>
      <trkpt lat="51.212788" lon="1.402774">
        <ele>-2</ele>
        <time>2026-04-25T04:58:49.000Z</time>
      </trkpt>
      <trkpt lat="51.212717" lon="1.402674">
        <ele>-2.2</ele>
        <time>2026-04-25T04:58:52.000Z</time>
      </trkpt>
      <trkpt lat="51.212789" lon="1.402606">
        <ele>-2</ele>
        <time>2026-04-25T04:58:54.000Z</time>
      </trkpt>
      <trkpt lat="51.212822" lon="1.402538">
        <ele>-2</ele>
        <time>2026-04-25T04:58:55.000Z</time>
      </trkpt>
      <trkpt lat="51.212727" lon="1.402487">
        <ele>-1.4</ele>
        <time>2026-04-25T04:58:58.000Z</time>
      </trkpt>
      <trkpt lat="51.212646" lon="1.402405">
        <ele>-1.2</ele>
        <time>2026-04-25T04:59:00.000Z</time>
      </trkpt>
      <trkpt lat="51.212661" lon="1.402386">
        <ele>-1.2</ele>
        <time>2026-04-25T04:59:01.000Z</time>
      </trkpt>
      <trkpt lat="51.212723" lon="1.40239">
        <ele>-1</ele>
        <time>2026-04-25T04:59:03.000Z</time>
      </trkpt>
      <trkpt lat="51.212771" lon="1.402347">
        <ele>-0.80000000000001</ele>
        <time>2026-04-25T04:59:04.000Z</time>
      </trkpt>
      <trkpt lat="51.212885" lon="1.402297">
        <ele>-1</ele>
        <time>2026-04-25T04:59:07.000Z</time>
      </trkpt>
      <trkpt lat="51.212928" lon="1.402314">
        <ele>-0.60000000000002</ele>
        <time>2026-04-25T04:59:08.000Z</time>
      </trkpt>
      <trkpt lat="51.21291" lon="1.402322">
        <ele>0.60000000000002</ele>
        <time>2026-04-25T04:59:09.000Z</time>
      </trkpt>
      <trkpt lat="51.212914" lon="1.402338">
        <ele>-0.60000000000002</ele>
        <time>2026-04-25T04:59:09.000Z</time>
      </trkpt>
      <trkpt lat="51.212953" lon="1.402381">
        <ele>-0.60000000000002</ele>
        <time>2026-04-25T04:59:10.000Z</time>
      </trkpt>
      <trkpt lat="51.213203" lon="1.402455">
        <ele>-0.39999999999998</ele>
        <time>2026-04-25T04:59:17.000Z</time>
      </trkpt>
      <trkpt lat="51.213505" lon="1.402507">
        <ele>-0.80000000000001</ele>
        <time>2026-04-25T04:59:25.000Z</time>
      </trkpt>
      <trkpt lat="51.214066" lon="1.402527">
        <ele>-0.60000000000002</ele>
        <time>2026-04-25T04:59:40.000Z</time>
      </trkpt>
      <trkpt lat="51.216596" lon="1.402692">
        <ele>-0.39999999999998</ele>
        <time>2026-04-25T05:00:48.000Z</time>
      </trkpt>
      <trkpt lat="51.217165" lon="1.402711">
        <ele>-0.60000000000002</ele>
        <time>2026-04-25T05:01:03.000Z</time>
      </trkpt>
      <trkpt lat="51.217953" lon="1.402771">
        <ele>-0.80000000000001</ele>
        <time>2026-04-25T05:01:24.000Z</time>
      </trkpt>
      <trkpt lat="51.218353" lon="1.402773">
        <ele>-0.80000000000001</ele>
        <time>2026-04-25T05:01:35.000Z</time>
      </trkpt>
      <trkpt lat="51.21912" lon="1.402734">
        <ele>-0.60000000000002</ele>
        <time>2026-04-25T05:01:55.000Z</time>
      </trkpt>
      <trkpt lat="51.219552" lon="1.402705">
        <ele>-0.80000000000001</ele>
        <time>2026-04-25T05:02:07.000Z</time>
      </trkpt>
      <trkpt lat="51.220043" lon="1.402643">
        <ele>-1.2</ele>
        <time>2026-04-25T05:02:20.000Z</time>
      </trkpt>
      <trkpt lat="51.220377" lon="1.402647">
        <ele>-1.6</ele>
        <time>2026-04-25T05:02:29.000Z</time>
      </trkpt>
      <trkpt lat="51.220442" lon="1.402665">
        <ele>-1.6</ele>
        <time>2026-04-25T05:02:31.000Z</time>
      </trkpt>
      <trkpt lat="51.2205" lon="1.40272">
        <ele>-1.8</ele>
        <time>2026-04-25T05:02:32.000Z</time>
      </trkpt>
      <trkpt lat="51.220578" lon="1.402875">
        <ele>-1.8</ele>
        <time>2026-04-25T05:02:36.000Z</time>
      </trkpt>
      <trkpt lat="51.220542" lon="1.403067">
        <ele>-2</ele>
        <time>2026-04-25T05:02:39.000Z</time>
      </trkpt>
      <trkpt lat="51.220445" lon="1.404225">
        <ele>-1.4</ele>
        <time>2026-04-25T05:02:59.000Z</time>
      </trkpt>
      <trkpt lat="51.220441" lon="1.404341">
        <ele>-1.2</ele>
        <time>2026-04-25T05:03:01.000Z</time>
      </trkpt>
      <trkpt lat="51.220473" lon="1.404416">
        <ele>-0.80000000000001</ele>
        <time>2026-04-25T05:03:02.000Z</time>
      </trkpt>
      <trkpt lat="51.220543" lon="1.404432">
        <ele>-0.60000000000002</ele>
        <time>2026-04-25T05:03:04.000Z</time>
      </trkpt>
      <trkpt lat="51.220739" lon="1.404419">
        <ele>-0.19999999999999</ele>
        <time>2026-04-25T05:03:09.000Z</time>
      </trkpt>
      <trkpt lat="51.221787" lon="1.404562">
        <ele>-0.39999999999998</ele>
        <time>2026-04-25T05:03:37.000Z</time>
      </trkpt>
      <trkpt lat="51.222098" lon="1.404577">
        <ele>-0.39999999999998</ele>
        <time>2026-04-25T05:03:46.000Z</time>
      </trkpt>
      <trkpt lat="51.222868" lon="1.40458">
        <ele>-0.19999999999999</ele>
        <time>2026-04-25T05:04:06.000Z</time>
      </trkpt>
      <trkpt lat="51.222923" lon="1.40457">
        <ele>-0.19999999999999</ele>
        <time>2026-04-25T05:04:08.000Z</time>
      </trkpt>
      <trkpt lat="51.22298" lon="1.404528">
        <ele>-0.19999999999999</ele>
        <time>2026-04-25T05:04:09.000Z</time>
      </trkpt>
      <trkpt lat="51.223086" lon="1.404366">
        <ele>-0.39999999999998</ele>
        <time>2026-04-25T05:04:13.000Z</time>
      </trkpt>
      <trkpt lat="51.223167" lon="1.404324">
        <ele>-0.39999999999998</ele>
        <time>2026-04-25T05:04:16.000Z</time>
      </trkpt>
      <trkpt lat="51.223229" lon="1.404332">
        <ele>-0.39999999999998</ele>
        <time>2026-04-25T05:04:17.000Z</time>
      </trkpt>
      <trkpt lat="51.223515" lon="1.40445">
        <ele>-0.39999999999998</ele>
        <time>2026-04-25T05:04:25.000Z</time>
      </trkpt>
      <trkpt lat="51.223688" lon="1.404457">
        <ele>-0.39999999999998</ele>
        <time>2026-04-25T05:04:30.000Z</time>
      </trkpt>
      <trkpt lat="51.224273" lon="1.404367">
        <ele>0.19999999999999</ele>
        <time>2026-04-25T05:04:45.000Z</time>
      </trkpt>
      <trkpt lat="51.224702" lon="1.404241">
        <ele>0.19999999999999</ele>
        <time>2026-04-25T05:04:57.000Z</time>
      </trkpt>
      <trkpt lat="51.22497" lon="1.404189">
        <ele>0.60000000000002</ele>
        <time>2026-04-25T05:05:04.000Z</time>
      </trkpt>
      <trkpt lat="51.22525" lon="1.404109">
        <ele>1</ele>
        <time>2026-04-25T05:05:12.000Z</time>
      </trkpt>
      <trkpt lat="51.225388" lon="1.404089">
        <ele>1.2</ele>
        <time>2026-04-25T05:05:16.000Z</time>
      </trkpt>
      <trkpt lat="51.225534" lon="1.404093">
        <ele>1.2</ele>
        <time>2026-04-25T05:05:19.000Z</time>
      </trkpt>
      <trkpt lat="51.225748" lon="1.40418">
        <ele>1.2</ele>
        <time>2026-04-25T05:05:25.000Z</time>
      </trkpt>
      <trkpt lat="51.226037" lon="1.404223">
        <ele>1.2</ele>
        <time>2026-04-25T05:05:33.000Z</time>
      </trkpt>
      <trkpt lat="51.226377" lon="1.404307">
        <ele>1.2</ele>
        <time>2026-04-25T05:05:42.000Z</time>
      </trkpt>
      <trkpt lat="51.226696" lon="1.404351">
        <ele>1.2</ele>
        <time>2026-04-25T05:05:51.000Z</time>
      </trkpt>
      <trkpt lat="51.227962" lon="1.404412">
        <ele>1</ele>
        <time>2026-04-25T05:06:25.000Z</time>
      </trkpt>
      <trkpt lat="51.228379" lon="1.404409">
        <ele>1.2</ele>
        <time>2026-04-25T05:06:36.000Z</time>
      </trkpt>
      <trkpt lat="51.228617" lon="1.404431">
        <ele>1.2</ele>
        <time>2026-04-25T05:06:42.000Z</time>
      </trkpt>
      <trkpt lat="51.228967" lon="1.404489">
        <ele>1</ele>
        <time>2026-04-25T05:06:52.000Z</time>
      </trkpt>
      <trkpt lat="51.229593" lon="1.404475">
        <ele>1.4</ele>
        <time>2026-04-25T05:07:08.000Z</time>
      </trkpt>
      <trkpt lat="51.230793" lon="1.404279">
        <ele>1.2</ele>
        <time>2026-04-25T05:07:40.000Z</time>
      </trkpt>
      <trkpt lat="51.231398" lon="1.404151">
        <ele>1</ele>
        <time>2026-04-25T05:07:57.000Z</time>
      </trkpt>
      <trkpt lat="51.231461" lon="1.404144">
        <ele>1.2</ele>
        <time>2026-04-25T05:07:58.000Z</time>
      </trkpt>
      <trkpt lat="51.231669" lon="1.404199">
        <ele>1.2</ele>
        <time>2026-04-25T05:08:04.000Z</time>
      </trkpt>
      <trkpt lat="51.231802" lon="1.404211">
        <ele>1.2</ele>
        <time>2026-04-25T05:08:08.000Z</time>
      </trkpt>
      <trkpt lat="51.232816" lon="1.404037">
        <ele>1</ele>
        <time>2026-04-25T05:08:35.000Z</time>
      </trkpt>
      <trkpt lat="51.234679" lon="1.403661">
        <ele>0.80000000000001</ele>
        <time>2026-04-25T05:09:25.000Z</time>
      </trkpt>
      <trkpt lat="51.235561" lon="1.403378">
        <ele>0.19999999999999</ele>
        <time>2026-04-25T05:09:49.000Z</time>
      </trkpt>
      <trkpt lat="51.235676" lon="1.403329">
        <ele>0.19999999999999</ele>
        <time>2026-04-25T05:09:52.000Z</time>
      </trkpt>
      <trkpt lat="51.235726" lon="1.403291">
        <ele>0.19999999999999</ele>
        <time>2026-04-25T05:09:54.000Z</time>
      </trkpt>
      <trkpt lat="51.235762" lon="1.403222">
        <ele>0.19999999999999</ele>
        <time>2026-04-25T05:09:55.000Z</time>
      </trkpt>
      <trkpt lat="51.235777" lon="1.403131">
        <ele>0.19999999999999</ele>
        <time>2026-04-25T05:09:57.000Z</time>
      </trkpt>
      <trkpt lat="51.23569" lon="1.401225">
        <ele>-2</ele>
        <time>2026-04-25T05:10:29.000Z</time>
      </trkpt>
      <trkpt lat="51.235671" lon="1.400317">
        <ele>-2.4</ele>
        <time>2026-04-25T05:10:44.000Z</time>
      </trkpt>
      <trkpt lat="51.235605" lon="1.398802">
        <ele>-2.4</ele>
        <time>2026-04-25T05:11:09.000Z</time>
      </trkpt>
      <trkpt lat="51.235631" lon="1.398761">
        <ele>-2.4</ele>
        <time>2026-04-25T05:11:10.000Z</time>
      </trkpt>
      <trkpt lat="51.235688" lon="1.398734">
        <ele>-2.4</ele>
        <time>2026-04-25T05:11:12.000Z</time>
      </trkpt>
      <trkpt lat="51.235862" lon="1.3987">
        <ele>-2.6</ele>
        <time>2026-04-25T05:11:16.000Z</time>
      </trkpt>
      <trkpt lat="51.23606" lon="1.398632">
        <ele>-2.8</ele>
        <time>2026-04-25T05:11:22.000Z</time>
      </trkpt>
      <trkpt lat="51.236253" lon="1.398495">
        <ele>-3</ele>
        <time>2026-04-25T05:11:27.000Z</time>
      </trkpt>
      <trkpt lat="51.236387" lon="1.398378">
        <ele>-3</ele>
        <time>2026-04-25T05:11:32.000Z</time>
      </trkpt>
      <trkpt lat="51.23682" lon="1.397903">
        <ele>-3.4</ele>
        <time>2026-04-25T05:11:46.000Z</time>
      </trkpt>
      <trkpt lat="51.237095" lon="1.397643">
        <ele>-3.2</ele>
        <time>2026-04-25T05:11:54.000Z</time>
      </trkpt>
      <trkpt lat="51.237256" lon="1.397501">
        <ele>-2.8</ele>
        <time>2026-04-25T05:11:59.000Z</time>
      </trkpt>
      <trkpt lat="51.238028" lon="1.396907">
        <ele>-2</ele>
        <time>2026-04-25T05:12:22.000Z</time>
      </trkpt>
      <trkpt lat="51.238095" lon="1.39687">
        <ele>-2</ele>
        <time>2026-04-25T05:12:24.000Z</time>
      </trkpt>
      <trkpt lat="51.238237" lon="1.396831">
        <ele>-2</ele>
        <time>2026-04-25T05:12:28.000Z</time>
      </trkpt>
      <trkpt lat="51.239184" lon="1.396684">
        <ele>-2.2</ele>
        <time>2026-04-25T05:12:53.000Z</time>
      </trkpt>
      <trkpt lat="51.239519" lon="1.396607">
        <ele>-2.2</ele>
        <time>2026-04-25T05:13:02.000Z</time>
      </trkpt>
      <trkpt lat="51.240684" lon="1.396447">
        <ele>-1.6</ele>
        <time>2026-04-25T05:13:33.000Z</time>
      </trkpt>
      <trkpt lat="51.240742" lon="1.396421">
        <ele>-1.6</ele>
        <time>2026-04-25T05:13:35.000Z</time>
      </trkpt>
      <trkpt lat="51.240791" lon="1.396371">
        <ele>-1.6</ele>
        <time>2026-04-25T05:13:36.000Z</time>
      </trkpt>
      <trkpt lat="51.240906" lon="1.396167">
        <ele>-2</ele>
        <time>2026-04-25T05:13:41.000Z</time>
      </trkpt>
      <trkpt lat="51.241" lon="1.396045">
        <ele>-2</ele>
        <time>2026-04-25T05:13:44.000Z</time>
      </trkpt>
      <trkpt lat="51.241054" lon="1.395997">
        <ele>-2</ele>
        <time>2026-04-25T05:13:46.000Z</time>
      </trkpt>
      <trkpt lat="51.241176" lon="1.395928">
        <ele>-2</ele>
        <time>2026-04-25T05:13:49.000Z</time>
      </trkpt>
      <trkpt lat="51.24124" lon="1.395918">
        <ele>-2</ele>
        <time>2026-04-25T05:13:51.000Z</time>
      </trkpt>
      <trkpt lat="51.241304" lon="1.395929">
        <ele>-2.2</ele>
        <time>2026-04-25T05:13:53.000Z</time>
      </trkpt>
      <trkpt lat="51.241603" lon="1.396074">
        <ele>-2.6</ele>
        <time>2026-04-25T05:14:01.000Z</time>
      </trkpt>
      <trkpt lat="51.241792" lon="1.39612">
        <ele>-2.8</ele>
        <time>2026-04-25T05:14:06.000Z</time>
      </trkpt>
      <trkpt lat="51.241927" lon="1.396108">
        <ele>-2.8</ele>
        <time>2026-04-25T05:14:10.000Z</time>
      </trkpt>
      <trkpt lat="51.242336" lon="1.396018">
        <ele>-2.4</ele>
        <time>2026-04-25T05:14:21.000Z</time>
      </trkpt>
      <trkpt lat="51.242888" lon="1.39601">
        <ele>-2.2</ele>
        <time>2026-04-25T05:14:36.000Z</time>
      </trkpt>
      <trkpt lat="51.243719" lon="1.395912">
        <ele>-2.6</ele>
        <time>2026-04-25T05:14:58.000Z</time>
      </trkpt>
      <trkpt lat="51.244345" lon="1.395766">
        <ele>-2.4</ele>
        <time>2026-04-25T05:15:15.000Z</time>
      </trkpt>
      <trkpt lat="51.244917" lon="1.395495">
        <ele>-2.6</ele>
        <time>2026-04-25T05:15:31.000Z</time>
      </trkpt>
      <trkpt lat="51.245877" lon="1.39518">
        <ele>-3.6</ele>
        <time>2026-04-25T05:15:57.000Z</time>
      </trkpt>
      <trkpt lat="51.246733" lon="1.394978">
        <ele>-3.2</ele>
        <time>2026-04-25T05:16:20.000Z</time>
      </trkpt>
      <trkpt lat="51.247003" lon="1.394941">
        <ele>-3</ele>
        <time>2026-04-25T05:16:27.000Z</time>
      </trkpt>
      <trkpt lat="51.247259" lon="1.394935">
        <ele>-3</ele>
        <time>2026-04-25T05:16:34.000Z</time>
      </trkpt>
      <trkpt lat="51.247505" lon="1.394865">
        <ele>-3.2</ele>
        <time>2026-04-25T05:16:41.000Z</time>
      </trkpt>
      <trkpt lat="51.247686" lon="1.394757">
        <ele>-3.2</ele>
        <time>2026-04-25T05:16:46.000Z</time>
      </trkpt>
      <trkpt lat="51.248125" lon="1.39442">
        <ele>-2.8</ele>
        <time>2026-04-25T05:16:59.000Z</time>
      </trkpt>
      <trkpt lat="51.248479" lon="1.394178">
        <ele>-2.6</ele>
        <time>2026-04-25T05:17:09.000Z</time>
      </trkpt>
      <trkpt lat="51.249477" lon="1.393313">
        <ele>-2.8</ele>
        <time>2026-04-25T05:17:39.000Z</time>
      </trkpt>
      <trkpt lat="51.249747" lon="1.393104">
        <ele>-3</ele>
        <time>2026-04-25T05:17:47.000Z</time>
      </trkpt>
      <trkpt lat="51.250178" lon="1.392819">
        <ele>-3.2</ele>
        <time>2026-04-25T05:18:00.000Z</time>
      </trkpt>
      <trkpt lat="51.250391" lon="1.392545">
        <ele>-3</ele>
        <time>2026-04-25T05:18:07.000Z</time>
      </trkpt>
      <trkpt lat="51.250753" lon="1.391918">
        <ele>-2.8</ele>
        <time>2026-04-25T05:18:21.000Z</time>
      </trkpt>
      <trkpt lat="51.25088" lon="1.391767">
        <ele>-3</ele>
        <time>2026-04-25T05:18:26.000Z</time>
      </trkpt>
      <trkpt lat="51.251095" lon="1.391722">
        <ele>-3.2</ele>
        <time>2026-04-25T05:18:31.000Z</time>
      </trkpt>
      <trkpt lat="51.251413" lon="1.391527">
        <ele>-3.8</ele>
        <time>2026-04-25T05:18:41.000Z</time>
      </trkpt>
      <trkpt lat="51.251708" lon="1.391374">
        <ele>-4</ele>
        <time>2026-04-25T05:18:49.000Z</time>
      </trkpt>
      <trkpt lat="51.252005" lon="1.391174">
        <ele>-3.8</ele>
        <time>2026-04-25T05:18:57.000Z</time>
      </trkpt>
      <trkpt lat="51.252464" lon="1.390797">
        <ele>-3.4</ele>
        <time>2026-04-25T05:19:11.000Z</time>
      </trkpt>
      <trkpt lat="51.252785" lon="1.390573">
        <ele>-3.2</ele>
        <time>2026-04-25T05:19:21.000Z</time>
      </trkpt>
      <trkpt lat="51.252923" lon="1.390502">
        <ele>-3</ele>
        <time>2026-04-25T05:19:24.000Z</time>
      </trkpt>
      <trkpt lat="51.253388" lon="1.39033">
        <ele>-2.6</ele>
        <time>2026-04-25T05:19:37.000Z</time>
      </trkpt>
      <trkpt lat="51.253771" lon="1.390098">
        <ele>-2.4</ele>
        <time>2026-04-25T05:19:48.000Z</time>
      </trkpt>
      <trkpt lat="51.253881" lon="1.38998">
        <ele>-2.4</ele>
        <time>2026-04-25T05:19:52.000Z</time>
      </trkpt>
      <trkpt lat="51.254063" lon="1.389534">
        <ele>-2.6</ele>
        <time>2026-04-25T05:20:01.000Z</time>
      </trkpt>
      <trkpt lat="51.254161" lon="1.389401">
        <ele>-2.8</ele>
        <time>2026-04-25T05:20:04.000Z</time>
      </trkpt>
      <trkpt lat="51.254759" lon="1.38891">
        <ele>-2.8</ele>
        <time>2026-04-25T05:20:22.000Z</time>
      </trkpt>
      <trkpt lat="51.255224" lon="1.388503">
        <ele>-2.8</ele>
        <time>2026-04-25T05:20:36.000Z</time>
      </trkpt>
      <trkpt lat="51.255585" lon="1.38813">
        <ele>-2.8</ele>
        <time>2026-04-25T05:20:48.000Z</time>
      </trkpt>
      <trkpt lat="51.256177" lon="1.387596">
        <ele>-3</ele>
        <time>2026-04-25T05:21:06.000Z</time>
      </trkpt>
      <trkpt lat="51.256595" lon="1.387274">
        <ele>-3</ele>
        <time>2026-04-25T05:21:18.000Z</time>
      </trkpt>
      <trkpt lat="51.256938" lon="1.386925">
        <ele>-3.2</ele>
        <time>2026-04-25T05:21:29.000Z</time>
      </trkpt>
      <trkpt lat="51.257244" lon="1.386684">
        <ele>-3</ele>
        <time>2026-04-25T05:21:38.000Z</time>
      </trkpt>
      <trkpt lat="51.257687" lon="1.386378">
        <ele>-3</ele>
        <time>2026-04-25T05:21:51.000Z</time>
      </trkpt>
      <trkpt lat="51.257868" lon="1.38622">
        <ele>-2.6</ele>
        <time>2026-04-25T05:21:56.000Z</time>
      </trkpt>
      <trkpt lat="51.258164" lon="1.385922">
        <ele>-2.4</ele>
        <time>2026-04-25T05:22:06.000Z</time>
      </trkpt>
      <trkpt lat="51.258408" lon="1.38573">
        <ele>-2.8</ele>
        <time>2026-04-25T05:22:13.000Z</time>
      </trkpt>
      <trkpt lat="51.258541" lon="1.385672">
        <ele>-2.8</ele>
        <time>2026-04-25T05:22:17.000Z</time>
      </trkpt>
      <trkpt lat="51.258613" lon="1.385671">
        <ele>-2.8</ele>
        <time>2026-04-25T05:22:19.000Z</time>
      </trkpt>
      <trkpt lat="51.258894" lon="1.38572">
        <ele>-3</ele>
        <time>2026-04-25T05:22:26.000Z</time>
      </trkpt>
      <trkpt lat="51.259178" lon="1.385742">
        <ele>-3</ele>
        <time>2026-04-25T05:22:34.000Z</time>
      </trkpt>
      <trkpt lat="51.259319" lon="1.385785">
        <ele>-3</ele>
        <time>2026-04-25T05:22:38.000Z</time>
      </trkpt>
      <trkpt lat="51.259526" lon="1.385892">
        <ele>-2.8</ele>
        <time>2026-04-25T05:22:43.000Z</time>
      </trkpt>
      <trkpt lat="51.259887" lon="1.386034">
        <ele>-2.6</ele>
        <time>2026-04-25T05:22:53.000Z</time>
      </trkpt>
      <trkpt lat="51.260221" lon="1.386238">
        <ele>-2.6</ele>
        <time>2026-04-25T05:23:03.000Z</time>
      </trkpt>
      <trkpt lat="51.260813" lon="1.386662">
        <ele>-2.4</ele>
        <time>2026-04-25T05:23:20.000Z</time>
      </trkpt>
      <trkpt lat="51.26135" lon="1.387207">
        <ele>-2.2</ele>
        <time>2026-04-25T05:23:37.000Z</time>
      </trkpt>
      <trkpt lat="51.261598" lon="1.387411">
        <ele>-2.2</ele>
        <time>2026-04-25T05:23:45.000Z</time>
      </trkpt>
      <trkpt lat="51.261663" lon="1.387444">
        <ele>-2.2</ele>
        <time>2026-04-25T05:23:46.000Z</time>
      </trkpt>
      <trkpt lat="51.261729" lon="1.38745">
        <ele>-2.4</ele>
        <time>2026-04-25T05:23:48.000Z</time>
      </trkpt>
      <trkpt lat="51.261863" lon="1.387385">
        <ele>-2.4</ele>
        <time>2026-04-25T05:23:52.000Z</time>
      </trkpt>
      <trkpt lat="51.262106" lon="1.387166">
        <ele>-2.4</ele>
        <time>2026-04-25T05:23:59.000Z</time>
      </trkpt>
      <trkpt lat="51.26241" lon="1.386734">
        <ele>-2.2</ele>
        <time>2026-04-25T05:24:10.000Z</time>
      </trkpt>
      <trkpt lat="51.263088" lon="1.385945">
        <ele>-1.8</ele>
        <time>2026-04-25T05:24:33.000Z</time>
      </trkpt>
      <trkpt lat="51.263378" lon="1.38565">
        <ele>-1.6</ele>
        <time>2026-04-25T05:24:42.000Z</time>
      </trkpt>
      <trkpt lat="51.263588" lon="1.385369">
        <ele>-1.4</ele>
        <time>2026-04-25T05:24:49.000Z</time>
      </trkpt>
      <trkpt lat="51.263807" lon="1.38493">
        <ele>-1.2</ele>
        <time>2026-04-25T05:24:59.000Z</time>
      </trkpt>
      <trkpt lat="51.264449" lon="1.383757">
        <ele>-1</ele>
        <time>2026-04-25T05:25:25.000Z</time>
      </trkpt>
      <trkpt lat="51.265419" lon="1.381901">
        <ele>-1.6</ele>
        <time>2026-04-25T05:26:05.000Z</time>
      </trkpt>
      <trkpt lat="51.265472" lon="1.381734">
        <ele>-1.6</ele>
        <time>2026-04-25T05:26:08.000Z</time>
      </trkpt>
      <trkpt lat="51.265571" lon="1.381177">
        <ele>-1.8</ele>
        <time>2026-04-25T05:26:18.000Z</time>
      </trkpt>
      <trkpt lat="51.265681" lon="1.380921">
        <ele>-1.8</ele>
        <time>2026-04-25T05:26:23.000Z</time>
      </trkpt>
      <trkpt lat="51.266258" lon="1.379797">
        <ele>-1.4</ele>
        <time>2026-04-25T05:26:47.000Z</time>
      </trkpt>
      <trkpt lat="51.266591" lon="1.379104">
        <ele>-1.8</ele>
        <time>2026-04-25T05:27:02.000Z</time>
      </trkpt>
      <trkpt lat="51.266847" lon="1.378646">
        <ele>-2</ele>
        <time>2026-04-25T05:27:12.000Z</time>
      </trkpt>
      <trkpt lat="51.267259" lon="1.377837">
        <ele>-2</ele>
        <time>2026-04-25T05:27:29.000Z</time>
      </trkpt>
      <trkpt lat="51.267726" lon="1.376968">
        <ele>-2</ele>
        <time>2026-04-25T05:27:49.000Z</time>
      </trkpt>
      <trkpt lat="51.268051" lon="1.376322">
        <ele>-2</ele>
        <time>2026-04-25T05:28:02.000Z</time>
      </trkpt>
      <trkpt lat="51.268205" lon="1.37598">
        <ele>-2</ele>
        <time>2026-04-25T05:28:09.000Z</time>
      </trkpt>
      <trkpt lat="51.268438" lon="1.375338">
        <ele>-2</ele>
        <time>2026-04-25T05:28:22.000Z</time>
      </trkpt>
      <trkpt lat="51.268705" lon="1.37439">
        <ele>-2</ele>
        <time>2026-04-25T05:28:39.000Z</time>
      </trkpt>
      <trkpt lat="51.269313" lon="1.372019">
        <ele>-2.2</ele>
        <time>2026-04-25T05:29:22.000Z</time>
      </trkpt>
      <trkpt lat="51.269649" lon="1.370821">
        <ele>-1.4</ele>
        <time>2026-04-25T05:29:44.000Z</time>
      </trkpt>
      <trkpt lat="51.27011" lon="1.369001">
        <ele>-2</ele>
        <time>2026-04-25T05:30:17.000Z</time>
      </trkpt>
      <trkpt lat="51.270211" lon="1.368661">
        <ele>-2</ele>
        <time>2026-04-25T05:30:23.000Z</time>
      </trkpt>
      <trkpt lat="51.270245" lon="1.368458">
        <ele>-2</ele>
        <time>2026-04-25T05:30:27.000Z</time>
      </trkpt>
      <trkpt lat="51.27026" lon="1.368244">
        <ele>-2</ele>
        <time>2026-04-25T05:30:30.000Z</time>
      </trkpt>
      <trkpt lat="51.270252" lon="1.368088">
        <ele>-2</ele>
        <time>2026-04-25T05:30:33.000Z</time>
      </trkpt>
      <trkpt lat="51.270219" lon="1.367921">
        <ele>-2</ele>
        <time>2026-04-25T05:30:36.000Z</time>
      </trkpt>
      <trkpt lat="51.269668" lon="1.366461">
        <ele>-1.6</ele>
        <time>2026-04-25T05:31:04.000Z</time>
      </trkpt>
      <trkpt lat="51.269538" lon="1.365967">
        <ele>-1.6</ele>
        <time>2026-04-25T05:31:13.000Z</time>
      </trkpt>
      <trkpt lat="51.269511" lon="1.365747">
        <ele>-1.4</ele>
        <time>2026-04-25T05:31:17.000Z</time>
      </trkpt>
      <trkpt lat="51.269443" lon="1.364483">
        <ele>-1.2</ele>
        <time>2026-04-25T05:31:38.000Z</time>
      </trkpt>
      <trkpt lat="51.26944" lon="1.364167">
        <ele>-1.2</ele>
        <time>2026-04-25T05:31:43.000Z</time>
      </trkpt>
      <trkpt lat="51.269476" lon="1.363763">
        <ele>-1.2</ele>
        <time>2026-04-25T05:31:50.000Z</time>
      </trkpt>
      <trkpt lat="51.269542" lon="1.363409">
        <ele>-1.6</ele>
        <time>2026-04-25T05:31:56.000Z</time>
      </trkpt>
      <trkpt lat="51.269729" lon="1.362894">
        <ele>-1.6</ele>
        <time>2026-04-25T05:32:06.000Z</time>
      </trkpt>
      <trkpt lat="51.270219" lon="1.361948">
        <ele>-2.4</ele>
        <time>2026-04-25T05:32:27.000Z</time>
      </trkpt>
      <trkpt lat="51.270456" lon="1.361404">
        <ele>-2.6</ele>
        <time>2026-04-25T05:32:38.000Z</time>
      </trkpt>
      <trkpt lat="51.27082" lon="1.360363">
        <ele>-2.6</ele>
        <time>2026-04-25T05:32:58.000Z</time>
      </trkpt>
      <trkpt lat="51.270951" lon="1.359859">
        <ele>-2.6</ele>
        <time>2026-04-25T05:33:07.000Z</time>
      </trkpt>
      <trkpt lat="51.270993" lon="1.359545">
        <ele>-2.6</ele>
        <time>2026-04-25T05:33:12.000Z</time>
      </trkpt>
      <trkpt lat="51.27101" lon="1.359216">
        <ele>-2.6</ele>
        <time>2026-04-25T05:33:18.000Z</time>
      </trkpt>
      <trkpt lat="51.270988" lon="1.358772">
        <ele>-2.6</ele>
        <time>2026-04-25T05:33:25.000Z</time>
      </trkpt>
      <trkpt lat="51.270906" lon="1.358064">
        <ele>-2.6</ele>
        <time>2026-04-25T05:33:37.000Z</time>
      </trkpt>
      <trkpt lat="51.270885" lon="1.357522">
        <ele>-2.6</ele>
        <time>2026-04-25T05:33:46.000Z</time>
      </trkpt>
      <trkpt lat="51.27092" lon="1.357095">
        <ele>-2.6</ele>
        <time>2026-04-25T05:33:53.000Z</time>
      </trkpt>
      <trkpt lat="51.270999" lon="1.356496">
        <ele>-2.8</ele>
        <time>2026-04-25T05:34:04.000Z</time>
      </trkpt>
      <trkpt lat="51.271243" lon="1.355283">
        <ele>-2.8</ele>
        <time>2026-04-25T05:34:25.000Z</time>
      </trkpt>
      <trkpt lat="51.271444" lon="1.354392">
        <ele>-2.2</ele>
        <time>2026-04-25T05:34:41.000Z</time>
      </trkpt>
      <trkpt lat="51.271949" lon="1.352487">
        <ele>-2</ele>
        <time>2026-04-25T05:35:15.000Z</time>
      </trkpt>
      <trkpt lat="51.27206" lon="1.352003">
        <ele>-1.8</ele>
        <time>2026-04-25T05:35:24.000Z</time>
      </trkpt>
      <trkpt lat="51.272214" lon="1.351534">
        <ele>-1.6</ele>
        <time>2026-04-25T05:35:33.000Z</time>
      </trkpt>
      <trkpt lat="51.272425" lon="1.350782">
        <ele>-1.2</ele>
        <time>2026-04-25T05:35:47.000Z</time>
      </trkpt>
      <trkpt lat="51.27258" lon="1.350332">
        <ele>-1.2</ele>
        <time>2026-04-25T05:35:55.000Z</time>
      </trkpt>
      <trkpt lat="51.27278" lon="1.349801">
        <ele>-1.4</ele>
        <time>2026-04-25T05:36:06.000Z</time>
      </trkpt>
      <trkpt lat="51.273061" lon="1.349198">
        <ele>-1.4</ele>
        <time>2026-04-25T05:36:18.000Z</time>
      </trkpt>
      <trkpt lat="51.273086" lon="1.349105">
        <ele>-1.4</ele>
        <time>2026-04-25T05:36:20.000Z</time>
      </trkpt>
      <trkpt lat="51.273253" lon="1.348714">
        <ele>-1.2</ele>
        <time>2026-04-25T05:36:28.000Z</time>
      </trkpt>
      <trkpt lat="51.273387" lon="1.348193">
        <ele>-1.2</ele>
        <time>2026-04-25T05:36:37.000Z</time>
      </trkpt>
      <trkpt lat="51.273475" lon="1.347441">
        <ele>-1.4</ele>
        <time>2026-04-25T05:36:50.000Z</time>
      </trkpt>
      <trkpt lat="51.273524" lon="1.346469">
        <ele>-1.2</ele>
        <time>2026-04-25T05:37:06.000Z</time>
      </trkpt>
      <trkpt lat="51.273566" lon="1.346102">
        <ele>-1.2</ele>
        <time>2026-04-25T05:37:12.000Z</time>
      </trkpt>
      <trkpt lat="51.273628" lon="1.345871">
        <ele>-1</ele>
        <time>2026-04-25T05:37:17.000Z</time>
      </trkpt>
      <trkpt lat="51.273804" lon="1.345534">
        <ele>-0.60000000000002</ele>
        <time>2026-04-25T05:37:24.000Z</time>
      </trkpt>
      <trkpt lat="51.27386" lon="1.345366">
        <ele>-0.39999999999998</ele>
        <time>2026-04-25T05:37:27.000Z</time>
      </trkpt>
      <trkpt lat="51.273858" lon="1.345173">
        <ele>-0.19999999999999</ele>
        <time>2026-04-25T05:37:30.000Z</time>
      </trkpt>
      <trkpt lat="51.273723" lon="1.344183">
        <ele>0.19999999999999</ele>
        <time>2026-04-25T05:37:47.000Z</time>
      </trkpt>
      <trkpt lat="51.273702" lon="1.343654">
        <ele>0.80000000000001</ele>
        <time>2026-04-25T05:37:56.000Z</time>
      </trkpt>
      <trkpt lat="51.273715" lon="1.343612">
        <ele>0.80000000000001</ele>
        <time>2026-04-25T05:37:57.000Z</time>
      </trkpt>
      <trkpt lat="51.273775" lon="1.343581">
        <ele>1</ele>
        <time>2026-04-25T05:37:59.000Z</time>
      </trkpt>
      <trkpt lat="51.273861" lon="1.343582">
        <ele>1</ele>
        <time>2026-04-25T05:38:01.000Z</time>
      </trkpt>
      <trkpt lat="51.274222" lon="1.343679">
        <ele>1</ele>
        <time>2026-04-25T05:38:11.000Z</time>
      </trkpt>
      <trkpt lat="51.274383" lon="1.343758">
        <ele>0.80000000000001</ele>
        <time>2026-04-25T05:38:15.000Z</time>
      </trkpt>
      <trkpt lat="51.274422" lon="1.343805">
        <ele>0.60000000000002</ele>
        <time>2026-04-25T05:38:16.000Z</time>
      </trkpt>
      <trkpt lat="51.274748" lon="1.344053">
        <ele>-0.39999999999998</ele>
        <time>2026-04-25T05:38:26.000Z</time>
      </trkpt>
      <trkpt lat="51.27484" lon="1.344057">
        <ele>-0.80000000000001</ele>
        <time>2026-04-25T05:38:28.000Z</time>
      </trkpt>
      <trkpt lat="51.274876" lon="1.344024">
        <ele>-0.80000000000001</ele>
        <time>2026-04-25T05:38:30.000Z</time>
      </trkpt>
      <trkpt lat="51.274928" lon="1.343926">
        <ele>-1</ele>
        <time>2026-04-25T05:38:32.000Z</time>
      </trkpt>
      <trkpt lat="51.275082" lon="1.343477">
        <ele>-1.6</ele>
        <time>2026-04-25T05:38:40.000Z</time>
      </trkpt>
      <trkpt lat="51.275444" lon="1.342581">
        <ele>-1.4</ele>
        <time>2026-04-25T05:38:58.000Z</time>
      </trkpt>
      <trkpt lat="51.275707" lon="1.342079">
        <ele>-1.2</ele>
        <time>2026-04-25T05:39:09.000Z</time>
      </trkpt>
      <trkpt lat="51.275772" lon="1.341994">
        <ele>-1.2</ele>
        <time>2026-04-25T05:39:11.000Z</time>
      </trkpt>
      <trkpt lat="51.275806" lon="1.341978">
        <ele>-1.2</ele>
        <time>2026-04-25T05:39:12.000Z</time>
      </trkpt>
      <trkpt lat="51.27584" lon="1.341987">
        <ele>-1.2</ele>
        <time>2026-04-25T05:39:13.000Z</time>
      </trkpt>
      <trkpt lat="51.276541" lon="1.342583">
        <ele>-0.80000000000001</ele>
        <time>2026-04-25T05:39:34.000Z</time>
      </trkpt>
      <trkpt lat="51.276722" lon="1.342682">
        <ele>-1</ele>
        <time>2026-04-25T05:39:39.000Z</time>
      </trkpt>
      <trkpt lat="51.278217" lon="1.343713">
        <ele>-1.6</ele>
        <time>2026-04-25T05:40:23.000Z</time>
      </trkpt>
      <trkpt lat="51.27979" lon="1.344584">
        <ele>-1.8</ele>
        <time>2026-04-25T05:41:07.000Z</time>
      </trkpt>
      <trkpt lat="51.280305" lon="1.344826">
        <ele>-1.4</ele>
        <time>2026-04-25T05:41:22.000Z</time>
      </trkpt>
      <trkpt lat="51.280514" lon="1.344886">
        <ele>-1.4</ele>
        <time>2026-04-25T05:41:27.000Z</time>
      </trkpt>
      <trkpt lat="51.280716" lon="1.344923">
        <ele>-1.6</ele>
        <time>2026-04-25T05:41:33.000Z</time>
      </trkpt>
      <trkpt lat="51.280912" lon="1.344926">
        <ele>-1.8</ele>
        <time>2026-04-25T05:41:38.000Z</time>
      </trkpt>
      <trkpt lat="51.280971" lon="1.344908">
        <ele>-1.6</ele>
        <time>2026-04-25T05:41:40.000Z</time>
      </trkpt>
      <trkpt lat="51.281122" lon="1.34476">
        <ele>-1.4</ele>
        <time>2026-04-25T05:41:44.000Z</time>
      </trkpt>
      <trkpt lat="51.281179" lon="1.344716">
        <ele>-1.4</ele>
        <time>2026-04-25T05:41:46.000Z</time>
      </trkpt>
      <trkpt lat="51.281242" lon="1.344693">
        <ele>-1.4</ele>
        <time>2026-04-25T05:41:48.000Z</time>
      </trkpt>
      <trkpt lat="51.281305" lon="1.3447">
        <ele>-1.4</ele>
        <time>2026-04-25T05:41:49.000Z</time>
      </trkpt>
      <trkpt lat="51.281366" lon="1.344737">
        <ele>-1.4</ele>
        <time>2026-04-25T05:41:51.000Z</time>
      </trkpt>
      <trkpt lat="51.281539" lon="1.344921">
        <ele>-1.4</ele>
        <time>2026-04-25T05:41:57.000Z</time>
      </trkpt>
      <trkpt lat="51.281669" lon="1.345003">
        <ele>-1.4</ele>
        <time>2026-04-25T05:42:00.000Z</time>
      </trkpt>
      <trkpt lat="51.282078" lon="1.345133">
        <ele>-1.8</ele>
        <time>2026-04-25T05:42:12.000Z</time>
      </trkpt>
      <trkpt lat="51.282494" lon="1.34521">
        <ele>-1.6</ele>
        <time>2026-04-25T05:42:23.000Z</time>
      </trkpt>
      <trkpt lat="51.283667" lon="1.345298">
        <ele>-0.80000000000001</ele>
        <time>2026-04-25T05:42:54.000Z</time>
      </trkpt>
      <trkpt lat="51.288291" lon="1.345772">
        <ele>-2</ele>
        <time>2026-04-25T05:44:58.000Z</time>
      </trkpt>
      <trkpt lat="51.289025" lon="1.345789">
        <ele>-1.8</ele>
        <time>2026-04-25T05:45:17.000Z</time>
      </trkpt>
      <trkpt lat="51.290297" lon="1.345906">
        <ele>-2.6</ele>
        <time>2026-04-25T05:45:51.000Z</time>
      </trkpt>
      <trkpt lat="51.290817" lon="1.34598">
        <ele>-2.4</ele>
        <time>2026-04-25T05:46:05.000Z</time>
      </trkpt>
      <trkpt lat="51.291923" lon="1.346094">
        <ele>-2.6</ele>
        <time>2026-04-25T05:46:35.000Z</time>
      </trkpt>
      <trkpt lat="51.292424" lon="1.346129">
        <ele>-2.2</ele>
        <time>2026-04-25T05:46:48.000Z</time>
      </trkpt>
      <trkpt lat="51.292818" lon="1.346186">
        <ele>-1.8</ele>
        <time>2026-04-25T05:46:59.000Z</time>
      </trkpt>
      <trkpt lat="51.293006" lon="1.346196">
        <ele>-1.6</ele>
        <time>2026-04-25T05:47:04.000Z</time>
      </trkpt>
      <trkpt lat="51.293229" lon="1.34618">
        <ele>-1.6</ele>
        <time>2026-04-25T05:47:10.000Z</time>
      </trkpt>
      <trkpt lat="51.29326" lon="1.346196">
        <ele>-1.8</ele>
        <time>2026-04-25T05:47:11.000Z</time>
      </trkpt>
      <trkpt lat="51.2933" lon="1.34631">
        <ele>-1.8</ele>
        <time>2026-04-25T05:47:13.000Z</time>
      </trkpt>
      <trkpt lat="51.293324" lon="1.346334">
        <ele>-1.8</ele>
        <time>2026-04-25T05:47:14.000Z</time>
      </trkpt>
      <trkpt lat="51.2935" lon="1.346351">
        <ele>-2.2</ele>
        <time>2026-04-25T05:47:18.000Z</time>
      </trkpt>
      <trkpt lat="51.293926" lon="1.346477">
        <ele>-2.2</ele>
        <time>2026-04-25T05:47:30.000Z</time>
      </trkpt>
      <trkpt lat="51.295347" lon="1.346966">
        <ele>-1</ele>
        <time>2026-04-25T05:48:09.000Z</time>
      </trkpt>
      <trkpt lat="51.295754" lon="1.347042">
        <ele>-1</ele>
        <time>2026-04-25T05:48:20.000Z</time>
      </trkpt>
      <trkpt lat="51.296288" lon="1.347065">
        <ele>-1</ele>
        <time>2026-04-25T05:48:34.000Z</time>
      </trkpt>
      <trkpt lat="51.296555" lon="1.34705">
        <ele>-1.2</ele>
        <time>2026-04-25T05:48:41.000Z</time>
      </trkpt>
      <trkpt lat="51.297553" lon="1.34705">
        <ele>-1.2</ele>
        <time>2026-04-25T05:49:08.000Z</time>
      </trkpt>
      <trkpt lat="51.298591" lon="1.347007">
        <ele>-1.2</ele>
        <time>2026-04-25T05:49:35.000Z</time>
      </trkpt>
      <trkpt lat="51.299278" lon="1.347028">
        <ele>-1.4</ele>
        <time>2026-04-25T05:49:54.000Z</time>
      </trkpt>
      <trkpt lat="51.299552" lon="1.347017">
        <ele>-1.4</ele>
        <time>2026-04-25T05:50:01.000Z</time>
      </trkpt>
      <trkpt lat="51.300781" lon="1.347061">
        <ele>-1.4</ele>
        <time>2026-04-25T05:50:34.000Z</time>
      </trkpt>
      <trkpt lat="51.300985" lon="1.347076">
        <ele>-1.4</ele>
        <time>2026-04-25T05:50:39.000Z</time>
      </trkpt>
      <trkpt lat="51.301176" lon="1.347111">
        <ele>-1.4</ele>
        <time>2026-04-25T05:50:44.000Z</time>
      </trkpt>
      <trkpt lat="51.301407" lon="1.34709">
        <ele>-1.2</ele>
        <time>2026-04-25T05:50:51.000Z</time>
      </trkpt>
      <trkpt lat="51.301735" lon="1.347109">
        <ele>-1</ele>
        <time>2026-04-25T05:50:59.000Z</time>
      </trkpt>
      <trkpt lat="51.301993" lon="1.347135">
        <ele>-0.80000000000001</ele>
        <time>2026-04-25T05:51:06.000Z</time>
      </trkpt>
      <trkpt lat="51.302555" lon="1.347232">
        <ele>-0.60000000000002</ele>
        <time>2026-04-25T05:51:21.000Z</time>
      </trkpt>
      <trkpt lat="51.302822" lon="1.34732">
        <ele>-0.60000000000002</ele>
        <time>2026-04-25T05:51:29.000Z</time>
      </trkpt>
      <trkpt lat="51.303022" lon="1.347315">
        <ele>-0.60000000000002</ele>
        <time>2026-04-25T05:51:34.000Z</time>
      </trkpt>
      <trkpt lat="51.303372" lon="1.347386">
        <ele>-0.60000000000002</ele>
        <time>2026-04-25T05:51:43.000Z</time>
      </trkpt>
      <trkpt lat="51.304307" lon="1.347524">
        <ele>-0.60000000000002</ele>
        <time>2026-04-25T05:52:09.000Z</time>
      </trkpt>
      <trkpt lat="51.30442" lon="1.347527">
        <ele>-0.39999999999998</ele>
        <time>2026-04-25T05:52:12.000Z</time>
      </trkpt>
      <trkpt lat="51.305539" lon="1.347714">
        <ele>-1.2</ele>
        <time>2026-04-25T05:52:42.000Z</time>
      </trkpt>
      <trkpt lat="51.305833" lon="1.347769">
        <ele>-0.80000000000001</ele>
        <time>2026-04-25T05:52:49.000Z</time>
      </trkpt>
      <trkpt lat="51.305987" lon="1.347823">
        <ele>-0.60000000000002</ele>
        <time>2026-04-25T05:52:54.000Z</time>
      </trkpt>
      <trkpt lat="51.306439" lon="1.347846">
        <ele>-0.60000000000002</ele>
        <time>2026-04-25T05:53:06.000Z</time>
      </trkpt>
      <trkpt lat="51.307132" lon="1.347952">
        <ele>-0.80000000000001</ele>
        <time>2026-04-25T05:53:24.000Z</time>
      </trkpt>
      <trkpt lat="51.307366" lon="1.348034">
        <ele>-0.80000000000001</ele>
        <time>2026-04-25T05:53:31.000Z</time>
      </trkpt>
      <trkpt lat="51.307878" lon="1.348119">
        <ele>-0.80000000000001</ele>
        <time>2026-04-25T05:53:44.000Z</time>
      </trkpt>
      <trkpt lat="51.308093" lon="1.348201">
        <ele>-1</ele>
        <time>2026-04-25T05:53:50.000Z</time>
      </trkpt>
      <trkpt lat="51.308231" lon="1.348315">
        <ele>-1</ele>
        <time>2026-04-25T05:53:55.000Z</time>
      </trkpt>
      <trkpt lat="51.308345" lon="1.34847">
        <ele>-1</ele>
        <time>2026-04-25T05:53:59.000Z</time>
      </trkpt>
      <trkpt lat="51.308476" lon="1.348516">
        <ele>-1</ele>
        <time>2026-04-25T05:54:02.000Z</time>
      </trkpt>
      <trkpt lat="51.308562" lon="1.348487">
        <ele>-1</ele>
        <time>2026-04-25T05:54:04.000Z</time>
      </trkpt>
      <trkpt lat="51.308628" lon="1.348399">
        <ele>-0.80000000000001</ele>
        <time>2026-04-25T05:54:07.000Z</time>
      </trkpt>
      <trkpt lat="51.308755" lon="1.348289">
        <ele>-1</ele>
        <time>2026-04-25T05:54:11.000Z</time>
      </trkpt>
      <trkpt lat="51.308854" lon="1.348285">
        <ele>-1.2</ele>
        <time>2026-04-25T05:54:13.000Z</time>
      </trkpt>
      <trkpt lat="51.308904" lon="1.348301">
        <ele>-1.2</ele>
        <time>2026-04-25T05:54:15.000Z</time>
      </trkpt>
      <trkpt lat="51.309553" lon="1.348792">
        <ele>-1.6</ele>
        <time>2026-04-25T05:54:34.000Z</time>
      </trkpt>
      <trkpt lat="51.310638" lon="1.349664">
        <ele>-1.4</ele>
        <time>2026-04-25T05:55:06.000Z</time>
      </trkpt>
      <trkpt lat="51.310719" lon="1.349751">
        <ele>-1.4</ele>
        <time>2026-04-25T05:55:09.000Z</time>
      </trkpt>
      <trkpt lat="51.310787" lon="1.349865">
        <ele>-1.6</ele>
        <time>2026-04-25T05:55:11.000Z</time>
      </trkpt>
      <trkpt lat="51.310974" lon="1.350105">
        <ele>-1.8</ele>
        <time>2026-04-25T05:55:18.000Z</time>
      </trkpt>
      <trkpt lat="51.311098" lon="1.350134">
        <ele>-2</ele>
        <time>2026-04-25T05:55:21.000Z</time>
      </trkpt>
      <trkpt lat="51.311238" lon="1.350247">
        <ele>-2.2</ele>
        <time>2026-04-25T05:55:25.000Z</time>
      </trkpt>
      <trkpt lat="51.311338" lon="1.350295">
        <ele>-2</ele>
        <time>2026-04-25T05:55:28.000Z</time>
      </trkpt>
      <trkpt lat="51.311367" lon="1.350296">
        <ele>-1.8</ele>
        <time>2026-04-25T05:55:29.000Z</time>
      </trkpt>
      <trkpt lat="51.31141" lon="1.350245">
        <ele>-1.6</ele>
        <time>2026-04-25T05:55:30.000Z</time>
      </trkpt>
      <trkpt lat="51.31141" lon="1.350168">
        <ele>-1.4</ele>
        <time>2026-04-25T05:55:32.000Z</time>
      </trkpt>
      <trkpt lat="51.311375" lon="1.350106">
        <ele>-1.4</ele>
        <time>2026-04-25T05:55:33.000Z</time>
      </trkpt>
      <trkpt lat="51.311439" lon="1.349992">
        <ele>-1</ele>
        <time>2026-04-25T05:55:36.000Z</time>
      </trkpt>
      <trkpt lat="51.311482" lon="1.349994">
        <ele>-1</ele>
        <time>2026-04-25T05:55:37.000Z</time>
      </trkpt>
      <trkpt lat="51.311661" lon="1.35012">
        <ele>-0.80000000000001</ele>
        <time>2026-04-25T05:55:42.000Z</time>
      </trkpt>
      <trkpt lat="51.31173" lon="1.350119">
        <ele>-0.80000000000001</ele>
        <time>2026-04-25T05:55:44.000Z</time>
      </trkpt>
      <trkpt lat="51.311774" lon="1.350074">
        <ele>-0.80000000000001</ele>
        <time>2026-04-25T05:55:45.000Z</time>
      </trkpt>
      <trkpt lat="51.31181" lon="1.349933">
        <ele>-0.60000000000002</ele>
        <time>2026-04-25T05:55:48.000Z</time>
      </trkpt>
      <trkpt lat="51.311807" lon="1.349694">
        <ele>-0.60000000000002</ele>
        <time>2026-04-25T05:55:52.000Z</time>
      </trkpt>
      <trkpt lat="51.311831" lon="1.349532">
        <ele>-0.60000000000002</ele>
        <time>2026-04-25T05:55:54.000Z</time>
      </trkpt>
      <trkpt lat="51.311859" lon="1.349454">
        <ele>-0.60000000000002</ele>
        <time>2026-04-25T05:55:56.000Z</time>
      </trkpt>
      <trkpt lat="51.311956" lon="1.349337">
        <ele>-0.60000000000002</ele>
        <time>2026-04-25T05:55:59.000Z</time>
      </trkpt>
      <trkpt lat="51.312079" lon="1.349292">
        <ele>-0.60000000000002</ele>
        <time>2026-04-25T05:56:03.000Z</time>
      </trkpt>
      <trkpt lat="51.312145" lon="1.349299">
        <ele>-0.60000000000002</ele>
        <time>2026-04-25T05:56:04.000Z</time>
      </trkpt>
      <trkpt lat="51.312402" lon="1.34942">
        <ele>-0.80000000000001</ele>
        <time>2026-04-25T05:56:11.000Z</time>
      </trkpt>
      <trkpt lat="51.312537" lon="1.349444">
        <ele>-0.80000000000001</ele>
        <time>2026-04-25T05:56:15.000Z</time>
      </trkpt>
      <trkpt lat="51.312749" lon="1.349423">
        <ele>-0.80000000000001</ele>
        <time>2026-04-25T05:56:21.000Z</time>
      </trkpt>
      <trkpt lat="51.31288" lon="1.349373">
        <ele>-0.39999999999998</ele>
        <time>2026-04-25T05:56:24.000Z</time>
      </trkpt>
      <trkpt lat="51.314178" lon="1.348653">
        <ele>0.60000000000002</ele>
        <time>2026-04-25T05:57:01.000Z</time>
      </trkpt>
      <trkpt lat="51.314789" lon="1.348298">
        <ele>1</ele>
        <time>2026-04-25T05:57:18.000Z</time>
      </trkpt>
      <trkpt lat="51.315199" lon="1.34804">
        <ele>1</ele>
        <time>2026-04-25T05:57:30.000Z</time>
      </trkpt>
      <trkpt lat="51.315438" lon="1.347918">
        <ele>1</ele>
        <time>2026-04-25T05:57:37.000Z</time>
      </trkpt>
      <trkpt lat="51.317212" lon="1.346888">
        <ele>0.19999999999999</ele>
        <time>2026-04-25T05:58:27.000Z</time>
      </trkpt>
      <trkpt lat="51.317967" lon="1.346505">
        <ele>-0.60000000000002</ele>
        <time>2026-04-25T05:58:48.000Z</time>
      </trkpt>
      <trkpt lat="51.318309" lon="1.34637">
        <ele>-0.39999999999998</ele>
        <time>2026-04-25T05:58:58.000Z</time>
      </trkpt>
      <trkpt lat="51.318525" lon="1.346308">
        <ele>0</ele>
        <time>2026-04-25T05:59:04.000Z</time>
      </trkpt>
      <trkpt lat="51.318792" lon="1.346325">
        <ele>1</ele>
        <time>2026-04-25T05:59:11.000Z</time>
      </trkpt>
      <trkpt lat="51.31896" lon="1.34631">
        <ele>1.4</ele>
        <time>2026-04-25T05:59:15.000Z</time>
      </trkpt>
      <trkpt lat="51.319435" lon="1.346201">
        <ele>2.2</ele>
        <time>2026-04-25T05:59:28.000Z</time>
      </trkpt>
      <trkpt lat="51.31967" lon="1.346182">
        <ele>2.8</ele>
        <time>2026-04-25T05:59:34.000Z</time>
      </trkpt>
      <trkpt lat="51.320143" lon="1.34618">
        <ele>3.8</ele>
        <time>2026-04-25T05:59:47.000Z</time>
      </trkpt>
      <trkpt lat="51.320584" lon="1.346224">
        <ele>3.4</ele>
        <time>2026-04-25T05:59:59.000Z</time>
      </trkpt>
      <trkpt lat="51.32106" lon="1.346334">
        <ele>2.8</ele>
        <time>2026-04-25T06:00:12.000Z</time>
      </trkpt>
      <trkpt lat="51.321319" lon="1.346414">
        <ele>2.6</ele>
        <time>2026-04-25T06:00:19.000Z</time>
      </trkpt>
      <trkpt lat="51.32161" lon="1.346538">
        <ele>2.4</ele>
        <time>2026-04-25T06:00:27.000Z</time>
      </trkpt>
      <trkpt lat="51.322215" lon="1.346852">
        <ele>1.8</ele>
        <time>2026-04-25T06:00:44.000Z</time>
      </trkpt>
      <trkpt lat="51.322724" lon="1.347202">
        <ele>1.6</ele>
        <time>2026-04-25T06:00:58.000Z</time>
      </trkpt>
      <trkpt lat="51.323059" lon="1.347481">
        <ele>2</ele>
        <time>2026-04-25T06:01:09.000Z</time>
      </trkpt>
      <trkpt lat="51.323257" lon="1.347668">
        <ele>2.8</ele>
        <time>2026-04-25T06:01:15.000Z</time>
      </trkpt>
      <trkpt lat="51.323358" lon="1.347727">
        <ele>3</ele>
        <time>2026-04-25T06:01:18.000Z</time>
      </trkpt>
      <trkpt lat="51.323467" lon="1.347751">
        <ele>3.2</ele>
        <time>2026-04-25T06:01:20.000Z</time>
      </trkpt>
      <trkpt lat="51.32383" lon="1.347787">
        <ele>3.6</ele>
        <time>2026-04-25T06:01:30.000Z</time>
      </trkpt>
      <trkpt lat="51.324891" lon="1.347989">
        <ele>5</ele>
        <time>2026-04-25T06:01:59.000Z</time>
      </trkpt>
      <trkpt lat="51.325344" lon="1.348049">
        <ele>5.8</ele>
        <time>2026-04-25T06:02:11.000Z</time>
      </trkpt>
      <trkpt lat="51.325778" lon="1.348021">
        <ele>6.2</ele>
        <time>2026-04-25T06:02:22.000Z</time>
      </trkpt>
      <trkpt lat="51.326042" lon="1.347942">
        <ele>6.4</ele>
        <time>2026-04-25T06:02:30.000Z</time>
      </trkpt>
      <trkpt lat="51.326879" lon="1.347513">
        <ele>5.6</ele>
        <time>2026-04-25T06:02:53.000Z</time>
      </trkpt>
      <trkpt lat="51.327335" lon="1.347303">
        <ele>5</ele>
        <time>2026-04-25T06:03:06.000Z</time>
      </trkpt>
      <trkpt lat="51.327629" lon="1.347131">
        <ele>5</ele>
        <time>2026-04-25T06:03:14.000Z</time>
      </trkpt>
      <trkpt lat="51.328462" lon="1.346795">
        <ele>5.4</ele>
        <time>2026-04-25T06:03:37.000Z</time>
      </trkpt>
      <trkpt lat="51.328973" lon="1.346621">
        <ele>6.4</ele>
        <time>2026-04-25T06:03:51.000Z</time>
      </trkpt>
      <trkpt lat="51.329574" lon="1.346308">
        <ele>6.6</ele>
        <time>2026-04-25T06:04:08.000Z</time>
      </trkpt>
      <trkpt lat="51.330279" lon="1.345851">
        <ele>7.2</ele>
        <time>2026-04-25T06:04:28.000Z</time>
      </trkpt>
      <trkpt lat="51.330398" lon="1.34576">
        <ele>7.6</ele>
        <time>2026-04-25T06:04:32.000Z</time>
      </trkpt>
      <trkpt lat="51.3306" lon="1.345563">
        <ele>8.6</ele>
        <time>2026-04-25T06:04:38.000Z</time>
      </trkpt>
      <trkpt lat="51.330746" lon="1.345455">
        <ele>9.2</ele>
        <time>2026-04-25T06:04:42.000Z</time>
      </trkpt>
      <trkpt lat="51.330919" lon="1.345354">
        <ele>10</ele>
        <time>2026-04-25T06:04:47.000Z</time>
      </trkpt>
      <trkpt lat="51.331196" lon="1.345124">
        <ele>10.8</ele>
        <time>2026-04-25T06:04:56.000Z</time>
      </trkpt>
      <trkpt lat="51.331283" lon="1.345073">
        <ele>11.2</ele>
        <time>2026-04-25T06:04:58.000Z</time>
      </trkpt>
      <trkpt lat="51.331405" lon="1.344919">
        <ele>11.4</ele>
        <time>2026-04-25T06:05:02.000Z</time>
      </trkpt>
      <trkpt lat="51.331457" lon="1.344805">
        <ele>11.4</ele>
        <time>2026-04-25T06:05:05.000Z</time>
      </trkpt>
      <trkpt lat="51.331542" lon="1.344508">
        <ele>11.4</ele>
        <time>2026-04-25T06:05:10.000Z</time>
      </trkpt>
      <trkpt lat="51.331647" lon="1.343987">
        <ele>10.8</ele>
        <time>2026-04-25T06:05:19.000Z</time>
      </trkpt>
      <trkpt lat="51.331771" lon="1.343581">
        <ele>10.8</ele>
        <time>2026-04-25T06:05:27.000Z</time>
      </trkpt>
      <trkpt lat="51.331907" lon="1.34323">
        <ele>11</ele>
        <time>2026-04-25T06:05:34.000Z</time>
      </trkpt>
      <trkpt lat="51.332067" lon="1.342573">
        <ele>11</ele>
        <time>2026-04-25T06:05:45.000Z</time>
      </trkpt>
      <trkpt lat="51.332216" lon="1.342241">
        <ele>10.4</ele>
        <time>2026-04-25T06:05:52.000Z</time>
      </trkpt>
      <trkpt lat="51.332455" lon="1.341872">
        <ele>10.2</ele>
        <time>2026-04-25T06:06:01.000Z</time>
      </trkpt>
      <trkpt lat="51.33254" lon="1.341647">
        <ele>10.2</ele>
        <time>2026-04-25T06:06:05.000Z</time>
      </trkpt>
      <trkpt lat="51.332766" lon="1.340613">
        <ele>10.4</ele>
        <time>2026-04-25T06:06:24.000Z</time>
      </trkpt>
      <trkpt lat="51.332958" lon="1.339961">
        <ele>11.4</ele>
        <time>2026-04-25T06:06:36.000Z</time>
      </trkpt>
      <trkpt lat="51.333089" lon="1.339437">
        <ele>12.2</ele>
        <time>2026-04-25T06:06:45.000Z</time>
      </trkpt>
      <trkpt lat="51.333251" lon="1.338905">
        <ele>13.8</ele>
        <time>2026-04-25T06:06:55.000Z</time>
      </trkpt>
      <trkpt lat="51.333506" lon="1.338215">
        <ele>14.8</ele>
        <time>2026-04-25T06:07:08.000Z</time>
      </trkpt>
      <trkpt lat="51.333649" lon="1.337724">
        <ele>15.8</ele>
        <time>2026-04-25T06:07:17.000Z</time>
      </trkpt>
      <trkpt lat="51.333881" lon="1.33635">
        <ele>16.8</ele>
        <time>2026-04-25T06:07:41.000Z</time>
      </trkpt>
      <trkpt lat="51.333949" lon="1.335473">
        <ele>15.6</ele>
        <time>2026-04-25T06:07:56.000Z</time>
      </trkpt>
      <trkpt lat="51.3342" lon="1.333626">
        <ele>12</ele>
        <time>2026-04-25T06:08:27.000Z</time>
      </trkpt>
      <trkpt lat="51.334501" lon="1.332395">
        <ele>10.8</ele>
        <time>2026-04-25T06:08:49.000Z</time>
      </trkpt>
      <trkpt lat="51.334672" lon="1.331409">
        <ele>11</ele>
        <time>2026-04-25T06:09:06.000Z</time>
      </trkpt>
      <trkpt lat="51.334766" lon="1.330756">
        <ele>11</ele>
        <time>2026-04-25T06:09:18.000Z</time>
      </trkpt>
      <trkpt lat="51.335046" lon="1.329161">
        <ele>11.4</ele>
        <time>2026-04-25T06:09:45.000Z</time>
      </trkpt>
      <trkpt lat="51.335257" lon="1.328336">
        <ele>11.8</ele>
        <time>2026-04-25T06:10:00.000Z</time>
      </trkpt>
      <trkpt lat="51.335358" lon="1.327207">
        <ele>13.6</ele>
        <time>2026-04-25T06:10:19.000Z</time>
      </trkpt>
      <trkpt lat="51.335424" lon="1.326613">
        <ele>14.4</ele>
        <time>2026-04-25T06:10:29.000Z</time>
      </trkpt>
      <trkpt lat="51.335576" lon="1.325524">
        <ele>15.4</ele>
        <time>2026-04-25T06:10:48.000Z</time>
      </trkpt>
      <trkpt lat="51.33565" lon="1.324704">
        <ele>16.2</ele>
        <time>2026-04-25T06:11:02.000Z</time>
      </trkpt>
      <trkpt lat="51.335711" lon="1.32444">
        <ele>16.6</ele>
        <time>2026-04-25T06:11:06.000Z</time>
      </trkpt>
      <trkpt lat="51.335894" lon="1.323256">
        <ele>17.8</ele>
        <time>2026-04-25T06:11:27.000Z</time>
      </trkpt>
      <trkpt lat="51.335984" lon="1.322184">
        <ele>17.6</ele>
        <time>2026-04-25T06:11:45.000Z</time>
      </trkpt>
      <trkpt lat="51.336117" lon="1.319636">
        <ele>15.4</ele>
        <time>2026-04-25T06:12:27.000Z</time>
      </trkpt>
      <trkpt lat="51.336325" lon="1.31819">
        <ele>14.4</ele>
        <time>2026-04-25T06:12:52.000Z</time>
      </trkpt>
      <trkpt lat="51.336462" lon="1.317449">
        <ele>14.2</ele>
        <time>2026-04-25T06:13:05.000Z</time>
      </trkpt>
      <trkpt lat="51.336621" lon="1.316728">
        <ele>13.8</ele>
        <time>2026-04-25T06:13:18.000Z</time>
      </trkpt>
      <trkpt lat="51.336756" lon="1.315914">
        <ele>14.2</ele>
        <time>2026-04-25T06:13:32.000Z</time>
      </trkpt>
      <trkpt lat="51.336776" lon="1.315429">
        <ele>14.8</ele>
        <time>2026-04-25T06:13:40.000Z</time>
      </trkpt>
      <trkpt lat="51.336762" lon="1.314971">
        <ele>15.4</ele>
        <time>2026-04-25T06:13:48.000Z</time>
      </trkpt>
      <trkpt lat="51.336787" lon="1.314869">
        <ele>15.2</ele>
        <time>2026-04-25T06:13:49.000Z</time>
      </trkpt>
      <trkpt lat="51.336946" lon="1.314881">
        <ele>15</ele>
        <time>2026-04-25T06:13:54.000Z</time>
      </trkpt>
      <trkpt lat="51.337074" lon="1.31491">
        <ele>14.8</ele>
        <time>2026-04-25T06:13:57.000Z</time>
      </trkpt>
      <trkpt lat="51.337816" lon="1.315161">
        <ele>16.2</ele>
        <time>2026-04-25T06:14:17.000Z</time>
      </trkpt>
      <trkpt lat="51.338236" lon="1.315286">
        <ele>17.4</ele>
        <time>2026-04-25T06:14:29.000Z</time>
      </trkpt>
      <trkpt lat="51.338365" lon="1.315305">
        <ele>17.8</ele>
        <time>2026-04-25T06:14:32.000Z</time>
      </trkpt>
      <trkpt lat="51.338502" lon="1.315368">
        <ele>18</ele>
        <time>2026-04-25T06:14:36.000Z</time>
      </trkpt>
      <trkpt lat="51.338856" lon="1.315484">
        <ele>19</ele>
        <time>2026-04-25T06:14:46.000Z</time>
      </trkpt>
      <trkpt lat="51.339006" lon="1.315498">
        <ele>20.4</ele>
        <time>2026-04-25T06:14:50.000Z</time>
      </trkpt>
      <trkpt lat="51.339153" lon="1.315559">
        <ele>21.4</ele>
        <time>2026-04-25T06:14:54.000Z</time>
      </trkpt>
      <trkpt lat="51.339298" lon="1.315582">
        <ele>22.6</ele>
        <time>2026-04-25T06:14:58.000Z</time>
      </trkpt>
      <trkpt lat="51.339451" lon="1.315651">
        <ele>23.6</ele>
        <time>2026-04-25T06:15:02.000Z</time>
      </trkpt>
      <trkpt lat="51.339996" lon="1.315783">
        <ele>27</ele>
        <time>2026-04-25T06:15:17.000Z</time>
      </trkpt>
      <trkpt lat="51.34033" lon="1.315889">
        <ele>29.2</ele>
        <time>2026-04-25T06:15:26.000Z</time>
      </trkpt>
      <trkpt lat="51.341681" lon="1.316069">
        <ele>36</ele>
        <time>2026-04-25T06:16:02.000Z</time>
      </trkpt>
      <trkpt lat="51.342117" lon="1.316156">
        <ele>38</ele>
        <time>2026-04-25T06:16:14.000Z</time>
      </trkpt>
      <trkpt lat="51.342352" lon="1.316228">
        <ele>38.8</ele>
        <time>2026-04-25T06:16:20.000Z</time>
      </trkpt>
      <trkpt lat="51.342759" lon="1.316425">
        <ele>40.6</ele>
        <time>2026-04-25T06:16:31.000Z</time>
      </trkpt>
      <trkpt lat="51.342871" lon="1.316497">
        <ele>40.8</ele>
        <time>2026-04-25T06:16:34.000Z</time>
      </trkpt>
      <trkpt lat="51.343079" lon="1.316682">
        <ele>41.6</ele>
        <time>2026-04-25T06:16:41.000Z</time>
      </trkpt>
      <trkpt lat="51.343371" lon="1.317003">
        <ele>43.4</ele>
        <time>2026-04-25T06:16:50.000Z</time>
      </trkpt>
      <trkpt lat="51.343471" lon="1.317019">
        <ele>44</ele>
        <time>2026-04-25T06:16:53.000Z</time>
      </trkpt>
      <trkpt lat="51.343561" lon="1.316961">
        <ele>44.8</ele>
        <time>2026-04-25T06:16:56.000Z</time>
      </trkpt>
      <trkpt lat="51.343681" lon="1.316933">
        <ele>45</ele>
        <time>2026-04-25T06:16:59.000Z</time>
      </trkpt>
      <trkpt lat="51.343799" lon="1.31695">
        <ele>45</ele>
        <time>2026-04-25T06:17:02.000Z</time>
      </trkpt>
      <trkpt lat="51.343897" lon="1.317026">
        <ele>45</ele>
        <time>2026-04-25T06:17:05.000Z</time>
      </trkpt>
      <trkpt lat="51.344064" lon="1.31725">
        <ele>45</ele>
        <time>2026-04-25T06:17:11.000Z</time>
      </trkpt>
      <trkpt lat="51.344156" lon="1.317313">
        <ele>45</ele>
        <time>2026-04-25T06:17:13.000Z</time>
      </trkpt>
      <trkpt lat="51.344273" lon="1.317355">
        <ele>45</ele>
        <time>2026-04-25T06:17:17.000Z</time>
      </trkpt>
      <trkpt lat="51.344509" lon="1.317382">
        <ele>45.2</ele>
        <time>2026-04-25T06:17:23.000Z</time>
      </trkpt>
      <trkpt lat="51.345122" lon="1.317401">
        <ele>46.8</ele>
        <time>2026-04-25T06:17:39.000Z</time>
      </trkpt>
      <trkpt lat="51.34543" lon="1.317455">
        <ele>47.4</ele>
        <time>2026-04-25T06:17:48.000Z</time>
      </trkpt>
      <trkpt lat="51.345744" lon="1.317544">
        <ele>47.4</ele>
        <time>2026-04-25T06:17:56.000Z</time>
      </trkpt>
      <trkpt lat="51.346008" lon="1.317644">
        <ele>47.2</ele>
        <time>2026-04-25T06:18:03.000Z</time>
      </trkpt>
      <trkpt lat="51.346284" lon="1.317775">
        <ele>46.4</ele>
        <time>2026-04-25T06:18:11.000Z</time>
      </trkpt>
      <trkpt lat="51.346723" lon="1.318023">
        <ele>45.6</ele>
        <time>2026-04-25T06:18:23.000Z</time>
      </trkpt>
      <trkpt lat="51.346797" lon="1.318049">
        <ele>45.6</ele>
        <time>2026-04-25T06:18:25.000Z</time>
      </trkpt>
      <trkpt lat="51.34695" lon="1.318026">
        <ele>45.2</ele>
        <time>2026-04-25T06:18:30.000Z</time>
      </trkpt>
      <trkpt lat="51.347104" lon="1.317974">
        <ele>44.4</ele>
        <time>2026-04-25T06:18:34.000Z</time>
      </trkpt>
      <trkpt lat="51.347185" lon="1.317964">
        <ele>44.2</ele>
        <time>2026-04-25T06:18:36.000Z</time>
      </trkpt>
      <trkpt lat="51.347443" lon="1.317989">
        <ele>43.6</ele>
        <time>2026-04-25T06:18:43.000Z</time>
      </trkpt>
      <trkpt lat="51.348007" lon="1.318115">
        <ele>42.2</ele>
        <time>2026-04-25T06:18:58.000Z</time>
      </trkpt>
      <trkpt lat="51.348505" lon="1.318261">
        <ele>40.6</ele>
        <time>2026-04-25T06:19:11.000Z</time>
      </trkpt>
      <trkpt lat="51.348891" lon="1.318464">
        <ele>38.6</ele>
        <time>2026-04-25T06:19:22.000Z</time>
      </trkpt>
      <trkpt lat="51.349083" lon="1.318545">
        <ele>38.6</ele>
        <time>2026-04-25T06:19:28.000Z</time>
      </trkpt>
      <trkpt lat="51.349183" lon="1.318553">
        <ele>38</ele>
        <time>2026-04-25T06:19:30.000Z</time>
      </trkpt>
      <trkpt lat="51.349282" lon="1.318538">
        <ele>37.8</ele>
        <time>2026-04-25T06:19:33.000Z</time>
      </trkpt>
      <trkpt lat="51.34966" lon="1.318415">
        <ele>36.6</ele>
        <time>2026-04-25T06:19:43.000Z</time>
      </trkpt>
      <trkpt lat="51.349918" lon="1.318282">
        <ele>35.4</ele>
        <time>2026-04-25T06:19:50.000Z</time>
      </trkpt>
      <trkpt lat="51.350142" lon="1.318063">
        <ele>34.8</ele>
        <time>2026-04-25T06:19:58.000Z</time>
      </trkpt>
      <trkpt lat="51.350881" lon="1.317269">
        <ele>32.8</ele>
        <time>2026-04-25T06:20:21.000Z</time>
      </trkpt>
      <trkpt lat="51.351925" lon="1.316215">
        <ele>30.2</ele>
        <time>2026-04-25T06:20:54.000Z</time>
      </trkpt>
      <trkpt lat="51.352635" lon="1.315466">
        <ele>29.6</ele>
        <time>2026-04-25T06:21:17.000Z</time>
      </trkpt>
      <trkpt lat="51.353571" lon="1.314532">
        <ele>27.6</ele>
        <time>2026-04-25T06:21:46.000Z</time>
      </trkpt>
      <trkpt lat="51.354137" lon="1.313943">
        <ele>26</ele>
        <time>2026-04-25T06:22:04.000Z</time>
      </trkpt>
      <trkpt lat="51.354426" lon="1.313681">
        <ele>25.6</ele>
        <time>2026-04-25T06:22:13.000Z</time>
      </trkpt>
      <trkpt lat="51.35475" lon="1.313456">
        <ele>24.8</ele>
        <time>2026-04-25T06:22:23.000Z</time>
      </trkpt>
      <trkpt lat="51.354926" lon="1.313362">
        <ele>24.4</ele>
        <time>2026-04-25T06:22:28.000Z</time>
      </trkpt>
      <trkpt lat="51.355117" lon="1.313315">
        <ele>24</ele>
        <time>2026-04-25T06:22:33.000Z</time>
      </trkpt>
      <trkpt lat="51.355402" lon="1.31332">
        <ele>22.6</ele>
        <time>2026-04-25T06:22:40.000Z</time>
      </trkpt>
      <trkpt lat="51.355589" lon="1.313263">
        <ele>21.4</ele>
        <time>2026-04-25T06:22:45.000Z</time>
      </trkpt>
      <trkpt lat="51.355763" lon="1.313132">
        <ele>20.6</ele>
        <time>2026-04-25T06:22:51.000Z</time>
      </trkpt>
      <trkpt lat="51.356091" lon="1.312822">
        <ele>19.4</ele>
        <time>2026-04-25T06:23:01.000Z</time>
      </trkpt>
      <trkpt lat="51.356172" lon="1.312757">
        <ele>19.2</ele>
        <time>2026-04-25T06:23:03.000Z</time>
      </trkpt>
      <trkpt lat="51.356259" lon="1.312714">
        <ele>19</ele>
        <time>2026-04-25T06:23:06.000Z</time>
      </trkpt>
      <trkpt lat="51.356429" lon="1.312703">
        <ele>18</ele>
        <time>2026-04-25T06:23:10.000Z</time>
      </trkpt>
      <trkpt lat="51.356847" lon="1.312763">
        <ele>17.2</ele>
        <time>2026-04-25T06:23:21.000Z</time>
      </trkpt>
      <trkpt lat="51.357248" lon="1.312907">
        <ele>16.8</ele>
        <time>2026-04-25T06:23:32.000Z</time>
      </trkpt>
      <trkpt lat="51.358043" lon="1.313247">
        <ele>14.8</ele>
        <time>2026-04-25T06:23:54.000Z</time>
      </trkpt>
      <trkpt lat="51.358557" lon="1.313379">
        <ele>13.8</ele>
        <time>2026-04-25T06:24:08.000Z</time>
      </trkpt>
      <trkpt lat="51.358701" lon="1.313386">
        <ele>13.6</ele>
        <time>2026-04-25T06:24:12.000Z</time>
      </trkpt>
      <trkpt lat="51.358833" lon="1.313357">
        <ele>13.4</ele>
        <time>2026-04-25T06:24:16.000Z</time>
      </trkpt>
      <trkpt lat="51.359652" lon="1.312819">
        <ele>14.2</ele>
        <time>2026-04-25T06:24:39.000Z</time>
      </trkpt>
      <trkpt lat="51.359923" lon="1.312686">
        <ele>14.8</ele>
        <time>2026-04-25T06:24:47.000Z</time>
      </trkpt>
      <trkpt lat="51.360458" lon="1.312354">
        <ele>15.2</ele>
        <time>2026-04-25T06:25:02.000Z</time>
      </trkpt>
      <trkpt lat="51.360805" lon="1.312168">
        <ele>16</ele>
        <time>2026-04-25T06:25:12.000Z</time>
      </trkpt>
      <trkpt lat="51.361078" lon="1.312043">
        <ele>17.4</ele>
        <time>2026-04-25T06:25:19.000Z</time>
      </trkpt>
      <trkpt lat="51.361631" lon="1.311686">
        <ele>20.8</ele>
        <time>2026-04-25T06:25:35.000Z</time>
      </trkpt>
      <trkpt lat="51.362133" lon="1.31121">
        <ele>23</ele>
        <time>2026-04-25T06:25:51.000Z</time>
      </trkpt>
      <trkpt lat="51.363679" lon="1.309662">
        <ele>28</ele>
        <time>2026-04-25T06:26:40.000Z</time>
      </trkpt>
      <trkpt lat="51.363969" lon="1.30942">
        <ele>28.2</ele>
        <time>2026-04-25T06:26:48.000Z</time>
      </trkpt>
      <trkpt lat="51.364096" lon="1.309352">
        <ele>28.2</ele>
        <time>2026-04-25T06:26:52.000Z</time>
      </trkpt>
      <trkpt lat="51.364234" lon="1.309341">
        <ele>28</ele>
        <time>2026-04-25T06:26:56.000Z</time>
      </trkpt>
      <trkpt lat="51.364508" lon="1.309395">
        <ele>28</ele>
        <time>2026-04-25T06:27:03.000Z</time>
      </trkpt>
      <trkpt lat="51.365176" lon="1.309574">
        <ele>26.6</ele>
        <time>2026-04-25T06:27:21.000Z</time>
      </trkpt>
      <trkpt lat="51.366589" lon="1.309911">
        <ele>25</ele>
        <time>2026-04-25T06:27:59.000Z</time>
      </trkpt>
      <trkpt lat="51.367297" lon="1.310096">
        <ele>24.2</ele>
        <time>2026-04-25T06:28:18.000Z</time>
      </trkpt>
      <trkpt lat="51.367883" lon="1.310214">
        <ele>23.4</ele>
        <time>2026-04-25T06:28:34.000Z</time>
      </trkpt>
      <trkpt lat="51.368101" lon="1.31023">
        <ele>22.8</ele>
        <time>2026-04-25T06:28:40.000Z</time>
      </trkpt>
      <trkpt lat="51.368239" lon="1.310214">
        <ele>22.4</ele>
        <time>2026-04-25T06:28:44.000Z</time>
      </trkpt>
      <trkpt lat="51.368374" lon="1.310165">
        <ele>22.2</ele>
        <time>2026-04-25T06:28:47.000Z</time>
      </trkpt>
      <trkpt lat="51.368575" lon="1.310054">
        <ele>21.4</ele>
        <time>2026-04-25T06:28:53.000Z</time>
      </trkpt>
      <trkpt lat="51.368924" lon="1.309909">
        <ele>21</ele>
        <time>2026-04-25T06:29:03.000Z</time>
      </trkpt>
      <trkpt lat="51.369197" lon="1.309759">
        <ele>20.8</ele>
        <time>2026-04-25T06:29:10.000Z</time>
      </trkpt>
      <trkpt lat="51.369639" lon="1.309584">
        <ele>20.8</ele>
        <time>2026-04-25T06:29:22.000Z</time>
      </trkpt>
      <trkpt lat="51.370509" lon="1.30919">
        <ele>21.2</ele>
        <time>2026-04-25T06:29:47.000Z</time>
      </trkpt>
      <trkpt lat="51.371084" lon="1.308977">
        <ele>22</ele>
        <time>2026-04-25T06:30:02.000Z</time>
      </trkpt>
      <trkpt lat="51.372473" lon="1.307833">
        <ele>23.6</ele>
        <time>2026-04-25T06:30:44.000Z</time>
      </trkpt>
      <trkpt lat="51.372947" lon="1.307412">
        <ele>23.6</ele>
        <time>2026-04-25T06:30:59.000Z</time>
      </trkpt>
      <trkpt lat="51.373431" lon="1.307086">
        <ele>23.2</ele>
        <time>2026-04-25T06:31:13.000Z</time>
      </trkpt>
      <trkpt lat="51.373478" lon="1.307046">
        <ele>23.2</ele>
        <time>2026-04-25T06:31:14.000Z</time>
      </trkpt>
      <trkpt lat="51.373602" lon="1.30687">
        <ele>22</ele>
        <time>2026-04-25T06:31:18.000Z</time>
      </trkpt>
      <trkpt lat="51.373645" lon="1.306853">
        <ele>21.8</ele>
        <time>2026-04-25T06:31:20.000Z</time>
      </trkpt>
      <trkpt lat="51.373866" lon="1.306907">
        <ele>21.8</ele>
        <time>2026-04-25T06:31:26.000Z</time>
      </trkpt>
      <trkpt lat="51.373906" lon="1.306885">
        <ele>21.6</ele>
        <time>2026-04-25T06:31:27.000Z</time>
      </trkpt>
      <trkpt lat="51.374102" lon="1.306458">
        <ele>21.4</ele>
        <time>2026-04-25T06:31:35.000Z</time>
      </trkpt>
      <trkpt lat="51.374236" lon="1.306248">
        <ele>21.2</ele>
        <time>2026-04-25T06:31:40.000Z</time>
      </trkpt>
      <trkpt lat="51.374688" lon="1.305653">
        <ele>20.4</ele>
        <time>2026-04-25T06:31:56.000Z</time>
      </trkpt>
      <trkpt lat="51.375094" lon="1.305166">
        <ele>20.6</ele>
        <time>2026-04-25T06:32:10.000Z</time>
      </trkpt>
      <trkpt lat="51.375798" lon="1.304386">
        <ele>20</ele>
        <time>2026-04-25T06:32:32.000Z</time>
      </trkpt>
      <trkpt lat="51.376165" lon="1.303951">
        <ele>19.8</ele>
        <time>2026-04-25T06:32:45.000Z</time>
      </trkpt>
      <trkpt lat="51.376394" lon="1.303714">
        <ele>19.8</ele>
        <time>2026-04-25T06:32:52.000Z</time>
      </trkpt>
      <trkpt lat="51.376557" lon="1.30349">
        <ele>19.8</ele>
        <time>2026-04-25T06:32:58.000Z</time>
      </trkpt>
      <trkpt lat="51.376707" lon="1.303227">
        <ele>19.6</ele>
        <time>2026-04-25T06:33:04.000Z</time>
      </trkpt>
      <trkpt lat="51.376783" lon="1.302943">
        <ele>19.4</ele>
        <time>2026-04-25T06:33:09.000Z</time>
      </trkpt>
      <trkpt lat="51.376803" lon="1.30272">
        <ele>19.2</ele>
        <time>2026-04-25T06:33:13.000Z</time>
      </trkpt>
      <trkpt lat="51.376715" lon="1.300088">
        <ele>17</ele>
        <time>2026-04-25T06:33:56.000Z</time>
      </trkpt>
      <trkpt lat="51.376607" lon="1.298703">
        <ele>15.2</ele>
        <time>2026-04-25T06:34:20.000Z</time>
      </trkpt>
      <trkpt lat="51.376552" lon="1.297567">
        <ele>13.4</ele>
        <time>2026-04-25T06:34:39.000Z</time>
      </trkpt>
      <trkpt lat="51.376571" lon="1.296576">
        <ele>11.8</ele>
        <time>2026-04-25T06:34:55.000Z</time>
      </trkpt>
      <trkpt lat="51.376602" lon="1.296173">
        <ele>10.6</ele>
        <time>2026-04-25T06:35:02.000Z</time>
      </trkpt>
      <trkpt lat="51.376644" lon="1.295913">
        <ele>10.2</ele>
        <time>2026-04-25T06:35:06.000Z</time>
      </trkpt>
      <trkpt lat="51.376859" lon="1.295226">
        <ele>7.8</ele>
        <time>2026-04-25T06:35:19.000Z</time>
      </trkpt>
      <trkpt lat="51.377155" lon="1.294473">
        <ele>6.2</ele>
        <time>2026-04-25T06:35:34.000Z</time>
      </trkpt>
      <trkpt lat="51.377293" lon="1.2937">
        <ele>5.2</ele>
        <time>2026-04-25T06:35:47.000Z</time>
      </trkpt>
      <trkpt lat="51.377439" lon="1.293182">
        <ele>5.4</ele>
        <time>2026-04-25T06:35:57.000Z</time>
      </trkpt>
      <trkpt lat="51.377598" lon="1.292458">
        <ele>5.6</ele>
        <time>2026-04-25T06:36:10.000Z</time>
      </trkpt>
      <trkpt lat="51.377733" lon="1.291539">
        <ele>5.6</ele>
        <time>2026-04-25T06:36:25.000Z</time>
      </trkpt>
      <trkpt lat="51.377829" lon="1.290274">
        <ele>5.2</ele>
        <time>2026-04-25T06:36:47.000Z</time>
      </trkpt>
      <trkpt lat="51.377934" lon="1.289443">
        <ele>4.8</ele>
        <time>2026-04-25T06:37:01.000Z</time>
      </trkpt>
      <trkpt lat="51.378068" lon="1.288832">
        <ele>4.2</ele>
        <time>2026-04-25T06:37:12.000Z</time>
      </trkpt>
      <trkpt lat="51.37831" lon="1.288018">
        <ele>3.8</ele>
        <time>2026-04-25T06:37:27.000Z</time>
      </trkpt>
      <trkpt lat="51.378426" lon="1.287754">
        <ele>3.8</ele>
        <time>2026-04-25T06:37:32.000Z</time>
      </trkpt>
      <trkpt lat="51.378522" lon="1.287613">
        <ele>3.6</ele>
        <time>2026-04-25T06:37:36.000Z</time>
      </trkpt>
      <trkpt lat="51.379819" lon="1.28622">
        <ele>3</ele>
        <time>2026-04-25T06:38:17.000Z</time>
      </trkpt>
      <trkpt lat="51.380042" lon="1.285951">
        <ele>2.8</ele>
        <time>2026-04-25T06:38:25.000Z</time>
      </trkpt>
      <trkpt lat="51.380106" lon="1.285825">
        <ele>2.8</ele>
        <time>2026-04-25T06:38:27.000Z</time>
      </trkpt>
      <trkpt lat="51.380102" lon="1.285664">
        <ele>2.6</ele>
        <time>2026-04-25T06:38:30.000Z</time>
      </trkpt>
      <trkpt lat="51.380077" lon="1.285589">
        <ele>2.6</ele>
        <time>2026-04-25T06:38:31.000Z</time>
      </trkpt>
      <trkpt lat="51.378993" lon="1.283169">
        <ele>3.2</ele>
        <time>2026-04-25T06:39:21.000Z</time>
      </trkpt>
      <trkpt lat="51.378367" lon="1.281574">
        <ele>3.4</ele>
        <time>2026-04-25T06:39:52.000Z</time>
      </trkpt>
      <trkpt lat="51.378267" lon="1.281423">
        <ele>3.4</ele>
        <time>2026-04-25T06:39:56.000Z</time>
      </trkpt>
      <trkpt lat="51.378194" lon="1.281355">
        <ele>3.4</ele>
        <time>2026-04-25T06:39:58.000Z</time>
      </trkpt>
      <trkpt lat="51.378116" lon="1.281314">
        <ele>3.6</ele>
        <time>2026-04-25T06:40:01.000Z</time>
      </trkpt>
      <trkpt lat="51.377977" lon="1.281311">
        <ele>3.8</ele>
        <time>2026-04-25T06:40:04.000Z</time>
      </trkpt>
      <trkpt lat="51.377721" lon="1.281406">
        <ele>4.2</ele>
        <time>2026-04-25T06:40:11.000Z</time>
      </trkpt>
      <trkpt lat="51.377647" lon="1.281404">
        <ele>4.2</ele>
        <time>2026-04-25T06:40:13.000Z</time>
      </trkpt>
      <trkpt lat="51.377616" lon="1.281382">
        <ele>4.4</ele>
        <time>2026-04-25T06:40:14.000Z</time>
      </trkpt>
      <trkpt lat="51.377585" lon="1.281297">
        <ele>4.4</ele>
        <time>2026-04-25T06:40:16.000Z</time>
      </trkpt>
      <trkpt lat="51.377612" lon="1.281053">
        <ele>5</ele>
        <time>2026-04-25T06:40:20.000Z</time>
      </trkpt>
      <trkpt lat="51.377588" lon="1.280888">
        <ele>5.4</ele>
        <time>2026-04-25T06:40:23.000Z</time>
      </trkpt>
      <trkpt lat="51.377463" lon="1.280609">
        <ele>5.2</ele>
        <time>2026-04-25T06:40:29.000Z</time>
      </trkpt>
      <trkpt lat="51.377418" lon="1.280418">
        <ele>5</ele>
        <time>2026-04-25T06:40:32.000Z</time>
      </trkpt>
      <trkpt lat="51.377423" lon="1.280203">
        <ele>5.4</ele>
        <time>2026-04-25T06:40:35.000Z</time>
      </trkpt>
      <trkpt lat="51.377486" lon="1.279871">
        <ele>5.4</ele>
        <time>2026-04-25T06:40:41.000Z</time>
      </trkpt>
      <trkpt lat="51.377498" lon="1.27943">
        <ele>5.6</ele>
        <time>2026-04-25T06:40:49.000Z</time>
      </trkpt>
      <trkpt lat="51.37734" lon="1.278069">
        <ele>6.2</ele>
        <time>2026-04-25T06:41:12.000Z</time>
      </trkpt>
      <trkpt lat="51.377327" lon="1.277785">
        <ele>6.2</ele>
        <time>2026-04-25T06:41:16.000Z</time>
      </trkpt>
      <trkpt lat="51.377342" lon="1.277692">
        <ele>6.4</ele>
        <time>2026-04-25T06:41:18.000Z</time>
      </trkpt>
      <trkpt lat="51.377454" lon="1.277336">
        <ele>6.4</ele>
        <time>2026-04-25T06:41:25.000Z</time>
      </trkpt>
      <trkpt lat="51.377472" lon="1.277127">
        <ele>6.4</ele>
        <time>2026-04-25T06:41:28.000Z</time>
      </trkpt>
      <trkpt lat="51.377351" lon="1.275024">
        <ele>6.6</ele>
        <time>2026-04-25T06:42:03.000Z</time>
      </trkpt>
      <trkpt lat="51.377253" lon="1.272348">
        <ele>7.2</ele>
        <time>2026-04-25T06:42:48.000Z</time>
      </trkpt>
      <trkpt lat="51.377213" lon="1.270831">
        <ele>7.4</ele>
        <time>2026-04-25T06:43:13.000Z</time>
      </trkpt>
      <trkpt lat="51.377218" lon="1.270099">
        <ele>7.4</ele>
        <time>2026-04-25T06:43:26.000Z</time>
      </trkpt>
      <trkpt lat="51.377268" lon="1.268916">
        <ele>7.4</ele>
        <time>2026-04-25T06:43:45.000Z</time>
      </trkpt>
      <trkpt lat="51.377379" lon="1.267539">
        <ele>7</ele>
        <time>2026-04-25T06:44:08.000Z</time>
      </trkpt>
      <trkpt lat="51.377437" lon="1.267272">
        <ele>6.8</ele>
        <time>2026-04-25T06:44:13.000Z</time>
      </trkpt>
      <trkpt lat="51.377686" lon="1.26658">
        <ele>5.6</ele>
        <time>2026-04-25T06:44:26.000Z</time>
      </trkpt>
      <trkpt lat="51.377709" lon="1.266412">
        <ele>5.2</ele>
        <time>2026-04-25T06:44:29.000Z</time>
      </trkpt>
      <trkpt lat="51.377741" lon="1.26542">
        <ele>4.6</ele>
        <time>2026-04-25T06:44:46.000Z</time>
      </trkpt>
      <trkpt lat="51.37774" lon="1.264623">
        <ele>4.6</ele>
        <time>2026-04-25T06:44:59.000Z</time>
      </trkpt>
      <trkpt lat="51.377404" lon="1.262334">
        <ele>5.2</ele>
        <time>2026-04-25T06:45:38.000Z</time>
      </trkpt>
      <trkpt lat="51.377129" lon="1.259871">
        <ele>6.6</ele>
        <time>2026-04-25T06:46:20.000Z</time>
      </trkpt>
      <trkpt lat="51.37696" lon="1.258012">
        <ele>6.6</ele>
        <time>2026-04-25T06:46:51.000Z</time>
      </trkpt>
      <trkpt lat="51.376922" lon="1.257733">
        <ele>6.8</ele>
        <time>2026-04-25T06:46:56.000Z</time>
      </trkpt>
      <trkpt lat="51.376876" lon="1.257554">
        <ele>7</ele>
        <time>2026-04-25T06:46:59.000Z</time>
      </trkpt>
      <trkpt lat="51.37681" lon="1.257382">
        <ele>7</ele>
        <time>2026-04-25T06:47:03.000Z</time>
      </trkpt>
      <trkpt lat="51.376499" lon="1.256786">
        <ele>7.2</ele>
        <time>2026-04-25T06:47:16.000Z</time>
      </trkpt>
      <trkpt lat="51.376437" lon="1.256612">
        <ele>7</ele>
        <time>2026-04-25T06:47:19.000Z</time>
      </trkpt>
      <trkpt lat="51.37618" lon="1.25553">
        <ele>6</ele>
        <time>2026-04-25T06:47:38.000Z</time>
      </trkpt>
      <trkpt lat="51.376143" lon="1.255221">
        <ele>5.6</ele>
        <time>2026-04-25T06:47:43.000Z</time>
      </trkpt>
      <trkpt lat="51.376153" lon="1.25501">
        <ele>5.4</ele>
        <time>2026-04-25T06:47:47.000Z</time>
      </trkpt>
      <trkpt lat="51.376212" lon="1.254521">
        <ele>5.6</ele>
        <time>2026-04-25T06:47:55.000Z</time>
      </trkpt>
      <trkpt lat="51.376366" lon="1.253838">
        <ele>5.8</ele>
        <time>2026-04-25T06:48:07.000Z</time>
      </trkpt>
      <trkpt lat="51.376447" lon="1.253347">
        <ele>6.2</ele>
        <time>2026-04-25T06:48:16.000Z</time>
      </trkpt>
      <trkpt lat="51.376586" lon="1.252006">
        <ele>6.2</ele>
        <time>2026-04-25T06:48:39.000Z</time>
      </trkpt>
      <trkpt lat="51.377045" lon="1.248011">
        <ele>5.6</ele>
        <time>2026-04-25T06:49:46.000Z</time>
      </trkpt>
      <trkpt lat="51.377682" lon="1.242888">
        <ele>5.8</ele>
        <time>2026-04-25T06:51:13.000Z</time>
      </trkpt>
      <trkpt lat="51.377823" lon="1.24156">
        <ele>5.6</ele>
        <time>2026-04-25T06:51:36.000Z</time>
      </trkpt>
      <trkpt lat="51.377812" lon="1.240417">
        <ele>5.2</ele>
        <time>2026-04-25T06:51:55.000Z</time>
      </trkpt>
      <trkpt lat="51.377846" lon="1.239423">
        <ele>4.8</ele>
        <time>2026-04-25T06:52:11.000Z</time>
      </trkpt>
      <trkpt lat="51.377735" lon="1.238451">
        <ele>4.6</ele>
        <time>2026-04-25T06:52:28.000Z</time>
      </trkpt>
      <trkpt lat="51.377644" lon="1.237973">
        <ele>4.6</ele>
        <time>2026-04-25T06:52:36.000Z</time>
      </trkpt>
      <trkpt lat="51.377642" lon="1.237248">
        <ele>5</ele>
        <time>2026-04-25T06:52:48.000Z</time>
      </trkpt>
      <trkpt lat="51.377589" lon="1.236106">
        <ele>5</ele>
        <time>2026-04-25T06:53:07.000Z</time>
      </trkpt>
      <trkpt lat="51.377429" lon="1.235391">
        <ele>5</ele>
        <time>2026-04-25T06:53:20.000Z</time>
      </trkpt>
      <trkpt lat="51.377414" lon="1.235224">
        <ele>5</ele>
        <time>2026-04-25T06:53:23.000Z</time>
      </trkpt>
      <trkpt lat="51.377454" lon="1.235076">
        <ele>5</ele>
        <time>2026-04-25T06:53:25.000Z</time>
      </trkpt>
      <trkpt lat="51.378478" lon="1.233089">
        <ele>4.4</ele>
        <time>2026-04-25T06:54:08.000Z</time>
      </trkpt>
      <trkpt lat="51.37865" lon="1.232599">
        <ele>4.2</ele>
        <time>2026-04-25T06:54:18.000Z</time>
      </trkpt>
      <trkpt lat="51.378656" lon="1.232392">
        <ele>4.4</ele>
        <time>2026-04-25T06:54:21.000Z</time>
      </trkpt>
      <trkpt lat="51.378624" lon="1.232078">
        <ele>4.2</ele>
        <time>2026-04-25T06:54:26.000Z</time>
      </trkpt>
      <trkpt lat="51.378605" lon="1.231636">
        <ele>4.8</ele>
        <time>2026-04-25T06:54:34.000Z</time>
      </trkpt>
      <trkpt lat="51.378614" lon="1.230969">
        <ele>5</ele>
        <time>2026-04-25T06:54:45.000Z</time>
      </trkpt>
      <trkpt lat="51.378647" lon="1.230422">
        <ele>5.2</ele>
        <time>2026-04-25T06:54:54.000Z</time>
      </trkpt>
      <trkpt lat="51.379203" lon="1.223014">
        <ele>5</ele>
        <time>2026-04-25T06:56:58.000Z</time>
      </trkpt>
      <trkpt lat="51.379349" lon="1.221284">
        <ele>5.2</ele>
        <time>2026-04-25T06:57:28.000Z</time>
      </trkpt>
      <trkpt lat="51.379495" lon="1.219212">
        <ele>5</ele>
        <time>2026-04-25T06:58:02.000Z</time>
      </trkpt>
      <trkpt lat="51.379883" lon="1.214705">
        <ele>5</ele>
        <time>2026-04-25T06:59:18.000Z</time>
      </trkpt>
      <trkpt lat="51.379903" lon="1.213149">
        <ele>5</ele>
        <time>2026-04-25T06:59:44.000Z</time>
      </trkpt>
      <trkpt lat="51.379874" lon="1.211068">
        <ele>5.6</ele>
        <time>2026-04-25T07:00:19.000Z</time>
      </trkpt>
      <trkpt lat="51.37992" lon="1.209382">
        <ele>5.6</ele>
        <time>2026-04-25T07:00:47.000Z</time>
      </trkpt>
      <trkpt lat="51.37989" lon="1.20906">
        <ele>5.4</ele>
        <time>2026-04-25T07:00:52.000Z</time>
      </trkpt>
      <trkpt lat="51.379757" lon="1.20856">
        <ele>5.6</ele>
        <time>2026-04-25T07:01:01.000Z</time>
      </trkpt>
      <trkpt lat="51.379733" lon="1.208352">
        <ele>5.6</ele>
        <time>2026-04-25T07:01:05.000Z</time>
      </trkpt>
      <trkpt lat="51.379734" lon="1.207342">
        <ele>5.8</ele>
        <time>2026-04-25T07:01:22.000Z</time>
      </trkpt>
      <trkpt lat="51.379675" lon="1.204783">
        <ele>6</ele>
        <time>2026-04-25T07:02:04.000Z</time>
      </trkpt>
      <trkpt lat="51.379697" lon="1.203114">
        <ele>5.4</ele>
        <time>2026-04-25T07:02:32.000Z</time>
      </trkpt>
      <trkpt lat="51.379751" lon="1.202731">
        <ele>5.4</ele>
        <time>2026-04-25T07:02:39.000Z</time>
      </trkpt>
      <trkpt lat="51.379769" lon="1.202477">
        <ele>5.4</ele>
        <time>2026-04-25T07:02:43.000Z</time>
      </trkpt>
      <trkpt lat="51.379739" lon="1.201891">
        <ele>5.4</ele>
        <time>2026-04-25T07:02:53.000Z</time>
      </trkpt>
      <trkpt lat="51.379696" lon="1.201462">
        <ele>5.2</ele>
        <time>2026-04-25T07:03:00.000Z</time>
      </trkpt>
      <trkpt lat="51.379656" lon="1.201326">
        <ele>5.2</ele>
        <time>2026-04-25T07:03:02.000Z</time>
      </trkpt>
      <trkpt lat="51.379626" lon="1.201281">
        <ele>5.2</ele>
        <time>2026-04-25T07:03:04.000Z</time>
      </trkpt>
      <trkpt lat="51.37959" lon="1.201263">
        <ele>5.2</ele>
        <time>2026-04-25T07:03:05.000Z</time>
      </trkpt>
      <trkpt lat="51.379479" lon="1.20127">
        <ele>5.2</ele>
        <time>2026-04-25T07:03:08.000Z</time>
      </trkpt>
      <trkpt lat="51.379345" lon="1.201246">
        <ele>5.4</ele>
        <time>2026-04-25T07:03:11.000Z</time>
      </trkpt>
      <trkpt lat="51.378647" lon="1.201031">
        <ele>5.8</ele>
        <time>2026-04-25T07:03:30.000Z</time>
      </trkpt>
      <trkpt lat="51.378552" lon="1.200977">
        <ele>5.8</ele>
        <time>2026-04-25T07:03:33.000Z</time>
      </trkpt>
      <trkpt lat="51.378495" lon="1.200864">
        <ele>5.6</ele>
        <time>2026-04-25T07:03:35.000Z</time>
      </trkpt>
      <trkpt lat="51.378483" lon="1.200704">
        <ele>5.6</ele>
        <time>2026-04-25T07:03:38.000Z</time>
      </trkpt>
      <trkpt lat="51.378494" lon="1.200534">
        <ele>5.6</ele>
        <time>2026-04-25T07:03:41.000Z</time>
      </trkpt>
      <trkpt lat="51.378606" lon="1.199381">
        <ele>5.6</ele>
        <time>2026-04-25T07:04:00.000Z</time>
      </trkpt>
      <trkpt lat="51.37876" lon="1.198483">
        <ele>5</ele>
        <time>2026-04-25T07:04:16.000Z</time>
      </trkpt>
      <trkpt lat="51.3788" lon="1.198362">
        <ele>4.6</ele>
        <time>2026-04-25T07:04:18.000Z</time>
      </trkpt>
      <trkpt lat="51.378799" lon="1.19811">
        <ele>4</ele>
        <time>2026-04-25T07:04:22.000Z</time>
      </trkpt>
      <trkpt lat="51.378771" lon="1.198023">
        <ele>3.6</ele>
        <time>2026-04-25T07:04:24.000Z</time>
      </trkpt>
      <trkpt lat="51.378743" lon="1.197999">
        <ele>3.4</ele>
        <time>2026-04-25T07:04:25.000Z</time>
      </trkpt>
      <trkpt lat="51.378512" lon="1.197942">
        <ele>2.6</ele>
        <time>2026-04-25T07:04:31.000Z</time>
      </trkpt>
      <trkpt lat="51.378434" lon="1.197887">
        <ele>2.2</ele>
        <time>2026-04-25T07:04:33.000Z</time>
      </trkpt>
      <trkpt lat="51.378367" lon="1.197792">
        <ele>2</ele>
        <time>2026-04-25T07:04:36.000Z</time>
      </trkpt>
      <trkpt lat="51.378325" lon="1.197662">
        <ele>1.8</ele>
        <time>2026-04-25T07:04:38.000Z</time>
      </trkpt>
      <trkpt lat="51.378175" lon="1.196573">
        <ele>0.19999999999999</ele>
        <time>2026-04-25T07:04:57.000Z</time>
      </trkpt>
      <trkpt lat="51.378139" lon="1.196139">
        <ele>0.39999999999998</ele>
        <time>2026-04-25T07:05:04.000Z</time>
      </trkpt>
      <trkpt lat="51.378101" lon="1.195295">
        <ele>1</ele>
        <time>2026-04-25T07:05:18.000Z</time>
      </trkpt>
      <trkpt lat="51.378068" lon="1.195101">
        <ele>1.2</ele>
        <time>2026-04-25T07:05:21.000Z</time>
      </trkpt>
      <trkpt lat="51.378014" lon="1.194935">
        <ele>1.2</ele>
        <time>2026-04-25T07:05:24.000Z</time>
      </trkpt>
      <trkpt lat="51.377885" lon="1.194744">
        <ele>1.2</ele>
        <time>2026-04-25T07:05:29.000Z</time>
      </trkpt>
      <trkpt lat="51.377551" lon="1.194372">
        <ele>1.2</ele>
        <time>2026-04-25T07:05:40.000Z</time>
      </trkpt>
      <trkpt lat="51.377344" lon="1.194192">
        <ele>1.4</ele>
        <time>2026-04-25T07:05:46.000Z</time>
      </trkpt>
      <trkpt lat="51.376759" lon="1.193758">
        <ele>2.6</ele>
        <time>2026-04-25T07:06:04.000Z</time>
      </trkpt>
      <trkpt lat="51.376332" lon="1.193411">
        <ele>2.8</ele>
        <time>2026-04-25T07:06:16.000Z</time>
      </trkpt>
      <trkpt lat="51.376095" lon="1.193175">
        <ele>3</ele>
        <time>2026-04-25T07:06:24.000Z</time>
      </trkpt>
      <trkpt lat="51.375905" lon="1.192936">
        <ele>3.2</ele>
        <time>2026-04-25T07:06:30.000Z</time>
      </trkpt>
      <trkpt lat="51.375595" lon="1.19247">
        <ele>3.4</ele>
        <time>2026-04-25T07:06:42.000Z</time>
      </trkpt>
      <trkpt lat="51.375053" lon="1.191457">
        <ele>3.6</ele>
        <time>2026-04-25T07:07:04.000Z</time>
      </trkpt>
      <trkpt lat="51.374722" lon="1.19078">
        <ele>4.2</ele>
        <time>2026-04-25T07:07:18.000Z</time>
      </trkpt>
      <trkpt lat="51.374602" lon="1.190569">
        <ele>4.2</ele>
        <time>2026-04-25T07:07:23.000Z</time>
      </trkpt>
      <trkpt lat="51.374314" lon="1.190132">
        <ele>4.6</ele>
        <time>2026-04-25T07:07:33.000Z</time>
      </trkpt>
      <trkpt lat="51.374009" lon="1.189575">
        <ele>5</ele>
        <time>2026-04-25T07:07:46.000Z</time>
      </trkpt>
      <trkpt lat="51.373741" lon="1.188944">
        <ele>5.6</ele>
        <time>2026-04-25T07:07:59.000Z</time>
      </trkpt>
      <trkpt lat="51.373468" lon="1.188121">
        <ele>6</ele>
        <time>2026-04-25T07:08:14.000Z</time>
      </trkpt>
      <trkpt lat="51.373297" lon="1.187666">
        <ele>6.4</ele>
        <time>2026-04-25T07:08:23.000Z</time>
      </trkpt>
      <trkpt lat="51.372692" lon="1.186488">
        <ele>7.6</ele>
        <time>2026-04-25T07:08:48.000Z</time>
      </trkpt>
      <trkpt lat="51.372476" lon="1.186016">
        <ele>8.6</ele>
        <time>2026-04-25T07:08:58.000Z</time>
      </trkpt>
      <trkpt lat="51.372295" lon="1.185448">
        <ele>9.4</ele>
        <time>2026-04-25T07:09:09.000Z</time>
      </trkpt>
      <trkpt lat="51.372029" lon="1.184359">
        <ele>10.6</ele>
        <time>2026-04-25T07:09:28.000Z</time>
      </trkpt>
      <trkpt lat="51.371759" lon="1.183417">
        <ele>12.4</ele>
        <time>2026-04-25T07:09:45.000Z</time>
      </trkpt>
      <trkpt lat="51.371321" lon="1.182413">
        <ele>16.2</ele>
        <time>2026-04-25T07:10:06.000Z</time>
      </trkpt>
      <trkpt lat="51.371125" lon="1.181878">
        <ele>18</ele>
        <time>2026-04-25T07:10:16.000Z</time>
      </trkpt>
      <trkpt lat="51.370738" lon="1.181006">
        <ele>20.6</ele>
        <time>2026-04-25T07:10:34.000Z</time>
      </trkpt>
      <trkpt lat="51.370119" lon="1.17945">
        <ele>25.2</ele>
        <time>2026-04-25T07:11:05.000Z</time>
      </trkpt>
      <trkpt lat="51.369751" lon="1.178677">
        <ele>27.4</ele>
        <time>2026-04-25T07:11:21.000Z</time>
      </trkpt>
      <trkpt lat="51.369558" lon="1.178337">
        <ele>28.2</ele>
        <time>2026-04-25T07:11:29.000Z</time>
      </trkpt>
      <trkpt lat="51.369288" lon="1.177959">
        <ele>29</ele>
        <time>2026-04-25T07:11:38.000Z</time>
      </trkpt>
      <trkpt lat="51.368866" lon="1.177437">
        <ele>29.4</ele>
        <time>2026-04-25T07:11:52.000Z</time>
      </trkpt>
      <trkpt lat="51.368653" lon="1.177026">
        <ele>29.8</ele>
        <time>2026-04-25T07:12:01.000Z</time>
      </trkpt>
      <trkpt lat="51.368484" lon="1.176503">
        <ele>30.2</ele>
        <time>2026-04-25T07:12:11.000Z</time>
      </trkpt>
      <trkpt lat="51.368204" lon="1.175172">
        <ele>30.4</ele>
        <time>2026-04-25T07:12:35.000Z</time>
      </trkpt>
      <trkpt lat="51.368229" lon="1.174362">
        <ele>30</ele>
        <time>2026-04-25T07:12:48.000Z</time>
      </trkpt>
      <trkpt lat="51.368284" lon="1.173998">
        <ele>30</ele>
        <time>2026-04-25T07:12:54.000Z</time>
      </trkpt>
      <trkpt lat="51.368477" lon="1.173367">
        <ele>29.8</ele>
        <time>2026-04-25T07:13:06.000Z</time>
      </trkpt>
      <trkpt lat="51.368592" lon="1.172751">
        <ele>29.6</ele>
        <time>2026-04-25T07:13:17.000Z</time>
      </trkpt>
      <trkpt lat="51.368686" lon="1.172398">
        <ele>29.6</ele>
        <time>2026-04-25T07:13:23.000Z</time>
      </trkpt>
      <trkpt lat="51.368962" lon="1.171599">
        <ele>30</ele>
        <time>2026-04-25T07:13:38.000Z</time>
      </trkpt>
      <trkpt lat="51.3692" lon="1.1707">
        <ele>30.2</ele>
        <time>2026-04-25T07:13:55.000Z</time>
      </trkpt>
      <trkpt lat="51.36937" lon="1.17016">
        <ele>30.4</ele>
        <time>2026-04-25T07:14:05.000Z</time>
      </trkpt>
      <trkpt lat="51.369461" lon="1.169753">
        <ele>30.8</ele>
        <time>2026-04-25T07:14:12.000Z</time>
      </trkpt>
      <trkpt lat="51.369479" lon="1.169382">
        <ele>31</ele>
        <time>2026-04-25T07:14:18.000Z</time>
      </trkpt>
      <trkpt lat="51.369502" lon="1.16931">
        <ele>31</ele>
        <time>2026-04-25T07:14:19.000Z</time>
      </trkpt>
      <trkpt lat="51.369624" lon="1.169144">
        <ele>31</ele>
        <time>2026-04-25T07:14:24.000Z</time>
      </trkpt>
      <trkpt lat="51.369661" lon="1.169067">
        <ele>31</ele>
        <time>2026-04-25T07:14:25.000Z</time>
      </trkpt>
      <trkpt lat="51.369745" lon="1.168795">
        <ele>31</ele>
        <time>2026-04-25T07:14:30.000Z</time>
      </trkpt>
      <trkpt lat="51.370006" lon="1.167655">
        <ele>31.2</ele>
        <time>2026-04-25T07:14:51.000Z</time>
      </trkpt>
      <trkpt lat="51.370067" lon="1.167303">
        <ele>31.2</ele>
        <time>2026-04-25T07:14:57.000Z</time>
      </trkpt>
      <trkpt lat="51.370095" lon="1.166925">
        <ele>31.4</ele>
        <time>2026-04-25T07:15:03.000Z</time>
      </trkpt>
      <trkpt lat="51.370098" lon="1.166631">
        <ele>31.4</ele>
        <time>2026-04-25T07:15:08.000Z</time>
      </trkpt>
      <trkpt lat="51.370034" lon="1.165824">
        <ele>31</ele>
        <time>2026-04-25T07:15:22.000Z</time>
      </trkpt>
      <trkpt lat="51.369936" lon="1.165337">
        <ele>31</ele>
        <time>2026-04-25T07:15:30.000Z</time>
      </trkpt>
      <trkpt lat="51.369742" lon="1.164732">
        <ele>31</ele>
        <time>2026-04-25T07:15:41.000Z</time>
      </trkpt>
      <trkpt lat="51.36964" lon="1.164173">
        <ele>31.2</ele>
        <time>2026-04-25T07:15:51.000Z</time>
      </trkpt>
      <trkpt lat="51.369636" lon="1.1639">
        <ele>31.2</ele>
        <time>2026-04-25T07:15:56.000Z</time>
      </trkpt>
      <trkpt lat="51.369662" lon="1.163312">
        <ele>31.2</ele>
        <time>2026-04-25T07:16:05.000Z</time>
      </trkpt>
      <trkpt lat="51.369676" lon="1.1631">
        <ele>31.2</ele>
        <time>2026-04-25T07:16:09.000Z</time>
      </trkpt>
      <trkpt lat="51.369721" lon="1.162843">
        <ele>31.4</ele>
        <time>2026-04-25T07:16:13.000Z</time>
      </trkpt>
      <trkpt lat="51.369785" lon="1.162681">
        <ele>31.4</ele>
        <time>2026-04-25T07:16:17.000Z</time>
      </trkpt>
      <trkpt lat="51.36988" lon="1.162548">
        <ele>31.6</ele>
        <time>2026-04-25T07:16:20.000Z</time>
      </trkpt>
      <trkpt lat="51.37071" lon="1.161591">
        <ele>30.2</ele>
        <time>2026-04-25T07:16:47.000Z</time>
      </trkpt>
      <trkpt lat="51.370856" lon="1.161393">
        <ele>29.6</ele>
        <time>2026-04-25T07:16:52.000Z</time>
      </trkpt>
      <trkpt lat="51.37105" lon="1.161087">
        <ele>28.2</ele>
        <time>2026-04-25T07:17:00.000Z</time>
      </trkpt>
      <trkpt lat="51.371176" lon="1.160929">
        <ele>27.2</ele>
        <time>2026-04-25T07:17:04.000Z</time>
      </trkpt>
      <trkpt lat="51.371458" lon="1.160682">
        <ele>26.4</ele>
        <time>2026-04-25T07:17:13.000Z</time>
      </trkpt>
      <trkpt lat="51.371978" lon="1.160331">
        <ele>26.8</ele>
        <time>2026-04-25T07:17:28.000Z</time>
      </trkpt>
      <trkpt lat="51.372066" lon="1.160214">
        <ele>26.8</ele>
        <time>2026-04-25T07:17:31.000Z</time>
      </trkpt>
      <trkpt lat="51.372099" lon="1.160123">
        <ele>27</ele>
        <time>2026-04-25T07:17:32.000Z</time>
      </trkpt>
      <trkpt lat="51.372113" lon="1.159943">
        <ele>27.4</ele>
        <time>2026-04-25T07:17:35.000Z</time>
      </trkpt>
      <trkpt lat="51.372083" lon="1.159767">
        <ele>28</ele>
        <time>2026-04-25T07:17:39.000Z</time>
      </trkpt>
      <trkpt lat="51.37181" lon="1.158702">
        <ele>29.4</ele>
        <time>2026-04-25T07:17:58.000Z</time>
      </trkpt>
      <trkpt lat="51.37173" lon="1.15848">
        <ele>29.4</ele>
        <time>2026-04-25T07:18:02.000Z</time>
      </trkpt>
      <trkpt lat="51.37134" lon="1.157557">
        <ele>30.4</ele>
        <time>2026-04-25T07:18:21.000Z</time>
      </trkpt>
      <trkpt lat="51.370443" lon="1.155679">
        <ele>32</ele>
        <time>2026-04-25T07:19:00.000Z</time>
      </trkpt>
      <trkpt lat="51.37033" lon="1.155485">
        <ele>32</ele>
        <time>2026-04-25T07:19:04.000Z</time>
      </trkpt>
      <trkpt lat="51.370061" lon="1.155113">
        <ele>32</ele>
        <time>2026-04-25T07:19:14.000Z</time>
      </trkpt>
      <trkpt lat="51.369841" lon="1.15477">
        <ele>31.8</ele>
        <time>2026-04-25T07:19:22.000Z</time>
      </trkpt>
      <trkpt lat="51.369647" lon="1.154433">
        <ele>31.6</ele>
        <time>2026-04-25T07:19:30.000Z</time>
      </trkpt>
      <trkpt lat="51.36946" lon="1.154153">
        <ele>31.4</ele>
        <time>2026-04-25T07:19:37.000Z</time>
      </trkpt>
      <trkpt lat="51.36928" lon="1.153816">
        <ele>31.2</ele>
        <time>2026-04-25T07:19:44.000Z</time>
      </trkpt>
      <trkpt lat="51.369044" lon="1.153305">
        <ele>31.2</ele>
        <time>2026-04-25T07:19:55.000Z</time>
      </trkpt>
      <trkpt lat="51.368943" lon="1.153011">
        <ele>31</ele>
        <time>2026-04-25T07:20:00.000Z</time>
      </trkpt>
      <trkpt lat="51.3688" lon="1.152671">
        <ele>31</ele>
        <time>2026-04-25T07:20:07.000Z</time>
      </trkpt>
      <trkpt lat="51.368638" lon="1.152167">
        <ele>30.8</ele>
        <time>2026-04-25T07:20:16.000Z</time>
      </trkpt>
      <trkpt lat="51.3684" lon="1.151709">
        <ele>30.6</ele>
        <time>2026-04-25T07:20:26.000Z</time>
      </trkpt>
      <trkpt lat="51.368071" lon="1.151251">
        <ele>30.2</ele>
        <time>2026-04-25T07:20:38.000Z</time>
      </trkpt>
      <trkpt lat="51.36805" lon="1.151211">
        <ele>30.2</ele>
        <time>2026-04-25T07:20:39.000Z</time>
      </trkpt>
      <trkpt lat="51.368042" lon="1.151115">
        <ele>30.2</ele>
        <time>2026-04-25T07:20:40.000Z</time>
      </trkpt>
      <trkpt lat="51.36809" lon="1.150866">
        <ele>30</ele>
        <time>2026-04-25T07:20:45.000Z</time>
      </trkpt>
      <trkpt lat="51.36827" lon="1.150283">
        <ele>29.8</ele>
        <time>2026-04-25T07:20:56.000Z</time>
      </trkpt>
      <trkpt lat="51.368332" lon="1.150138">
        <ele>29.8</ele>
        <time>2026-04-25T07:20:59.000Z</time>
      </trkpt>
      <trkpt lat="51.368882" lon="1.149431">
        <ele>29.8</ele>
        <time>2026-04-25T07:21:17.000Z</time>
      </trkpt>
      <trkpt lat="51.369237" lon="1.148931">
        <ele>30.2</ele>
        <time>2026-04-25T07:21:30.000Z</time>
      </trkpt>
      <trkpt lat="51.369434" lon="1.14857">
        <ele>30.6</ele>
        <time>2026-04-25T07:21:38.000Z</time>
      </trkpt>
      <trkpt lat="51.369524" lon="1.148435">
        <ele>30.8</ele>
        <time>2026-04-25T07:21:41.000Z</time>
      </trkpt>
      <trkpt lat="51.369629" lon="1.148188">
        <ele>31</ele>
        <time>2026-04-25T07:21:46.000Z</time>
      </trkpt>
      <trkpt lat="51.369762" lon="1.147962">
        <ele>31.2</ele>
        <time>2026-04-25T07:21:51.000Z</time>
      </trkpt>
      <trkpt lat="51.369868" lon="1.147826">
        <ele>31.2</ele>
        <time>2026-04-25T07:21:55.000Z</time>
      </trkpt>
      <trkpt lat="51.370252" lon="1.147595">
        <ele>32</ele>
        <time>2026-04-25T07:22:06.000Z</time>
      </trkpt>
      <trkpt lat="51.370563" lon="1.147486">
        <ele>32.2</ele>
        <time>2026-04-25T07:22:14.000Z</time>
      </trkpt>
      <trkpt lat="51.370786" lon="1.147371">
        <ele>32.6</ele>
        <time>2026-04-25T07:22:21.000Z</time>
      </trkpt>
      <trkpt lat="51.371012" lon="1.147295">
        <ele>32.8</ele>
        <time>2026-04-25T07:22:27.000Z</time>
      </trkpt>
      <trkpt lat="51.371829" lon="1.147095">
        <ele>31.8</ele>
        <time>2026-04-25T07:22:49.000Z</time>
      </trkpt>
      <trkpt lat="51.371887" lon="1.147066">
        <ele>31.6</ele>
        <time>2026-04-25T07:22:51.000Z</time>
      </trkpt>
      <trkpt lat="51.371924" lon="1.147001">
        <ele>31.4</ele>
        <time>2026-04-25T07:22:52.000Z</time>
      </trkpt>
      <trkpt lat="51.371928" lon="1.146836">
        <ele>31.2</ele>
        <time>2026-04-25T07:22:55.000Z</time>
      </trkpt>
      <trkpt lat="51.371886" lon="1.146671">
        <ele>30.8</ele>
        <time>2026-04-25T07:22:58.000Z</time>
      </trkpt>
      <trkpt lat="51.371821" lon="1.146231">
        <ele>30.4</ele>
        <time>2026-04-25T07:23:05.000Z</time>
      </trkpt>
      <trkpt lat="51.37158" lon="1.144293">
        <ele>32.8</ele>
        <time>2026-04-25T07:23:38.000Z</time>
      </trkpt>
      <trkpt lat="51.371488" lon="1.143387">
        <ele>34</ele>
        <time>2026-04-25T07:23:54.000Z</time>
      </trkpt>
      <trkpt lat="51.37145" lon="1.142633">
        <ele>34.8</ele>
        <time>2026-04-25T07:24:06.000Z</time>
      </trkpt>
      <trkpt lat="51.371414" lon="1.14107">
        <ele>35.2</ele>
        <time>2026-04-25T07:24:32.000Z</time>
      </trkpt>
      <trkpt lat="51.371475" lon="1.140712">
        <ele>34.8</ele>
        <time>2026-04-25T07:24:38.000Z</time>
      </trkpt>
      <trkpt lat="51.371706" lon="1.13994">
        <ele>34.2</ele>
        <time>2026-04-25T07:24:53.000Z</time>
      </trkpt>
      <trkpt lat="51.371851" lon="1.139357">
        <ele>32.4</ele>
        <time>2026-04-25T07:25:03.000Z</time>
      </trkpt>
      <trkpt lat="51.372027" lon="1.1385">
        <ele>29.4</ele>
        <time>2026-04-25T07:25:18.000Z</time>
      </trkpt>
      <trkpt lat="51.372077" lon="1.138088">
        <ele>27.4</ele>
        <time>2026-04-25T07:25:25.000Z</time>
      </trkpt>
      <trkpt lat="51.372334" lon="1.135227">
        <ele>15.4</ele>
        <time>2026-04-25T07:26:13.000Z</time>
      </trkpt>
      <trkpt lat="51.372423" lon="1.134467">
        <ele>12.6</ele>
        <time>2026-04-25T07:26:26.000Z</time>
      </trkpt>
      <trkpt lat="51.372457" lon="1.134412">
        <ele>12</ele>
        <time>2026-04-25T07:26:27.000Z</time>
      </trkpt>
      <trkpt lat="51.372524" lon="1.134414">
        <ele>11.2</ele>
        <time>2026-04-25T07:26:29.000Z</time>
      </trkpt>
      <trkpt lat="51.372654" lon="1.134451">
        <ele>10.4</ele>
        <time>2026-04-25T07:26:33.000Z</time>
      </trkpt>
      <trkpt lat="51.372709" lon="1.134448">
        <ele>10.2</ele>
        <time>2026-04-25T07:26:34.000Z</time>
      </trkpt>
      <trkpt lat="51.372769" lon="1.134414">
        <ele>10</ele>
        <time>2026-04-25T07:26:36.000Z</time>
      </trkpt>
      <trkpt lat="51.372829" lon="1.134352">
        <ele>10</ele>
        <time>2026-04-25T07:26:38.000Z</time>
      </trkpt>
      <trkpt lat="51.372877" lon="1.134263">
        <ele>9.8</ele>
        <time>2026-04-25T07:26:40.000Z</time>
      </trkpt>
      <trkpt lat="51.372934" lon="1.134017">
        <ele>9.2</ele>
        <time>2026-04-25T07:26:44.000Z</time>
      </trkpt>
      <trkpt lat="51.372958" lon="1.13324">
        <ele>5.8</ele>
        <time>2026-04-25T07:26:57.000Z</time>
      </trkpt>
      <trkpt lat="51.372942" lon="1.132778">
        <ele>5</ele>
        <time>2026-04-25T07:27:05.000Z</time>
      </trkpt>
      <trkpt lat="51.372962" lon="1.132367">
        <ele>4.8</ele>
        <time>2026-04-25T07:27:12.000Z</time>
      </trkpt>
      <trkpt lat="51.37296" lon="1.131876">
        <ele>5</ele>
        <time>2026-04-25T07:27:20.000Z</time>
      </trkpt>
      <trkpt lat="51.372978" lon="1.131625">
        <ele>4.8</ele>
        <time>2026-04-25T07:27:24.000Z</time>
      </trkpt>
      <trkpt lat="51.373005" lon="1.129836">
        <ele>3.8</ele>
        <time>2026-04-25T07:27:54.000Z</time>
      </trkpt>
      <trkpt lat="51.373" lon="1.128595">
        <ele>4</ele>
        <time>2026-04-25T07:28:15.000Z</time>
      </trkpt>
      <trkpt lat="51.373016" lon="1.128366">
        <ele>4</ele>
        <time>2026-04-25T07:28:18.000Z</time>
      </trkpt>
      <trkpt lat="51.372996" lon="1.128271">
        <ele>3.8</ele>
        <time>2026-04-25T07:28:20.000Z</time>
      </trkpt>
      <trkpt lat="51.372998" lon="1.128367">
        <ele>3</ele>
        <time>2026-04-25T07:28:22.000Z</time>
      </trkpt>
      <trkpt lat="51.372997" lon="1.128314">
        <ele>3.6</ele>
        <time>2026-04-25T07:28:23.000Z</time>
      </trkpt>
      <trkpt lat="51.37298" lon="1.128287">
        <ele>3.4</ele>
        <time>2026-04-25T07:28:23.000Z</time>
      </trkpt>
      <trkpt lat="51.372966" lon="1.128337">
        <ele>0.80000000000001</ele>
        <time>2026-04-25T07:28:24.000Z</time>
      </trkpt>
      <trkpt lat="51.372991" lon="1.128341">
        <ele>2.2</ele>
        <time>2026-04-25T07:28:25.000Z</time>
      </trkpt>
      <trkpt lat="51.373" lon="1.128372">
        <ele>1.8</ele>
        <time>2026-04-25T07:28:25.000Z</time>
      </trkpt>
      <trkpt lat="51.37298" lon="1.128366">
        <ele>2.8</ele>
        <time>2026-04-25T07:28:26.000Z</time>
      </trkpt>
      <trkpt lat="51.37303" lon="1.128179">
        <ele>2.4</ele>
        <time>2026-04-25T07:28:29.000Z</time>
      </trkpt>
      <trkpt lat="51.373024" lon="1.127867">
        <ele>2.4</ele>
        <time>2026-04-25T07:28:35.000Z</time>
      </trkpt>
      <trkpt lat="51.372975" lon="1.126908">
        <ele>2.6</ele>
        <time>2026-04-25T07:28:51.000Z</time>
      </trkpt>
      <trkpt lat="51.372816" lon="1.126203">
        <ele>2.6</ele>
        <time>2026-04-25T07:29:03.000Z</time>
      </trkpt>
      <trkpt lat="51.372806" lon="1.126066">
        <ele>2.6</ele>
        <time>2026-04-25T07:29:05.000Z</time>
      </trkpt>
      <trkpt lat="51.372745" lon="1.125816">
        <ele>2.6</ele>
        <time>2026-04-25T07:29:10.000Z</time>
      </trkpt>
      <trkpt lat="51.372709" lon="1.125556">
        <ele>2.6</ele>
        <time>2026-04-25T07:29:14.000Z</time>
      </trkpt>
      <trkpt lat="51.37264" lon="1.125295">
        <ele>2.8</ele>
        <time>2026-04-25T07:29:19.000Z</time>
      </trkpt>
      <trkpt lat="51.372595" lon="1.124962">
        <ele>3</ele>
        <time>2026-04-25T07:29:25.000Z</time>
      </trkpt>
      <trkpt lat="51.372503" lon="1.124483">
        <ele>3</ele>
        <time>2026-04-25T07:29:33.000Z</time>
      </trkpt>
      <trkpt lat="51.372446" lon="1.124267">
        <ele>3</ele>
        <time>2026-04-25T07:29:37.000Z</time>
      </trkpt>
      <trkpt lat="51.372023" lon="1.122208">
        <ele>3.6</ele>
        <time>2026-04-25T07:30:13.000Z</time>
      </trkpt>
      <trkpt lat="51.371968" lon="1.121735">
        <ele>4</ele>
        <time>2026-04-25T07:30:21.000Z</time>
      </trkpt>
      <trkpt lat="51.371911" lon="1.120755">
        <ele>4.4</ele>
        <time>2026-04-25T07:30:38.000Z</time>
      </trkpt>
      <trkpt lat="51.371844" lon="1.118416">
        <ele>3</ele>
        <time>2026-04-25T07:31:17.000Z</time>
      </trkpt>
      <trkpt lat="51.371854" lon="1.117986">
        <ele>3.2</ele>
        <time>2026-04-25T07:31:24.000Z</time>
      </trkpt>
      <trkpt lat="51.371801" lon="1.116849">
        <ele>3.2</ele>
        <time>2026-04-25T07:31:43.000Z</time>
      </trkpt>
      <trkpt lat="51.371784" lon="1.115932">
        <ele>3.6</ele>
        <time>2026-04-25T07:31:58.000Z</time>
      </trkpt>
      <trkpt lat="51.371729" lon="1.115531">
        <ele>4</ele>
        <time>2026-04-25T07:32:05.000Z</time>
      </trkpt>
      <trkpt lat="51.371751" lon="1.115262">
        <ele>4.4</ele>
        <time>2026-04-25T07:32:09.000Z</time>
      </trkpt>
      <trkpt lat="51.371757" lon="1.114546">
        <ele>4.8</ele>
        <time>2026-04-25T07:32:21.000Z</time>
      </trkpt>
      <trkpt lat="51.371706" lon="1.112674">
        <ele>5.8</ele>
        <time>2026-04-25T07:32:53.000Z</time>
      </trkpt>
      <trkpt lat="51.371694" lon="1.111422">
        <ele>6.2</ele>
        <time>2026-04-25T07:33:13.000Z</time>
      </trkpt>
      <trkpt lat="51.371628" lon="1.109746">
        <ele>7.4</ele>
        <time>2026-04-25T07:33:41.000Z</time>
      </trkpt>
      <trkpt lat="51.371619" lon="1.10914">
        <ele>8.4</ele>
        <time>2026-04-25T07:33:51.000Z</time>
      </trkpt>
      <trkpt lat="51.371496" lon="1.105684">
        <ele>14.4</ele>
        <time>2026-04-25T07:34:49.000Z</time>
      </trkpt>
      <trkpt lat="51.371384" lon="1.105158">
        <ele>15.8</ele>
        <time>2026-04-25T07:34:58.000Z</time>
      </trkpt>
      <trkpt lat="51.371363" lon="1.104941">
        <ele>16.2</ele>
        <time>2026-04-25T07:35:02.000Z</time>
      </trkpt>
      <trkpt lat="51.371439" lon="1.103787">
        <ele>18.2</ele>
        <time>2026-04-25T07:35:21.000Z</time>
      </trkpt>
      <trkpt lat="51.371491" lon="1.103349">
        <ele>18.8</ele>
        <time>2026-04-25T07:35:29.000Z</time>
      </trkpt>
      <trkpt lat="51.371539" lon="1.10263">
        <ele>19.4</ele>
        <time>2026-04-25T07:35:41.000Z</time>
      </trkpt>
      <trkpt lat="51.37155" lon="1.102199">
        <ele>19.6</ele>
        <time>2026-04-25T07:35:48.000Z</time>
      </trkpt>
      <trkpt lat="51.371594" lon="1.101996">
        <ele>19.6</ele>
        <time>2026-04-25T07:35:52.000Z</time>
      </trkpt>
      <trkpt lat="51.37161" lon="1.101819">
        <ele>19.6</ele>
        <time>2026-04-25T07:35:55.000Z</time>
      </trkpt>
      <trkpt lat="51.371622" lon="1.101283">
        <ele>16.6</ele>
        <time>2026-04-25T07:36:04.000Z</time>
      </trkpt>
      <trkpt lat="51.371682" lon="1.100834">
        <ele>15.8</ele>
        <time>2026-04-25T07:36:11.000Z</time>
      </trkpt>
      <trkpt lat="51.371854" lon="1.099974">
        <ele>12.6</ele>
        <time>2026-04-25T07:36:26.000Z</time>
      </trkpt>
      <trkpt lat="51.371869" lon="1.099738">
        <ele>12.2</ele>
        <time>2026-04-25T07:36:30.000Z</time>
      </trkpt>
      <trkpt lat="51.371854" lon="1.099501">
        <ele>10.8</ele>
        <time>2026-04-25T07:36:34.000Z</time>
      </trkpt>
      <trkpt lat="51.371831" lon="1.099384">
        <ele>10.2</ele>
        <time>2026-04-25T07:36:36.000Z</time>
      </trkpt>
      <trkpt lat="51.371747" lon="1.09918">
        <ele>9</ele>
        <time>2026-04-25T07:36:40.000Z</time>
      </trkpt>
      <trkpt lat="51.371691" lon="1.099102">
        <ele>8.6</ele>
        <time>2026-04-25T07:36:42.000Z</time>
      </trkpt>
      <trkpt lat="51.371622" lon="1.099049">
        <ele>7.6</ele>
        <time>2026-04-25T07:36:44.000Z</time>
      </trkpt>
      <trkpt lat="51.371478" lon="1.099009">
        <ele>6.4</ele>
        <time>2026-04-25T07:36:48.000Z</time>
      </trkpt>
      <trkpt lat="51.370519" lon="1.098886">
        <ele>2</ele>
        <time>2026-04-25T07:37:14.000Z</time>
      </trkpt>
      <trkpt lat="51.37042" lon="1.098843">
        <ele>2</ele>
        <time>2026-04-25T07:37:17.000Z</time>
      </trkpt>
      <trkpt lat="51.370376" lon="1.098784">
        <ele>2</ele>
        <time>2026-04-25T07:37:18.000Z</time>
      </trkpt>
      <trkpt lat="51.37023" lon="1.098366">
        <ele>1.8</ele>
        <time>2026-04-25T07:37:26.000Z</time>
      </trkpt>
      <trkpt lat="51.370051" lon="1.09815">
        <ele>1.8</ele>
        <time>2026-04-25T07:37:32.000Z</time>
      </trkpt>
      <trkpt lat="51.36998" lon="1.098033">
        <ele>1.8</ele>
        <time>2026-04-25T07:37:35.000Z</time>
      </trkpt>
      <trkpt lat="51.369915" lon="1.097836">
        <ele>2</ele>
        <time>2026-04-25T07:37:39.000Z</time>
      </trkpt>
      <trkpt lat="51.369864" lon="1.097593">
        <ele>2.4</ele>
        <time>2026-04-25T07:37:43.000Z</time>
      </trkpt>
      <trkpt lat="51.369821" lon="1.097472">
        <ele>2.2</ele>
        <time>2026-04-25T07:37:45.000Z</time>
      </trkpt>
      <trkpt lat="51.369749" lon="1.097358">
        <ele>2</ele>
        <time>2026-04-25T07:37:48.000Z</time>
      </trkpt>
      <trkpt lat="51.369669" lon="1.097323">
        <ele>2</ele>
        <time>2026-04-25T07:37:50.000Z</time>
      </trkpt>
      <trkpt lat="51.369526" lon="1.097331">
        <ele>2</ele>
        <time>2026-04-25T07:37:54.000Z</time>
      </trkpt>
      <trkpt lat="51.369404" lon="1.097295">
        <ele>1.8</ele>
        <time>2026-04-25T07:37:57.000Z</time>
      </trkpt>
      <trkpt lat="51.369362" lon="1.09731">
        <ele>1.2</ele>
        <time>2026-04-25T07:37:58.000Z</time>
      </trkpt>
      <trkpt lat="51.369311" lon="1.097304">
        <ele>1.2</ele>
        <time>2026-04-25T07:38:00.000Z</time>
      </trkpt>
      <trkpt lat="51.369212" lon="1.097247">
        <ele>1.2</ele>
        <time>2026-04-25T07:38:03.000Z</time>
      </trkpt>
      <trkpt lat="51.369106" lon="1.09713">
        <ele>1</ele>
        <time>2026-04-25T07:38:06.000Z</time>
      </trkpt>
      <trkpt lat="51.369068" lon="1.097109">
        <ele>1</ele>
        <time>2026-04-25T07:38:07.000Z</time>
      </trkpt>
      <trkpt lat="51.368966" lon="1.097133">
        <ele>1</ele>
        <time>2026-04-25T07:38:10.000Z</time>
      </trkpt>
      <trkpt lat="51.368933" lon="1.097119">
        <ele>1.2</ele>
        <time>2026-04-25T07:38:11.000Z</time>
      </trkpt>
      <trkpt lat="51.368888" lon="1.097049">
        <ele>1.2</ele>
        <time>2026-04-25T07:38:12.000Z</time>
      </trkpt>
      <trkpt lat="51.368908" lon="1.096893">
        <ele>1.2</ele>
        <time>2026-04-25T07:38:15.000Z</time>
      </trkpt>
      <trkpt lat="51.368897" lon="1.096768">
        <ele>1.4</ele>
        <time>2026-04-25T07:38:17.000Z</time>
      </trkpt>
      <trkpt lat="51.368609" lon="1.095673">
        <ele>1.6</ele>
        <time>2026-04-25T07:38:37.000Z</time>
      </trkpt>
      <trkpt lat="51.368431" lon="1.094892">
        <ele>1.8</ele>
        <time>2026-04-25T07:38:51.000Z</time>
      </trkpt>
      <trkpt lat="51.368261" lon="1.093348">
        <ele>2</ele>
        <time>2026-04-25T07:39:17.000Z</time>
      </trkpt>
      <trkpt lat="51.36817" lon="1.092336">
        <ele>1.6</ele>
        <time>2026-04-25T07:39:34.000Z</time>
      </trkpt>
      <trkpt lat="51.368094" lon="1.091811">
        <ele>1.6</ele>
        <time>2026-04-25T07:39:43.000Z</time>
      </trkpt>
      <trkpt lat="51.368046" lon="1.089117">
        <ele>1.8</ele>
        <time>2026-04-25T07:40:28.000Z</time>
      </trkpt>
      <trkpt lat="51.368053" lon="1.088275">
        <ele>1.6</ele>
        <time>2026-04-25T07:40:42.000Z</time>
      </trkpt>
      <trkpt lat="51.368069" lon="1.087997">
        <ele>1.6</ele>
        <time>2026-04-25T07:40:47.000Z</time>
      </trkpt>
      <trkpt lat="51.368056" lon="1.087649">
        <ele>1.4</ele>
        <time>2026-04-25T07:40:52.000Z</time>
      </trkpt>
      <trkpt lat="51.368098" lon="1.083886">
        <ele>1.8</ele>
        <time>2026-04-25T07:41:55.000Z</time>
      </trkpt>
      <trkpt lat="51.368092" lon="1.083009">
        <ele>1.8</ele>
        <time>2026-04-25T07:42:10.000Z</time>
      </trkpt>
      <trkpt lat="51.368064" lon="1.082386">
        <ele>1.8</ele>
        <time>2026-04-25T07:42:20.000Z</time>
      </trkpt>
      <trkpt lat="51.368075" lon="1.081532">
        <ele>1.6</ele>
        <time>2026-04-25T07:42:34.000Z</time>
      </trkpt>
      <trkpt lat="51.36816" lon="1.08046">
        <ele>2</ele>
        <time>2026-04-25T07:42:52.000Z</time>
      </trkpt>
      <trkpt lat="51.36829" lon="1.079256">
        <ele>2</ele>
        <time>2026-04-25T07:43:13.000Z</time>
      </trkpt>
      <trkpt lat="51.368589" lon="1.076069">
        <ele>2.2</ele>
        <time>2026-04-25T07:44:06.000Z</time>
      </trkpt>
      <trkpt lat="51.368675" lon="1.074319">
        <ele>1.8</ele>
        <time>2026-04-25T07:44:36.000Z</time>
      </trkpt>
      <trkpt lat="51.368678" lon="1.073809">
        <ele>1.8</ele>
        <time>2026-04-25T07:44:44.000Z</time>
      </trkpt>
      <trkpt lat="51.36873" lon="1.07298">
        <ele>1.6</ele>
        <time>2026-04-25T07:44:58.000Z</time>
      </trkpt>
      <trkpt lat="51.36877" lon="1.071729">
        <ele>1.6</ele>
        <time>2026-04-25T07:45:19.000Z</time>
      </trkpt>
      <trkpt lat="51.368758" lon="1.071663">
        <ele>1.6</ele>
        <time>2026-04-25T07:45:20.000Z</time>
      </trkpt>
      <trkpt lat="51.368733" lon="1.071617">
        <ele>1.4</ele>
        <time>2026-04-25T07:45:21.000Z</time>
      </trkpt>
      <trkpt lat="51.368699" lon="1.071597">
        <ele>1.4</ele>
        <time>2026-04-25T07:45:22.000Z</time>
      </trkpt>
      <trkpt lat="51.368028" lon="1.071528">
        <ele>1.4</ele>
        <time>2026-04-25T07:45:40.000Z</time>
      </trkpt>
      <trkpt lat="51.367647" lon="1.07137">
        <ele>1.6</ele>
        <time>2026-04-25T07:45:51.000Z</time>
      </trkpt>
      <trkpt lat="51.367367" lon="1.07117">
        <ele>1.6</ele>
        <time>2026-04-25T07:45:59.000Z</time>
      </trkpt>
      <trkpt lat="51.367147" lon="1.070943">
        <ele>1.6</ele>
        <time>2026-04-25T07:46:06.000Z</time>
      </trkpt>
      <trkpt lat="51.366923" lon="1.070609">
        <ele>1.8</ele>
        <time>2026-04-25T07:46:14.000Z</time>
      </trkpt>
      <trkpt lat="51.366733" lon="1.070224">
        <ele>1.8</ele>
        <time>2026-04-25T07:46:22.000Z</time>
      </trkpt>
      <trkpt lat="51.366618" lon="1.0699">
        <ele>1.8</ele>
        <time>2026-04-25T07:46:28.000Z</time>
      </trkpt>
      <trkpt lat="51.366234" lon="1.068654">
        <ele>1.8</ele>
        <time>2026-04-25T07:46:51.000Z</time>
      </trkpt>
      <trkpt lat="51.366064" lon="1.068035">
        <ele>1.8</ele>
        <time>2026-04-25T07:47:03.000Z</time>
      </trkpt>
      <trkpt lat="51.366011" lon="1.067735">
        <ele>1.8</ele>
        <time>2026-04-25T07:47:08.000Z</time>
      </trkpt>
      <trkpt lat="51.365993" lon="1.067344">
        <ele>1.8</ele>
        <time>2026-04-25T07:47:14.000Z</time>
      </trkpt>
      <trkpt lat="51.366018" lon="1.067067">
        <ele>1.8</ele>
        <time>2026-04-25T07:47:19.000Z</time>
      </trkpt>
      <trkpt lat="51.366058" lon="1.066856">
        <ele>1.8</ele>
        <time>2026-04-25T07:47:23.000Z</time>
      </trkpt>
      <trkpt lat="51.366207" lon="1.066439">
        <ele>1.6</ele>
        <time>2026-04-25T07:47:31.000Z</time>
      </trkpt>
      <trkpt lat="51.366425" lon="1.065966">
        <ele>1.8</ele>
        <time>2026-04-25T07:47:41.000Z</time>
      </trkpt>
      <trkpt lat="51.366702" lon="1.065506">
        <ele>1.8</ele>
        <time>2026-04-25T07:47:51.000Z</time>
      </trkpt>
      <trkpt lat="51.366726" lon="1.065433">
        <ele>1.8</ele>
        <time>2026-04-25T07:47:53.000Z</time>
      </trkpt>
      <trkpt lat="51.366727" lon="1.065292">
        <ele>1.6</ele>
        <time>2026-04-25T07:47:55.000Z</time>
      </trkpt>
      <trkpt lat="51.366676" lon="1.06514">
        <ele>1.6</ele>
        <time>2026-04-25T07:47:58.000Z</time>
      </trkpt>
      <trkpt lat="51.366568" lon="1.064913">
        <ele>1.4</ele>
        <time>2026-04-25T07:48:03.000Z</time>
      </trkpt>
      <trkpt lat="51.366376" lon="1.064299">
        <ele>1</ele>
        <time>2026-04-25T07:48:14.000Z</time>
      </trkpt>
      <trkpt lat="51.366257" lon="1.063731">
        <ele>1</ele>
        <time>2026-04-25T07:48:24.000Z</time>
      </trkpt>
      <trkpt lat="51.366119" lon="1.0632">
        <ele>1.2</ele>
        <time>2026-04-25T07:48:34.000Z</time>
      </trkpt>
      <trkpt lat="51.366004" lon="1.062668">
        <ele>1</ele>
        <time>2026-04-25T07:48:43.000Z</time>
      </trkpt>
      <trkpt lat="51.365906" lon="1.062614">
        <ele>0.80000000000001</ele>
        <time>2026-04-25T07:48:46.000Z</time>
      </trkpt>
      <trkpt lat="51.365748" lon="1.061757">
        <ele>1.2</ele>
        <time>2026-04-25T07:49:01.000Z</time>
      </trkpt>
      <trkpt lat="51.365707" lon="1.061687">
        <ele>1.4</ele>
        <time>2026-04-25T07:49:02.000Z</time>
      </trkpt>
      <trkpt lat="51.365694" lon="1.061609">
        <ele>1.6</ele>
        <time>2026-04-25T07:49:04.000Z</time>
      </trkpt>
      <trkpt lat="51.365675" lon="1.061582">
        <ele>1.6</ele>
        <time>2026-04-25T07:49:04.000Z</time>
      </trkpt>
      <trkpt lat="51.365586" lon="1.061528">
        <ele>1.6</ele>
        <time>2026-04-25T07:49:07.000Z</time>
      </trkpt>
      <trkpt lat="51.365506" lon="1.06144">
        <ele>1.8</ele>
        <time>2026-04-25T07:49:09.000Z</time>
      </trkpt>
      <trkpt lat="51.365465" lon="1.061314">
        <ele>2</ele>
        <time>2026-04-25T07:49:12.000Z</time>
      </trkpt>
      <trkpt lat="51.365346" lon="1.058733">
        <ele>4.2</ele>
        <time>2026-04-25T07:49:55.000Z</time>
      </trkpt>
      <trkpt lat="51.365269" lon="1.058303">
        <ele>5.4</ele>
        <time>2026-04-25T07:50:02.000Z</time>
      </trkpt>
      <trkpt lat="51.365038" lon="1.056535">
        <ele>7.8</ele>
        <time>2026-04-25T07:50:32.000Z</time>
      </trkpt>
      <trkpt lat="51.364972" lon="1.056149">
        <ele>8.4</ele>
        <time>2026-04-25T07:50:39.000Z</time>
      </trkpt>
      <trkpt lat="51.364919" lon="1.056062">
        <ele>8.6</ele>
        <time>2026-04-25T07:50:41.000Z</time>
      </trkpt>
      <trkpt lat="51.364621" lon="1.055716">
        <ele>9.8</ele>
        <time>2026-04-25T07:50:51.000Z</time>
      </trkpt>
      <trkpt lat="51.363779" lon="1.054854">
        <ele>11.4</ele>
        <time>2026-04-25T07:51:18.000Z</time>
      </trkpt>
      <trkpt lat="51.363708" lon="1.054741">
        <ele>11.6</ele>
        <time>2026-04-25T07:51:20.000Z</time>
      </trkpt>
      <trkpt lat="51.363673" lon="1.054586">
        <ele>11.6</ele>
        <time>2026-04-25T07:51:23.000Z</time>
      </trkpt>
      <trkpt lat="51.363672" lon="1.052587">
        <ele>14.2</ele>
        <time>2026-04-25T07:51:56.000Z</time>
      </trkpt>
      <trkpt lat="51.36373" lon="1.049575">
        <ele>13.8</ele>
        <time>2026-04-25T07:52:47.000Z</time>
      </trkpt>
      <trkpt lat="51.363739" lon="1.046977">
        <ele>14.6</ele>
        <time>2026-04-25T07:53:30.000Z</time>
      </trkpt>
      <trkpt lat="51.363754" lon="1.046437">
        <ele>14.4</ele>
        <time>2026-04-25T07:53:39.000Z</time>
      </trkpt>
      <trkpt lat="51.363735" lon="1.045022">
        <ele>14</ele>
        <time>2026-04-25T07:54:03.000Z</time>
      </trkpt>
      <trkpt lat="51.363751" lon="1.042344">
        <ele>11.4</ele>
        <time>2026-04-25T07:54:47.000Z</time>
      </trkpt>
      <trkpt lat="51.363744" lon="1.042211">
        <ele>11.2</ele>
        <time>2026-04-25T07:54:49.000Z</time>
      </trkpt>
      <trkpt lat="51.363723" lon="1.042151">
        <ele>10.8</ele>
        <time>2026-04-25T07:54:51.000Z</time>
      </trkpt>
      <trkpt lat="51.363656" lon="1.04208">
        <ele>10.6</ele>
        <time>2026-04-25T07:54:53.000Z</time>
      </trkpt>
      <trkpt lat="51.363625" lon="1.041967">
        <ele>9.8</ele>
        <time>2026-04-25T07:54:55.000Z</time>
      </trkpt>
      <trkpt lat="51.36374" lon="1.041635">
        <ele>9.6</ele>
        <time>2026-04-25T07:55:01.000Z</time>
      </trkpt>
      <trkpt lat="51.363735" lon="1.040646">
        <ele>9</ele>
        <time>2026-04-25T07:55:18.000Z</time>
      </trkpt>
      <trkpt lat="51.363701" lon="1.040238">
        <ele>9.2</ele>
        <time>2026-04-25T07:55:24.000Z</time>
      </trkpt>
      <trkpt lat="51.363662" lon="1.039059">
        <ele>11.4</ele>
        <time>2026-04-25T07:55:44.000Z</time>
      </trkpt>
      <trkpt lat="51.363154" lon="1.035602">
        <ele>12.8</ele>
        <time>2026-04-25T07:56:43.000Z</time>
      </trkpt>
      <trkpt lat="51.363129" lon="1.03531">
        <ele>12.4</ele>
        <time>2026-04-25T07:56:48.000Z</time>
      </trkpt>
      <trkpt lat="51.363154" lon="1.035118">
        <ele>12.2</ele>
        <time>2026-04-25T07:56:51.000Z</time>
      </trkpt>
      <trkpt lat="51.363504" lon="1.03356">
        <ele>7.8</ele>
        <time>2026-04-25T07:57:19.000Z</time>
      </trkpt>
      <trkpt lat="51.36368" lon="1.032663">
        <ele>5</ele>
        <time>2026-04-25T07:57:35.000Z</time>
      </trkpt>
      <trkpt lat="51.363698" lon="1.032384">
        <ele>4.2</ele>
        <time>2026-04-25T07:57:39.000Z</time>
      </trkpt>
      <trkpt lat="51.363666" lon="1.031953">
        <ele>3</ele>
        <time>2026-04-25T07:57:47.000Z</time>
      </trkpt>
      <trkpt lat="51.363637" lon="1.031812">
        <ele>2.4</ele>
        <time>2026-04-25T07:57:49.000Z</time>
      </trkpt>
      <trkpt lat="51.363464" lon="1.031304">
        <ele>1.2</ele>
        <time>2026-04-25T07:57:59.000Z</time>
      </trkpt>
      <trkpt lat="51.363024" lon="1.029719">
        <ele>-0.80000000000001</ele>
        <time>2026-04-25T07:58:28.000Z</time>
      </trkpt>
      <trkpt lat="51.362849" lon="1.028983">
        <ele>-1</ele>
        <time>2026-04-25T07:58:41.000Z</time>
      </trkpt>
      <trkpt lat="51.3627" lon="1.028269">
        <ele>-1</ele>
        <time>2026-04-25T07:58:53.000Z</time>
      </trkpt>
      <trkpt lat="51.362566" lon="1.027775">
        <ele>-0.80000000000001</ele>
        <time>2026-04-25T07:59:02.000Z</time>
      </trkpt>
      <trkpt lat="51.362147" lon="1.025978">
        <ele>-0.39999999999998</ele>
        <time>2026-04-25T07:59:34.000Z</time>
      </trkpt>
      <trkpt lat="51.362108" lon="1.025894">
        <ele>-0.39999999999998</ele>
        <time>2026-04-25T07:59:36.000Z</time>
      </trkpt>
      <trkpt lat="51.361894" lon="1.02561">
        <ele>-0.60000000000002</ele>
        <time>2026-04-25T07:59:43.000Z</time>
      </trkpt>
      <trkpt lat="51.361745" lon="1.025374">
        <ele>-1</ele>
        <time>2026-04-25T07:59:49.000Z</time>
      </trkpt>
      <trkpt lat="51.361542" lon="1.025138">
        <ele>-1.2</ele>
        <time>2026-04-25T07:59:56.000Z</time>
      </trkpt>
      <trkpt lat="51.361192" lon="1.024796">
        <ele>-1.4</ele>
        <time>2026-04-25T08:00:07.000Z</time>
      </trkpt>
      <trkpt lat="51.360695" lon="1.0245">
        <ele>-1.6</ele>
        <time>2026-04-25T08:00:21.000Z</time>
      </trkpt>
      <trkpt lat="51.360391" lon="1.024339">
        <ele>-1</ele>
        <time>2026-04-25T08:00:29.000Z</time>
      </trkpt>
      <trkpt lat="51.360252" lon="1.024211">
        <ele>-1.2</ele>
        <time>2026-04-25T08:00:34.000Z</time>
      </trkpt>
      <trkpt lat="51.360157" lon="1.024175">
        <ele>-1.2</ele>
        <time>2026-04-25T08:00:36.000Z</time>
      </trkpt>
      <trkpt lat="51.359916" lon="1.024263">
        <ele>-1.6</ele>
        <time>2026-04-25T08:00:43.000Z</time>
      </trkpt>
      <trkpt lat="51.359026" lon="1.0244">
        <ele>-1.8</ele>
        <time>2026-04-25T08:01:07.000Z</time>
      </trkpt>
      <trkpt lat="51.358684" lon="1.024601">
        <ele>-2</ele>
        <time>2026-04-25T08:01:16.000Z</time>
      </trkpt>
      <trkpt lat="51.358502" lon="1.024679">
        <ele>-2</ele>
        <time>2026-04-25T08:01:21.000Z</time>
      </trkpt>
      <trkpt lat="51.35781" lon="1.024789">
        <ele>-2</ele>
        <time>2026-04-25T08:01:40.000Z</time>
      </trkpt>
      <trkpt lat="51.35769" lon="1.024796">
        <ele>-2</ele>
        <time>2026-04-25T08:01:43.000Z</time>
      </trkpt>
      <trkpt lat="51.357506" lon="1.024787">
        <ele>-1.8</ele>
        <time>2026-04-25T08:01:48.000Z</time>
      </trkpt>
      <trkpt lat="51.35703" lon="1.024694">
        <ele>-1.4</ele>
        <time>2026-04-25T08:02:01.000Z</time>
      </trkpt>
      <trkpt lat="51.35692" lon="1.02463">
        <ele>-1.6</ele>
        <time>2026-04-25T08:02:04.000Z</time>
      </trkpt>
      <trkpt lat="51.356711" lon="1.02447">
        <ele>-1.8</ele>
        <time>2026-04-25T08:02:10.000Z</time>
      </trkpt>
      <trkpt lat="51.356597" lon="1.024407">
        <ele>-1.6</ele>
        <time>2026-04-25T08:02:13.000Z</time>
      </trkpt>
      <trkpt lat="51.35623" lon="1.024276">
        <ele>-1.4</ele>
        <time>2026-04-25T08:02:24.000Z</time>
      </trkpt>
      <trkpt lat="51.356079" lon="1.024259">
        <ele>-1.2</ele>
        <time>2026-04-25T08:02:28.000Z</time>
      </trkpt>
      <trkpt lat="51.355926" lon="1.024298">
        <ele>-1</ele>
        <time>2026-04-25T08:02:32.000Z</time>
      </trkpt>
      <trkpt lat="51.355827" lon="1.024353">
        <ele>-1</ele>
        <time>2026-04-25T08:02:35.000Z</time>
      </trkpt>
      <trkpt lat="51.355306" lon="1.024746">
        <ele>-0.19999999999999</ele>
        <time>2026-04-25T08:02:50.000Z</time>
      </trkpt>
      <trkpt lat="51.355198" lon="1.024855">
        <ele>-0.19999999999999</ele>
        <time>2026-04-25T08:02:53.000Z</time>
      </trkpt>
      <trkpt lat="51.355069" lon="1.025085">
        <ele>-0.80000000000001</ele>
        <time>2026-04-25T08:02:58.000Z</time>
      </trkpt>
      <trkpt lat="51.354962" lon="1.025203">
        <ele>-0.80000000000001</ele>
        <time>2026-04-25T08:03:02.000Z</time>
      </trkpt>
      <trkpt lat="51.354564" lon="1.025739">
        <ele>-1.6</ele>
        <time>2026-04-25T08:03:16.000Z</time>
      </trkpt>
      <trkpt lat="51.354486" lon="1.025788">
        <ele>-1.8</ele>
        <time>2026-04-25T08:03:18.000Z</time>
      </trkpt>
      <trkpt lat="51.354439" lon="1.025792">
        <ele>-1.8</ele>
        <time>2026-04-25T08:03:19.000Z</time>
      </trkpt>
      <trkpt lat="51.354147" lon="1.025717">
        <ele>-2</ele>
        <time>2026-04-25T08:03:27.000Z</time>
      </trkpt>
      <trkpt lat="51.353934" lon="1.025575">
        <ele>-2</ele>
        <time>2026-04-25T08:03:33.000Z</time>
      </trkpt>
      <trkpt lat="51.352749" lon="1.024115">
        <ele>-1</ele>
        <time>2026-04-25T08:04:13.000Z</time>
      </trkpt>
      <trkpt lat="51.35205" lon="1.023401">
        <ele>0.19999999999999</ele>
        <time>2026-04-25T08:04:35.000Z</time>
      </trkpt>
      <trkpt lat="51.351752" lon="1.023145">
        <ele>0.60000000000002</ele>
        <time>2026-04-25T08:04:44.000Z</time>
      </trkpt>
      <trkpt lat="51.351107" lon="1.022687">
        <ele>1.8</ele>
        <time>2026-04-25T08:05:03.000Z</time>
      </trkpt>
      <trkpt lat="51.350931" lon="1.022504">
        <ele>2.4</ele>
        <time>2026-04-25T08:05:09.000Z</time>
      </trkpt>
      <trkpt lat="51.350806" lon="1.022342">
        <ele>2.8</ele>
        <time>2026-04-25T08:05:13.000Z</time>
      </trkpt>
      <trkpt lat="51.350684" lon="1.022131">
        <ele>3.2</ele>
        <time>2026-04-25T08:05:18.000Z</time>
      </trkpt>
      <trkpt lat="51.350626" lon="1.021953">
        <ele>3.4</ele>
        <time>2026-04-25T08:05:21.000Z</time>
      </trkpt>
      <trkpt lat="51.350545" lon="1.020638">
        <ele>4.4</ele>
        <time>2026-04-25T08:05:43.000Z</time>
      </trkpt>
      <trkpt lat="51.350196" lon="1.018811">
        <ele>5.4</ele>
        <time>2026-04-25T08:06:15.000Z</time>
      </trkpt>
      <trkpt lat="51.350165" lon="1.018534">
        <ele>5.6</ele>
        <time>2026-04-25T08:06:20.000Z</time>
      </trkpt>
      <trkpt lat="51.350179" lon="1.018083">
        <ele>6</ele>
        <time>2026-04-25T08:06:27.000Z</time>
      </trkpt>
      <trkpt lat="51.350338" lon="1.016691">
        <ele>7.8</ele>
        <time>2026-04-25T08:06:51.000Z</time>
      </trkpt>
      <trkpt lat="51.350345" lon="1.016518">
        <ele>8</ele>
        <time>2026-04-25T08:06:54.000Z</time>
      </trkpt>
      <trkpt lat="51.350327" lon="1.01617">
        <ele>8.2</ele>
        <time>2026-04-25T08:07:00.000Z</time>
      </trkpt>
      <trkpt lat="51.350326" lon="1.014239">
        <ele>9.4</ele>
        <time>2026-04-25T08:07:32.000Z</time>
      </trkpt>
      <trkpt lat="51.350263" lon="1.013518">
        <ele>10.2</ele>
        <time>2026-04-25T08:07:44.000Z</time>
      </trkpt>
      <trkpt lat="51.350127" lon="1.012871">
        <ele>10.8</ele>
        <time>2026-04-25T08:07:55.000Z</time>
      </trkpt>
      <trkpt lat="51.350039" lon="1.012355">
        <ele>11.6</ele>
        <time>2026-04-25T08:08:04.000Z</time>
      </trkpt>
      <trkpt lat="51.349914" lon="1.011887">
        <ele>12.4</ele>
        <time>2026-04-25T08:08:13.000Z</time>
      </trkpt>
      <trkpt lat="51.349824" lon="1.011465">
        <ele>13</ele>
        <time>2026-04-25T08:08:20.000Z</time>
      </trkpt>
      <trkpt lat="51.349758" lon="1.010939">
        <ele>13.8</ele>
        <time>2026-04-25T08:08:29.000Z</time>
      </trkpt>
      <trkpt lat="51.349573" lon="1.01003">
        <ele>15.2</ele>
        <time>2026-04-25T08:08:45.000Z</time>
      </trkpt>
      <trkpt lat="51.349299" lon="1.009226">
        <ele>16</ele>
        <time>2026-04-25T08:09:00.000Z</time>
      </trkpt>
      <trkpt lat="51.349124" lon="1.008422">
        <ele>16</ele>
        <time>2026-04-25T08:09:15.000Z</time>
      </trkpt>
      <trkpt lat="51.349019" lon="1.008033">
        <ele>15.8</ele>
        <time>2026-04-25T08:09:22.000Z</time>
      </trkpt>
      <trkpt lat="51.348411" lon="1.00641">
        <ele>13.4</ele>
        <time>2026-04-25T08:09:53.000Z</time>
      </trkpt>
      <trkpt lat="51.348172" lon="1.005687">
        <ele>12.4</ele>
        <time>2026-04-25T08:10:07.000Z</time>
      </trkpt>
      <trkpt lat="51.347968" lon="1.00513">
        <ele>11.4</ele>
        <time>2026-04-25T08:10:18.000Z</time>
      </trkpt>
      <trkpt lat="51.347649" lon="1.003985">
        <ele>10.2</ele>
        <time>2026-04-25T08:10:39.000Z</time>
      </trkpt>
      <trkpt lat="51.34745" lon="1.003199">
        <ele>8.6</ele>
        <time>2026-04-25T08:10:53.000Z</time>
      </trkpt>
      <trkpt lat="51.347409" lon="1.003121">
        <ele>8.6</ele>
        <time>2026-04-25T08:10:54.000Z</time>
      </trkpt>
      <trkpt lat="51.347356" lon="1.003067">
        <ele>8.4</ele>
        <time>2026-04-25T08:10:56.000Z</time>
      </trkpt>
      <trkpt lat="51.347295" lon="1.003037">
        <ele>8.2</ele>
        <time>2026-04-25T08:10:58.000Z</time>
      </trkpt>
      <trkpt lat="51.347103" lon="1.002994">
        <ele>7.8</ele>
        <time>2026-04-25T08:11:03.000Z</time>
      </trkpt>
      <trkpt lat="51.34692" lon="1.002904">
        <ele>7.4</ele>
        <time>2026-04-25T08:11:08.000Z</time>
      </trkpt>
      <trkpt lat="51.346235" lon="1.002356">
        <ele>6.6</ele>
        <time>2026-04-25T08:11:28.000Z</time>
      </trkpt>
      <trkpt lat="51.346047" lon="1.002228">
        <ele>6.4</ele>
        <time>2026-04-25T08:11:34.000Z</time>
      </trkpt>
      <trkpt lat="51.345092" lon="1.001753">
        <ele>4.2</ele>
        <time>2026-04-25T08:12:01.000Z</time>
      </trkpt>
      <trkpt lat="51.343889" lon="1.001022">
        <ele>2.4</ele>
        <time>2026-04-25T08:12:35.000Z</time>
      </trkpt>
      <trkpt lat="51.343593" lon="1.000897">
        <ele>1.4</ele>
        <time>2026-04-25T08:12:43.000Z</time>
      </trkpt>
      <trkpt lat="51.343287" lon="1.000803">
        <ele>0.60000000000002</ele>
        <time>2026-04-25T08:12:51.000Z</time>
      </trkpt>
      <trkpt lat="51.343135" lon="1.000723">
        <ele>0.19999999999999</ele>
        <time>2026-04-25T08:12:56.000Z</time>
      </trkpt>
      <trkpt lat="51.342928" lon="1.000541">
        <ele>-0.39999999999998</ele>
        <time>2026-04-25T08:13:02.000Z</time>
      </trkpt>
      <trkpt lat="51.342798" lon="1.000386">
        <ele>-0.60000000000002</ele>
        <time>2026-04-25T08:13:06.000Z</time>
      </trkpt>
      <trkpt lat="51.342693" lon="1.0002">
        <ele>-1</ele>
        <time>2026-04-25T08:13:11.000Z</time>
      </trkpt>
      <trkpt lat="51.34262" lon="0.999985">
        <ele>-1.2</ele>
        <time>2026-04-25T08:13:15.000Z</time>
      </trkpt>
      <trkpt lat="51.34257" lon="0.999621">
        <ele>-2</ele>
        <time>2026-04-25T08:13:21.000Z</time>
      </trkpt>
      <trkpt lat="51.342576" lon="0.998857">
        <ele>-2.8</ele>
        <time>2026-04-25T08:13:34.000Z</time>
      </trkpt>
      <trkpt lat="51.342628" lon="0.998169">
        <ele>-3</ele>
        <time>2026-04-25T08:13:45.000Z</time>
      </trkpt>
      <trkpt lat="51.342741" lon="0.99736">
        <ele>-3.2</ele>
        <time>2026-04-25T08:13:59.000Z</time>
      </trkpt>
      <trkpt lat="51.342834" lon="0.996899">
        <ele>-3.2</ele>
        <time>2026-04-25T08:14:07.000Z</time>
      </trkpt>
      <trkpt lat="51.342969" lon="0.996345">
        <ele>-3.2</ele>
        <time>2026-04-25T08:14:17.000Z</time>
      </trkpt>
      <trkpt lat="51.344013" lon="0.992736">
        <ele>-4.4</ele>
        <time>2026-04-25T08:15:23.000Z</time>
      </trkpt>
      <trkpt lat="51.344164" lon="0.992307">
        <ele>-4.2</ele>
        <time>2026-04-25T08:15:31.000Z</time>
      </trkpt>
      <trkpt lat="51.344477" lon="0.991679">
        <ele>-3.6</ele>
        <time>2026-04-25T08:15:45.000Z</time>
      </trkpt>
      <trkpt lat="51.34465" lon="0.991222">
        <ele>-3.4</ele>
        <time>2026-04-25T08:15:54.000Z</time>
      </trkpt>
      <trkpt lat="51.344899" lon="0.990455">
        <ele>-3.2</ele>
        <time>2026-04-25T08:16:08.000Z</time>
      </trkpt>
      <trkpt lat="51.345044" lon="0.990115">
        <ele>-3</ele>
        <time>2026-04-25T08:16:15.000Z</time>
      </trkpt>
      <trkpt lat="51.345144" lon="0.989937">
        <ele>-3.2</ele>
        <time>2026-04-25T08:16:19.000Z</time>
      </trkpt>
      <trkpt lat="51.345297" lon="0.989745">
        <ele>-3.2</ele>
        <time>2026-04-25T08:16:24.000Z</time>
      </trkpt>
      <trkpt lat="51.34559" lon="0.989411">
        <ele>-3.2</ele>
        <time>2026-04-25T08:16:34.000Z</time>
      </trkpt>
      <trkpt lat="51.345913" lon="0.989104">
        <ele>-3.2</ele>
        <time>2026-04-25T08:16:44.000Z</time>
      </trkpt>
      <trkpt lat="51.346055" lon="0.988918">
        <ele>-3.2</ele>
        <time>2026-04-25T08:16:49.000Z</time>
      </trkpt>
      <trkpt lat="51.346162" lon="0.988711">
        <ele>-3</ele>
        <time>2026-04-25T08:16:53.000Z</time>
      </trkpt>
      <trkpt lat="51.346234" lon="0.988497">
        <ele>-2.4</ele>
        <time>2026-04-25T08:16:57.000Z</time>
      </trkpt>
      <trkpt lat="51.346271" lon="0.988305">
        <ele>-2.2</ele>
        <time>2026-04-25T08:17:01.000Z</time>
      </trkpt>
      <trkpt lat="51.3463" lon="0.988011">
        <ele>-1.6</ele>
        <time>2026-04-25T08:17:06.000Z</time>
      </trkpt>
      <trkpt lat="51.346296" lon="0.985548">
        <ele>-2.2</ele>
        <time>2026-04-25T08:17:47.000Z</time>
      </trkpt>
      <trkpt lat="51.346321" lon="0.983367">
        <ele>-2.2</ele>
        <time>2026-04-25T08:18:23.000Z</time>
      </trkpt>
      <trkpt lat="51.346292" lon="0.982116">
        <ele>-2.2</ele>
        <time>2026-04-25T08:18:44.000Z</time>
      </trkpt>
      <trkpt lat="51.346172" lon="0.980318">
        <ele>-2.2</ele>
        <time>2026-04-25T08:19:14.000Z</time>
      </trkpt>
      <trkpt lat="51.346167" lon="0.979755">
        <ele>-2</ele>
        <time>2026-04-25T08:19:23.000Z</time>
      </trkpt>
      <trkpt lat="51.346199" lon="0.97862">
        <ele>-2</ele>
        <time>2026-04-25T08:19:42.000Z</time>
      </trkpt>
      <trkpt lat="51.346144" lon="0.978124">
        <ele>-2</ele>
        <time>2026-04-25T08:19:51.000Z</time>
      </trkpt>
      <trkpt lat="51.345969" lon="0.977416">
        <ele>-2.2</ele>
        <time>2026-04-25T08:20:04.000Z</time>
      </trkpt>
      <trkpt lat="51.345909" lon="0.977049">
        <ele>-2.4</ele>
        <time>2026-04-25T08:20:10.000Z</time>
      </trkpt>
      <trkpt lat="51.345881" lon="0.976685">
        <ele>-2.6</ele>
        <time>2026-04-25T08:20:16.000Z</time>
      </trkpt>
      <trkpt lat="51.345851" lon="0.975777">
        <ele>-3.4</ele>
        <time>2026-04-25T08:20:31.000Z</time>
      </trkpt>
      <trkpt lat="51.345902" lon="0.97392">
        <ele>-3.2</ele>
        <time>2026-04-25T08:21:02.000Z</time>
      </trkpt>
      <trkpt lat="51.346015" lon="0.970981">
        <ele>-3</ele>
        <time>2026-04-25T08:21:51.000Z</time>
      </trkpt>
      <trkpt lat="51.346103" lon="0.96919">
        <ele>-3.2</ele>
        <time>2026-04-25T08:22:21.000Z</time>
      </trkpt>
      <trkpt lat="51.346093" lon="0.967655">
        <ele>-3.4</ele>
        <time>2026-04-25T08:22:47.000Z</time>
      </trkpt>
      <trkpt lat="51.346039" lon="0.967137">
        <ele>-3.8</ele>
        <time>2026-04-25T08:22:55.000Z</time>
      </trkpt>
      <trkpt lat="51.34597" lon="0.96681">
        <ele>-4</ele>
        <time>2026-04-25T08:23:01.000Z</time>
      </trkpt>
      <trkpt lat="51.34556" lon="0.965567">
        <ele>-3.4</ele>
        <time>2026-04-25T08:23:25.000Z</time>
      </trkpt>
      <trkpt lat="51.345376" lon="0.96467">
        <ele>-3.6</ele>
        <time>2026-04-25T08:23:40.000Z</time>
      </trkpt>
      <trkpt lat="51.345137" lon="0.963032">
        <ele>-3.8</ele>
        <time>2026-04-25T08:24:08.000Z</time>
      </trkpt>
      <trkpt lat="51.34493" lon="0.960826">
        <ele>-4</ele>
        <time>2026-04-25T08:24:46.000Z</time>
      </trkpt>
      <trkpt lat="51.344872" lon="0.960486">
        <ele>-4</ele>
        <time>2026-04-25T08:24:52.000Z</time>
      </trkpt>
      <trkpt lat="51.344839" lon="0.960377">
        <ele>-4</ele>
        <time>2026-04-25T08:24:54.000Z</time>
      </trkpt>
      <trkpt lat="51.344751" lon="0.960188">
        <ele>-4.2</ele>
        <time>2026-04-25T08:24:58.000Z</time>
      </trkpt>
      <trkpt lat="51.344421" lon="0.959724">
        <ele>-4.2</ele>
        <time>2026-04-25T08:25:09.000Z</time>
      </trkpt>
      <trkpt lat="51.344248" lon="0.959537">
        <ele>-4.4</ele>
        <time>2026-04-25T08:25:15.000Z</time>
      </trkpt>
      <trkpt lat="51.344062" lon="0.959374">
        <ele>-4.4</ele>
        <time>2026-04-25T08:25:20.000Z</time>
      </trkpt>
      <trkpt lat="51.343933" lon="0.959281">
        <ele>-4.6</ele>
        <time>2026-04-25T08:25:24.000Z</time>
      </trkpt>
      <trkpt lat="51.343592" lon="0.959109">
        <ele>-4.6</ele>
        <time>2026-04-25T08:25:34.000Z</time>
      </trkpt>
      <trkpt lat="51.343394" lon="0.958991">
        <ele>-4.8</ele>
        <time>2026-04-25T08:25:39.000Z</time>
      </trkpt>
      <trkpt lat="51.342516" lon="0.95844">
        <ele>-4.8</ele>
        <time>2026-04-25T08:26:05.000Z</time>
      </trkpt>
      <trkpt lat="51.342252" lon="0.958236">
        <ele>-4.6</ele>
        <time>2026-04-25T08:26:12.000Z</time>
      </trkpt>
      <trkpt lat="51.34213" lon="0.958115">
        <ele>-4.8</ele>
        <time>2026-04-25T08:26:16.000Z</time>
      </trkpt>
      <trkpt lat="51.341975" lon="0.957925">
        <ele>-4.6</ele>
        <time>2026-04-25T08:26:21.000Z</time>
      </trkpt>
      <trkpt lat="51.34154" lon="0.957272">
        <ele>-4.4</ele>
        <time>2026-04-25T08:26:37.000Z</time>
      </trkpt>
      <trkpt lat="51.340367" lon="0.955367">
        <ele>-3.4</ele>
        <time>2026-04-25T08:27:22.000Z</time>
      </trkpt>
      <trkpt lat="51.340209" lon="0.955148">
        <ele>-3.2</ele>
        <time>2026-04-25T08:27:28.000Z</time>
      </trkpt>
      <trkpt lat="51.34003" lon="0.954969">
        <ele>-3</ele>
        <time>2026-04-25T08:27:33.000Z</time>
      </trkpt>
      <trkpt lat="51.339759" lon="0.954786">
        <ele>-3.2</ele>
        <time>2026-04-25T08:27:41.000Z</time>
      </trkpt>
      <trkpt lat="51.339491" lon="0.954698">
        <ele>-3.6</ele>
        <time>2026-04-25T08:27:48.000Z</time>
      </trkpt>
      <trkpt lat="51.339358" lon="0.954708">
        <ele>-3.6</ele>
        <time>2026-04-25T08:27:52.000Z</time>
      </trkpt>
      <trkpt lat="51.338865" lon="0.954829">
        <ele>-3.8</ele>
        <time>2026-04-25T08:28:05.000Z</time>
      </trkpt>
      <trkpt lat="51.338721" lon="0.954837">
        <ele>-3.8</ele>
        <time>2026-04-25T08:28:09.000Z</time>
      </trkpt>
      <trkpt lat="51.33865" lon="0.954827">
        <ele>-3.8</ele>
        <time>2026-04-25T08:28:11.000Z</time>
      </trkpt>
      <trkpt lat="51.338509" lon="0.954772">
        <ele>-3.8</ele>
        <time>2026-04-25T08:28:15.000Z</time>
      </trkpt>
      <trkpt lat="51.338379" lon="0.954671">
        <ele>-3.8</ele>
        <time>2026-04-25T08:28:19.000Z</time>
      </trkpt>
      <trkpt lat="51.338267" lon="0.954528">
        <ele>-3.6</ele>
        <time>2026-04-25T08:28:23.000Z</time>
      </trkpt>
      <trkpt lat="51.338169" lon="0.954357">
        <ele>-3.8</ele>
        <time>2026-04-25T08:28:26.000Z</time>
      </trkpt>
      <trkpt lat="51.337909" lon="0.953796">
        <ele>-3.6</ele>
        <time>2026-04-25T08:28:38.000Z</time>
      </trkpt>
      <trkpt lat="51.337262" lon="0.952498">
        <ele>-3.2</ele>
        <time>2026-04-25T08:29:06.000Z</time>
      </trkpt>
      <trkpt lat="51.3371" lon="0.952257">
        <ele>-3</ele>
        <time>2026-04-25T08:29:12.000Z</time>
      </trkpt>
      <trkpt lat="51.337036" lon="0.952196">
        <ele>-3</ele>
        <time>2026-04-25T08:29:14.000Z</time>
      </trkpt>
      <trkpt lat="51.336899" lon="0.952111">
        <ele>-3.2</ele>
        <time>2026-04-25T08:29:18.000Z</time>
      </trkpt>
      <trkpt lat="51.336757" lon="0.952078">
        <ele>-3.2</ele>
        <time>2026-04-25T08:29:21.000Z</time>
      </trkpt>
      <trkpt lat="51.335223" lon="0.951945">
        <ele>-3.8</ele>
        <time>2026-04-25T08:30:02.000Z</time>
      </trkpt>
      <trkpt lat="51.334795" lon="0.95188">
        <ele>-3.8</ele>
        <time>2026-04-25T08:30:14.000Z</time>
      </trkpt>
      <trkpt lat="51.334451" lon="0.951776">
        <ele>-3.6</ele>
        <time>2026-04-25T08:30:23.000Z</time>
      </trkpt>
      <trkpt lat="51.33403" lon="0.951588">
        <ele>-3.8</ele>
        <time>2026-04-25T08:30:35.000Z</time>
      </trkpt>
      <trkpt lat="51.333853" lon="0.951475">
        <ele>-3.8</ele>
        <time>2026-04-25T08:30:40.000Z</time>
      </trkpt>
      <trkpt lat="51.33367" lon="0.951324">
        <ele>-3.8</ele>
        <time>2026-04-25T08:30:45.000Z</time>
      </trkpt>
      <trkpt lat="51.333501" lon="0.951128">
        <ele>-3.6</ele>
        <time>2026-04-25T08:30:51.000Z</time>
      </trkpt>
      <trkpt lat="51.333341" lon="0.950881">
        <ele>-3.6</ele>
        <time>2026-04-25T08:30:57.000Z</time>
      </trkpt>
      <trkpt lat="51.332949" lon="0.950201">
        <ele>-4</ele>
        <time>2026-04-25T08:31:12.000Z</time>
      </trkpt>
      <trkpt lat="51.33259" lon="0.949504">
        <ele>-4.4</ele>
        <time>2026-04-25T08:31:27.000Z</time>
      </trkpt>
      <trkpt lat="51.332464" lon="0.949318">
        <ele>-4</ele>
        <time>2026-04-25T08:31:32.000Z</time>
      </trkpt>
      <trkpt lat="51.332208" lon="0.949022">
        <ele>-3.2</ele>
        <time>2026-04-25T08:31:40.000Z</time>
      </trkpt>
      <trkpt lat="51.331865" lon="0.948724">
        <ele>-2</ele>
        <time>2026-04-25T08:31:51.000Z</time>
      </trkpt>
      <trkpt lat="51.331538" lon="0.948291">
        <ele>-1</ele>
        <time>2026-04-25T08:32:02.000Z</time>
      </trkpt>
      <trkpt lat="51.331384" lon="0.948167">
        <ele>-0.80000000000001</ele>
        <time>2026-04-25T08:32:07.000Z</time>
      </trkpt>
      <trkpt lat="51.331207" lon="0.94807">
        <ele>-0.19999999999999</ele>
        <time>2026-04-25T08:32:12.000Z</time>
      </trkpt>
      <trkpt lat="51.331078" lon="0.94803">
        <ele>0.19999999999999</ele>
        <time>2026-04-25T08:32:15.000Z</time>
      </trkpt>
      <trkpt lat="51.330127" lon="0.948025">
        <ele>0.39999999999998</ele>
        <time>2026-04-25T08:32:41.000Z</time>
      </trkpt>
      <trkpt lat="51.329688" lon="0.947959">
        <ele>-0.19999999999999</ele>
        <time>2026-04-25T08:32:52.000Z</time>
      </trkpt>
      <trkpt lat="51.329551" lon="0.947914">
        <ele>-0.19999999999999</ele>
        <time>2026-04-25T08:32:56.000Z</time>
      </trkpt>
      <trkpt lat="51.329299" lon="0.94778">
        <ele>-0.19999999999999</ele>
        <time>2026-04-25T08:33:03.000Z</time>
      </trkpt>
      <trkpt lat="51.328424" lon="0.947219">
        <ele>0.60000000000002</ele>
        <time>2026-04-25T08:33:28.000Z</time>
      </trkpt>
      <trkpt lat="51.327753" lon="0.946862">
        <ele>1.4</ele>
        <time>2026-04-25T08:33:47.000Z</time>
      </trkpt>
      <trkpt lat="51.327123" lon="0.946593">
        <ele>2.6</ele>
        <time>2026-04-25T08:34:05.000Z</time>
      </trkpt>
      <trkpt lat="51.326604" lon="0.946299">
        <ele>3.8</ele>
        <time>2026-04-25T08:34:19.000Z</time>
      </trkpt>
      <trkpt lat="51.326438" lon="0.946169">
        <ele>3.8</ele>
        <time>2026-04-25T08:34:24.000Z</time>
      </trkpt>
      <trkpt lat="51.326331" lon="0.946058">
        <ele>4</ele>
        <time>2026-04-25T08:34:28.000Z</time>
      </trkpt>
      <trkpt lat="51.32619" lon="0.945847">
        <ele>4</ele>
        <time>2026-04-25T08:34:33.000Z</time>
      </trkpt>
      <trkpt lat="51.326084" lon="0.945583">
        <ele>4</ele>
        <time>2026-04-25T08:34:38.000Z</time>
      </trkpt>
      <trkpt lat="51.325862" lon="0.944875">
        <ele>4</ele>
        <time>2026-04-25T08:34:51.000Z</time>
      </trkpt>
      <trkpt lat="51.325718" lon="0.944553">
        <ele>4.2</ele>
        <time>2026-04-25T08:34:58.000Z</time>
      </trkpt>
      <trkpt lat="51.325587" lon="0.944324">
        <ele>4.4</ele>
        <time>2026-04-25T08:35:03.000Z</time>
      </trkpt>
      <trkpt lat="51.325386" lon="0.944049">
        <ele>4.4</ele>
        <time>2026-04-25T08:35:10.000Z</time>
      </trkpt>
      <trkpt lat="51.324901" lon="0.943574">
        <ele>4.2</ele>
        <time>2026-04-25T08:35:25.000Z</time>
      </trkpt>
      <trkpt lat="51.324714" lon="0.943449">
        <ele>4</ele>
        <time>2026-04-25T08:35:31.000Z</time>
      </trkpt>
      <trkpt lat="51.324206" lon="0.943174">
        <ele>3.6</ele>
        <time>2026-04-25T08:35:45.000Z</time>
      </trkpt>
      <trkpt lat="51.324042" lon="0.943048">
        <ele>4.2</ele>
        <time>2026-04-25T08:35:50.000Z</time>
      </trkpt>
      <trkpt lat="51.323942" lon="0.942944">
        <ele>4.2</ele>
        <time>2026-04-25T08:35:53.000Z</time>
      </trkpt>
      <trkpt lat="51.323802" lon="0.942838">
        <ele>4.6</ele>
        <time>2026-04-25T08:35:57.000Z</time>
      </trkpt>
      <trkpt lat="51.323503" lon="0.942569">
        <ele>4.8</ele>
        <time>2026-04-25T08:36:06.000Z</time>
      </trkpt>
      <trkpt lat="51.323363" lon="0.942479">
        <ele>4.8</ele>
        <time>2026-04-25T08:36:10.000Z</time>
      </trkpt>
      <trkpt lat="51.322837" lon="0.942067">
        <ele>5.6</ele>
        <time>2026-04-25T08:36:26.000Z</time>
      </trkpt>
      <trkpt lat="51.322711" lon="0.941989">
        <ele>5.8</ele>
        <time>2026-04-25T08:36:30.000Z</time>
      </trkpt>
      <trkpt lat="51.322077" lon="0.941788">
        <ele>5.6</ele>
        <time>2026-04-25T08:36:47.000Z</time>
      </trkpt>
      <trkpt lat="51.321808" lon="0.941678">
        <ele>5.4</ele>
        <time>2026-04-25T08:36:54.000Z</time>
      </trkpt>
      <trkpt lat="51.321607" lon="0.941653">
        <ele>5.4</ele>
        <time>2026-04-25T08:37:00.000Z</time>
      </trkpt>
      <trkpt lat="51.321465" lon="0.941585">
        <ele>5.2</ele>
        <time>2026-04-25T08:37:04.000Z</time>
      </trkpt>
      <trkpt lat="51.321194" lon="0.941374">
        <ele>4.6</ele>
        <time>2026-04-25T08:37:12.000Z</time>
      </trkpt>
      <trkpt lat="51.321052" lon="0.941285">
        <ele>4.4</ele>
        <time>2026-04-25T08:37:16.000Z</time>
      </trkpt>
      <trkpt lat="51.320836" lon="0.941206">
        <ele>3.8</ele>
        <time>2026-04-25T08:37:22.000Z</time>
      </trkpt>
      <trkpt lat="51.320363" lon="0.941109">
        <ele>2.6</ele>
        <time>2026-04-25T08:37:34.000Z</time>
      </trkpt>
      <trkpt lat="51.319805" lon="0.940837">
        <ele>2</ele>
        <time>2026-04-25T08:37:50.000Z</time>
      </trkpt>
      <trkpt lat="51.319394" lon="0.940551">
        <ele>1.8</ele>
        <time>2026-04-25T08:38:02.000Z</time>
      </trkpt>
      <trkpt lat="51.319196" lon="0.94039">
        <ele>1.4</ele>
        <time>2026-04-25T08:38:08.000Z</time>
      </trkpt>
      <trkpt lat="51.318864" lon="0.940107">
        <ele>1.4</ele>
        <time>2026-04-25T08:38:18.000Z</time>
      </trkpt>
      <trkpt lat="51.318427" lon="0.939697">
        <ele>0.60000000000002</ele>
        <time>2026-04-25T08:38:32.000Z</time>
      </trkpt>
      <trkpt lat="51.318114" lon="0.939217">
        <ele>-0.19999999999999</ele>
        <time>2026-04-25T08:38:43.000Z</time>
      </trkpt>
      <trkpt lat="51.31781" lon="0.938644">
        <ele>-1</ele>
        <time>2026-04-25T08:38:56.000Z</time>
      </trkpt>
      <trkpt lat="51.317678" lon="0.938312">
        <ele>-1.4</ele>
        <time>2026-04-25T08:39:02.000Z</time>
      </trkpt>
      <trkpt lat="51.317514" lon="0.937759">
        <ele>-1.8</ele>
        <time>2026-04-25T08:39:12.000Z</time>
      </trkpt>
      <trkpt lat="51.317373" lon="0.937499">
        <ele>-2.4</ele>
        <time>2026-04-25T08:39:18.000Z</time>
      </trkpt>
      <trkpt lat="51.317157" lon="0.937216">
        <ele>-3</ele>
        <time>2026-04-25T08:39:26.000Z</time>
      </trkpt>
      <trkpt lat="51.3163" lon="0.936308">
        <ele>-3.8</ele>
        <time>2026-04-25T08:39:53.000Z</time>
      </trkpt>
      <trkpt lat="51.316184" lon="0.936142">
        <ele>-3.8</ele>
        <time>2026-04-25T08:39:57.000Z</time>
      </trkpt>
      <trkpt lat="51.315912" lon="0.935677">
        <ele>-3.8</ele>
        <time>2026-04-25T08:40:08.000Z</time>
      </trkpt>
      <trkpt lat="51.315708" lon="0.935394">
        <ele>-4</ele>
        <time>2026-04-25T08:40:15.000Z</time>
      </trkpt>
      <trkpt lat="51.315481" lon="0.935143">
        <ele>-4</ele>
        <time>2026-04-25T08:40:22.000Z</time>
      </trkpt>
      <trkpt lat="51.315021" lon="0.934699">
        <ele>-3.6</ele>
        <time>2026-04-25T08:40:37.000Z</time>
      </trkpt>
      <trkpt lat="51.314733" lon="0.934486">
        <ele>-3.4</ele>
        <time>2026-04-25T08:40:45.000Z</time>
      </trkpt>
      <trkpt lat="51.314551" lon="0.934422">
        <ele>-3.2</ele>
        <time>2026-04-25T08:40:50.000Z</time>
      </trkpt>
      <trkpt lat="51.314365" lon="0.934415">
        <ele>-3</ele>
        <time>2026-04-25T08:40:55.000Z</time>
      </trkpt>
      <trkpt lat="51.314004" lon="0.934499">
        <ele>-2.4</ele>
        <time>2026-04-25T08:41:05.000Z</time>
      </trkpt>
      <trkpt lat="51.313888" lon="0.934489">
        <ele>-2</ele>
        <time>2026-04-25T08:41:08.000Z</time>
      </trkpt>
      <trkpt lat="51.313728" lon="0.934429">
        <ele>-1.6</ele>
        <time>2026-04-25T08:41:12.000Z</time>
      </trkpt>
      <trkpt lat="51.313477" lon="0.934263">
        <ele>-0.80000000000001</ele>
        <time>2026-04-25T08:41:20.000Z</time>
      </trkpt>
      <trkpt lat="51.312435" lon="0.933663">
        <ele>3</ele>
        <time>2026-04-25T08:41:49.000Z</time>
      </trkpt>
      <trkpt lat="51.312231" lon="0.933501">
        <ele>4</ele>
        <time>2026-04-25T08:41:55.000Z</time>
      </trkpt>
      <trkpt lat="51.311738" lon="0.933228">
        <ele>8</ele>
        <time>2026-04-25T08:42:09.000Z</time>
      </trkpt>
      <trkpt lat="51.311322" lon="0.932945">
        <ele>10.4</ele>
        <time>2026-04-25T08:42:21.000Z</time>
      </trkpt>
      <trkpt lat="51.310586" lon="0.932548">
        <ele>14.8</ele>
        <time>2026-04-25T08:42:42.000Z</time>
      </trkpt>
      <trkpt lat="51.310342" lon="0.932459">
        <ele>15.2</ele>
        <time>2026-04-25T08:42:49.000Z</time>
      </trkpt>
      <trkpt lat="51.310302" lon="0.932431">
        <ele>15.2</ele>
        <time>2026-04-25T08:42:50.000Z</time>
      </trkpt>
      <trkpt lat="51.310287" lon="0.9324">
        <ele>15.2</ele>
        <time>2026-04-25T08:42:50.000Z</time>
      </trkpt>
      <trkpt lat="51.310291" lon="0.932287">
        <ele>15.2</ele>
        <time>2026-04-25T08:42:52.000Z</time>
      </trkpt>
      <trkpt lat="51.310354" lon="0.931999">
        <ele>15</ele>
        <time>2026-04-25T08:42:57.000Z</time>
      </trkpt>
      <trkpt lat="51.310547" lon="0.930788">
        <ele>13</ele>
        <time>2026-04-25T08:43:18.000Z</time>
      </trkpt>
      <trkpt lat="51.31071" lon="0.92924">
        <ele>11</ele>
        <time>2026-04-25T08:43:45.000Z</time>
      </trkpt>
      <trkpt lat="51.311021" lon="0.925886">
        <ele>5.4</ele>
        <time>2026-04-25T08:44:41.000Z</time>
      </trkpt>
      <trkpt lat="51.311099" lon="0.925142">
        <ele>4.6</ele>
        <time>2026-04-25T08:44:54.000Z</time>
      </trkpt>
      <trkpt lat="51.311313" lon="0.92356">
        <ele>3.4</ele>
        <time>2026-04-25T08:45:21.000Z</time>
      </trkpt>
      <trkpt lat="51.311405" lon="0.92238">
        <ele>2.8</ele>
        <time>2026-04-25T08:45:41.000Z</time>
      </trkpt>
      <trkpt lat="51.311521" lon="0.921279">
        <ele>1.8</ele>
        <time>2026-04-25T08:45:59.000Z</time>
      </trkpt>
      <trkpt lat="51.311888" lon="0.918583">
        <ele>0.19999999999999</ele>
        <time>2026-04-25T08:46:45.000Z</time>
      </trkpt>
      <trkpt lat="51.31197" lon="0.917874">
        <ele>0.80000000000001</ele>
        <time>2026-04-25T08:46:57.000Z</time>
      </trkpt>
      <trkpt lat="51.312068" lon="0.916774">
        <ele>2.8</ele>
        <time>2026-04-25T08:47:16.000Z</time>
      </trkpt>
      <trkpt lat="51.312204" lon="0.914902">
        <ele>5.8</ele>
        <time>2026-04-25T08:47:47.000Z</time>
      </trkpt>
      <trkpt lat="51.312278" lon="0.914234">
        <ele>6.4</ele>
        <time>2026-04-25T08:47:59.000Z</time>
      </trkpt>
      <trkpt lat="51.312413" lon="0.91269">
        <ele>5.2</ele>
        <time>2026-04-25T08:48:25.000Z</time>
      </trkpt>
      <trkpt lat="51.312426" lon="0.912101">
        <ele>4.2</ele>
        <time>2026-04-25T08:48:34.000Z</time>
      </trkpt>
      <trkpt lat="51.312236" lon="0.910352">
        <ele>2</ele>
        <time>2026-04-25T08:49:04.000Z</time>
      </trkpt>
      <trkpt lat="51.312159" lon="0.908631">
        <ele>2</ele>
        <time>2026-04-25T08:49:33.000Z</time>
      </trkpt>
      <trkpt lat="51.312168" lon="0.908141">
        <ele>2.4</ele>
        <time>2026-04-25T08:49:41.000Z</time>
      </trkpt>
      <trkpt lat="51.312261" lon="0.906458">
        <ele>5.4</ele>
        <time>2026-04-25T08:50:09.000Z</time>
      </trkpt>
      <trkpt lat="51.312252" lon="0.906244">
        <ele>6</ele>
        <time>2026-04-25T08:50:13.000Z</time>
      </trkpt>
      <trkpt lat="51.312204" lon="0.906144">
        <ele>6.2</ele>
        <time>2026-04-25T08:50:15.000Z</time>
      </trkpt>
      <trkpt lat="51.311878" lon="0.905894">
        <ele>7.6</ele>
        <time>2026-04-25T08:50:25.000Z</time>
      </trkpt>
      <trkpt lat="51.311233" lon="0.905562">
        <ele>8.4</ele>
        <time>2026-04-25T08:50:43.000Z</time>
      </trkpt>
      <trkpt lat="51.310964" lon="0.90546">
        <ele>8.6</ele>
        <time>2026-04-25T08:50:50.000Z</time>
      </trkpt>
      <trkpt lat="51.310439" lon="0.905335">
        <ele>8.2</ele>
        <time>2026-04-25T08:51:04.000Z</time>
      </trkpt>
      <trkpt lat="51.309752" lon="0.905139">
        <ele>8.2</ele>
        <time>2026-04-25T08:51:23.000Z</time>
      </trkpt>
      <trkpt lat="51.308977" lon="0.904968">
        <ele>9</ele>
        <time>2026-04-25T08:51:44.000Z</time>
      </trkpt>
      <trkpt lat="51.308508" lon="0.904846">
        <ele>10.2</ele>
        <time>2026-04-25T08:51:56.000Z</time>
      </trkpt>
      <trkpt lat="51.307791" lon="0.904759">
        <ele>13</ele>
        <time>2026-04-25T08:52:16.000Z</time>
      </trkpt>
      <trkpt lat="51.307342" lon="0.904737">
        <ele>15</ele>
        <time>2026-04-25T08:52:28.000Z</time>
      </trkpt>
      <trkpt lat="51.307102" lon="0.904613">
        <ele>16.8</ele>
        <time>2026-04-25T08:52:34.000Z</time>
      </trkpt>
      <trkpt lat="51.306942" lon="0.904589">
        <ele>17.6</ele>
        <time>2026-04-25T08:52:39.000Z</time>
      </trkpt>
      <trkpt lat="51.306603" lon="0.904458">
        <ele>18.8</ele>
        <time>2026-04-25T08:52:48.000Z</time>
      </trkpt>
      <trkpt lat="51.305902" lon="0.904119">
        <ele>21.6</ele>
        <time>2026-04-25T08:53:07.000Z</time>
      </trkpt>
      <trkpt lat="51.305777" lon="0.904047">
        <ele>22</ele>
        <time>2026-04-25T08:53:11.000Z</time>
      </trkpt>
      <trkpt lat="51.305714" lon="0.903987">
        <ele>21.6</ele>
        <time>2026-04-25T08:53:13.000Z</time>
      </trkpt>
      <trkpt lat="51.305696" lon="0.903826">
        <ele>21.6</ele>
        <time>2026-04-25T08:53:16.000Z</time>
      </trkpt>
      <trkpt lat="51.305775" lon="0.903351">
        <ele>21</ele>
        <time>2026-04-25T08:53:24.000Z</time>
      </trkpt>
      <trkpt lat="51.305982" lon="0.902383">
        <ele>19.4</ele>
        <time>2026-04-25T08:53:41.000Z</time>
      </trkpt>
      <trkpt lat="51.306165" lon="0.901648">
        <ele>18.8</ele>
        <time>2026-04-25T08:53:54.000Z</time>
      </trkpt>
      <trkpt lat="51.306325" lon="0.900873">
        <ele>18.2</ele>
        <time>2026-04-25T08:54:08.000Z</time>
      </trkpt>
      <trkpt lat="51.306474" lon="0.899938">
        <ele>17.2</ele>
        <time>2026-04-25T08:54:24.000Z</time>
      </trkpt>
      <trkpt lat="51.306949" lon="0.897481">
        <ele>16</ele>
        <time>2026-04-25T08:55:07.000Z</time>
      </trkpt>
      <trkpt lat="51.307626" lon="0.894291">
        <ele>14</ele>
        <time>2026-04-25T08:56:03.000Z</time>
      </trkpt>
      <trkpt lat="51.307877" lon="0.892956">
        <ele>11.8</ele>
        <time>2026-04-25T08:56:26.000Z</time>
      </trkpt>
      <trkpt lat="51.308108" lon="0.891854">
        <ele>10.8</ele>
        <time>2026-04-25T08:56:46.000Z</time>
      </trkpt>
      <trkpt lat="51.308447" lon="0.88994">
        <ele>11.6</ele>
        <time>2026-04-25T08:57:19.000Z</time>
      </trkpt>
      <trkpt lat="51.308581" lon="0.888955">
        <ele>13.4</ele>
        <time>2026-04-25T08:57:36.000Z</time>
      </trkpt>
      <trkpt lat="51.309217" lon="0.885548">
        <ele>13.2</ele>
        <time>2026-04-25T08:58:35.000Z</time>
      </trkpt>
      <trkpt lat="51.310342" lon="0.879814">
        <ele>9.2</ele>
        <time>2026-04-25T09:00:15.000Z</time>
      </trkpt>
      <trkpt lat="51.310675" lon="0.877982">
        <ele>8.4</ele>
        <time>2026-04-25T09:00:47.000Z</time>
      </trkpt>
      <trkpt lat="51.311092" lon="0.875998">
        <ele>7.4</ele>
        <time>2026-04-25T09:01:22.000Z</time>
      </trkpt>
      <trkpt lat="51.311347" lon="0.874879">
        <ele>5.6</ele>
        <time>2026-04-25T09:01:42.000Z</time>
      </trkpt>
      <trkpt lat="51.31158" lon="0.873682">
        <ele>2</ele>
        <time>2026-04-25T09:02:03.000Z</time>
      </trkpt>
      <trkpt lat="51.311661" lon="0.872881">
        <ele>0.80000000000001</ele>
        <time>2026-04-25T09:02:16.000Z</time>
      </trkpt>
      <trkpt lat="51.311777" lon="0.872232">
        <ele>0.80000000000001</ele>
        <time>2026-04-25T09:02:28.000Z</time>
      </trkpt>
      <trkpt lat="51.312426" lon="0.869605">
        <ele>3.6</ele>
        <time>2026-04-25T09:03:15.000Z</time>
      </trkpt>
      <trkpt lat="51.312974" lon="0.867549">
        <ele>9</ele>
        <time>2026-04-25T09:03:52.000Z</time>
      </trkpt>
      <trkpt lat="51.313499" lon="0.865488">
        <ele>12.4</ele>
        <time>2026-04-25T09:04:29.000Z</time>
      </trkpt>
      <trkpt lat="51.313649" lon="0.864793">
        <ele>13.8</ele>
        <time>2026-04-25T09:04:41.000Z</time>
      </trkpt>
      <trkpt lat="51.313643" lon="0.864277">
        <ele>14.4</ele>
        <time>2026-04-25T09:04:50.000Z</time>
      </trkpt>
      <trkpt lat="51.313667" lon="0.864202">
        <ele>14.6</ele>
        <time>2026-04-25T09:04:51.000Z</time>
      </trkpt>
      <trkpt lat="51.313835" lon="0.863884">
        <ele>15.2</ele>
        <time>2026-04-25T09:04:58.000Z</time>
      </trkpt>
      <trkpt lat="51.313923" lon="0.863501">
        <ele>15.8</ele>
        <time>2026-04-25T09:05:05.000Z</time>
      </trkpt>
      <trkpt lat="51.314158" lon="0.862206">
        <ele>19.6</ele>
        <time>2026-04-25T09:05:28.000Z</time>
      </trkpt>
      <trkpt lat="51.314241" lon="0.861433">
        <ele>22.6</ele>
        <time>2026-04-25T09:05:41.000Z</time>
      </trkpt>
      <trkpt lat="51.314452" lon="0.860031">
        <ele>24</ele>
        <time>2026-04-25T09:06:05.000Z</time>
      </trkpt>
      <trkpt lat="51.314986" lon="0.857004">
        <ele>13.8</ele>
        <time>2026-04-25T09:06:57.000Z</time>
      </trkpt>
      <trkpt lat="51.315169" lon="0.855772">
        <ele>8.6</ele>
        <time>2026-04-25T09:07:19.000Z</time>
      </trkpt>
      <trkpt lat="51.315161" lon="0.855604">
        <ele>8.2</ele>
        <time>2026-04-25T09:07:21.000Z</time>
      </trkpt>
      <trkpt lat="51.315098" lon="0.855469">
        <ele>8</ele>
        <time>2026-04-25T09:07:24.000Z</time>
      </trkpt>
      <trkpt lat="51.315001" lon="0.855351">
        <ele>7.6</ele>
        <time>2026-04-25T09:07:27.000Z</time>
      </trkpt>
      <trkpt lat="51.314227" lon="0.854601">
        <ele>7.4</ele>
        <time>2026-04-25T09:07:52.000Z</time>
      </trkpt>
      <trkpt lat="51.313526" lon="0.854032">
        <ele>7</ele>
        <time>2026-04-25T09:08:13.000Z</time>
      </trkpt>
      <trkpt lat="51.313253" lon="0.853833">
        <ele>6.8</ele>
        <time>2026-04-25T09:08:21.000Z</time>
      </trkpt>
      <trkpt lat="51.312917" lon="0.853629">
        <ele>7</ele>
        <time>2026-04-25T09:08:30.000Z</time>
      </trkpt>
      <trkpt lat="51.312754" lon="0.853509">
        <ele>7</ele>
        <time>2026-04-25T09:08:35.000Z</time>
      </trkpt>
      <trkpt lat="51.312394" lon="0.853205">
        <ele>7.2</ele>
        <time>2026-04-25T09:08:46.000Z</time>
      </trkpt>
      <trkpt lat="51.312154" lon="0.852972">
        <ele>7.8</ele>
        <time>2026-04-25T09:08:53.000Z</time>
      </trkpt>
      <trkpt lat="51.312017" lon="0.852791">
        <ele>7.8</ele>
        <time>2026-04-25T09:08:58.000Z</time>
      </trkpt>
      <trkpt lat="51.311047" lon="0.851127">
        <ele>8.4</ele>
        <time>2026-04-25T09:09:36.000Z</time>
      </trkpt>
      <trkpt lat="51.310705" lon="0.850596">
        <ele>8.4</ele>
        <time>2026-04-25T09:09:49.000Z</time>
      </trkpt>
      <trkpt lat="51.310388" lon="0.850165">
        <ele>8.6</ele>
        <time>2026-04-25T09:10:00.000Z</time>
      </trkpt>
      <trkpt lat="51.310194" lon="0.849941">
        <ele>9</ele>
        <time>2026-04-25T09:10:06.000Z</time>
      </trkpt>
      <trkpt lat="51.309991" lon="0.849746">
        <ele>9</ele>
        <time>2026-04-25T09:10:13.000Z</time>
      </trkpt>
      <trkpt lat="51.309718" lon="0.849534">
        <ele>9.6</ele>
        <time>2026-04-25T09:10:21.000Z</time>
      </trkpt>
      <trkpt lat="51.30924" lon="0.849218">
        <ele>9.8</ele>
        <time>2026-04-25T09:10:34.000Z</time>
      </trkpt>
      <trkpt lat="51.308832" lon="0.848903">
        <ele>10.2</ele>
        <time>2026-04-25T09:10:47.000Z</time>
      </trkpt>
      <trkpt lat="51.308687" lon="0.848761">
        <ele>10.4</ele>
        <time>2026-04-25T09:10:51.000Z</time>
      </trkpt>
      <trkpt lat="51.308553" lon="0.848587">
        <ele>10.4</ele>
        <time>2026-04-25T09:10:56.000Z</time>
      </trkpt>
      <trkpt lat="51.308259" lon="0.84805">
        <ele>10.6</ele>
        <time>2026-04-25T09:11:08.000Z</time>
      </trkpt>
      <trkpt lat="51.30802" lon="0.847351">
        <ele>11</ele>
        <time>2026-04-25T09:11:21.000Z</time>
      </trkpt>
      <trkpt lat="51.307636" lon="0.846438">
        <ele>11.6</ele>
        <time>2026-04-25T09:11:39.000Z</time>
      </trkpt>
      <trkpt lat="51.307468" lon="0.846142">
        <ele>11.6</ele>
        <time>2026-04-25T09:11:46.000Z</time>
      </trkpt>
      <trkpt lat="51.306921" lon="0.845298">
        <ele>12.2</ele>
        <time>2026-04-25T09:12:06.000Z</time>
      </trkpt>
      <trkpt lat="51.306478" lon="0.844487">
        <ele>12.6</ele>
        <time>2026-04-25T09:12:24.000Z</time>
      </trkpt>
      <trkpt lat="51.306099" lon="0.843462">
        <ele>13.4</ele>
        <time>2026-04-25T09:12:44.000Z</time>
      </trkpt>
      <trkpt lat="51.306013" lon="0.84309">
        <ele>13.4</ele>
        <time>2026-04-25T09:12:51.000Z</time>
      </trkpt>
      <trkpt lat="51.306006" lon="0.842882">
        <ele>13.4</ele>
        <time>2026-04-25T09:12:54.000Z</time>
      </trkpt>
      <trkpt lat="51.306021" lon="0.842679">
        <ele>13.4</ele>
        <time>2026-04-25T09:12:58.000Z</time>
      </trkpt>
      <trkpt lat="51.306057" lon="0.842486">
        <ele>13.6</ele>
        <time>2026-04-25T09:13:01.000Z</time>
      </trkpt>
      <trkpt lat="51.306296" lon="0.841851">
        <ele>13.6</ele>
        <time>2026-04-25T09:13:13.000Z</time>
      </trkpt>
      <trkpt lat="51.306417" lon="0.841392">
        <ele>14.2</ele>
        <time>2026-04-25T09:13:22.000Z</time>
      </trkpt>
      <trkpt lat="51.306452" lon="0.841192">
        <ele>14.4</ele>
        <time>2026-04-25T09:13:25.000Z</time>
      </trkpt>
      <trkpt lat="51.306462" lon="0.840998">
        <ele>14.4</ele>
        <time>2026-04-25T09:13:28.000Z</time>
      </trkpt>
      <trkpt lat="51.306457" lon="0.840798">
        <ele>14.8</ele>
        <time>2026-04-25T09:13:32.000Z</time>
      </trkpt>
      <trkpt lat="51.306431" lon="0.840607">
        <ele>14.8</ele>
        <time>2026-04-25T09:13:35.000Z</time>
      </trkpt>
      <trkpt lat="51.306363" lon="0.840352">
        <ele>15.2</ele>
        <time>2026-04-25T09:13:40.000Z</time>
      </trkpt>
      <trkpt lat="51.305807" lon="0.838913">
        <ele>16.4</ele>
        <time>2026-04-25T09:14:08.000Z</time>
      </trkpt>
      <trkpt lat="51.305502" lon="0.837996">
        <ele>17</ele>
        <time>2026-04-25T09:14:25.000Z</time>
      </trkpt>
      <trkpt lat="51.304768" lon="0.836358">
        <ele>18.6</ele>
        <time>2026-04-25T09:14:59.000Z</time>
      </trkpt>
      <trkpt lat="51.304467" lon="0.835853">
        <ele>19</ele>
        <time>2026-04-25T09:15:10.000Z</time>
      </trkpt>
      <trkpt lat="51.303706" lon="0.834721">
        <ele>19.4</ele>
        <time>2026-04-25T09:15:38.000Z</time>
      </trkpt>
      <trkpt lat="51.303359" lon="0.834312">
        <ele>19.2</ele>
        <time>2026-04-25T09:15:50.000Z</time>
      </trkpt>
      <trkpt lat="51.303195" lon="0.834063">
        <ele>19.4</ele>
        <time>2026-04-25T09:15:56.000Z</time>
      </trkpt>
      <trkpt lat="51.302969" lon="0.833665">
        <ele>19.4</ele>
        <time>2026-04-25T09:16:05.000Z</time>
      </trkpt>
      <trkpt lat="51.30277" lon="0.833407">
        <ele>19.4</ele>
        <time>2026-04-25T09:16:11.000Z</time>
      </trkpt>
      <trkpt lat="51.30255" lon="0.833137">
        <ele>19.4</ele>
        <time>2026-04-25T09:16:19.000Z</time>
      </trkpt>
      <trkpt lat="51.30239" lon="0.832984">
        <ele>19.2</ele>
        <time>2026-04-25T09:16:24.000Z</time>
      </trkpt>
      <trkpt lat="51.30212" lon="0.832664">
        <ele>19</ele>
        <time>2026-04-25T09:16:33.000Z</time>
      </trkpt>
      <trkpt lat="51.301551" lon="0.832195">
        <ele>19.4</ele>
        <time>2026-04-25T09:16:50.000Z</time>
      </trkpt>
      <trkpt lat="51.301148" lon="0.831763">
        <ele>20</ele>
        <time>2026-04-25T09:17:03.000Z</time>
      </trkpt>
      <trkpt lat="51.300619" lon="0.831099">
        <ele>20.6</ele>
        <time>2026-04-25T09:17:21.000Z</time>
      </trkpt>
      <trkpt lat="51.300246" lon="0.830591">
        <ele>20.8</ele>
        <time>2026-04-25T09:17:34.000Z</time>
      </trkpt>
      <trkpt lat="51.30004" lon="0.830272">
        <ele>21</ele>
        <time>2026-04-25T09:17:42.000Z</time>
      </trkpt>
      <trkpt lat="51.299819" lon="0.829982">
        <ele>21.4</ele>
        <time>2026-04-25T09:17:49.000Z</time>
      </trkpt>
      <trkpt lat="51.299564" lon="0.829714">
        <ele>21.4</ele>
        <time>2026-04-25T09:17:57.000Z</time>
      </trkpt>
      <trkpt lat="51.2993" lon="0.829529">
        <ele>21.2</ele>
        <time>2026-04-25T09:18:05.000Z</time>
      </trkpt>
      <trkpt lat="51.298998" lon="0.829418">
        <ele>21.8</ele>
        <time>2026-04-25T09:18:13.000Z</time>
      </trkpt>
      <trkpt lat="51.298757" lon="0.82938">
        <ele>22.2</ele>
        <time>2026-04-25T09:18:20.000Z</time>
      </trkpt>
      <trkpt lat="51.298482" lon="0.829196">
        <ele>22.2</ele>
        <time>2026-04-25T09:18:28.000Z</time>
      </trkpt>
      <trkpt lat="51.298327" lon="0.829071">
        <ele>22.2</ele>
        <time>2026-04-25T09:18:32.000Z</time>
      </trkpt>
      <trkpt lat="51.298162" lon="0.828847">
        <ele>22.4</ele>
        <time>2026-04-25T09:18:38.000Z</time>
      </trkpt>
      <trkpt lat="51.297992" lon="0.828673">
        <ele>22.4</ele>
        <time>2026-04-25T09:18:43.000Z</time>
      </trkpt>
      <trkpt lat="51.297851" lon="0.828435">
        <ele>22.6</ele>
        <time>2026-04-25T09:18:49.000Z</time>
      </trkpt>
      <trkpt lat="51.297755" lon="0.828228">
        <ele>23</ele>
        <time>2026-04-25T09:18:53.000Z</time>
      </trkpt>
      <trkpt lat="51.29761" lon="0.828005">
        <ele>23.2</ele>
        <time>2026-04-25T09:18:59.000Z</time>
      </trkpt>
      <trkpt lat="51.297408" lon="0.827458">
        <ele>23.4</ele>
        <time>2026-04-25T09:19:09.000Z</time>
      </trkpt>
      <trkpt lat="51.297264" lon="0.827203">
        <ele>23.2</ele>
        <time>2026-04-25T09:19:15.000Z</time>
      </trkpt>
      <trkpt lat="51.297058" lon="0.826955">
        <ele>23.4</ele>
        <time>2026-04-25T09:19:22.000Z</time>
      </trkpt>
      <trkpt lat="51.296342" lon="0.825943">
        <ele>23.8</ele>
        <time>2026-04-25T09:19:47.000Z</time>
      </trkpt>
      <trkpt lat="51.295696" lon="0.825164">
        <ele>24.4</ele>
        <time>2026-04-25T09:20:09.000Z</time>
      </trkpt>
      <trkpt lat="51.295101" lon="0.824383">
        <ele>25</ele>
        <time>2026-04-25T09:20:30.000Z</time>
      </trkpt>
      <trkpt lat="51.294706" lon="0.8238">
        <ele>25.2</ele>
        <time>2026-04-25T09:20:44.000Z</time>
      </trkpt>
      <trkpt lat="51.294207" lon="0.822942">
        <ele>25.6</ele>
        <time>2026-04-25T09:21:03.000Z</time>
      </trkpt>
      <trkpt lat="51.293743" lon="0.822013">
        <ele>26.2</ele>
        <time>2026-04-25T09:21:23.000Z</time>
      </trkpt>
      <trkpt lat="51.293618" lon="0.821791">
        <ele>26.2</ele>
        <time>2026-04-25T09:21:28.000Z</time>
      </trkpt>
      <trkpt lat="51.293306" lon="0.821291">
        <ele>26.6</ele>
        <time>2026-04-25T09:21:40.000Z</time>
      </trkpt>
      <trkpt lat="51.293005" lon="0.820848">
        <ele>27.2</ele>
        <time>2026-04-25T09:21:51.000Z</time>
      </trkpt>
      <trkpt lat="51.292574" lon="0.820095">
        <ele>28</ele>
        <time>2026-04-25T09:22:08.000Z</time>
      </trkpt>
      <trkpt lat="51.292327" lon="0.81971">
        <ele>28.2</ele>
        <time>2026-04-25T09:22:17.000Z</time>
      </trkpt>
      <trkpt lat="51.291589" lon="0.81873">
        <ele>29.4</ele>
        <time>2026-04-25T09:22:43.000Z</time>
      </trkpt>
      <trkpt lat="51.291411" lon="0.818522">
        <ele>29.8</ele>
        <time>2026-04-25T09:22:49.000Z</time>
      </trkpt>
      <trkpt lat="51.291012" lon="0.818123">
        <ele>30</ele>
        <time>2026-04-25T09:23:01.000Z</time>
      </trkpt>
      <trkpt lat="51.290881" lon="0.817955">
        <ele>30.4</ele>
        <time>2026-04-25T09:23:06.000Z</time>
      </trkpt>
      <trkpt lat="51.290745" lon="0.81774">
        <ele>30.4</ele>
        <time>2026-04-25T09:23:11.000Z</time>
      </trkpt>
      <trkpt lat="51.290644" lon="0.817516">
        <ele>30.4</ele>
        <time>2026-04-25T09:23:15.000Z</time>
      </trkpt>
      <trkpt lat="51.290584" lon="0.817328">
        <ele>30.6</ele>
        <time>2026-04-25T09:23:19.000Z</time>
      </trkpt>
      <trkpt lat="51.290389" lon="0.816015">
        <ele>30.4</ele>
        <time>2026-04-25T09:23:42.000Z</time>
      </trkpt>
      <trkpt lat="51.290245" lon="0.815453">
        <ele>30.8</ele>
        <time>2026-04-25T09:23:52.000Z</time>
      </trkpt>
      <trkpt lat="51.28986" lon="0.814425">
        <ele>31.4</ele>
        <time>2026-04-25T09:24:12.000Z</time>
      </trkpt>
      <trkpt lat="51.289507" lon="0.813565">
        <ele>31.6</ele>
        <time>2026-04-25T09:24:29.000Z</time>
      </trkpt>
      <trkpt lat="51.289225" lon="0.812794">
        <ele>31.8</ele>
        <time>2026-04-25T09:24:44.000Z</time>
      </trkpt>
      <trkpt lat="51.288615" lon="0.811601">
        <ele>33.4</ele>
        <time>2026-04-25T09:25:09.000Z</time>
      </trkpt>
      <trkpt lat="51.288352" lon="0.811168">
        <ele>33.8</ele>
        <time>2026-04-25T09:25:20.000Z</time>
      </trkpt>
      <trkpt lat="51.288014" lon="0.810677">
        <ele>33.8</ele>
        <time>2026-04-25T09:25:32.000Z</time>
      </trkpt>
      <trkpt lat="51.287457" lon="0.80975">
        <ele>34.2</ele>
        <time>2026-04-25T09:25:53.000Z</time>
      </trkpt>
      <trkpt lat="51.287158" lon="0.809215">
        <ele>34.6</ele>
        <time>2026-04-25T09:26:05.000Z</time>
      </trkpt>
      <trkpt lat="51.286862" lon="0.808592">
        <ele>35.2</ele>
        <time>2026-04-25T09:26:18.000Z</time>
      </trkpt>
      <trkpt lat="51.286656" lon="0.80803">
        <ele>35.6</ele>
        <time>2026-04-25T09:26:29.000Z</time>
      </trkpt>
      <trkpt lat="51.286164" lon="0.806946">
        <ele>36.8</ele>
        <time>2026-04-25T09:26:51.000Z</time>
      </trkpt>
      <trkpt lat="51.285797" lon="0.806254">
        <ele>37.2</ele>
        <time>2026-04-25T09:27:07.000Z</time>
      </trkpt>
      <trkpt lat="51.285517" lon="0.805792">
        <ele>37.4</ele>
        <time>2026-04-25T09:27:17.000Z</time>
      </trkpt>
      <trkpt lat="51.285274" lon="0.805316">
        <ele>38</ele>
        <time>2026-04-25T09:27:28.000Z</time>
      </trkpt>
      <trkpt lat="51.285118" lon="0.804919">
        <ele>38</ele>
        <time>2026-04-25T09:27:35.000Z</time>
      </trkpt>
      <trkpt lat="51.28498" lon="0.804368">
        <ele>38.2</ele>
        <time>2026-04-25T09:27:45.000Z</time>
      </trkpt>
      <trkpt lat="51.28491" lon="0.803969">
        <ele>38.2</ele>
        <time>2026-04-25T09:27:52.000Z</time>
      </trkpt>
      <trkpt lat="51.28482" lon="0.803143">
        <ele>38.6</ele>
        <time>2026-04-25T09:28:06.000Z</time>
      </trkpt>
      <trkpt lat="51.284809" lon="0.80277">
        <ele>38.6</ele>
        <time>2026-04-25T09:28:13.000Z</time>
      </trkpt>
      <trkpt lat="51.284771" lon="0.802278">
        <ele>39</ele>
        <time>2026-04-25T09:28:21.000Z</time>
      </trkpt>
      <trkpt lat="51.284731" lon="0.802077">
        <ele>39</ele>
        <time>2026-04-25T09:28:24.000Z</time>
      </trkpt>
      <trkpt lat="51.28457" lon="0.801573">
        <ele>39.4</ele>
        <time>2026-04-25T09:28:34.000Z</time>
      </trkpt>
      <trkpt lat="51.284499" lon="0.80124">
        <ele>39.6</ele>
        <time>2026-04-25T09:28:40.000Z</time>
      </trkpt>
      <trkpt lat="51.284485" lon="0.800969">
        <ele>40</ele>
        <time>2026-04-25T09:28:44.000Z</time>
      </trkpt>
      <trkpt lat="51.28451" lon="0.799992">
        <ele>41</ele>
        <time>2026-04-25T09:29:00.000Z</time>
      </trkpt>
      <trkpt lat="51.284479" lon="0.799689">
        <ele>41</ele>
        <time>2026-04-25T09:29:06.000Z</time>
      </trkpt>
      <trkpt lat="51.284387" lon="0.799178">
        <ele>41.4</ele>
        <time>2026-04-25T09:29:15.000Z</time>
      </trkpt>
      <trkpt lat="51.284139" lon="0.798139">
        <ele>41.6</ele>
        <time>2026-04-25T09:29:33.000Z</time>
      </trkpt>
      <trkpt lat="51.283834" lon="0.796733">
        <ele>42.2</ele>
        <time>2026-04-25T09:29:58.000Z</time>
      </trkpt>
      <trkpt lat="51.283461" lon="0.794832">
        <ele>45.4</ele>
        <time>2026-04-25T09:30:31.000Z</time>
      </trkpt>
      <trkpt lat="51.283261" lon="0.794119">
        <ele>46.2</ele>
        <time>2026-04-25T09:30:44.000Z</time>
      </trkpt>
      <trkpt lat="51.283112" lon="0.793677">
        <ele>46.6</ele>
        <time>2026-04-25T09:30:53.000Z</time>
      </trkpt>
      <trkpt lat="51.282901" lon="0.792966">
        <ele>46.6</ele>
        <time>2026-04-25T09:31:06.000Z</time>
      </trkpt>
      <trkpt lat="51.28271" lon="0.792535">
        <ele>46.4</ele>
        <time>2026-04-25T09:31:15.000Z</time>
      </trkpt>
      <trkpt lat="51.282577" lon="0.792299">
        <ele>46.6</ele>
        <time>2026-04-25T09:31:20.000Z</time>
      </trkpt>
      <trkpt lat="51.282421" lon="0.791927">
        <ele>47</ele>
        <time>2026-04-25T09:31:27.000Z</time>
      </trkpt>
      <trkpt lat="51.282286" lon="0.791667">
        <ele>47.2</ele>
        <time>2026-04-25T09:31:33.000Z</time>
      </trkpt>
      <trkpt lat="51.282157" lon="0.791372">
        <ele>47.4</ele>
        <time>2026-04-25T09:31:39.000Z</time>
      </trkpt>
      <trkpt lat="51.282123" lon="0.791197">
        <ele>47.4</ele>
        <time>2026-04-25T09:31:42.000Z</time>
      </trkpt>
      <trkpt lat="51.281986" lon="0.790821">
        <ele>47.4</ele>
        <time>2026-04-25T09:31:49.000Z</time>
      </trkpt>
      <trkpt lat="51.281819" lon="0.789941">
        <ele>47.6</ele>
        <time>2026-04-25T09:32:05.000Z</time>
      </trkpt>
      <trkpt lat="51.281655" lon="0.789529">
        <ele>48.2</ele>
        <time>2026-04-25T09:32:13.000Z</time>
      </trkpt>
      <trkpt lat="51.281374" lon="0.78867">
        <ele>48.2</ele>
        <time>2026-04-25T09:32:29.000Z</time>
      </trkpt>
      <trkpt lat="51.281251" lon="0.788102">
        <ele>48.4</ele>
        <time>2026-04-25T09:32:39.000Z</time>
      </trkpt>
      <trkpt lat="51.281146" lon="0.787744">
        <ele>48.6</ele>
        <time>2026-04-25T09:32:46.000Z</time>
      </trkpt>
      <trkpt lat="51.281069" lon="0.787276">
        <ele>48.4</ele>
        <time>2026-04-25T09:32:54.000Z</time>
      </trkpt>
      <trkpt lat="51.281036" lon="0.786942">
        <ele>48.8</ele>
        <time>2026-04-25T09:32:59.000Z</time>
      </trkpt>
      <trkpt lat="51.281073" lon="0.786633">
        <ele>49.2</ele>
        <time>2026-04-25T09:33:05.000Z</time>
      </trkpt>
      <trkpt lat="51.281348" lon="0.785303">
        <ele>50.2</ele>
        <time>2026-04-25T09:33:28.000Z</time>
      </trkpt>
      <trkpt lat="51.281506" lon="0.784443">
        <ele>50.6</ele>
        <time>2026-04-25T09:33:43.000Z</time>
      </trkpt>
      <trkpt lat="51.281778" lon="0.783233">
        <ele>51</ele>
        <time>2026-04-25T09:34:04.000Z</time>
      </trkpt>
      <trkpt lat="51.281876" lon="0.78257">
        <ele>52</ele>
        <time>2026-04-25T09:34:16.000Z</time>
      </trkpt>
      <trkpt lat="51.281906" lon="0.781712">
        <ele>52.6</ele>
        <time>2026-04-25T09:34:30.000Z</time>
      </trkpt>
      <trkpt lat="51.281909" lon="0.780755">
        <ele>53.2</ele>
        <time>2026-04-25T09:34:46.000Z</time>
      </trkpt>
      <trkpt lat="51.28195" lon="0.780175">
        <ele>54.4</ele>
        <time>2026-04-25T09:34:56.000Z</time>
      </trkpt>
      <trkpt lat="51.282007" lon="0.779739">
        <ele>54.8</ele>
        <time>2026-04-25T09:35:03.000Z</time>
      </trkpt>
      <trkpt lat="51.282059" lon="0.779114">
        <ele>55.2</ele>
        <time>2026-04-25T09:35:14.000Z</time>
      </trkpt>
      <trkpt lat="51.282089" lon="0.778538">
        <ele>55.6</ele>
        <time>2026-04-25T09:35:24.000Z</time>
      </trkpt>
      <trkpt lat="51.282118" lon="0.777144">
        <ele>56.6</ele>
        <time>2026-04-25T09:35:47.000Z</time>
      </trkpt>
      <trkpt lat="51.281996" lon="0.775798">
        <ele>57.4</ele>
        <time>2026-04-25T09:36:10.000Z</time>
      </trkpt>
      <trkpt lat="51.281868" lon="0.775169">
        <ele>57.6</ele>
        <time>2026-04-25T09:36:21.000Z</time>
      </trkpt>
      <trkpt lat="51.28175" lon="0.774719">
        <ele>57.8</ele>
        <time>2026-04-25T09:36:29.000Z</time>
      </trkpt>
      <trkpt lat="51.281657" lon="0.774278">
        <ele>58.2</ele>
        <time>2026-04-25T09:36:36.000Z</time>
      </trkpt>
      <trkpt lat="51.2815" lon="0.772871">
        <ele>59.2</ele>
        <time>2026-04-25T09:37:00.000Z</time>
      </trkpt>
      <trkpt lat="51.281382" lon="0.772254">
        <ele>59.6</ele>
        <time>2026-04-25T09:37:11.000Z</time>
      </trkpt>
      <trkpt lat="51.281211" lon="0.771108">
        <ele>61.2</ele>
        <time>2026-04-25T09:37:31.000Z</time>
      </trkpt>
      <trkpt lat="51.28107" lon="0.77031">
        <ele>62</ele>
        <time>2026-04-25T09:37:45.000Z</time>
      </trkpt>
      <trkpt lat="51.281057" lon="0.769981">
        <ele>62.2</ele>
        <time>2026-04-25T09:37:50.000Z</time>
      </trkpt>
      <trkpt lat="51.281093" lon="0.768689">
        <ele>63.2</ele>
        <time>2026-04-25T09:38:12.000Z</time>
      </trkpt>
      <trkpt lat="51.280997" lon="0.767786">
        <ele>63.2</ele>
        <time>2026-04-25T09:38:27.000Z</time>
      </trkpt>
      <trkpt lat="51.280465" lon="0.765412">
        <ele>64.6</ele>
        <time>2026-04-25T09:39:09.000Z</time>
      </trkpt>
      <trkpt lat="51.280334" lon="0.764964">
        <ele>65.2</ele>
        <time>2026-04-25T09:39:17.000Z</time>
      </trkpt>
      <trkpt lat="51.280164" lon="0.764288">
        <ele>66.2</ele>
        <time>2026-04-25T09:39:30.000Z</time>
      </trkpt>
      <trkpt lat="51.28007" lon="0.764076">
        <ele>67</ele>
        <time>2026-04-25T09:39:34.000Z</time>
      </trkpt>
      <trkpt lat="51.280032" lon="0.763942">
        <ele>67.2</ele>
        <time>2026-04-25T09:39:36.000Z</time>
      </trkpt>
      <trkpt lat="51.280011" lon="0.763784">
        <ele>67.8</ele>
        <time>2026-04-25T09:39:39.000Z</time>
      </trkpt>
      <trkpt lat="51.280005" lon="0.763514">
        <ele>67.8</ele>
        <time>2026-04-25T09:39:44.000Z</time>
      </trkpt>
      <trkpt lat="51.279888" lon="0.762893">
        <ele>68.4</ele>
        <time>2026-04-25T09:39:54.000Z</time>
      </trkpt>
      <trkpt lat="51.279781" lon="0.762459">
        <ele>69.2</ele>
        <time>2026-04-25T09:40:02.000Z</time>
      </trkpt>
      <trkpt lat="51.279647" lon="0.761727">
        <ele>70.2</ele>
        <time>2026-04-25T09:40:15.000Z</time>
      </trkpt>
      <trkpt lat="51.279431" lon="0.760745">
        <ele>71.6</ele>
        <time>2026-04-25T09:40:32.000Z</time>
      </trkpt>
      <trkpt lat="51.279334" lon="0.760179">
        <ele>71.8</ele>
        <time>2026-04-25T09:40:42.000Z</time>
      </trkpt>
      <trkpt lat="51.279233" lon="0.759737">
        <ele>72</ele>
        <time>2026-04-25T09:40:50.000Z</time>
      </trkpt>
      <trkpt lat="51.278798" lon="0.758654">
        <ele>72.2</ele>
        <time>2026-04-25T09:41:11.000Z</time>
      </trkpt>
      <trkpt lat="51.278005" lon="0.75681">
        <ele>72.4</ele>
        <time>2026-04-25T09:41:49.000Z</time>
      </trkpt>
      <trkpt lat="51.27781" lon="0.756518">
        <ele>72.4</ele>
        <time>2026-04-25T09:41:56.000Z</time>
      </trkpt>
      <trkpt lat="51.277389" lon="0.755767">
        <ele>73.6</ele>
        <time>2026-04-25T09:42:13.000Z</time>
      </trkpt>
      <trkpt lat="51.277268" lon="0.755512">
        <ele>73.8</ele>
        <time>2026-04-25T09:42:18.000Z</time>
      </trkpt>
      <trkpt lat="51.277148" lon="0.75518">
        <ele>74.4</ele>
        <time>2026-04-25T09:42:25.000Z</time>
      </trkpt>
      <trkpt lat="51.277058" lon="0.754844">
        <ele>74.8</ele>
        <time>2026-04-25T09:42:31.000Z</time>
      </trkpt>
      <trkpt lat="51.276962" lon="0.754295">
        <ele>75</ele>
        <time>2026-04-25T09:42:40.000Z</time>
      </trkpt>
      <trkpt lat="51.276689" lon="0.753157">
        <ele>75.8</ele>
        <time>2026-04-25T09:43:01.000Z</time>
      </trkpt>
      <trkpt lat="51.276602" lon="0.752725">
        <ele>76</ele>
        <time>2026-04-25T09:43:08.000Z</time>
      </trkpt>
      <trkpt lat="51.276527" lon="0.752219">
        <ele>76.4</ele>
        <time>2026-04-25T09:43:17.000Z</time>
      </trkpt>
      <trkpt lat="51.27641" lon="0.751042">
        <ele>78</ele>
        <time>2026-04-25T09:43:37.000Z</time>
      </trkpt>
      <trkpt lat="51.276219" lon="0.749953">
        <ele>78.6</ele>
        <time>2026-04-25T09:43:56.000Z</time>
      </trkpt>
      <trkpt lat="51.276074" lon="0.749555">
        <ele>78.8</ele>
        <time>2026-04-25T09:44:03.000Z</time>
      </trkpt>
      <trkpt lat="51.275981" lon="0.749365">
        <ele>78.8</ele>
        <time>2026-04-25T09:44:07.000Z</time>
      </trkpt>
      <trkpt lat="51.275881" lon="0.749202">
        <ele>79</ele>
        <time>2026-04-25T09:44:11.000Z</time>
      </trkpt>
      <trkpt lat="51.275539" lon="0.748779">
        <ele>80.2</ele>
        <time>2026-04-25T09:44:23.000Z</time>
      </trkpt>
      <trkpt lat="51.27525" lon="0.748344">
        <ele>82.2</ele>
        <time>2026-04-25T09:44:33.000Z</time>
      </trkpt>
      <trkpt lat="51.274991" lon="0.747898">
        <ele>84.8</ele>
        <time>2026-04-25T09:44:43.000Z</time>
      </trkpt>
      <trkpt lat="51.274831" lon="0.747459">
        <ele>86</ele>
        <time>2026-04-25T09:44:52.000Z</time>
      </trkpt>
      <trkpt lat="51.274783" lon="0.74707">
        <ele>86.6</ele>
        <time>2026-04-25T09:44:59.000Z</time>
      </trkpt>
      <trkpt lat="51.274729" lon="0.745851">
        <ele>86.6</ele>
        <time>2026-04-25T09:45:19.000Z</time>
      </trkpt>
      <trkpt lat="51.274713" lon="0.745679">
        <ele>86.6</ele>
        <time>2026-04-25T09:45:22.000Z</time>
      </trkpt>
      <trkpt lat="51.274655" lon="0.745378">
        <ele>86.4</ele>
        <time>2026-04-25T09:45:27.000Z</time>
      </trkpt>
      <trkpt lat="51.274461" lon="0.744691">
        <ele>86.4</ele>
        <time>2026-04-25T09:45:40.000Z</time>
      </trkpt>
      <trkpt lat="51.274323" lon="0.744083">
        <ele>87</ele>
        <time>2026-04-25T09:45:50.000Z</time>
      </trkpt>
      <trkpt lat="51.274086" lon="0.743204">
        <ele>88.4</ele>
        <time>2026-04-25T09:46:06.000Z</time>
      </trkpt>
      <trkpt lat="51.273687" lon="0.742109">
        <ele>92.4</ele>
        <time>2026-04-25T09:46:28.000Z</time>
      </trkpt>
      <trkpt lat="51.273489" lon="0.741358">
        <ele>94.2</ele>
        <time>2026-04-25T09:46:41.000Z</time>
      </trkpt>
      <trkpt lat="51.273345" lon="0.740668">
        <ele>94.8</ele>
        <time>2026-04-25T09:46:53.000Z</time>
      </trkpt>
      <trkpt lat="51.27326" lon="0.740053">
        <ele>95.4</ele>
        <time>2026-04-25T09:47:04.000Z</time>
      </trkpt>
      <trkpt lat="51.27305" lon="0.738899">
        <ele>94.4</ele>
        <time>2026-04-25T09:47:24.000Z</time>
      </trkpt>
      <trkpt lat="51.272961" lon="0.737417">
        <ele>91</ele>
        <time>2026-04-25T09:47:49.000Z</time>
      </trkpt>
      <trkpt lat="51.272848" lon="0.736713">
        <ele>90.8</ele>
        <time>2026-04-25T09:48:01.000Z</time>
      </trkpt>
      <trkpt lat="51.272793" lon="0.736116">
        <ele>91.6</ele>
        <time>2026-04-25T09:48:11.000Z</time>
      </trkpt>
      <trkpt lat="51.272796" lon="0.735497">
        <ele>92.2</ele>
        <time>2026-04-25T09:48:21.000Z</time>
      </trkpt>
      <trkpt lat="51.272907" lon="0.734844">
        <ele>93.2</ele>
        <time>2026-04-25T09:48:33.000Z</time>
      </trkpt>
      <trkpt lat="51.272947" lon="0.734192">
        <ele>94.2</ele>
        <time>2026-04-25T09:48:44.000Z</time>
      </trkpt>
      <trkpt lat="51.273017" lon="0.733592">
        <ele>95.8</ele>
        <time>2026-04-25T09:48:54.000Z</time>
      </trkpt>
      <trkpt lat="51.272987" lon="0.732878">
        <ele>97.8</ele>
        <time>2026-04-25T09:49:06.000Z</time>
      </trkpt>
      <trkpt lat="51.273017" lon="0.732007">
        <ele>99.8</ele>
        <time>2026-04-25T09:49:20.000Z</time>
      </trkpt>
      <trkpt lat="51.273011" lon="0.731663">
        <ele>99.8</ele>
        <time>2026-04-25T09:49:26.000Z</time>
      </trkpt>
      <trkpt lat="51.272944" lon="0.731087">
        <ele>99.6</ele>
        <time>2026-04-25T09:49:36.000Z</time>
      </trkpt>
      <trkpt lat="51.272762" lon="0.730134">
        <ele>97.6</ele>
        <time>2026-04-25T09:49:53.000Z</time>
      </trkpt>
      <trkpt lat="51.272687" lon="0.7299">
        <ele>97.6</ele>
        <time>2026-04-25T09:49:57.000Z</time>
      </trkpt>
      <trkpt lat="51.272644" lon="0.729819">
        <ele>97.6</ele>
        <time>2026-04-25T09:49:59.000Z</time>
      </trkpt>
      <trkpt lat="51.272496" lon="0.729325">
        <ele>97.8</ele>
        <time>2026-04-25T09:50:08.000Z</time>
      </trkpt>
      <trkpt lat="51.272303" lon="0.728325">
        <ele>98.2</ele>
        <time>2026-04-25T09:50:25.000Z</time>
      </trkpt>
      <trkpt lat="51.27228" lon="0.728063">
        <ele>98.2</ele>
        <time>2026-04-25T09:50:30.000Z</time>
      </trkpt>
      <trkpt lat="51.272277" lon="0.727731">
        <ele>98.6</ele>
        <time>2026-04-25T09:50:35.000Z</time>
      </trkpt>
      <trkpt lat="51.272354" lon="0.727138">
        <ele>100.4</ele>
        <time>2026-04-25T09:50:45.000Z</time>
      </trkpt>
      <trkpt lat="51.272335" lon="0.726908">
        <ele>101.4</ele>
        <time>2026-04-25T09:50:49.000Z</time>
      </trkpt>
      <trkpt lat="51.272373" lon="0.72623">
        <ele>105.4</ele>
        <time>2026-04-25T09:51:01.000Z</time>
      </trkpt>
      <trkpt lat="51.272344" lon="0.72594">
        <ele>106.4</ele>
        <time>2026-04-25T09:51:06.000Z</time>
      </trkpt>
      <trkpt lat="51.272344" lon="0.725741">
        <ele>106.6</ele>
        <time>2026-04-25T09:51:09.000Z</time>
      </trkpt>
      <trkpt lat="51.272092" lon="0.723986">
        <ele>103.4</ele>
        <time>2026-04-25T09:51:39.000Z</time>
      </trkpt>
      <trkpt lat="51.272034" lon="0.723722">
        <ele>103.2</ele>
        <time>2026-04-25T09:51:44.000Z</time>
      </trkpt>
      <trkpt lat="51.271855" lon="0.723295">
        <ele>104</ele>
        <time>2026-04-25T09:51:52.000Z</time>
      </trkpt>
      <trkpt lat="51.271444" lon="0.722695">
        <ele>106.4</ele>
        <time>2026-04-25T09:52:07.000Z</time>
      </trkpt>
      <trkpt lat="51.271351" lon="0.722531">
        <ele>106.6</ele>
        <time>2026-04-25T09:52:11.000Z</time>
      </trkpt>
      <trkpt lat="51.271263" lon="0.72233">
        <ele>106.8</ele>
        <time>2026-04-25T09:52:15.000Z</time>
      </trkpt>
      <trkpt lat="51.271035" lon="0.72155">
        <ele>107.8</ele>
        <time>2026-04-25T09:52:29.000Z</time>
      </trkpt>
      <trkpt lat="51.270683" lon="0.720946">
        <ele>108</ele>
        <time>2026-04-25T09:52:43.000Z</time>
      </trkpt>
      <trkpt lat="51.270544" lon="0.720641">
        <ele>108</ele>
        <time>2026-04-25T09:52:49.000Z</time>
      </trkpt>
      <trkpt lat="51.270459" lon="0.720378">
        <ele>107.8</ele>
        <time>2026-04-25T09:52:54.000Z</time>
      </trkpt>
      <trkpt lat="51.270366" lon="0.720006">
        <ele>107.8</ele>
        <time>2026-04-25T09:53:01.000Z</time>
      </trkpt>
      <trkpt lat="51.27029" lon="0.719522">
        <ele>108</ele>
        <time>2026-04-25T09:53:09.000Z</time>
      </trkpt>
      <trkpt lat="51.270284" lon="0.719123">
        <ele>108.2</ele>
        <time>2026-04-25T09:53:16.000Z</time>
      </trkpt>
      <trkpt lat="51.270342" lon="0.718502">
        <ele>108.8</ele>
        <time>2026-04-25T09:53:26.000Z</time>
      </trkpt>
      <trkpt lat="51.270355" lon="0.718163">
        <ele>109</ele>
        <time>2026-04-25T09:53:32.000Z</time>
      </trkpt>
      <trkpt lat="51.270351" lon="0.71753">
        <ele>110</ele>
        <time>2026-04-25T09:53:43.000Z</time>
      </trkpt>
      <trkpt lat="51.270311" lon="0.71709">
        <ele>112</ele>
        <time>2026-04-25T09:53:50.000Z</time>
      </trkpt>
      <trkpt lat="51.270293" lon="0.716259">
        <ele>114.8</ele>
        <time>2026-04-25T09:54:04.000Z</time>
      </trkpt>
      <trkpt lat="51.27035" lon="0.715678">
        <ele>116</ele>
        <time>2026-04-25T09:54:14.000Z</time>
      </trkpt>
      <trkpt lat="51.270405" lon="0.715302">
        <ele>116.2</ele>
        <time>2026-04-25T09:54:20.000Z</time>
      </trkpt>
      <trkpt lat="51.270483" lon="0.715041">
        <ele>116.2</ele>
        <time>2026-04-25T09:54:25.000Z</time>
      </trkpt>
      <trkpt lat="51.270682" lon="0.714629">
        <ele>115.6</ele>
        <time>2026-04-25T09:54:34.000Z</time>
      </trkpt>
      <trkpt lat="51.270865" lon="0.714337">
        <ele>115.2</ele>
        <time>2026-04-25T09:54:41.000Z</time>
      </trkpt>
      <trkpt lat="51.270982" lon="0.714033">
        <ele>115.6</ele>
        <time>2026-04-25T09:54:47.000Z</time>
      </trkpt>
      <trkpt lat="51.271021" lon="0.713883">
        <ele>115.8</ele>
        <time>2026-04-25T09:54:49.000Z</time>
      </trkpt>
      <trkpt lat="51.271069" lon="0.713531">
        <ele>116.4</ele>
        <time>2026-04-25T09:54:55.000Z</time>
      </trkpt>
      <trkpt lat="51.271096" lon="0.71327">
        <ele>117.4</ele>
        <time>2026-04-25T09:55:00.000Z</time>
      </trkpt>
      <trkpt lat="51.271102" lon="0.712993">
        <ele>118</ele>
        <time>2026-04-25T09:55:04.000Z</time>
      </trkpt>
      <trkpt lat="51.271063" lon="0.712585">
        <ele>118.8</ele>
        <time>2026-04-25T09:55:11.000Z</time>
      </trkpt>
      <trkpt lat="51.270952" lon="0.711907">
        <ele>120.6</ele>
        <time>2026-04-25T09:55:23.000Z</time>
      </trkpt>
      <trkpt lat="51.270819" lon="0.711444">
        <ele>121.8</ele>
        <time>2026-04-25T09:55:32.000Z</time>
      </trkpt>
      <trkpt lat="51.270685" lon="0.71106">
        <ele>122.6</ele>
        <time>2026-04-25T09:55:39.000Z</time>
      </trkpt>
      <trkpt lat="51.270435" lon="0.710475">
        <ele>124</ele>
        <time>2026-04-25T09:55:51.000Z</time>
      </trkpt>
      <trkpt lat="51.270305" lon="0.710121">
        <ele>124.8</ele>
        <time>2026-04-25T09:55:58.000Z</time>
      </trkpt>
      <trkpt lat="51.270118" lon="0.709394">
        <ele>125.8</ele>
        <time>2026-04-25T09:56:11.000Z</time>
      </trkpt>
      <trkpt lat="51.270052" lon="0.708859">
        <ele>126.4</ele>
        <time>2026-04-25T09:56:20.000Z</time>
      </trkpt>
      <trkpt lat="51.27003" lon="0.708078">
        <ele>127</ele>
        <time>2026-04-25T09:56:33.000Z</time>
      </trkpt>
      <trkpt lat="51.270065" lon="0.707219">
        <ele>128.4</ele>
        <time>2026-04-25T09:56:47.000Z</time>
      </trkpt>
      <trkpt lat="51.270107" lon="0.706676">
        <ele>129.6</ele>
        <time>2026-04-25T09:56:56.000Z</time>
      </trkpt>
      <trkpt lat="51.270095" lon="0.706308">
        <ele>130.4</ele>
        <time>2026-04-25T09:57:02.000Z</time>
      </trkpt>
      <trkpt lat="51.270112" lon="0.706268">
        <ele>130.6</ele>
        <time>2026-04-25T09:57:03.000Z</time>
      </trkpt>
      <trkpt lat="51.270105" lon="0.706157">
        <ele>131</ele>
        <time>2026-04-25T09:57:05.000Z</time>
      </trkpt>
      <trkpt lat="51.270146" lon="0.705629">
        <ele>132.6</ele>
        <time>2026-04-25T09:57:14.000Z</time>
      </trkpt>
      <trkpt lat="51.270271" lon="0.704802">
        <ele>135.4</ele>
        <time>2026-04-25T09:57:28.000Z</time>
      </trkpt>
      <trkpt lat="51.270322" lon="0.704239">
        <ele>136.2</ele>
        <time>2026-04-25T09:57:38.000Z</time>
      </trkpt>
      <trkpt lat="51.270314" lon="0.704091">
        <ele>136.4</ele>
        <time>2026-04-25T09:57:40.000Z</time>
      </trkpt>
      <trkpt lat="51.270237" lon="0.703596">
        <ele>136.8</ele>
        <time>2026-04-25T09:57:49.000Z</time>
      </trkpt>
      <trkpt lat="51.270186" lon="0.702703">
        <ele>137.6</ele>
        <time>2026-04-25T09:58:04.000Z</time>
      </trkpt>
      <trkpt lat="51.270127" lon="0.702382">
        <ele>138.6</ele>
        <time>2026-04-25T09:58:09.000Z</time>
      </trkpt>
      <trkpt lat="51.270079" lon="0.701977">
        <ele>139</ele>
        <time>2026-04-25T09:58:16.000Z</time>
      </trkpt>
      <trkpt lat="51.269939" lon="0.701307">
        <ele>140.4</ele>
        <time>2026-04-25T09:58:28.000Z</time>
      </trkpt>
      <trkpt lat="51.269671" lon="0.700424">
        <ele>142.8</ele>
        <time>2026-04-25T09:58:44.000Z</time>
      </trkpt>
      <trkpt lat="51.269544" lon="0.700131">
        <ele>143.6</ele>
        <time>2026-04-25T09:58:50.000Z</time>
      </trkpt>
      <trkpt lat="51.269404" lon="0.699707">
        <ele>144.6</ele>
        <time>2026-04-25T09:58:58.000Z</time>
      </trkpt>
      <trkpt lat="51.269183" lon="0.699208">
        <ele>145.8</ele>
        <time>2026-04-25T09:59:09.000Z</time>
      </trkpt>
      <trkpt lat="51.269132" lon="0.699054">
        <ele>146.2</ele>
        <time>2026-04-25T09:59:11.000Z</time>
      </trkpt>
      <trkpt lat="51.269087" lon="0.698786">
        <ele>146.4</ele>
        <time>2026-04-25T09:59:16.000Z</time>
      </trkpt>
      <trkpt lat="51.269092" lon="0.698578">
        <ele>147</ele>
        <time>2026-04-25T09:59:20.000Z</time>
      </trkpt>
      <trkpt lat="51.269204" lon="0.697979">
        <ele>149</ele>
        <time>2026-04-25T09:59:30.000Z</time>
      </trkpt>
      <trkpt lat="51.269461" lon="0.697076">
        <ele>153</ele>
        <time>2026-04-25T09:59:47.000Z</time>
      </trkpt>
      <trkpt lat="51.269471" lon="0.696979">
        <ele>153.6</ele>
        <time>2026-04-25T09:59:48.000Z</time>
      </trkpt>
      <trkpt lat="51.269707" lon="0.696049">
        <ele>156.2</ele>
        <time>2026-04-25T10:00:05.000Z</time>
      </trkpt>
      <trkpt lat="51.269793" lon="0.695626">
        <ele>157.8</ele>
        <time>2026-04-25T10:00:12.000Z</time>
      </trkpt>
      <trkpt lat="51.269876" lon="0.695096">
        <ele>160.2</ele>
        <time>2026-04-25T10:00:22.000Z</time>
      </trkpt>
      <trkpt lat="51.269939" lon="0.694236">
        <ele>162.8</ele>
        <time>2026-04-25T10:00:36.000Z</time>
      </trkpt>
      <trkpt lat="51.269988" lon="0.693822">
        <ele>163.8</ele>
        <time>2026-04-25T10:00:43.000Z</time>
      </trkpt>
      <trkpt lat="51.270131" lon="0.692955">
        <ele>165.6</ele>
        <time>2026-04-25T10:00:58.000Z</time>
      </trkpt>
      <trkpt lat="51.270178" lon="0.692365">
        <ele>166.4</ele>
        <time>2026-04-25T10:01:08.000Z</time>
      </trkpt>
      <trkpt lat="51.270376" lon="0.691486">
        <ele>168.4</ele>
        <time>2026-04-25T10:01:24.000Z</time>
      </trkpt>
      <trkpt lat="51.270516" lon="0.689682">
        <ele>172</ele>
        <time>2026-04-25T10:01:54.000Z</time>
      </trkpt>
      <trkpt lat="51.270574" lon="0.687482">
        <ele>174.2</ele>
        <time>2026-04-25T10:02:31.000Z</time>
      </trkpt>
      <trkpt lat="51.270743" lon="0.685876">
        <ele>174.4</ele>
        <time>2026-04-25T10:02:58.000Z</time>
      </trkpt>
      <trkpt lat="51.271045" lon="0.683716">
        <ele>174.8</ele>
        <time>2026-04-25T10:03:35.000Z</time>
      </trkpt>
      <trkpt lat="51.271121" lon="0.683034">
        <ele>174.8</ele>
        <time>2026-04-25T10:03:46.000Z</time>
      </trkpt>
      <trkpt lat="51.271125" lon="0.682587">
        <ele>175.2</ele>
        <time>2026-04-25T10:03:54.000Z</time>
      </trkpt>
      <trkpt lat="51.271054" lon="0.682152">
        <ele>175.4</ele>
        <time>2026-04-25T10:04:01.000Z</time>
      </trkpt>
      <trkpt lat="51.270887" lon="0.681679">
        <ele>176</ele>
        <time>2026-04-25T10:04:10.000Z</time>
      </trkpt>
      <trkpt lat="51.270668" lon="0.680963">
        <ele>177</ele>
        <time>2026-04-25T10:04:24.000Z</time>
      </trkpt>
      <trkpt lat="51.270476" lon="0.680517">
        <ele>177.6</ele>
        <time>2026-04-25T10:04:33.000Z</time>
      </trkpt>
      <trkpt lat="51.270388" lon="0.68021">
        <ele>177.6</ele>
        <time>2026-04-25T10:04:38.000Z</time>
      </trkpt>
      <trkpt lat="51.270214" lon="0.679212">
        <ele>177.4</ele>
        <time>2026-04-25T10:04:56.000Z</time>
      </trkpt>
      <trkpt lat="51.270008" lon="0.677869">
        <ele>176</ele>
        <time>2026-04-25T10:05:19.000Z</time>
      </trkpt>
      <trkpt lat="51.269878" lon="0.677158">
        <ele>176</ele>
        <time>2026-04-25T10:05:31.000Z</time>
      </trkpt>
      <trkpt lat="51.269837" lon="0.676805">
        <ele>176.2</ele>
        <time>2026-04-25T10:05:37.000Z</time>
      </trkpt>
      <trkpt lat="51.269842" lon="0.676554">
        <ele>176.6</ele>
        <time>2026-04-25T10:05:41.000Z</time>
      </trkpt>
      <trkpt lat="51.269945" lon="0.675845">
        <ele>177.4</ele>
        <time>2026-04-25T10:05:54.000Z</time>
      </trkpt>
      <trkpt lat="51.270183" lon="0.674616">
        <ele>179</ele>
        <time>2026-04-25T10:06:15.000Z</time>
      </trkpt>
      <trkpt lat="51.270176" lon="0.674362">
        <ele>179</ele>
        <time>2026-04-25T10:06:19.000Z</time>
      </trkpt>
      <trkpt lat="51.270276" lon="0.673522">
        <ele>178.8</ele>
        <time>2026-04-25T10:06:34.000Z</time>
      </trkpt>
      <trkpt lat="51.270283" lon="0.673322">
        <ele>178.8</ele>
        <time>2026-04-25T10:06:37.000Z</time>
      </trkpt>
      <trkpt lat="51.270339" lon="0.672977">
        <ele>178.8</ele>
        <time>2026-04-25T10:06:43.000Z</time>
      </trkpt>
      <trkpt lat="51.270394" lon="0.67279">
        <ele>178.6</ele>
        <time>2026-04-25T10:06:46.000Z</time>
      </trkpt>
      <trkpt lat="51.270481" lon="0.672683">
        <ele>178.2</ele>
        <time>2026-04-25T10:06:49.000Z</time>
      </trkpt>
      <trkpt lat="51.27067" lon="0.672537">
        <ele>178</ele>
        <time>2026-04-25T10:06:55.000Z</time>
      </trkpt>
      <trkpt lat="51.270777" lon="0.672399">
        <ele>177.8</ele>
        <time>2026-04-25T10:06:59.000Z</time>
      </trkpt>
      <trkpt lat="51.27132" lon="0.671197">
        <ele>175.4</ele>
        <time>2026-04-25T10:07:23.000Z</time>
      </trkpt>
      <trkpt lat="51.271512" lon="0.670731">
        <ele>175.2</ele>
        <time>2026-04-25T10:07:33.000Z</time>
      </trkpt>
      <trkpt lat="51.271975" lon="0.66977">
        <ele>175.6</ele>
        <time>2026-04-25T10:07:53.000Z</time>
      </trkpt>
      <trkpt lat="51.272076" lon="0.669491">
        <ele>175.4</ele>
        <time>2026-04-25T10:07:58.000Z</time>
      </trkpt>
      <trkpt lat="51.272411" lon="0.668695">
        <ele>175.6</ele>
        <time>2026-04-25T10:08:14.000Z</time>
      </trkpt>
      <trkpt lat="51.273437" lon="0.66668">
        <ele>177.2</ele>
        <time>2026-04-25T10:08:58.000Z</time>
      </trkpt>
      <trkpt lat="51.274101" lon="0.665412">
        <ele>176.2</ele>
        <time>2026-04-25T10:09:25.000Z</time>
      </trkpt>
      <trkpt lat="51.274376" lon="0.664793">
        <ele>175.2</ele>
        <time>2026-04-25T10:09:38.000Z</time>
      </trkpt>
      <trkpt lat="51.27499" lon="0.66329">
        <ele>175.6</ele>
        <time>2026-04-25T10:10:08.000Z</time>
      </trkpt>
      <trkpt lat="51.275275" lon="0.662782">
        <ele>176.6</ele>
        <time>2026-04-25T10:10:19.000Z</time>
      </trkpt>
      <trkpt lat="51.275693" lon="0.662126">
        <ele>177.2</ele>
        <time>2026-04-25T10:10:35.000Z</time>
      </trkpt>
      <trkpt lat="51.276006" lon="0.661552">
        <ele>177.8</ele>
        <time>2026-04-25T10:10:48.000Z</time>
      </trkpt>
      <trkpt lat="51.276239" lon="0.66099">
        <ele>177.8</ele>
        <time>2026-04-25T10:10:59.000Z</time>
      </trkpt>
      <trkpt lat="51.276405" lon="0.660419">
        <ele>177.8</ele>
        <time>2026-04-25T10:11:09.000Z</time>
      </trkpt>
      <trkpt lat="51.276444" lon="0.660215">
        <ele>177.6</ele>
        <time>2026-04-25T10:11:13.000Z</time>
      </trkpt>
      <trkpt lat="51.276529" lon="0.659454">
        <ele>177.4</ele>
        <time>2026-04-25T10:11:26.000Z</time>
      </trkpt>
      <trkpt lat="51.276563" lon="0.659338">
        <ele>177.4</ele>
        <time>2026-04-25T10:11:28.000Z</time>
      </trkpt>
      <trkpt lat="51.276543" lon="0.659298">
        <ele>177.6</ele>
        <time>2026-04-25T10:11:29.000Z</time>
      </trkpt>
      <trkpt lat="51.276521" lon="0.659295">
        <ele>177.4</ele>
        <time>2026-04-25T10:11:30.000Z</time>
      </trkpt>
      <trkpt lat="51.276499" lon="0.659331">
        <ele>177.4</ele>
        <time>2026-04-25T10:11:30.000Z</time>
      </trkpt>
      <trkpt lat="51.276491" lon="0.659181">
        <ele>177.8</ele>
        <time>2026-04-25T10:11:33.000Z</time>
      </trkpt>
      <trkpt lat="51.276495" lon="0.659376">
        <ele>177.8</ele>
        <time>2026-04-25T10:11:36.000Z</time>
      </trkpt>
      <trkpt lat="51.276491" lon="0.659315">
        <ele>177.6</ele>
        <time>2026-04-25T10:11:37.000Z</time>
      </trkpt>
      <trkpt lat="51.276465" lon="0.659256">
        <ele>177.8</ele>
        <time>2026-04-25T10:11:38.000Z</time>
      </trkpt>
      <trkpt lat="51.276357" lon="0.659082">
        <ele>177.8</ele>
        <time>2026-04-25T10:11:42.000Z</time>
      </trkpt>
      <trkpt lat="51.275595" lon="0.658208">
        <ele>178.6</ele>
        <time>2026-04-25T10:12:07.000Z</time>
      </trkpt>
      <trkpt lat="51.275324" lon="0.657959">
        <ele>178.4</ele>
        <time>2026-04-25T10:12:16.000Z</time>
      </trkpt>
      <trkpt lat="51.274926" lon="0.657531">
        <ele>179</ele>
        <time>2026-04-25T10:12:29.000Z</time>
      </trkpt>
      <trkpt lat="51.274731" lon="0.657288">
        <ele>179.2</ele>
        <time>2026-04-25T10:12:35.000Z</time>
      </trkpt>
      <trkpt lat="51.274487" lon="0.657073">
        <ele>179.2</ele>
        <time>2026-04-25T10:12:43.000Z</time>
      </trkpt>
      <trkpt lat="51.27416" lon="0.656737">
        <ele>179.6</ele>
        <time>2026-04-25T10:12:53.000Z</time>
      </trkpt>
      <trkpt lat="51.273956" lon="0.656567">
        <ele>178.8</ele>
        <time>2026-04-25T10:12:59.000Z</time>
      </trkpt>
      <trkpt lat="51.273722" lon="0.656278">
        <ele>178.4</ele>
        <time>2026-04-25T10:13:07.000Z</time>
      </trkpt>
      <trkpt lat="51.273324" lon="0.655608">
        <ele>177.4</ele>
        <time>2026-04-25T10:13:23.000Z</time>
      </trkpt>
      <trkpt lat="51.272899" lon="0.65462">
        <ele>174.4</ele>
        <time>2026-04-25T10:13:43.000Z</time>
      </trkpt>
      <trkpt lat="51.272762" lon="0.654385">
        <ele>173.4</ele>
        <time>2026-04-25T10:13:48.000Z</time>
      </trkpt>
      <trkpt lat="51.272514" lon="0.654028">
        <ele>171.2</ele>
        <time>2026-04-25T10:13:57.000Z</time>
      </trkpt>
      <trkpt lat="51.272255" lon="0.653475">
        <ele>167.6</ele>
        <time>2026-04-25T10:14:08.000Z</time>
      </trkpt>
      <trkpt lat="51.272072" lon="0.652983">
        <ele>163.4</ele>
        <time>2026-04-25T10:14:18.000Z</time>
      </trkpt>
      <trkpt lat="51.271956" lon="0.652535">
        <ele>158.8</ele>
        <time>2026-04-25T10:14:26.000Z</time>
      </trkpt>
      <trkpt lat="51.271869" lon="0.652037">
        <ele>154.4</ele>
        <time>2026-04-25T10:14:35.000Z</time>
      </trkpt>
      <trkpt lat="51.271836" lon="0.651691">
        <ele>152.2</ele>
        <time>2026-04-25T10:14:40.000Z</time>
      </trkpt>
      <trkpt lat="51.271847" lon="0.651226">
        <ele>146.8</ele>
        <time>2026-04-25T10:14:48.000Z</time>
      </trkpt>
      <trkpt lat="51.271835" lon="0.650928">
        <ele>144.4</ele>
        <time>2026-04-25T10:14:53.000Z</time>
      </trkpt>
      <trkpt lat="51.271817" lon="0.650785">
        <ele>143.6</ele>
        <time>2026-04-25T10:14:56.000Z</time>
      </trkpt>
      <trkpt lat="51.27174" lon="0.650536">
        <ele>139.8</ele>
        <time>2026-04-25T10:15:00.000Z</time>
      </trkpt>
      <trkpt lat="51.271694" lon="0.650442">
        <ele>138.4</ele>
        <time>2026-04-25T10:15:02.000Z</time>
      </trkpt>
      <trkpt lat="51.271624" lon="0.650361">
        <ele>137.6</ele>
        <time>2026-04-25T10:15:05.000Z</time>
      </trkpt>
      <trkpt lat="51.271461" lon="0.650202">
        <ele>135.4</ele>
        <time>2026-04-25T10:15:10.000Z</time>
      </trkpt>
      <trkpt lat="51.271184" lon="0.64997">
        <ele>132.8</ele>
        <time>2026-04-25T10:15:18.000Z</time>
      </trkpt>
      <trkpt lat="51.271031" lon="0.649793">
        <ele>130.4</ele>
        <time>2026-04-25T10:15:23.000Z</time>
      </trkpt>
      <trkpt lat="51.270598" lon="0.649025">
        <ele>122.4</ele>
        <time>2026-04-25T10:15:40.000Z</time>
      </trkpt>
      <trkpt lat="51.270286" lon="0.64837">
        <ele>119.2</ele>
        <time>2026-04-25T10:15:54.000Z</time>
      </trkpt>
      <trkpt lat="51.270159" lon="0.648145">
        <ele>117.6</ele>
        <time>2026-04-25T10:15:59.000Z</time>
      </trkpt>
      <trkpt lat="51.269892" lon="0.647247">
        <ele>112.6</ele>
        <time>2026-04-25T10:16:16.000Z</time>
      </trkpt>
      <trkpt lat="51.269602" lon="0.646081">
        <ele>106.6</ele>
        <time>2026-04-25T10:16:37.000Z</time>
      </trkpt>
      <trkpt lat="51.269462" lon="0.645662">
        <ele>104</ele>
        <time>2026-04-25T10:16:45.000Z</time>
      </trkpt>
      <trkpt lat="51.269211" lon="0.644997">
        <ele>98.6</ele>
        <time>2026-04-25T10:16:58.000Z</time>
      </trkpt>
      <trkpt lat="51.269024" lon="0.644661">
        <ele>95.8</ele>
        <time>2026-04-25T10:17:05.000Z</time>
      </trkpt>
      <trkpt lat="51.268896" lon="0.644474">
        <ele>93.8</ele>
        <time>2026-04-25T10:17:10.000Z</time>
      </trkpt>
      <trkpt lat="51.268465" lon="0.644068">
        <ele>89.2</ele>
        <time>2026-04-25T10:17:23.000Z</time>
      </trkpt>
      <trkpt lat="51.268141" lon="0.643673">
        <ele>86.4</ele>
        <time>2026-04-25T10:17:34.000Z</time>
      </trkpt>
      <trkpt lat="51.267961" lon="0.6434">
        <ele>84.2</ele>
        <time>2026-04-25T10:17:41.000Z</time>
      </trkpt>
      <trkpt lat="51.267776" lon="0.643194">
        <ele>81.4</ele>
        <time>2026-04-25T10:17:47.000Z</time>
      </trkpt>
      <trkpt lat="51.267745" lon="0.643095">
        <ele>80.4</ele>
        <time>2026-04-25T10:17:49.000Z</time>
      </trkpt>
      <trkpt lat="51.267763" lon="0.642993">
        <ele>79.2</ele>
        <time>2026-04-25T10:17:50.000Z</time>
      </trkpt>
      <trkpt lat="51.26819" lon="0.642172">
        <ele>77.8</ele>
        <time>2026-04-25T10:18:08.000Z</time>
      </trkpt>
      <trkpt lat="51.268697" lon="0.641262">
        <ele>81.6</ele>
        <time>2026-04-25T10:18:28.000Z</time>
      </trkpt>
      <trkpt lat="51.268907" lon="0.640935">
        <ele>83</ele>
        <time>2026-04-25T10:18:36.000Z</time>
      </trkpt>
      <trkpt lat="51.26913" lon="0.640661">
        <ele>83.8</ele>
        <time>2026-04-25T10:18:44.000Z</time>
      </trkpt>
      <trkpt lat="51.269631" lon="0.640168">
        <ele>83.2</ele>
        <time>2026-04-25T10:19:00.000Z</time>
      </trkpt>
      <trkpt lat="51.269811" lon="0.639962">
        <ele>82.2</ele>
        <time>2026-04-25T10:19:05.000Z</time>
      </trkpt>
      <trkpt lat="51.269937" lon="0.639787">
        <ele>81.8</ele>
        <time>2026-04-25T10:19:10.000Z</time>
      </trkpt>
      <trkpt lat="51.270652" lon="0.638599">
        <ele>80.6</ele>
        <time>2026-04-25T10:19:37.000Z</time>
      </trkpt>
      <trkpt lat="51.271063" lon="0.637794">
        <ele>83</ele>
        <time>2026-04-25T10:19:55.000Z</time>
      </trkpt>
      <trkpt lat="51.271261" lon="0.637493">
        <ele>84.4</ele>
        <time>2026-04-25T10:20:02.000Z</time>
      </trkpt>
      <trkpt lat="51.271514" lon="0.637173">
        <ele>85.2</ele>
        <time>2026-04-25T10:20:11.000Z</time>
      </trkpt>
      <trkpt lat="51.272021" lon="0.636597">
        <ele>84.2</ele>
        <time>2026-04-25T10:20:27.000Z</time>
      </trkpt>
      <trkpt lat="51.272626" lon="0.63577">
        <ele>82</ele>
        <time>2026-04-25T10:20:49.000Z</time>
      </trkpt>
      <trkpt lat="51.273943" lon="0.634169">
        <ele>84.2</ele>
        <time>2026-04-25T10:21:33.000Z</time>
      </trkpt>
      <trkpt lat="51.274154" lon="0.633931">
        <ele>84.8</ele>
        <time>2026-04-25T10:21:40.000Z</time>
      </trkpt>
      <trkpt lat="51.274545" lon="0.633576">
        <ele>86.2</ele>
        <time>2026-04-25T10:21:52.000Z</time>
      </trkpt>
      <trkpt lat="51.274955" lon="0.633142">
        <ele>86</ele>
        <time>2026-04-25T10:22:05.000Z</time>
      </trkpt>
      <trkpt lat="51.275482" lon="0.632561">
        <ele>85</ele>
        <time>2026-04-25T10:22:22.000Z</time>
      </trkpt>
      <trkpt lat="51.275816" lon="0.632168">
        <ele>83.6</ele>
        <time>2026-04-25T10:22:33.000Z</time>
      </trkpt>
      <trkpt lat="51.27662" lon="0.631116">
        <ele>81.4</ele>
        <time>2026-04-25T10:23:01.000Z</time>
      </trkpt>
      <trkpt lat="51.277206" lon="0.630254">
        <ele>81</ele>
        <time>2026-04-25T10:23:22.000Z</time>
      </trkpt>
      <trkpt lat="51.2775" lon="0.629746">
        <ele>81.4</ele>
        <time>2026-04-25T10:23:33.000Z</time>
      </trkpt>
      <trkpt lat="51.277659" lon="0.629398">
        <ele>81.4</ele>
        <time>2026-04-25T10:23:41.000Z</time>
      </trkpt>
      <trkpt lat="51.278326" lon="0.627759">
        <ele>82.6</ele>
        <time>2026-04-25T10:24:13.000Z</time>
      </trkpt>
      <trkpt lat="51.278872" lon="0.626566">
        <ele>84</ele>
        <time>2026-04-25T10:24:38.000Z</time>
      </trkpt>
      <trkpt lat="51.279272" lon="0.625564">
        <ele>86</ele>
        <time>2026-04-25T10:24:58.000Z</time>
      </trkpt>
      <trkpt lat="51.279414" lon="0.62512">
        <ele>86.8</ele>
        <time>2026-04-25T10:25:06.000Z</time>
      </trkpt>
      <trkpt lat="51.279444" lon="0.624947">
        <ele>86.8</ele>
        <time>2026-04-25T10:25:09.000Z</time>
      </trkpt>
      <trkpt lat="51.279482" lon="0.624493">
        <ele>86.8</ele>
        <time>2026-04-25T10:25:17.000Z</time>
      </trkpt>
      <trkpt lat="51.279532" lon="0.624276">
        <ele>86.6</ele>
        <time>2026-04-25T10:25:21.000Z</time>
      </trkpt>
      <trkpt lat="51.279623" lon="0.624015">
        <ele>86.2</ele>
        <time>2026-04-25T10:25:26.000Z</time>
      </trkpt>
      <trkpt lat="51.279859" lon="0.623567">
        <ele>84.8</ele>
        <time>2026-04-25T10:25:35.000Z</time>
      </trkpt>
      <trkpt lat="51.28043" lon="0.622624">
        <ele>85</ele>
        <time>2026-04-25T10:25:57.000Z</time>
      </trkpt>
      <trkpt lat="51.280639" lon="0.622167">
        <ele>85.2</ele>
        <time>2026-04-25T10:26:07.000Z</time>
      </trkpt>
      <trkpt lat="51.28101" lon="0.621268">
        <ele>85.2</ele>
        <time>2026-04-25T10:26:25.000Z</time>
      </trkpt>
      <trkpt lat="51.281187" lon="0.620918">
        <ele>84.8</ele>
        <time>2026-04-25T10:26:32.000Z</time>
      </trkpt>
      <trkpt lat="51.281312" lon="0.620786">
        <ele>84.6</ele>
        <time>2026-04-25T10:26:36.000Z</time>
      </trkpt>
      <trkpt lat="51.281389" lon="0.620734">
        <ele>84.6</ele>
        <time>2026-04-25T10:26:39.000Z</time>
      </trkpt>
      <trkpt lat="51.281612" lon="0.620612">
        <ele>84.4</ele>
        <time>2026-04-25T10:26:45.000Z</time>
      </trkpt>
      <trkpt lat="51.282076" lon="0.620414">
        <ele>82.6</ele>
        <time>2026-04-25T10:26:58.000Z</time>
      </trkpt>
      <trkpt lat="51.282181" lon="0.62035">
        <ele>82.4</ele>
        <time>2026-04-25T10:27:01.000Z</time>
      </trkpt>
      <trkpt lat="51.282345" lon="0.620216">
        <ele>82</ele>
        <time>2026-04-25T10:27:06.000Z</time>
      </trkpt>
      <trkpt lat="51.282538" lon="0.620005">
        <ele>81.8</ele>
        <time>2026-04-25T10:27:12.000Z</time>
      </trkpt>
      <trkpt lat="51.282807" lon="0.61962">
        <ele>82.2</ele>
        <time>2026-04-25T10:27:21.000Z</time>
      </trkpt>
      <trkpt lat="51.282974" lon="0.619413">
        <ele>83.2</ele>
        <time>2026-04-25T10:27:27.000Z</time>
      </trkpt>
      <trkpt lat="51.283139" lon="0.619179">
        <ele>85</ele>
        <time>2026-04-25T10:27:33.000Z</time>
      </trkpt>
      <trkpt lat="51.283271" lon="0.618935">
        <ele>86.4</ele>
        <time>2026-04-25T10:27:38.000Z</time>
      </trkpt>
      <trkpt lat="51.283336" lon="0.618738">
        <ele>87.8</ele>
        <time>2026-04-25T10:27:42.000Z</time>
      </trkpt>
      <trkpt lat="51.28341" lon="0.618394">
        <ele>89.8</ele>
        <time>2026-04-25T10:27:48.000Z</time>
      </trkpt>
      <trkpt lat="51.283495" lon="0.617632">
        <ele>93.4</ele>
        <time>2026-04-25T10:28:01.000Z</time>
      </trkpt>
      <trkpt lat="51.283578" lon="0.617179">
        <ele>94.8</ele>
        <time>2026-04-25T10:28:09.000Z</time>
      </trkpt>
      <trkpt lat="51.283675" lon="0.616869">
        <ele>95.8</ele>
        <time>2026-04-25T10:28:15.000Z</time>
      </trkpt>
      <trkpt lat="51.283954" lon="0.61614">
        <ele>95.8</ele>
        <time>2026-04-25T10:28:29.000Z</time>
      </trkpt>
      <trkpt lat="51.284011" lon="0.615957">
        <ele>95.4</ele>
        <time>2026-04-25T10:28:32.000Z</time>
      </trkpt>
      <trkpt lat="51.284076" lon="0.615653">
        <ele>95</ele>
        <time>2026-04-25T10:28:38.000Z</time>
      </trkpt>
      <trkpt lat="51.284113" lon="0.615257">
        <ele>94.2</ele>
        <time>2026-04-25T10:28:44.000Z</time>
      </trkpt>
      <trkpt lat="51.28413" lon="0.614385">
        <ele>93.4</ele>
        <time>2026-04-25T10:28:59.000Z</time>
      </trkpt>
      <trkpt lat="51.284216" lon="0.613809">
        <ele>93.4</ele>
        <time>2026-04-25T10:29:09.000Z</time>
      </trkpt>
      <trkpt lat="51.284337" lon="0.613469">
        <ele>93.8</ele>
        <time>2026-04-25T10:29:15.000Z</time>
      </trkpt>
      <trkpt lat="51.284527" lon="0.613119">
        <ele>94</ele>
        <time>2026-04-25T10:29:23.000Z</time>
      </trkpt>
      <trkpt lat="51.284658" lon="0.612943">
        <ele>94.2</ele>
        <time>2026-04-25T10:29:28.000Z</time>
      </trkpt>
      <trkpt lat="51.284937" lon="0.612723">
        <ele>93.8</ele>
        <time>2026-04-25T10:29:36.000Z</time>
      </trkpt>
      <trkpt lat="51.285037" lon="0.612578">
        <ele>93.6</ele>
        <time>2026-04-25T10:29:40.000Z</time>
      </trkpt>
      <trkpt lat="51.285101" lon="0.612408">
        <ele>93.4</ele>
        <time>2026-04-25T10:29:43.000Z</time>
      </trkpt>
      <trkpt lat="51.285202" lon="0.612016">
        <ele>92.8</ele>
        <time>2026-04-25T10:29:50.000Z</time>
      </trkpt>
      <trkpt lat="51.2853" lon="0.611399">
        <ele>92</ele>
        <time>2026-04-25T10:30:01.000Z</time>
      </trkpt>
      <trkpt lat="51.285343" lon="0.610862">
        <ele>91.6</ele>
        <time>2026-04-25T10:30:10.000Z</time>
      </trkpt>
      <trkpt lat="51.285347" lon="0.610416">
        <ele>91.6</ele>
        <time>2026-04-25T10:30:17.000Z</time>
      </trkpt>
      <trkpt lat="51.285325" lon="0.609732">
        <ele>92.2</ele>
        <time>2026-04-25T10:30:29.000Z</time>
      </trkpt>
      <trkpt lat="51.285368" lon="0.608757">
        <ele>94.4</ele>
        <time>2026-04-25T10:30:45.000Z</time>
      </trkpt>
      <trkpt lat="51.285469" lon="0.608267">
        <ele>95</ele>
        <time>2026-04-25T10:30:54.000Z</time>
      </trkpt>
      <trkpt lat="51.285693" lon="0.607527">
        <ele>95.6</ele>
        <time>2026-04-25T10:31:07.000Z</time>
      </trkpt>
      <trkpt lat="51.285731" lon="0.607351">
        <ele>95.6</ele>
        <time>2026-04-25T10:31:10.000Z</time>
      </trkpt>
      <trkpt lat="51.285767" lon="0.607082">
        <ele>95.6</ele>
        <time>2026-04-25T10:31:15.000Z</time>
      </trkpt>
      <trkpt lat="51.285791" lon="0.606284">
        <ele>95.2</ele>
        <time>2026-04-25T10:31:28.000Z</time>
      </trkpt>
      <trkpt lat="51.285835" lon="0.605782">
        <ele>94.4</ele>
        <time>2026-04-25T10:31:37.000Z</time>
      </trkpt>
      <trkpt lat="51.285901" lon="0.605394">
        <ele>93.6</ele>
        <time>2026-04-25T10:31:43.000Z</time>
      </trkpt>
      <trkpt lat="51.285962" lon="0.605153">
        <ele>93.2</ele>
        <time>2026-04-25T10:31:48.000Z</time>
      </trkpt>
      <trkpt lat="51.286124" lon="0.603953">
        <ele>90.4</ele>
        <time>2026-04-25T10:32:08.000Z</time>
      </trkpt>
      <trkpt lat="51.286385" lon="0.602844">
        <ele>85.6</ele>
        <time>2026-04-25T10:32:28.000Z</time>
      </trkpt>
      <trkpt lat="51.286476" lon="0.602526">
        <ele>84.4</ele>
        <time>2026-04-25T10:32:34.000Z</time>
      </trkpt>
      <trkpt lat="51.286568" lon="0.602308">
        <ele>84.2</ele>
        <time>2026-04-25T10:32:38.000Z</time>
      </trkpt>
      <trkpt lat="51.286824" lon="0.601979">
        <ele>84</ele>
        <time>2026-04-25T10:32:47.000Z</time>
      </trkpt>
      <trkpt lat="51.287027" lon="0.60164">
        <ele>83.4</ele>
        <time>2026-04-25T10:32:55.000Z</time>
      </trkpt>
      <trkpt lat="51.287337" lon="0.601061">
        <ele>83</ele>
        <time>2026-04-25T10:33:08.000Z</time>
      </trkpt>
      <trkpt lat="51.287501" lon="0.600651">
        <ele>82.8</ele>
        <time>2026-04-25T10:33:16.000Z</time>
      </trkpt>
      <trkpt lat="51.287579" lon="0.600274">
        <ele>82.8</ele>
        <time>2026-04-25T10:33:22.000Z</time>
      </trkpt>
      <trkpt lat="51.287557" lon="0.599284">
        <ele>83.6</ele>
        <time>2026-04-25T10:33:39.000Z</time>
      </trkpt>
      <trkpt lat="51.287584" lon="0.598557">
        <ele>85</ele>
        <time>2026-04-25T10:33:51.000Z</time>
      </trkpt>
      <trkpt lat="51.287656" lon="0.598127">
        <ele>85.4</ele>
        <time>2026-04-25T10:33:59.000Z</time>
      </trkpt>
      <trkpt lat="51.287799" lon="0.597647">
        <ele>85.6</ele>
        <time>2026-04-25T10:34:07.000Z</time>
      </trkpt>
      <trkpt lat="51.287932" lon="0.597344">
        <ele>85.6</ele>
        <time>2026-04-25T10:34:14.000Z</time>
      </trkpt>
      <trkpt lat="51.288264" lon="0.59675">
        <ele>85.8</ele>
        <time>2026-04-25T10:34:27.000Z</time>
      </trkpt>
      <trkpt lat="51.288411" lon="0.596539">
        <ele>85.8</ele>
        <time>2026-04-25T10:34:32.000Z</time>
      </trkpt>
      <trkpt lat="51.28882" lon="0.596042">
        <ele>84.4</ele>
        <time>2026-04-25T10:34:46.000Z</time>
      </trkpt>
      <trkpt lat="51.289011" lon="0.595715">
        <ele>83</ele>
        <time>2026-04-25T10:34:53.000Z</time>
      </trkpt>
      <trkpt lat="51.289125" lon="0.595414">
        <ele>82.4</ele>
        <time>2026-04-25T10:34:59.000Z</time>
      </trkpt>
      <trkpt lat="51.289423" lon="0.594382">
        <ele>85.6</ele>
        <time>2026-04-25T10:35:18.000Z</time>
      </trkpt>
      <trkpt lat="51.289544" lon="0.593674">
        <ele>87</ele>
        <time>2026-04-25T10:35:30.000Z</time>
      </trkpt>
      <trkpt lat="51.289758" lon="0.59294">
        <ele>87.6</ele>
        <time>2026-04-25T10:35:44.000Z</time>
      </trkpt>
      <trkpt lat="51.290143" lon="0.592098">
        <ele>88</ele>
        <time>2026-04-25T10:36:01.000Z</time>
      </trkpt>
      <trkpt lat="51.29028" lon="0.591885">
        <ele>88.8</ele>
        <time>2026-04-25T10:36:06.000Z</time>
      </trkpt>
      <trkpt lat="51.290466" lon="0.591527">
        <ele>90.6</ele>
        <time>2026-04-25T10:36:14.000Z</time>
      </trkpt>
      <trkpt lat="51.290688" lon="0.591015">
        <ele>92.8</ele>
        <time>2026-04-25T10:36:25.000Z</time>
      </trkpt>
      <trkpt lat="51.290852" lon="0.590757">
        <ele>94</ele>
        <time>2026-04-25T10:36:31.000Z</time>
      </trkpt>
      <trkpt lat="51.290957" lon="0.590646">
        <ele>95.2</ele>
        <time>2026-04-25T10:36:34.000Z</time>
      </trkpt>
      <trkpt lat="51.290988" lon="0.590579">
        <ele>95.8</ele>
        <time>2026-04-25T10:36:36.000Z</time>
      </trkpt>
      <trkpt lat="51.291115" lon="0.590411">
        <ele>97.2</ele>
        <time>2026-04-25T10:36:40.000Z</time>
      </trkpt>
      <trkpt lat="51.29115" lon="0.590299">
        <ele>97.8</ele>
        <time>2026-04-25T10:36:42.000Z</time>
      </trkpt>
      <trkpt lat="51.291379" lon="0.589768">
        <ele>100.2</ele>
        <time>2026-04-25T10:36:53.000Z</time>
      </trkpt>
      <trkpt lat="51.291414" lon="0.589504">
        <ele>101.2</ele>
        <time>2026-04-25T10:36:57.000Z</time>
      </trkpt>
      <trkpt lat="51.291411" lon="0.588976">
        <ele>101.8</ele>
        <time>2026-04-25T10:37:06.000Z</time>
      </trkpt>
      <trkpt lat="51.291372" lon="0.588691">
        <ele>101.8</ele>
        <time>2026-04-25T10:37:11.000Z</time>
      </trkpt>
      <trkpt lat="51.291376" lon="0.58849">
        <ele>101.2</ele>
        <time>2026-04-25T10:37:14.000Z</time>
      </trkpt>
      <trkpt lat="51.291521" lon="0.587908">
        <ele>98.8</ele>
        <time>2026-04-25T10:37:25.000Z</time>
      </trkpt>
      <trkpt lat="51.291646" lon="0.587529">
        <ele>97.4</ele>
        <time>2026-04-25T10:37:32.000Z</time>
      </trkpt>
      <trkpt lat="51.291807" lon="0.586876">
        <ele>94.4</ele>
        <time>2026-04-25T10:37:44.000Z</time>
      </trkpt>
      <trkpt lat="51.291965" lon="0.586337">
        <ele>93.2</ele>
        <time>2026-04-25T10:37:54.000Z</time>
      </trkpt>
      <trkpt lat="51.292162" lon="0.585788">
        <ele>92.4</ele>
        <time>2026-04-25T10:38:04.000Z</time>
      </trkpt>
      <trkpt lat="51.292536" lon="0.584606">
        <ele>91.6</ele>
        <time>2026-04-25T10:38:26.000Z</time>
      </trkpt>
      <trkpt lat="51.292742" lon="0.584019">
        <ele>92</ele>
        <time>2026-04-25T10:38:38.000Z</time>
      </trkpt>
      <trkpt lat="51.292993" lon="0.583454">
        <ele>92.2</ele>
        <time>2026-04-25T10:38:49.000Z</time>
      </trkpt>
      <trkpt lat="51.29352" lon="0.582457">
        <ele>91.8</ele>
        <time>2026-04-25T10:39:11.000Z</time>
      </trkpt>
      <trkpt lat="51.293626" lon="0.582196">
        <ele>91.6</ele>
        <time>2026-04-25T10:39:16.000Z</time>
      </trkpt>
      <trkpt lat="51.293864" lon="0.581496">
        <ele>90.6</ele>
        <time>2026-04-25T10:39:29.000Z</time>
      </trkpt>
      <trkpt lat="51.294383" lon="0.579468">
        <ele>91.2</ele>
        <time>2026-04-25T10:40:06.000Z</time>
      </trkpt>
      <trkpt lat="51.294517" lon="0.578909">
        <ele>92.6</ele>
        <time>2026-04-25T10:40:16.000Z</time>
      </trkpt>
      <trkpt lat="51.294612" lon="0.578409">
        <ele>94</ele>
        <time>2026-04-25T10:40:25.000Z</time>
      </trkpt>
      <trkpt lat="51.294645" lon="0.577752">
        <ele>95.6</ele>
        <time>2026-04-25T10:40:36.000Z</time>
      </trkpt>
      <trkpt lat="51.294608" lon="0.576528">
        <ele>95.4</ele>
        <time>2026-04-25T10:40:56.000Z</time>
      </trkpt>
      <trkpt lat="51.294625" lon="0.575996">
        <ele>94.8</ele>
        <time>2026-04-25T10:41:05.000Z</time>
      </trkpt>
      <trkpt lat="51.294716" lon="0.574936">
        <ele>93.4</ele>
        <time>2026-04-25T10:41:23.000Z</time>
      </trkpt>
      <trkpt lat="51.294869" lon="0.574141">
        <ele>93.4</ele>
        <time>2026-04-25T10:41:37.000Z</time>
      </trkpt>
      <trkpt lat="51.294912" lon="0.574005">
        <ele>93.6</ele>
        <time>2026-04-25T10:41:39.000Z</time>
      </trkpt>
      <trkpt lat="51.295168" lon="0.573419">
        <ele>94.6</ele>
        <time>2026-04-25T10:41:51.000Z</time>
      </trkpt>
      <trkpt lat="51.295332" lon="0.572922">
        <ele>96</ele>
        <time>2026-04-25T10:42:01.000Z</time>
      </trkpt>
      <trkpt lat="51.295398" lon="0.572608">
        <ele>96.8</ele>
        <time>2026-04-25T10:42:06.000Z</time>
      </trkpt>
      <trkpt lat="51.295524" lon="0.572171">
        <ele>97.6</ele>
        <time>2026-04-25T10:42:14.000Z</time>
      </trkpt>
      <trkpt lat="51.295766" lon="0.571616">
        <ele>98.8</ele>
        <time>2026-04-25T10:42:25.000Z</time>
      </trkpt>
      <trkpt lat="51.296028" lon="0.570866">
        <ele>100</ele>
        <time>2026-04-25T10:42:40.000Z</time>
      </trkpt>
      <trkpt lat="51.296131" lon="0.570684">
        <ele>100.6</ele>
        <time>2026-04-25T10:42:44.000Z</time>
      </trkpt>
      <trkpt lat="51.296175" lon="0.570692">
        <ele>100.8</ele>
        <time>2026-04-25T10:42:45.000Z</time>
      </trkpt>
      <trkpt lat="51.296218" lon="0.570725">
        <ele>101.2</ele>
        <time>2026-04-25T10:42:46.000Z</time>
      </trkpt>
      <trkpt lat="51.296253" lon="0.570724">
        <ele>101.4</ele>
        <time>2026-04-25T10:42:47.000Z</time>
      </trkpt>
      <trkpt lat="51.296296" lon="0.570685">
        <ele>101.6</ele>
        <time>2026-04-25T10:42:49.000Z</time>
      </trkpt>
      <trkpt lat="51.296322" lon="0.570611">
        <ele>102</ele>
        <time>2026-04-25T10:42:50.000Z</time>
      </trkpt>
      <trkpt lat="51.296383" lon="0.570136">
        <ele>103</ele>
        <time>2026-04-25T10:42:58.000Z</time>
      </trkpt>
      <trkpt lat="51.296437" lon="0.56991">
        <ele>103.4</ele>
        <time>2026-04-25T10:43:02.000Z</time>
      </trkpt>
      <trkpt lat="51.296458" lon="0.569643">
        <ele>103.6</ele>
        <time>2026-04-25T10:43:07.000Z</time>
      </trkpt>
      <trkpt lat="51.296453" lon="0.569124">
        <ele>104.2</ele>
        <time>2026-04-25T10:43:15.000Z</time>
      </trkpt>
      <trkpt lat="51.296336" lon="0.568279">
        <ele>108.2</ele>
        <time>2026-04-25T10:43:30.000Z</time>
      </trkpt>
      <trkpt lat="51.296378" lon="0.568229">
        <ele>109</ele>
        <time>2026-04-25T10:43:31.000Z</time>
      </trkpt>
      <trkpt lat="51.296525" lon="0.568135">
        <ele>109.6</ele>
        <time>2026-04-25T10:43:35.000Z</time>
      </trkpt>
      <trkpt lat="51.296763" lon="0.568007">
        <ele>110.2</ele>
        <time>2026-04-25T10:43:42.000Z</time>
      </trkpt>
      <trkpt lat="51.297058" lon="0.567529">
        <ele>110</ele>
        <time>2026-04-25T10:43:53.000Z</time>
      </trkpt>
      <trkpt lat="51.297109" lon="0.567492">
        <ele>109.6</ele>
        <time>2026-04-25T10:43:55.000Z</time>
      </trkpt>
      <trkpt lat="51.2971" lon="0.567544">
        <ele>108.8</ele>
        <time>2026-04-25T10:43:56.000Z</time>
      </trkpt>
      <trkpt lat="51.29698" lon="0.56778">
        <ele>107.6</ele>
        <time>2026-04-25T10:44:01.000Z</time>
      </trkpt>
      <trkpt lat="51.296917" lon="0.56787">
        <ele>106.8</ele>
        <time>2026-04-25T10:44:03.000Z</time>
      </trkpt>
      <trkpt lat="51.296861" lon="0.567905">
        <ele>105.8</ele>
        <time>2026-04-25T10:44:05.000Z</time>
      </trkpt>
      <trkpt lat="51.296794" lon="0.567854">
        <ele>105.4</ele>
        <time>2026-04-25T10:44:07.000Z</time>
      </trkpt>
      <trkpt lat="51.29677" lon="0.567806">
        <ele>105</ele>
        <time>2026-04-25T10:44:08.000Z</time>
      </trkpt>
      <trkpt lat="51.296747" lon="0.567713">
        <ele>104.6</ele>
        <time>2026-04-25T10:44:09.000Z</time>
      </trkpt>
      <trkpt lat="51.296756" lon="0.567661">
        <ele>104.4</ele>
        <time>2026-04-25T10:44:10.000Z</time>
      </trkpt>
      <trkpt lat="51.296898" lon="0.567499">
        <ele>103.6</ele>
        <time>2026-04-25T10:44:15.000Z</time>
      </trkpt>
      <trkpt lat="51.297395" lon="0.566617">
        <ele>101.6</ele>
        <time>2026-04-25T10:44:35.000Z</time>
      </trkpt>
      <trkpt lat="51.297495" lon="0.566406">
        <ele>101.2</ele>
        <time>2026-04-25T10:44:39.000Z</time>
      </trkpt>
      <trkpt lat="51.297671" lon="0.56613">
        <ele>101.2</ele>
        <time>2026-04-25T10:44:46.000Z</time>
      </trkpt>
      <trkpt lat="51.297955" lon="0.565783">
        <ele>101.2</ele>
        <time>2026-04-25T10:44:55.000Z</time>
      </trkpt>
      <trkpt lat="51.298165" lon="0.565644">
        <ele>102</ele>
        <time>2026-04-25T10:45:01.000Z</time>
      </trkpt>
      <trkpt lat="51.298314" lon="0.565509">
        <ele>102.8</ele>
        <time>2026-04-25T10:45:06.000Z</time>
      </trkpt>
      <trkpt lat="51.298355" lon="0.565448">
        <ele>103</ele>
        <time>2026-04-25T10:45:07.000Z</time>
      </trkpt>
      <trkpt lat="51.298809" lon="0.564496">
        <ele>104.4</ele>
        <time>2026-04-25T10:45:27.000Z</time>
      </trkpt>
      <trkpt lat="51.299049" lon="0.56388">
        <ele>101.6</ele>
        <time>2026-04-25T10:45:39.000Z</time>
      </trkpt>
      <trkpt lat="51.299263" lon="0.563451">
        <ele>99.4</ele>
        <time>2026-04-25T10:45:49.000Z</time>
      </trkpt>
      <trkpt lat="51.299816" lon="0.562421">
        <ele>92.8</ele>
        <time>2026-04-25T10:46:11.000Z</time>
      </trkpt>
      <trkpt lat="51.299957" lon="0.562261">
        <ele>92.8</ele>
        <time>2026-04-25T10:46:16.000Z</time>
      </trkpt>
      <trkpt lat="51.299993" lon="0.562189">
        <ele>93</ele>
        <time>2026-04-25T10:46:17.000Z</time>
      </trkpt>
      <trkpt lat="51.30022" lon="0.561931">
        <ele>93.4</ele>
        <time>2026-04-25T10:46:25.000Z</time>
      </trkpt>
      <trkpt lat="51.300288" lon="0.561822">
        <ele>93.4</ele>
        <time>2026-04-25T10:46:27.000Z</time>
      </trkpt>
      <trkpt lat="51.300738" lon="0.561283">
        <ele>92.6</ele>
        <time>2026-04-25T10:46:42.000Z</time>
      </trkpt>
      <trkpt lat="51.301005" lon="0.560884">
        <ele>90.4</ele>
        <time>2026-04-25T10:46:52.000Z</time>
      </trkpt>
      <trkpt lat="51.301219" lon="0.560484">
        <ele>88.8</ele>
        <time>2026-04-25T10:47:01.000Z</time>
      </trkpt>
      <trkpt lat="51.301295" lon="0.560267">
        <ele>88.6</ele>
        <time>2026-04-25T10:47:05.000Z</time>
      </trkpt>
      <trkpt lat="51.301541" lon="0.559749">
        <ele>88.8</ele>
        <time>2026-04-25T10:47:16.000Z</time>
      </trkpt>
      <trkpt lat="51.301608" lon="0.559552">
        <ele>89.6</ele>
        <time>2026-04-25T10:47:20.000Z</time>
      </trkpt>
      <trkpt lat="51.301757" lon="0.559267">
        <ele>90.4</ele>
        <time>2026-04-25T10:47:26.000Z</time>
      </trkpt>
      <trkpt lat="51.3019" lon="0.558946">
        <ele>91.2</ele>
        <time>2026-04-25T10:47:33.000Z</time>
      </trkpt>
      <trkpt lat="51.302133" lon="0.558331">
        <ele>91.2</ele>
        <time>2026-04-25T10:47:45.000Z</time>
      </trkpt>
      <trkpt lat="51.302182" lon="0.558117">
        <ele>91.4</ele>
        <time>2026-04-25T10:47:48.000Z</time>
      </trkpt>
      <trkpt lat="51.302408" lon="0.557368">
        <ele>94</ele>
        <time>2026-04-25T10:48:02.000Z</time>
      </trkpt>
      <trkpt lat="51.302454" lon="0.557129">
        <ele>94.2</ele>
        <time>2026-04-25T10:48:06.000Z</time>
      </trkpt>
      <trkpt lat="51.302499" lon="0.556992">
        <ele>94.4</ele>
        <time>2026-04-25T10:48:09.000Z</time>
      </trkpt>
      <trkpt lat="51.302666" lon="0.556646">
        <ele>94.8</ele>
        <time>2026-04-25T10:48:16.000Z</time>
      </trkpt>
      <trkpt lat="51.303074" lon="0.556041">
        <ele>94.2</ele>
        <time>2026-04-25T10:48:31.000Z</time>
      </trkpt>
      <trkpt lat="51.303179" lon="0.555828">
        <ele>93.4</ele>
        <time>2026-04-25T10:48:36.000Z</time>
      </trkpt>
      <trkpt lat="51.303326" lon="0.555174">
        <ele>90.4</ele>
        <time>2026-04-25T10:48:47.000Z</time>
      </trkpt>
      <trkpt lat="51.303364" lon="0.554711">
        <ele>89.6</ele>
        <time>2026-04-25T10:48:55.000Z</time>
      </trkpt>
      <trkpt lat="51.303422" lon="0.554449">
        <ele>89.6</ele>
        <time>2026-04-25T10:49:00.000Z</time>
      </trkpt>
      <trkpt lat="51.303436" lon="0.554293">
        <ele>89.6</ele>
        <time>2026-04-25T10:49:02.000Z</time>
      </trkpt>
      <trkpt lat="51.303637" lon="0.553846">
        <ele>90.4</ele>
        <time>2026-04-25T10:49:11.000Z</time>
      </trkpt>
      <trkpt lat="51.303833" lon="0.553346">
        <ele>91.6</ele>
        <time>2026-04-25T10:49:21.000Z</time>
      </trkpt>
      <trkpt lat="51.303909" lon="0.553106">
        <ele>91.8</ele>
        <time>2026-04-25T10:49:26.000Z</time>
      </trkpt>
      <trkpt lat="51.304028" lon="0.552392">
        <ele>91.2</ele>
        <time>2026-04-25T10:49:38.000Z</time>
      </trkpt>
      <trkpt lat="51.304044" lon="0.551668">
        <ele>89.2</ele>
        <time>2026-04-25T10:49:50.000Z</time>
      </trkpt>
      <trkpt lat="51.304164" lon="0.550264">
        <ele>87.4</ele>
        <time>2026-04-25T10:50:14.000Z</time>
      </trkpt>
      <trkpt lat="51.304284" lon="0.549805">
        <ele>88.4</ele>
        <time>2026-04-25T10:50:22.000Z</time>
      </trkpt>
      <trkpt lat="51.30457" lon="0.548403">
        <ele>88.8</ele>
        <time>2026-04-25T10:50:47.000Z</time>
      </trkpt>
      <trkpt lat="51.304659" lon="0.548234">
        <ele>88.8</ele>
        <time>2026-04-25T10:50:50.000Z</time>
      </trkpt>
      <trkpt lat="51.305014" lon="0.547796">
        <ele>87.2</ele>
        <time>2026-04-25T10:51:02.000Z</time>
      </trkpt>
      <trkpt lat="51.305192" lon="0.54747">
        <ele>85.4</ele>
        <time>2026-04-25T10:51:10.000Z</time>
      </trkpt>
      <trkpt lat="51.305367" lon="0.547094">
        <ele>83</ele>
        <time>2026-04-25T10:51:18.000Z</time>
      </trkpt>
      <trkpt lat="51.305589" lon="0.546545">
        <ele>79.2</ele>
        <time>2026-04-25T10:51:28.000Z</time>
      </trkpt>
      <trkpt lat="51.30589" lon="0.545926">
        <ele>75.2</ele>
        <time>2026-04-25T10:51:42.000Z</time>
      </trkpt>
      <trkpt lat="51.30603" lon="0.54556">
        <ele>74.2</ele>
        <time>2026-04-25T10:51:49.000Z</time>
      </trkpt>
      <trkpt lat="51.306097" lon="0.545336">
        <ele>74.2</ele>
        <time>2026-04-25T10:51:53.000Z</time>
      </trkpt>
      <trkpt lat="51.30619" lon="0.544903">
        <ele>75</ele>
        <time>2026-04-25T10:52:00.000Z</time>
      </trkpt>
      <trkpt lat="51.306195" lon="0.544844">
        <ele>75</ele>
        <time>2026-04-25T10:52:01.000Z</time>
      </trkpt>
      <trkpt lat="51.306175" lon="0.54479">
        <ele>75</ele>
        <time>2026-04-25T10:52:02.000Z</time>
      </trkpt>
      <trkpt lat="51.306102" lon="0.544706">
        <ele>75</ele>
        <time>2026-04-25T10:52:05.000Z</time>
      </trkpt>
      <trkpt lat="51.305819" lon="0.544509">
        <ele>74.4</ele>
        <time>2026-04-25T10:52:13.000Z</time>
      </trkpt>
      <trkpt lat="51.305708" lon="0.544392">
        <ele>74</ele>
        <time>2026-04-25T10:52:17.000Z</time>
      </trkpt>
      <trkpt lat="51.305569" lon="0.544173">
        <ele>72.8</ele>
        <time>2026-04-25T10:52:22.000Z</time>
      </trkpt>
      <trkpt lat="51.305237" lon="0.543526">
        <ele>69.2</ele>
        <time>2026-04-25T10:52:36.000Z</time>
      </trkpt>
      <trkpt lat="51.305191" lon="0.543474">
        <ele>68.6</ele>
        <time>2026-04-25T10:52:37.000Z</time>
      </trkpt>
      <trkpt lat="51.305121" lon="0.543447">
        <ele>68.4</ele>
        <time>2026-04-25T10:52:39.000Z</time>
      </trkpt>
      <trkpt lat="51.304869" lon="0.54343">
        <ele>67.8</ele>
        <time>2026-04-25T10:52:46.000Z</time>
      </trkpt>
      <trkpt lat="51.304147" lon="0.543487">
        <ele>64.4</ele>
        <time>2026-04-25T10:53:05.000Z</time>
      </trkpt>
      <trkpt lat="51.303996" lon="0.543481">
        <ele>63.2</ele>
        <time>2026-04-25T10:53:09.000Z</time>
      </trkpt>
      <trkpt lat="51.303558" lon="0.543418">
        <ele>60.2</ele>
        <time>2026-04-25T10:53:21.000Z</time>
      </trkpt>
      <trkpt lat="51.303256" lon="0.54334">
        <ele>57.4</ele>
        <time>2026-04-25T10:53:29.000Z</time>
      </trkpt>
      <trkpt lat="51.302555" lon="0.543242">
        <ele>51.2</ele>
        <time>2026-04-25T10:53:48.000Z</time>
      </trkpt>
      <trkpt lat="51.302316" lon="0.543148">
        <ele>50.6</ele>
        <time>2026-04-25T10:53:55.000Z</time>
      </trkpt>
      <trkpt lat="51.301899" lon="0.542852">
        <ele>47.8</ele>
        <time>2026-04-25T10:54:07.000Z</time>
      </trkpt>
      <trkpt lat="51.301632" lon="0.542707">
        <ele>46.2</ele>
        <time>2026-04-25T10:54:14.000Z</time>
      </trkpt>
      <trkpt lat="51.301136" lon="0.542401">
        <ele>43.6</ele>
        <time>2026-04-25T10:54:29.000Z</time>
      </trkpt>
      <trkpt lat="51.301002" lon="0.542294">
        <ele>43.2</ele>
        <time>2026-04-25T10:54:33.000Z</time>
      </trkpt>
      <trkpt lat="51.300872" lon="0.54212">
        <ele>42.8</ele>
        <time>2026-04-25T10:54:37.000Z</time>
      </trkpt>
      <trkpt lat="51.300654" lon="0.541752">
        <ele>41.6</ele>
        <time>2026-04-25T10:54:45.000Z</time>
      </trkpt>
      <trkpt lat="51.300323" lon="0.541248">
        <ele>40</ele>
        <time>2026-04-25T10:54:58.000Z</time>
      </trkpt>
      <trkpt lat="51.300224" lon="0.541062">
        <ele>39.8</ele>
        <time>2026-04-25T10:55:02.000Z</time>
      </trkpt>
      <trkpt lat="51.300051" lon="0.54064">
        <ele>37.8</ele>
        <time>2026-04-25T10:55:10.000Z</time>
      </trkpt>
      <trkpt lat="51.299729" lon="0.539631">
        <ele>35</ele>
        <time>2026-04-25T10:55:29.000Z</time>
      </trkpt>
      <trkpt lat="51.299565" lon="0.539237">
        <ele>33.8</ele>
        <time>2026-04-25T10:55:37.000Z</time>
      </trkpt>
      <trkpt lat="51.299442" lon="0.53899">
        <ele>33.2</ele>
        <time>2026-04-25T10:55:42.000Z</time>
      </trkpt>
      <trkpt lat="51.299222" lon="0.538646">
        <ele>32.8</ele>
        <time>2026-04-25T10:55:50.000Z</time>
      </trkpt>
      <trkpt lat="51.299029" lon="0.538409">
        <ele>32.8</ele>
        <time>2026-04-25T10:55:57.000Z</time>
      </trkpt>
      <trkpt lat="51.298771" lon="0.538158">
        <ele>33.2</ele>
        <time>2026-04-25T10:56:05.000Z</time>
      </trkpt>
      <trkpt lat="51.298559" lon="0.538004">
        <ele>33.8</ele>
        <time>2026-04-25T10:56:11.000Z</time>
      </trkpt>
      <trkpt lat="51.298309" lon="0.537878">
        <ele>34</ele>
        <time>2026-04-25T10:56:18.000Z</time>
      </trkpt>
      <trkpt lat="51.298029" lon="0.537783">
        <ele>34.2</ele>
        <time>2026-04-25T10:56:26.000Z</time>
      </trkpt>
      <trkpt lat="51.297696" lon="0.537763">
        <ele>33.8</ele>
        <time>2026-04-25T10:56:35.000Z</time>
      </trkpt>
      <trkpt lat="51.297325" lon="0.537815">
        <ele>32.8</ele>
        <time>2026-04-25T10:56:45.000Z</time>
      </trkpt>
      <trkpt lat="51.297038" lon="0.53793">
        <ele>31.6</ele>
        <time>2026-04-25T10:56:53.000Z</time>
      </trkpt>
      <trkpt lat="51.296857" lon="0.53804">
        <ele>31.2</ele>
        <time>2026-04-25T10:56:58.000Z</time>
      </trkpt>
      <trkpt lat="51.296086" lon="0.538669">
        <ele>26.6</ele>
        <time>2026-04-25T10:57:21.000Z</time>
      </trkpt>
      <trkpt lat="51.295634" lon="0.538952">
        <ele>23.2</ele>
        <time>2026-04-25T10:57:34.000Z</time>
      </trkpt>
      <trkpt lat="51.295384" lon="0.539075">
        <ele>22</ele>
        <time>2026-04-25T10:57:41.000Z</time>
      </trkpt>
      <trkpt lat="51.295111" lon="0.539159">
        <ele>20.2</ele>
        <time>2026-04-25T10:57:48.000Z</time>
      </trkpt>
      <trkpt lat="51.295063" lon="0.539161">
        <ele>20</ele>
        <time>2026-04-25T10:57:50.000Z</time>
      </trkpt>
      <trkpt lat="51.295022" lon="0.539139">
        <ele>20.2</ele>
        <time>2026-04-25T10:57:51.000Z</time>
      </trkpt>
      <trkpt lat="51.294973" lon="0.539034">
        <ele>19.8</ele>
        <time>2026-04-25T10:57:53.000Z</time>
      </trkpt>
      <trkpt lat="51.294835" lon="0.538331">
        <ele>19.2</ele>
        <time>2026-04-25T10:58:05.000Z</time>
      </trkpt>
      <trkpt lat="51.294751" lon="0.537176">
        <ele>18</ele>
        <time>2026-04-25T10:58:25.000Z</time>
      </trkpt>
      <trkpt lat="51.294575" lon="0.535455">
        <ele>16.2</ele>
        <time>2026-04-25T10:58:54.000Z</time>
      </trkpt>
      <trkpt lat="51.294565" lon="0.534876">
        <ele>15.4</ele>
        <time>2026-04-25T10:59:03.000Z</time>
      </trkpt>
      <trkpt lat="51.294534" lon="0.534553">
        <ele>14.6</ele>
        <time>2026-04-25T10:59:09.000Z</time>
      </trkpt>
      <trkpt lat="51.294537" lon="0.534025">
        <ele>14.2</ele>
        <time>2026-04-25T10:59:18.000Z</time>
      </trkpt>
      <trkpt lat="51.294587" lon="0.533321">
        <ele>13.8</ele>
        <time>2026-04-25T10:59:29.000Z</time>
      </trkpt>
      <trkpt lat="51.294671" lon="0.532773">
        <ele>12.8</ele>
        <time>2026-04-25T10:59:39.000Z</time>
      </trkpt>
      <trkpt lat="51.294828" lon="0.532155">
        <ele>12.8</ele>
        <time>2026-04-25T10:59:50.000Z</time>
      </trkpt>
      <trkpt lat="51.294972" lon="0.531682">
        <ele>14.4</ele>
        <time>2026-04-25T10:59:59.000Z</time>
      </trkpt>
      <trkpt lat="51.295152" lon="0.530927">
        <ele>18</ele>
        <time>2026-04-25T11:00:12.000Z</time>
      </trkpt>
      <trkpt lat="51.295305" lon="0.530496">
        <ele>20.2</ele>
        <time>2026-04-25T11:00:21.000Z</time>
      </trkpt>
      <trkpt lat="51.295522" lon="0.530018">
        <ele>22.8</ele>
        <time>2026-04-25T11:00:30.000Z</time>
      </trkpt>
      <trkpt lat="51.295646" lon="0.52968">
        <ele>23.8</ele>
        <time>2026-04-25T11:00:37.000Z</time>
      </trkpt>
      <trkpt lat="51.295841" lon="0.528927">
        <ele>25.2</ele>
        <time>2026-04-25T11:00:51.000Z</time>
      </trkpt>
      <trkpt lat="51.295974" lon="0.528543">
        <ele>25</ele>
        <time>2026-04-25T11:00:58.000Z</time>
      </trkpt>
      <trkpt lat="51.296469" lon="0.527346">
        <ele>23</ele>
        <time>2026-04-25T11:01:22.000Z</time>
      </trkpt>
      <trkpt lat="51.296799" lon="0.526614">
        <ele>20.8</ele>
        <time>2026-04-25T11:01:37.000Z</time>
      </trkpt>
      <trkpt lat="51.297126" lon="0.525994">
        <ele>18.4</ele>
        <time>2026-04-25T11:01:50.000Z</time>
      </trkpt>
      <trkpt lat="51.297559" lon="0.525313">
        <ele>15.4</ele>
        <time>2026-04-25T11:02:07.000Z</time>
      </trkpt>
      <trkpt lat="51.297894" lon="0.524721">
        <ele>13.2</ele>
        <time>2026-04-25T11:02:20.000Z</time>
      </trkpt>
      <trkpt lat="51.298321" lon="0.523757">
        <ele>10</ele>
        <time>2026-04-25T11:02:40.000Z</time>
      </trkpt>
      <trkpt lat="51.29855" lon="0.523173">
        <ele>9</ele>
        <time>2026-04-25T11:02:51.000Z</time>
      </trkpt>
      <trkpt lat="51.299002" lon="0.521883">
        <ele>8</ele>
        <time>2026-04-25T11:03:16.000Z</time>
      </trkpt>
      <trkpt lat="51.299127" lon="0.521455">
        <ele>7.6</ele>
        <time>2026-04-25T11:03:24.000Z</time>
      </trkpt>
      <trkpt lat="51.299288" lon="0.520717">
        <ele>6.2</ele>
        <time>2026-04-25T11:03:37.000Z</time>
      </trkpt>
      <trkpt lat="51.299503" lon="0.51928">
        <ele>4.8</ele>
        <time>2026-04-25T11:04:01.000Z</time>
      </trkpt>
      <trkpt lat="51.299534" lon="0.519143">
        <ele>4.4</ele>
        <time>2026-04-25T11:04:04.000Z</time>
      </trkpt>
      <trkpt lat="51.2996" lon="0.519017">
        <ele>4.4</ele>
        <time>2026-04-25T11:04:07.000Z</time>
      </trkpt>
      <trkpt lat="51.299622" lon="0.519019">
        <ele>4.2</ele>
        <time>2026-04-25T11:04:07.000Z</time>
      </trkpt>
      <trkpt lat="51.299757" lon="0.519136">
        <ele>4</ele>
        <time>2026-04-25T11:04:11.000Z</time>
      </trkpt>
      <trkpt lat="51.299917" lon="0.519349">
        <ele>4</ele>
        <time>2026-04-25T11:04:17.000Z</time>
      </trkpt>
      <trkpt lat="51.300066" lon="0.519624">
        <ele>4.4</ele>
        <time>2026-04-25T11:04:23.000Z</time>
      </trkpt>
      <trkpt lat="51.300325" lon="0.519989">
        <ele>4.8</ele>
        <time>2026-04-25T11:04:32.000Z</time>
      </trkpt>
      <trkpt lat="51.300894" lon="0.520558">
        <ele>7.2</ele>
        <time>2026-04-25T11:04:50.000Z</time>
      </trkpt>
      <trkpt lat="51.301104" lon="0.520825">
        <ele>8.4</ele>
        <time>2026-04-25T11:04:57.000Z</time>
      </trkpt>
      <trkpt lat="51.301308" lon="0.521123">
        <ele>9.8</ele>
        <time>2026-04-25T11:05:05.000Z</time>
      </trkpt>
      <trkpt lat="51.301337" lon="0.521149">
        <ele>10.4</ele>
        <time>2026-04-25T11:05:06.000Z</time>
      </trkpt>
      <trkpt lat="51.30139" lon="0.521149">
        <ele>10.6</ele>
        <time>2026-04-25T11:05:07.000Z</time>
      </trkpt>
      <trkpt lat="51.301467" lon="0.521076">
        <ele>11.4</ele>
        <time>2026-04-25T11:05:09.000Z</time>
      </trkpt>
      <trkpt lat="51.301649" lon="0.520801">
        <ele>12</ele>
        <time>2026-04-25T11:05:16.000Z</time>
      </trkpt>
      <trkpt lat="51.302486" lon="0.519636">
        <ele>14.4</ele>
        <time>2026-04-25T11:05:46.000Z</time>
      </trkpt>
      <trkpt lat="51.302831" lon="0.518963">
        <ele>18</ele>
        <time>2026-04-25T11:06:00.000Z</time>
      </trkpt>
      <trkpt lat="51.303094" lon="0.518379">
        <ele>20.2</ele>
        <time>2026-04-25T11:06:12.000Z</time>
      </trkpt>
      <trkpt lat="51.303239" lon="0.518121">
        <ele>20.8</ele>
        <time>2026-04-25T11:06:18.000Z</time>
      </trkpt>
      <trkpt lat="51.303347" lon="0.517992">
        <ele>21</ele>
        <time>2026-04-25T11:06:22.000Z</time>
      </trkpt>
      <trkpt lat="51.303464" lon="0.517892">
        <ele>21.2</ele>
        <time>2026-04-25T11:06:25.000Z</time>
      </trkpt>
      <trkpt lat="51.304031" lon="0.517515">
        <ele>22.2</ele>
        <time>2026-04-25T11:06:41.000Z</time>
      </trkpt>
      <trkpt lat="51.304153" lon="0.517359">
        <ele>22.2</ele>
        <time>2026-04-25T11:06:46.000Z</time>
      </trkpt>
      <trkpt lat="51.304224" lon="0.517239">
        <ele>22.4</ele>
        <time>2026-04-25T11:06:48.000Z</time>
      </trkpt>
      <trkpt lat="51.304357" lon="0.516956">
        <ele>22.4</ele>
        <time>2026-04-25T11:06:54.000Z</time>
      </trkpt>
      <trkpt lat="51.304444" lon="0.516711">
        <ele>22.4</ele>
        <time>2026-04-25T11:06:59.000Z</time>
      </trkpt>
      <trkpt lat="51.304724" lon="0.516071">
        <ele>22.4</ele>
        <time>2026-04-25T11:07:12.000Z</time>
      </trkpt>
      <trkpt lat="51.304834" lon="0.515709">
        <ele>22.6</ele>
        <time>2026-04-25T11:07:19.000Z</time>
      </trkpt>
      <trkpt lat="51.305066" lon="0.514664">
        <ele>24.2</ele>
        <time>2026-04-25T11:07:37.000Z</time>
      </trkpt>
      <trkpt lat="51.305192" lon="0.514325">
        <ele>24.4</ele>
        <time>2026-04-25T11:07:44.000Z</time>
      </trkpt>
      <trkpt lat="51.305252" lon="0.514212">
        <ele>24.4</ele>
        <time>2026-04-25T11:07:46.000Z</time>
      </trkpt>
      <trkpt lat="51.305312" lon="0.514145">
        <ele>24.4</ele>
        <time>2026-04-25T11:07:48.000Z</time>
      </trkpt>
      <trkpt lat="51.305354" lon="0.514123">
        <ele>24.4</ele>
        <time>2026-04-25T11:07:49.000Z</time>
      </trkpt>
      <trkpt lat="51.305429" lon="0.514125">
        <ele>24.2</ele>
        <time>2026-04-25T11:07:51.000Z</time>
      </trkpt>
      <trkpt lat="51.305674" lon="0.514183">
        <ele>24.2</ele>
        <time>2026-04-25T11:07:58.000Z</time>
      </trkpt>
      <trkpt lat="51.305965" lon="0.514189">
        <ele>24.8</ele>
        <time>2026-04-25T11:08:06.000Z</time>
      </trkpt>
      <trkpt lat="51.306254" lon="0.514224">
        <ele>26.6</ele>
        <time>2026-04-25T11:08:14.000Z</time>
      </trkpt>
      <trkpt lat="51.306501" lon="0.514266">
        <ele>28.2</ele>
        <time>2026-04-25T11:08:20.000Z</time>
      </trkpt>
      <trkpt lat="51.306626" lon="0.514311">
        <ele>29</ele>
        <time>2026-04-25T11:08:24.000Z</time>
      </trkpt>
      <trkpt lat="51.307234" lon="0.51435">
        <ele>31.8</ele>
        <time>2026-04-25T11:08:40.000Z</time>
      </trkpt>
      <trkpt lat="51.308072" lon="0.514291">
        <ele>34.4</ele>
        <time>2026-04-25T11:09:02.000Z</time>
      </trkpt>
      <trkpt lat="51.308263" lon="0.514337">
        <ele>34.6</ele>
        <time>2026-04-25T11:09:07.000Z</time>
      </trkpt>
      <trkpt lat="51.308546" lon="0.514322">
        <ele>34.6</ele>
        <time>2026-04-25T11:09:15.000Z</time>
      </trkpt>
      <trkpt lat="51.309107" lon="0.514275">
        <ele>37</ele>
        <time>2026-04-25T11:09:30.000Z</time>
      </trkpt>
      <trkpt lat="51.309149" lon="0.514267">
        <ele>37.4</ele>
        <time>2026-04-25T11:09:31.000Z</time>
      </trkpt>
      <trkpt lat="51.309176" lon="0.514227">
        <ele>37.8</ele>
        <time>2026-04-25T11:09:32.000Z</time>
      </trkpt>
      <trkpt lat="51.309213" lon="0.514207">
        <ele>38</ele>
        <time>2026-04-25T11:09:33.000Z</time>
      </trkpt>
      <trkpt lat="51.309287" lon="0.514194">
        <ele>38.2</ele>
        <time>2026-04-25T11:09:35.000Z</time>
      </trkpt>
      <trkpt lat="51.309445" lon="0.514211">
        <ele>38.8</ele>
        <time>2026-04-25T11:09:39.000Z</time>
      </trkpt>
      <trkpt lat="51.309638" lon="0.51419">
        <ele>39.4</ele>
        <time>2026-04-25T11:09:45.000Z</time>
      </trkpt>
      <trkpt lat="51.310091" lon="0.514257">
        <ele>41.6</ele>
        <time>2026-04-25T11:09:57.000Z</time>
      </trkpt>
      <trkpt lat="51.310777" lon="0.514462">
        <ele>43.6</ele>
        <time>2026-04-25T11:10:15.000Z</time>
      </trkpt>
      <trkpt lat="51.310953" lon="0.514499">
        <ele>43.6</ele>
        <time>2026-04-25T11:10:20.000Z</time>
      </trkpt>
      <trkpt lat="51.311184" lon="0.514524">
        <ele>43.8</ele>
        <time>2026-04-25T11:10:26.000Z</time>
      </trkpt>
      <trkpt lat="51.311416" lon="0.514516">
        <ele>44.2</ele>
        <time>2026-04-25T11:10:32.000Z</time>
      </trkpt>
      <trkpt lat="51.311588" lon="0.514477">
        <ele>44.4</ele>
        <time>2026-04-25T11:10:37.000Z</time>
      </trkpt>
      <trkpt lat="51.311673" lon="0.514439">
        <ele>44.4</ele>
        <time>2026-04-25T11:10:39.000Z</time>
      </trkpt>
      <trkpt lat="51.311937" lon="0.514252">
        <ele>44.6</ele>
        <time>2026-04-25T11:10:47.000Z</time>
      </trkpt>
      <trkpt lat="51.312106" lon="0.514087">
        <ele>44.6</ele>
        <time>2026-04-25T11:10:52.000Z</time>
      </trkpt>
      <trkpt lat="51.312593" lon="0.513553">
        <ele>45.8</ele>
        <time>2026-04-25T11:11:08.000Z</time>
      </trkpt>
      <trkpt lat="51.312736" lon="0.513486">
        <ele>45.8</ele>
        <time>2026-04-25T11:11:12.000Z</time>
      </trkpt>
      <trkpt lat="51.312888" lon="0.513287">
        <ele>46.6</ele>
        <time>2026-04-25T11:11:17.000Z</time>
      </trkpt>
      <trkpt lat="51.313471" lon="0.512668">
        <ele>51</ele>
        <time>2026-04-25T11:11:36.000Z</time>
      </trkpt>
      <trkpt lat="51.313779" lon="0.512315">
        <ele>53.6</ele>
        <time>2026-04-25T11:11:46.000Z</time>
      </trkpt>
      <trkpt lat="51.313931" lon="0.512174">
        <ele>55</ele>
        <time>2026-04-25T11:11:51.000Z</time>
      </trkpt>
      <trkpt lat="51.313959" lon="0.512158">
        <ele>55.4</ele>
        <time>2026-04-25T11:11:52.000Z</time>
      </trkpt>
      <trkpt lat="51.313984" lon="0.512165">
        <ele>56</ele>
        <time>2026-04-25T11:11:52.000Z</time>
      </trkpt>
      <trkpt lat="51.314161" lon="0.512565">
        <ele>57.6</ele>
        <time>2026-04-25T11:12:01.000Z</time>
      </trkpt>
      <trkpt lat="51.314201" lon="0.512599">
        <ele>57.8</ele>
        <time>2026-04-25T11:12:02.000Z</time>
      </trkpt>
      <trkpt lat="51.314219" lon="0.512588">
        <ele>58</ele>
        <time>2026-04-25T11:12:02.000Z</time>
      </trkpt>
      <trkpt lat="51.314406" lon="0.512272">
        <ele>59.4</ele>
        <time>2026-04-25T11:12:09.000Z</time>
      </trkpt>
      <trkpt lat="51.314468" lon="0.512072">
        <ele>61.4</ele>
        <time>2026-04-25T11:12:13.000Z</time>
      </trkpt>
      <trkpt lat="51.314531" lon="0.511959">
        <ele>61.4</ele>
        <time>2026-04-25T11:12:16.000Z</time>
      </trkpt>
      <trkpt lat="51.314574" lon="0.511989">
        <ele>60.2</ele>
        <time>2026-04-25T11:12:17.000Z</time>
      </trkpt>
      <trkpt lat="51.314725" lon="0.511973">
        <ele>60</ele>
        <time>2026-04-25T11:12:21.000Z</time>
      </trkpt>
      <trkpt lat="51.314785" lon="0.511924">
        <ele>59.8</ele>
        <time>2026-04-25T11:12:23.000Z</time>
      </trkpt>
      <trkpt lat="51.314829" lon="0.511855">
        <ele>59.2</ele>
        <time>2026-04-25T11:12:24.000Z</time>
      </trkpt>
      <trkpt lat="51.314847" lon="0.511682">
        <ele>58.6</ele>
        <time>2026-04-25T11:12:27.000Z</time>
      </trkpt>
      <trkpt lat="51.314813" lon="0.511469">
        <ele>58</ele>
        <time>2026-04-25T11:12:31.000Z</time>
      </trkpt>
      <trkpt lat="51.314818" lon="0.5114">
        <ele>57.8</ele>
        <time>2026-04-25T11:12:32.000Z</time>
      </trkpt>
      <trkpt lat="51.314762" lon="0.510791">
        <ele>56.2</ele>
        <time>2026-04-25T11:12:43.000Z</time>
      </trkpt>
      <trkpt lat="51.314725" lon="0.510725">
        <ele>56.2</ele>
        <time>2026-04-25T11:12:44.000Z</time>
      </trkpt>
      <trkpt lat="51.314725" lon="0.510645">
        <ele>56.2</ele>
        <time>2026-04-25T11:12:45.000Z</time>
      </trkpt>
      <trkpt lat="51.31474" lon="0.510621">
        <ele>56.2</ele>
        <time>2026-04-25T11:12:46.000Z</time>
      </trkpt>
      <trkpt lat="51.315011" lon="0.510354">
        <ele>58.2</ele>
        <time>2026-04-25T11:12:54.000Z</time>
      </trkpt>
      <trkpt lat="51.315195" lon="0.510218">
        <ele>61</ele>
        <time>2026-04-25T11:13:00.000Z</time>
      </trkpt>
      <trkpt lat="51.315394" lon="0.510015">
        <ele>63.4</ele>
        <time>2026-04-25T11:13:06.000Z</time>
      </trkpt>
      <trkpt lat="51.315443" lon="0.510015">
        <ele>63.8</ele>
        <time>2026-04-25T11:13:07.000Z</time>
      </trkpt>
      <trkpt lat="51.315563" lon="0.51006">
        <ele>64.4</ele>
        <time>2026-04-25T11:13:11.000Z</time>
      </trkpt>
      <trkpt lat="51.315648" lon="0.510057">
        <ele>64.8</ele>
        <time>2026-04-25T11:13:13.000Z</time>
      </trkpt>
      <trkpt lat="51.315845" lon="0.509944">
        <ele>66.6</ele>
        <time>2026-04-25T11:13:19.000Z</time>
      </trkpt>
      <trkpt lat="51.316861" lon="0.508827">
        <ele>66.4</ele>
        <time>2026-04-25T11:13:51.000Z</time>
      </trkpt>
      <trkpt lat="51.317311" lon="0.508259">
        <ele>65.4</ele>
        <time>2026-04-25T11:14:07.000Z</time>
      </trkpt>
      <trkpt lat="51.317516" lon="0.508026">
        <ele>66.4</ele>
        <time>2026-04-25T11:14:13.000Z</time>
      </trkpt>
      <trkpt lat="51.317973" lon="0.507594">
        <ele>71</ele>
        <time>2026-04-25T11:14:28.000Z</time>
      </trkpt>
      <trkpt lat="51.317971" lon="0.507528">
        <ele>71.2</ele>
        <time>2026-04-25T11:14:29.000Z</time>
      </trkpt>
      <trkpt lat="51.318" lon="0.50743">
        <ele>71.8</ele>
        <time>2026-04-25T11:14:31.000Z</time>
      </trkpt>
      <trkpt lat="51.317996" lon="0.507318">
        <ele>72</ele>
        <time>2026-04-25T11:14:32.000Z</time>
      </trkpt>
      <trkpt lat="51.317849" lon="0.50676">
        <ele>72.2</ele>
        <time>2026-04-25T11:14:43.000Z</time>
      </trkpt>
      <trkpt lat="51.317436" lon="0.504364">
        <ele>64</ele>
        <time>2026-04-25T11:15:24.000Z</time>
      </trkpt>
      <trkpt lat="51.317392" lon="0.503903">
        <ele>61</ele>
        <time>2026-04-25T11:15:32.000Z</time>
      </trkpt>
      <trkpt lat="51.317383" lon="0.503609">
        <ele>58.4</ele>
        <time>2026-04-25T11:15:37.000Z</time>
      </trkpt>
      <trkpt lat="51.317397" lon="0.502798">
        <ele>49.2</ele>
        <time>2026-04-25T11:15:50.000Z</time>
      </trkpt>
      <trkpt lat="51.317444" lon="0.502645">
        <ele>47.4</ele>
        <time>2026-04-25T11:15:53.000Z</time>
      </trkpt>
      <trkpt lat="51.317555" lon="0.5024">
        <ele>45.2</ele>
        <time>2026-04-25T11:15:58.000Z</time>
      </trkpt>
      <trkpt lat="51.317912" lon="0.501345">
        <ele>43.4</ele>
        <time>2026-04-25T11:16:18.000Z</time>
      </trkpt>
      <trkpt lat="51.318303" lon="0.500006">
        <ele>44.8</ele>
        <time>2026-04-25T11:16:43.000Z</time>
      </trkpt>
      <trkpt lat="51.318445" lon="0.499587">
        <ele>45</ele>
        <time>2026-04-25T11:16:51.000Z</time>
      </trkpt>
      <trkpt lat="51.318604" lon="0.499173">
        <ele>44.8</ele>
        <time>2026-04-25T11:16:59.000Z</time>
      </trkpt>
      <trkpt lat="51.319042" lon="0.498273">
        <ele>44.2</ele>
        <time>2026-04-25T11:17:18.000Z</time>
      </trkpt>
      <trkpt lat="51.319112" lon="0.49809">
        <ele>44</ele>
        <time>2026-04-25T11:17:21.000Z</time>
      </trkpt>
      <trkpt lat="51.319365" lon="0.497287">
        <ele>43.4</ele>
        <time>2026-04-25T11:17:36.000Z</time>
      </trkpt>
      <trkpt lat="51.319638" lon="0.496035">
        <ele>41.8</ele>
        <time>2026-04-25T11:17:59.000Z</time>
      </trkpt>
      <trkpt lat="51.319799" lon="0.49548">
        <ele>41.2</ele>
        <time>2026-04-25T11:18:09.000Z</time>
      </trkpt>
      <trkpt lat="51.320228" lon="0.494452">
        <ele>41.2</ele>
        <time>2026-04-25T11:18:29.000Z</time>
      </trkpt>
      <trkpt lat="51.320347" lon="0.494097">
        <ele>41</ele>
        <time>2026-04-25T11:18:36.000Z</time>
      </trkpt>
      <trkpt lat="51.32047" lon="0.493575">
        <ele>40.4</ele>
        <time>2026-04-25T11:18:45.000Z</time>
      </trkpt>
      <trkpt lat="51.320812" lon="0.491525">
        <ele>37</ele>
        <time>2026-04-25T11:19:21.000Z</time>
      </trkpt>
      <trkpt lat="51.321034" lon="0.49054">
        <ele>34.8</ele>
        <time>2026-04-25T11:19:38.000Z</time>
      </trkpt>
      <trkpt lat="51.32109" lon="0.490335">
        <ele>34.2</ele>
        <time>2026-04-25T11:19:42.000Z</time>
      </trkpt>
      <trkpt lat="51.321532" lon="0.489091">
        <ele>31.2</ele>
        <time>2026-04-25T11:20:06.000Z</time>
      </trkpt>
      <trkpt lat="51.321678" lon="0.488771">
        <ele>31</ele>
        <time>2026-04-25T11:20:13.000Z</time>
      </trkpt>
      <trkpt lat="51.32184" lon="0.48857">
        <ele>31</ele>
        <time>2026-04-25T11:20:18.000Z</time>
      </trkpt>
      <trkpt lat="51.322407" lon="0.488077">
        <ele>31.4</ele>
        <time>2026-04-25T11:20:35.000Z</time>
      </trkpt>
      <trkpt lat="51.323098" lon="0.487536">
        <ele>32</ele>
        <time>2026-04-25T11:20:56.000Z</time>
      </trkpt>
      <trkpt lat="51.32327" lon="0.487358">
        <ele>32</ele>
        <time>2026-04-25T11:21:01.000Z</time>
      </trkpt>
      <trkpt lat="51.323396" lon="0.487164">
        <ele>32.2</ele>
        <time>2026-04-25T11:21:06.000Z</time>
      </trkpt>
      <trkpt lat="51.323685" lon="0.486635">
        <ele>32.4</ele>
        <time>2026-04-25T11:21:18.000Z</time>
      </trkpt>
      <trkpt lat="51.323918" lon="0.486267">
        <ele>31.8</ele>
        <time>2026-04-25T11:21:26.000Z</time>
      </trkpt>
      <trkpt lat="51.324347" lon="0.485412">
        <ele>30.8</ele>
        <time>2026-04-25T11:21:45.000Z</time>
      </trkpt>
      <trkpt lat="51.324454" lon="0.485249">
        <ele>30.4</ele>
        <time>2026-04-25T11:21:49.000Z</time>
      </trkpt>
      <trkpt lat="51.32452" lon="0.485177">
        <ele>30</ele>
        <time>2026-04-25T11:21:51.000Z</time>
      </trkpt>
      <trkpt lat="51.324593" lon="0.485126">
        <ele>29.6</ele>
        <time>2026-04-25T11:21:53.000Z</time>
      </trkpt>
      <trkpt lat="51.324693" lon="0.485114">
        <ele>29</ele>
        <time>2026-04-25T11:21:56.000Z</time>
      </trkpt>
      <trkpt lat="51.324784" lon="0.485136">
        <ele>27.6</ele>
        <time>2026-04-25T11:21:58.000Z</time>
      </trkpt>
      <trkpt lat="51.325247" lon="0.485404">
        <ele>23.8</ele>
        <time>2026-04-25T11:22:11.000Z</time>
      </trkpt>
      <trkpt lat="51.325769" lon="0.48556">
        <ele>21.4</ele>
        <time>2026-04-25T11:22:25.000Z</time>
      </trkpt>
      <trkpt lat="51.326231" lon="0.485737">
        <ele>22.4</ele>
        <time>2026-04-25T11:22:38.000Z</time>
      </trkpt>
      <trkpt lat="51.326346" lon="0.485706">
        <ele>23.6</ele>
        <time>2026-04-25T11:22:41.000Z</time>
      </trkpt>
      <trkpt lat="51.326777" lon="0.485536">
        <ele>25.6</ele>
        <time>2026-04-25T11:22:53.000Z</time>
      </trkpt>
      <trkpt lat="51.327472" lon="0.485372">
        <ele>25.8</ele>
        <time>2026-04-25T11:23:12.000Z</time>
      </trkpt>
      <trkpt lat="51.327704" lon="0.485244">
        <ele>25.6</ele>
        <time>2026-04-25T11:23:18.000Z</time>
      </trkpt>
      <trkpt lat="51.327914" lon="0.485072">
        <ele>25.2</ele>
        <time>2026-04-25T11:23:25.000Z</time>
      </trkpt>
      <trkpt lat="51.328072" lon="0.484906">
        <ele>24.8</ele>
        <time>2026-04-25T11:23:30.000Z</time>
      </trkpt>
      <trkpt lat="51.328418" lon="0.484489">
        <ele>23.8</ele>
        <time>2026-04-25T11:23:41.000Z</time>
      </trkpt>
      <trkpt lat="51.32875" lon="0.484189">
        <ele>23.4</ele>
        <time>2026-04-25T11:23:51.000Z</time>
      </trkpt>
      <trkpt lat="51.329223" lon="0.483711">
        <ele>23</ele>
        <time>2026-04-25T11:24:06.000Z</time>
      </trkpt>
      <trkpt lat="51.329407" lon="0.483454">
        <ele>23.2</ele>
        <time>2026-04-25T11:24:13.000Z</time>
      </trkpt>
      <trkpt lat="51.330005" lon="0.482766">
        <ele>24.4</ele>
        <time>2026-04-25T11:24:32.000Z</time>
      </trkpt>
      <trkpt lat="51.330311" lon="0.482438">
        <ele>25.4</ele>
        <time>2026-04-25T11:24:42.000Z</time>
      </trkpt>
      <trkpt lat="51.330401" lon="0.482318">
        <ele>25.6</ele>
        <time>2026-04-25T11:24:45.000Z</time>
      </trkpt>
      <trkpt lat="51.330578" lon="0.482047">
        <ele>25.8</ele>
        <time>2026-04-25T11:24:52.000Z</time>
      </trkpt>
      <trkpt lat="51.330656" lon="0.481895">
        <ele>25.8</ele>
        <time>2026-04-25T11:24:55.000Z</time>
      </trkpt>
      <trkpt lat="51.331094" lon="0.480876">
        <ele>24.6</ele>
        <time>2026-04-25T11:25:16.000Z</time>
      </trkpt>
      <trkpt lat="51.331373" lon="0.48038">
        <ele>24.2</ele>
        <time>2026-04-25T11:25:27.000Z</time>
      </trkpt>
      <trkpt lat="51.331546" lon="0.480036">
        <ele>24</ele>
        <time>2026-04-25T11:25:34.000Z</time>
      </trkpt>
      <trkpt lat="51.331695" lon="0.4798">
        <ele>24.4</ele>
        <time>2026-04-25T11:25:40.000Z</time>
      </trkpt>
      <trkpt lat="51.331989" lon="0.479451">
        <ele>26</ele>
        <time>2026-04-25T11:25:50.000Z</time>
      </trkpt>
      <trkpt lat="51.332409" lon="0.479015">
        <ele>30</ele>
        <time>2026-04-25T11:26:03.000Z</time>
      </trkpt>
      <trkpt lat="51.332478" lon="0.47892">
        <ele>30.6</ele>
        <time>2026-04-25T11:26:05.000Z</time>
      </trkpt>
      <trkpt lat="51.332622" lon="0.47882">
        <ele>31.2</ele>
        <time>2026-04-25T11:26:10.000Z</time>
      </trkpt>
      <trkpt lat="51.332907" lon="0.478678">
        <ele>32.2</ele>
        <time>2026-04-25T11:26:18.000Z</time>
      </trkpt>
      <trkpt lat="51.333047" lon="0.478574">
        <ele>32.4</ele>
        <time>2026-04-25T11:26:22.000Z</time>
      </trkpt>
      <trkpt lat="51.333855" lon="0.477891">
        <ele>31.6</ele>
        <time>2026-04-25T11:26:46.000Z</time>
      </trkpt>
      <trkpt lat="51.334151" lon="0.477586">
        <ele>31</ele>
        <time>2026-04-25T11:26:56.000Z</time>
      </trkpt>
      <trkpt lat="51.334605" lon="0.476957">
        <ele>31.6</ele>
        <time>2026-04-25T11:27:12.000Z</time>
      </trkpt>
      <trkpt lat="51.334926" lon="0.476551">
        <ele>37</ele>
        <time>2026-04-25T11:27:23.000Z</time>
      </trkpt>
      <trkpt lat="51.335534" lon="0.475572">
        <ele>44.6</ele>
        <time>2026-04-25T11:27:46.000Z</time>
      </trkpt>
      <trkpt lat="51.335765" lon="0.475233">
        <ele>47.4</ele>
        <time>2026-04-25T11:27:54.000Z</time>
      </trkpt>
      <trkpt lat="51.3364" lon="0.474456">
        <ele>51.4</ele>
        <time>2026-04-25T11:28:15.000Z</time>
      </trkpt>
      <trkpt lat="51.337563" lon="0.473096">
        <ele>49.2</ele>
        <time>2026-04-25T11:28:54.000Z</time>
      </trkpt>
      <trkpt lat="51.337744" lon="0.472928">
        <ele>48.6</ele>
        <time>2026-04-25T11:28:59.000Z</time>
      </trkpt>
      <trkpt lat="51.338362" lon="0.472432">
        <ele>46.2</ele>
        <time>2026-04-25T11:29:18.000Z</time>
      </trkpt>
      <trkpt lat="51.339339" lon="0.471462">
        <ele>40.4</ele>
        <time>2026-04-25T11:29:48.000Z</time>
      </trkpt>
      <trkpt lat="51.339551" lon="0.471186">
        <ele>38.4</ele>
        <time>2026-04-25T11:29:56.000Z</time>
      </trkpt>
      <trkpt lat="51.33981" lon="0.470698">
        <ele>36.4</ele>
        <time>2026-04-25T11:30:06.000Z</time>
      </trkpt>
      <trkpt lat="51.339963" lon="0.470474">
        <ele>35.4</ele>
        <time>2026-04-25T11:30:12.000Z</time>
      </trkpt>
      <trkpt lat="51.340431" lon="0.470053">
        <ele>35</ele>
        <time>2026-04-25T11:30:26.000Z</time>
      </trkpt>
      <trkpt lat="51.34067" lon="0.469863">
        <ele>35.4</ele>
        <time>2026-04-25T11:30:33.000Z</time>
      </trkpt>
      <trkpt lat="51.34086" lon="0.469735">
        <ele>35.2</ele>
        <time>2026-04-25T11:30:39.000Z</time>
      </trkpt>
      <trkpt lat="51.340999" lon="0.469668">
        <ele>35.2</ele>
        <time>2026-04-25T11:30:43.000Z</time>
      </trkpt>
      <trkpt lat="51.34141" lon="0.469524">
        <ele>34.4</ele>
        <time>2026-04-25T11:30:54.000Z</time>
      </trkpt>
      <trkpt lat="51.341649" lon="0.469389">
        <ele>33.6</ele>
        <time>2026-04-25T11:31:01.000Z</time>
      </trkpt>
      <trkpt lat="51.342827" lon="0.46852">
        <ele>34.6</ele>
        <time>2026-04-25T11:31:35.000Z</time>
      </trkpt>
      <trkpt lat="51.3432" lon="0.468193">
        <ele>36.2</ele>
        <time>2026-04-25T11:31:47.000Z</time>
      </trkpt>
      <trkpt lat="51.343569" lon="0.467912">
        <ele>36.6</ele>
        <time>2026-04-25T11:31:58.000Z</time>
      </trkpt>
      <trkpt lat="51.343913" lon="0.467753">
        <ele>36</ele>
        <time>2026-04-25T11:32:07.000Z</time>
      </trkpt>
      <trkpt lat="51.344129" lon="0.467673">
        <ele>35.6</ele>
        <time>2026-04-25T11:32:13.000Z</time>
      </trkpt>
      <trkpt lat="51.344289" lon="0.467639">
        <ele>35.6</ele>
        <time>2026-04-25T11:32:17.000Z</time>
      </trkpt>
      <trkpt lat="51.344459" lon="0.467641">
        <ele>35.6</ele>
        <time>2026-04-25T11:32:22.000Z</time>
      </trkpt>
      <trkpt lat="51.344755" lon="0.467693">
        <ele>35.4</ele>
        <time>2026-04-25T11:32:30.000Z</time>
      </trkpt>
      <trkpt lat="51.345794" lon="0.467926">
        <ele>32.6</ele>
        <time>2026-04-25T11:32:58.000Z</time>
      </trkpt>
      <trkpt lat="51.345996" lon="0.467998">
        <ele>31.8</ele>
        <time>2026-04-25T11:33:03.000Z</time>
      </trkpt>
      <trkpt lat="51.346497" lon="0.468218">
        <ele>28</ele>
        <time>2026-04-25T11:33:17.000Z</time>
      </trkpt>
      <trkpt lat="51.346781" lon="0.468381">
        <ele>26.8</ele>
        <time>2026-04-25T11:33:25.000Z</time>
      </trkpt>
      <trkpt lat="51.3471" lon="0.468612">
        <ele>26</ele>
        <time>2026-04-25T11:33:35.000Z</time>
      </trkpt>
      <trkpt lat="51.347537" lon="0.469081">
        <ele>26.2</ele>
        <time>2026-04-25T11:33:49.000Z</time>
      </trkpt>
      <trkpt lat="51.347815" lon="0.469347">
        <ele>26.6</ele>
        <time>2026-04-25T11:33:57.000Z</time>
      </trkpt>
      <trkpt lat="51.348288" lon="0.469744">
        <ele>28.2</ele>
        <time>2026-04-25T11:34:12.000Z</time>
      </trkpt>
      <trkpt lat="51.348479" lon="0.469857">
        <ele>29</ele>
        <time>2026-04-25T11:34:17.000Z</time>
      </trkpt>
      <trkpt lat="51.348923" lon="0.470053">
        <ele>30.2</ele>
        <time>2026-04-25T11:34:29.000Z</time>
      </trkpt>
      <trkpt lat="51.349115" lon="0.470161">
        <ele>31</ele>
        <time>2026-04-25T11:34:35.000Z</time>
      </trkpt>
      <trkpt lat="51.349264" lon="0.470224">
        <ele>31.6</ele>
        <time>2026-04-25T11:34:39.000Z</time>
      </trkpt>
      <trkpt lat="51.3515" lon="0.47131">
        <ele>60.32</ele>
        <time>2026-04-25T11:35:41.000Z</time>
      </trkpt>
      <trkpt lat="51.35173" lon="0.46738">
        <ele>39.55</ele>
        <time>2026-04-25T11:36:47.000Z</time>
      </trkpt>
      <trkpt lat="51.35177" lon="0.46604">
        <ele>35.28</ele>
        <time>2026-04-25T11:37:09.000Z</time>
      </trkpt>
      <trkpt lat="51.35188" lon="0.46488">
        <ele>30.29</ele>
        <time>2026-04-25T11:37:29.000Z</time>
      </trkpt>
      <trkpt lat="51.35196" lon="0.46438">
        <ele>27.13</ele>
        <time>2026-04-25T11:37:38.000Z</time>
      </trkpt>
      <trkpt lat="51.352" lon="0.46391">
        <ele>24.69</ele>
        <time>2026-04-25T11:37:46.000Z</time>
      </trkpt>
      <trkpt lat="51.35204" lon="0.4627">
        <ele>18.64</ele>
        <time>2026-04-25T11:38:06.000Z</time>
      </trkpt>
      <trkpt lat="51.35203" lon="0.46243">
        <ele>17.23</ele>
        <time>2026-04-25T11:38:10.000Z</time>
      </trkpt>
      <trkpt lat="51.35185" lon="0.46203">
        <ele>15.52</ele>
        <time>2026-04-25T11:38:18.000Z</time>
      </trkpt>
      <trkpt lat="51.35208" lon="0.46158">
        <ele>13.3</ele>
        <time>2026-04-25T11:38:28.000Z</time>
      </trkpt>
      <trkpt lat="51.35223" lon="0.4588">
        <ele>7.42</ele>
        <time>2026-04-25T11:39:15.000Z</time>
      </trkpt>
      <trkpt lat="51.35223" lon="0.45875">
        <ele>7.34</ele>
        <time>2026-04-25T11:39:16.000Z</time>
      </trkpt>
      <trkpt lat="51.35255" lon="0.45866">
        <ele>7.39</ele>
        <time>2026-04-25T11:39:24.000Z</time>
      </trkpt>
      <trkpt lat="51.35279" lon="0.45857">
        <ele>7.28</ele>
        <time>2026-04-25T11:39:31.000Z</time>
      </trkpt>
      <trkpt lat="51.35329" lon="0.45843">
        <ele>7.12</ele>
        <time>2026-04-25T11:39:44.000Z</time>
      </trkpt>
      <trkpt lat="51.35342" lon="0.45843">
        <ele>7.12</ele>
        <time>2026-04-25T11:39:48.000Z</time>
      </trkpt>
      <trkpt lat="51.35402" lon="0.45851">
        <ele>7.21</ele>
        <time>2026-04-25T11:40:04.000Z</time>
      </trkpt>
      <trkpt lat="51.3559" lon="0.45886">
        <ele>10.09</ele>
        <time>2026-04-25T11:40:54.000Z</time>
      </trkpt>
      <trkpt lat="51.35741" lon="0.45909">
        <ele>14.6</ele>
        <time>2026-04-25T11:41:35.000Z</time>
      </trkpt>
      <trkpt lat="51.35816" lon="0.45931">
        <ele>16.31</ele>
        <time>2026-04-25T11:41:55.000Z</time>
      </trkpt>
      <trkpt lat="51.35855" lon="0.4595">
        <ele>17.04</ele>
        <time>2026-04-25T11:42:06.000Z</time>
      </trkpt>
      <trkpt lat="51.36024" lon="0.46045">
        <ele>17.35</ele>
        <time>2026-04-25T11:42:54.000Z</time>
      </trkpt>
      <trkpt lat="51.36062" lon="0.46066">
        <ele>16.51</ele>
        <time>2026-04-25T11:43:05.000Z</time>
      </trkpt>
      <trkpt lat="51.36128" lon="0.46108">
        <ele>14.15</ele>
        <time>2026-04-25T11:43:24.000Z</time>
      </trkpt>
      <trkpt lat="51.36222" lon="0.46184">
        <ele>12.09</ele>
        <time>2026-04-25T11:43:52.000Z</time>
      </trkpt>
      <trkpt lat="51.36247" lon="0.46219">
        <ele>12.33</ele>
        <time>2026-04-25T11:44:01.000Z</time>
      </trkpt>
      <trkpt lat="51.36268" lon="0.46243">
        <ele>12.42</ele>
        <time>2026-04-25T11:44:07.000Z</time>
      </trkpt>
      <trkpt lat="51.36306" lon="0.46259">
        <ele>11.91</ele>
        <time>2026-04-25T11:44:18.000Z</time>
      </trkpt>
      <trkpt lat="51.36341" lon="0.46283">
        <ele>11.61</ele>
        <time>2026-04-25T11:44:28.000Z</time>
      </trkpt>
      <trkpt lat="51.36432" lon="0.4637">
        <ele>10.89</ele>
        <time>2026-04-25T11:44:56.000Z</time>
      </trkpt>
      <trkpt lat="51.365" lon="0.46438">
        <ele>9.26</ele>
        <time>2026-04-25T11:45:18.000Z</time>
      </trkpt>
      <trkpt lat="51.3657" lon="0.46521">
        <ele>8.82</ele>
        <time>2026-04-25T11:45:41.000Z</time>
      </trkpt>
      <trkpt lat="51.36605" lon="0.46565">
        <ele>8.98</ele>
        <time>2026-04-25T11:45:53.000Z</time>
      </trkpt>
      <trkpt lat="51.36715" lon="0.46676">
        <ele>10.93</ele>
        <time>2026-04-25T11:46:28.000Z</time>
      </trkpt>
      <trkpt lat="51.36775" lon="0.46755">
        <ele>12.9</ele>
        <time>2026-04-25T11:46:48.000Z</time>
      </trkpt>
      <trkpt lat="51.36879" lon="0.46897">
        <ele>11.09</ele>
        <time>2026-04-25T11:47:25.000Z</time>
      </trkpt>
      <trkpt lat="51.36998" lon="0.47028">
        <ele>8.84</ele>
        <time>2026-04-25T11:48:03.000Z</time>
      </trkpt>
      <trkpt lat="51.37039" lon="0.47089">
        <ele>7.27</ele>
        <time>2026-04-25T11:48:18.000Z</time>
      </trkpt>
      <trkpt lat="51.37063" lon="0.47141">
        <ele>5.45</ele>
        <time>2026-04-25T11:48:29.000Z</time>
      </trkpt>
      <trkpt lat="51.37073" lon="0.47188">
        <ele>4.4</ele>
        <time>2026-04-25T11:48:37.000Z</time>
      </trkpt>
      <trkpt lat="51.37076" lon="0.47233">
        <ele>4.47</ele>
        <time>2026-04-25T11:48:45.000Z</time>
      </trkpt>
      <trkpt lat="51.37074" lon="0.47318">
        <ele>6.05</ele>
        <time>2026-04-25T11:48:59.000Z</time>
      </trkpt>
      <trkpt lat="51.37061" lon="0.4761">
        <ele>11.78</ele>
        <time>2026-04-25T11:49:48.000Z</time>
      </trkpt>
      <trkpt lat="51.37064" lon="0.47672">
        <ele>12.6</ele>
        <time>2026-04-25T11:49:58.000Z</time>
      </trkpt>
      <trkpt lat="51.37077" lon="0.47736">
        <ele>13.68</ele>
        <time>2026-04-25T11:50:09.000Z</time>
      </trkpt>
      <trkpt lat="51.37118" lon="0.47849">
        <ele>18.78</ele>
        <time>2026-04-25T11:50:31.000Z</time>
      </trkpt>
      <trkpt lat="51.37155" lon="0.47976">
        <ele>26.78</ele>
        <time>2026-04-25T11:50:55.000Z</time>
      </trkpt>
      <trkpt lat="51.3717" lon="0.48022">
        <ele>30.06</ele>
        <time>2026-04-25T11:51:03.000Z</time>
      </trkpt>
      <trkpt lat="51.37198" lon="0.48096">
        <ele>32.68</ele>
        <time>2026-04-25T11:51:18.000Z</time>
      </trkpt>
      <trkpt lat="51.37201" lon="0.480915">
        <ele>9</ele>
        <time>2026-04-25T11:51:19.097Z</time>
      </trkpt>
      <trkpt lat="51.372071" lon="0.480906">
        <ele>9.6</ele>
        <time>2026-04-25T11:51:20.097Z</time>
      </trkpt>
      <trkpt lat="51.372138" lon="0.480797">
        <ele>10</ele>
        <time>2026-04-25T11:51:23.097Z</time>
      </trkpt>
      <trkpt lat="51.3723" lon="0.4803">
        <ele>10.2</ele>
        <time>2026-04-25T11:51:32.097Z</time>
      </trkpt>
      <trkpt lat="51.372398" lon="0.480056">
        <ele>10.6</ele>
        <time>2026-04-25T11:51:37.097Z</time>
      </trkpt>
      <trkpt lat="51.372903" lon="0.479173">
        <ele>13.6</ele>
        <time>2026-04-25T11:51:57.097Z</time>
      </trkpt>
      <trkpt lat="51.373143" lon="0.478847">
        <ele>15</ele>
        <time>2026-04-25T11:52:05.097Z</time>
      </trkpt>
      <trkpt lat="51.373547" lon="0.4784">
        <ele>15.4</ele>
        <time>2026-04-25T11:52:18.097Z</time>
      </trkpt>
      <trkpt lat="51.376087" lon="0.475971">
        <ele>14.8</ele>
        <time>2026-04-25T11:53:37.097Z</time>
      </trkpt>
      <trkpt lat="51.377189" lon="0.474961">
        <ele>15</ele>
        <time>2026-04-25T11:54:11.097Z</time>
      </trkpt>
      <trkpt lat="51.378089" lon="0.474093">
        <ele>14.8</ele>
        <time>2026-04-25T11:54:39.097Z</time>
      </trkpt>
      <trkpt lat="51.378681" lon="0.47355">
        <ele>14.4</ele>
        <time>2026-04-25T11:54:58.097Z</time>
      </trkpt>
      <trkpt lat="51.379139" lon="0.473176">
        <ele>14.6</ele>
        <time>2026-04-25T11:55:11.097Z</time>
      </trkpt>
      <trkpt lat="51.380173" lon="0.472184">
        <ele>16.6</ele>
        <time>2026-04-25T11:55:43.097Z</time>
      </trkpt>
      <trkpt lat="51.380909" lon="0.471512">
        <ele>18.4</ele>
        <time>2026-04-25T11:56:06.097Z</time>
      </trkpt>
      <trkpt lat="51.381025" lon="0.471445">
        <ele>18.6</ele>
        <time>2026-04-25T11:56:09.097Z</time>
      </trkpt>
      <trkpt lat="51.381137" lon="0.471435">
        <ele>18.8</ele>
        <time>2026-04-25T11:56:12.097Z</time>
      </trkpt>
      <trkpt lat="51.381218" lon="0.47148">
        <ele>18.8</ele>
        <time>2026-04-25T11:56:15.097Z</time>
      </trkpt>
      <trkpt lat="51.381289" lon="0.471558">
        <ele>19</ele>
        <time>2026-04-25T11:56:17.097Z</time>
      </trkpt>
      <trkpt lat="51.381373" lon="0.471743">
        <ele>19.2</ele>
        <time>2026-04-25T11:56:21.097Z</time>
      </trkpt>
      <trkpt lat="51.381486" lon="0.472103">
        <ele>20</ele>
        <time>2026-04-25T11:56:27.097Z</time>
      </trkpt>
      <trkpt lat="51.3816" lon="0.472397">
        <ele>21.4</ele>
        <time>2026-04-25T11:56:33.097Z</time>
      </trkpt>
      <trkpt lat="51.381731" lon="0.472646">
        <ele>22.2</ele>
        <time>2026-04-25T11:56:39.097Z</time>
      </trkpt>
      <trkpt lat="51.381836" lon="0.472759">
        <ele>22.8</ele>
        <time>2026-04-25T11:56:42.097Z</time>
      </trkpt>
      <trkpt lat="51.381954" lon="0.472802">
        <ele>23.2</ele>
        <time>2026-04-25T11:56:45.097Z</time>
      </trkpt>
      <trkpt lat="51.382111" lon="0.472791">
        <ele>23.4</ele>
        <time>2026-04-25T11:56:49.097Z</time>
      </trkpt>
      <trkpt lat="51.382185" lon="0.47275">
        <ele>23.6</ele>
        <time>2026-04-25T11:56:52.097Z</time>
      </trkpt>
      <trkpt lat="51.382277" lon="0.472669">
        <ele>24</ele>
        <time>2026-04-25T11:56:54.097Z</time>
      </trkpt>
      <trkpt lat="51.382377" lon="0.472664">
        <ele>24.8</ele>
        <time>2026-04-25T11:56:57.097Z</time>
      </trkpt>
      <trkpt lat="51.382455" lon="0.472562">
        <ele>25.2</ele>
        <time>2026-04-25T11:57:00.097Z</time>
      </trkpt>
      <trkpt lat="51.382454" lon="0.472489">
        <ele>25.4</ele>
        <time>2026-04-25T11:57:01.097Z</time>
      </trkpt>
      <trkpt lat="51.382234" lon="0.47177">
        <ele>27.2</ele>
        <time>2026-04-25T11:57:14.097Z</time>
      </trkpt>
      <trkpt lat="51.38208" lon="0.471337">
        <ele>28.6</ele>
        <time>2026-04-25T11:57:23.097Z</time>
      </trkpt>
      <trkpt lat="51.381916" lon="0.470813">
        <ele>30</ele>
        <time>2026-04-25T11:57:32.097Z</time>
      </trkpt>
      <trkpt lat="51.381309" lon="0.469125">
        <ele>32.2</ele>
        <time>2026-04-25T11:58:05.097Z</time>
      </trkpt>
      <trkpt lat="51.381252" lon="0.469042">
        <ele>32.2</ele>
        <time>2026-04-25T11:58:07.097Z</time>
      </trkpt>
      <trkpt lat="51.381175" lon="0.468976">
        <ele>32</ele>
        <time>2026-04-25T11:58:09.097Z</time>
      </trkpt>
      <trkpt lat="51.381074" lon="0.468949">
        <ele>31.8</ele>
        <time>2026-04-25T11:58:12.097Z</time>
      </trkpt>
      <trkpt lat="51.380793" lon="0.468926">
        <ele>31.2</ele>
        <time>2026-04-25T11:58:19.097Z</time>
      </trkpt>
      <trkpt lat="51.380683" lon="0.46886">
        <ele>30.8</ele>
        <time>2026-04-25T11:58:23.097Z</time>
      </trkpt>
      <trkpt lat="51.380585" lon="0.468754">
        <ele>30.2</ele>
        <time>2026-04-25T11:58:26.097Z</time>
      </trkpt>
      <trkpt lat="51.380507" lon="0.4686">
        <ele>29</ele>
        <time>2026-04-25T11:58:29.097Z</time>
      </trkpt>
      <trkpt lat="51.380257" lon="0.467984">
        <ele>26.6</ele>
        <time>2026-04-25T11:58:41.097Z</time>
      </trkpt>
      <trkpt lat="51.379935" lon="0.467372">
        <ele>25.4</ele>
        <time>2026-04-25T11:58:55.097Z</time>
      </trkpt>
      <trkpt lat="51.379862" lon="0.466992">
        <ele>26.2</ele>
        <time>2026-04-25T11:59:01.097Z</time>
      </trkpt>
      <trkpt lat="51.379089" lon="0.466055">
        <ele>24.8</ele>
        <time>2026-04-25T11:59:27.097Z</time>
      </trkpt>
      <trkpt lat="51.378913" lon="0.465814">
        <ele>23.8</ele>
        <time>2026-04-25T11:59:33.097Z</time>
      </trkpt>
      <trkpt lat="51.378793" lon="0.465614">
        <ele>23.2</ele>
        <time>2026-04-25T11:59:38.097Z</time>
      </trkpt>
      <trkpt lat="51.378515" lon="0.465035">
        <ele>22.2</ele>
        <time>2026-04-25T11:59:50.097Z</time>
      </trkpt>
      <trkpt lat="51.377562" lon="0.462865">
        <ele>13.4</ele>
        <time>2026-04-25T12:00:34.097Z</time>
      </trkpt>
      <trkpt lat="51.376031" lon="0.459309">
        <ele>0.19999999999999</ele>
        <time>2026-04-25T12:01:46.097Z</time>
      </trkpt>
      <trkpt lat="51.375768" lon="0.458776">
        <ele>-2.6</ele>
        <time>2026-04-25T12:01:58.097Z</time>
      </trkpt>
      <trkpt lat="51.375625" lon="0.458524">
        <ele>-3.8</ele>
        <time>2026-04-25T12:02:03.097Z</time>
      </trkpt>
      <trkpt lat="51.375465" lon="0.458293">
        <ele>-4.6</ele>
        <time>2026-04-25T12:02:09.097Z</time>
      </trkpt>
      <trkpt lat="51.375283" lon="0.45811">
        <ele>-5.6</ele>
        <time>2026-04-25T12:02:15.097Z</time>
      </trkpt>
      <trkpt lat="51.375183" lon="0.458048">
        <ele>-5.8</ele>
        <time>2026-04-25T12:02:18.097Z</time>
      </trkpt>
      <trkpt lat="51.375079" lon="0.458008">
        <ele>-6.2</ele>
        <time>2026-04-25T12:02:20.097Z</time>
      </trkpt>
      <trkpt lat="51.374864" lon="0.45797">
        <ele>-7.2</ele>
        <time>2026-04-25T12:02:26.097Z</time>
      </trkpt>
      <trkpt lat="51.374547" lon="0.457946">
        <ele>-9.4</ele>
        <time>2026-04-25T12:02:35.097Z</time>
      </trkpt>
      <trkpt lat="51.374091" lon="0.457937">
        <ele>-12.4</ele>
        <time>2026-04-25T12:02:47.097Z</time>
      </trkpt>
      <trkpt lat="51.374017" lon="0.45792">
        <ele>-13</ele>
        <time>2026-04-25T12:02:49.097Z</time>
      </trkpt>
      <trkpt lat="51.373954" lon="0.45788">
        <ele>-13</ele>
        <time>2026-04-25T12:02:51.097Z</time>
      </trkpt>
      <trkpt lat="51.373905" lon="0.457815">
        <ele>-13.8</ele>
        <time>2026-04-25T12:02:52.097Z</time>
      </trkpt>
      <trkpt lat="51.373885" lon="0.457728">
        <ele>-14.4</ele>
        <time>2026-04-25T12:02:54.097Z</time>
      </trkpt>
      <trkpt lat="51.373876" lon="0.457457">
        <ele>-15</ele>
        <time>2026-04-25T12:02:58.097Z</time>
      </trkpt>
      <trkpt lat="51.37369" lon="0.456628">
        <ele>-16.4</ele>
        <time>2026-04-25T12:03:13.097Z</time>
      </trkpt>
      <trkpt lat="51.373672" lon="0.456475">
        <ele>-16.6</ele>
        <time>2026-04-25T12:03:16.097Z</time>
      </trkpt>
      <trkpt lat="51.373675" lon="0.456139">
        <ele>-16.8</ele>
        <time>2026-04-25T12:03:21.097Z</time>
      </trkpt>
      <trkpt lat="51.373738" lon="0.455532">
        <ele>-16</ele>
        <time>2026-04-25T12:03:32.097Z</time>
      </trkpt>
      <trkpt lat="51.373795" lon="0.454726">
        <ele>-15.4</ele>
        <time>2026-04-25T12:03:45.097Z</time>
      </trkpt>
      <trkpt lat="51.373899" lon="0.454051">
        <ele>-15</ele>
        <time>2026-04-25T12:03:57.097Z</time>
      </trkpt>
      <trkpt lat="51.374051" lon="0.453565">
        <ele>-14.8</ele>
        <time>2026-04-25T12:04:06.097Z</time>
      </trkpt>
      <trkpt lat="51.374219" lon="0.453077">
        <ele>-14</ele>
        <time>2026-04-25T12:04:15.097Z</time>
      </trkpt>
      <trkpt lat="51.374885" lon="0.451487">
        <ele>-12.4</ele>
        <time>2026-04-25T12:04:47.097Z</time>
      </trkpt>
      <trkpt lat="51.37501" lon="0.451266">
        <ele>-12</ele>
        <time>2026-04-25T12:04:52.097Z</time>
      </trkpt>
      <trkpt lat="51.37522" lon="0.450755">
        <ele>-11.8</ele>
        <time>2026-04-25T12:05:02.097Z</time>
      </trkpt>
      <trkpt lat="51.375338" lon="0.450544">
        <ele>-11.6</ele>
        <time>2026-04-25T12:05:07.097Z</time>
      </trkpt>
      <trkpt lat="51.375506" lon="0.450097">
        <ele>-11.2</ele>
        <time>2026-04-25T12:05:15.097Z</time>
      </trkpt>
      <trkpt lat="51.376205" lon="0.44867">
        <ele>-10.6</ele>
        <time>2026-04-25T12:05:46.097Z</time>
      </trkpt>
      <trkpt lat="51.376424" lon="0.448101">
        <ele>-10.2</ele>
        <time>2026-04-25T12:05:57.097Z</time>
      </trkpt>
      <trkpt lat="51.37679" lon="0.447305">
        <ele>-9.6</ele>
        <time>2026-04-25T12:06:13.097Z</time>
      </trkpt>
      <trkpt lat="51.376886" lon="0.447053">
        <ele>-9.4</ele>
        <time>2026-04-25T12:06:18.097Z</time>
      </trkpt>
      <trkpt lat="51.377454" lon="0.445191">
        <ele>-8</ele>
        <time>2026-04-25T12:06:53.097Z</time>
      </trkpt>
      <trkpt lat="51.377829" lon="0.443704">
        <ele>-7.6</ele>
        <time>2026-04-25T12:07:20.097Z</time>
      </trkpt>
      <trkpt lat="51.377994" lon="0.443175">
        <ele>-7.2</ele>
        <time>2026-04-25T12:07:29.097Z</time>
      </trkpt>
      <trkpt lat="51.378368" lon="0.44215">
        <ele>-6.4</ele>
        <time>2026-04-25T12:07:49.097Z</time>
      </trkpt>
      <trkpt lat="51.378534" lon="0.441618">
        <ele>-6.2</ele>
        <time>2026-04-25T12:07:59.097Z</time>
      </trkpt>
      <trkpt lat="51.378627" lon="0.441202">
        <ele>-6</ele>
        <time>2026-04-25T12:08:06.097Z</time>
      </trkpt>
      <trkpt lat="51.378823" lon="0.44015">
        <ele>-4.8</ele>
        <time>2026-04-25T12:08:25.097Z</time>
      </trkpt>
      <trkpt lat="51.378935" lon="0.439193">
        <ele>-4.2</ele>
        <time>2026-04-25T12:08:41.097Z</time>
      </trkpt>
      <trkpt lat="51.378917" lon="0.438937">
        <ele>-4</ele>
        <time>2026-04-25T12:08:45.097Z</time>
      </trkpt>
      <trkpt lat="51.3786" lon="0.437852">
        <ele>-2.8</ele>
        <time>2026-04-25T12:09:05.097Z</time>
      </trkpt>
      <trkpt lat="51.378487" lon="0.437398">
        <ele>-2.4</ele>
        <time>2026-04-25T12:09:13.097Z</time>
      </trkpt>
      <trkpt lat="51.378309" lon="0.436177">
        <ele>-2</ele>
        <time>2026-04-25T12:09:34.097Z</time>
      </trkpt>
      <trkpt lat="51.378093" lon="0.435263">
        <ele>-1.6</ele>
        <time>2026-04-25T12:09:51.097Z</time>
      </trkpt>
      <trkpt lat="51.377748" lon="0.433549">
        <ele>0.39999999999998</ele>
        <time>2026-04-25T12:10:21.097Z</time>
      </trkpt>
      <trkpt lat="51.377614" lon="0.433003">
        <ele>1.2</ele>
        <time>2026-04-25T12:10:30.097Z</time>
      </trkpt>
      <trkpt lat="51.377496" lon="0.432623">
        <ele>1.8</ele>
        <time>2026-04-25T12:10:37.097Z</time>
      </trkpt>
      <trkpt lat="51.377418" lon="0.432224">
        <ele>2.2</ele>
        <time>2026-04-25T12:10:44.097Z</time>
      </trkpt>
      <trkpt lat="51.377408" lon="0.431816">
        <ele>3.4</ele>
        <time>2026-04-25T12:10:51.097Z</time>
      </trkpt>
      <trkpt lat="51.377438" lon="0.43143">
        <ele>5.2</ele>
        <time>2026-04-25T12:10:58.097Z</time>
      </trkpt>
      <trkpt lat="51.377485" lon="0.431207">
        <ele>6.2</ele>
        <time>2026-04-25T12:11:02.097Z</time>
      </trkpt>
      <trkpt lat="51.377633" lon="0.430713">
        <ele>9</ele>
        <time>2026-04-25T12:11:11.097Z</time>
      </trkpt>
      <trkpt lat="51.37774" lon="0.43002">
        <ele>12.2</ele>
        <time>2026-04-25T12:11:23.097Z</time>
      </trkpt>
      <trkpt lat="51.377724" lon="0.429666">
        <ele>13.6</ele>
        <time>2026-04-25T12:11:28.097Z</time>
      </trkpt>
      <trkpt lat="51.377574" lon="0.42832">
        <ele>16.6</ele>
        <time>2026-04-25T12:11:51.097Z</time>
      </trkpt>
      <trkpt lat="51.377556" lon="0.427918">
        <ele>16.6</ele>
        <time>2026-04-25T12:11:58.097Z</time>
      </trkpt>
      <trkpt lat="51.377565" lon="0.427591">
        <ele>16</ele>
        <time>2026-04-25T12:12:03.097Z</time>
      </trkpt>
      <trkpt lat="51.377605" lon="0.427322">
        <ele>15.8</ele>
        <time>2026-04-25T12:12:08.097Z</time>
      </trkpt>
      <trkpt lat="51.377703" lon="0.42697">
        <ele>15.2</ele>
        <time>2026-04-25T12:12:14.097Z</time>
      </trkpt>
      <trkpt lat="51.377958" lon="0.426376">
        <ele>13.4</ele>
        <time>2026-04-25T12:12:26.097Z</time>
      </trkpt>
      <trkpt lat="51.378118" lon="0.425845">
        <ele>12</ele>
        <time>2026-04-25T12:12:36.097Z</time>
      </trkpt>
      <trkpt lat="51.378264" lon="0.425474">
        <ele>11</ele>
        <time>2026-04-25T12:12:44.097Z</time>
      </trkpt>
      <trkpt lat="51.378361" lon="0.425304">
        <ele>10.2</ele>
        <time>2026-04-25T12:12:47.097Z</time>
      </trkpt>
      <trkpt lat="51.378592" lon="0.424986">
        <ele>8.4</ele>
        <time>2026-04-25T12:12:56.097Z</time>
      </trkpt>
      <trkpt lat="51.379093" lon="0.424437">
        <ele>6.8</ele>
        <time>2026-04-25T12:13:12.097Z</time>
      </trkpt>
      <trkpt lat="51.379351" lon="0.424106">
        <ele>6.6</ele>
        <time>2026-04-25T12:13:21.097Z</time>
      </trkpt>
      <trkpt lat="51.379652" lon="0.423515">
        <ele>6.8</ele>
        <time>2026-04-25T12:13:33.097Z</time>
      </trkpt>
      <trkpt lat="51.379909" lon="0.422832">
        <ele>7.6</ele>
        <time>2026-04-25T12:13:47.097Z</time>
      </trkpt>
      <trkpt lat="51.379961" lon="0.422661">
        <ele>7.6</ele>
        <time>2026-04-25T12:13:50.097Z</time>
      </trkpt>
      <trkpt lat="51.380058" lon="0.422212">
        <ele>8</ele>
        <time>2026-04-25T12:13:58.097Z</time>
      </trkpt>
      <trkpt lat="51.38014" lon="0.42166">
        <ele>8.6</ele>
        <time>2026-04-25T12:14:07.097Z</time>
      </trkpt>
      <trkpt lat="51.38021" lon="0.420501">
        <ele>9.4</ele>
        <time>2026-04-25T12:14:27.097Z</time>
      </trkpt>
      <trkpt lat="51.380229" lon="0.419911">
        <ele>9.6</ele>
        <time>2026-04-25T12:14:36.097Z</time>
      </trkpt>
      <trkpt lat="51.380199" lon="0.419191">
        <ele>10</ele>
        <time>2026-04-25T12:14:48.097Z</time>
      </trkpt>
      <trkpt lat="51.380073" lon="0.417812">
        <ele>11.4</ele>
        <time>2026-04-25T12:15:12.097Z</time>
      </trkpt>
      <trkpt lat="51.380006" lon="0.417409">
        <ele>11.8</ele>
        <time>2026-04-25T12:15:19.097Z</time>
      </trkpt>
      <trkpt lat="51.379917" lon="0.417034">
        <ele>11.8</ele>
        <time>2026-04-25T12:15:25.097Z</time>
      </trkpt>
      <trkpt lat="51.379836" lon="0.416725">
        <ele>12.2</ele>
        <time>2026-04-25T12:15:31.097Z</time>
      </trkpt>
      <trkpt lat="51.379703" lon="0.416321">
        <ele>12.6</ele>
        <time>2026-04-25T12:15:38.097Z</time>
      </trkpt>
      <trkpt lat="51.379618" lon="0.415937">
        <ele>12.8</ele>
        <time>2026-04-25T12:15:45.097Z</time>
      </trkpt>
      <trkpt lat="51.379558" lon="0.415556">
        <ele>13.4</ele>
        <time>2026-04-25T12:15:52.097Z</time>
      </trkpt>
      <trkpt lat="51.379473" lon="0.41449">
        <ele>14.2</ele>
        <time>2026-04-25T12:16:10.097Z</time>
      </trkpt>
      <trkpt lat="51.379351" lon="0.413859">
        <ele>15</ele>
        <time>2026-04-25T12:16:21.097Z</time>
      </trkpt>
      <trkpt lat="51.379293" lon="0.413734">
        <ele>15.2</ele>
        <time>2026-04-25T12:16:23.097Z</time>
      </trkpt>
      <trkpt lat="51.379221" lon="0.413644">
        <ele>15.2</ele>
        <time>2026-04-25T12:16:26.097Z</time>
      </trkpt>
      <trkpt lat="51.378913" lon="0.413407">
        <ele>15.8</ele>
        <time>2026-04-25T12:16:35.097Z</time>
      </trkpt>
      <trkpt lat="51.378738" lon="0.413227">
        <ele>17</ele>
        <time>2026-04-25T12:16:40.097Z</time>
      </trkpt>
      <trkpt lat="51.378361" lon="0.412652">
        <ele>20.8</ele>
        <time>2026-04-25T12:16:54.097Z</time>
      </trkpt>
      <trkpt lat="51.378221" lon="0.412359">
        <ele>22.2</ele>
        <time>2026-04-25T12:17:00.097Z</time>
      </trkpt>
      <trkpt lat="51.377992" lon="0.411995">
        <ele>23.4</ele>
        <time>2026-04-25T12:17:09.097Z</time>
      </trkpt>
      <trkpt lat="51.37786" lon="0.411864">
        <ele>23.8</ele>
        <time>2026-04-25T12:17:13.097Z</time>
      </trkpt>
      <trkpt lat="51.377783" lon="0.411809">
        <ele>24.4</ele>
        <time>2026-04-25T12:17:15.097Z</time>
      </trkpt>
      <trkpt lat="51.377727" lon="0.411795">
        <ele>25</ele>
        <time>2026-04-25T12:17:17.097Z</time>
      </trkpt>
      <trkpt lat="51.377607" lon="0.411708">
        <ele>26</ele>
        <time>2026-04-25T12:17:20.097Z</time>
      </trkpt>
      <trkpt lat="51.37738" lon="0.411443">
        <ele>26.4</ele>
        <time>2026-04-25T12:17:28.097Z</time>
      </trkpt>
      <trkpt lat="51.377285" lon="0.411262">
        <ele>26.4</ele>
        <time>2026-04-25T12:17:32.097Z</time>
      </trkpt>
      <trkpt lat="51.377215" lon="0.411028">
        <ele>26.2</ele>
        <time>2026-04-25T12:17:36.097Z</time>
      </trkpt>
      <trkpt lat="51.3771" lon="0.41018">
        <ele>24.4</ele>
        <time>2026-04-25T12:17:51.097Z</time>
      </trkpt>
      <trkpt lat="51.37703" lon="0.409924">
        <ele>23.4</ele>
        <time>2026-04-25T12:17:55.097Z</time>
      </trkpt>
      <trkpt lat="51.37693" lon="0.409752">
        <ele>22.8</ele>
        <time>2026-04-25T12:17:59.097Z</time>
      </trkpt>
      <trkpt lat="51.376506" lon="0.409337">
        <ele>20.8</ele>
        <time>2026-04-25T12:18:13.097Z</time>
      </trkpt>
      <trkpt lat="51.376369" lon="0.40906">
        <ele>22.2</ele>
        <time>2026-04-25T12:18:18.097Z</time>
      </trkpt>
      <trkpt lat="51.376117" lon="0.408111">
        <ele>24.6</ele>
        <time>2026-04-25T12:18:36.097Z</time>
      </trkpt>
      <trkpt lat="51.375922" lon="0.407526">
        <ele>25.8</ele>
        <time>2026-04-25T12:18:47.097Z</time>
      </trkpt>
      <trkpt lat="51.375769" lon="0.407003">
        <ele>26.4</ele>
        <time>2026-04-25T12:18:56.097Z</time>
      </trkpt>
      <trkpt lat="51.37554" lon="0.40611">
        <ele>27.8</ele>
        <time>2026-04-25T12:19:12.097Z</time>
      </trkpt>
      <trkpt lat="51.375483" lon="0.405772">
        <ele>28.4</ele>
        <time>2026-04-25T12:19:18.097Z</time>
      </trkpt>
      <trkpt lat="51.375476" lon="0.405622">
        <ele>28.4</ele>
        <time>2026-04-25T12:19:21.097Z</time>
      </trkpt>
      <trkpt lat="51.375531" lon="0.404962">
        <ele>27.6</ele>
        <time>2026-04-25T12:19:32.097Z</time>
      </trkpt>
      <trkpt lat="51.375498" lon="0.404504">
        <ele>26.4</ele>
        <time>2026-04-25T12:19:39.097Z</time>
      </trkpt>
      <trkpt lat="51.375234" lon="0.403247">
        <ele>24.6</ele>
        <time>2026-04-25T12:20:02.097Z</time>
      </trkpt>
      <trkpt lat="51.375055" lon="0.402675">
        <ele>24.4</ele>
        <time>2026-04-25T12:20:12.097Z</time>
      </trkpt>
      <trkpt lat="51.374785" lon="0.402011">
        <ele>24.8</ele>
        <time>2026-04-25T12:20:25.097Z</time>
      </trkpt>
      <trkpt lat="51.374733" lon="0.401836">
        <ele>25</ele>
        <time>2026-04-25T12:20:29.097Z</time>
      </trkpt>
      <trkpt lat="51.374695" lon="0.401606">
        <ele>25</ele>
        <time>2026-04-25T12:20:33.097Z</time>
      </trkpt>
      <trkpt lat="51.374693" lon="0.401427">
        <ele>25</ele>
        <time>2026-04-25T12:20:36.097Z</time>
      </trkpt>
      <trkpt lat="51.374724" lon="0.401337">
        <ele>25</ele>
        <time>2026-04-25T12:20:37.097Z</time>
      </trkpt>
      <trkpt lat="51.374779" lon="0.401297">
        <ele>25</ele>
        <time>2026-04-25T12:20:39.097Z</time>
      </trkpt>
      <trkpt lat="51.375016" lon="0.401366">
        <ele>25</ele>
        <time>2026-04-25T12:20:45.097Z</time>
      </trkpt>
      <trkpt lat="51.375169" lon="0.401435">
        <ele>25.8</ele>
        <time>2026-04-25T12:20:50.097Z</time>
      </trkpt>
      <trkpt lat="51.375328" lon="0.401518">
        <ele>26.8</ele>
        <time>2026-04-25T12:20:54.097Z</time>
      </trkpt>
      <trkpt lat="51.37545" lon="0.401606">
        <ele>27.4</ele>
        <time>2026-04-25T12:20:58.097Z</time>
      </trkpt>
      <trkpt lat="51.37596" lon="0.402056">
        <ele>29.8</ele>
        <time>2026-04-25T12:21:13.097Z</time>
      </trkpt>
      <trkpt lat="51.37612" lon="0.40214">
        <ele>31</ele>
        <time>2026-04-25T12:21:18.097Z</time>
      </trkpt>
      <trkpt lat="51.376201" lon="0.402142">
        <ele>31.8</ele>
        <time>2026-04-25T12:21:20.097Z</time>
      </trkpt>
      <trkpt lat="51.376343" lon="0.402108">
        <ele>32.2</ele>
        <time>2026-04-25T12:21:24.097Z</time>
      </trkpt>
      <trkpt lat="51.376461" lon="0.401996">
        <ele>33.8</ele>
        <time>2026-04-25T12:21:27.097Z</time>
      </trkpt>
      <trkpt lat="51.376622" lon="0.401754">
        <ele>35</ele>
        <time>2026-04-25T12:21:33.097Z</time>
      </trkpt>
      <trkpt lat="51.376717" lon="0.401529">
        <ele>36</ele>
        <time>2026-04-25T12:21:38.097Z</time>
      </trkpt>
      <trkpt lat="51.376752" lon="0.401404">
        <ele>36.2</ele>
        <time>2026-04-25T12:21:40.097Z</time>
      </trkpt>
      <trkpt lat="51.376895" lon="0.401123">
        <ele>36.6</ele>
        <time>2026-04-25T12:21:46.097Z</time>
      </trkpt>
      <trkpt lat="51.376928" lon="0.401041">
        <ele>36.8</ele>
        <time>2026-04-25T12:21:48.097Z</time>
      </trkpt>
      <trkpt lat="51.376986" lon="0.400499">
        <ele>36.4</ele>
        <time>2026-04-25T12:21:57.097Z</time>
      </trkpt>
      <trkpt lat="51.377203" lon="0.39981">
        <ele>36.2</ele>
        <time>2026-04-25T12:22:10.097Z</time>
      </trkpt>
      <trkpt lat="51.37745" lon="0.399291">
        <ele>36.4</ele>
        <time>2026-04-25T12:22:21.097Z</time>
      </trkpt>
      <trkpt lat="51.377573" lon="0.398989">
        <ele>36.4</ele>
        <time>2026-04-25T12:22:27.097Z</time>
      </trkpt>
      <trkpt lat="51.377637" lon="0.398782">
        <ele>36.4</ele>
        <time>2026-04-25T12:22:30.097Z</time>
      </trkpt>
      <trkpt lat="51.378116" lon="0.396836">
        <ele>39.8</ele>
        <time>2026-04-25T12:23:05.097Z</time>
      </trkpt>
      <trkpt lat="51.378304" lon="0.395916">
        <ele>41.6</ele>
        <time>2026-04-25T12:23:21.097Z</time>
      </trkpt>
      <trkpt lat="51.378731" lon="0.393022">
        <ele>46.8</ele>
        <time>2026-04-25T12:24:11.097Z</time>
      </trkpt>
      <trkpt lat="51.378819" lon="0.392607">
        <ele>47.6</ele>
        <time>2026-04-25T12:24:18.097Z</time>
      </trkpt>
      <trkpt lat="51.378906" lon="0.392088">
        <ele>48</ele>
        <time>2026-04-25T12:24:27.097Z</time>
      </trkpt>
      <trkpt lat="51.379013" lon="0.39162">
        <ele>48.8</ele>
        <time>2026-04-25T12:24:36.097Z</time>
      </trkpt>
      <trkpt lat="51.379167" lon="0.391043">
        <ele>50</ele>
        <time>2026-04-25T12:24:46.097Z</time>
      </trkpt>
      <trkpt lat="51.379273" lon="0.390738">
        <ele>50.4</ele>
        <time>2026-04-25T12:24:52.097Z</time>
      </trkpt>
      <trkpt lat="51.379389" lon="0.390301">
        <ele>51.4</ele>
        <time>2026-04-25T12:25:00.097Z</time>
      </trkpt>
      <trkpt lat="51.379569" lon="0.389989">
        <ele>52.4</ele>
        <time>2026-04-25T12:25:07.097Z</time>
      </trkpt>
      <trkpt lat="51.379758" lon="0.389728">
        <ele>53.4</ele>
        <time>2026-04-25T12:25:13.097Z</time>
      </trkpt>
      <trkpt lat="51.379935" lon="0.389527">
        <ele>54</ele>
        <time>2026-04-25T12:25:19.097Z</time>
      </trkpt>
      <trkpt lat="51.380125" lon="0.38935">
        <ele>55</ele>
        <time>2026-04-25T12:25:25.097Z</time>
      </trkpt>
      <trkpt lat="51.38023" lon="0.389296">
        <ele>55.4</ele>
        <time>2026-04-25T12:25:28.097Z</time>
      </trkpt>
      <trkpt lat="51.380359" lon="0.389249">
        <ele>56</ele>
        <time>2026-04-25T12:25:32.097Z</time>
      </trkpt>
      <trkpt lat="51.380582" lon="0.389197">
        <ele>57</ele>
        <time>2026-04-25T12:25:38.097Z</time>
      </trkpt>
      <trkpt lat="51.38079" lon="0.389207">
        <ele>58.2</ele>
        <time>2026-04-25T12:25:43.097Z</time>
      </trkpt>
      <trkpt lat="51.381148" lon="0.389284">
        <ele>60</ele>
        <time>2026-04-25T12:25:53.097Z</time>
      </trkpt>
      <trkpt lat="51.381291" lon="0.389289">
        <ele>60.8</ele>
        <time>2026-04-25T12:25:57.097Z</time>
      </trkpt>
      <trkpt lat="51.381419" lon="0.38932">
        <ele>62.4</ele>
        <time>2026-04-25T12:26:00.097Z</time>
      </trkpt>
      <trkpt lat="51.381743" lon="0.38934">
        <ele>65</ele>
        <time>2026-04-25T12:26:09.097Z</time>
      </trkpt>
      <trkpt lat="51.381933" lon="0.389314">
        <ele>66.4</ele>
        <time>2026-04-25T12:26:14.097Z</time>
      </trkpt>
      <trkpt lat="51.382517" lon="0.389002">
        <ele>70</ele>
        <time>2026-04-25T12:26:30.097Z</time>
      </trkpt>
      <trkpt lat="51.382925" lon="0.388825">
        <ele>71.6</ele>
        <time>2026-04-25T12:26:42.097Z</time>
      </trkpt>
      <trkpt lat="51.383274" lon="0.388577">
        <ele>72.6</ele>
        <time>2026-04-25T12:26:52.097Z</time>
      </trkpt>
      <trkpt lat="51.383705" lon="0.388201">
        <ele>74</ele>
        <time>2026-04-25T12:27:05.097Z</time>
      </trkpt>
      <trkpt lat="51.384274" lon="0.387464">
        <ele>75.6</ele>
        <time>2026-04-25T12:27:24.097Z</time>
      </trkpt>
      <trkpt lat="51.384364" lon="0.387322">
        <ele>76</ele>
        <time>2026-04-25T12:27:28.097Z</time>
      </trkpt>
      <trkpt lat="51.384456" lon="0.387162">
        <ele>76</ele>
        <time>2026-04-25T12:27:31.097Z</time>
      </trkpt>
      <trkpt lat="51.384629" lon="0.386737">
        <ele>77</ele>
        <time>2026-04-25T12:27:40.097Z</time>
      </trkpt>
      <trkpt lat="51.384733" lon="0.386574">
        <ele>77.4</ele>
        <time>2026-04-25T12:27:44.097Z</time>
      </trkpt>
      <trkpt lat="51.384829" lon="0.386482">
        <ele>77.8</ele>
        <time>2026-04-25T12:27:47.097Z</time>
      </trkpt>
      <trkpt lat="51.385182" lon="0.386251">
        <ele>78.4</ele>
        <time>2026-04-25T12:27:57.097Z</time>
      </trkpt>
      <trkpt lat="51.385289" lon="0.386131">
        <ele>78.4</ele>
        <time>2026-04-25T12:28:00.097Z</time>
      </trkpt>
      <trkpt lat="51.385402" lon="0.38595">
        <ele>78.2</ele>
        <time>2026-04-25T12:28:05.097Z</time>
      </trkpt>
      <trkpt lat="51.385702" lon="0.385188">
        <ele>76.8</ele>
        <time>2026-04-25T12:28:20.097Z</time>
      </trkpt>
      <trkpt lat="51.385989" lon="0.384294">
        <ele>75.2</ele>
        <time>2026-04-25T12:28:36.097Z</time>
      </trkpt>
      <trkpt lat="51.386103" lon="0.383819">
        <ele>74.8</ele>
        <time>2026-04-25T12:28:45.097Z</time>
      </trkpt>
      <trkpt lat="51.38632" lon="0.382737">
        <ele>73.2</ele>
        <time>2026-04-25T12:29:04.097Z</time>
      </trkpt>
      <trkpt lat="51.386315" lon="0.38262">
        <ele>73</ele>
        <time>2026-04-25T12:29:06.097Z</time>
      </trkpt>
      <trkpt lat="51.386294" lon="0.38257">
        <ele>73</ele>
        <time>2026-04-25T12:29:07.097Z</time>
      </trkpt>
      <trkpt lat="51.385846" lon="0.381836">
        <ele>72.2</ele>
        <time>2026-04-25T12:29:24.097Z</time>
      </trkpt>
      <trkpt lat="51.385612" lon="0.381534">
        <ele>72</ele>
        <time>2026-04-25T12:29:32.097Z</time>
      </trkpt>
      <trkpt lat="51.385381" lon="0.381311">
        <ele>72</ele>
        <time>2026-04-25T12:29:39.097Z</time>
      </trkpt>
      <trkpt lat="51.385249" lon="0.381158">
        <ele>71.8</ele>
        <time>2026-04-25T12:29:43.097Z</time>
      </trkpt>
      <trkpt lat="51.384882" lon="0.380817">
        <ele>71.6</ele>
        <time>2026-04-25T12:29:55.097Z</time>
      </trkpt>
      <trkpt lat="51.384465" lon="0.380387">
        <ele>70.8</ele>
        <time>2026-04-25T12:30:08.097Z</time>
      </trkpt>
      <trkpt lat="51.384106" lon="0.380068">
        <ele>70.6</ele>
        <time>2026-04-25T12:30:19.097Z</time>
      </trkpt>
      <trkpt lat="51.382733" lon="0.379066">
        <ele>71.8</ele>
        <time>2026-04-25T12:30:59.097Z</time>
      </trkpt>
      <trkpt lat="51.382398" lon="0.378776">
        <ele>71.6</ele>
        <time>2026-04-25T12:31:09.097Z</time>
      </trkpt>
      <trkpt lat="51.381935" lon="0.37834">
        <ele>71.6</ele>
        <time>2026-04-25T12:31:24.097Z</time>
      </trkpt>
      <trkpt lat="51.38157" lon="0.377956">
        <ele>72</ele>
        <time>2026-04-25T12:31:35.097Z</time>
      </trkpt>
      <trkpt lat="51.381368" lon="0.377686">
        <ele>72.4</ele>
        <time>2026-04-25T12:31:42.097Z</time>
      </trkpt>
      <trkpt lat="51.381253" lon="0.377426">
        <ele>72.8</ele>
        <time>2026-04-25T12:31:48.097Z</time>
      </trkpt>
      <trkpt lat="51.38122" lon="0.377295">
        <ele>72.8</ele>
        <time>2026-04-25T12:31:50.097Z</time>
      </trkpt>
      <trkpt lat="51.380977" lon="0.375548">
        <ele>74.2</ele>
        <time>2026-04-25T12:32:20.097Z</time>
      </trkpt>
      <trkpt lat="51.380871" lon="0.375063">
        <ele>74.4</ele>
        <time>2026-04-25T12:32:28.097Z</time>
      </trkpt>
      <trkpt lat="51.379987" lon="0.37233">
        <ele>79.4</ele>
        <time>2026-04-25T12:33:20.097Z</time>
      </trkpt>
      <trkpt lat="51.379822" lon="0.37186">
        <ele>80.6</ele>
        <time>2026-04-25T12:33:29.097Z</time>
      </trkpt>
      <trkpt lat="51.379621" lon="0.371133">
        <ele>81.8</ele>
        <time>2026-04-25T12:33:42.097Z</time>
      </trkpt>
      <trkpt lat="51.379349" lon="0.370056">
        <ele>83</ele>
        <time>2026-04-25T12:34:01.097Z</time>
      </trkpt>
      <trkpt lat="51.379179" lon="0.369643">
        <ele>83.2</ele>
        <time>2026-04-25T12:34:10.097Z</time>
      </trkpt>
      <trkpt lat="51.378999" lon="0.369331">
        <ele>83</ele>
        <time>2026-04-25T12:34:17.097Z</time>
      </trkpt>
      <trkpt lat="51.378468" lon="0.36863">
        <ele>84.2</ele>
        <time>2026-04-25T12:34:35.097Z</time>
      </trkpt>
      <trkpt lat="51.378037" lon="0.3681">
        <ele>85</ele>
        <time>2026-04-25T12:34:50.097Z</time>
      </trkpt>
      <trkpt lat="51.377946" lon="0.367906">
        <ele>85.6</ele>
        <time>2026-04-25T12:34:54.097Z</time>
      </trkpt>
      <trkpt lat="51.377883" lon="0.367678">
        <ele>85.8</ele>
        <time>2026-04-25T12:34:58.097Z</time>
      </trkpt>
      <trkpt lat="51.377756" lon="0.36707">
        <ele>86.2</ele>
        <time>2026-04-25T12:35:08.097Z</time>
      </trkpt>
      <trkpt lat="51.377686" lon="0.366601">
        <ele>86.8</ele>
        <time>2026-04-25T12:35:16.097Z</time>
      </trkpt>
      <trkpt lat="51.377475" lon="0.365514">
        <ele>88.2</ele>
        <time>2026-04-25T12:35:35.097Z</time>
      </trkpt>
      <trkpt lat="51.377272" lon="0.364795">
        <ele>89.2</ele>
        <time>2026-04-25T12:35:49.097Z</time>
      </trkpt>
      <trkpt lat="51.377185" lon="0.364312">
        <ele>89.4</ele>
        <time>2026-04-25T12:35:57.097Z</time>
      </trkpt>
      <trkpt lat="51.377144" lon="0.364009">
        <ele>89.2</ele>
        <time>2026-04-25T12:36:02.097Z</time>
      </trkpt>
      <trkpt lat="51.377125" lon="0.363701">
        <ele>89</ele>
        <time>2026-04-25T12:36:07.097Z</time>
      </trkpt>
      <trkpt lat="51.377107" lon="0.363332">
        <ele>88.6</ele>
        <time>2026-04-25T12:36:13.097Z</time>
      </trkpt>
      <trkpt lat="51.377123" lon="0.363032">
        <ele>88.2</ele>
        <time>2026-04-25T12:36:18.097Z</time>
      </trkpt>
      <trkpt lat="51.377109" lon="0.362583">
        <ele>87.6</ele>
        <time>2026-04-25T12:36:26.097Z</time>
      </trkpt>
      <trkpt lat="51.377097" lon="0.362391">
        <ele>86.6</ele>
        <time>2026-04-25T12:36:29.097Z</time>
      </trkpt>
      <trkpt lat="51.37704" lon="0.362038">
        <ele>85</ele>
        <time>2026-04-25T12:36:35.097Z</time>
      </trkpt>
      <trkpt lat="51.377059" lon="0.36194">
        <ele>84.8</ele>
        <time>2026-04-25T12:36:37.097Z</time>
      </trkpt>
      <trkpt lat="51.377084" lon="0.361902">
        <ele>84.6</ele>
        <time>2026-04-25T12:36:38.097Z</time>
      </trkpt>
      <trkpt lat="51.377205" lon="0.361833">
        <ele>84.2</ele>
        <time>2026-04-25T12:36:41.097Z</time>
      </trkpt>
      <trkpt lat="51.377527" lon="0.361729">
        <ele>83.2</ele>
        <time>2026-04-25T12:36:50.097Z</time>
      </trkpt>
      <trkpt lat="51.378523" lon="0.361349">
        <ele>80</ele>
        <time>2026-04-25T12:37:17.097Z</time>
      </trkpt>
      <trkpt lat="51.378846" lon="0.361273">
        <ele>79.2</ele>
        <time>2026-04-25T12:37:26.097Z</time>
      </trkpt>
      <trkpt lat="51.379337" lon="0.361229">
        <ele>77.8</ele>
        <time>2026-04-25T12:37:39.097Z</time>
      </trkpt>
      <trkpt lat="51.379965" lon="0.361055">
        <ele>76.2</ele>
        <time>2026-04-25T12:37:56.097Z</time>
      </trkpt>
      <trkpt lat="51.380428" lon="0.360822">
        <ele>74.8</ele>
        <time>2026-04-25T12:38:09.097Z</time>
      </trkpt>
      <trkpt lat="51.38059" lon="0.360708">
        <ele>74</ele>
        <time>2026-04-25T12:38:14.097Z</time>
      </trkpt>
      <trkpt lat="51.38093" lon="0.36041">
        <ele>72.2</ele>
        <time>2026-04-25T12:38:24.097Z</time>
      </trkpt>
      <trkpt lat="51.380962" lon="0.360403">
        <ele>71.8</ele>
        <time>2026-04-25T12:38:25.097Z</time>
      </trkpt>
      <trkpt lat="51.381019" lon="0.360445">
        <ele>71.4</ele>
        <time>2026-04-25T12:38:27.097Z</time>
      </trkpt>
      <trkpt lat="51.381062" lon="0.360611">
        <ele>71</ele>
        <time>2026-04-25T12:38:30.097Z</time>
      </trkpt>
      <trkpt lat="51.381149" lon="0.360827">
        <ele>71.4</ele>
        <time>2026-04-25T12:38:34.097Z</time>
      </trkpt>
      <trkpt lat="51.381243" lon="0.360978">
        <ele>72.4</ele>
        <time>2026-04-25T12:38:38.097Z</time>
      </trkpt>
      <trkpt lat="51.381335" lon="0.361051">
        <ele>72.8</ele>
        <time>2026-04-25T12:38:40.097Z</time>
      </trkpt>
      <trkpt lat="51.381361" lon="0.361132">
        <ele>73</ele>
        <time>2026-04-25T12:38:42.097Z</time>
      </trkpt>
    </trkseg>
  </trk>
</gpx>
